<?xml version="1.0" encoding="UTF-8" standalone="no" ?>
<gpx xmlns="http://www.topografix.com/GPX/1/1" xmlns:xsi="http://www.w3.org/2001/XMLSchema-instance" xsi:schemaLocation="http://www.topografix.com/GPX/1/1 http://www.topografix.com/GPX/1/1/gpx.xsd" version="1.1" creator="VisuGPX - https://www.visugpx.com">
  <metadata>
    <name>Carcassonne-Pyrenees 2000-Carcassonne</name>
  </metadata>
  <wpt lat="42.88867" lon="2.13354">
    <ele>556.3</ele>
    <name><![CDATA[Ravitaillement]]></name>
    <type><![CDATA[restaurant]]></type>
  </wpt>
  <wpt lat="42.7374" lon="2.12646">
    <ele>1019.6</ele>
    <name><![CDATA[Ravitaillement salé]]></name>
    <type><![CDATA[restaurant]]></type>
  </wpt>
  <wpt lat="42.68177" lon="2.12459">
    <ele>1486.2</ele>
    <name><![CDATA[Eau]]></name>
    <type><![CDATA[drink]]></type>
  </wpt>
  <wpt lat="42.88" lon="2.35361">
    <ele>489</ele>
    <name><![CDATA[Ravitaillement]]></name>
    <type><![CDATA[restaurant]]></type>
  </wpt>
  <wpt lat="43.00501" lon="2.37772">
    <ele>671</ele>
    <name><![CDATA[Eau]]></name>
    <type><![CDATA[drink]]></type>
  </wpt>
  <wpt lat="42.66119" lon="2.48266">
    <ele>570.6</ele>
    <name><![CDATA[Eau]]></name>
    <type><![CDATA[drink]]></type>
  </wpt>
  <wpt lat="42.73662" lon="2.48223">
    <ele>304.4</ele>
    <name><![CDATA[Ravitaillement salé]]></name>
    <type><![CDATA[restaurant]]></type>
  </wpt>
  <wpt lat="42.62275" lon="2.41265">
    <ele>434.8</ele>
    <name><![CDATA[Ravitaillement]]></name>
    <type><![CDATA[commerce]]></type>
  </wpt>
  <wpt lat="42.83747" lon="2.48167">
    <ele>389.8</ele>
    <name><![CDATA[Gorges de Galamus]]></name>
    <type><![CDATA[vue]]></type>
  </wpt>
  <trk>
    <name><![CDATA[9258680-PYR-2000 retour 2021 Galamus]]></name>
    <extensions>
      <line xmlns="http://www.topografix.com/GPX/gpx_style/0/2">
        <color>ff0000</color>
        <width>7</width>
      </line>
    </extensions>
    <trkseg>
      <trkpt lat="42.50674" lon="2.12076">
        <ele>1563</ele>
        <time>2021-12-05T13:18:53Z</time>
      </trkpt>
      <trkpt lat="42.50668" lon="2.12088">
        <ele>1563</ele>
        <time>2021-12-05T13:18:55Z</time>
      </trkpt>
      <trkpt lat="42.50663" lon="2.12109">
        <ele>1563</ele>
        <time>2021-12-05T13:18:58Z</time>
      </trkpt>
      <trkpt lat="42.50663" lon="2.12124">
        <ele>1564</ele>
        <time>2021-12-05T13:19:00Z</time>
      </trkpt>
      <trkpt lat="42.50672" lon="2.12183">
        <ele>1566</ele>
        <time>2021-12-05T13:19:08Z</time>
      </trkpt>
      <trkpt lat="42.50672" lon="2.12252">
        <ele>1566</ele>
        <time>2021-12-05T13:19:17Z</time>
      </trkpt>
      <trkpt lat="42.50675" lon="2.12263">
        <ele>1566</ele>
        <time>2021-12-05T13:19:18Z</time>
      </trkpt>
      <trkpt lat="42.50681" lon="2.12278">
        <ele>1566</ele>
        <time>2021-12-05T13:19:20Z</time>
      </trkpt>
      <trkpt lat="42.50707" lon="2.12304">
        <ele>1567</ele>
        <time>2021-12-05T13:19:26Z</time>
      </trkpt>
      <trkpt lat="42.50725" lon="2.12339">
        <ele>1567</ele>
        <time>2021-12-05T13:19:32Z</time>
      </trkpt>
      <trkpt lat="42.50741" lon="2.12388">
        <ele>1565</ele>
        <time>2021-12-05T13:19:39Z</time>
      </trkpt>
      <trkpt lat="42.50746" lon="2.12402">
        <ele>1565</ele>
        <time>2021-12-05T13:19:41Z</time>
      </trkpt>
      <trkpt lat="42.50761" lon="2.12418">
        <ele>1565</ele>
        <time>2021-12-05T13:19:44Z</time>
      </trkpt>
      <trkpt lat="42.50784" lon="2.12438">
        <ele>1564</ele>
        <time>2021-12-05T13:19:49Z</time>
      </trkpt>
      <trkpt lat="42.50818" lon="2.12476">
        <ele>1562</ele>
        <time>2021-12-05T13:19:57Z</time>
      </trkpt>
      <trkpt lat="42.50852" lon="2.12496">
        <ele>1558</ele>
        <time>2021-12-05T13:20:04Z</time>
      </trkpt>
      <trkpt lat="42.5086" lon="2.12504">
        <ele>1556</ele>
        <time>2021-12-05T13:20:05Z</time>
      </trkpt>
      <trkpt lat="42.50871" lon="2.12519">
        <ele>1554</ele>
        <time>2021-12-05T13:20:08Z</time>
      </trkpt>
      <trkpt lat="42.50894" lon="2.12567">
        <ele>1547</ele>
        <time>2021-12-05T13:20:16Z</time>
      </trkpt>
      <trkpt lat="42.50903" lon="2.12576">
        <ele>1545</ele>
        <time>2021-12-05T13:20:18Z</time>
      </trkpt>
      <trkpt lat="42.50911" lon="2.1258">
        <ele>1544</ele>
        <time>2021-12-05T13:20:19Z</time>
      </trkpt>
      <trkpt lat="42.5092" lon="2.12579">
        <ele>1542</ele>
        <time>2021-12-05T13:20:21Z</time>
      </trkpt>
      <trkpt lat="42.50928" lon="2.12571">
        <ele>1540</ele>
        <time>2021-12-05T13:20:23Z</time>
      </trkpt>
      <trkpt lat="42.50931" lon="2.12555">
        <ele>1540</ele>
        <time>2021-12-05T13:20:25Z</time>
      </trkpt>
      <trkpt lat="42.50932" lon="2.12534">
        <ele>1541</ele>
        <time>2021-12-05T13:20:27Z</time>
      </trkpt>
      <trkpt lat="42.50927" lon="2.12471">
        <ele>1550</ele>
        <time>2021-12-05T13:20:36Z</time>
      </trkpt>
      <trkpt lat="42.50929" lon="2.12456">
        <ele>1551</ele>
        <time>2021-12-05T13:20:38Z</time>
      </trkpt>
      <trkpt lat="42.50939" lon="2.12435">
        <ele>1549</ele>
        <time>2021-12-05T13:20:41Z</time>
      </trkpt>
      <trkpt lat="42.51015" lon="2.12323">
        <ele>1551</ele>
        <time>2021-12-05T13:21:01Z</time>
      </trkpt>
      <trkpt lat="42.51025" lon="2.12317">
        <ele>1551</ele>
        <time>2021-12-05T13:21:03Z</time>
      </trkpt>
      <trkpt lat="42.51034" lon="2.12314">
        <ele>1550</ele>
        <time>2021-12-05T13:21:05Z</time>
      </trkpt>
      <trkpt lat="42.51071" lon="2.12322">
        <ele>1541</ele>
        <time>2021-12-05T13:21:11Z</time>
      </trkpt>
      <trkpt lat="42.51084" lon="2.12324">
        <ele>1538</ele>
        <time>2021-12-05T13:21:14Z</time>
      </trkpt>
      <trkpt lat="42.51091" lon="2.12323">
        <ele>1537</ele>
        <time>2021-12-05T13:21:15Z</time>
      </trkpt>
      <trkpt lat="42.51099" lon="2.12319">
        <ele>1537</ele>
        <time>2021-12-05T13:21:16Z</time>
      </trkpt>
      <trkpt lat="42.51158" lon="2.12255">
        <ele>1540</ele>
        <time>2021-12-05T13:21:30Z</time>
      </trkpt>
      <trkpt lat="42.51165" lon="2.12249">
        <ele>1539</ele>
        <time>2021-12-05T13:21:31Z</time>
      </trkpt>
      <trkpt lat="42.51173" lon="2.12247">
        <ele>1539</ele>
        <time>2021-12-05T13:21:33Z</time>
      </trkpt>
      <trkpt lat="42.51179" lon="2.12248">
        <ele>1540</ele>
        <time>2021-12-05T13:21:34Z</time>
      </trkpt>
      <trkpt lat="42.51185" lon="2.12252">
        <ele>1540</ele>
        <time>2021-12-05T13:21:35Z</time>
      </trkpt>
      <trkpt lat="42.51208" lon="2.12272">
        <ele>1541</ele>
        <time>2021-12-05T13:21:40Z</time>
      </trkpt>
      <trkpt lat="42.51215" lon="2.12282">
        <ele>1542</ele>
        <time>2021-12-05T13:21:42Z</time>
      </trkpt>
      <trkpt lat="42.5122" lon="2.12294">
        <ele>1542</ele>
        <time>2021-12-05T13:21:43Z</time>
      </trkpt>
      <trkpt lat="42.5122" lon="2.12298">
        <ele>1542</ele>
        <time>2021-12-05T13:21:44Z</time>
      </trkpt>
      <trkpt lat="42.51221" lon="2.12304">
        <ele>1542</ele>
        <time>2021-12-05T13:21:45Z</time>
      </trkpt>
      <trkpt lat="42.51219" lon="2.12315">
        <ele>1540</ele>
        <time>2021-12-05T13:21:46Z</time>
      </trkpt>
      <trkpt lat="42.5121" lon="2.12347">
        <ele>1538</ele>
        <time>2021-12-05T13:21:51Z</time>
      </trkpt>
      <trkpt lat="42.51204" lon="2.12366">
        <ele>1538</ele>
        <time>2021-12-05T13:21:53Z</time>
      </trkpt>
      <trkpt lat="42.51198" lon="2.12377">
        <ele>1537</ele>
        <time>2021-12-05T13:21:55Z</time>
      </trkpt>
      <trkpt lat="42.51189" lon="2.12386">
        <ele>1536</ele>
        <time>2021-12-05T13:21:57Z</time>
      </trkpt>
      <trkpt lat="42.51165" lon="2.12401">
        <ele>1530</ele>
        <time>2021-12-05T13:22:02Z</time>
      </trkpt>
      <trkpt lat="42.51137" lon="2.12425">
        <ele>1528</ele>
        <time>2021-12-05T13:22:08Z</time>
      </trkpt>
      <trkpt lat="42.51115" lon="2.12433">
        <ele>1524</ele>
        <time>2021-12-05T13:22:12Z</time>
      </trkpt>
      <trkpt lat="42.51107" lon="2.12439">
        <ele>1522</ele>
        <time>2021-12-05T13:22:14Z</time>
      </trkpt>
      <trkpt lat="42.511" lon="2.12451">
        <ele>1521</ele>
        <time>2021-12-05T13:22:16Z</time>
      </trkpt>
      <trkpt lat="42.51094" lon="2.12467">
        <ele>1520</ele>
        <time>2021-12-05T13:22:18Z</time>
      </trkpt>
      <trkpt lat="42.51091" lon="2.12481">
        <ele>1519</ele>
        <time>2021-12-05T13:22:20Z</time>
      </trkpt>
      <trkpt lat="42.51093" lon="2.12502">
        <ele>1520</ele>
        <time>2021-12-05T13:22:23Z</time>
      </trkpt>
      <trkpt lat="42.51107" lon="2.12577">
        <ele>1520</ele>
        <time>2021-12-05T13:22:33Z</time>
      </trkpt>
      <trkpt lat="42.51123" lon="2.12625">
        <ele>1525</ele>
        <time>2021-12-05T13:22:40Z</time>
      </trkpt>
      <trkpt lat="42.51127" lon="2.1265">
        <ele>1525</ele>
        <time>2021-12-05T13:22:43Z</time>
      </trkpt>
      <trkpt lat="42.51127" lon="2.12662">
        <ele>1524</ele>
        <time>2021-12-05T13:22:45Z</time>
      </trkpt>
      <trkpt lat="42.51124" lon="2.12674">
        <ele>1522</ele>
        <time>2021-12-05T13:22:46Z</time>
      </trkpt>
      <trkpt lat="42.51108" lon="2.12723">
        <ele>1515</ele>
        <time>2021-12-05T13:22:53Z</time>
      </trkpt>
      <trkpt lat="42.51097" lon="2.12783">
        <ele>1512</ele>
        <time>2021-12-05T13:23:01Z</time>
      </trkpt>
      <trkpt lat="42.51084" lon="2.12815">
        <ele>1508</ele>
        <time>2021-12-05T13:23:06Z</time>
      </trkpt>
      <trkpt lat="42.51081" lon="2.12827">
        <ele>1508</ele>
        <time>2021-12-05T13:23:08Z</time>
      </trkpt>
      <trkpt lat="42.51083" lon="2.12881">
        <ele>1516</ele>
        <time>2021-12-05T13:23:15Z</time>
      </trkpt>
      <trkpt lat="42.51081" lon="2.12889">
        <ele>1517</ele>
        <time>2021-12-05T13:23:16Z</time>
      </trkpt>
      <trkpt lat="42.51077" lon="2.12896">
        <ele>1517</ele>
        <time>2021-12-05T13:23:17Z</time>
      </trkpt>
      <trkpt lat="42.51033" lon="2.12925">
        <ele>1515</ele>
        <time>2021-12-05T13:23:26Z</time>
      </trkpt>
      <trkpt lat="42.51022" lon="2.12927">
        <ele>1514</ele>
        <time>2021-12-05T13:23:28Z</time>
      </trkpt>
      <trkpt lat="42.51003" lon="2.12924">
        <ele>1510</ele>
        <time>2021-12-05T13:23:31Z</time>
      </trkpt>
      <trkpt lat="42.50987" lon="2.1293">
        <ele>1507</ele>
        <time>2021-12-05T13:23:34Z</time>
      </trkpt>
      <trkpt lat="42.50951" lon="2.12968">
        <ele>1507</ele>
        <time>2021-12-05T13:23:42Z</time>
      </trkpt>
      <trkpt lat="42.509" lon="2.13015">
        <ele>1509</ele>
        <time>2021-12-05T13:23:53Z</time>
      </trkpt>
      <trkpt lat="42.5089" lon="2.13023">
        <ele>1509</ele>
        <time>2021-12-05T13:23:55Z</time>
      </trkpt>
      <trkpt lat="42.50856" lon="2.13024">
        <ele>1502</ele>
        <time>2021-12-05T13:24:01Z</time>
      </trkpt>
      <trkpt lat="42.50814" lon="2.13032">
        <ele>1497</ele>
        <time>2021-12-05T13:24:09Z</time>
      </trkpt>
      <trkpt lat="42.50798" lon="2.13039">
        <ele>1497</ele>
        <time>2021-12-05T13:24:12Z</time>
      </trkpt>
      <trkpt lat="42.50778" lon="2.13062">
        <ele>1500</ele>
        <time>2021-12-05T13:24:17Z</time>
      </trkpt>
      <trkpt lat="42.50738" lon="2.13083">
        <ele>1495</ele>
        <time>2021-12-05T13:24:24Z</time>
      </trkpt>
      <trkpt lat="42.50732" lon="2.13092">
        <ele>1494</ele>
        <time>2021-12-05T13:24:26Z</time>
      </trkpt>
      <trkpt lat="42.50729" lon="2.13104">
        <ele>1494</ele>
        <time>2021-12-05T13:24:28Z</time>
      </trkpt>
      <trkpt lat="42.50725" lon="2.13157">
        <ele>1497</ele>
        <time>2021-12-05T13:24:35Z</time>
      </trkpt>
      <trkpt lat="42.5072" lon="2.13175">
        <ele>1496</ele>
        <time>2021-12-05T13:24:37Z</time>
      </trkpt>
      <trkpt lat="42.50707" lon="2.13216">
        <ele>1493</ele>
        <time>2021-12-05T13:24:43Z</time>
      </trkpt>
      <trkpt lat="42.50702" lon="2.13244">
        <ele>1493</ele>
        <time>2021-12-05T13:24:47Z</time>
      </trkpt>
      <trkpt lat="42.50701" lon="2.13267">
        <ele>1492</ele>
        <time>2021-12-05T13:24:50Z</time>
      </trkpt>
      <trkpt lat="42.50706" lon="2.13346">
        <ele>1491</ele>
        <time>2021-12-05T13:25:00Z</time>
      </trkpt>
      <trkpt lat="42.50704" lon="2.13364">
        <ele>1491</ele>
        <time>2021-12-05T13:25:02Z</time>
      </trkpt>
      <trkpt lat="42.50699" lon="2.13378">
        <ele>1491</ele>
        <time>2021-12-05T13:25:05Z</time>
      </trkpt>
      <trkpt lat="42.50676" lon="2.13406">
        <ele>1487</ele>
        <time>2021-12-05T13:25:10Z</time>
      </trkpt>
      <trkpt lat="42.50642" lon="2.13431">
        <ele>1478</ele>
        <time>2021-12-05T13:25:17Z</time>
      </trkpt>
      <trkpt lat="42.5063" lon="2.13442">
        <ele>1475</ele>
        <time>2021-12-05T13:25:19Z</time>
      </trkpt>
      <trkpt lat="42.50618" lon="2.13459">
        <ele>1473</ele>
        <time>2021-12-05T13:25:23Z</time>
      </trkpt>
      <trkpt lat="42.50613" lon="2.13474">
        <ele>1472</ele>
        <time>2021-12-05T13:25:25Z</time>
      </trkpt>
      <trkpt lat="42.5061" lon="2.1349">
        <ele>1473</ele>
        <time>2021-12-05T13:25:27Z</time>
      </trkpt>
      <trkpt lat="42.50611" lon="2.13502">
        <ele>1473</ele>
        <time>2021-12-05T13:25:28Z</time>
      </trkpt>
      <trkpt lat="42.50616" lon="2.13519">
        <ele>1471</ele>
        <time>2021-12-05T13:25:31Z</time>
      </trkpt>
      <trkpt lat="42.50628" lon="2.13535">
        <ele>1471</ele>
        <time>2021-12-05T13:25:34Z</time>
      </trkpt>
      <trkpt lat="42.5064" lon="2.13545">
        <ele>1473</ele>
        <time>2021-12-05T13:25:36Z</time>
      </trkpt>
      <trkpt lat="42.50699" lon="2.1358">
        <ele>1479</ele>
        <time>2021-12-05T13:25:48Z</time>
      </trkpt>
      <trkpt lat="42.50754" lon="2.13626">
        <ele>1478</ele>
        <time>2021-12-05T13:25:59Z</time>
      </trkpt>
      <trkpt lat="42.5076" lon="2.13636">
        <ele>1477</ele>
        <time>2021-12-05T13:26:01Z</time>
      </trkpt>
      <trkpt lat="42.50764" lon="2.13648">
        <ele>1475</ele>
        <time>2021-12-05T13:26:03Z</time>
      </trkpt>
      <trkpt lat="42.50774" lon="2.13694">
        <ele>1465</ele>
        <time>2021-12-05T13:26:09Z</time>
      </trkpt>
      <trkpt lat="42.5078" lon="2.13714">
        <ele>1461</ele>
        <time>2021-12-05T13:26:12Z</time>
      </trkpt>
      <trkpt lat="42.5079" lon="2.1373">
        <ele>1460</ele>
        <time>2021-12-05T13:26:15Z</time>
      </trkpt>
      <trkpt lat="42.50851" lon="2.1377">
        <ele>1470</ele>
        <time>2021-12-05T13:26:27Z</time>
      </trkpt>
      <trkpt lat="42.50862" lon="2.1378">
        <ele>1472</ele>
        <time>2021-12-05T13:26:29Z</time>
      </trkpt>
      <trkpt lat="42.50867" lon="2.1379">
        <ele>1473</ele>
        <time>2021-12-05T13:26:31Z</time>
      </trkpt>
      <trkpt lat="42.50868" lon="2.13803">
        <ele>1471</ele>
        <time>2021-12-05T13:26:32Z</time>
      </trkpt>
      <trkpt lat="42.50867" lon="2.13815">
        <ele>1469</ele>
        <time>2021-12-05T13:26:34Z</time>
      </trkpt>
      <trkpt lat="42.50862" lon="2.13826">
        <ele>1465</ele>
        <time>2021-12-05T13:26:36Z</time>
      </trkpt>
      <trkpt lat="42.50852" lon="2.13839">
        <ele>1459</ele>
        <time>2021-12-05T13:26:38Z</time>
      </trkpt>
      <trkpt lat="42.50845" lon="2.13856">
        <ele>1456</ele>
        <time>2021-12-05T13:26:41Z</time>
      </trkpt>
      <trkpt lat="42.50839" lon="2.13875">
        <ele>1453</ele>
        <time>2021-12-05T13:26:43Z</time>
      </trkpt>
      <trkpt lat="42.50837" lon="2.13924">
        <ele>1452</ele>
        <time>2021-12-05T13:26:50Z</time>
      </trkpt>
      <trkpt lat="42.50842" lon="2.14047">
        <ele>1451</ele>
        <time>2021-12-05T13:27:06Z</time>
      </trkpt>
      <trkpt lat="42.50831" lon="2.14148">
        <ele>1447</ele>
        <time>2021-12-05T13:27:19Z</time>
      </trkpt>
      <trkpt lat="42.50823" lon="2.14188">
        <ele>1447</ele>
        <time>2021-12-05T13:27:25Z</time>
      </trkpt>
      <trkpt lat="42.50815" lon="2.14218">
        <ele>1445</ele>
        <time>2021-12-05T13:27:29Z</time>
      </trkpt>
      <trkpt lat="42.50798" lon="2.14253">
        <ele>1439</ele>
        <time>2021-12-05T13:27:34Z</time>
      </trkpt>
      <trkpt lat="42.5077" lon="2.14293">
        <ele>1431</ele>
        <time>2021-12-05T13:27:42Z</time>
      </trkpt>
      <trkpt lat="42.50751" lon="2.14317">
        <ele>1426</ele>
        <time>2021-12-05T13:27:46Z</time>
      </trkpt>
      <trkpt lat="42.50743" lon="2.14323">
        <ele>1423</ele>
        <time>2021-12-05T13:27:48Z</time>
      </trkpt>
      <trkpt lat="42.50731" lon="2.14338">
        <ele>1419</ele>
        <time>2021-12-05T13:27:51Z</time>
      </trkpt>
      <trkpt lat="42.50704" lon="2.14385">
        <ele>1416</ele>
        <time>2021-12-05T13:27:59Z</time>
      </trkpt>
      <trkpt lat="42.50689" lon="2.144">
        <ele>1414</ele>
        <time>2021-12-05T13:28:02Z</time>
      </trkpt>
      <trkpt lat="42.50664" lon="2.14422">
        <ele>1409</ele>
        <time>2021-12-05T13:28:07Z</time>
      </trkpt>
      <trkpt lat="42.50655" lon="2.14434">
        <ele>1402</ele>
        <time>2021-12-05T13:28:10Z</time>
      </trkpt>
      <trkpt lat="42.50652" lon="2.14441">
        <ele>1400</ele>
        <time>2021-12-05T13:28:11Z</time>
      </trkpt>
      <trkpt lat="42.50651" lon="2.14448">
        <ele>1399</ele>
        <time>2021-12-05T13:28:12Z</time>
      </trkpt>
      <trkpt lat="42.50653" lon="2.14468">
        <ele>1397</ele>
        <time>2021-12-05T13:28:14Z</time>
      </trkpt>
      <trkpt lat="42.50661" lon="2.1448">
        <ele>1396</ele>
        <time>2021-12-05T13:28:16Z</time>
      </trkpt>
      <trkpt lat="42.50671" lon="2.14485">
        <ele>1397</ele>
        <time>2021-12-05T13:28:18Z</time>
      </trkpt>
      <trkpt lat="42.50681" lon="2.14486">
        <ele>1398</ele>
        <time>2021-12-05T13:28:20Z</time>
      </trkpt>
      <trkpt lat="42.50726" lon="2.14484">
        <ele>1405</ele>
        <time>2021-12-05T13:28:28Z</time>
      </trkpt>
      <trkpt lat="42.50775" lon="2.14495">
        <ele>1413</ele>
        <time>2021-12-05T13:28:37Z</time>
      </trkpt>
      <trkpt lat="42.50799" lon="2.14503">
        <ele>1419</ele>
        <time>2021-12-05T13:28:41Z</time>
      </trkpt>
      <trkpt lat="42.50807" lon="2.1451">
        <ele>1421</ele>
        <time>2021-12-05T13:28:43Z</time>
      </trkpt>
      <trkpt lat="42.50814" lon="2.14524">
        <ele>1422</ele>
        <time>2021-12-05T13:28:45Z</time>
      </trkpt>
      <trkpt lat="42.50816" lon="2.14534">
        <ele>1421</ele>
        <time>2021-12-05T13:28:46Z</time>
      </trkpt>
      <trkpt lat="42.50815" lon="2.14548">
        <ele>1418</ele>
        <time>2021-12-05T13:28:48Z</time>
      </trkpt>
      <trkpt lat="42.50809" lon="2.14562">
        <ele>1414</ele>
        <time>2021-12-05T13:28:50Z</time>
      </trkpt>
      <trkpt lat="42.50782" lon="2.14613">
        <ele>1397</ele>
        <time>2021-12-05T13:28:59Z</time>
      </trkpt>
      <trkpt lat="42.50773" lon="2.14635">
        <ele>1392</ele>
        <time>2021-12-05T13:29:02Z</time>
      </trkpt>
      <trkpt lat="42.50769" lon="2.14654">
        <ele>1390</ele>
        <time>2021-12-05T13:29:05Z</time>
      </trkpt>
      <trkpt lat="42.50765" lon="2.14683">
        <ele>1386</ele>
        <time>2021-12-05T13:29:08Z</time>
      </trkpt>
      <trkpt lat="42.50765" lon="2.14707">
        <ele>1384</ele>
        <time>2021-12-05T13:29:12Z</time>
      </trkpt>
      <trkpt lat="42.50768" lon="2.1473">
        <ele>1384</ele>
        <time>2021-12-05T13:29:15Z</time>
      </trkpt>
      <trkpt lat="42.50772" lon="2.14747">
        <ele>1385</ele>
        <time>2021-12-05T13:29:17Z</time>
      </trkpt>
      <trkpt lat="42.5078" lon="2.14763">
        <ele>1387</ele>
        <time>2021-12-05T13:29:20Z</time>
      </trkpt>
      <trkpt lat="42.50784" lon="2.14773">
        <ele>1387</ele>
        <time>2021-12-05T13:29:21Z</time>
      </trkpt>
      <trkpt lat="42.50792" lon="2.14791">
        <ele>1388</ele>
        <time>2021-12-05T13:29:24Z</time>
      </trkpt>
      <trkpt lat="42.508" lon="2.14821">
        <ele>1387</ele>
        <time>2021-12-05T13:29:28Z</time>
      </trkpt>
      <trkpt lat="42.50804" lon="2.14849">
        <ele>1384</ele>
        <time>2021-12-05T13:29:32Z</time>
      </trkpt>
      <trkpt lat="42.50804" lon="2.149">
        <ele>1376</ele>
        <time>2021-12-05T13:29:38Z</time>
      </trkpt>
      <trkpt lat="42.50806" lon="2.14914">
        <ele>1374</ele>
        <time>2021-12-05T13:29:40Z</time>
      </trkpt>
      <trkpt lat="42.50812" lon="2.14928">
        <ele>1373</ele>
        <time>2021-12-05T13:29:42Z</time>
      </trkpt>
      <trkpt lat="42.50849" lon="2.14974">
        <ele>1377</ele>
        <time>2021-12-05T13:29:51Z</time>
      </trkpt>
      <trkpt lat="42.50859" lon="2.1499">
        <ele>1377</ele>
        <time>2021-12-05T13:29:54Z</time>
      </trkpt>
      <trkpt lat="42.50865" lon="2.15004">
        <ele>1376</ele>
        <time>2021-12-05T13:29:56Z</time>
      </trkpt>
      <trkpt lat="42.50868" lon="2.15026">
        <ele>1371</ele>
        <time>2021-12-05T13:29:59Z</time>
      </trkpt>
      <trkpt lat="42.50873" lon="2.15037">
        <ele>1370</ele>
        <time>2021-12-05T13:30:01Z</time>
      </trkpt>
      <trkpt lat="42.50898" lon="2.15066">
        <ele>1374</ele>
        <time>2021-12-05T13:30:07Z</time>
      </trkpt>
      <trkpt lat="42.50902" lon="2.15074">
        <ele>1374</ele>
        <time>2021-12-05T13:30:08Z</time>
      </trkpt>
      <trkpt lat="42.50903" lon="2.15084">
        <ele>1372</ele>
        <time>2021-12-05T13:30:09Z</time>
      </trkpt>
      <trkpt lat="42.50903" lon="2.15092">
        <ele>1373</ele>
        <time>2021-12-05T13:30:10Z</time>
      </trkpt>
      <trkpt lat="42.509" lon="2.15102">
        <ele>1373</ele>
        <time>2021-12-05T13:30:12Z</time>
      </trkpt>
      <trkpt lat="42.50893" lon="2.15115">
        <ele>1371</ele>
        <time>2021-12-05T13:30:14Z</time>
      </trkpt>
      <trkpt lat="42.50852" lon="2.15163">
        <ele>1359</ele>
        <time>2021-12-05T13:30:23Z</time>
      </trkpt>
      <trkpt lat="42.50832" lon="2.1519">
        <ele>1357</ele>
        <time>2021-12-05T13:30:29Z</time>
      </trkpt>
      <trkpt lat="42.50798" lon="2.15216">
        <ele>1348</ele>
        <time>2021-12-05T13:30:35Z</time>
      </trkpt>
      <trkpt lat="42.50786" lon="2.15228">
        <ele>1345</ele>
        <time>2021-12-05T13:30:38Z</time>
      </trkpt>
      <trkpt lat="42.50776" lon="2.15243">
        <ele>1344</ele>
        <time>2021-12-05T13:30:41Z</time>
      </trkpt>
      <trkpt lat="42.5077" lon="2.15261">
        <ele>1344</ele>
        <time>2021-12-05T13:30:43Z</time>
      </trkpt>
      <trkpt lat="42.50766" lon="2.15283">
        <ele>1344</ele>
        <time>2021-12-05T13:30:46Z</time>
      </trkpt>
      <trkpt lat="42.50745" lon="2.15461">
        <ele>1332</ele>
        <time>2021-12-05T13:31:10Z</time>
      </trkpt>
      <trkpt lat="42.50747" lon="2.15488">
        <ele>1332</ele>
        <time>2021-12-05T13:31:14Z</time>
      </trkpt>
      <trkpt lat="42.50752" lon="2.15509">
        <ele>1332</ele>
        <time>2021-12-05T13:31:16Z</time>
      </trkpt>
      <trkpt lat="42.50761" lon="2.15524">
        <ele>1329</ele>
        <time>2021-12-05T13:31:19Z</time>
      </trkpt>
      <trkpt lat="42.5077" lon="2.15536">
        <ele>1328</ele>
        <time>2021-12-05T13:31:21Z</time>
      </trkpt>
      <trkpt lat="42.50779" lon="2.15545">
        <ele>1327</ele>
        <time>2021-12-05T13:31:23Z</time>
      </trkpt>
      <trkpt lat="42.50793" lon="2.15552">
        <ele>1329</ele>
        <time>2021-12-05T13:31:26Z</time>
      </trkpt>
      <trkpt lat="42.5081" lon="2.15556">
        <ele>1331</ele>
        <time>2021-12-05T13:31:29Z</time>
      </trkpt>
      <trkpt lat="42.50832" lon="2.15557">
        <ele>1336</ele>
        <time>2021-12-05T13:31:33Z</time>
      </trkpt>
      <trkpt lat="42.50843" lon="2.15561">
        <ele>1339</ele>
        <time>2021-12-05T13:31:35Z</time>
      </trkpt>
      <trkpt lat="42.50858" lon="2.15573">
        <ele>1341</ele>
        <time>2021-12-05T13:31:38Z</time>
      </trkpt>
      <trkpt lat="42.50864" lon="2.15585">
        <ele>1340</ele>
        <time>2021-12-05T13:31:40Z</time>
      </trkpt>
      <trkpt lat="42.50868" lon="2.15598">
        <ele>1339</ele>
        <time>2021-12-05T13:31:42Z</time>
      </trkpt>
      <trkpt lat="42.5087" lon="2.15615">
        <ele>1336</ele>
        <time>2021-12-05T13:31:44Z</time>
      </trkpt>
      <trkpt lat="42.50864" lon="2.15723">
        <ele>1320</ele>
        <time>2021-12-05T13:31:58Z</time>
      </trkpt>
      <trkpt lat="42.50863" lon="2.15732">
        <ele>1319</ele>
        <time>2021-12-05T13:31:59Z</time>
      </trkpt>
      <trkpt lat="42.50858" lon="2.15743">
        <ele>1316</ele>
        <time>2021-12-05T13:32:01Z</time>
      </trkpt>
      <trkpt lat="42.50853" lon="2.15751">
        <ele>1314</ele>
        <time>2021-12-05T13:32:02Z</time>
      </trkpt>
      <trkpt lat="42.50845" lon="2.15758">
        <ele>1313</ele>
        <time>2021-12-05T13:32:04Z</time>
      </trkpt>
      <trkpt lat="42.50724" lon="2.15856">
        <ele>1300</ele>
        <time>2021-12-05T13:32:29Z</time>
      </trkpt>
      <trkpt lat="42.50704" lon="2.15888">
        <ele>1295</ele>
        <time>2021-12-05T13:32:35Z</time>
      </trkpt>
      <trkpt lat="42.507" lon="2.15892">
        <ele>1294</ele>
        <time>2021-12-05T13:32:36Z</time>
      </trkpt>
      <trkpt lat="42.50693" lon="2.15893">
        <ele>1291</ele>
        <time>2021-12-05T13:32:37Z</time>
      </trkpt>
      <trkpt lat="42.50684" lon="2.15892">
        <ele>1288</ele>
        <time>2021-12-05T13:32:38Z</time>
      </trkpt>
      <trkpt lat="42.50673" lon="2.15883">
        <ele>1284</ele>
        <time>2021-12-05T13:32:41Z</time>
      </trkpt>
      <trkpt lat="42.5067" lon="2.1587">
        <ele>1283</ele>
        <time>2021-12-05T13:32:43Z</time>
      </trkpt>
      <trkpt lat="42.5067" lon="2.15859">
        <ele>1284</ele>
        <time>2021-12-05T13:32:44Z</time>
      </trkpt>
      <trkpt lat="42.50673" lon="2.1585">
        <ele>1285</ele>
        <time>2021-12-05T13:32:45Z</time>
      </trkpt>
      <trkpt lat="42.50679" lon="2.15842">
        <ele>1287</ele>
        <time>2021-12-05T13:32:47Z</time>
      </trkpt>
      <trkpt lat="42.50685" lon="2.15838">
        <ele>1288</ele>
        <time>2021-12-05T13:32:48Z</time>
      </trkpt>
      <trkpt lat="42.50712" lon="2.15833">
        <ele>1294</ele>
        <time>2021-12-05T13:32:53Z</time>
      </trkpt>
      <trkpt lat="42.50724" lon="2.15826">
        <ele>1295</ele>
        <time>2021-12-05T13:32:55Z</time>
      </trkpt>
      <trkpt lat="42.50739" lon="2.15813">
        <ele>1296</ele>
        <time>2021-12-05T13:32:58Z</time>
      </trkpt>
      <trkpt lat="42.50748" lon="2.15797">
        <ele>1295</ele>
        <time>2021-12-05T13:33:01Z</time>
      </trkpt>
      <trkpt lat="42.50793" lon="2.15705">
        <ele>1294</ele>
        <time>2021-12-05T13:33:15Z</time>
      </trkpt>
      <trkpt lat="42.50797" lon="2.15693">
        <ele>1295</ele>
        <time>2021-12-05T13:33:17Z</time>
      </trkpt>
      <trkpt lat="42.50798" lon="2.15682">
        <ele>1295</ele>
        <time>2021-12-05T13:33:19Z</time>
      </trkpt>
      <trkpt lat="42.50796" lon="2.15669">
        <ele>1294</ele>
        <time>2021-12-05T13:33:20Z</time>
      </trkpt>
      <trkpt lat="42.50793" lon="2.15661">
        <ele>1295</ele>
        <time>2021-12-05T13:33:22Z</time>
      </trkpt>
      <trkpt lat="42.50788" lon="2.15654">
        <ele>1295</ele>
        <time>2021-12-05T13:33:23Z</time>
      </trkpt>
      <trkpt lat="42.50781" lon="2.15647">
        <ele>1295</ele>
        <time>2021-12-05T13:33:24Z</time>
      </trkpt>
      <trkpt lat="42.50762" lon="2.1564">
        <ele>1292</ele>
        <time>2021-12-05T13:33:28Z</time>
      </trkpt>
      <trkpt lat="42.50702" lon="2.15632">
        <ele>1276</ele>
        <time>2021-12-05T13:33:39Z</time>
      </trkpt>
      <trkpt lat="42.50679" lon="2.15634">
        <ele>1268</ele>
        <time>2021-12-05T13:33:43Z</time>
      </trkpt>
      <trkpt lat="42.50675" lon="2.15634">
        <ele>1267</ele>
        <time>2021-12-05T13:33:43Z</time>
      </trkpt>
      <trkpt lat="42.50665" lon="2.15631">
        <ele>1264</ele>
        <time>2021-12-05T13:33:45Z</time>
      </trkpt>
      <trkpt lat="42.50656" lon="2.15622">
        <ele>1263</ele>
        <time>2021-12-05T13:33:47Z</time>
      </trkpt>
      <trkpt lat="42.50652" lon="2.1561">
        <ele>1263</ele>
        <time>2021-12-05T13:33:49Z</time>
      </trkpt>
      <trkpt lat="42.5065" lon="2.15599">
        <ele>1264</ele>
        <time>2021-12-05T13:33:50Z</time>
      </trkpt>
      <trkpt lat="42.50652" lon="2.15587">
        <ele>1266</ele>
        <time>2021-12-05T13:33:52Z</time>
      </trkpt>
      <trkpt lat="42.50664" lon="2.15557">
        <ele>1273</ele>
        <time>2021-12-05T13:33:56Z</time>
      </trkpt>
      <trkpt lat="42.50665" lon="2.15544">
        <ele>1274</ele>
        <time>2021-12-05T13:33:58Z</time>
      </trkpt>
      <trkpt lat="42.50651" lon="2.15486">
        <ele>1264</ele>
        <time>2021-12-05T13:34:06Z</time>
      </trkpt>
      <trkpt lat="42.50648" lon="2.15462">
        <ele>1263</ele>
        <time>2021-12-05T13:34:09Z</time>
      </trkpt>
      <trkpt lat="42.50649" lon="2.15423">
        <ele>1265</ele>
        <time>2021-12-05T13:34:15Z</time>
      </trkpt>
      <trkpt lat="42.50653" lon="2.15389">
        <ele>1269</ele>
        <time>2021-12-05T13:34:19Z</time>
      </trkpt>
      <trkpt lat="42.5065" lon="2.15379">
        <ele>1268</ele>
        <time>2021-12-05T13:34:20Z</time>
      </trkpt>
      <trkpt lat="42.50638" lon="2.15361">
        <ele>1262</ele>
        <time>2021-12-05T13:34:24Z</time>
      </trkpt>
      <trkpt lat="42.50636" lon="2.15352">
        <ele>1261</ele>
        <time>2021-12-05T13:34:25Z</time>
      </trkpt>
      <trkpt lat="42.50635" lon="2.15339">
        <ele>1262</ele>
        <time>2021-12-05T13:34:27Z</time>
      </trkpt>
      <trkpt lat="42.50637" lon="2.15322">
        <ele>1264</ele>
        <time>2021-12-05T13:34:29Z</time>
      </trkpt>
      <trkpt lat="42.50636" lon="2.15307">
        <ele>1263</ele>
        <time>2021-12-05T13:34:31Z</time>
      </trkpt>
      <trkpt lat="42.50623" lon="2.15238">
        <ele>1258</ele>
        <time>2021-12-05T13:34:40Z</time>
      </trkpt>
      <trkpt lat="42.50621" lon="2.15218">
        <ele>1256</ele>
        <time>2021-12-05T13:34:43Z</time>
      </trkpt>
      <trkpt lat="42.50622" lon="2.15203">
        <ele>1255</ele>
        <time>2021-12-05T13:34:45Z</time>
      </trkpt>
      <trkpt lat="42.50627" lon="2.15185">
        <ele>1256</ele>
        <time>2021-12-05T13:34:47Z</time>
      </trkpt>
      <trkpt lat="42.50639" lon="2.15159">
        <ele>1260</ele>
        <time>2021-12-05T13:34:51Z</time>
      </trkpt>
      <trkpt lat="42.5064" lon="2.15149">
        <ele>1261</ele>
        <time>2021-12-05T13:34:53Z</time>
      </trkpt>
      <trkpt lat="42.50638" lon="2.1514">
        <ele>1260</ele>
        <time>2021-12-05T13:34:54Z</time>
      </trkpt>
      <trkpt lat="42.50633" lon="2.15128">
        <ele>1258</ele>
        <time>2021-12-05T13:34:56Z</time>
      </trkpt>
      <trkpt lat="42.50626" lon="2.15122">
        <ele>1255</ele>
        <time>2021-12-05T13:34:57Z</time>
      </trkpt>
      <trkpt lat="42.50617" lon="2.15124">
        <ele>1251</ele>
        <time>2021-12-05T13:34:59Z</time>
      </trkpt>
      <trkpt lat="42.50608" lon="2.15129">
        <ele>1247</ele>
        <time>2021-12-05T13:35:01Z</time>
      </trkpt>
      <trkpt lat="42.50601" lon="2.15141">
        <ele>1244</ele>
        <time>2021-12-05T13:35:03Z</time>
      </trkpt>
      <trkpt lat="42.50598" lon="2.15158">
        <ele>1243</ele>
        <time>2021-12-05T13:35:05Z</time>
      </trkpt>
      <trkpt lat="42.50599" lon="2.15177">
        <ele>1244</ele>
        <time>2021-12-05T13:35:07Z</time>
      </trkpt>
      <trkpt lat="42.50602" lon="2.15215">
        <ele>1246</ele>
        <time>2021-12-05T13:35:12Z</time>
      </trkpt>
      <trkpt lat="42.50617" lon="2.15353">
        <ele>1250</ele>
        <time>2021-12-05T13:35:31Z</time>
      </trkpt>
      <trkpt lat="42.5062" lon="2.15382">
        <ele>1249</ele>
        <time>2021-12-05T13:35:34Z</time>
      </trkpt>
      <trkpt lat="42.5062" lon="2.15403">
        <ele>1246</ele>
        <time>2021-12-05T13:35:37Z</time>
      </trkpt>
      <trkpt lat="42.50615" lon="2.15521">
        <ele>1242</ele>
        <time>2021-12-05T13:35:53Z</time>
      </trkpt>
      <trkpt lat="42.50613" lon="2.15536">
        <ele>1242</ele>
        <time>2021-12-05T13:35:55Z</time>
      </trkpt>
      <trkpt lat="42.50607" lon="2.15552">
        <ele>1241</ele>
        <time>2021-12-05T13:35:57Z</time>
      </trkpt>
      <trkpt lat="42.50562" lon="2.15616">
        <ele>1226</ele>
        <time>2021-12-05T13:36:09Z</time>
      </trkpt>
      <trkpt lat="42.50554" lon="2.15631">
        <ele>1224</ele>
        <time>2021-12-05T13:36:11Z</time>
      </trkpt>
      <trkpt lat="42.50551" lon="2.15648">
        <ele>1224</ele>
        <time>2021-12-05T13:36:13Z</time>
      </trkpt>
      <trkpt lat="42.5055" lon="2.15661">
        <ele>1225</ele>
        <time>2021-12-05T13:36:15Z</time>
      </trkpt>
      <trkpt lat="42.50552" lon="2.15676">
        <ele>1227</ele>
        <time>2021-12-05T13:36:17Z</time>
      </trkpt>
      <trkpt lat="42.50557" lon="2.15691">
        <ele>1228</ele>
        <time>2021-12-05T13:36:19Z</time>
      </trkpt>
      <trkpt lat="42.50567" lon="2.15708">
        <ele>1232</ele>
        <time>2021-12-05T13:36:22Z</time>
      </trkpt>
      <trkpt lat="42.50571" lon="2.15716">
        <ele>1233</ele>
        <time>2021-12-05T13:36:23Z</time>
      </trkpt>
      <trkpt lat="42.50572" lon="2.15729">
        <ele>1233</ele>
        <time>2021-12-05T13:36:25Z</time>
      </trkpt>
      <trkpt lat="42.50568" lon="2.15754">
        <ele>1232</ele>
        <time>2021-12-05T13:36:28Z</time>
      </trkpt>
      <trkpt lat="42.5056" lon="2.15766">
        <ele>1231</ele>
        <time>2021-12-05T13:36:31Z</time>
      </trkpt>
      <trkpt lat="42.5055" lon="2.15774">
        <ele>1228</ele>
        <time>2021-12-05T13:36:33Z</time>
      </trkpt>
      <trkpt lat="42.50538" lon="2.15784">
        <ele>1225</ele>
        <time>2021-12-05T13:36:35Z</time>
      </trkpt>
      <trkpt lat="42.50529" lon="2.158">
        <ele>1223</ele>
        <time>2021-12-05T13:36:38Z</time>
      </trkpt>
      <trkpt lat="42.50526" lon="2.15815">
        <ele>1223</ele>
        <time>2021-12-05T13:36:40Z</time>
      </trkpt>
      <trkpt lat="42.50525" lon="2.15831">
        <ele>1223</ele>
        <time>2021-12-05T13:36:42Z</time>
      </trkpt>
      <trkpt lat="42.50528" lon="2.15844">
        <ele>1222</ele>
        <time>2021-12-05T13:36:44Z</time>
      </trkpt>
      <trkpt lat="42.50533" lon="2.1586">
        <ele>1219</ele>
        <time>2021-12-05T13:36:46Z</time>
      </trkpt>
      <trkpt lat="42.50544" lon="2.1588">
        <ele>1219</ele>
        <time>2021-12-05T13:36:49Z</time>
      </trkpt>
      <trkpt lat="42.50556" lon="2.15898">
        <ele>1221</ele>
        <time>2021-12-05T13:36:52Z</time>
      </trkpt>
      <trkpt lat="42.50591" lon="2.15953">
        <ele>1224</ele>
        <time>2021-12-05T13:37:02Z</time>
      </trkpt>
      <trkpt lat="42.50597" lon="2.15965">
        <ele>1224</ele>
        <time>2021-12-05T13:37:04Z</time>
      </trkpt>
      <trkpt lat="42.50601" lon="2.15982">
        <ele>1222</ele>
        <time>2021-12-05T13:37:06Z</time>
      </trkpt>
      <trkpt lat="42.5062" lon="2.16065">
        <ele>1214</ele>
        <time>2021-12-05T13:37:18Z</time>
      </trkpt>
      <trkpt lat="42.50625" lon="2.16092">
        <ele>1211</ele>
        <time>2021-12-05T13:37:21Z</time>
      </trkpt>
      <trkpt lat="42.50625" lon="2.16121">
        <ele>1208</ele>
        <time>2021-12-05T13:37:25Z</time>
      </trkpt>
      <trkpt lat="42.50615" lon="2.16177">
        <ele>1196</ele>
        <time>2021-12-05T13:37:33Z</time>
      </trkpt>
      <trkpt lat="42.50616" lon="2.16193">
        <ele>1194</ele>
        <time>2021-12-05T13:37:35Z</time>
      </trkpt>
      <trkpt lat="42.50621" lon="2.16207">
        <ele>1194</ele>
        <time>2021-12-05T13:37:37Z</time>
      </trkpt>
      <trkpt lat="42.50646" lon="2.16238">
        <ele>1201</ele>
        <time>2021-12-05T13:37:43Z</time>
      </trkpt>
      <trkpt lat="42.5065" lon="2.16253">
        <ele>1201</ele>
        <time>2021-12-05T13:37:45Z</time>
      </trkpt>
      <trkpt lat="42.50647" lon="2.16281">
        <ele>1201</ele>
        <time>2021-12-05T13:37:49Z</time>
      </trkpt>
      <trkpt lat="42.50639" lon="2.16293">
        <ele>1198</ele>
        <time>2021-12-05T13:37:51Z</time>
      </trkpt>
      <trkpt lat="42.50621" lon="2.16305">
        <ele>1188</ele>
        <time>2021-12-05T13:37:54Z</time>
      </trkpt>
      <trkpt lat="42.50609" lon="2.16327">
        <ele>1181</ele>
        <time>2021-12-05T13:37:58Z</time>
      </trkpt>
      <trkpt lat="42.50606" lon="2.16342">
        <ele>1180</ele>
        <time>2021-12-05T13:38:00Z</time>
      </trkpt>
      <trkpt lat="42.50604" lon="2.16361">
        <ele>1179</ele>
        <time>2021-12-05T13:38:02Z</time>
      </trkpt>
      <trkpt lat="42.50604" lon="2.16396">
        <ele>1181</ele>
        <time>2021-12-05T13:38:07Z</time>
      </trkpt>
      <trkpt lat="42.5061" lon="2.16431">
        <ele>1186</ele>
        <time>2021-12-05T13:38:12Z</time>
      </trkpt>
      <trkpt lat="42.50611" lon="2.16446">
        <ele>1187</ele>
        <time>2021-12-05T13:38:14Z</time>
      </trkpt>
      <trkpt lat="42.50606" lon="2.16463">
        <ele>1183</ele>
        <time>2021-12-05T13:38:16Z</time>
      </trkpt>
      <trkpt lat="42.50588" lon="2.16493">
        <ele>1169</ele>
        <time>2021-12-05T13:38:21Z</time>
      </trkpt>
      <trkpt lat="42.50584" lon="2.16509">
        <ele>1166</ele>
        <time>2021-12-05T13:38:23Z</time>
      </trkpt>
      <trkpt lat="42.50582" lon="2.16526">
        <ele>1163</ele>
        <time>2021-12-05T13:38:26Z</time>
      </trkpt>
      <trkpt lat="42.50584" lon="2.16542">
        <ele>1162</ele>
        <time>2021-12-05T13:38:28Z</time>
      </trkpt>
      <trkpt lat="42.50589" lon="2.16559">
        <ele>1164</ele>
        <time>2021-12-05T13:38:30Z</time>
      </trkpt>
      <trkpt lat="42.50619" lon="2.16603">
        <ele>1177</ele>
        <time>2021-12-05T13:38:38Z</time>
      </trkpt>
      <trkpt lat="42.50626" lon="2.16621">
        <ele>1178</ele>
        <time>2021-12-05T13:38:41Z</time>
      </trkpt>
      <trkpt lat="42.50634" lon="2.16657">
        <ele>1175</ele>
        <time>2021-12-05T13:38:46Z</time>
      </trkpt>
      <trkpt lat="42.5064" lon="2.16696">
        <ele>1168</ele>
        <time>2021-12-05T13:38:51Z</time>
      </trkpt>
      <trkpt lat="42.50647" lon="2.16724">
        <ele>1163</ele>
        <time>2021-12-05T13:38:55Z</time>
      </trkpt>
      <trkpt lat="42.50648" lon="2.16728">
        <ele>1162</ele>
        <time>2021-12-05T13:38:55Z</time>
      </trkpt>
      <trkpt lat="42.50658" lon="2.16751">
        <ele>1159</ele>
        <time>2021-12-05T13:38:59Z</time>
      </trkpt>
      <trkpt lat="42.5067" lon="2.16771">
        <ele>1160</ele>
        <time>2021-12-05T13:39:02Z</time>
      </trkpt>
      <trkpt lat="42.50682" lon="2.16783">
        <ele>1162</ele>
        <time>2021-12-05T13:39:05Z</time>
      </trkpt>
      <trkpt lat="42.50688" lon="2.16791">
        <ele>1163</ele>
        <time>2021-12-05T13:39:06Z</time>
      </trkpt>
      <trkpt lat="42.50695" lon="2.16808">
        <ele>1162</ele>
        <time>2021-12-05T13:39:09Z</time>
      </trkpt>
      <trkpt lat="42.50697" lon="2.16825">
        <ele>1158</ele>
        <time>2021-12-05T13:39:11Z</time>
      </trkpt>
      <trkpt lat="42.50697" lon="2.16835">
        <ele>1156</ele>
        <time>2021-12-05T13:39:13Z</time>
      </trkpt>
      <trkpt lat="42.50689" lon="2.16857">
        <ele>1155</ele>
        <time>2021-12-05T13:39:16Z</time>
      </trkpt>
      <trkpt lat="42.50632" lon="2.16992">
        <ele>1141</ele>
        <time>2021-12-05T13:39:36Z</time>
      </trkpt>
      <trkpt lat="42.5062" lon="2.17024">
        <ele>1137</ele>
        <time>2021-12-05T13:39:41Z</time>
      </trkpt>
      <trkpt lat="42.50613" lon="2.17054">
        <ele>1134</ele>
        <time>2021-12-05T13:39:45Z</time>
      </trkpt>
      <trkpt lat="42.50611" lon="2.17075">
        <ele>1134</ele>
        <time>2021-12-05T13:39:48Z</time>
      </trkpt>
      <trkpt lat="42.50613" lon="2.17111">
        <ele>1134</ele>
        <time>2021-12-05T13:39:52Z</time>
      </trkpt>
      <trkpt lat="42.50628" lon="2.1726">
        <ele>1128</ele>
        <time>2021-12-05T13:40:12Z</time>
      </trkpt>
      <trkpt lat="42.50633" lon="2.17281">
        <ele>1125</ele>
        <time>2021-12-05T13:40:15Z</time>
      </trkpt>
      <trkpt lat="42.50641" lon="2.17303">
        <ele>1124</ele>
        <time>2021-12-05T13:40:18Z</time>
      </trkpt>
      <trkpt lat="42.50651" lon="2.1732">
        <ele>1124</ele>
        <time>2021-12-05T13:40:21Z</time>
      </trkpt>
      <trkpt lat="42.50678" lon="2.17351">
        <ele>1128</ele>
        <time>2021-12-05T13:40:27Z</time>
      </trkpt>
      <trkpt lat="42.50685" lon="2.17364">
        <ele>1127</ele>
        <time>2021-12-05T13:40:30Z</time>
      </trkpt>
      <trkpt lat="42.5069" lon="2.17391">
        <ele>1119</ele>
        <time>2021-12-05T13:40:33Z</time>
      </trkpt>
      <trkpt lat="42.50695" lon="2.17435">
        <ele>1105</ele>
        <time>2021-12-05T13:40:39Z</time>
      </trkpt>
      <trkpt lat="42.50699" lon="2.17448">
        <ele>1102</ele>
        <time>2021-12-05T13:40:41Z</time>
      </trkpt>
      <trkpt lat="42.50706" lon="2.17462">
        <ele>1100</ele>
        <time>2021-12-05T13:40:43Z</time>
      </trkpt>
      <trkpt lat="42.50717" lon="2.17469">
        <ele>1103</ele>
        <time>2021-12-05T13:40:45Z</time>
      </trkpt>
      <trkpt lat="42.5073" lon="2.17473">
        <ele>1107</ele>
        <time>2021-12-05T13:40:48Z</time>
      </trkpt>
      <trkpt lat="42.50757" lon="2.17476">
        <ele>1117</ele>
        <time>2021-12-05T13:40:52Z</time>
      </trkpt>
      <trkpt lat="42.5077" lon="2.1748">
        <ele>1118</ele>
        <time>2021-12-05T13:40:55Z</time>
      </trkpt>
      <trkpt lat="42.50782" lon="2.17488">
        <ele>1117</ele>
        <time>2021-12-05T13:40:57Z</time>
      </trkpt>
      <trkpt lat="42.50796" lon="2.17502">
        <ele>1114</ele>
        <time>2021-12-05T13:41:00Z</time>
      </trkpt>
      <trkpt lat="42.50803" lon="2.17512">
        <ele>1112</ele>
        <time>2021-12-05T13:41:02Z</time>
      </trkpt>
      <trkpt lat="42.5081" lon="2.17528">
        <ele>1107</ele>
        <time>2021-12-05T13:41:05Z</time>
      </trkpt>
      <trkpt lat="42.50817" lon="2.17549">
        <ele>1100</ele>
        <time>2021-12-05T13:41:08Z</time>
      </trkpt>
      <trkpt lat="42.50825" lon="2.17563">
        <ele>1097</ele>
        <time>2021-12-05T13:41:10Z</time>
      </trkpt>
      <trkpt lat="42.50829" lon="2.17568">
        <ele>1096</ele>
        <time>2021-12-05T13:41:11Z</time>
      </trkpt>
      <trkpt lat="42.50837" lon="2.17572">
        <ele>1095</ele>
        <time>2021-12-05T13:41:12Z</time>
      </trkpt>
      <trkpt lat="42.50846" lon="2.17574">
        <ele>1094</ele>
        <time>2021-12-05T13:41:14Z</time>
      </trkpt>
      <trkpt lat="42.50854" lon="2.17572">
        <ele>1094</ele>
        <time>2021-12-05T13:41:15Z</time>
      </trkpt>
      <trkpt lat="42.50862" lon="2.17567">
        <ele>1096</ele>
        <time>2021-12-05T13:41:17Z</time>
      </trkpt>
      <trkpt lat="42.50885" lon="2.17539">
        <ele>1109</ele>
        <time>2021-12-05T13:41:23Z</time>
      </trkpt>
      <trkpt lat="42.50893" lon="2.17535">
        <ele>1111</ele>
        <time>2021-12-05T13:41:24Z</time>
      </trkpt>
      <trkpt lat="42.50902" lon="2.17536">
        <ele>1110</ele>
        <time>2021-12-05T13:41:26Z</time>
      </trkpt>
      <trkpt lat="42.5091" lon="2.17541">
        <ele>1108</ele>
        <time>2021-12-05T13:41:27Z</time>
      </trkpt>
      <trkpt lat="42.50916" lon="2.1755">
        <ele>1103</ele>
        <time>2021-12-05T13:41:29Z</time>
      </trkpt>
      <trkpt lat="42.50923" lon="2.17566">
        <ele>1095</ele>
        <time>2021-12-05T13:41:31Z</time>
      </trkpt>
      <trkpt lat="42.50929" lon="2.17575">
        <ele>1090</ele>
        <time>2021-12-05T13:41:33Z</time>
      </trkpt>
      <trkpt lat="42.50939" lon="2.1758">
        <ele>1089</ele>
        <time>2021-12-05T13:41:35Z</time>
      </trkpt>
      <trkpt lat="42.51024" lon="2.17593">
        <ele>1096</ele>
        <time>2021-12-05T13:41:50Z</time>
      </trkpt>
      <trkpt lat="42.5104" lon="2.17598">
        <ele>1098</ele>
        <time>2021-12-05T13:41:53Z</time>
      </trkpt>
      <trkpt lat="42.5105" lon="2.17604">
        <ele>1098</ele>
        <time>2021-12-05T13:41:55Z</time>
      </trkpt>
      <trkpt lat="42.51066" lon="2.17615">
        <ele>1097</ele>
        <time>2021-12-05T13:41:58Z</time>
      </trkpt>
      <trkpt lat="42.5108" lon="2.17628">
        <ele>1094</ele>
        <time>2021-12-05T13:42:01Z</time>
      </trkpt>
      <trkpt lat="42.51091" lon="2.17642">
        <ele>1091</ele>
        <time>2021-12-05T13:42:04Z</time>
      </trkpt>
      <trkpt lat="42.51125" lon="2.17696">
        <ele>1084</ele>
        <time>2021-12-05T13:42:13Z</time>
      </trkpt>
      <trkpt lat="42.51138" lon="2.17715">
        <ele>1083</ele>
        <time>2021-12-05T13:42:16Z</time>
      </trkpt>
      <trkpt lat="42.51145" lon="2.17726">
        <ele>1082</ele>
        <time>2021-12-05T13:42:18Z</time>
      </trkpt>
      <trkpt lat="42.51156" lon="2.17742">
        <ele>1080</ele>
        <time>2021-12-05T13:42:21Z</time>
      </trkpt>
      <trkpt lat="42.51165" lon="2.17766">
        <ele>1078</ele>
        <time>2021-12-05T13:42:25Z</time>
      </trkpt>
      <trkpt lat="42.51171" lon="2.17794">
        <ele>1076</ele>
        <time>2021-12-05T13:42:29Z</time>
      </trkpt>
      <trkpt lat="42.51178" lon="2.17836">
        <ele>1071</ele>
        <time>2021-12-05T13:42:34Z</time>
      </trkpt>
      <trkpt lat="42.51185" lon="2.17873">
        <ele>1071</ele>
        <time>2021-12-05T13:42:39Z</time>
      </trkpt>
      <trkpt lat="42.51186" lon="2.17881">
        <ele>1071</ele>
        <time>2021-12-05T13:42:40Z</time>
      </trkpt>
      <trkpt lat="42.5121" lon="2.18016">
        <ele>1069</ele>
        <time>2021-12-05T13:42:59Z</time>
      </trkpt>
      <trkpt lat="42.51211" lon="2.1804">
        <ele>1068</ele>
        <time>2021-12-05T13:43:02Z</time>
      </trkpt>
      <trkpt lat="42.51203" lon="2.181">
        <ele>1059</ele>
        <time>2021-12-05T13:43:10Z</time>
      </trkpt>
      <trkpt lat="42.51203" lon="2.18112">
        <ele>1058</ele>
        <time>2021-12-05T13:43:11Z</time>
      </trkpt>
      <trkpt lat="42.51203" lon="2.18116">
        <ele>1058</ele>
        <time>2021-12-05T13:43:12Z</time>
      </trkpt>
      <trkpt lat="42.51206" lon="2.18146">
        <ele>1058</ele>
        <time>2021-12-05T13:43:16Z</time>
      </trkpt>
      <trkpt lat="42.51251" lon="2.18332">
        <ele>1058</ele>
        <time>2021-12-05T13:43:41Z</time>
      </trkpt>
      <trkpt lat="42.51255" lon="2.18352">
        <ele>1057</ele>
        <time>2021-12-05T13:43:44Z</time>
      </trkpt>
      <trkpt lat="42.51261" lon="2.18405">
        <ele>1053</ele>
        <time>2021-12-05T13:43:51Z</time>
      </trkpt>
      <trkpt lat="42.51268" lon="2.18428">
        <ele>1052</ele>
        <time>2021-12-05T13:43:54Z</time>
      </trkpt>
      <trkpt lat="42.5127" lon="2.18433">
        <ele>1052</ele>
        <time>2021-12-05T13:43:55Z</time>
      </trkpt>
      <trkpt lat="42.51278" lon="2.18451">
        <ele>1052</ele>
        <time>2021-12-05T13:43:58Z</time>
      </trkpt>
      <trkpt lat="42.51283" lon="2.18464">
        <ele>1052</ele>
        <time>2021-12-05T13:44:00Z</time>
      </trkpt>
      <trkpt lat="42.5131" lon="2.18529">
        <ele>1050</ele>
        <time>2021-12-05T13:44:10Z</time>
      </trkpt>
      <trkpt lat="42.51324" lon="2.18562">
        <ele>1048</ele>
        <time>2021-12-05T13:44:15Z</time>
      </trkpt>
      <trkpt lat="42.51327" lon="2.18576">
        <ele>1046</ele>
        <time>2021-12-05T13:44:17Z</time>
      </trkpt>
      <trkpt lat="42.51329" lon="2.18592">
        <ele>1044</ele>
        <time>2021-12-05T13:44:19Z</time>
      </trkpt>
      <trkpt lat="42.51328" lon="2.18606">
        <ele>1042</ele>
        <time>2021-12-05T13:44:21Z</time>
      </trkpt>
      <trkpt lat="42.51325" lon="2.18622">
        <ele>1039</ele>
        <time>2021-12-05T13:44:23Z</time>
      </trkpt>
      <trkpt lat="42.51318" lon="2.18652">
        <ele>1033</ele>
        <time>2021-12-05T13:44:27Z</time>
      </trkpt>
      <trkpt lat="42.51313" lon="2.1867">
        <ele>1029</ele>
        <time>2021-12-05T13:44:29Z</time>
      </trkpt>
      <trkpt lat="42.5131" lon="2.1868">
        <ele>1028</ele>
        <time>2021-12-05T13:44:31Z</time>
      </trkpt>
      <trkpt lat="42.51307" lon="2.18694">
        <ele>1027</ele>
        <time>2021-12-05T13:44:33Z</time>
      </trkpt>
      <trkpt lat="42.51308" lon="2.18711">
        <ele>1028</ele>
        <time>2021-12-05T13:44:35Z</time>
      </trkpt>
      <trkpt lat="42.51312" lon="2.18732">
        <ele>1030</ele>
        <time>2021-12-05T13:44:38Z</time>
      </trkpt>
      <trkpt lat="42.51313" lon="2.1875">
        <ele>1031</ele>
        <time>2021-12-05T13:44:40Z</time>
      </trkpt>
      <trkpt lat="42.5131" lon="2.18772">
        <ele>1028</ele>
        <time>2021-12-05T13:44:43Z</time>
      </trkpt>
      <trkpt lat="42.51305" lon="2.18794">
        <ele>1025</ele>
        <time>2021-12-05T13:44:46Z</time>
      </trkpt>
      <trkpt lat="42.51302" lon="2.18818">
        <ele>1022</ele>
        <time>2021-12-05T13:44:49Z</time>
      </trkpt>
      <trkpt lat="42.51302" lon="2.18842">
        <ele>1021</ele>
        <time>2021-12-05T13:44:52Z</time>
      </trkpt>
      <trkpt lat="42.51307" lon="2.18871">
        <ele>1021</ele>
        <time>2021-12-05T13:44:56Z</time>
      </trkpt>
      <trkpt lat="42.51335" lon="2.18977">
        <ele>1022</ele>
        <time>2021-12-05T13:45:11Z</time>
      </trkpt>
      <trkpt lat="42.51343" lon="2.19008">
        <ele>1020</ele>
        <time>2021-12-05T13:45:15Z</time>
      </trkpt>
      <trkpt lat="42.51355" lon="2.19075">
        <ele>1014</ele>
        <time>2021-12-05T13:45:24Z</time>
      </trkpt>
      <trkpt lat="42.51363" lon="2.19099">
        <ele>1013</ele>
        <time>2021-12-05T13:45:28Z</time>
      </trkpt>
      <trkpt lat="42.51373" lon="2.19119">
        <ele>1013</ele>
        <time>2021-12-05T13:45:31Z</time>
      </trkpt>
      <trkpt lat="42.51416" lon="2.19186">
        <ele>1016</ele>
        <time>2021-12-05T13:45:43Z</time>
      </trkpt>
      <trkpt lat="42.51429" lon="2.19219">
        <ele>1008</ele>
        <time>2021-12-05T13:45:48Z</time>
      </trkpt>
      <trkpt lat="42.51441" lon="2.19241">
        <ele>1003</ele>
        <time>2021-12-05T13:45:51Z</time>
      </trkpt>
      <trkpt lat="42.51448" lon="2.19249">
        <ele>1001</ele>
        <time>2021-12-05T13:45:53Z</time>
      </trkpt>
      <trkpt lat="42.51456" lon="2.19256">
        <ele>1001</ele>
        <time>2021-12-05T13:45:55Z</time>
      </trkpt>
      <trkpt lat="42.51477" lon="2.19277">
        <ele>1001</ele>
        <time>2021-12-05T13:45:59Z</time>
      </trkpt>
      <trkpt lat="42.51485" lon="2.19286">
        <ele>1001</ele>
        <time>2021-12-05T13:46:01Z</time>
      </trkpt>
      <trkpt lat="42.51491" lon="2.19298">
        <ele>1000</ele>
        <time>2021-12-05T13:46:03Z</time>
      </trkpt>
      <trkpt lat="42.51494" lon="2.19309">
        <ele>999</ele>
        <time>2021-12-05T13:46:04Z</time>
      </trkpt>
      <trkpt lat="42.51496" lon="2.19336">
        <ele>996</ele>
        <time>2021-12-05T13:46:08Z</time>
      </trkpt>
      <trkpt lat="42.51494" lon="2.19354">
        <ele>995</ele>
        <time>2021-12-05T13:46:10Z</time>
      </trkpt>
      <trkpt lat="42.51492" lon="2.19378">
        <ele>993</ele>
        <time>2021-12-05T13:46:14Z</time>
      </trkpt>
      <trkpt lat="42.51492" lon="2.19388">
        <ele>993</ele>
        <time>2021-12-05T13:46:15Z</time>
      </trkpt>
      <trkpt lat="42.51493" lon="2.19404">
        <ele>992</ele>
        <time>2021-12-05T13:46:17Z</time>
      </trkpt>
      <trkpt lat="42.51499" lon="2.1943">
        <ele>990</ele>
        <time>2021-12-05T13:46:21Z</time>
      </trkpt>
      <trkpt lat="42.51505" lon="2.19446">
        <ele>987</ele>
        <time>2021-12-05T13:46:23Z</time>
      </trkpt>
      <trkpt lat="42.51511" lon="2.19455">
        <ele>987</ele>
        <time>2021-12-05T13:46:25Z</time>
      </trkpt>
      <trkpt lat="42.51528" lon="2.19476">
        <ele>987</ele>
        <time>2021-12-05T13:46:29Z</time>
      </trkpt>
      <trkpt lat="42.51596" lon="2.19533">
        <ele>990</ele>
        <time>2021-12-05T13:46:43Z</time>
      </trkpt>
      <trkpt lat="42.51663" lon="2.19556">
        <ele>992</ele>
        <time>2021-12-05T13:46:55Z</time>
      </trkpt>
      <trkpt lat="42.51674" lon="2.19564">
        <ele>990</ele>
        <time>2021-12-05T13:46:57Z</time>
      </trkpt>
      <trkpt lat="42.51685" lon="2.19575">
        <ele>987</ele>
        <time>2021-12-05T13:47:00Z</time>
      </trkpt>
      <trkpt lat="42.51694" lon="2.19591">
        <ele>984</ele>
        <time>2021-12-05T13:47:02Z</time>
      </trkpt>
      <trkpt lat="42.51701" lon="2.19614">
        <ele>983</ele>
        <time>2021-12-05T13:47:06Z</time>
      </trkpt>
      <trkpt lat="42.51703" lon="2.19636">
        <ele>983</ele>
        <time>2021-12-05T13:47:09Z</time>
      </trkpt>
      <trkpt lat="42.517" lon="2.19656">
        <ele>980</ele>
        <time>2021-12-05T13:47:11Z</time>
      </trkpt>
      <trkpt lat="42.51689" lon="2.19694">
        <ele>974</ele>
        <time>2021-12-05T13:47:17Z</time>
      </trkpt>
      <trkpt lat="42.51688" lon="2.19712">
        <ele>972</ele>
        <time>2021-12-05T13:47:19Z</time>
      </trkpt>
      <trkpt lat="42.51688" lon="2.1973">
        <ele>971</ele>
        <time>2021-12-05T13:47:21Z</time>
      </trkpt>
      <trkpt lat="42.51701" lon="2.19789">
        <ele>972</ele>
        <time>2021-12-05T13:47:29Z</time>
      </trkpt>
      <trkpt lat="42.51702" lon="2.19801">
        <ele>971</ele>
        <time>2021-12-05T13:47:31Z</time>
      </trkpt>
      <trkpt lat="42.51701" lon="2.19824">
        <ele>968</ele>
        <time>2021-12-05T13:47:34Z</time>
      </trkpt>
      <trkpt lat="42.51695" lon="2.19848">
        <ele>963</ele>
        <time>2021-12-05T13:47:37Z</time>
      </trkpt>
      <trkpt lat="42.51681" lon="2.19894">
        <ele>956</ele>
        <time>2021-12-05T13:47:44Z</time>
      </trkpt>
      <trkpt lat="42.5167" lon="2.19925">
        <ele>951</ele>
        <time>2021-12-05T13:47:48Z</time>
      </trkpt>
      <trkpt lat="42.51664" lon="2.19945">
        <ele>949</ele>
        <time>2021-12-05T13:47:51Z</time>
      </trkpt>
      <trkpt lat="42.51662" lon="2.19968">
        <ele>948</ele>
        <time>2021-12-05T13:47:54Z</time>
      </trkpt>
      <trkpt lat="42.51664" lon="2.19984">
        <ele>947</ele>
        <time>2021-12-05T13:47:56Z</time>
      </trkpt>
      <trkpt lat="42.51669" lon="2.20005">
        <ele>947</ele>
        <time>2021-12-05T13:47:59Z</time>
      </trkpt>
      <trkpt lat="42.517" lon="2.20066">
        <ele>947</ele>
        <time>2021-12-05T13:48:09Z</time>
      </trkpt>
      <trkpt lat="42.51713" lon="2.2009">
        <ele>948</ele>
        <time>2021-12-05T13:48:13Z</time>
      </trkpt>
      <trkpt lat="42.51776" lon="2.20209">
        <ele>944</ele>
        <time>2021-12-05T13:48:32Z</time>
      </trkpt>
      <trkpt lat="42.51794" lon="2.2026">
        <ele>940</ele>
        <time>2021-12-05T13:48:40Z</time>
      </trkpt>
      <trkpt lat="42.51853" lon="2.20342">
        <ele>940</ele>
        <time>2021-12-05T13:48:55Z</time>
      </trkpt>
      <trkpt lat="42.51867" lon="2.20359">
        <ele>939</ele>
        <time>2021-12-05T13:48:58Z</time>
      </trkpt>
      <trkpt lat="42.51878" lon="2.20368">
        <ele>939</ele>
        <time>2021-12-05T13:49:00Z</time>
      </trkpt>
      <trkpt lat="42.51891" lon="2.20379">
        <ele>938</ele>
        <time>2021-12-05T13:49:03Z</time>
      </trkpt>
      <trkpt lat="42.51919" lon="2.20386">
        <ele>942</ele>
        <time>2021-12-05T13:49:08Z</time>
      </trkpt>
      <trkpt lat="42.51932" lon="2.20393">
        <ele>944</ele>
        <time>2021-12-05T13:49:10Z</time>
      </trkpt>
      <trkpt lat="42.51945" lon="2.20404">
        <ele>945</ele>
        <time>2021-12-05T13:49:13Z</time>
      </trkpt>
      <trkpt lat="42.51954" lon="2.20419">
        <ele>944</ele>
        <time>2021-12-05T13:49:16Z</time>
      </trkpt>
      <trkpt lat="42.51961" lon="2.20438">
        <ele>943</ele>
        <time>2021-12-05T13:49:19Z</time>
      </trkpt>
      <trkpt lat="42.51965" lon="2.2046">
        <ele>941</ele>
        <time>2021-12-05T13:49:22Z</time>
      </trkpt>
      <trkpt lat="42.51969" lon="2.20482">
        <ele>939</ele>
        <time>2021-12-05T13:49:24Z</time>
      </trkpt>
      <trkpt lat="42.5197" lon="2.20516">
        <ele>934</ele>
        <time>2021-12-05T13:49:29Z</time>
      </trkpt>
      <trkpt lat="42.5197" lon="2.2055">
        <ele>928</ele>
        <time>2021-12-05T13:49:33Z</time>
      </trkpt>
      <trkpt lat="42.51971" lon="2.20569">
        <ele>926</ele>
        <time>2021-12-05T13:49:36Z</time>
      </trkpt>
      <trkpt lat="42.51973" lon="2.20584">
        <ele>924</ele>
        <time>2021-12-05T13:49:38Z</time>
      </trkpt>
      <trkpt lat="42.51977" lon="2.20601">
        <ele>921</ele>
        <time>2021-12-05T13:49:40Z</time>
      </trkpt>
      <trkpt lat="42.51982" lon="2.2061">
        <ele>920</ele>
        <time>2021-12-05T13:49:42Z</time>
      </trkpt>
      <trkpt lat="42.51995" lon="2.20623">
        <ele>919</ele>
        <time>2021-12-05T13:49:45Z</time>
      </trkpt>
      <trkpt lat="42.52007" lon="2.20628">
        <ele>921</ele>
        <time>2021-12-05T13:49:47Z</time>
      </trkpt>
      <trkpt lat="42.52017" lon="2.2063">
        <ele>923</ele>
        <time>2021-12-05T13:49:49Z</time>
      </trkpt>
      <trkpt lat="42.52031" lon="2.20633">
        <ele>925</ele>
        <time>2021-12-05T13:49:51Z</time>
      </trkpt>
      <trkpt lat="42.52041" lon="2.20638">
        <ele>926</ele>
        <time>2021-12-05T13:49:53Z</time>
      </trkpt>
      <trkpt lat="42.52045" lon="2.20641">
        <ele>926</ele>
        <time>2021-12-05T13:49:54Z</time>
      </trkpt>
      <trkpt lat="42.52059" lon="2.20654">
        <ele>925</ele>
        <time>2021-12-05T13:49:57Z</time>
      </trkpt>
      <trkpt lat="42.52069" lon="2.20671">
        <ele>923</ele>
        <time>2021-12-05T13:50:00Z</time>
      </trkpt>
      <trkpt lat="42.52077" lon="2.20686">
        <ele>922</ele>
        <time>2021-12-05T13:50:02Z</time>
      </trkpt>
      <trkpt lat="42.52105" lon="2.20754">
        <ele>926</ele>
        <time>2021-12-05T13:50:12Z</time>
      </trkpt>
      <trkpt lat="42.52111" lon="2.20771">
        <ele>926</ele>
        <time>2021-12-05T13:50:15Z</time>
      </trkpt>
      <trkpt lat="42.52115" lon="2.20791">
        <ele>925</ele>
        <time>2021-12-05T13:50:18Z</time>
      </trkpt>
      <trkpt lat="42.52118" lon="2.20833">
        <ele>920</ele>
        <time>2021-12-05T13:50:23Z</time>
      </trkpt>
      <trkpt lat="42.52118" lon="2.20854">
        <ele>918</ele>
        <time>2021-12-05T13:50:26Z</time>
      </trkpt>
      <trkpt lat="42.52108" lon="2.2094">
        <ele>903</ele>
        <time>2021-12-05T13:50:37Z</time>
      </trkpt>
      <trkpt lat="42.52108" lon="2.20957">
        <ele>900</ele>
        <time>2021-12-05T13:50:39Z</time>
      </trkpt>
      <trkpt lat="42.5211" lon="2.20975">
        <ele>898</ele>
        <time>2021-12-05T13:50:42Z</time>
      </trkpt>
      <trkpt lat="42.52115" lon="2.2099">
        <ele>899</ele>
        <time>2021-12-05T13:50:44Z</time>
      </trkpt>
      <trkpt lat="42.5213" lon="2.21014">
        <ele>905</ele>
        <time>2021-12-05T13:50:48Z</time>
      </trkpt>
      <trkpt lat="42.52138" lon="2.21046">
        <ele>905</ele>
        <time>2021-12-05T13:50:53Z</time>
      </trkpt>
      <trkpt lat="42.52145" lon="2.21099">
        <ele>901</ele>
        <time>2021-12-05T13:51:00Z</time>
      </trkpt>
      <trkpt lat="42.52145" lon="2.2116">
        <ele>893</ele>
        <time>2021-12-05T13:51:08Z</time>
      </trkpt>
      <trkpt lat="42.52147" lon="2.21177">
        <ele>891</ele>
        <time>2021-12-05T13:51:10Z</time>
      </trkpt>
      <trkpt lat="42.522" lon="2.21332">
        <ele>888</ele>
        <time>2021-12-05T13:51:32Z</time>
      </trkpt>
      <trkpt lat="42.52206" lon="2.2141">
        <ele>884</ele>
        <time>2021-12-05T13:51:43Z</time>
      </trkpt>
      <trkpt lat="42.52206" lon="2.21447">
        <ele>880</ele>
        <time>2021-12-05T13:51:47Z</time>
      </trkpt>
      <trkpt lat="42.52195" lon="2.21497">
        <ele>871</ele>
        <time>2021-12-05T13:51:54Z</time>
      </trkpt>
      <trkpt lat="42.52195" lon="2.21521">
        <ele>868</ele>
        <time>2021-12-05T13:51:57Z</time>
      </trkpt>
      <trkpt lat="42.52198" lon="2.21533">
        <ele>868</ele>
        <time>2021-12-05T13:51:59Z</time>
      </trkpt>
      <trkpt lat="42.52219" lon="2.21567">
        <ele>871</ele>
        <time>2021-12-05T13:52:05Z</time>
      </trkpt>
      <trkpt lat="42.52228" lon="2.21591">
        <ele>871</ele>
        <time>2021-12-05T13:52:08Z</time>
      </trkpt>
      <trkpt lat="42.5223" lon="2.21608">
        <ele>870</ele>
        <time>2021-12-05T13:52:11Z</time>
      </trkpt>
      <trkpt lat="42.52224" lon="2.2167">
        <ele>860</ele>
        <time>2021-12-05T13:52:19Z</time>
      </trkpt>
      <trkpt lat="42.52224" lon="2.21688">
        <ele>859</ele>
        <time>2021-12-05T13:52:21Z</time>
      </trkpt>
      <trkpt lat="42.52227" lon="2.21706">
        <ele>859</ele>
        <time>2021-12-05T13:52:24Z</time>
      </trkpt>
      <trkpt lat="42.52238" lon="2.21735">
        <ele>858</ele>
        <time>2021-12-05T13:52:28Z</time>
      </trkpt>
      <trkpt lat="42.52263" lon="2.21769">
        <ele>861</ele>
        <time>2021-12-05T13:52:34Z</time>
      </trkpt>
      <trkpt lat="42.52273" lon="2.21789">
        <ele>860</ele>
        <time>2021-12-05T13:52:37Z</time>
      </trkpt>
      <trkpt lat="42.52282" lon="2.21818">
        <ele>857</ele>
        <time>2021-12-05T13:52:42Z</time>
      </trkpt>
      <trkpt lat="42.52292" lon="2.21839">
        <ele>856</ele>
        <time>2021-12-05T13:52:45Z</time>
      </trkpt>
      <trkpt lat="42.52301" lon="2.21849">
        <ele>856</ele>
        <time>2021-12-05T13:52:47Z</time>
      </trkpt>
      <trkpt lat="42.52311" lon="2.21856">
        <ele>856</ele>
        <time>2021-12-05T13:52:49Z</time>
      </trkpt>
      <trkpt lat="42.52326" lon="2.21862">
        <ele>857</ele>
        <time>2021-12-05T13:52:52Z</time>
      </trkpt>
      <trkpt lat="42.52336" lon="2.2187">
        <ele>857</ele>
        <time>2021-12-05T13:52:54Z</time>
      </trkpt>
      <trkpt lat="42.52361" lon="2.21896">
        <ele>857</ele>
        <time>2021-12-05T13:52:59Z</time>
      </trkpt>
      <trkpt lat="42.52373" lon="2.21907">
        <ele>856</ele>
        <time>2021-12-05T13:53:02Z</time>
      </trkpt>
      <trkpt lat="42.52402" lon="2.21926">
        <ele>857</ele>
        <time>2021-12-05T13:53:08Z</time>
      </trkpt>
      <trkpt lat="42.52425" lon="2.21946">
        <ele>860</ele>
        <time>2021-12-05T13:53:13Z</time>
      </trkpt>
      <trkpt lat="42.52441" lon="2.21967">
        <ele>862</ele>
        <time>2021-12-05T13:53:16Z</time>
      </trkpt>
      <trkpt lat="42.52451" lon="2.21985">
        <ele>862</ele>
        <time>2021-12-05T13:53:19Z</time>
      </trkpt>
      <trkpt lat="42.52461" lon="2.22008">
        <ele>861</ele>
        <time>2021-12-05T13:53:23Z</time>
      </trkpt>
      <trkpt lat="42.52477" lon="2.22069">
        <ele>858</ele>
        <time>2021-12-05T13:53:31Z</time>
      </trkpt>
      <trkpt lat="42.52484" lon="2.22085">
        <ele>857</ele>
        <time>2021-12-05T13:53:34Z</time>
      </trkpt>
      <trkpt lat="42.52499" lon="2.22118">
        <ele>854</ele>
        <time>2021-12-05T13:53:39Z</time>
      </trkpt>
      <trkpt lat="42.52517" lon="2.22159">
        <ele>854</ele>
        <time>2021-12-05T13:53:45Z</time>
      </trkpt>
      <trkpt lat="42.52523" lon="2.22175">
        <ele>853</ele>
        <time>2021-12-05T13:53:48Z</time>
      </trkpt>
      <trkpt lat="42.52529" lon="2.22213">
        <ele>848</ele>
        <time>2021-12-05T13:53:53Z</time>
      </trkpt>
      <trkpt lat="42.52532" lon="2.22224">
        <ele>847</ele>
        <time>2021-12-05T13:53:54Z</time>
      </trkpt>
      <trkpt lat="42.52537" lon="2.22236">
        <ele>847</ele>
        <time>2021-12-05T13:53:56Z</time>
      </trkpt>
      <trkpt lat="42.52546" lon="2.22256">
        <ele>847</ele>
        <time>2021-12-05T13:53:59Z</time>
      </trkpt>
      <trkpt lat="42.52575" lon="2.22321">
        <ele>847</ele>
        <time>2021-12-05T13:54:09Z</time>
      </trkpt>
      <trkpt lat="42.52587" lon="2.22351">
        <ele>846</ele>
        <time>2021-12-05T13:54:14Z</time>
      </trkpt>
      <trkpt lat="42.5259" lon="2.2237">
        <ele>845</ele>
        <time>2021-12-05T13:54:16Z</time>
      </trkpt>
      <trkpt lat="42.52592" lon="2.22404">
        <ele>839</ele>
        <time>2021-12-05T13:54:21Z</time>
      </trkpt>
      <trkpt lat="42.52591" lon="2.22419">
        <ele>836</ele>
        <time>2021-12-05T13:54:23Z</time>
      </trkpt>
      <trkpt lat="42.52588" lon="2.22434">
        <ele>833</ele>
        <time>2021-12-05T13:54:25Z</time>
      </trkpt>
      <trkpt lat="42.52576" lon="2.2247">
        <ele>828</ele>
        <time>2021-12-05T13:54:30Z</time>
      </trkpt>
      <trkpt lat="42.52571" lon="2.22487">
        <ele>828</ele>
        <time>2021-12-05T13:54:32Z</time>
      </trkpt>
      <trkpt lat="42.52566" lon="2.22519">
        <ele>828</ele>
        <time>2021-12-05T13:54:36Z</time>
      </trkpt>
      <trkpt lat="42.52557" lon="2.22563">
        <ele>828</ele>
        <time>2021-12-05T13:54:42Z</time>
      </trkpt>
      <trkpt lat="42.5255" lon="2.22577">
        <ele>827</ele>
        <time>2021-12-05T13:54:45Z</time>
      </trkpt>
      <trkpt lat="42.52543" lon="2.22585">
        <ele>825</ele>
        <time>2021-12-05T13:54:46Z</time>
      </trkpt>
      <trkpt lat="42.52532" lon="2.22594">
        <ele>823</ele>
        <time>2021-12-05T13:54:49Z</time>
      </trkpt>
      <trkpt lat="42.52517" lon="2.22598">
        <ele>818</ele>
        <time>2021-12-05T13:54:51Z</time>
      </trkpt>
      <trkpt lat="42.52504" lon="2.22599">
        <ele>814</ele>
        <time>2021-12-05T13:54:54Z</time>
      </trkpt>
      <trkpt lat="42.52478" lon="2.22599">
        <ele>822</ele>
        <time>2021-12-05T13:54:58Z</time>
      </trkpt>
      <trkpt lat="42.52471" lon="2.22601">
        <ele>825</ele>
        <time>2021-12-05T13:54:59Z</time>
      </trkpt>
      <trkpt lat="42.52461" lon="2.22611">
        <ele>828</ele>
        <time>2021-12-05T13:55:02Z</time>
      </trkpt>
      <trkpt lat="42.52447" lon="2.22652">
        <ele>827</ele>
        <time>2021-12-05T13:55:08Z</time>
      </trkpt>
      <trkpt lat="42.5242" lon="2.22714">
        <ele>824</ele>
        <time>2021-12-05T13:55:17Z</time>
      </trkpt>
      <trkpt lat="42.52415" lon="2.2273">
        <ele>822</ele>
        <time>2021-12-05T13:55:19Z</time>
      </trkpt>
      <trkpt lat="42.52403" lon="2.2279">
        <ele>823</ele>
        <time>2021-12-05T13:55:27Z</time>
      </trkpt>
      <trkpt lat="42.52402" lon="2.22806">
        <ele>823</ele>
        <time>2021-12-05T13:55:30Z</time>
      </trkpt>
      <trkpt lat="42.52404" lon="2.22825">
        <ele>820</ele>
        <time>2021-12-05T13:55:32Z</time>
      </trkpt>
      <trkpt lat="42.52416" lon="2.22894">
        <ele>815</ele>
        <time>2021-12-05T13:55:41Z</time>
      </trkpt>
      <trkpt lat="42.52483" lon="2.23161">
        <ele>811</ele>
        <time>2021-12-05T13:56:18Z</time>
      </trkpt>
      <trkpt lat="42.52487" lon="2.23191">
        <ele>810</ele>
        <time>2021-12-05T13:56:22Z</time>
      </trkpt>
      <trkpt lat="42.5249" lon="2.23203">
        <ele>810</ele>
        <time>2021-12-05T13:56:24Z</time>
      </trkpt>
      <trkpt lat="42.52506" lon="2.23257">
        <ele>807</ele>
        <time>2021-12-05T13:56:32Z</time>
      </trkpt>
      <trkpt lat="42.52516" lon="2.23305">
        <ele>810</ele>
        <time>2021-12-05T13:56:38Z</time>
      </trkpt>
      <trkpt lat="42.52551" lon="2.2342">
        <ele>808</ele>
        <time>2021-12-05T13:56:55Z</time>
      </trkpt>
      <trkpt lat="42.52563" lon="2.23447">
        <ele>805</ele>
        <time>2021-12-05T13:56:59Z</time>
      </trkpt>
      <trkpt lat="42.52571" lon="2.23471">
        <ele>803</ele>
        <time>2021-12-05T13:57:02Z</time>
      </trkpt>
      <trkpt lat="42.52578" lon="2.23506">
        <ele>801</ele>
        <time>2021-12-05T13:57:07Z</time>
      </trkpt>
      <trkpt lat="42.5259" lon="2.23545">
        <ele>801</ele>
        <time>2021-12-05T13:57:12Z</time>
      </trkpt>
      <trkpt lat="42.52598" lon="2.23598">
        <ele>803</ele>
        <time>2021-12-05T13:57:20Z</time>
      </trkpt>
      <trkpt lat="42.52613" lon="2.23626">
        <ele>801</ele>
        <time>2021-12-05T13:57:24Z</time>
      </trkpt>
      <trkpt lat="42.52617" lon="2.23637">
        <ele>799</ele>
        <time>2021-12-05T13:57:26Z</time>
      </trkpt>
      <trkpt lat="42.52623" lon="2.23672">
        <ele>798</ele>
        <time>2021-12-05T13:57:30Z</time>
      </trkpt>
      <trkpt lat="42.52629" lon="2.23696">
        <ele>798</ele>
        <time>2021-12-05T13:57:34Z</time>
      </trkpt>
      <trkpt lat="42.52653" lon="2.23751">
        <ele>789</ele>
        <time>2021-12-05T13:57:42Z</time>
      </trkpt>
      <trkpt lat="42.52674" lon="2.23825">
        <ele>789</ele>
        <time>2021-12-05T13:57:52Z</time>
      </trkpt>
      <trkpt lat="42.52692" lon="2.23881">
        <ele>792</ele>
        <time>2021-12-05T13:58:01Z</time>
      </trkpt>
      <trkpt lat="42.52734" lon="2.24073">
        <ele>780</ele>
        <time>2021-12-05T13:58:27Z</time>
      </trkpt>
      <trkpt lat="42.52747" lon="2.24151">
        <ele>778</ele>
        <time>2021-12-05T13:58:37Z</time>
      </trkpt>
      <trkpt lat="42.52766" lon="2.24213">
        <ele>780</ele>
        <time>2021-12-05T13:58:46Z</time>
      </trkpt>
      <trkpt lat="42.52772" lon="2.24251">
        <ele>781</ele>
        <time>2021-12-05T13:58:51Z</time>
      </trkpt>
      <trkpt lat="42.52792" lon="2.24319">
        <ele>779</ele>
        <time>2021-12-05T13:59:01Z</time>
      </trkpt>
      <trkpt lat="42.52829" lon="2.2451">
        <ele>767</ele>
        <time>2021-12-05T13:59:27Z</time>
      </trkpt>
      <trkpt lat="42.52831" lon="2.24525">
        <ele>767</ele>
        <time>2021-12-05T13:59:29Z</time>
      </trkpt>
      <trkpt lat="42.52835" lon="2.24574">
        <ele>769</ele>
        <time>2021-12-05T13:59:35Z</time>
      </trkpt>
      <trkpt lat="42.52839" lon="2.24589">
        <ele>770</ele>
        <time>2021-12-05T13:59:37Z</time>
      </trkpt>
      <trkpt lat="42.52844" lon="2.24595">
        <ele>770</ele>
        <time>2021-12-05T13:59:38Z</time>
      </trkpt>
      <trkpt lat="42.52851" lon="2.24597">
        <ele>770</ele>
        <time>2021-12-05T13:59:40Z</time>
      </trkpt>
      <trkpt lat="42.5287" lon="2.24597">
        <ele>771</ele>
        <time>2021-12-05T13:59:43Z</time>
      </trkpt>
      <trkpt lat="42.5288" lon="2.24599">
        <ele>772</ele>
        <time>2021-12-05T13:59:45Z</time>
      </trkpt>
      <trkpt lat="42.52888" lon="2.24603">
        <ele>772</ele>
        <time>2021-12-05T13:59:46Z</time>
      </trkpt>
      <trkpt lat="42.52892" lon="2.24609">
        <ele>771</ele>
        <time>2021-12-05T13:59:47Z</time>
      </trkpt>
      <trkpt lat="42.52896" lon="2.24617">
        <ele>770</ele>
        <time>2021-12-05T13:59:49Z</time>
      </trkpt>
      <trkpt lat="42.52921" lon="2.2469">
        <ele>761</ele>
        <time>2021-12-05T13:59:59Z</time>
      </trkpt>
      <trkpt lat="42.5293" lon="2.24713">
        <ele>760</ele>
        <time>2021-12-05T14:00:03Z</time>
      </trkpt>
      <trkpt lat="42.52944" lon="2.24724">
        <ele>762</ele>
        <time>2021-12-05T14:00:06Z</time>
      </trkpt>
      <trkpt lat="42.52974" lon="2.24741">
        <ele>765</ele>
        <time>2021-12-05T14:00:11Z</time>
      </trkpt>
      <trkpt lat="42.52986" lon="2.2475">
        <ele>763</ele>
        <time>2021-12-05T14:00:14Z</time>
      </trkpt>
      <trkpt lat="42.52996" lon="2.24762">
        <ele>763</ele>
        <time>2021-12-05T14:00:16Z</time>
      </trkpt>
      <trkpt lat="42.53008" lon="2.2478">
        <ele>762</ele>
        <time>2021-12-05T14:00:19Z</time>
      </trkpt>
      <trkpt lat="42.53016" lon="2.24787">
        <ele>761</ele>
        <time>2021-12-05T14:00:21Z</time>
      </trkpt>
      <trkpt lat="42.53027" lon="2.24791">
        <ele>762</ele>
        <time>2021-12-05T14:00:23Z</time>
      </trkpt>
      <trkpt lat="42.5305" lon="2.24791">
        <ele>766</ele>
        <time>2021-12-05T14:00:27Z</time>
      </trkpt>
      <trkpt lat="42.53061" lon="2.24787">
        <ele>768</ele>
        <time>2021-12-05T14:00:29Z</time>
      </trkpt>
      <trkpt lat="42.5307" lon="2.24778">
        <ele>772</ele>
        <time>2021-12-05T14:00:31Z</time>
      </trkpt>
      <trkpt lat="42.53079" lon="2.24763">
        <ele>776</ele>
        <time>2021-12-05T14:00:34Z</time>
      </trkpt>
      <trkpt lat="42.53087" lon="2.24755">
        <ele>780</ele>
        <time>2021-12-05T14:00:35Z</time>
      </trkpt>
      <trkpt lat="42.531" lon="2.2475">
        <ele>783</ele>
        <time>2021-12-05T14:00:38Z</time>
      </trkpt>
      <trkpt lat="42.53112" lon="2.24752">
        <ele>785</ele>
        <time>2021-12-05T14:00:40Z</time>
      </trkpt>
      <trkpt lat="42.53123" lon="2.24756">
        <ele>786</ele>
        <time>2021-12-05T14:00:42Z</time>
      </trkpt>
      <trkpt lat="42.53136" lon="2.24768">
        <ele>784</ele>
        <time>2021-12-05T14:00:45Z</time>
      </trkpt>
      <trkpt lat="42.5315" lon="2.24789">
        <ele>777</ele>
        <time>2021-12-05T14:00:49Z</time>
      </trkpt>
      <trkpt lat="42.53162" lon="2.2482">
        <ele>763</ele>
        <time>2021-12-05T14:00:53Z</time>
      </trkpt>
      <trkpt lat="42.53166" lon="2.24835">
        <ele>757</ele>
        <time>2021-12-05T14:00:55Z</time>
      </trkpt>
      <trkpt lat="42.5317" lon="2.24846">
        <ele>758</ele>
        <time>2021-12-05T14:00:57Z</time>
      </trkpt>
      <trkpt lat="42.53177" lon="2.24853">
        <ele>760</ele>
        <time>2021-12-05T14:00:58Z</time>
      </trkpt>
      <trkpt lat="42.53183" lon="2.24857">
        <ele>761</ele>
        <time>2021-12-05T14:01:00Z</time>
      </trkpt>
      <trkpt lat="42.53193" lon="2.24857">
        <ele>763</ele>
        <time>2021-12-05T14:01:01Z</time>
      </trkpt>
      <trkpt lat="42.53206" lon="2.24852">
        <ele>767</ele>
        <time>2021-12-05T14:01:04Z</time>
      </trkpt>
      <trkpt lat="42.53213" lon="2.24852">
        <ele>769</ele>
        <time>2021-12-05T14:01:05Z</time>
      </trkpt>
      <trkpt lat="42.53221" lon="2.24856">
        <ele>769</ele>
        <time>2021-12-05T14:01:07Z</time>
      </trkpt>
      <trkpt lat="42.53241" lon="2.24874">
        <ele>767</ele>
        <time>2021-12-05T14:01:11Z</time>
      </trkpt>
      <trkpt lat="42.5329" lon="2.24891">
        <ele>776</ele>
        <time>2021-12-05T14:01:20Z</time>
      </trkpt>
      <trkpt lat="42.53297" lon="2.24897">
        <ele>777</ele>
        <time>2021-12-05T14:01:21Z</time>
      </trkpt>
      <trkpt lat="42.53303" lon="2.24906">
        <ele>776</ele>
        <time>2021-12-05T14:01:23Z</time>
      </trkpt>
      <trkpt lat="42.53308" lon="2.2492">
        <ele>773</ele>
        <time>2021-12-05T14:01:25Z</time>
      </trkpt>
      <trkpt lat="42.53314" lon="2.24963">
        <ele>772</ele>
        <time>2021-12-05T14:01:31Z</time>
      </trkpt>
      <trkpt lat="42.53314" lon="2.24977">
        <ele>771</ele>
        <time>2021-12-05T14:01:32Z</time>
      </trkpt>
      <trkpt lat="42.53312" lon="2.24991">
        <ele>769</ele>
        <time>2021-12-05T14:01:34Z</time>
      </trkpt>
      <trkpt lat="42.53305" lon="2.2501">
        <ele>768</ele>
        <time>2021-12-05T14:01:37Z</time>
      </trkpt>
      <trkpt lat="42.53292" lon="2.25038">
        <ele>769</ele>
        <time>2021-12-05T14:01:41Z</time>
      </trkpt>
      <trkpt lat="42.53284" lon="2.25058">
        <ele>770</ele>
        <time>2021-12-05T14:01:44Z</time>
      </trkpt>
      <trkpt lat="42.5328" lon="2.25076">
        <ele>773</ele>
        <time>2021-12-05T14:01:47Z</time>
      </trkpt>
      <trkpt lat="42.53279" lon="2.25092">
        <ele>776</ele>
        <time>2021-12-05T14:01:49Z</time>
      </trkpt>
      <trkpt lat="42.53276" lon="2.25121">
        <ele>780</ele>
        <time>2021-12-05T14:01:53Z</time>
      </trkpt>
      <trkpt lat="42.53278" lon="2.25152">
        <ele>787</ele>
        <time>2021-12-05T14:01:57Z</time>
      </trkpt>
      <trkpt lat="42.53283" lon="2.25184">
        <ele>788</ele>
        <time>2021-12-05T14:02:01Z</time>
      </trkpt>
      <trkpt lat="42.53291" lon="2.25209">
        <ele>785</ele>
        <time>2021-12-05T14:02:05Z</time>
      </trkpt>
      <trkpt lat="42.53308" lon="2.25238">
        <ele>788</ele>
        <time>2021-12-05T14:02:10Z</time>
      </trkpt>
      <trkpt lat="42.53318" lon="2.25264">
        <ele>785</ele>
        <time>2021-12-05T14:02:13Z</time>
      </trkpt>
      <trkpt lat="42.53319" lon="2.25285">
        <ele>776</ele>
        <time>2021-12-05T14:02:16Z</time>
      </trkpt>
      <trkpt lat="42.53318" lon="2.25356">
        <ele>747</ele>
        <time>2021-12-05T14:02:26Z</time>
      </trkpt>
      <trkpt lat="42.53321" lon="2.25376">
        <ele>744</ele>
        <time>2021-12-05T14:02:28Z</time>
      </trkpt>
      <trkpt lat="42.53328" lon="2.25393">
        <ele>742</ele>
        <time>2021-12-05T14:02:31Z</time>
      </trkpt>
      <trkpt lat="42.53335" lon="2.25405">
        <ele>741</ele>
        <time>2021-12-05T14:02:33Z</time>
      </trkpt>
      <trkpt lat="42.53355" lon="2.25422">
        <ele>743</ele>
        <time>2021-12-05T14:02:37Z</time>
      </trkpt>
      <trkpt lat="42.53368" lon="2.25426">
        <ele>746</ele>
        <time>2021-12-05T14:02:39Z</time>
      </trkpt>
      <trkpt lat="42.53385" lon="2.25425">
        <ele>751</ele>
        <time>2021-12-05T14:02:42Z</time>
      </trkpt>
      <trkpt lat="42.5343" lon="2.25417">
        <ele>763</ele>
        <time>2021-12-05T14:02:50Z</time>
      </trkpt>
      <trkpt lat="42.53465" lon="2.25417">
        <ele>762</ele>
        <time>2021-12-05T14:02:57Z</time>
      </trkpt>
      <trkpt lat="42.53611" lon="2.25435">
        <ele>752</ele>
        <time>2021-12-05T14:03:23Z</time>
      </trkpt>
      <trkpt lat="42.5368" lon="2.25437">
        <ele>749</ele>
        <time>2021-12-05T14:03:35Z</time>
      </trkpt>
      <trkpt lat="42.53727" lon="2.25423">
        <ele>752</ele>
        <time>2021-12-05T14:03:44Z</time>
      </trkpt>
      <trkpt lat="42.53755" lon="2.25422">
        <ele>750</ele>
        <time>2021-12-05T14:03:49Z</time>
      </trkpt>
      <trkpt lat="42.53839" lon="2.25424">
        <ele>747</ele>
        <time>2021-12-05T14:04:04Z</time>
      </trkpt>
      <trkpt lat="42.53884" lon="2.25403">
        <ele>749</ele>
        <time>2021-12-05T14:04:12Z</time>
      </trkpt>
      <trkpt lat="42.53895" lon="2.25403">
        <ele>748</ele>
        <time>2021-12-05T14:04:14Z</time>
      </trkpt>
      <trkpt lat="42.53908" lon="2.25407">
        <ele>744</ele>
        <time>2021-12-05T14:04:16Z</time>
      </trkpt>
      <trkpt lat="42.53919" lon="2.25414">
        <ele>740</ele>
        <time>2021-12-05T14:04:19Z</time>
      </trkpt>
      <trkpt lat="42.53938" lon="2.25434">
        <ele>738</ele>
        <time>2021-12-05T14:04:23Z</time>
      </trkpt>
      <trkpt lat="42.53953" lon="2.25455">
        <ele>735</ele>
        <time>2021-12-05T14:04:27Z</time>
      </trkpt>
      <trkpt lat="42.53968" lon="2.25471">
        <ele>733</ele>
        <time>2021-12-05T14:04:30Z</time>
      </trkpt>
      <trkpt lat="42.5399" lon="2.25486">
        <ele>733</ele>
        <time>2021-12-05T14:04:34Z</time>
      </trkpt>
      <trkpt lat="42.54026" lon="2.25504">
        <ele>739</ele>
        <time>2021-12-05T14:04:41Z</time>
      </trkpt>
      <trkpt lat="42.54036" lon="2.2551">
        <ele>740</ele>
        <time>2021-12-05T14:04:43Z</time>
      </trkpt>
      <trkpt lat="42.54043" lon="2.25518">
        <ele>740</ele>
        <time>2021-12-05T14:04:45Z</time>
      </trkpt>
      <trkpt lat="42.54049" lon="2.25532">
        <ele>737</ele>
        <time>2021-12-05T14:04:47Z</time>
      </trkpt>
      <trkpt lat="42.54078" lon="2.25601">
        <ele>725</ele>
        <time>2021-12-05T14:04:57Z</time>
      </trkpt>
      <trkpt lat="42.54081" lon="2.25615">
        <ele>723</ele>
        <time>2021-12-05T14:04:59Z</time>
      </trkpt>
      <trkpt lat="42.54084" lon="2.25633">
        <ele>721</ele>
        <time>2021-12-05T14:05:02Z</time>
      </trkpt>
      <trkpt lat="42.54084" lon="2.25674">
        <ele>711</ele>
        <time>2021-12-05T14:05:07Z</time>
      </trkpt>
      <trkpt lat="42.54087" lon="2.2569">
        <ele>708</ele>
        <time>2021-12-05T14:05:09Z</time>
      </trkpt>
      <trkpt lat="42.54093" lon="2.25703">
        <ele>708</ele>
        <time>2021-12-05T14:05:11Z</time>
      </trkpt>
      <trkpt lat="42.541" lon="2.25715">
        <ele>708</ele>
        <time>2021-12-05T14:05:13Z</time>
      </trkpt>
      <trkpt lat="42.54133" lon="2.25745">
        <ele>717</ele>
        <time>2021-12-05T14:05:20Z</time>
      </trkpt>
      <trkpt lat="42.54142" lon="2.25758">
        <ele>718</ele>
        <time>2021-12-05T14:05:23Z</time>
      </trkpt>
      <trkpt lat="42.54151" lon="2.25777">
        <ele>717</ele>
        <time>2021-12-05T14:05:26Z</time>
      </trkpt>
      <trkpt lat="42.54155" lon="2.25794">
        <ele>714</ele>
        <time>2021-12-05T14:05:28Z</time>
      </trkpt>
      <trkpt lat="42.54157" lon="2.25814">
        <ele>709</ele>
        <time>2021-12-05T14:05:31Z</time>
      </trkpt>
      <trkpt lat="42.54163" lon="2.2583">
        <ele>707</ele>
        <time>2021-12-05T14:05:33Z</time>
      </trkpt>
      <trkpt lat="42.5417" lon="2.25844">
        <ele>705</ele>
        <time>2021-12-05T14:05:35Z</time>
      </trkpt>
      <trkpt lat="42.54194" lon="2.25866">
        <ele>708</ele>
        <time>2021-12-05T14:05:40Z</time>
      </trkpt>
      <trkpt lat="42.54213" lon="2.25893">
        <ele>706</ele>
        <time>2021-12-05T14:05:45Z</time>
      </trkpt>
      <trkpt lat="42.54298" lon="2.25988">
        <ele>708</ele>
        <time>2021-12-05T14:06:05Z</time>
      </trkpt>
      <trkpt lat="42.54308" lon="2.26012">
        <ele>705</ele>
        <time>2021-12-05T14:06:08Z</time>
      </trkpt>
      <trkpt lat="42.54319" lon="2.26061">
        <ele>695</ele>
        <time>2021-12-05T14:06:15Z</time>
      </trkpt>
      <trkpt lat="42.54326" lon="2.26076">
        <ele>693</ele>
        <time>2021-12-05T14:06:17Z</time>
      </trkpt>
      <trkpt lat="42.54337" lon="2.2609">
        <ele>693</ele>
        <time>2021-12-05T14:06:20Z</time>
      </trkpt>
      <trkpt lat="42.54347" lon="2.26099">
        <ele>694</ele>
        <time>2021-12-05T14:06:22Z</time>
      </trkpt>
      <trkpt lat="42.54419" lon="2.26152">
        <ele>704</ele>
        <time>2021-12-05T14:06:37Z</time>
      </trkpt>
      <trkpt lat="42.54427" lon="2.26162">
        <ele>703</ele>
        <time>2021-12-05T14:06:39Z</time>
      </trkpt>
      <trkpt lat="42.54448" lon="2.26196">
        <ele>699</ele>
        <time>2021-12-05T14:06:45Z</time>
      </trkpt>
      <trkpt lat="42.54458" lon="2.26208">
        <ele>699</ele>
        <time>2021-12-05T14:06:47Z</time>
      </trkpt>
      <trkpt lat="42.54464" lon="2.26218">
        <ele>698</ele>
        <time>2021-12-05T14:06:49Z</time>
      </trkpt>
      <trkpt lat="42.54469" lon="2.2623">
        <ele>695</ele>
        <time>2021-12-05T14:06:50Z</time>
      </trkpt>
      <trkpt lat="42.54483" lon="2.26287">
        <ele>686</ele>
        <time>2021-12-05T14:06:58Z</time>
      </trkpt>
      <trkpt lat="42.54491" lon="2.26343">
        <ele>677</ele>
        <time>2021-12-05T14:07:06Z</time>
      </trkpt>
      <trkpt lat="42.54496" lon="2.26361">
        <ele>675</ele>
        <time>2021-12-05T14:07:08Z</time>
      </trkpt>
      <trkpt lat="42.54504" lon="2.26376">
        <ele>673</ele>
        <time>2021-12-05T14:07:11Z</time>
      </trkpt>
      <trkpt lat="42.5452" lon="2.264">
        <ele>670</ele>
        <time>2021-12-05T14:07:15Z</time>
      </trkpt>
      <trkpt lat="42.54543" lon="2.26416">
        <ele>670</ele>
        <time>2021-12-05T14:07:20Z</time>
      </trkpt>
      <trkpt lat="42.54556" lon="2.2642">
        <ele>671</ele>
        <time>2021-12-05T14:07:22Z</time>
      </trkpt>
      <trkpt lat="42.54578" lon="2.2642">
        <ele>673</ele>
        <time>2021-12-05T14:07:26Z</time>
      </trkpt>
      <trkpt lat="42.54623" lon="2.26404">
        <ele>679</ele>
        <time>2021-12-05T14:07:34Z</time>
      </trkpt>
      <trkpt lat="42.54636" lon="2.26402">
        <ele>680</ele>
        <time>2021-12-05T14:07:37Z</time>
      </trkpt>
      <trkpt lat="42.54651" lon="2.26402">
        <ele>681</ele>
        <time>2021-12-05T14:07:39Z</time>
      </trkpt>
      <trkpt lat="42.54678" lon="2.26407">
        <ele>682</ele>
        <time>2021-12-05T14:07:44Z</time>
      </trkpt>
      <trkpt lat="42.54702" lon="2.26416">
        <ele>684</ele>
        <time>2021-12-05T14:07:48Z</time>
      </trkpt>
      <trkpt lat="42.54714" lon="2.26423">
        <ele>684</ele>
        <time>2021-12-05T14:07:51Z</time>
      </trkpt>
      <trkpt lat="42.54726" lon="2.26436">
        <ele>682</ele>
        <time>2021-12-05T14:07:54Z</time>
      </trkpt>
      <trkpt lat="42.54751" lon="2.26472">
        <ele>671</ele>
        <time>2021-12-05T14:08:00Z</time>
      </trkpt>
      <trkpt lat="42.54764" lon="2.26499">
        <ele>663</ele>
        <time>2021-12-05T14:08:04Z</time>
      </trkpt>
      <trkpt lat="42.54778" lon="2.26539">
        <ele>660</ele>
        <time>2021-12-05T14:08:10Z</time>
      </trkpt>
      <trkpt lat="42.54786" lon="2.26555">
        <ele>659</ele>
        <time>2021-12-05T14:08:13Z</time>
      </trkpt>
      <trkpt lat="42.54805" lon="2.26574">
        <ele>659</ele>
        <time>2021-12-05T14:08:17Z</time>
      </trkpt>
      <trkpt lat="42.54829" lon="2.26582">
        <ele>662</ele>
        <time>2021-12-05T14:08:21Z</time>
      </trkpt>
      <trkpt lat="42.54862" lon="2.26599">
        <ele>659</ele>
        <time>2021-12-05T14:08:27Z</time>
      </trkpt>
      <trkpt lat="42.54873" lon="2.26601">
        <ele>659</ele>
        <time>2021-12-05T14:08:29Z</time>
      </trkpt>
      <trkpt lat="42.54886" lon="2.266">
        <ele>660</ele>
        <time>2021-12-05T14:08:32Z</time>
      </trkpt>
      <trkpt lat="42.54954" lon="2.26585">
        <ele>665</ele>
        <time>2021-12-05T14:08:44Z</time>
      </trkpt>
      <trkpt lat="42.54966" lon="2.26584">
        <ele>665</ele>
        <time>2021-12-05T14:08:46Z</time>
      </trkpt>
      <trkpt lat="42.55033" lon="2.26601">
        <ele>660</ele>
        <time>2021-12-05T14:08:58Z</time>
      </trkpt>
      <trkpt lat="42.55044" lon="2.26606">
        <ele>659</ele>
        <time>2021-12-05T14:09:00Z</time>
      </trkpt>
      <trkpt lat="42.55077" lon="2.26635">
        <ele>651</ele>
        <time>2021-12-05T14:09:07Z</time>
      </trkpt>
      <trkpt lat="42.55107" lon="2.26666">
        <ele>644</ele>
        <time>2021-12-05T14:09:14Z</time>
      </trkpt>
      <trkpt lat="42.55132" lon="2.26698">
        <ele>643</ele>
        <time>2021-12-05T14:09:20Z</time>
      </trkpt>
      <trkpt lat="42.55155" lon="2.26723">
        <ele>639</ele>
        <time>2021-12-05T14:09:25Z</time>
      </trkpt>
      <trkpt lat="42.55184" lon="2.2675">
        <ele>633</ele>
        <time>2021-12-05T14:09:32Z</time>
      </trkpt>
      <trkpt lat="42.55203" lon="2.26765">
        <ele>632</ele>
        <time>2021-12-05T14:09:36Z</time>
      </trkpt>
      <trkpt lat="42.55215" lon="2.2677">
        <ele>631</ele>
        <time>2021-12-05T14:09:38Z</time>
      </trkpt>
      <trkpt lat="42.55226" lon="2.26768">
        <ele>631</ele>
        <time>2021-12-05T14:09:40Z</time>
      </trkpt>
      <trkpt lat="42.55234" lon="2.26761">
        <ele>631</ele>
        <time>2021-12-05T14:09:41Z</time>
      </trkpt>
      <trkpt lat="42.55246" lon="2.26746">
        <ele>632</ele>
        <time>2021-12-05T14:09:44Z</time>
      </trkpt>
      <trkpt lat="42.55258" lon="2.2674">
        <ele>632</ele>
        <time>2021-12-05T14:09:47Z</time>
      </trkpt>
      <trkpt lat="42.55276" lon="2.26739">
        <ele>632</ele>
        <time>2021-12-05T14:09:50Z</time>
      </trkpt>
      <trkpt lat="42.55294" lon="2.26743">
        <ele>630</ele>
        <time>2021-12-05T14:09:53Z</time>
      </trkpt>
      <trkpt lat="42.55326" lon="2.26753">
        <ele>629</ele>
        <time>2021-12-05T14:09:59Z</time>
      </trkpt>
      <trkpt lat="42.55332" lon="2.26755">
        <ele>629</ele>
        <time>2021-12-05T14:10:00Z</time>
      </trkpt>
      <trkpt lat="42.55349" lon="2.26773">
        <ele>631</ele>
        <time>2021-12-05T14:10:04Z</time>
      </trkpt>
      <trkpt lat="42.55363" lon="2.26784">
        <ele>633</ele>
        <time>2021-12-05T14:10:07Z</time>
      </trkpt>
      <trkpt lat="42.55387" lon="2.26796">
        <ele>637</ele>
        <time>2021-12-05T14:10:11Z</time>
      </trkpt>
      <trkpt lat="42.55393" lon="2.26803">
        <ele>637</ele>
        <time>2021-12-05T14:10:13Z</time>
      </trkpt>
      <trkpt lat="42.55403" lon="2.26824">
        <ele>635</ele>
        <time>2021-12-05T14:10:16Z</time>
      </trkpt>
      <trkpt lat="42.5541" lon="2.26834">
        <ele>634</ele>
        <time>2021-12-05T14:10:18Z</time>
      </trkpt>
      <trkpt lat="42.55454" lon="2.26874">
        <ele>638</ele>
        <time>2021-12-05T14:10:27Z</time>
      </trkpt>
      <trkpt lat="42.55461" lon="2.26883">
        <ele>638</ele>
        <time>2021-12-05T14:10:29Z</time>
      </trkpt>
      <trkpt lat="42.55464" lon="2.26892">
        <ele>638</ele>
        <time>2021-12-05T14:10:30Z</time>
      </trkpt>
      <trkpt lat="42.55471" lon="2.2694">
        <ele>635</ele>
        <time>2021-12-05T14:10:37Z</time>
      </trkpt>
      <trkpt lat="42.55481" lon="2.26972">
        <ele>636</ele>
        <time>2021-12-05T14:10:41Z</time>
      </trkpt>
      <trkpt lat="42.55521" lon="2.27078">
        <ele>627</ele>
        <time>2021-12-05T14:10:57Z</time>
      </trkpt>
      <trkpt lat="42.55535" lon="2.27133">
        <ele>628</ele>
        <time>2021-12-05T14:11:04Z</time>
      </trkpt>
      <trkpt lat="42.55549" lon="2.27167">
        <ele>632</ele>
        <time>2021-12-05T14:11:10Z</time>
      </trkpt>
      <trkpt lat="42.55568" lon="2.27248">
        <ele>636</ele>
        <time>2021-12-05T14:11:21Z</time>
      </trkpt>
      <trkpt lat="42.55569" lon="2.27257">
        <ele>636</ele>
        <time>2021-12-05T14:11:22Z</time>
      </trkpt>
      <trkpt lat="42.55566" lon="2.27312">
        <ele>633</ele>
        <time>2021-12-05T14:11:29Z</time>
      </trkpt>
      <trkpt lat="42.55567" lon="2.27325">
        <ele>633</ele>
        <time>2021-12-05T14:11:31Z</time>
      </trkpt>
      <trkpt lat="42.55572" lon="2.27407">
        <ele>630</ele>
        <time>2021-12-05T14:11:42Z</time>
      </trkpt>
      <trkpt lat="42.55582" lon="2.27506">
        <ele>630</ele>
        <time>2021-12-05T14:11:55Z</time>
      </trkpt>
      <trkpt lat="42.55584" lon="2.27521">
        <ele>630</ele>
        <time>2021-12-05T14:11:57Z</time>
      </trkpt>
      <trkpt lat="42.55619" lon="2.27645">
        <ele>632</ele>
        <time>2021-12-05T14:12:14Z</time>
      </trkpt>
      <trkpt lat="42.5562" lon="2.27662">
        <ele>631</ele>
        <time>2021-12-05T14:12:16Z</time>
      </trkpt>
      <trkpt lat="42.55611" lon="2.27738">
        <ele>626</ele>
        <time>2021-12-05T14:12:26Z</time>
      </trkpt>
      <trkpt lat="42.55609" lon="2.27764">
        <ele>624</ele>
        <time>2021-12-05T14:12:30Z</time>
      </trkpt>
      <trkpt lat="42.5561" lon="2.27786">
        <ele>624</ele>
        <time>2021-12-05T14:12:33Z</time>
      </trkpt>
      <trkpt lat="42.55613" lon="2.27804">
        <ele>625</ele>
        <time>2021-12-05T14:12:35Z</time>
      </trkpt>
      <trkpt lat="42.55621" lon="2.2783">
        <ele>627</ele>
        <time>2021-12-05T14:12:39Z</time>
      </trkpt>
      <trkpt lat="42.55655" lon="2.27916">
        <ele>633</ele>
        <time>2021-12-05T14:12:52Z</time>
      </trkpt>
      <trkpt lat="42.55707" lon="2.28052">
        <ele>630</ele>
        <time>2021-12-05T14:13:12Z</time>
      </trkpt>
      <trkpt lat="42.55717" lon="2.28071">
        <ele>630</ele>
        <time>2021-12-05T14:13:15Z</time>
      </trkpt>
      <trkpt lat="42.5573" lon="2.28089">
        <ele>631</ele>
        <time>2021-12-05T14:13:18Z</time>
      </trkpt>
      <trkpt lat="42.55763" lon="2.28119">
        <ele>636</ele>
        <time>2021-12-05T14:13:25Z</time>
      </trkpt>
      <trkpt lat="42.55773" lon="2.28131">
        <ele>636</ele>
        <time>2021-12-05T14:13:28Z</time>
      </trkpt>
      <trkpt lat="42.55799" lon="2.28176">
        <ele>632</ele>
        <time>2021-12-05T14:13:35Z</time>
      </trkpt>
      <trkpt lat="42.55811" lon="2.2821">
        <ele>630</ele>
        <time>2021-12-05T14:13:40Z</time>
      </trkpt>
      <trkpt lat="42.55814" lon="2.28239">
        <ele>627</ele>
        <time>2021-12-05T14:13:44Z</time>
      </trkpt>
      <trkpt lat="42.55807" lon="2.2829">
        <ele>619</ele>
        <time>2021-12-05T14:13:51Z</time>
      </trkpt>
      <trkpt lat="42.55808" lon="2.28311">
        <ele>617</ele>
        <time>2021-12-05T14:13:53Z</time>
      </trkpt>
      <trkpt lat="42.55813" lon="2.28336">
        <ele>616</ele>
        <time>2021-12-05T14:13:57Z</time>
      </trkpt>
      <trkpt lat="42.55822" lon="2.28363">
        <ele>615</ele>
        <time>2021-12-05T14:14:01Z</time>
      </trkpt>
      <trkpt lat="42.55839" lon="2.28391">
        <ele>616</ele>
        <time>2021-12-05T14:14:05Z</time>
      </trkpt>
      <trkpt lat="42.5588" lon="2.28444">
        <ele>616</ele>
        <time>2021-12-05T14:14:15Z</time>
      </trkpt>
      <trkpt lat="42.559" lon="2.28467">
        <ele>615</ele>
        <time>2021-12-05T14:14:20Z</time>
      </trkpt>
      <trkpt lat="42.55942" lon="2.28509">
        <ele>616</ele>
        <time>2021-12-05T14:14:29Z</time>
      </trkpt>
      <trkpt lat="42.55986" lon="2.28561">
        <ele>614</ele>
        <time>2021-12-05T14:14:40Z</time>
      </trkpt>
      <trkpt lat="42.5601" lon="2.28594">
        <ele>611</ele>
        <time>2021-12-05T14:14:46Z</time>
      </trkpt>
      <trkpt lat="42.56024" lon="2.28617">
        <ele>610</ele>
        <time>2021-12-05T14:14:50Z</time>
      </trkpt>
      <trkpt lat="42.56047" lon="2.28668">
        <ele>604</ele>
        <time>2021-12-05T14:14:58Z</time>
      </trkpt>
      <trkpt lat="42.56084" lon="2.28724">
        <ele>606</ele>
        <time>2021-12-05T14:15:07Z</time>
      </trkpt>
      <trkpt lat="42.56091" lon="2.28738">
        <ele>605</ele>
        <time>2021-12-05T14:15:10Z</time>
      </trkpt>
      <trkpt lat="42.56158" lon="2.28874">
        <ele>600</ele>
        <time>2021-12-05T14:15:31Z</time>
      </trkpt>
      <trkpt lat="42.56162" lon="2.28886">
        <ele>600</ele>
        <time>2021-12-05T14:15:33Z</time>
      </trkpt>
      <trkpt lat="42.56165" lon="2.28911">
        <ele>598</ele>
        <time>2021-12-05T14:15:36Z</time>
      </trkpt>
      <trkpt lat="42.56162" lon="2.28955">
        <ele>596</ele>
        <time>2021-12-05T14:15:42Z</time>
      </trkpt>
      <trkpt lat="42.56163" lon="2.28971">
        <ele>595</ele>
        <time>2021-12-05T14:15:44Z</time>
      </trkpt>
      <trkpt lat="42.56174" lon="2.29059">
        <ele>591</ele>
        <time>2021-12-05T14:15:56Z</time>
      </trkpt>
      <trkpt lat="42.56176" lon="2.29109">
        <ele>588</ele>
        <time>2021-12-05T14:16:02Z</time>
      </trkpt>
      <trkpt lat="42.56177" lon="2.29122">
        <ele>587</ele>
        <time>2021-12-05T14:16:04Z</time>
      </trkpt>
      <trkpt lat="42.56181" lon="2.29136">
        <ele>588</ele>
        <time>2021-12-05T14:16:06Z</time>
      </trkpt>
      <trkpt lat="42.56185" lon="2.29146">
        <ele>588</ele>
        <time>2021-12-05T14:16:07Z</time>
      </trkpt>
      <trkpt lat="42.56195" lon="2.29164">
        <ele>590</ele>
        <time>2021-12-05T14:16:10Z</time>
      </trkpt>
      <trkpt lat="42.56197" lon="2.29172">
        <ele>592</ele>
        <time>2021-12-05T14:16:12Z</time>
      </trkpt>
      <trkpt lat="42.56196" lon="2.29188">
        <ele>593</ele>
        <time>2021-12-05T14:16:14Z</time>
      </trkpt>
      <trkpt lat="42.56179" lon="2.29235">
        <ele>592</ele>
        <time>2021-12-05T14:16:21Z</time>
      </trkpt>
      <trkpt lat="42.56162" lon="2.29328">
        <ele>592</ele>
        <time>2021-12-05T14:16:33Z</time>
      </trkpt>
      <trkpt lat="42.56161" lon="2.29341">
        <ele>592</ele>
        <time>2021-12-05T14:16:35Z</time>
      </trkpt>
      <trkpt lat="42.56163" lon="2.29427">
        <ele>594</ele>
        <time>2021-12-05T14:16:46Z</time>
      </trkpt>
      <trkpt lat="42.56158" lon="2.29485">
        <ele>591</ele>
        <time>2021-12-05T14:16:54Z</time>
      </trkpt>
      <trkpt lat="42.56162" lon="2.29537">
        <ele>592</ele>
        <time>2021-12-05T14:17:01Z</time>
      </trkpt>
      <trkpt lat="42.56156" lon="2.29599">
        <ele>592</ele>
        <time>2021-12-05T14:17:09Z</time>
      </trkpt>
      <trkpt lat="42.56134" lon="2.29665">
        <ele>588</ele>
        <time>2021-12-05T14:17:18Z</time>
      </trkpt>
      <trkpt lat="42.56129" lon="2.29713">
        <ele>589</ele>
        <time>2021-12-05T14:17:25Z</time>
      </trkpt>
      <trkpt lat="42.56118" lon="2.29763">
        <ele>586</ele>
        <time>2021-12-05T14:17:31Z</time>
      </trkpt>
      <trkpt lat="42.56117" lon="2.29776">
        <ele>585</ele>
        <time>2021-12-05T14:17:33Z</time>
      </trkpt>
      <trkpt lat="42.56118" lon="2.29807">
        <ele>586</ele>
        <time>2021-12-05T14:17:37Z</time>
      </trkpt>
      <trkpt lat="42.56131" lon="2.29915">
        <ele>587</ele>
        <time>2021-12-05T14:17:52Z</time>
      </trkpt>
      <trkpt lat="42.56134" lon="2.2995">
        <ele>584</ele>
        <time>2021-12-05T14:17:56Z</time>
      </trkpt>
      <trkpt lat="42.56136" lon="2.29978">
        <ele>581</ele>
        <time>2021-12-05T14:18:00Z</time>
      </trkpt>
      <trkpt lat="42.56136" lon="2.30018">
        <ele>578</ele>
        <time>2021-12-05T14:18:05Z</time>
      </trkpt>
      <trkpt lat="42.56134" lon="2.30046">
        <ele>575</ele>
        <time>2021-12-05T14:18:09Z</time>
      </trkpt>
      <trkpt lat="42.56131" lon="2.30108">
        <ele>575</ele>
        <time>2021-12-05T14:18:17Z</time>
      </trkpt>
      <trkpt lat="42.56127" lon="2.3018">
        <ele>582</ele>
        <time>2021-12-05T14:18:26Z</time>
      </trkpt>
      <trkpt lat="42.56125" lon="2.30249">
        <ele>587</ele>
        <time>2021-12-05T14:18:35Z</time>
      </trkpt>
      <trkpt lat="42.56127" lon="2.30281">
        <ele>588</ele>
        <time>2021-12-05T14:18:40Z</time>
      </trkpt>
      <trkpt lat="42.56132" lon="2.30333">
        <ele>589</ele>
        <time>2021-12-05T14:18:47Z</time>
      </trkpt>
      <trkpt lat="42.5614" lon="2.30386">
        <ele>588</ele>
        <time>2021-12-05T14:18:54Z</time>
      </trkpt>
      <trkpt lat="42.56153" lon="2.30447">
        <ele>589</ele>
        <time>2021-12-05T14:19:02Z</time>
      </trkpt>
      <trkpt lat="42.56165" lon="2.3049">
        <ele>590</ele>
        <time>2021-12-05T14:19:08Z</time>
      </trkpt>
      <trkpt lat="42.56186" lon="2.30553">
        <ele>595</ele>
        <time>2021-12-05T14:19:17Z</time>
      </trkpt>
      <trkpt lat="42.56206" lon="2.30604">
        <ele>597</ele>
        <time>2021-12-05T14:19:25Z</time>
      </trkpt>
      <trkpt lat="42.56223" lon="2.3064">
        <ele>598</ele>
        <time>2021-12-05T14:19:30Z</time>
      </trkpt>
      <trkpt lat="42.56256" lon="2.30703">
        <ele>597</ele>
        <time>2021-12-05T14:19:40Z</time>
      </trkpt>
      <trkpt lat="42.56269" lon="2.30732">
        <ele>596</ele>
        <time>2021-12-05T14:19:45Z</time>
      </trkpt>
      <trkpt lat="42.56332" lon="2.30911">
        <ele>590</ele>
        <time>2021-12-05T14:20:11Z</time>
      </trkpt>
      <trkpt lat="42.56345" lon="2.30941">
        <ele>590</ele>
        <time>2021-12-05T14:20:15Z</time>
      </trkpt>
      <trkpt lat="42.56365" lon="2.30979">
        <ele>589</ele>
        <time>2021-12-05T14:20:21Z</time>
      </trkpt>
      <trkpt lat="42.56438" lon="2.31088">
        <ele>577</ele>
        <time>2021-12-05T14:20:41Z</time>
      </trkpt>
      <trkpt lat="42.56447" lon="2.31105">
        <ele>576</ele>
        <time>2021-12-05T14:20:44Z</time>
      </trkpt>
      <trkpt lat="42.5646" lon="2.31131">
        <ele>574</ele>
        <time>2021-12-05T14:20:48Z</time>
      </trkpt>
      <trkpt lat="42.56485" lon="2.31186">
        <ele>574</ele>
        <time>2021-12-05T14:20:56Z</time>
      </trkpt>
      <trkpt lat="42.56513" lon="2.31254">
        <ele>577</ele>
        <time>2021-12-05T14:21:06Z</time>
      </trkpt>
      <trkpt lat="42.56538" lon="2.31305">
        <ele>572</ele>
        <time>2021-12-05T14:21:14Z</time>
      </trkpt>
      <trkpt lat="42.56558" lon="2.31342">
        <ele>571</ele>
        <time>2021-12-05T14:21:20Z</time>
      </trkpt>
      <trkpt lat="42.56589" lon="2.31408">
        <ele>567</ele>
        <time>2021-12-05T14:21:31Z</time>
      </trkpt>
      <trkpt lat="42.56609" lon="2.31449">
        <ele>568</ele>
        <time>2021-12-05T14:21:37Z</time>
      </trkpt>
      <trkpt lat="42.56619" lon="2.31464">
        <ele>569</ele>
        <time>2021-12-05T14:21:40Z</time>
      </trkpt>
      <trkpt lat="42.56645" lon="2.3151">
        <ele>568</ele>
        <time>2021-12-05T14:21:47Z</time>
      </trkpt>
      <trkpt lat="42.56665" lon="2.31543">
        <ele>563</ele>
        <time>2021-12-05T14:21:53Z</time>
      </trkpt>
      <trkpt lat="42.56711" lon="2.31616">
        <ele>562</ele>
        <time>2021-12-05T14:22:06Z</time>
      </trkpt>
      <trkpt lat="42.56722" lon="2.31636">
        <ele>562</ele>
        <time>2021-12-05T14:22:09Z</time>
      </trkpt>
      <trkpt lat="42.56747" lon="2.31686">
        <ele>558</ele>
        <time>2021-12-05T14:22:17Z</time>
      </trkpt>
      <trkpt lat="42.56765" lon="2.31735">
        <ele>555</ele>
        <time>2021-12-05T14:22:24Z</time>
      </trkpt>
      <trkpt lat="42.56775" lon="2.31768">
        <ele>555</ele>
        <time>2021-12-05T14:22:29Z</time>
      </trkpt>
      <trkpt lat="42.56785" lon="2.31806">
        <ele>556</ele>
        <time>2021-12-05T14:22:34Z</time>
      </trkpt>
      <trkpt lat="42.568" lon="2.31851">
        <ele>556</ele>
        <time>2021-12-05T14:22:40Z</time>
      </trkpt>
      <trkpt lat="42.5682" lon="2.31905">
        <ele>561</ele>
        <time>2021-12-05T14:22:48Z</time>
      </trkpt>
      <trkpt lat="42.56821" lon="2.3191">
        <ele>561</ele>
        <time>2021-12-05T14:22:49Z</time>
      </trkpt>
      <trkpt lat="42.56812" lon="2.31979">
        <ele>559</ele>
        <time>2021-12-05T14:22:58Z</time>
      </trkpt>
      <trkpt lat="42.56816" lon="2.32016">
        <ele>561</ele>
        <time>2021-12-05T14:23:03Z</time>
      </trkpt>
      <trkpt lat="42.56813" lon="2.32048">
        <ele>558</ele>
        <time>2021-12-05T14:23:07Z</time>
      </trkpt>
      <trkpt lat="42.56805" lon="2.32112">
        <ele>550</ele>
        <time>2021-12-05T14:23:16Z</time>
      </trkpt>
      <trkpt lat="42.56806" lon="2.32147">
        <ele>548</ele>
        <time>2021-12-05T14:23:20Z</time>
      </trkpt>
      <trkpt lat="42.56808" lon="2.32157">
        <ele>548</ele>
        <time>2021-12-05T14:23:22Z</time>
      </trkpt>
      <trkpt lat="42.56833" lon="2.32217">
        <ele>551</ele>
        <time>2021-12-05T14:23:31Z</time>
      </trkpt>
      <trkpt lat="42.5684" lon="2.32269">
        <ele>546</ele>
        <time>2021-12-05T14:23:38Z</time>
      </trkpt>
      <trkpt lat="42.56843" lon="2.32279">
        <ele>545</ele>
        <time>2021-12-05T14:23:39Z</time>
      </trkpt>
      <trkpt lat="42.56848" lon="2.32289">
        <ele>545</ele>
        <time>2021-12-05T14:23:41Z</time>
      </trkpt>
      <trkpt lat="42.56859" lon="2.32299">
        <ele>545</ele>
        <time>2021-12-05T14:23:43Z</time>
      </trkpt>
      <trkpt lat="42.56895" lon="2.32321">
        <ele>547</ele>
        <time>2021-12-05T14:23:50Z</time>
      </trkpt>
      <trkpt lat="42.56908" lon="2.32338">
        <ele>546</ele>
        <time>2021-12-05T14:23:53Z</time>
      </trkpt>
      <trkpt lat="42.5691" lon="2.32347">
        <ele>546</ele>
        <time>2021-12-05T14:23:54Z</time>
      </trkpt>
      <trkpt lat="42.56908" lon="2.3236">
        <ele>546</ele>
        <time>2021-12-05T14:23:56Z</time>
      </trkpt>
      <trkpt lat="42.56904" lon="2.32367">
        <ele>546</ele>
        <time>2021-12-05T14:23:57Z</time>
      </trkpt>
      <trkpt lat="42.5689" lon="2.32378">
        <ele>543</ele>
        <time>2021-12-05T14:24:00Z</time>
      </trkpt>
      <trkpt lat="42.56871" lon="2.32389">
        <ele>539</ele>
        <time>2021-12-05T14:24:04Z</time>
      </trkpt>
      <trkpt lat="42.56865" lon="2.32396">
        <ele>537</ele>
        <time>2021-12-05T14:24:05Z</time>
      </trkpt>
      <trkpt lat="42.56861" lon="2.32407">
        <ele>536</ele>
        <time>2021-12-05T14:24:07Z</time>
      </trkpt>
      <trkpt lat="42.56861" lon="2.32423">
        <ele>535</ele>
        <time>2021-12-05T14:24:09Z</time>
      </trkpt>
      <trkpt lat="42.56889" lon="2.325">
        <ele>538</ele>
        <time>2021-12-05T14:24:20Z</time>
      </trkpt>
      <trkpt lat="42.56894" lon="2.32518">
        <ele>539</ele>
        <time>2021-12-05T14:24:23Z</time>
      </trkpt>
      <trkpt lat="42.56897" lon="2.32543">
        <ele>539</ele>
        <time>2021-12-05T14:24:26Z</time>
      </trkpt>
      <trkpt lat="42.56911" lon="2.32766">
        <ele>539</ele>
        <time>2021-12-05T14:24:55Z</time>
      </trkpt>
      <trkpt lat="42.5691" lon="2.32774">
        <ele>539</ele>
        <time>2021-12-05T14:24:57Z</time>
      </trkpt>
      <trkpt lat="42.56898" lon="2.32811">
        <ele>536</ele>
        <time>2021-12-05T14:25:02Z</time>
      </trkpt>
      <trkpt lat="42.56894" lon="2.32829">
        <ele>536</ele>
        <time>2021-12-05T14:25:04Z</time>
      </trkpt>
      <trkpt lat="42.56893" lon="2.32848">
        <ele>535</ele>
        <time>2021-12-05T14:25:07Z</time>
      </trkpt>
      <trkpt lat="42.56893" lon="2.32868">
        <ele>534</ele>
        <time>2021-12-05T14:25:09Z</time>
      </trkpt>
      <trkpt lat="42.5689" lon="2.32913">
        <ele>531</ele>
        <time>2021-12-05T14:25:15Z</time>
      </trkpt>
      <trkpt lat="42.56885" lon="2.3296">
        <ele>528</ele>
        <time>2021-12-05T14:25:22Z</time>
      </trkpt>
      <trkpt lat="42.56884" lon="2.32998">
        <ele>526</ele>
        <time>2021-12-05T14:25:27Z</time>
      </trkpt>
      <trkpt lat="42.56888" lon="2.33022">
        <ele>526</ele>
        <time>2021-12-05T14:25:30Z</time>
      </trkpt>
      <trkpt lat="42.56894" lon="2.33046">
        <ele>526</ele>
        <time>2021-12-05T14:25:33Z</time>
      </trkpt>
      <trkpt lat="42.5691" lon="2.33075">
        <ele>528</ele>
        <time>2021-12-05T14:25:38Z</time>
      </trkpt>
      <trkpt lat="42.56922" lon="2.33094">
        <ele>529</ele>
        <time>2021-12-05T14:25:41Z</time>
      </trkpt>
      <trkpt lat="42.5693" lon="2.33116">
        <ele>528</ele>
        <time>2021-12-05T14:25:44Z</time>
      </trkpt>
      <trkpt lat="42.56941" lon="2.3315">
        <ele>527</ele>
        <time>2021-12-05T14:25:49Z</time>
      </trkpt>
      <trkpt lat="42.56959" lon="2.33191">
        <ele>529</ele>
        <time>2021-12-05T14:25:55Z</time>
      </trkpt>
      <trkpt lat="42.56967" lon="2.33207">
        <ele>530</ele>
        <time>2021-12-05T14:25:58Z</time>
      </trkpt>
      <trkpt lat="42.56976" lon="2.33228">
        <ele>529</ele>
        <time>2021-12-05T14:26:01Z</time>
      </trkpt>
      <trkpt lat="42.56993" lon="2.33257">
        <ele>529</ele>
        <time>2021-12-05T14:26:06Z</time>
      </trkpt>
      <trkpt lat="42.57005" lon="2.33277">
        <ele>528</ele>
        <time>2021-12-05T14:26:09Z</time>
      </trkpt>
      <trkpt lat="42.57028" lon="2.33308">
        <ele>530</ele>
        <time>2021-12-05T14:26:15Z</time>
      </trkpt>
      <trkpt lat="42.57047" lon="2.33337">
        <ele>532</ele>
        <time>2021-12-05T14:26:20Z</time>
      </trkpt>
      <trkpt lat="42.57053" lon="2.33352">
        <ele>532</ele>
        <time>2021-12-05T14:26:22Z</time>
      </trkpt>
      <trkpt lat="42.57056" lon="2.33366">
        <ele>531</ele>
        <time>2021-12-05T14:26:24Z</time>
      </trkpt>
      <trkpt lat="42.57056" lon="2.33383">
        <ele>529</ele>
        <time>2021-12-05T14:26:27Z</time>
      </trkpt>
      <trkpt lat="42.57052" lon="2.3341">
        <ele>524</ele>
        <time>2021-12-05T14:26:30Z</time>
      </trkpt>
      <trkpt lat="42.57052" lon="2.3342">
        <ele>523</ele>
        <time>2021-12-05T14:26:32Z</time>
      </trkpt>
      <trkpt lat="42.57055" lon="2.33431">
        <ele>522</ele>
        <time>2021-12-05T14:26:33Z</time>
      </trkpt>
      <trkpt lat="42.57084" lon="2.33506">
        <ele>515</ele>
        <time>2021-12-05T14:26:44Z</time>
      </trkpt>
      <trkpt lat="42.5709" lon="2.33517">
        <ele>516</ele>
        <time>2021-12-05T14:26:46Z</time>
      </trkpt>
      <trkpt lat="42.57112" lon="2.33542">
        <ele>520</ele>
        <time>2021-12-05T14:26:51Z</time>
      </trkpt>
      <trkpt lat="42.5712" lon="2.33554">
        <ele>521</ele>
        <time>2021-12-05T14:26:53Z</time>
      </trkpt>
      <trkpt lat="42.57139" lon="2.33591">
        <ele>519</ele>
        <time>2021-12-05T14:26:59Z</time>
      </trkpt>
      <trkpt lat="42.57167" lon="2.33654">
        <ele>510</ele>
        <time>2021-12-05T14:27:09Z</time>
      </trkpt>
      <trkpt lat="42.5718" lon="2.33676">
        <ele>507</ele>
        <time>2021-12-05T14:27:12Z</time>
      </trkpt>
      <trkpt lat="42.57189" lon="2.33687">
        <ele>506</ele>
        <time>2021-12-05T14:27:15Z</time>
      </trkpt>
      <trkpt lat="42.57208" lon="2.33701">
        <ele>506</ele>
        <time>2021-12-05T14:27:18Z</time>
      </trkpt>
      <trkpt lat="42.57258" lon="2.33735">
        <ele>505</ele>
        <time>2021-12-05T14:27:28Z</time>
      </trkpt>
      <trkpt lat="42.57272" lon="2.33749">
        <ele>505</ele>
        <time>2021-12-05T14:27:31Z</time>
      </trkpt>
      <trkpt lat="42.57287" lon="2.3377">
        <ele>506</ele>
        <time>2021-12-05T14:27:35Z</time>
      </trkpt>
      <trkpt lat="42.57294" lon="2.33782">
        <ele>505</ele>
        <time>2021-12-05T14:27:37Z</time>
      </trkpt>
      <trkpt lat="42.57301" lon="2.33796">
        <ele>505</ele>
        <time>2021-12-05T14:27:40Z</time>
      </trkpt>
      <trkpt lat="42.57326" lon="2.33851">
        <ele>500</ele>
        <time>2021-12-05T14:27:48Z</time>
      </trkpt>
      <trkpt lat="42.57341" lon="2.33883">
        <ele>499</ele>
        <time>2021-12-05T14:27:53Z</time>
      </trkpt>
      <trkpt lat="42.574" lon="2.34002">
        <ele>501</ele>
        <time>2021-12-05T14:28:12Z</time>
      </trkpt>
      <trkpt lat="42.57433" lon="2.34059">
        <ele>499</ele>
        <time>2021-12-05T14:28:21Z</time>
      </trkpt>
      <trkpt lat="42.57473" lon="2.3412">
        <ele>495</ele>
        <time>2021-12-05T14:28:32Z</time>
      </trkpt>
      <trkpt lat="42.57481" lon="2.34132">
        <ele>493</ele>
        <time>2021-12-05T14:28:34Z</time>
      </trkpt>
      <trkpt lat="42.57657" lon="2.34354">
        <ele>488</ele>
        <time>2021-12-05T14:29:17Z</time>
      </trkpt>
      <trkpt lat="42.57743" lon="2.34473">
        <ele>486</ele>
        <time>2021-12-05T14:29:39Z</time>
      </trkpt>
      <trkpt lat="42.57816" lon="2.34564">
        <ele>482</ele>
        <time>2021-12-05T14:29:56Z</time>
      </trkpt>
      <trkpt lat="42.57862" lon="2.34628">
        <ele>482</ele>
        <time>2021-12-05T14:30:08Z</time>
      </trkpt>
      <trkpt lat="42.57877" lon="2.34652">
        <ele>483</ele>
        <time>2021-12-05T14:30:12Z</time>
      </trkpt>
      <trkpt lat="42.57903" lon="2.34708">
        <ele>480</ele>
        <time>2021-12-05T14:30:21Z</time>
      </trkpt>
      <trkpt lat="42.57912" lon="2.34735">
        <ele>476</ele>
        <time>2021-12-05T14:30:25Z</time>
      </trkpt>
      <trkpt lat="42.57942" lon="2.34835">
        <ele>476</ele>
        <time>2021-12-05T14:30:39Z</time>
      </trkpt>
      <trkpt lat="42.57961" lon="2.34888">
        <ele>475</ele>
        <time>2021-12-05T14:30:47Z</time>
      </trkpt>
      <trkpt lat="42.57979" lon="2.34933">
        <ele>473</ele>
        <time>2021-12-05T14:30:53Z</time>
      </trkpt>
      <trkpt lat="42.58059" lon="2.35126">
        <ele>469</ele>
        <time>2021-12-05T14:31:22Z</time>
      </trkpt>
      <trkpt lat="42.5808" lon="2.35169">
        <ele>467</ele>
        <time>2021-12-05T14:31:29Z</time>
      </trkpt>
      <trkpt lat="42.58087" lon="2.35181">
        <ele>467</ele>
        <time>2021-12-05T14:31:31Z</time>
      </trkpt>
      <trkpt lat="42.58094" lon="2.35194">
        <ele>467</ele>
        <time>2021-12-05T14:31:33Z</time>
      </trkpt>
      <trkpt lat="42.58108" lon="2.35217">
        <ele>467</ele>
        <time>2021-12-05T14:31:37Z</time>
      </trkpt>
      <trkpt lat="42.58112" lon="2.35224">
        <ele>467</ele>
        <time>2021-12-05T14:31:38Z</time>
      </trkpt>
      <trkpt lat="42.58123" lon="2.35239">
        <ele>467</ele>
        <time>2021-12-05T14:31:41Z</time>
      </trkpt>
      <trkpt lat="42.58173" lon="2.353">
        <ele>466</ele>
        <time>2021-12-05T14:31:53Z</time>
      </trkpt>
      <trkpt lat="42.58213" lon="2.35342">
        <ele>466</ele>
        <time>2021-12-05T14:32:02Z</time>
      </trkpt>
      <trkpt lat="42.58242" lon="2.35369">
        <ele>467</ele>
        <time>2021-12-05T14:32:08Z</time>
      </trkpt>
      <trkpt lat="42.5829" lon="2.3541">
        <ele>475</ele>
        <time>2021-12-05T14:32:18Z</time>
      </trkpt>
      <trkpt lat="42.58322" lon="2.35441">
        <ele>477</ele>
        <time>2021-12-05T14:32:25Z</time>
      </trkpt>
      <trkpt lat="42.5834" lon="2.35469">
        <ele>477</ele>
        <time>2021-12-05T14:32:30Z</time>
      </trkpt>
      <trkpt lat="42.58373" lon="2.35536">
        <ele>479</ele>
        <time>2021-12-05T14:32:41Z</time>
      </trkpt>
      <trkpt lat="42.58381" lon="2.35553">
        <ele>479</ele>
        <time>2021-12-05T14:32:43Z</time>
      </trkpt>
      <trkpt lat="42.58385" lon="2.35567">
        <ele>477</ele>
        <time>2021-12-05T14:32:45Z</time>
      </trkpt>
      <trkpt lat="42.58405" lon="2.35678">
        <ele>464</ele>
        <time>2021-12-05T14:33:00Z</time>
      </trkpt>
      <trkpt lat="42.58417" lon="2.35884">
        <ele>461</ele>
        <time>2021-12-05T14:33:27Z</time>
      </trkpt>
      <trkpt lat="42.58423" lon="2.35913">
        <ele>463</ele>
        <time>2021-12-05T14:33:31Z</time>
      </trkpt>
      <trkpt lat="42.58429" lon="2.35932">
        <ele>464</ele>
        <time>2021-12-05T14:33:34Z</time>
      </trkpt>
      <trkpt lat="42.58434" lon="2.35956">
        <ele>463</ele>
        <time>2021-12-05T14:33:37Z</time>
      </trkpt>
      <trkpt lat="42.58436" lon="2.35969">
        <ele>462</ele>
        <time>2021-12-05T14:33:39Z</time>
      </trkpt>
      <trkpt lat="42.58435" lon="2.3599">
        <ele>458</ele>
        <time>2021-12-05T14:33:42Z</time>
      </trkpt>
      <trkpt lat="42.58433" lon="2.36001">
        <ele>455</ele>
        <time>2021-12-05T14:33:43Z</time>
      </trkpt>
      <trkpt lat="42.58427" lon="2.36041">
        <ele>450</ele>
        <time>2021-12-05T14:33:49Z</time>
      </trkpt>
      <trkpt lat="42.58419" lon="2.36081">
        <ele>445</ele>
        <time>2021-12-05T14:33:54Z</time>
      </trkpt>
      <trkpt lat="42.58415" lon="2.36101">
        <ele>445</ele>
        <time>2021-12-05T14:33:57Z</time>
      </trkpt>
      <trkpt lat="42.58408" lon="2.36151">
        <ele>448</ele>
        <time>2021-12-05T14:34:03Z</time>
      </trkpt>
      <trkpt lat="42.58408" lon="2.36192">
        <ele>453</ele>
        <time>2021-12-05T14:34:09Z</time>
      </trkpt>
      <trkpt lat="42.58416" lon="2.36219">
        <ele>454</ele>
        <time>2021-12-05T14:34:13Z</time>
      </trkpt>
      <trkpt lat="42.58425" lon="2.36237">
        <ele>456</ele>
        <time>2021-12-05T14:34:16Z</time>
      </trkpt>
      <trkpt lat="42.58442" lon="2.36262">
        <ele>460</ele>
        <time>2021-12-05T14:34:20Z</time>
      </trkpt>
      <trkpt lat="42.58492" lon="2.36322">
        <ele>460</ele>
        <time>2021-12-05T14:34:32Z</time>
      </trkpt>
      <trkpt lat="42.58531" lon="2.36352">
        <ele>456</ele>
        <time>2021-12-05T14:34:40Z</time>
      </trkpt>
      <trkpt lat="42.58551" lon="2.36368">
        <ele>454</ele>
        <time>2021-12-05T14:34:44Z</time>
      </trkpt>
      <trkpt lat="42.58563" lon="2.36381">
        <ele>451</ele>
        <time>2021-12-05T14:34:47Z</time>
      </trkpt>
      <trkpt lat="42.58585" lon="2.36415">
        <ele>445</ele>
        <time>2021-12-05T14:34:53Z</time>
      </trkpt>
      <trkpt lat="42.58593" lon="2.36433">
        <ele>448</ele>
        <time>2021-12-05T14:34:55Z</time>
      </trkpt>
      <trkpt lat="42.586" lon="2.36456">
        <ele>453</ele>
        <time>2021-12-05T14:34:59Z</time>
      </trkpt>
      <trkpt lat="42.58606" lon="2.36519">
        <ele>463</ele>
        <time>2021-12-05T14:35:07Z</time>
      </trkpt>
      <trkpt lat="42.58613" lon="2.36554">
        <ele>463</ele>
        <time>2021-12-05T14:35:12Z</time>
      </trkpt>
      <trkpt lat="42.58638" lon="2.36675">
        <ele>460</ele>
        <time>2021-12-05T14:35:28Z</time>
      </trkpt>
      <trkpt lat="42.58656" lon="2.36962">
        <ele>441</ele>
        <time>2021-12-05T14:36:06Z</time>
      </trkpt>
      <trkpt lat="42.58655" lon="2.3699">
        <ele>440</ele>
        <time>2021-12-05T14:36:10Z</time>
      </trkpt>
      <trkpt lat="42.58654" lon="2.36995">
        <ele>440</ele>
        <time>2021-12-05T14:36:10Z</time>
      </trkpt>
      <trkpt lat="42.58651" lon="2.37001">
        <ele>440</ele>
        <time>2021-12-05T14:36:11Z</time>
      </trkpt>
      <trkpt lat="42.58649" lon="2.37008">
        <ele>443</ele>
        <time>2021-12-05T14:36:12Z</time>
      </trkpt>
      <trkpt lat="42.5865" lon="2.37016">
        <ele>446</ele>
        <time>2021-12-05T14:36:13Z</time>
      </trkpt>
      <trkpt lat="42.58653" lon="2.37023">
        <ele>448</ele>
        <time>2021-12-05T14:36:14Z</time>
      </trkpt>
      <trkpt lat="42.58657" lon="2.37028">
        <ele>450</ele>
        <time>2021-12-05T14:36:15Z</time>
      </trkpt>
      <trkpt lat="42.58662" lon="2.3703">
        <ele>451</ele>
        <time>2021-12-05T14:36:16Z</time>
      </trkpt>
      <trkpt lat="42.58667" lon="2.3703">
        <ele>451</ele>
        <time>2021-12-05T14:36:17Z</time>
      </trkpt>
      <trkpt lat="42.58672" lon="2.37027">
        <ele>450</ele>
        <time>2021-12-05T14:36:18Z</time>
      </trkpt>
      <trkpt lat="42.58675" lon="2.37022">
        <ele>447</ele>
        <time>2021-12-05T14:36:19Z</time>
      </trkpt>
      <trkpt lat="42.58678" lon="2.37016">
        <ele>445</ele>
        <time>2021-12-05T14:36:20Z</time>
      </trkpt>
      <trkpt lat="42.5869" lon="2.37008">
        <ele>441</ele>
        <time>2021-12-05T14:36:22Z</time>
      </trkpt>
      <trkpt lat="42.58696" lon="2.37007">
        <ele>440</ele>
        <time>2021-12-05T14:36:23Z</time>
      </trkpt>
      <trkpt lat="42.58715" lon="2.37008">
        <ele>439</ele>
        <time>2021-12-05T14:36:27Z</time>
      </trkpt>
      <trkpt lat="42.5877" lon="2.37028">
        <ele>441</ele>
        <time>2021-12-05T14:36:37Z</time>
      </trkpt>
      <trkpt lat="42.58807" lon="2.37051">
        <ele>440</ele>
        <time>2021-12-05T14:36:44Z</time>
      </trkpt>
      <trkpt lat="42.58843" lon="2.37077">
        <ele>436</ele>
        <time>2021-12-05T14:36:51Z</time>
      </trkpt>
      <trkpt lat="42.58886" lon="2.37101">
        <ele>436</ele>
        <time>2021-12-05T14:37:00Z</time>
      </trkpt>
      <trkpt lat="42.58923" lon="2.37115">
        <ele>435</ele>
        <time>2021-12-05T14:37:06Z</time>
      </trkpt>
      <trkpt lat="42.58943" lon="2.37119">
        <ele>435</ele>
        <time>2021-12-05T14:37:10Z</time>
      </trkpt>
      <trkpt lat="42.59019" lon="2.37121">
        <ele>433</ele>
        <time>2021-12-05T14:37:24Z</time>
      </trkpt>
      <trkpt lat="42.59065" lon="2.37126">
        <ele>432</ele>
        <time>2021-12-05T14:37:32Z</time>
      </trkpt>
      <trkpt lat="42.59116" lon="2.37139">
        <ele>432</ele>
        <time>2021-12-05T14:37:41Z</time>
      </trkpt>
      <trkpt lat="42.59143" lon="2.37153">
        <ele>433</ele>
        <time>2021-12-05T14:37:46Z</time>
      </trkpt>
      <trkpt lat="42.59199" lon="2.37199">
        <ele>442</ele>
        <time>2021-12-05T14:37:58Z</time>
      </trkpt>
      <trkpt lat="42.59219" lon="2.3722">
        <ele>444</ele>
        <time>2021-12-05T14:38:02Z</time>
      </trkpt>
      <trkpt lat="42.59378" lon="2.37341">
        <ele>436</ele>
        <time>2021-12-05T14:38:35Z</time>
      </trkpt>
      <trkpt lat="42.59452" lon="2.374">
        <ele>425</ele>
        <time>2021-12-05T14:38:50Z</time>
      </trkpt>
      <trkpt lat="42.59485" lon="2.3743">
        <ele>422</ele>
        <time>2021-12-05T14:38:57Z</time>
      </trkpt>
      <trkpt lat="42.59519" lon="2.37472">
        <ele>421</ele>
        <time>2021-12-05T14:39:05Z</time>
      </trkpt>
      <trkpt lat="42.5954" lon="2.37507">
        <ele>421</ele>
        <time>2021-12-05T14:39:11Z</time>
      </trkpt>
      <trkpt lat="42.59553" lon="2.37543">
        <ele>423</ele>
        <time>2021-12-05T14:39:16Z</time>
      </trkpt>
      <trkpt lat="42.59566" lon="2.37613">
        <ele>425</ele>
        <time>2021-12-05T14:39:26Z</time>
      </trkpt>
      <trkpt lat="42.59574" lon="2.37629">
        <ele>423</ele>
        <time>2021-12-05T14:39:28Z</time>
      </trkpt>
      <trkpt lat="42.59589" lon="2.37646">
        <ele>419</ele>
        <time>2021-12-05T14:39:32Z</time>
      </trkpt>
      <trkpt lat="42.59599" lon="2.37649">
        <ele>419</ele>
        <time>2021-12-05T14:39:34Z</time>
      </trkpt>
      <trkpt lat="42.59632" lon="2.37645">
        <ele>418</ele>
        <time>2021-12-05T14:39:40Z</time>
      </trkpt>
      <trkpt lat="42.5964" lon="2.37645">
        <ele>417</ele>
        <time>2021-12-05T14:39:41Z</time>
      </trkpt>
      <trkpt lat="42.59647" lon="2.37648">
        <ele>417</ele>
        <time>2021-12-05T14:39:42Z</time>
      </trkpt>
      <trkpt lat="42.59657" lon="2.37657">
        <ele>415</ele>
        <time>2021-12-05T14:39:44Z</time>
      </trkpt>
      <trkpt lat="42.59698" lon="2.37725">
        <ele>414</ele>
        <time>2021-12-05T14:39:56Z</time>
      </trkpt>
      <trkpt lat="42.59745" lon="2.37783">
        <ele>412</ele>
        <time>2021-12-05T14:40:07Z</time>
      </trkpt>
      <trkpt lat="42.59795" lon="2.37843">
        <ele>408</ele>
        <time>2021-12-05T14:40:19Z</time>
      </trkpt>
      <trkpt lat="42.59806" lon="2.37857">
        <ele>409</ele>
        <time>2021-12-05T14:40:22Z</time>
      </trkpt>
      <trkpt lat="42.59822" lon="2.37875">
        <ele>409</ele>
        <time>2021-12-05T14:40:25Z</time>
      </trkpt>
      <trkpt lat="42.59879" lon="2.37948">
        <ele>410</ele>
        <time>2021-12-05T14:40:39Z</time>
      </trkpt>
      <trkpt lat="42.59994" lon="2.38096">
        <ele>407</ele>
        <time>2021-12-05T14:41:08Z</time>
      </trkpt>
      <trkpt lat="42.60027" lon="2.38139">
        <ele>410</ele>
        <time>2021-12-05T14:41:16Z</time>
      </trkpt>
      <trkpt lat="42.60041" lon="2.38158">
        <ele>410</ele>
        <time>2021-12-05T14:41:19Z</time>
      </trkpt>
      <trkpt lat="42.60068" lon="2.38201">
        <ele>408</ele>
        <time>2021-12-05T14:41:27Z</time>
      </trkpt>
      <trkpt lat="42.6008" lon="2.38221">
        <ele>406</ele>
        <time>2021-12-05T14:41:30Z</time>
      </trkpt>
      <trkpt lat="42.60099" lon="2.38251">
        <ele>404</ele>
        <time>2021-12-05T14:41:35Z</time>
      </trkpt>
      <trkpt lat="42.60119" lon="2.38289">
        <ele>402</ele>
        <time>2021-12-05T14:41:41Z</time>
      </trkpt>
      <trkpt lat="42.60135" lon="2.38326">
        <ele>401</ele>
        <time>2021-12-05T14:41:47Z</time>
      </trkpt>
      <trkpt lat="42.60153" lon="2.38369">
        <ele>402</ele>
        <time>2021-12-05T14:41:53Z</time>
      </trkpt>
      <trkpt lat="42.60197" lon="2.38497">
        <ele>398</ele>
        <time>2021-12-05T14:42:12Z</time>
      </trkpt>
      <trkpt lat="42.60269" lon="2.38703">
        <ele>397</ele>
        <time>2021-12-05T14:42:42Z</time>
      </trkpt>
      <trkpt lat="42.60333" lon="2.38889">
        <ele>395</ele>
        <time>2021-12-05T14:43:09Z</time>
      </trkpt>
      <trkpt lat="42.60336" lon="2.38901">
        <ele>395</ele>
        <time>2021-12-05T14:43:10Z</time>
      </trkpt>
      <trkpt lat="42.60358" lon="2.38968">
        <ele>396</ele>
        <time>2021-12-05T14:43:20Z</time>
      </trkpt>
      <trkpt lat="42.60379" lon="2.39037">
        <ele>398</ele>
        <time>2021-12-05T14:43:30Z</time>
      </trkpt>
      <trkpt lat="42.60431" lon="2.39202">
        <ele>399</ele>
        <time>2021-12-05T14:43:53Z</time>
      </trkpt>
      <trkpt lat="42.60443" lon="2.39234">
        <ele>400</ele>
        <time>2021-12-05T14:43:58Z</time>
      </trkpt>
      <trkpt lat="42.60455" lon="2.39266">
        <ele>400</ele>
        <time>2021-12-05T14:44:03Z</time>
      </trkpt>
      <trkpt lat="42.60471" lon="2.39302">
        <ele>399</ele>
        <time>2021-12-05T14:44:08Z</time>
      </trkpt>
      <trkpt lat="42.605" lon="2.39371">
        <ele>397</ele>
        <time>2021-12-05T14:44:19Z</time>
      </trkpt>
      <trkpt lat="42.60529" lon="2.3944">
        <ele>396</ele>
        <time>2021-12-05T14:44:29Z</time>
      </trkpt>
      <trkpt lat="42.60544" lon="2.39474">
        <ele>396</ele>
        <time>2021-12-05T14:44:34Z</time>
      </trkpt>
      <trkpt lat="42.60569" lon="2.39547">
        <ele>395</ele>
        <time>2021-12-05T14:44:45Z</time>
      </trkpt>
      <trkpt lat="42.60572" lon="2.39556">
        <ele>395</ele>
        <time>2021-12-05T14:44:46Z</time>
      </trkpt>
      <trkpt lat="42.60579" lon="2.3958">
        <ele>394</ele>
        <time>2021-12-05T14:44:49Z</time>
      </trkpt>
      <trkpt lat="42.60586" lon="2.3961">
        <ele>393</ele>
        <time>2021-12-05T14:44:54Z</time>
      </trkpt>
      <trkpt lat="42.60592" lon="2.39641">
        <ele>390</ele>
        <time>2021-12-05T14:44:58Z</time>
      </trkpt>
      <trkpt lat="42.60592" lon="2.39651">
        <ele>390</ele>
        <time>2021-12-05T14:44:59Z</time>
      </trkpt>
      <trkpt lat="42.60591" lon="2.39676">
        <ele>389</ele>
        <time>2021-12-05T14:45:02Z</time>
      </trkpt>
      <trkpt lat="42.60583" lon="2.39715">
        <ele>389</ele>
        <time>2021-12-05T14:45:08Z</time>
      </trkpt>
      <trkpt lat="42.60576" lon="2.3973">
        <ele>390</ele>
        <time>2021-12-05T14:45:10Z</time>
      </trkpt>
      <trkpt lat="42.60574" lon="2.39735">
        <ele>390</ele>
        <time>2021-12-05T14:45:11Z</time>
      </trkpt>
      <trkpt lat="42.60573" lon="2.39746">
        <ele>390</ele>
        <time>2021-12-05T14:45:12Z</time>
      </trkpt>
      <trkpt lat="42.60575" lon="2.39757">
        <ele>389</ele>
        <time>2021-12-05T14:45:14Z</time>
      </trkpt>
      <trkpt lat="42.60577" lon="2.39767">
        <ele>389</ele>
        <time>2021-12-05T14:45:15Z</time>
      </trkpt>
      <trkpt lat="42.60584" lon="2.3979">
        <ele>388</ele>
        <time>2021-12-05T14:45:18Z</time>
      </trkpt>
      <trkpt lat="42.60588" lon="2.398">
        <ele>387</ele>
        <time>2021-12-05T14:45:20Z</time>
      </trkpt>
      <trkpt lat="42.60601" lon="2.39839">
        <ele>386</ele>
        <time>2021-12-05T14:45:25Z</time>
      </trkpt>
      <trkpt lat="42.60602" lon="2.39842">
        <ele>386</ele>
        <time>2021-12-05T14:45:26Z</time>
      </trkpt>
      <trkpt lat="42.60607" lon="2.39859">
        <ele>386</ele>
        <time>2021-12-05T14:45:28Z</time>
      </trkpt>
      <trkpt lat="42.60609" lon="2.39865">
        <ele>386</ele>
        <time>2021-12-05T14:45:29Z</time>
      </trkpt>
      <trkpt lat="42.60613" lon="2.39877">
        <ele>386</ele>
        <time>2021-12-05T14:45:31Z</time>
      </trkpt>
      <trkpt lat="42.60618" lon="2.39891">
        <ele>386</ele>
        <time>2021-12-05T14:45:33Z</time>
      </trkpt>
      <trkpt lat="42.60634" lon="2.39941">
        <ele>384</ele>
        <time>2021-12-05T14:45:40Z</time>
      </trkpt>
      <trkpt lat="42.60656" lon="2.40011">
        <ele>377</ele>
        <time>2021-12-05T14:45:50Z</time>
      </trkpt>
      <trkpt lat="42.60662" lon="2.4003">
        <ele>376</ele>
        <time>2021-12-05T14:45:53Z</time>
      </trkpt>
      <trkpt lat="42.60665" lon="2.40038">
        <ele>375</ele>
        <time>2021-12-05T14:45:54Z</time>
      </trkpt>
      <trkpt lat="42.6068" lon="2.40081">
        <ele>375</ele>
        <time>2021-12-05T14:46:00Z</time>
      </trkpt>
      <trkpt lat="42.60696" lon="2.40129">
        <ele>375</ele>
        <time>2021-12-05T14:46:07Z</time>
      </trkpt>
      <trkpt lat="42.60701" lon="2.40155">
        <ele>375</ele>
        <time>2021-12-05T14:46:10Z</time>
      </trkpt>
      <trkpt lat="42.60705" lon="2.40166">
        <ele>375</ele>
        <time>2021-12-05T14:46:12Z</time>
      </trkpt>
      <trkpt lat="42.60719" lon="2.40195">
        <ele>376</ele>
        <time>2021-12-05T14:46:17Z</time>
      </trkpt>
      <trkpt lat="42.60726" lon="2.40206">
        <ele>376</ele>
        <time>2021-12-05T14:46:18Z</time>
      </trkpt>
      <trkpt lat="42.60738" lon="2.40224">
        <ele>374</ele>
        <time>2021-12-05T14:46:22Z</time>
      </trkpt>
      <trkpt lat="42.60744" lon="2.40237">
        <ele>374</ele>
        <time>2021-12-05T14:46:24Z</time>
      </trkpt>
      <trkpt lat="42.60762" lon="2.4028">
        <ele>376</ele>
        <time>2021-12-05T14:46:30Z</time>
      </trkpt>
      <trkpt lat="42.60778" lon="2.40312">
        <ele>377</ele>
        <time>2021-12-05T14:46:35Z</time>
      </trkpt>
      <trkpt lat="42.60787" lon="2.40334">
        <ele>377</ele>
        <time>2021-12-05T14:46:38Z</time>
      </trkpt>
      <trkpt lat="42.60793" lon="2.40347">
        <ele>379</ele>
        <time>2021-12-05T14:46:41Z</time>
      </trkpt>
      <trkpt lat="42.60807" lon="2.40383">
        <ele>380</ele>
        <time>2021-12-05T14:46:46Z</time>
      </trkpt>
      <trkpt lat="42.60823" lon="2.40427">
        <ele>380</ele>
        <time>2021-12-05T14:46:52Z</time>
      </trkpt>
      <trkpt lat="42.6083" lon="2.40442">
        <ele>378</ele>
        <time>2021-12-05T14:46:55Z</time>
      </trkpt>
      <trkpt lat="42.60852" lon="2.40481">
        <ele>378</ele>
        <time>2021-12-05T14:47:01Z</time>
      </trkpt>
      <trkpt lat="42.60868" lon="2.40525">
        <ele>376</ele>
        <time>2021-12-05T14:47:07Z</time>
      </trkpt>
      <trkpt lat="42.60877" lon="2.40553">
        <ele>374</ele>
        <time>2021-12-05T14:47:11Z</time>
      </trkpt>
      <trkpt lat="42.60882" lon="2.40578">
        <ele>373</ele>
        <time>2021-12-05T14:47:15Z</time>
      </trkpt>
      <trkpt lat="42.60887" lon="2.406">
        <ele>373</ele>
        <time>2021-12-05T14:47:18Z</time>
      </trkpt>
      <trkpt lat="42.60898" lon="2.40657">
        <ele>374</ele>
        <time>2021-12-05T14:47:26Z</time>
      </trkpt>
      <trkpt lat="42.60905" lon="2.40675">
        <ele>376</ele>
        <time>2021-12-05T14:47:28Z</time>
      </trkpt>
      <trkpt lat="42.60917" lon="2.407">
        <ele>380</ele>
        <time>2021-12-05T14:47:32Z</time>
      </trkpt>
      <trkpt lat="42.60932" lon="2.40723">
        <ele>383</ele>
        <time>2021-12-05T14:47:36Z</time>
      </trkpt>
      <trkpt lat="42.60945" lon="2.4074">
        <ele>383</ele>
        <time>2021-12-05T14:47:39Z</time>
      </trkpt>
      <trkpt lat="42.60953" lon="2.40746">
        <ele>382</ele>
        <time>2021-12-05T14:47:41Z</time>
      </trkpt>
      <trkpt lat="42.61" lon="2.40766">
        <ele>370</ele>
        <time>2021-12-05T14:47:50Z</time>
      </trkpt>
      <trkpt lat="42.61014" lon="2.40781">
        <ele>372</ele>
        <time>2021-12-05T14:47:53Z</time>
      </trkpt>
      <trkpt lat="42.61022" lon="2.40794">
        <ele>373</ele>
        <time>2021-12-05T14:47:55Z</time>
      </trkpt>
      <trkpt lat="42.61067" lon="2.40874">
        <ele>376</ele>
        <time>2021-12-05T14:48:08Z</time>
      </trkpt>
      <trkpt lat="42.61094" lon="2.40903">
        <ele>373</ele>
        <time>2021-12-05T14:48:14Z</time>
      </trkpt>
      <trkpt lat="42.6112" lon="2.40921">
        <ele>370</ele>
        <time>2021-12-05T14:48:20Z</time>
      </trkpt>
      <trkpt lat="42.61212" lon="2.40998">
        <ele>363</ele>
        <time>2021-12-05T14:48:39Z</time>
      </trkpt>
      <trkpt lat="42.6127" lon="2.41052">
        <ele>362</ele>
        <time>2021-12-05T14:48:51Z</time>
      </trkpt>
      <trkpt lat="42.61315" lon="2.41089">
        <ele>359</ele>
        <time>2021-12-05T14:49:01Z</time>
      </trkpt>
      <trkpt lat="42.61342" lon="2.41106">
        <ele>357</ele>
        <time>2021-12-05T14:49:06Z</time>
      </trkpt>
      <trkpt lat="42.61445" lon="2.41146">
        <ele>352</ele>
        <time>2021-12-05T14:49:25Z</time>
      </trkpt>
      <trkpt lat="42.61482" lon="2.41159">
        <ele>349</ele>
        <time>2021-12-05T14:49:32Z</time>
      </trkpt>
      <trkpt lat="42.61498" lon="2.41165">
        <ele>348</ele>
        <time>2021-12-05T14:49:35Z</time>
      </trkpt>
      <trkpt lat="42.6155" lon="2.41174">
        <ele>347</ele>
        <time>2021-12-05T14:49:44Z</time>
      </trkpt>
      <trkpt lat="42.61565" lon="2.41178">
        <ele>347</ele>
        <time>2021-12-05T14:49:47Z</time>
      </trkpt>
      <trkpt lat="42.61599" lon="2.41194">
        <ele>348</ele>
        <time>2021-12-05T14:49:53Z</time>
      </trkpt>
      <trkpt lat="42.61623" lon="2.41209">
        <ele>348</ele>
        <time>2021-12-05T14:49:58Z</time>
      </trkpt>
      <trkpt lat="42.61646" lon="2.4122">
        <ele>348</ele>
        <time>2021-12-05T14:50:02Z</time>
      </trkpt>
      <trkpt lat="42.6167" lon="2.4123">
        <ele>348</ele>
        <time>2021-12-05T14:50:07Z</time>
      </trkpt>
      <trkpt lat="42.61679" lon="2.41232">
        <ele>348</ele>
        <time>2021-12-05T14:50:08Z</time>
      </trkpt>
      <trkpt lat="42.61685" lon="2.41234">
        <ele>348</ele>
        <time>2021-12-05T14:50:10Z</time>
      </trkpt>
      <trkpt lat="42.61726" lon="2.41239">
        <ele>346</ele>
        <time>2021-12-05T14:50:17Z</time>
      </trkpt>
      <trkpt lat="42.61803" lon="2.41233">
        <ele>344</ele>
        <time>2021-12-05T14:50:31Z</time>
      </trkpt>
      <trkpt lat="42.61822" lon="2.41235">
        <ele>344</ele>
        <time>2021-12-05T14:50:34Z</time>
      </trkpt>
      <trkpt lat="42.6184" lon="2.41239">
        <ele>343</ele>
        <time>2021-12-05T14:50:37Z</time>
      </trkpt>
      <trkpt lat="42.61859" lon="2.41247">
        <ele>344</ele>
        <time>2021-12-05T14:50:41Z</time>
      </trkpt>
      <trkpt lat="42.61877" lon="2.41257">
        <ele>344</ele>
        <time>2021-12-05T14:50:44Z</time>
      </trkpt>
      <trkpt lat="42.61897" lon="2.41271">
        <ele>345</ele>
        <time>2021-12-05T14:50:48Z</time>
      </trkpt>
      <trkpt lat="42.61915" lon="2.41289">
        <ele>345</ele>
        <time>2021-12-05T14:50:52Z</time>
      </trkpt>
      <trkpt lat="42.61929" lon="2.41307">
        <ele>346</ele>
        <time>2021-12-05T14:50:56Z</time>
      </trkpt>
      <trkpt lat="42.61947" lon="2.41334">
        <ele>345</ele>
        <time>2021-12-05T14:51:00Z</time>
      </trkpt>
      <trkpt lat="42.61983" lon="2.41411">
        <ele>343</ele>
        <time>2021-12-05T14:51:12Z</time>
      </trkpt>
      <trkpt lat="42.61998" lon="2.41442">
        <ele>342</ele>
        <time>2021-12-05T14:51:17Z</time>
      </trkpt>
      <trkpt lat="42.62028" lon="2.41509">
        <ele>339</ele>
        <time>2021-12-05T14:51:27Z</time>
      </trkpt>
      <trkpt lat="42.62049" lon="2.41554">
        <ele>335</ele>
        <time>2021-12-05T14:51:34Z</time>
      </trkpt>
      <trkpt lat="42.62069" lon="2.41587">
        <ele>333</ele>
        <time>2021-12-05T14:51:40Z</time>
      </trkpt>
      <trkpt lat="42.62082" lon="2.41605">
        <ele>333</ele>
        <time>2021-12-05T14:51:43Z</time>
      </trkpt>
      <trkpt lat="42.62086" lon="2.41611">
        <ele>333</ele>
        <time>2021-12-05T14:51:44Z</time>
      </trkpt>
      <trkpt lat="42.62101" lon="2.41638">
        <ele>334</ele>
        <time>2021-12-05T14:51:49Z</time>
      </trkpt>
      <trkpt lat="42.62099" lon="2.41647">
        <ele>334</ele>
        <time>2021-12-05T14:51:50Z</time>
      </trkpt>
      <trkpt lat="42.62099" lon="2.41655">
        <ele>334</ele>
        <time>2021-12-05T14:51:51Z</time>
      </trkpt>
      <trkpt lat="42.621" lon="2.41663">
        <ele>335</ele>
        <time>2021-12-05T14:51:52Z</time>
      </trkpt>
      <trkpt lat="42.62104" lon="2.4167">
        <ele>335</ele>
        <time>2021-12-05T14:51:53Z</time>
      </trkpt>
      <trkpt lat="42.62105" lon="2.41672">
        <ele>335</ele>
        <time>2021-12-05T14:51:54Z</time>
      </trkpt>
      <trkpt lat="42.62112" lon="2.41678">
        <ele>335</ele>
        <time>2021-12-05T14:51:55Z</time>
      </trkpt>
      <trkpt lat="42.62123" lon="2.4168">
        <ele>335</ele>
        <time>2021-12-05T14:51:57Z</time>
      </trkpt>
      <trkpt lat="42.62131" lon="2.41676">
        <ele>335</ele>
        <time>2021-12-05T14:51:59Z</time>
      </trkpt>
      <trkpt lat="42.62138" lon="2.41668">
        <ele>334</ele>
        <time>2021-12-05T14:52:00Z</time>
      </trkpt>
      <trkpt lat="42.62141" lon="2.41659">
        <ele>334</ele>
        <time>2021-12-05T14:52:02Z</time>
      </trkpt>
      <trkpt lat="42.62142" lon="2.41646">
        <ele>334</ele>
        <time>2021-12-05T14:52:03Z</time>
      </trkpt>
      <trkpt lat="42.62139" lon="2.41636">
        <ele>334</ele>
        <time>2021-12-05T14:52:05Z</time>
      </trkpt>
      <trkpt lat="42.62135" lon="2.41629">
        <ele>334</ele>
        <time>2021-12-05T14:52:06Z</time>
      </trkpt>
      <trkpt lat="42.62128" lon="2.41623">
        <ele>334</ele>
        <time>2021-12-05T14:52:07Z</time>
      </trkpt>
      <trkpt lat="42.62126" lon="2.41609">
        <ele>334</ele>
        <time>2021-12-05T14:52:09Z</time>
      </trkpt>
      <trkpt lat="42.6212" lon="2.41593">
        <ele>333</ele>
        <time>2021-12-05T14:52:12Z</time>
      </trkpt>
      <trkpt lat="42.62114" lon="2.41585">
        <ele>333</ele>
        <time>2021-12-05T14:52:13Z</time>
      </trkpt>
      <trkpt lat="42.62111" lon="2.41581">
        <ele>333</ele>
        <time>2021-12-05T14:52:14Z</time>
      </trkpt>
      <trkpt lat="42.62105" lon="2.41572">
        <ele>333</ele>
        <time>2021-12-05T14:52:15Z</time>
      </trkpt>
      <trkpt lat="42.62095" lon="2.41565">
        <ele>333</ele>
        <time>2021-12-05T14:52:17Z</time>
      </trkpt>
      <trkpt lat="42.62087" lon="2.41561">
        <ele>333</ele>
        <time>2021-12-05T14:52:19Z</time>
      </trkpt>
      <trkpt lat="42.62077" lon="2.41554">
        <ele>333</ele>
        <time>2021-12-05T14:52:21Z</time>
      </trkpt>
      <trkpt lat="42.62067" lon="2.41543">
        <ele>334</ele>
        <time>2021-12-05T14:52:23Z</time>
      </trkpt>
      <trkpt lat="42.62053" lon="2.41516">
        <ele>336</ele>
        <time>2021-12-05T14:52:27Z</time>
      </trkpt>
      <trkpt lat="42.62048" lon="2.41489">
        <ele>338</ele>
        <time>2021-12-05T14:52:31Z</time>
      </trkpt>
      <trkpt lat="42.62046" lon="2.41477">
        <ele>338</ele>
        <time>2021-12-05T14:52:33Z</time>
      </trkpt>
      <trkpt lat="42.62061" lon="2.41465">
        <ele>337</ele>
        <time>2021-12-05T14:52:36Z</time>
      </trkpt>
      <trkpt lat="42.62104" lon="2.41429">
        <ele>342</ele>
        <time>2021-12-05T14:52:45Z</time>
      </trkpt>
      <trkpt lat="42.6211" lon="2.41427">
        <ele>344</ele>
        <time>2021-12-05T14:52:46Z</time>
      </trkpt>
      <trkpt lat="42.62117" lon="2.41427">
        <ele>345</ele>
        <time>2021-12-05T14:52:47Z</time>
      </trkpt>
      <trkpt lat="42.62129" lon="2.41436">
        <ele>347</ele>
        <time>2021-12-05T14:52:50Z</time>
      </trkpt>
      <trkpt lat="42.62136" lon="2.41445">
        <ele>348</ele>
        <time>2021-12-05T14:52:51Z</time>
      </trkpt>
      <trkpt lat="42.62146" lon="2.41459">
        <ele>348</ele>
        <time>2021-12-05T14:52:54Z</time>
      </trkpt>
      <trkpt lat="42.62206" lon="2.41556">
        <ele>346</ele>
        <time>2021-12-05T14:53:10Z</time>
      </trkpt>
      <trkpt lat="42.62214" lon="2.41568">
        <ele>346</ele>
        <time>2021-12-05T14:53:13Z</time>
      </trkpt>
      <trkpt lat="42.62225" lon="2.41596">
        <ele>345</ele>
        <time>2021-12-05T14:53:17Z</time>
      </trkpt>
      <trkpt lat="42.62237" lon="2.41617">
        <ele>345</ele>
        <time>2021-12-05T14:53:20Z</time>
      </trkpt>
      <trkpt lat="42.6224" lon="2.41628">
        <ele>344</ele>
        <time>2021-12-05T14:53:22Z</time>
      </trkpt>
      <trkpt lat="42.62239" lon="2.41635">
        <ele>344</ele>
        <time>2021-12-05T14:53:23Z</time>
      </trkpt>
      <trkpt lat="42.6224" lon="2.41641">
        <ele>343</ele>
        <time>2021-12-05T14:53:24Z</time>
      </trkpt>
      <trkpt lat="42.62243" lon="2.41647">
        <ele>343</ele>
        <time>2021-12-05T14:53:24Z</time>
      </trkpt>
      <trkpt lat="42.62247" lon="2.4165">
        <ele>343</ele>
        <time>2021-12-05T14:53:25Z</time>
      </trkpt>
      <trkpt lat="42.6225" lon="2.41656">
        <ele>343</ele>
        <time>2021-12-05T14:53:26Z</time>
      </trkpt>
      <trkpt lat="42.62254" lon="2.41668">
        <ele>342</ele>
        <time>2021-12-05T14:53:28Z</time>
      </trkpt>
      <trkpt lat="42.62257" lon="2.41692">
        <ele>341</ele>
        <time>2021-12-05T14:53:31Z</time>
      </trkpt>
      <trkpt lat="42.62264" lon="2.41729">
        <ele>339</ele>
        <time>2021-12-05T14:53:36Z</time>
      </trkpt>
      <trkpt lat="42.62267" lon="2.4174">
        <ele>339</ele>
        <time>2021-12-05T14:53:38Z</time>
      </trkpt>
      <trkpt lat="42.62275" lon="2.4175">
        <ele>339</ele>
        <time>2021-12-05T14:53:40Z</time>
      </trkpt>
      <trkpt lat="42.62281" lon="2.41756">
        <ele>340</ele>
        <time>2021-12-05T14:53:41Z</time>
      </trkpt>
      <trkpt lat="42.62293" lon="2.41766">
        <ele>341</ele>
        <time>2021-12-05T14:53:43Z</time>
      </trkpt>
      <trkpt lat="42.62307" lon="2.41775">
        <ele>342</ele>
        <time>2021-12-05T14:53:46Z</time>
      </trkpt>
      <trkpt lat="42.6232" lon="2.41782">
        <ele>343</ele>
        <time>2021-12-05T14:53:49Z</time>
      </trkpt>
      <trkpt lat="42.6234" lon="2.41791">
        <ele>344</ele>
        <time>2021-12-05T14:53:52Z</time>
      </trkpt>
      <trkpt lat="42.62347" lon="2.41793">
        <ele>344</ele>
        <time>2021-12-05T14:53:54Z</time>
      </trkpt>
      <trkpt lat="42.62353" lon="2.41793">
        <ele>344</ele>
        <time>2021-12-05T14:53:55Z</time>
      </trkpt>
      <trkpt lat="42.62374" lon="2.41801">
        <ele>344</ele>
        <time>2021-12-05T14:53:59Z</time>
      </trkpt>
      <trkpt lat="42.62427" lon="2.41838">
        <ele>343</ele>
        <time>2021-12-05T14:54:09Z</time>
      </trkpt>
      <trkpt lat="42.62455" lon="2.41854">
        <ele>342</ele>
        <time>2021-12-05T14:54:15Z</time>
      </trkpt>
      <trkpt lat="42.62461" lon="2.41857">
        <ele>342</ele>
        <time>2021-12-05T14:54:16Z</time>
      </trkpt>
      <trkpt lat="42.62476" lon="2.41875">
        <ele>341</ele>
        <time>2021-12-05T14:54:19Z</time>
      </trkpt>
      <trkpt lat="42.62478" lon="2.41883">
        <ele>341</ele>
        <time>2021-12-05T14:54:20Z</time>
      </trkpt>
      <trkpt lat="42.62481" lon="2.41886">
        <ele>341</ele>
        <time>2021-12-05T14:54:21Z</time>
      </trkpt>
      <trkpt lat="42.62485" lon="2.41888">
        <ele>341</ele>
        <time>2021-12-05T14:54:22Z</time>
      </trkpt>
      <trkpt lat="42.62489" lon="2.41888">
        <ele>341</ele>
        <time>2021-12-05T14:54:23Z</time>
      </trkpt>
      <trkpt lat="42.62508" lon="2.41892">
        <ele>341</ele>
        <time>2021-12-05T14:54:26Z</time>
      </trkpt>
      <trkpt lat="42.62543" lon="2.4192">
        <ele>340</ele>
        <time>2021-12-05T14:54:33Z</time>
      </trkpt>
      <trkpt lat="42.62599" lon="2.41959">
        <ele>341</ele>
        <time>2021-12-05T14:54:44Z</time>
      </trkpt>
      <trkpt lat="42.62633" lon="2.41981">
        <ele>341</ele>
        <time>2021-12-05T14:54:51Z</time>
      </trkpt>
      <trkpt lat="42.62646" lon="2.41992">
        <ele>340</ele>
        <time>2021-12-05T14:54:54Z</time>
      </trkpt>
      <trkpt lat="42.62661" lon="2.42004">
        <ele>339</ele>
        <time>2021-12-05T14:54:57Z</time>
      </trkpt>
      <trkpt lat="42.6275" lon="2.42088">
        <ele>336</ele>
        <time>2021-12-05T14:55:16Z</time>
      </trkpt>
      <trkpt lat="42.62848" lon="2.42181">
        <ele>337</ele>
        <time>2021-12-05T14:55:37Z</time>
      </trkpt>
      <trkpt lat="42.62852" lon="2.42175">
        <ele>337</ele>
        <time>2021-12-05T14:55:39Z</time>
      </trkpt>
      <trkpt lat="42.62848" lon="2.42181">
        <ele>337</ele>
        <time>2021-12-05T14:55:40Z</time>
      </trkpt>
      <trkpt lat="42.62881" lon="2.42213">
        <ele>338</ele>
        <time>2021-12-05T14:55:47Z</time>
      </trkpt>
      <trkpt lat="42.62884" lon="2.42217">
        <ele>338</ele>
        <time>2021-12-05T14:55:48Z</time>
      </trkpt>
      <trkpt lat="42.62902" lon="2.42233">
        <ele>338</ele>
        <time>2021-12-05T14:55:51Z</time>
      </trkpt>
      <trkpt lat="42.62911" lon="2.42244">
        <ele>337</ele>
        <time>2021-12-05T14:55:54Z</time>
      </trkpt>
      <trkpt lat="42.62969" lon="2.42324">
        <ele>337</ele>
        <time>2021-12-05T14:56:08Z</time>
      </trkpt>
      <trkpt lat="42.62995" lon="2.42357">
        <ele>336</ele>
        <time>2021-12-05T14:56:15Z</time>
      </trkpt>
      <trkpt lat="42.63003" lon="2.42366">
        <ele>337</ele>
        <time>2021-12-05T14:56:16Z</time>
      </trkpt>
      <trkpt lat="42.63028" lon="2.42402">
        <ele>339</ele>
        <time>2021-12-05T14:56:23Z</time>
      </trkpt>
      <trkpt lat="42.6305" lon="2.42434">
        <ele>338</ele>
        <time>2021-12-05T14:56:29Z</time>
      </trkpt>
      <trkpt lat="42.63111" lon="2.4252">
        <ele>334</ele>
        <time>2021-12-05T14:56:44Z</time>
      </trkpt>
      <trkpt lat="42.63148" lon="2.42571">
        <ele>333</ele>
        <time>2021-12-05T14:56:54Z</time>
      </trkpt>
      <trkpt lat="42.63165" lon="2.42596">
        <ele>332</ele>
        <time>2021-12-05T14:56:58Z</time>
      </trkpt>
      <trkpt lat="42.63174" lon="2.42606">
        <ele>331</ele>
        <time>2021-12-05T14:57:00Z</time>
      </trkpt>
      <trkpt lat="42.6318" lon="2.4261">
        <ele>331</ele>
        <time>2021-12-05T14:57:01Z</time>
      </trkpt>
      <trkpt lat="42.63188" lon="2.42609">
        <ele>330</ele>
        <time>2021-12-05T14:57:03Z</time>
      </trkpt>
      <trkpt lat="42.63198" lon="2.42606">
        <ele>330</ele>
        <time>2021-12-05T14:57:05Z</time>
      </trkpt>
      <trkpt lat="42.63206" lon="2.42596">
        <ele>330</ele>
        <time>2021-12-05T14:57:07Z</time>
      </trkpt>
      <trkpt lat="42.63215" lon="2.4257">
        <ele>332</ele>
        <time>2021-12-05T14:57:10Z</time>
      </trkpt>
      <trkpt lat="42.6323" lon="2.42522">
        <ele>334</ele>
        <time>2021-12-05T14:57:17Z</time>
      </trkpt>
      <trkpt lat="42.63239" lon="2.42492">
        <ele>335</ele>
        <time>2021-12-05T14:57:21Z</time>
      </trkpt>
      <trkpt lat="42.6325" lon="2.42453">
        <ele>336</ele>
        <time>2021-12-05T14:57:27Z</time>
      </trkpt>
      <trkpt lat="42.63251" lon="2.42443">
        <ele>336</ele>
        <time>2021-12-05T14:57:28Z</time>
      </trkpt>
      <trkpt lat="42.63249" lon="2.42428">
        <ele>337</ele>
        <time>2021-12-05T14:57:30Z</time>
      </trkpt>
      <trkpt lat="42.63245" lon="2.42414">
        <ele>338</ele>
        <time>2021-12-05T14:57:32Z</time>
      </trkpt>
      <trkpt lat="42.63228" lon="2.42372">
        <ele>342</ele>
        <time>2021-12-05T14:57:38Z</time>
      </trkpt>
      <trkpt lat="42.63221" lon="2.42342">
        <ele>344</ele>
        <time>2021-12-05T14:57:43Z</time>
      </trkpt>
      <trkpt lat="42.63213" lon="2.42275">
        <ele>347</ele>
        <time>2021-12-05T14:57:51Z</time>
      </trkpt>
      <trkpt lat="42.63213" lon="2.42247">
        <ele>348</ele>
        <time>2021-12-05T14:57:55Z</time>
      </trkpt>
      <trkpt lat="42.63214" lon="2.42233">
        <ele>347</ele>
        <time>2021-12-05T14:57:57Z</time>
      </trkpt>
      <trkpt lat="42.63217" lon="2.42219">
        <ele>346</ele>
        <time>2021-12-05T14:57:59Z</time>
      </trkpt>
      <trkpt lat="42.63221" lon="2.42212">
        <ele>344</ele>
        <time>2021-12-05T14:58:00Z</time>
      </trkpt>
      <trkpt lat="42.63226" lon="2.42208">
        <ele>342</ele>
        <time>2021-12-05T14:58:01Z</time>
      </trkpt>
      <trkpt lat="42.63233" lon="2.42205">
        <ele>339</ele>
        <time>2021-12-05T14:58:02Z</time>
      </trkpt>
      <trkpt lat="42.63273" lon="2.42199">
        <ele>333</ele>
        <time>2021-12-05T14:58:09Z</time>
      </trkpt>
      <trkpt lat="42.63287" lon="2.42196">
        <ele>334</ele>
        <time>2021-12-05T14:58:12Z</time>
      </trkpt>
      <trkpt lat="42.63293" lon="2.42194">
        <ele>334</ele>
        <time>2021-12-05T14:58:13Z</time>
      </trkpt>
      <trkpt lat="42.63315" lon="2.42185">
        <ele>336</ele>
        <time>2021-12-05T14:58:17Z</time>
      </trkpt>
      <trkpt lat="42.63326" lon="2.4218">
        <ele>336</ele>
        <time>2021-12-05T14:58:19Z</time>
      </trkpt>
      <trkpt lat="42.63336" lon="2.4217">
        <ele>337</ele>
        <time>2021-12-05T14:58:21Z</time>
      </trkpt>
      <trkpt lat="42.63347" lon="2.42157">
        <ele>337</ele>
        <time>2021-12-05T14:58:24Z</time>
      </trkpt>
      <trkpt lat="42.63357" lon="2.4214">
        <ele>337</ele>
        <time>2021-12-05T14:58:27Z</time>
      </trkpt>
      <trkpt lat="42.63364" lon="2.42126">
        <ele>337</ele>
        <time>2021-12-05T14:58:29Z</time>
      </trkpt>
      <trkpt lat="42.63368" lon="2.4212">
        <ele>337</ele>
        <time>2021-12-05T14:58:30Z</time>
      </trkpt>
      <trkpt lat="42.63372" lon="2.42114">
        <ele>337</ele>
        <time>2021-12-05T14:58:31Z</time>
      </trkpt>
      <trkpt lat="42.63403" lon="2.42071">
        <ele>338</ele>
        <time>2021-12-05T14:58:39Z</time>
      </trkpt>
      <trkpt lat="42.63407" lon="2.42065">
        <ele>339</ele>
        <time>2021-12-05T14:58:40Z</time>
      </trkpt>
      <trkpt lat="42.63421" lon="2.42042">
        <ele>340</ele>
        <time>2021-12-05T14:58:44Z</time>
      </trkpt>
      <trkpt lat="42.63434" lon="2.42021">
        <ele>343</ele>
        <time>2021-12-05T14:58:48Z</time>
      </trkpt>
      <trkpt lat="42.63443" lon="2.42008">
        <ele>344</ele>
        <time>2021-12-05T14:58:50Z</time>
      </trkpt>
      <trkpt lat="42.63445" lon="2.42007">
        <ele>344</ele>
        <time>2021-12-05T14:58:50Z</time>
      </trkpt>
      <trkpt lat="42.63456" lon="2.4201">
        <ele>345</ele>
        <time>2021-12-05T14:58:52Z</time>
      </trkpt>
      <trkpt lat="42.63468" lon="2.4202">
        <ele>347</ele>
        <time>2021-12-05T14:58:55Z</time>
      </trkpt>
      <trkpt lat="42.63474" lon="2.42027">
        <ele>347</ele>
        <time>2021-12-05T14:58:56Z</time>
      </trkpt>
      <trkpt lat="42.6348" lon="2.42038">
        <ele>347</ele>
        <time>2021-12-05T14:58:58Z</time>
      </trkpt>
      <trkpt lat="42.63483" lon="2.42047">
        <ele>347</ele>
        <time>2021-12-05T14:58:59Z</time>
      </trkpt>
      <trkpt lat="42.63484" lon="2.4206">
        <ele>347</ele>
        <time>2021-12-05T14:59:01Z</time>
      </trkpt>
      <trkpt lat="42.63484" lon="2.42064">
        <ele>347</ele>
        <time>2021-12-05T14:59:02Z</time>
      </trkpt>
      <trkpt lat="42.63482" lon="2.42091">
        <ele>346</ele>
        <time>2021-12-05T14:59:05Z</time>
      </trkpt>
      <trkpt lat="42.63478" lon="2.4216">
        <ele>346</ele>
        <time>2021-12-05T14:59:14Z</time>
      </trkpt>
      <trkpt lat="42.63475" lon="2.42193">
        <ele>345</ele>
        <time>2021-12-05T14:59:19Z</time>
      </trkpt>
      <trkpt lat="42.63469" lon="2.42223">
        <ele>343</ele>
        <time>2021-12-05T14:59:23Z</time>
      </trkpt>
      <trkpt lat="42.63467" lon="2.42237">
        <ele>342</ele>
        <time>2021-12-05T14:59:25Z</time>
      </trkpt>
      <trkpt lat="42.6345" lon="2.42289">
        <ele>338</ele>
        <time>2021-12-05T14:59:32Z</time>
      </trkpt>
      <trkpt lat="42.63448" lon="2.423">
        <ele>337</ele>
        <time>2021-12-05T14:59:33Z</time>
      </trkpt>
      <trkpt lat="42.63448" lon="2.42313">
        <ele>336</ele>
        <time>2021-12-05T14:59:35Z</time>
      </trkpt>
      <trkpt lat="42.63451" lon="2.42325">
        <ele>336</ele>
        <time>2021-12-05T14:59:37Z</time>
      </trkpt>
      <trkpt lat="42.63457" lon="2.42343">
        <ele>335</ele>
        <time>2021-12-05T14:59:39Z</time>
      </trkpt>
      <trkpt lat="42.63466" lon="2.42382">
        <ele>334</ele>
        <time>2021-12-05T14:59:45Z</time>
      </trkpt>
      <trkpt lat="42.63472" lon="2.42394">
        <ele>334</ele>
        <time>2021-12-05T14:59:47Z</time>
      </trkpt>
      <trkpt lat="42.63476" lon="2.42404">
        <ele>334</ele>
        <time>2021-12-05T14:59:48Z</time>
      </trkpt>
      <trkpt lat="42.63477" lon="2.42416">
        <ele>333</ele>
        <time>2021-12-05T14:59:50Z</time>
      </trkpt>
      <trkpt lat="42.63473" lon="2.42426">
        <ele>333</ele>
        <time>2021-12-05T14:59:51Z</time>
      </trkpt>
      <trkpt lat="42.63462" lon="2.42435">
        <ele>332</ele>
        <time>2021-12-05T14:59:54Z</time>
      </trkpt>
      <trkpt lat="42.63449" lon="2.42442">
        <ele>330</ele>
        <time>2021-12-05T14:59:56Z</time>
      </trkpt>
      <trkpt lat="42.63444" lon="2.42449">
        <ele>329</ele>
        <time>2021-12-05T14:59:57Z</time>
      </trkpt>
      <trkpt lat="42.63442" lon="2.42467">
        <ele>329</ele>
        <time>2021-12-05T15:00:00Z</time>
      </trkpt>
      <trkpt lat="42.63451" lon="2.42505">
        <ele>333</ele>
        <time>2021-12-05T15:00:05Z</time>
      </trkpt>
      <trkpt lat="42.63458" lon="2.42552">
        <ele>336</ele>
        <time>2021-12-05T15:00:11Z</time>
      </trkpt>
      <trkpt lat="42.63459" lon="2.42572">
        <ele>336</ele>
        <time>2021-12-05T15:00:14Z</time>
      </trkpt>
      <trkpt lat="42.63445" lon="2.4263">
        <ele>334</ele>
        <time>2021-12-05T15:00:22Z</time>
      </trkpt>
      <trkpt lat="42.6344" lon="2.42659">
        <ele>333</ele>
        <time>2021-12-05T15:00:26Z</time>
      </trkpt>
      <trkpt lat="42.63435" lon="2.42676">
        <ele>333</ele>
        <time>2021-12-05T15:00:28Z</time>
      </trkpt>
      <trkpt lat="42.6343" lon="2.42699">
        <ele>333</ele>
        <time>2021-12-05T15:00:31Z</time>
      </trkpt>
      <trkpt lat="42.63429" lon="2.42716">
        <ele>334</ele>
        <time>2021-12-05T15:00:33Z</time>
      </trkpt>
      <trkpt lat="42.6343" lon="2.42755">
        <ele>335</ele>
        <time>2021-12-05T15:00:39Z</time>
      </trkpt>
      <trkpt lat="42.63448" lon="2.42853">
        <ele>334</ele>
        <time>2021-12-05T15:00:52Z</time>
      </trkpt>
      <trkpt lat="42.63456" lon="2.42916">
        <ele>332</ele>
        <time>2021-12-05T15:01:00Z</time>
      </trkpt>
      <trkpt lat="42.63472" lon="2.42968">
        <ele>332</ele>
        <time>2021-12-05T15:01:08Z</time>
      </trkpt>
      <trkpt lat="42.63489" lon="2.4301">
        <ele>333</ele>
        <time>2021-12-05T15:01:14Z</time>
      </trkpt>
      <trkpt lat="42.63501" lon="2.43032">
        <ele>334</ele>
        <time>2021-12-05T15:01:17Z</time>
      </trkpt>
      <trkpt lat="42.63531" lon="2.43073">
        <ele>335</ele>
        <time>2021-12-05T15:01:25Z</time>
      </trkpt>
      <trkpt lat="42.63544" lon="2.43099">
        <ele>335</ele>
        <time>2021-12-05T15:01:29Z</time>
      </trkpt>
      <trkpt lat="42.63574" lon="2.43209">
        <ele>333</ele>
        <time>2021-12-05T15:01:44Z</time>
      </trkpt>
      <trkpt lat="42.63583" lon="2.43228">
        <ele>334</ele>
        <time>2021-12-05T15:01:47Z</time>
      </trkpt>
      <trkpt lat="42.63633" lon="2.43291">
        <ele>334</ele>
        <time>2021-12-05T15:02:00Z</time>
      </trkpt>
      <trkpt lat="42.6364" lon="2.433">
        <ele>333</ele>
        <time>2021-12-05T15:02:01Z</time>
      </trkpt>
      <trkpt lat="42.63644" lon="2.43307">
        <ele>333</ele>
        <time>2021-12-05T15:02:02Z</time>
      </trkpt>
      <trkpt lat="42.63648" lon="2.4332">
        <ele>332</ele>
        <time>2021-12-05T15:02:04Z</time>
      </trkpt>
      <trkpt lat="42.63648" lon="2.43334">
        <ele>331</ele>
        <time>2021-12-05T15:02:06Z</time>
      </trkpt>
      <trkpt lat="42.6364" lon="2.43363">
        <ele>330</ele>
        <time>2021-12-05T15:02:10Z</time>
      </trkpt>
      <trkpt lat="42.63639" lon="2.43374">
        <ele>329</ele>
        <time>2021-12-05T15:02:12Z</time>
      </trkpt>
      <trkpt lat="42.63643" lon="2.4339">
        <ele>329</ele>
        <time>2021-12-05T15:02:14Z</time>
      </trkpt>
      <trkpt lat="42.63657" lon="2.43428">
        <ele>330</ele>
        <time>2021-12-05T15:02:19Z</time>
      </trkpt>
      <trkpt lat="42.63665" lon="2.4349">
        <ele>329</ele>
        <time>2021-12-05T15:02:28Z</time>
      </trkpt>
      <trkpt lat="42.63676" lon="2.43512">
        <ele>328</ele>
        <time>2021-12-05T15:02:31Z</time>
      </trkpt>
      <trkpt lat="42.63725" lon="2.43596">
        <ele>326</ele>
        <time>2021-12-05T15:02:45Z</time>
      </trkpt>
      <trkpt lat="42.63734" lon="2.43616">
        <ele>326</ele>
        <time>2021-12-05T15:02:48Z</time>
      </trkpt>
      <trkpt lat="42.63753" lon="2.43669">
        <ele>326</ele>
        <time>2021-12-05T15:02:56Z</time>
      </trkpt>
      <trkpt lat="42.63758" lon="2.43691">
        <ele>326</ele>
        <time>2021-12-05T15:02:59Z</time>
      </trkpt>
      <trkpt lat="42.63769" lon="2.43766">
        <ele>324</ele>
        <time>2021-12-05T15:03:09Z</time>
      </trkpt>
      <trkpt lat="42.63779" lon="2.43819">
        <ele>324</ele>
        <time>2021-12-05T15:03:16Z</time>
      </trkpt>
      <trkpt lat="42.63801" lon="2.43896">
        <ele>323</ele>
        <time>2021-12-05T15:03:27Z</time>
      </trkpt>
      <trkpt lat="42.63865" lon="2.44142">
        <ele>318</ele>
        <time>2021-12-05T15:04:01Z</time>
      </trkpt>
      <trkpt lat="42.63875" lon="2.44195">
        <ele>317</ele>
        <time>2021-12-05T15:04:08Z</time>
      </trkpt>
      <trkpt lat="42.63886" lon="2.44259">
        <ele>315</ele>
        <time>2021-12-05T15:04:17Z</time>
      </trkpt>
      <trkpt lat="42.63896" lon="2.44285">
        <ele>314</ele>
        <time>2021-12-05T15:04:21Z</time>
      </trkpt>
      <trkpt lat="42.63914" lon="2.44312">
        <ele>314</ele>
        <time>2021-12-05T15:04:25Z</time>
      </trkpt>
      <trkpt lat="42.6392" lon="2.44326">
        <ele>313</ele>
        <time>2021-12-05T15:04:28Z</time>
      </trkpt>
      <trkpt lat="42.63923" lon="2.44333">
        <ele>314</ele>
        <time>2021-12-05T15:04:29Z</time>
      </trkpt>
      <trkpt lat="42.63924" lon="2.44361">
        <ele>313</ele>
        <time>2021-12-05T15:04:32Z</time>
      </trkpt>
      <trkpt lat="42.63924" lon="2.44378">
        <ele>313</ele>
        <time>2021-12-05T15:04:34Z</time>
      </trkpt>
      <trkpt lat="42.63923" lon="2.44392">
        <ele>312</ele>
        <time>2021-12-05T15:04:36Z</time>
      </trkpt>
      <trkpt lat="42.63911" lon="2.44422">
        <ele>309</ele>
        <time>2021-12-05T15:04:41Z</time>
      </trkpt>
      <trkpt lat="42.63909" lon="2.44435">
        <ele>308</ele>
        <time>2021-12-05T15:04:43Z</time>
      </trkpt>
      <trkpt lat="42.63909" lon="2.44446">
        <ele>308</ele>
        <time>2021-12-05T15:04:44Z</time>
      </trkpt>
      <trkpt lat="42.63914" lon="2.44472">
        <ele>307</ele>
        <time>2021-12-05T15:04:47Z</time>
      </trkpt>
      <trkpt lat="42.63924" lon="2.44512">
        <ele>306</ele>
        <time>2021-12-05T15:04:53Z</time>
      </trkpt>
      <trkpt lat="42.63926" lon="2.44568">
        <ele>304</ele>
        <time>2021-12-05T15:05:00Z</time>
      </trkpt>
      <trkpt lat="42.6393" lon="2.44587">
        <ele>303</ele>
        <time>2021-12-05T15:05:03Z</time>
      </trkpt>
      <trkpt lat="42.63936" lon="2.44602">
        <ele>303</ele>
        <time>2021-12-05T15:05:05Z</time>
      </trkpt>
      <trkpt lat="42.63942" lon="2.44615">
        <ele>304</ele>
        <time>2021-12-05T15:05:07Z</time>
      </trkpt>
      <trkpt lat="42.63944" lon="2.44625">
        <ele>304</ele>
        <time>2021-12-05T15:05:09Z</time>
      </trkpt>
      <trkpt lat="42.63941" lon="2.4465">
        <ele>303</ele>
        <time>2021-12-05T15:05:12Z</time>
      </trkpt>
      <trkpt lat="42.63924" lon="2.44721">
        <ele>302</ele>
        <time>2021-12-05T15:05:22Z</time>
      </trkpt>
      <trkpt lat="42.63921" lon="2.44731">
        <ele>301</ele>
        <time>2021-12-05T15:05:23Z</time>
      </trkpt>
      <trkpt lat="42.63913" lon="2.44741">
        <ele>300</ele>
        <time>2021-12-05T15:05:25Z</time>
      </trkpt>
      <trkpt lat="42.63882" lon="2.44763">
        <ele>297</ele>
        <time>2021-12-05T15:05:31Z</time>
      </trkpt>
      <trkpt lat="42.63875" lon="2.44771">
        <ele>296</ele>
        <time>2021-12-05T15:05:33Z</time>
      </trkpt>
      <trkpt lat="42.63868" lon="2.44785">
        <ele>295</ele>
        <time>2021-12-05T15:05:35Z</time>
      </trkpt>
      <trkpt lat="42.63851" lon="2.44844">
        <ele>291</ele>
        <time>2021-12-05T15:05:43Z</time>
      </trkpt>
      <trkpt lat="42.63846" lon="2.44867">
        <ele>290</ele>
        <time>2021-12-05T15:05:46Z</time>
      </trkpt>
      <trkpt lat="42.63845" lon="2.44881">
        <ele>289</ele>
        <time>2021-12-05T15:05:48Z</time>
      </trkpt>
      <trkpt lat="42.63846" lon="2.44895">
        <ele>289</ele>
        <time>2021-12-05T15:05:50Z</time>
      </trkpt>
      <trkpt lat="42.63857" lon="2.44938">
        <ele>290</ele>
        <time>2021-12-05T15:05:56Z</time>
      </trkpt>
      <trkpt lat="42.63868" lon="2.44968">
        <ele>291</ele>
        <time>2021-12-05T15:06:01Z</time>
      </trkpt>
      <trkpt lat="42.63884" lon="2.44999">
        <ele>293</ele>
        <time>2021-12-05T15:06:05Z</time>
      </trkpt>
      <trkpt lat="42.63934" lon="2.4507">
        <ele>294</ele>
        <time>2021-12-05T15:06:18Z</time>
      </trkpt>
      <trkpt lat="42.64033" lon="2.45201">
        <ele>302</ele>
        <time>2021-12-05T15:06:43Z</time>
      </trkpt>
      <trkpt lat="42.64041" lon="2.45215">
        <ele>304</ele>
        <time>2021-12-05T15:06:45Z</time>
      </trkpt>
      <trkpt lat="42.64045" lon="2.45226">
        <ele>305</ele>
        <time>2021-12-05T15:06:47Z</time>
      </trkpt>
      <trkpt lat="42.64048" lon="2.45246">
        <ele>306</ele>
        <time>2021-12-05T15:06:50Z</time>
      </trkpt>
      <trkpt lat="42.64046" lon="2.45258">
        <ele>306</ele>
        <time>2021-12-05T15:06:51Z</time>
      </trkpt>
      <trkpt lat="42.64035" lon="2.45276">
        <ele>305</ele>
        <time>2021-12-05T15:06:54Z</time>
      </trkpt>
      <trkpt lat="42.64027" lon="2.45292">
        <ele>304</ele>
        <time>2021-12-05T15:06:57Z</time>
      </trkpt>
      <trkpt lat="42.64022" lon="2.45309">
        <ele>304</ele>
        <time>2021-12-05T15:06:59Z</time>
      </trkpt>
      <trkpt lat="42.64022" lon="2.45332">
        <ele>306</ele>
        <time>2021-12-05T15:07:02Z</time>
      </trkpt>
      <trkpt lat="42.64027" lon="2.45347">
        <ele>307</ele>
        <time>2021-12-05T15:07:04Z</time>
      </trkpt>
      <trkpt lat="42.64053" lon="2.45403">
        <ele>310</ele>
        <time>2021-12-05T15:07:13Z</time>
      </trkpt>
      <trkpt lat="42.64096" lon="2.45471">
        <ele>314</ele>
        <time>2021-12-05T15:07:25Z</time>
      </trkpt>
      <trkpt lat="42.641" lon="2.45486">
        <ele>314</ele>
        <time>2021-12-05T15:07:27Z</time>
      </trkpt>
      <trkpt lat="42.6411" lon="2.45505">
        <ele>315</ele>
        <time>2021-12-05T15:07:30Z</time>
      </trkpt>
      <trkpt lat="42.64117" lon="2.45529">
        <ele>314</ele>
        <time>2021-12-05T15:07:33Z</time>
      </trkpt>
      <trkpt lat="42.64124" lon="2.45558">
        <ele>313</ele>
        <time>2021-12-05T15:07:37Z</time>
      </trkpt>
      <trkpt lat="42.64136" lon="2.45597">
        <ele>312</ele>
        <time>2021-12-05T15:07:43Z</time>
      </trkpt>
      <trkpt lat="42.64163" lon="2.45675">
        <ele>310</ele>
        <time>2021-12-05T15:07:54Z</time>
      </trkpt>
      <trkpt lat="42.64182" lon="2.45742">
        <ele>305</ele>
        <time>2021-12-05T15:08:03Z</time>
      </trkpt>
      <trkpt lat="42.64194" lon="2.45771">
        <ele>307</ele>
        <time>2021-12-05T15:08:08Z</time>
      </trkpt>
      <trkpt lat="42.64199" lon="2.45791">
        <ele>308</ele>
        <time>2021-12-05T15:08:11Z</time>
      </trkpt>
      <trkpt lat="42.642" lon="2.45807">
        <ele>308</ele>
        <time>2021-12-05T15:08:13Z</time>
      </trkpt>
      <trkpt lat="42.64194" lon="2.45837">
        <ele>308</ele>
        <time>2021-12-05T15:08:17Z</time>
      </trkpt>
      <trkpt lat="42.64163" lon="2.4589">
        <ele>301</ele>
        <time>2021-12-05T15:08:26Z</time>
      </trkpt>
      <trkpt lat="42.6416" lon="2.45898">
        <ele>300</ele>
        <time>2021-12-05T15:08:27Z</time>
      </trkpt>
      <trkpt lat="42.64158" lon="2.45931">
        <ele>299</ele>
        <time>2021-12-05T15:08:31Z</time>
      </trkpt>
      <trkpt lat="42.64159" lon="2.4596">
        <ele>299</ele>
        <time>2021-12-05T15:08:35Z</time>
      </trkpt>
      <trkpt lat="42.64159" lon="2.45983">
        <ele>299</ele>
        <time>2021-12-05T15:08:38Z</time>
      </trkpt>
      <trkpt lat="42.64158" lon="2.46006">
        <ele>299</ele>
        <time>2021-12-05T15:08:41Z</time>
      </trkpt>
      <trkpt lat="42.64155" lon="2.46014">
        <ele>299</ele>
        <time>2021-12-05T15:08:42Z</time>
      </trkpt>
      <trkpt lat="42.6414" lon="2.4604">
        <ele>298</ele>
        <time>2021-12-05T15:08:46Z</time>
      </trkpt>
      <trkpt lat="42.64136" lon="2.46054">
        <ele>298</ele>
        <time>2021-12-05T15:08:48Z</time>
      </trkpt>
      <trkpt lat="42.64138" lon="2.46074">
        <ele>298</ele>
        <time>2021-12-05T15:08:51Z</time>
      </trkpt>
      <trkpt lat="42.64153" lon="2.46144">
        <ele>298</ele>
        <time>2021-12-05T15:09:01Z</time>
      </trkpt>
      <trkpt lat="42.64159" lon="2.46182">
        <ele>297</ele>
        <time>2021-12-05T15:09:06Z</time>
      </trkpt>
      <trkpt lat="42.64171" lon="2.46468">
        <ele>294</ele>
        <time>2021-12-05T15:09:43Z</time>
      </trkpt>
      <trkpt lat="42.64178" lon="2.46514">
        <ele>296</ele>
        <time>2021-12-05T15:09:49Z</time>
      </trkpt>
      <trkpt lat="42.64178" lon="2.46552">
        <ele>295</ele>
        <time>2021-12-05T15:09:54Z</time>
      </trkpt>
      <trkpt lat="42.64174" lon="2.46627">
        <ele>291</ele>
        <time>2021-12-05T15:10:04Z</time>
      </trkpt>
      <trkpt lat="42.64173" lon="2.46763">
        <ele>289</ele>
        <time>2021-12-05T15:10:22Z</time>
      </trkpt>
      <trkpt lat="42.64181" lon="2.46884">
        <ele>289</ele>
        <time>2021-12-05T15:10:38Z</time>
      </trkpt>
      <trkpt lat="42.64179" lon="2.46911">
        <ele>289</ele>
        <time>2021-12-05T15:10:41Z</time>
      </trkpt>
      <trkpt lat="42.64175" lon="2.46945">
        <ele>287</ele>
        <time>2021-12-05T15:10:46Z</time>
      </trkpt>
      <trkpt lat="42.64164" lon="2.46978">
        <ele>283</ele>
        <time>2021-12-05T15:10:51Z</time>
      </trkpt>
      <trkpt lat="42.64143" lon="2.4701">
        <ele>281</ele>
        <time>2021-12-05T15:10:56Z</time>
      </trkpt>
      <trkpt lat="42.64139" lon="2.47028">
        <ele>281</ele>
        <time>2021-12-05T15:10:59Z</time>
      </trkpt>
      <trkpt lat="42.6414" lon="2.47051">
        <ele>281</ele>
        <time>2021-12-05T15:11:02Z</time>
      </trkpt>
      <trkpt lat="42.64147" lon="2.47129">
        <ele>283</ele>
        <time>2021-12-05T15:11:12Z</time>
      </trkpt>
      <trkpt lat="42.6415" lon="2.47216">
        <ele>283</ele>
        <time>2021-12-05T15:11:23Z</time>
      </trkpt>
      <trkpt lat="42.64152" lon="2.47256">
        <ele>282</ele>
        <time>2021-12-05T15:11:29Z</time>
      </trkpt>
      <trkpt lat="42.64164" lon="2.47344">
        <ele>281</ele>
        <time>2021-12-05T15:11:40Z</time>
      </trkpt>
      <trkpt lat="42.64186" lon="2.47453">
        <ele>282</ele>
        <time>2021-12-05T15:11:55Z</time>
      </trkpt>
      <trkpt lat="42.64194" lon="2.47475">
        <ele>282</ele>
        <time>2021-12-05T15:11:58Z</time>
      </trkpt>
      <trkpt lat="42.6421" lon="2.47512">
        <ele>282</ele>
        <time>2021-12-05T15:12:04Z</time>
      </trkpt>
      <trkpt lat="42.64217" lon="2.47545">
        <ele>281</ele>
        <time>2021-12-05T15:12:08Z</time>
      </trkpt>
      <trkpt lat="42.64219" lon="2.47556">
        <ele>280</ele>
        <time>2021-12-05T15:12:10Z</time>
      </trkpt>
      <trkpt lat="42.64225" lon="2.47584">
        <ele>279</ele>
        <time>2021-12-05T15:12:14Z</time>
      </trkpt>
      <trkpt lat="42.64239" lon="2.47627">
        <ele>279</ele>
        <time>2021-12-05T15:12:20Z</time>
      </trkpt>
      <trkpt lat="42.6425" lon="2.47652">
        <ele>279</ele>
        <time>2021-12-05T15:12:24Z</time>
      </trkpt>
      <trkpt lat="42.64259" lon="2.47682">
        <ele>282</ele>
        <time>2021-12-05T15:12:28Z</time>
      </trkpt>
      <trkpt lat="42.64272" lon="2.47743">
        <ele>287</ele>
        <time>2021-12-05T15:12:36Z</time>
      </trkpt>
      <trkpt lat="42.64306" lon="2.47923">
        <ele>291</ele>
        <time>2021-12-05T15:13:01Z</time>
      </trkpt>
      <trkpt lat="42.64319" lon="2.4798">
        <ele>282</ele>
        <time>2021-12-05T15:13:08Z</time>
      </trkpt>
      <trkpt lat="42.64333" lon="2.48026">
        <ele>276</ele>
        <time>2021-12-05T15:13:15Z</time>
      </trkpt>
      <trkpt lat="42.64344" lon="2.48041">
        <ele>279</ele>
        <time>2021-12-05T15:13:18Z</time>
      </trkpt>
      <trkpt lat="42.64355" lon="2.48052">
        <ele>282</ele>
        <time>2021-12-05T15:13:20Z</time>
      </trkpt>
      <trkpt lat="42.64373" lon="2.48078">
        <ele>285</ele>
        <time>2021-12-05T15:13:25Z</time>
      </trkpt>
      <trkpt lat="42.64386" lon="2.48089">
        <ele>288</ele>
        <time>2021-12-05T15:13:28Z</time>
      </trkpt>
      <trkpt lat="42.64394" lon="2.48099">
        <ele>290</ele>
        <time>2021-12-05T15:13:29Z</time>
      </trkpt>
      <trkpt lat="42.64436" lon="2.48185">
        <ele>294</ele>
        <time>2021-12-05T15:13:43Z</time>
      </trkpt>
      <trkpt lat="42.64442" lon="2.48208">
        <ele>293</ele>
        <time>2021-12-05T15:13:46Z</time>
      </trkpt>
      <trkpt lat="42.64447" lon="2.48243">
        <ele>289</ele>
        <time>2021-12-05T15:13:51Z</time>
      </trkpt>
      <trkpt lat="42.64448" lon="2.4828">
        <ele>286</ele>
        <time>2021-12-05T15:13:56Z</time>
      </trkpt>
      <trkpt lat="42.6444" lon="2.48314">
        <ele>279</ele>
        <time>2021-12-05T15:14:00Z</time>
      </trkpt>
      <trkpt lat="42.6444" lon="2.48332">
        <ele>277</ele>
        <time>2021-12-05T15:14:03Z</time>
      </trkpt>
      <trkpt lat="42.64461" lon="2.48435">
        <ele>276</ele>
        <time>2021-12-05T15:14:17Z</time>
      </trkpt>
      <trkpt lat="42.64497" lon="2.48569">
        <ele>267</ele>
        <time>2021-12-05T15:14:35Z</time>
      </trkpt>
      <trkpt lat="42.64529" lon="2.48634">
        <ele>265</ele>
        <time>2021-12-05T15:14:46Z</time>
      </trkpt>
      <trkpt lat="42.64556" lon="2.48661">
        <ele>266</ele>
        <time>2021-12-05T15:14:52Z</time>
      </trkpt>
      <trkpt lat="42.64591" lon="2.48714">
        <ele>263</ele>
        <time>2021-12-05T15:15:01Z</time>
      </trkpt>
      <trkpt lat="42.64601" lon="2.48736">
        <ele>261</ele>
        <time>2021-12-05T15:15:04Z</time>
      </trkpt>
      <trkpt lat="42.64603" lon="2.48746">
        <ele>260</ele>
        <time>2021-12-05T15:15:06Z</time>
      </trkpt>
      <trkpt lat="42.64601" lon="2.48756">
        <ele>259</ele>
        <time>2021-12-05T15:15:07Z</time>
      </trkpt>
      <trkpt lat="42.64589" lon="2.48778">
        <ele>256</ele>
        <time>2021-12-05T15:15:11Z</time>
      </trkpt>
      <trkpt lat="42.64587" lon="2.48792">
        <ele>255</ele>
        <time>2021-12-05T15:15:12Z</time>
      </trkpt>
      <trkpt lat="42.64588" lon="2.48809">
        <ele>255</ele>
        <time>2021-12-05T15:15:15Z</time>
      </trkpt>
      <trkpt lat="42.64592" lon="2.48822">
        <ele>256</ele>
        <time>2021-12-05T15:15:17Z</time>
      </trkpt>
      <trkpt lat="42.64638" lon="2.48874">
        <ele>264</ele>
        <time>2021-12-05T15:15:27Z</time>
      </trkpt>
      <trkpt lat="42.6465" lon="2.48894">
        <ele>265</ele>
        <time>2021-12-05T15:15:31Z</time>
      </trkpt>
      <trkpt lat="42.64662" lon="2.48925">
        <ele>264</ele>
        <time>2021-12-05T15:15:35Z</time>
      </trkpt>
      <trkpt lat="42.64668" lon="2.48931">
        <ele>265</ele>
        <time>2021-12-05T15:15:36Z</time>
      </trkpt>
      <trkpt lat="42.64677" lon="2.48932">
        <ele>266</ele>
        <time>2021-12-05T15:15:38Z</time>
      </trkpt>
      <trkpt lat="42.64683" lon="2.48926">
        <ele>268</ele>
        <time>2021-12-05T15:15:39Z</time>
      </trkpt>
      <trkpt lat="42.64691" lon="2.48914">
        <ele>270</ele>
        <time>2021-12-05T15:15:42Z</time>
      </trkpt>
      <trkpt lat="42.64696" lon="2.48899">
        <ele>272</ele>
        <time>2021-12-05T15:15:44Z</time>
      </trkpt>
      <trkpt lat="42.64697" lon="2.48885">
        <ele>274</ele>
        <time>2021-12-05T15:15:45Z</time>
      </trkpt>
      <trkpt lat="42.6469" lon="2.48789">
        <ele>278</ele>
        <time>2021-12-05T15:15:58Z</time>
      </trkpt>
      <trkpt lat="42.6469" lon="2.48775">
        <ele>278</ele>
        <time>2021-12-05T15:16:00Z</time>
      </trkpt>
      <trkpt lat="42.64693" lon="2.48765">
        <ele>278</ele>
        <time>2021-12-05T15:16:01Z</time>
      </trkpt>
      <trkpt lat="42.64699" lon="2.48759">
        <ele>279</ele>
        <time>2021-12-05T15:16:03Z</time>
      </trkpt>
      <trkpt lat="42.64706" lon="2.48757">
        <ele>281</ele>
        <time>2021-12-05T15:16:04Z</time>
      </trkpt>
      <trkpt lat="42.64713" lon="2.48759">
        <ele>282</ele>
        <time>2021-12-05T15:16:05Z</time>
      </trkpt>
      <trkpt lat="42.64735" lon="2.48791">
        <ele>285</ele>
        <time>2021-12-05T15:16:11Z</time>
      </trkpt>
      <trkpt lat="42.64748" lon="2.48791">
        <ele>288</ele>
        <time>2021-12-05T15:16:13Z</time>
      </trkpt>
      <trkpt lat="42.64777" lon="2.48783">
        <ele>293</ele>
        <time>2021-12-05T15:16:19Z</time>
      </trkpt>
      <trkpt lat="42.64788" lon="2.48784">
        <ele>295</ele>
        <time>2021-12-05T15:16:21Z</time>
      </trkpt>
      <trkpt lat="42.64817" lon="2.48798">
        <ele>297</ele>
        <time>2021-12-05T15:16:26Z</time>
      </trkpt>
      <trkpt lat="42.64827" lon="2.48799">
        <ele>298</ele>
        <time>2021-12-05T15:16:28Z</time>
      </trkpt>
      <trkpt lat="42.64849" lon="2.48795">
        <ele>304</ele>
        <time>2021-12-05T15:16:32Z</time>
      </trkpt>
      <trkpt lat="42.64862" lon="2.48795">
        <ele>308</ele>
        <time>2021-12-05T15:16:34Z</time>
      </trkpt>
      <trkpt lat="42.64894" lon="2.48803">
        <ele>316</ele>
        <time>2021-12-05T15:16:40Z</time>
      </trkpt>
      <trkpt lat="42.64926" lon="2.48826">
        <ele>320</ele>
        <time>2021-12-05T15:16:46Z</time>
      </trkpt>
      <trkpt lat="42.64934" lon="2.48835">
        <ele>320</ele>
        <time>2021-12-05T15:16:48Z</time>
      </trkpt>
      <trkpt lat="42.64959" lon="2.48876">
        <ele>326</ele>
        <time>2021-12-05T15:16:55Z</time>
      </trkpt>
      <trkpt lat="42.6498" lon="2.48896">
        <ele>328</ele>
        <time>2021-12-05T15:17:00Z</time>
      </trkpt>
      <trkpt lat="42.64993" lon="2.48902">
        <ele>330</ele>
        <time>2021-12-05T15:17:02Z</time>
      </trkpt>
      <trkpt lat="42.6501" lon="2.48904">
        <ele>334</ele>
        <time>2021-12-05T15:17:05Z</time>
      </trkpt>
      <trkpt lat="42.65019" lon="2.48908">
        <ele>336</ele>
        <time>2021-12-05T15:17:07Z</time>
      </trkpt>
      <trkpt lat="42.65026" lon="2.48914">
        <ele>338</ele>
        <time>2021-12-05T15:17:08Z</time>
      </trkpt>
      <trkpt lat="42.6503" lon="2.48921">
        <ele>340</ele>
        <time>2021-12-05T15:17:09Z</time>
      </trkpt>
      <trkpt lat="42.65031" lon="2.48933">
        <ele>343</ele>
        <time>2021-12-05T15:17:11Z</time>
      </trkpt>
      <trkpt lat="42.65028" lon="2.48942">
        <ele>345</ele>
        <time>2021-12-05T15:17:12Z</time>
      </trkpt>
      <trkpt lat="42.65024" lon="2.48949">
        <ele>345</ele>
        <time>2021-12-05T15:17:13Z</time>
      </trkpt>
      <trkpt lat="42.65014" lon="2.48957">
        <ele>344</ele>
        <time>2021-12-05T15:17:16Z</time>
      </trkpt>
      <trkpt lat="42.64983" lon="2.48965">
        <ele>340</ele>
        <time>2021-12-05T15:17:21Z</time>
      </trkpt>
      <trkpt lat="42.64959" lon="2.48966">
        <ele>338</ele>
        <time>2021-12-05T15:17:25Z</time>
      </trkpt>
      <trkpt lat="42.64936" lon="2.48958">
        <ele>334</ele>
        <time>2021-12-05T15:17:30Z</time>
      </trkpt>
      <trkpt lat="42.64913" lon="2.48962">
        <ele>333</ele>
        <time>2021-12-05T15:17:34Z</time>
      </trkpt>
      <trkpt lat="42.64899" lon="2.48967">
        <ele>331</ele>
        <time>2021-12-05T15:17:36Z</time>
      </trkpt>
      <trkpt lat="42.64887" lon="2.48975">
        <ele>331</ele>
        <time>2021-12-05T15:17:39Z</time>
      </trkpt>
      <trkpt lat="42.64876" lon="2.48985">
        <ele>331</ele>
        <time>2021-12-05T15:17:41Z</time>
      </trkpt>
      <trkpt lat="42.64868" lon="2.48998">
        <ele>333</ele>
        <time>2021-12-05T15:17:43Z</time>
      </trkpt>
      <trkpt lat="42.64862" lon="2.49013">
        <ele>333</ele>
        <time>2021-12-05T15:17:46Z</time>
      </trkpt>
      <trkpt lat="42.64861" lon="2.49031">
        <ele>336</ele>
        <time>2021-12-05T15:17:48Z</time>
      </trkpt>
      <trkpt lat="42.64862" lon="2.49065">
        <ele>342</ele>
        <time>2021-12-05T15:17:52Z</time>
      </trkpt>
      <trkpt lat="42.64857" lon="2.4911">
        <ele>346</ele>
        <time>2021-12-05T15:17:58Z</time>
      </trkpt>
      <trkpt lat="42.64852" lon="2.49192">
        <ele>352</ele>
        <time>2021-12-05T15:18:09Z</time>
      </trkpt>
      <trkpt lat="42.64855" lon="2.4926">
        <ele>358</ele>
        <time>2021-12-05T15:18:18Z</time>
      </trkpt>
      <trkpt lat="42.64861" lon="2.49285">
        <ele>362</ele>
        <time>2021-12-05T15:18:21Z</time>
      </trkpt>
      <trkpt lat="42.64872" lon="2.49312">
        <ele>369</ele>
        <time>2021-12-05T15:18:25Z</time>
      </trkpt>
      <trkpt lat="42.6488" lon="2.49328">
        <ele>374</ele>
        <time>2021-12-05T15:18:28Z</time>
      </trkpt>
      <trkpt lat="42.64883" lon="2.49338">
        <ele>376</ele>
        <time>2021-12-05T15:18:29Z</time>
      </trkpt>
      <trkpt lat="42.64881" lon="2.4935">
        <ele>375</ele>
        <time>2021-12-05T15:18:31Z</time>
      </trkpt>
      <trkpt lat="42.64871" lon="2.49379">
        <ele>370</ele>
        <time>2021-12-05T15:18:35Z</time>
      </trkpt>
      <trkpt lat="42.64865" lon="2.49408">
        <ele>368</ele>
        <time>2021-12-05T15:18:39Z</time>
      </trkpt>
      <trkpt lat="42.64864" lon="2.49433">
        <ele>367</ele>
        <time>2021-12-05T15:18:42Z</time>
      </trkpt>
      <trkpt lat="42.64867" lon="2.49457">
        <ele>368</ele>
        <time>2021-12-05T15:18:46Z</time>
      </trkpt>
      <trkpt lat="42.64886" lon="2.49526">
        <ele>381</ele>
        <time>2021-12-05T15:18:55Z</time>
      </trkpt>
      <trkpt lat="42.64887" lon="2.49545">
        <ele>383</ele>
        <time>2021-12-05T15:18:58Z</time>
      </trkpt>
      <trkpt lat="42.64883" lon="2.49606">
        <ele>379</ele>
        <time>2021-12-05T15:19:06Z</time>
      </trkpt>
      <trkpt lat="42.64883" lon="2.49623">
        <ele>378</ele>
        <time>2021-12-05T15:19:08Z</time>
      </trkpt>
      <trkpt lat="42.64886" lon="2.49636">
        <ele>380</ele>
        <time>2021-12-05T15:19:10Z</time>
      </trkpt>
      <trkpt lat="42.649" lon="2.49678">
        <ele>389</ele>
        <time>2021-12-05T15:19:16Z</time>
      </trkpt>
      <trkpt lat="42.64904" lon="2.49696">
        <ele>390</ele>
        <time>2021-12-05T15:19:18Z</time>
      </trkpt>
      <trkpt lat="42.64906" lon="2.49746">
        <ele>387</ele>
        <time>2021-12-05T15:19:25Z</time>
      </trkpt>
      <trkpt lat="42.64913" lon="2.4977">
        <ele>386</ele>
        <time>2021-12-05T15:19:28Z</time>
      </trkpt>
      <trkpt lat="42.64919" lon="2.4978">
        <ele>386</ele>
        <time>2021-12-05T15:19:30Z</time>
      </trkpt>
      <trkpt lat="42.64932" lon="2.49792">
        <ele>386</ele>
        <time>2021-12-05T15:19:33Z</time>
      </trkpt>
      <trkpt lat="42.6496" lon="2.49806">
        <ele>388</ele>
        <time>2021-12-05T15:19:38Z</time>
      </trkpt>
      <trkpt lat="42.64968" lon="2.49808">
        <ele>390</ele>
        <time>2021-12-05T15:19:39Z</time>
      </trkpt>
      <trkpt lat="42.64989" lon="2.49802">
        <ele>398</ele>
        <time>2021-12-05T15:19:43Z</time>
      </trkpt>
      <trkpt lat="42.65007" lon="2.49804">
        <ele>399</ele>
        <time>2021-12-05T15:19:46Z</time>
      </trkpt>
      <trkpt lat="42.65014" lon="2.49802">
        <ele>399</ele>
        <time>2021-12-05T15:19:48Z</time>
      </trkpt>
      <trkpt lat="42.65042" lon="2.49768">
        <ele>411</ele>
        <time>2021-12-05T15:19:54Z</time>
      </trkpt>
      <trkpt lat="42.65054" lon="2.4976">
        <ele>413</ele>
        <time>2021-12-05T15:19:57Z</time>
      </trkpt>
      <trkpt lat="42.65068" lon="2.49754">
        <ele>415</ele>
        <time>2021-12-05T15:19:59Z</time>
      </trkpt>
      <trkpt lat="42.65084" lon="2.49753">
        <ele>413</ele>
        <time>2021-12-05T15:20:02Z</time>
      </trkpt>
      <trkpt lat="42.65091" lon="2.49748">
        <ele>413</ele>
        <time>2021-12-05T15:20:04Z</time>
      </trkpt>
      <trkpt lat="42.65109" lon="2.49724">
        <ele>418</ele>
        <time>2021-12-05T15:20:08Z</time>
      </trkpt>
      <trkpt lat="42.65118" lon="2.49706">
        <ele>424</ele>
        <time>2021-12-05T15:20:11Z</time>
      </trkpt>
      <trkpt lat="42.6513" lon="2.49677">
        <ele>433</ele>
        <time>2021-12-05T15:20:15Z</time>
      </trkpt>
      <trkpt lat="42.65135" lon="2.49671">
        <ele>434</ele>
        <time>2021-12-05T15:20:17Z</time>
      </trkpt>
      <trkpt lat="42.65156" lon="2.49657">
        <ele>433</ele>
        <time>2021-12-05T15:20:21Z</time>
      </trkpt>
      <trkpt lat="42.65169" lon="2.49646">
        <ele>435</ele>
        <time>2021-12-05T15:20:23Z</time>
      </trkpt>
      <trkpt lat="42.65206" lon="2.49638">
        <ele>441</ele>
        <time>2021-12-05T15:20:30Z</time>
      </trkpt>
      <trkpt lat="42.65231" lon="2.49637">
        <ele>443</ele>
        <time>2021-12-05T15:20:35Z</time>
      </trkpt>
      <trkpt lat="42.65238" lon="2.49639">
        <ele>443</ele>
        <time>2021-12-05T15:20:36Z</time>
      </trkpt>
      <trkpt lat="42.65281" lon="2.49693">
        <ele>430</ele>
        <time>2021-12-05T15:20:46Z</time>
      </trkpt>
      <trkpt lat="42.65291" lon="2.49714">
        <ele>425</ele>
        <time>2021-12-05T15:20:50Z</time>
      </trkpt>
      <trkpt lat="42.65298" lon="2.49721">
        <ele>424</ele>
        <time>2021-12-05T15:20:51Z</time>
      </trkpt>
      <trkpt lat="42.65317" lon="2.49721">
        <ele>427</ele>
        <time>2021-12-05T15:20:54Z</time>
      </trkpt>
      <trkpt lat="42.65337" lon="2.49699">
        <ele>438</ele>
        <time>2021-12-05T15:20:59Z</time>
      </trkpt>
      <trkpt lat="42.65356" lon="2.49688">
        <ele>438</ele>
        <time>2021-12-05T15:21:03Z</time>
      </trkpt>
      <trkpt lat="42.65368" lon="2.49677">
        <ele>438</ele>
        <time>2021-12-05T15:21:05Z</time>
      </trkpt>
      <trkpt lat="42.65378" lon="2.49659">
        <ele>440</ele>
        <time>2021-12-05T15:21:08Z</time>
      </trkpt>
      <trkpt lat="42.65386" lon="2.49613">
        <ele>450</ele>
        <time>2021-12-05T15:21:14Z</time>
      </trkpt>
      <trkpt lat="42.65394" lon="2.49599">
        <ele>452</ele>
        <time>2021-12-05T15:21:17Z</time>
      </trkpt>
      <trkpt lat="42.6543" lon="2.49555">
        <ele>454</ele>
        <time>2021-12-05T15:21:25Z</time>
      </trkpt>
      <trkpt lat="42.65447" lon="2.49543">
        <ele>454</ele>
        <time>2021-12-05T15:21:29Z</time>
      </trkpt>
      <trkpt lat="42.65469" lon="2.49522">
        <ele>455</ele>
        <time>2021-12-05T15:21:34Z</time>
      </trkpt>
      <trkpt lat="42.65507" lon="2.49458">
        <ele>461</ele>
        <time>2021-12-05T15:21:44Z</time>
      </trkpt>
      <trkpt lat="42.65531" lon="2.49423">
        <ele>463</ele>
        <time>2021-12-05T15:21:51Z</time>
      </trkpt>
      <trkpt lat="42.65605" lon="2.4935">
        <ele>473</ele>
        <time>2021-12-05T15:22:07Z</time>
      </trkpt>
      <trkpt lat="42.65643" lon="2.4931">
        <ele>479</ele>
        <time>2021-12-05T15:22:15Z</time>
      </trkpt>
      <trkpt lat="42.65656" lon="2.493">
        <ele>481</ele>
        <time>2021-12-05T15:22:18Z</time>
      </trkpt>
      <trkpt lat="42.65669" lon="2.49297">
        <ele>480</ele>
        <time>2021-12-05T15:22:20Z</time>
      </trkpt>
      <trkpt lat="42.65719" lon="2.49295">
        <ele>476</ele>
        <time>2021-12-05T15:22:29Z</time>
      </trkpt>
      <trkpt lat="42.65731" lon="2.49292">
        <ele>476</ele>
        <time>2021-12-05T15:22:31Z</time>
      </trkpt>
      <trkpt lat="42.65739" lon="2.49285">
        <ele>477</ele>
        <time>2021-12-05T15:22:33Z</time>
      </trkpt>
      <trkpt lat="42.65746" lon="2.49273">
        <ele>480</ele>
        <time>2021-12-05T15:22:35Z</time>
      </trkpt>
      <trkpt lat="42.65758" lon="2.49244">
        <ele>486</ele>
        <time>2021-12-05T15:22:39Z</time>
      </trkpt>
      <trkpt lat="42.6578" lon="2.49185">
        <ele>496</ele>
        <time>2021-12-05T15:22:48Z</time>
      </trkpt>
      <trkpt lat="42.65788" lon="2.49174">
        <ele>497</ele>
        <time>2021-12-05T15:22:50Z</time>
      </trkpt>
      <trkpt lat="42.65799" lon="2.49167">
        <ele>497</ele>
        <time>2021-12-05T15:22:52Z</time>
      </trkpt>
      <trkpt lat="42.65848" lon="2.49146">
        <ele>496</ele>
        <time>2021-12-05T15:23:01Z</time>
      </trkpt>
      <trkpt lat="42.65877" lon="2.4913">
        <ele>500</ele>
        <time>2021-12-05T15:23:07Z</time>
      </trkpt>
      <trkpt lat="42.65899" lon="2.49112">
        <ele>504</ele>
        <time>2021-12-05T15:23:12Z</time>
      </trkpt>
      <trkpt lat="42.65919" lon="2.49102">
        <ele>507</ele>
        <time>2021-12-05T15:23:15Z</time>
      </trkpt>
      <trkpt lat="42.65933" lon="2.49099">
        <ele>508</ele>
        <time>2021-12-05T15:23:18Z</time>
      </trkpt>
      <trkpt lat="42.65972" lon="2.49105">
        <ele>508</ele>
        <time>2021-12-05T15:23:25Z</time>
      </trkpt>
      <trkpt lat="42.65986" lon="2.49103">
        <ele>509</ele>
        <time>2021-12-05T15:23:27Z</time>
      </trkpt>
      <trkpt lat="42.66003" lon="2.49094">
        <ele>511</ele>
        <time>2021-12-05T15:23:31Z</time>
      </trkpt>
      <trkpt lat="42.66035" lon="2.4907">
        <ele>513</ele>
        <time>2021-12-05T15:23:37Z</time>
      </trkpt>
      <trkpt lat="42.66043" lon="2.49048">
        <ele>515</ele>
        <time>2021-12-05T15:23:40Z</time>
      </trkpt>
      <trkpt lat="42.66039" lon="2.48948">
        <ele>526</ele>
        <time>2021-12-05T15:23:53Z</time>
      </trkpt>
      <trkpt lat="42.6604" lon="2.4892">
        <ele>528</ele>
        <time>2021-12-05T15:23:57Z</time>
      </trkpt>
      <trkpt lat="42.66044" lon="2.48905">
        <ele>529</ele>
        <time>2021-12-05T15:23:59Z</time>
      </trkpt>
      <trkpt lat="42.66053" lon="2.48887">
        <ele>530</ele>
        <time>2021-12-05T15:24:02Z</time>
      </trkpt>
      <trkpt lat="42.66077" lon="2.48846">
        <ele>532</ele>
        <time>2021-12-05T15:24:09Z</time>
      </trkpt>
      <trkpt lat="42.66094" lon="2.48815">
        <ele>533</ele>
        <time>2021-12-05T15:24:14Z</time>
      </trkpt>
      <trkpt lat="42.66105" lon="2.48798">
        <ele>534</ele>
        <time>2021-12-05T15:24:17Z</time>
      </trkpt>
      <trkpt lat="42.66118" lon="2.4879">
        <ele>535</ele>
        <time>2021-12-05T15:24:20Z</time>
      </trkpt>
      <trkpt lat="42.66146" lon="2.48781">
        <ele>536</ele>
        <time>2021-12-05T15:24:25Z</time>
      </trkpt>
      <trkpt lat="42.66205" lon="2.48746">
        <ele>544</ele>
        <time>2021-12-05T15:24:36Z</time>
      </trkpt>
      <trkpt lat="42.66219" lon="2.4874">
        <ele>546</ele>
        <time>2021-12-05T15:24:39Z</time>
      </trkpt>
      <trkpt lat="42.66236" lon="2.48738">
        <ele>548</ele>
        <time>2021-12-05T15:24:42Z</time>
      </trkpt>
      <trkpt lat="42.66276" lon="2.48751">
        <ele>547</ele>
        <time>2021-12-05T15:24:49Z</time>
      </trkpt>
      <trkpt lat="42.66289" lon="2.48751">
        <ele>546</ele>
        <time>2021-12-05T15:24:51Z</time>
      </trkpt>
      <trkpt lat="42.66302" lon="2.48746">
        <ele>547</ele>
        <time>2021-12-05T15:24:54Z</time>
      </trkpt>
      <trkpt lat="42.6631" lon="2.48737">
        <ele>548</ele>
        <time>2021-12-05T15:24:56Z</time>
      </trkpt>
      <trkpt lat="42.66321" lon="2.48714">
        <ele>552</ele>
        <time>2021-12-05T15:24:59Z</time>
      </trkpt>
      <trkpt lat="42.66331" lon="2.48689">
        <ele>557</ele>
        <time>2021-12-05T15:25:03Z</time>
      </trkpt>
      <trkpt lat="42.66344" lon="2.48666">
        <ele>560</ele>
        <time>2021-12-05T15:25:07Z</time>
      </trkpt>
      <trkpt lat="42.6638" lon="2.48622">
        <ele>565</ele>
        <time>2021-12-05T15:25:15Z</time>
      </trkpt>
      <trkpt lat="42.66391" lon="2.48612">
        <ele>566</ele>
        <time>2021-12-05T15:25:18Z</time>
      </trkpt>
      <trkpt lat="42.66421" lon="2.48573">
        <ele>568</ele>
        <time>2021-12-05T15:25:25Z</time>
      </trkpt>
      <trkpt lat="42.66432" lon="2.48559">
        <ele>569</ele>
        <time>2021-12-05T15:25:28Z</time>
      </trkpt>
      <trkpt lat="42.66434" lon="2.48543">
        <ele>570</ele>
        <time>2021-12-05T15:25:30Z</time>
      </trkpt>
      <trkpt lat="42.66467" lon="2.48521">
        <ele>571</ele>
        <time>2021-12-05T15:25:36Z</time>
      </trkpt>
      <trkpt lat="42.66485" lon="2.48516">
        <ele>572</ele>
        <time>2021-12-05T15:25:40Z</time>
      </trkpt>
      <trkpt lat="42.66499" lon="2.48516">
        <ele>571</ele>
        <time>2021-12-05T15:25:42Z</time>
      </trkpt>
      <trkpt lat="42.66533" lon="2.48522">
        <ele>572</ele>
        <time>2021-12-05T15:25:48Z</time>
      </trkpt>
      <trkpt lat="42.66543" lon="2.48525">
        <ele>572</ele>
        <time>2021-12-05T15:25:50Z</time>
      </trkpt>
      <trkpt lat="42.66552" lon="2.48531">
        <ele>572</ele>
        <time>2021-12-05T15:25:52Z</time>
      </trkpt>
      <trkpt lat="42.6656" lon="2.48538">
        <ele>572</ele>
        <time>2021-12-05T15:25:54Z</time>
      </trkpt>
      <trkpt lat="42.6657" lon="2.48558">
        <ele>570</ele>
        <time>2021-12-05T15:25:57Z</time>
      </trkpt>
      <trkpt lat="42.66572" lon="2.48574">
        <ele>569</ele>
        <time>2021-12-05T15:25:59Z</time>
      </trkpt>
      <trkpt lat="42.66572" lon="2.48615">
        <ele>564</ele>
        <time>2021-12-05T15:26:04Z</time>
      </trkpt>
      <trkpt lat="42.66574" lon="2.48628">
        <ele>563</ele>
        <time>2021-12-05T15:26:06Z</time>
      </trkpt>
      <trkpt lat="42.6658" lon="2.48638">
        <ele>563</ele>
        <time>2021-12-05T15:26:08Z</time>
      </trkpt>
      <trkpt lat="42.66601" lon="2.48659">
        <ele>563</ele>
        <time>2021-12-05T15:26:12Z</time>
      </trkpt>
      <trkpt lat="42.66617" lon="2.4867">
        <ele>563</ele>
        <time>2021-12-05T15:26:15Z</time>
      </trkpt>
      <trkpt lat="42.66626" lon="2.48673">
        <ele>564</ele>
        <time>2021-12-05T15:26:17Z</time>
      </trkpt>
      <trkpt lat="42.66661" lon="2.48666">
        <ele>568</ele>
        <time>2021-12-05T15:26:23Z</time>
      </trkpt>
      <trkpt lat="42.66679" lon="2.48674">
        <ele>568</ele>
        <time>2021-12-05T15:26:27Z</time>
      </trkpt>
      <trkpt lat="42.66713" lon="2.48711">
        <ele>566</ele>
        <time>2021-12-05T15:26:35Z</time>
      </trkpt>
      <trkpt lat="42.66734" lon="2.48742">
        <ele>565</ele>
        <time>2021-12-05T15:26:40Z</time>
      </trkpt>
      <trkpt lat="42.66738" lon="2.48763">
        <ele>564</ele>
        <time>2021-12-05T15:26:43Z</time>
      </trkpt>
      <trkpt lat="42.66738" lon="2.4879">
        <ele>561</ele>
        <time>2021-12-05T15:26:46Z</time>
      </trkpt>
      <trkpt lat="42.6674" lon="2.48802">
        <ele>560</ele>
        <time>2021-12-05T15:26:48Z</time>
      </trkpt>
      <trkpt lat="42.66744" lon="2.48809">
        <ele>560</ele>
        <time>2021-12-05T15:26:49Z</time>
      </trkpt>
      <trkpt lat="42.66763" lon="2.48823">
        <ele>560</ele>
        <time>2021-12-05T15:26:53Z</time>
      </trkpt>
      <trkpt lat="42.66779" lon="2.48828">
        <ele>560</ele>
        <time>2021-12-05T15:26:56Z</time>
      </trkpt>
      <trkpt lat="42.66791" lon="2.48828">
        <ele>561</ele>
        <time>2021-12-05T15:26:58Z</time>
      </trkpt>
      <trkpt lat="42.66832" lon="2.48814">
        <ele>564</ele>
        <time>2021-12-05T15:27:06Z</time>
      </trkpt>
      <trkpt lat="42.66846" lon="2.48813">
        <ele>565</ele>
        <time>2021-12-05T15:27:08Z</time>
      </trkpt>
      <trkpt lat="42.6689" lon="2.48816">
        <ele>566</ele>
        <time>2021-12-05T15:27:16Z</time>
      </trkpt>
      <trkpt lat="42.66915" lon="2.48816">
        <ele>567</ele>
        <time>2021-12-05T15:27:20Z</time>
      </trkpt>
      <trkpt lat="42.66921" lon="2.48819">
        <ele>568</ele>
        <time>2021-12-05T15:27:22Z</time>
      </trkpt>
      <trkpt lat="42.66924" lon="2.48823">
        <ele>567</ele>
        <time>2021-12-05T15:27:22Z</time>
      </trkpt>
      <trkpt lat="42.66926" lon="2.48842">
        <ele>568</ele>
        <time>2021-12-05T15:27:25Z</time>
      </trkpt>
      <trkpt lat="42.66924" lon="2.48852">
        <ele>568</ele>
        <time>2021-12-05T15:27:26Z</time>
      </trkpt>
      <trkpt lat="42.66897" lon="2.48877">
        <ele>567</ele>
        <time>2021-12-05T15:27:32Z</time>
      </trkpt>
      <trkpt lat="42.66878" lon="2.48909">
        <ele>566</ele>
        <time>2021-12-05T15:27:37Z</time>
      </trkpt>
      <trkpt lat="42.66844" lon="2.48959">
        <ele>564</ele>
        <time>2021-12-05T15:27:46Z</time>
      </trkpt>
      <trkpt lat="42.66838" lon="2.48974">
        <ele>565</ele>
        <time>2021-12-05T15:27:48Z</time>
      </trkpt>
      <trkpt lat="42.66835" lon="2.48998">
        <ele>567</ele>
        <time>2021-12-05T15:27:52Z</time>
      </trkpt>
      <trkpt lat="42.66842" lon="2.49036">
        <ele>567</ele>
        <time>2021-12-05T15:27:57Z</time>
      </trkpt>
      <trkpt lat="42.66851" lon="2.49058">
        <ele>567</ele>
        <time>2021-12-05T15:28:00Z</time>
      </trkpt>
      <trkpt lat="42.66867" lon="2.49078">
        <ele>567</ele>
        <time>2021-12-05T15:28:04Z</time>
      </trkpt>
      <trkpt lat="42.66916" lon="2.49125">
        <ele>563</ele>
        <time>2021-12-05T15:28:15Z</time>
      </trkpt>
      <trkpt lat="42.66923" lon="2.49138">
        <ele>561</ele>
        <time>2021-12-05T15:28:17Z</time>
      </trkpt>
      <trkpt lat="42.66933" lon="2.49169">
        <ele>556</ele>
        <time>2021-12-05T15:28:21Z</time>
      </trkpt>
      <trkpt lat="42.66941" lon="2.49178">
        <ele>554</ele>
        <time>2021-12-05T15:28:23Z</time>
      </trkpt>
      <trkpt lat="42.66951" lon="2.49178">
        <ele>553</ele>
        <time>2021-12-05T15:28:25Z</time>
      </trkpt>
      <trkpt lat="42.66958" lon="2.49173">
        <ele>552</ele>
        <time>2021-12-05T15:28:26Z</time>
      </trkpt>
      <trkpt lat="42.66962" lon="2.49159">
        <ele>553</ele>
        <time>2021-12-05T15:28:28Z</time>
      </trkpt>
      <trkpt lat="42.66964" lon="2.49132">
        <ele>555</ele>
        <time>2021-12-05T15:28:32Z</time>
      </trkpt>
      <trkpt lat="42.66969" lon="2.4912">
        <ele>555</ele>
        <time>2021-12-05T15:28:34Z</time>
      </trkpt>
      <trkpt lat="42.66983" lon="2.49104">
        <ele>554</ele>
        <time>2021-12-05T15:28:37Z</time>
      </trkpt>
      <trkpt lat="42.66992" lon="2.49092">
        <ele>554</ele>
        <time>2021-12-05T15:28:39Z</time>
      </trkpt>
      <trkpt lat="42.67001" lon="2.49047">
        <ele>560</ele>
        <time>2021-12-05T15:28:45Z</time>
      </trkpt>
      <trkpt lat="42.6701" lon="2.49031">
        <ele>562</ele>
        <time>2021-12-05T15:28:48Z</time>
      </trkpt>
      <trkpt lat="42.67019" lon="2.49021">
        <ele>563</ele>
        <time>2021-12-05T15:28:50Z</time>
      </trkpt>
      <trkpt lat="42.67032" lon="2.49013">
        <ele>563</ele>
        <time>2021-12-05T15:28:52Z</time>
      </trkpt>
      <trkpt lat="42.67049" lon="2.4901">
        <ele>562</ele>
        <time>2021-12-05T15:28:55Z</time>
      </trkpt>
      <trkpt lat="42.67058" lon="2.49011">
        <ele>561</ele>
        <time>2021-12-05T15:28:57Z</time>
      </trkpt>
      <trkpt lat="42.67064" lon="2.49017">
        <ele>560</ele>
        <time>2021-12-05T15:28:58Z</time>
      </trkpt>
      <trkpt lat="42.67068" lon="2.49028">
        <ele>558</ele>
        <time>2021-12-05T15:29:00Z</time>
      </trkpt>
      <trkpt lat="42.6707" lon="2.4904">
        <ele>557</ele>
        <time>2021-12-05T15:29:02Z</time>
      </trkpt>
      <trkpt lat="42.67068" lon="2.49052">
        <ele>556</ele>
        <time>2021-12-05T15:29:03Z</time>
      </trkpt>
      <trkpt lat="42.67056" lon="2.4907">
        <ele>554</ele>
        <time>2021-12-05T15:29:06Z</time>
      </trkpt>
      <trkpt lat="42.67053" lon="2.49079">
        <ele>554</ele>
        <time>2021-12-05T15:29:08Z</time>
      </trkpt>
      <trkpt lat="42.67053" lon="2.49096">
        <ele>553</ele>
        <time>2021-12-05T15:29:10Z</time>
      </trkpt>
      <trkpt lat="42.67064" lon="2.49164">
        <ele>553</ele>
        <time>2021-12-05T15:29:19Z</time>
      </trkpt>
      <trkpt lat="42.67063" lon="2.49192">
        <ele>552</ele>
        <time>2021-12-05T15:29:23Z</time>
      </trkpt>
      <trkpt lat="42.67061" lon="2.49202">
        <ele>551</ele>
        <time>2021-12-05T15:29:24Z</time>
      </trkpt>
      <trkpt lat="42.67052" lon="2.49217">
        <ele>549</ele>
        <time>2021-12-05T15:29:27Z</time>
      </trkpt>
      <trkpt lat="42.67047" lon="2.49229">
        <ele>548</ele>
        <time>2021-12-05T15:29:28Z</time>
      </trkpt>
      <trkpt lat="42.67043" lon="2.49265">
        <ele>548</ele>
        <time>2021-12-05T15:29:33Z</time>
      </trkpt>
      <trkpt lat="42.6704" lon="2.49274">
        <ele>548</ele>
        <time>2021-12-05T15:29:34Z</time>
      </trkpt>
      <trkpt lat="42.67034" lon="2.49283">
        <ele>547</ele>
        <time>2021-12-05T15:29:36Z</time>
      </trkpt>
      <trkpt lat="42.67019" lon="2.49293">
        <ele>546</ele>
        <time>2021-12-05T15:29:39Z</time>
      </trkpt>
      <trkpt lat="42.67005" lon="2.49308">
        <ele>544</ele>
        <time>2021-12-05T15:29:42Z</time>
      </trkpt>
      <trkpt lat="42.66971" lon="2.49358">
        <ele>546</ele>
        <time>2021-12-05T15:29:51Z</time>
      </trkpt>
      <trkpt lat="42.66957" lon="2.49373">
        <ele>547</ele>
        <time>2021-12-05T15:29:54Z</time>
      </trkpt>
      <trkpt lat="42.66914" lon="2.4939">
        <ele>542</ele>
        <time>2021-12-05T15:30:02Z</time>
      </trkpt>
      <trkpt lat="42.6689" lon="2.49403">
        <ele>541</ele>
        <time>2021-12-05T15:30:07Z</time>
      </trkpt>
      <trkpt lat="42.66851" lon="2.49428">
        <ele>537</ele>
        <time>2021-12-05T15:30:14Z</time>
      </trkpt>
      <trkpt lat="42.66842" lon="2.49438">
        <ele>535</ele>
        <time>2021-12-05T15:30:16Z</time>
      </trkpt>
      <trkpt lat="42.66832" lon="2.49458">
        <ele>534</ele>
        <time>2021-12-05T15:30:20Z</time>
      </trkpt>
      <trkpt lat="42.6683" lon="2.49469">
        <ele>534</ele>
        <time>2021-12-05T15:30:21Z</time>
      </trkpt>
      <trkpt lat="42.66829" lon="2.49483">
        <ele>534</ele>
        <time>2021-12-05T15:30:23Z</time>
      </trkpt>
      <trkpt lat="42.66832" lon="2.49529">
        <ele>533</ele>
        <time>2021-12-05T15:30:29Z</time>
      </trkpt>
      <trkpt lat="42.66832" lon="2.49542">
        <ele>533</ele>
        <time>2021-12-05T15:30:31Z</time>
      </trkpt>
      <trkpt lat="42.66826" lon="2.49564">
        <ele>532</ele>
        <time>2021-12-05T15:30:34Z</time>
      </trkpt>
      <trkpt lat="42.66817" lon="2.49623">
        <ele>527</ele>
        <time>2021-12-05T15:30:42Z</time>
      </trkpt>
      <trkpt lat="42.66818" lon="2.4964">
        <ele>527</ele>
        <time>2021-12-05T15:30:44Z</time>
      </trkpt>
      <trkpt lat="42.6683" lon="2.49688">
        <ele>526</ele>
        <time>2021-12-05T15:30:51Z</time>
      </trkpt>
      <trkpt lat="42.66837" lon="2.49702">
        <ele>526</ele>
        <time>2021-12-05T15:30:53Z</time>
      </trkpt>
      <trkpt lat="42.66892" lon="2.49736">
        <ele>532</ele>
        <time>2021-12-05T15:31:04Z</time>
      </trkpt>
      <trkpt lat="42.66924" lon="2.49758">
        <ele>534</ele>
        <time>2021-12-05T15:31:10Z</time>
      </trkpt>
      <trkpt lat="42.66927" lon="2.49766">
        <ele>535</ele>
        <time>2021-12-05T15:31:11Z</time>
      </trkpt>
      <trkpt lat="42.66927" lon="2.49785">
        <ele>536</ele>
        <time>2021-12-05T15:31:14Z</time>
      </trkpt>
      <trkpt lat="42.66923" lon="2.49794">
        <ele>536</ele>
        <time>2021-12-05T15:31:15Z</time>
      </trkpt>
      <trkpt lat="42.66916" lon="2.498">
        <ele>535</ele>
        <time>2021-12-05T15:31:16Z</time>
      </trkpt>
      <trkpt lat="42.66902" lon="2.49803">
        <ele>535</ele>
        <time>2021-12-05T15:31:19Z</time>
      </trkpt>
      <trkpt lat="42.6688" lon="2.49802">
        <ele>533</ele>
        <time>2021-12-05T15:31:23Z</time>
      </trkpt>
      <trkpt lat="42.66858" lon="2.49809">
        <ele>532</ele>
        <time>2021-12-05T15:31:27Z</time>
      </trkpt>
      <trkpt lat="42.66826" lon="2.49823">
        <ele>533</ele>
        <time>2021-12-05T15:31:33Z</time>
      </trkpt>
      <trkpt lat="42.66794" lon="2.49826">
        <ele>532</ele>
        <time>2021-12-05T15:31:39Z</time>
      </trkpt>
      <trkpt lat="42.66707" lon="2.49847">
        <ele>535</ele>
        <time>2021-12-05T15:31:54Z</time>
      </trkpt>
      <trkpt lat="42.66647" lon="2.49868">
        <ele>539</ele>
        <time>2021-12-05T15:32:05Z</time>
      </trkpt>
      <trkpt lat="42.66601" lon="2.49887">
        <ele>544</ele>
        <time>2021-12-05T15:32:14Z</time>
      </trkpt>
      <trkpt lat="42.66585" lon="2.4989">
        <ele>545</ele>
        <time>2021-12-05T15:32:17Z</time>
      </trkpt>
      <trkpt lat="42.66574" lon="2.49889">
        <ele>545</ele>
        <time>2021-12-05T15:32:19Z</time>
      </trkpt>
      <trkpt lat="42.66556" lon="2.49882">
        <ele>544</ele>
        <time>2021-12-05T15:32:22Z</time>
      </trkpt>
      <trkpt lat="42.66506" lon="2.49872">
        <ele>544</ele>
        <time>2021-12-05T15:32:31Z</time>
      </trkpt>
      <trkpt lat="42.66486" lon="2.49876">
        <ele>546</ele>
        <time>2021-12-05T15:32:35Z</time>
      </trkpt>
      <trkpt lat="42.6644" lon="2.49901">
        <ele>553</ele>
        <time>2021-12-05T15:32:43Z</time>
      </trkpt>
      <trkpt lat="42.66403" lon="2.49904">
        <ele>554</ele>
        <time>2021-12-05T15:32:50Z</time>
      </trkpt>
      <trkpt lat="42.66372" lon="2.49902">
        <ele>556</ele>
        <time>2021-12-05T15:32:56Z</time>
      </trkpt>
      <trkpt lat="42.66353" lon="2.49899">
        <ele>556</ele>
        <time>2021-12-05T15:32:59Z</time>
      </trkpt>
      <trkpt lat="42.66336" lon="2.49889">
        <ele>554</ele>
        <time>2021-12-05T15:33:02Z</time>
      </trkpt>
      <trkpt lat="42.66325" lon="2.4988">
        <ele>551</ele>
        <time>2021-12-05T15:33:05Z</time>
      </trkpt>
      <trkpt lat="42.66312" lon="2.49879">
        <ele>550</ele>
        <time>2021-12-05T15:33:07Z</time>
      </trkpt>
      <trkpt lat="42.66304" lon="2.49882">
        <ele>550</ele>
        <time>2021-12-05T15:33:08Z</time>
      </trkpt>
      <trkpt lat="42.66292" lon="2.49894">
        <ele>552</ele>
        <time>2021-12-05T15:33:11Z</time>
      </trkpt>
      <trkpt lat="42.66269" lon="2.49934">
        <ele>558</ele>
        <time>2021-12-05T15:33:18Z</time>
      </trkpt>
      <trkpt lat="42.66262" lon="2.49952">
        <ele>560</ele>
        <time>2021-12-05T15:33:20Z</time>
      </trkpt>
      <trkpt lat="42.66261" lon="2.49963">
        <ele>561</ele>
        <time>2021-12-05T15:33:22Z</time>
      </trkpt>
      <trkpt lat="42.66264" lon="2.49975">
        <ele>563</ele>
        <time>2021-12-05T15:33:23Z</time>
      </trkpt>
      <trkpt lat="42.66269" lon="2.4998">
        <ele>564</ele>
        <time>2021-12-05T15:33:24Z</time>
      </trkpt>
      <trkpt lat="42.66301" lon="2.49997">
        <ele>569</ele>
        <time>2021-12-05T15:33:31Z</time>
      </trkpt>
      <trkpt lat="42.66316" lon="2.50011">
        <ele>570</ele>
        <time>2021-12-05T15:33:34Z</time>
      </trkpt>
      <trkpt lat="42.66339" lon="2.50041">
        <ele>570</ele>
        <time>2021-12-05T15:33:39Z</time>
      </trkpt>
      <trkpt lat="42.6635" lon="2.5005">
        <ele>570</ele>
        <time>2021-12-05T15:33:42Z</time>
      </trkpt>
      <trkpt lat="42.66363" lon="2.50054">
        <ele>571</ele>
        <time>2021-12-05T15:33:44Z</time>
      </trkpt>
      <trkpt lat="42.66411" lon="2.50055">
        <ele>574</ele>
        <time>2021-12-05T15:33:53Z</time>
      </trkpt>
      <trkpt lat="42.66425" lon="2.5006">
        <ele>575</ele>
        <time>2021-12-05T15:33:55Z</time>
      </trkpt>
      <trkpt lat="42.66448" lon="2.50073">
        <ele>577</ele>
        <time>2021-12-05T15:34:00Z</time>
      </trkpt>
      <trkpt lat="42.66522" lon="2.50157">
        <ele>581</ele>
        <time>2021-12-05T15:34:17Z</time>
      </trkpt>
      <trkpt lat="42.66575" lon="2.5019">
        <ele>583</ele>
        <time>2021-12-05T15:34:27Z</time>
      </trkpt>
      <trkpt lat="42.66592" lon="2.50198">
        <ele>583</ele>
        <time>2021-12-05T15:34:30Z</time>
      </trkpt>
      <trkpt lat="42.6666" lon="2.50215">
        <ele>581</ele>
        <time>2021-12-05T15:34:43Z</time>
      </trkpt>
      <trkpt lat="42.66714" lon="2.50225">
        <ele>581</ele>
        <time>2021-12-05T15:34:52Z</time>
      </trkpt>
      <trkpt lat="42.66741" lon="2.50222">
        <ele>582</ele>
        <time>2021-12-05T15:34:57Z</time>
      </trkpt>
      <trkpt lat="42.6676" lon="2.50223">
        <ele>582</ele>
        <time>2021-12-05T15:35:01Z</time>
      </trkpt>
      <trkpt lat="42.66798" lon="2.50231">
        <ele>582</ele>
        <time>2021-12-05T15:35:07Z</time>
      </trkpt>
      <trkpt lat="42.6682" lon="2.50239">
        <ele>582</ele>
        <time>2021-12-05T15:35:12Z</time>
      </trkpt>
      <trkpt lat="42.66888" lon="2.50282">
        <ele>580</ele>
        <time>2021-12-05T15:35:25Z</time>
      </trkpt>
      <trkpt lat="42.66903" lon="2.50293">
        <ele>580</ele>
        <time>2021-12-05T15:35:28Z</time>
      </trkpt>
      <trkpt lat="42.6692" lon="2.50321">
        <ele>580</ele>
        <time>2021-12-05T15:35:33Z</time>
      </trkpt>
      <trkpt lat="42.66922" lon="2.50333">
        <ele>580</ele>
        <time>2021-12-05T15:35:34Z</time>
      </trkpt>
      <trkpt lat="42.66919" lon="2.50343">
        <ele>580</ele>
        <time>2021-12-05T15:35:36Z</time>
      </trkpt>
      <trkpt lat="42.6691" lon="2.50357">
        <ele>579</ele>
        <time>2021-12-05T15:35:38Z</time>
      </trkpt>
      <trkpt lat="42.66884" lon="2.50381">
        <ele>577</ele>
        <time>2021-12-05T15:35:44Z</time>
      </trkpt>
      <trkpt lat="42.66877" lon="2.50389">
        <ele>576</ele>
        <time>2021-12-05T15:35:45Z</time>
      </trkpt>
      <trkpt lat="42.66871" lon="2.504">
        <ele>575</ele>
        <time>2021-12-05T15:35:47Z</time>
      </trkpt>
      <trkpt lat="42.66864" lon="2.50438">
        <ele>574</ele>
        <time>2021-12-05T15:35:52Z</time>
      </trkpt>
      <trkpt lat="42.66844" lon="2.50487">
        <ele>572</ele>
        <time>2021-12-05T15:36:00Z</time>
      </trkpt>
      <trkpt lat="42.66842" lon="2.50496">
        <ele>572</ele>
        <time>2021-12-05T15:36:01Z</time>
      </trkpt>
      <trkpt lat="42.66849" lon="2.50548">
        <ele>573</ele>
        <time>2021-12-05T15:36:08Z</time>
      </trkpt>
      <trkpt lat="42.66846" lon="2.50574">
        <ele>572</ele>
        <time>2021-12-05T15:36:11Z</time>
      </trkpt>
      <trkpt lat="42.66841" lon="2.50588">
        <ele>571</ele>
        <time>2021-12-05T15:36:13Z</time>
      </trkpt>
      <trkpt lat="42.6684" lon="2.50601">
        <ele>570</ele>
        <time>2021-12-05T15:36:15Z</time>
      </trkpt>
      <trkpt lat="42.66842" lon="2.50615">
        <ele>570</ele>
        <time>2021-12-05T15:36:17Z</time>
      </trkpt>
      <trkpt lat="42.66865" lon="2.50666">
        <ele>572</ele>
        <time>2021-12-05T15:36:25Z</time>
      </trkpt>
      <trkpt lat="42.66867" lon="2.50675">
        <ele>573</ele>
        <time>2021-12-05T15:36:26Z</time>
      </trkpt>
      <trkpt lat="42.66869" lon="2.50689">
        <ele>573</ele>
        <time>2021-12-05T15:36:28Z</time>
      </trkpt>
      <trkpt lat="42.66855" lon="2.50787">
        <ele>574</ele>
        <time>2021-12-05T15:36:41Z</time>
      </trkpt>
      <trkpt lat="42.66855" lon="2.5082">
        <ele>575</ele>
        <time>2021-12-05T15:36:45Z</time>
      </trkpt>
      <trkpt lat="42.66868" lon="2.50912">
        <ele>576</ele>
        <time>2021-12-05T15:36:57Z</time>
      </trkpt>
      <trkpt lat="42.66877" lon="2.50937">
        <ele>576</ele>
        <time>2021-12-05T15:37:01Z</time>
      </trkpt>
      <trkpt lat="42.66883" lon="2.50948">
        <ele>576</ele>
        <time>2021-12-05T15:37:03Z</time>
      </trkpt>
      <trkpt lat="42.66903" lon="2.50969">
        <ele>577</ele>
        <time>2021-12-05T15:37:07Z</time>
      </trkpt>
      <trkpt lat="42.66943" lon="2.50997">
        <ele>577</ele>
        <time>2021-12-05T15:37:15Z</time>
      </trkpt>
      <trkpt lat="42.6701" lon="2.51032">
        <ele>574</ele>
        <time>2021-12-05T15:37:28Z</time>
      </trkpt>
      <trkpt lat="42.67028" lon="2.51043">
        <ele>573</ele>
        <time>2021-12-05T15:37:32Z</time>
      </trkpt>
      <trkpt lat="42.67043" lon="2.51048">
        <ele>573</ele>
        <time>2021-12-05T15:37:34Z</time>
      </trkpt>
      <trkpt lat="42.67069" lon="2.51053">
        <ele>573</ele>
        <time>2021-12-05T15:37:39Z</time>
      </trkpt>
      <trkpt lat="42.67115" lon="2.51072">
        <ele>571</ele>
        <time>2021-12-05T15:37:48Z</time>
      </trkpt>
      <trkpt lat="42.67145" lon="2.51081">
        <ele>571</ele>
        <time>2021-12-05T15:37:53Z</time>
      </trkpt>
      <trkpt lat="42.67172" lon="2.51099">
        <ele>572</ele>
        <time>2021-12-05T15:37:58Z</time>
      </trkpt>
      <trkpt lat="42.67182" lon="2.51116">
        <ele>573</ele>
        <time>2021-12-05T15:38:01Z</time>
      </trkpt>
      <trkpt lat="42.67185" lon="2.51125">
        <ele>573</ele>
        <time>2021-12-05T15:38:02Z</time>
      </trkpt>
      <trkpt lat="42.67184" lon="2.51137">
        <ele>572</ele>
        <time>2021-12-05T15:38:04Z</time>
      </trkpt>
      <trkpt lat="42.67178" lon="2.51149">
        <ele>571</ele>
        <time>2021-12-05T15:38:06Z</time>
      </trkpt>
      <trkpt lat="42.67161" lon="2.51168">
        <ele>569</ele>
        <time>2021-12-05T15:38:10Z</time>
      </trkpt>
      <trkpt lat="42.67135" lon="2.51203">
        <ele>567</ele>
        <time>2021-12-05T15:38:16Z</time>
      </trkpt>
      <trkpt lat="42.67125" lon="2.51257">
        <ele>567</ele>
        <time>2021-12-05T15:38:24Z</time>
      </trkpt>
      <trkpt lat="42.67124" lon="2.51276">
        <ele>567</ele>
        <time>2021-12-05T15:38:26Z</time>
      </trkpt>
      <trkpt lat="42.67125" lon="2.51289">
        <ele>567</ele>
        <time>2021-12-05T15:38:28Z</time>
      </trkpt>
      <trkpt lat="42.67129" lon="2.513">
        <ele>567</ele>
        <time>2021-12-05T15:38:29Z</time>
      </trkpt>
      <trkpt lat="42.67153" lon="2.51317">
        <ele>568</ele>
        <time>2021-12-05T15:38:34Z</time>
      </trkpt>
      <trkpt lat="42.6716" lon="2.51316">
        <ele>568</ele>
        <time>2021-12-05T15:38:36Z</time>
      </trkpt>
      <trkpt lat="42.67181" lon="2.51295">
        <ele>569</ele>
        <time>2021-12-05T15:38:40Z</time>
      </trkpt>
      <trkpt lat="42.6719" lon="2.51291">
        <ele>569</ele>
        <time>2021-12-05T15:38:42Z</time>
      </trkpt>
      <trkpt lat="42.6725" lon="2.51293">
        <ele>569</ele>
        <time>2021-12-05T15:38:53Z</time>
      </trkpt>
      <trkpt lat="42.67265" lon="2.51295">
        <ele>569</ele>
        <time>2021-12-05T15:38:55Z</time>
      </trkpt>
      <trkpt lat="42.67275" lon="2.51301">
        <ele>568</ele>
        <time>2021-12-05T15:38:57Z</time>
      </trkpt>
      <trkpt lat="42.67309" lon="2.51339">
        <ele>565</ele>
        <time>2021-12-05T15:39:05Z</time>
      </trkpt>
      <trkpt lat="42.67326" lon="2.51351">
        <ele>564</ele>
        <time>2021-12-05T15:39:08Z</time>
      </trkpt>
      <trkpt lat="42.67336" lon="2.51363">
        <ele>562</ele>
        <time>2021-12-05T15:39:11Z</time>
      </trkpt>
      <trkpt lat="42.67345" lon="2.51383">
        <ele>558</ele>
        <time>2021-12-05T15:39:14Z</time>
      </trkpt>
      <trkpt lat="42.67348" lon="2.51403">
        <ele>556</ele>
        <time>2021-12-05T15:39:17Z</time>
      </trkpt>
      <trkpt lat="42.67348" lon="2.51438">
        <ele>555</ele>
        <time>2021-12-05T15:39:21Z</time>
      </trkpt>
      <trkpt lat="42.67345" lon="2.51498">
        <ele>554</ele>
        <time>2021-12-05T15:39:29Z</time>
      </trkpt>
      <trkpt lat="42.67345" lon="2.51599">
        <ele>546</ele>
        <time>2021-12-05T15:39:42Z</time>
      </trkpt>
      <trkpt lat="42.67346" lon="2.51607">
        <ele>545</ele>
        <time>2021-12-05T15:39:43Z</time>
      </trkpt>
      <trkpt lat="42.6735" lon="2.51614">
        <ele>544</ele>
        <time>2021-12-05T15:39:44Z</time>
      </trkpt>
      <trkpt lat="42.67356" lon="2.51614">
        <ele>542</ele>
        <time>2021-12-05T15:39:45Z</time>
      </trkpt>
      <trkpt lat="42.6736" lon="2.51608">
        <ele>541</ele>
        <time>2021-12-05T15:39:47Z</time>
      </trkpt>
      <trkpt lat="42.67372" lon="2.51554">
        <ele>542</ele>
        <time>2021-12-05T15:39:54Z</time>
      </trkpt>
      <trkpt lat="42.67377" lon="2.51518">
        <ele>543</ele>
        <time>2021-12-05T15:39:59Z</time>
      </trkpt>
      <trkpt lat="42.67394" lon="2.5148">
        <ele>539</ele>
        <time>2021-12-05T15:40:05Z</time>
      </trkpt>
      <trkpt lat="42.67434" lon="2.51329">
        <ele>535</ele>
        <time>2021-12-05T15:40:26Z</time>
      </trkpt>
      <trkpt lat="42.6744" lon="2.51317">
        <ele>535</ele>
        <time>2021-12-05T15:40:27Z</time>
      </trkpt>
      <trkpt lat="42.67449" lon="2.51313">
        <ele>535</ele>
        <time>2021-12-05T15:40:29Z</time>
      </trkpt>
      <trkpt lat="42.67463" lon="2.51314">
        <ele>532</ele>
        <time>2021-12-05T15:40:32Z</time>
      </trkpt>
      <trkpt lat="42.67484" lon="2.51308">
        <ele>530</ele>
        <time>2021-12-05T15:40:35Z</time>
      </trkpt>
      <trkpt lat="42.67491" lon="2.51308">
        <ele>529</ele>
        <time>2021-12-05T15:40:37Z</time>
      </trkpt>
      <trkpt lat="42.67495" lon="2.51314">
        <ele>528</ele>
        <time>2021-12-05T15:40:38Z</time>
      </trkpt>
      <trkpt lat="42.67505" lon="2.51356">
        <ele>521</ele>
        <time>2021-12-05T15:40:43Z</time>
      </trkpt>
      <trkpt lat="42.67516" lon="2.51379">
        <ele>519</ele>
        <time>2021-12-05T15:40:47Z</time>
      </trkpt>
      <trkpt lat="42.67525" lon="2.51391">
        <ele>518</ele>
        <time>2021-12-05T15:40:49Z</time>
      </trkpt>
      <trkpt lat="42.67546" lon="2.51449">
        <ele>509</ele>
        <time>2021-12-05T15:40:58Z</time>
      </trkpt>
      <trkpt lat="42.67553" lon="2.51462">
        <ele>507</ele>
        <time>2021-12-05T15:41:00Z</time>
      </trkpt>
      <trkpt lat="42.6758" lon="2.51485">
        <ele>501</ele>
        <time>2021-12-05T15:41:06Z</time>
      </trkpt>
      <trkpt lat="42.67592" lon="2.51489">
        <ele>500</ele>
        <time>2021-12-05T15:41:08Z</time>
      </trkpt>
      <trkpt lat="42.67653" lon="2.51489">
        <ele>501</ele>
        <time>2021-12-05T15:41:19Z</time>
      </trkpt>
      <trkpt lat="42.67669" lon="2.51486">
        <ele>502</ele>
        <time>2021-12-05T15:41:21Z</time>
      </trkpt>
      <trkpt lat="42.67695" lon="2.51477">
        <ele>503</ele>
        <time>2021-12-05T15:41:26Z</time>
      </trkpt>
      <trkpt lat="42.6771" lon="2.51478">
        <ele>501</ele>
        <time>2021-12-05T15:41:29Z</time>
      </trkpt>
      <trkpt lat="42.67724" lon="2.51486">
        <ele>498</ele>
        <time>2021-12-05T15:41:32Z</time>
      </trkpt>
      <trkpt lat="42.67759" lon="2.51508">
        <ele>492</ele>
        <time>2021-12-05T15:41:38Z</time>
      </trkpt>
      <trkpt lat="42.67786" lon="2.51536">
        <ele>489</ele>
        <time>2021-12-05T15:41:45Z</time>
      </trkpt>
      <trkpt lat="42.67813" lon="2.5156">
        <ele>488</ele>
        <time>2021-12-05T15:41:50Z</time>
      </trkpt>
      <trkpt lat="42.67826" lon="2.51567">
        <ele>488</ele>
        <time>2021-12-05T15:41:53Z</time>
      </trkpt>
      <trkpt lat="42.67832" lon="2.51575">
        <ele>488</ele>
        <time>2021-12-05T15:41:54Z</time>
      </trkpt>
      <trkpt lat="42.67835" lon="2.51586">
        <ele>487</ele>
        <time>2021-12-05T15:41:56Z</time>
      </trkpt>
      <trkpt lat="42.67835" lon="2.51599">
        <ele>485</ele>
        <time>2021-12-05T15:41:57Z</time>
      </trkpt>
      <trkpt lat="42.67831" lon="2.51612">
        <ele>483</ele>
        <time>2021-12-05T15:41:59Z</time>
      </trkpt>
      <trkpt lat="42.67821" lon="2.51625">
        <ele>481</ele>
        <time>2021-12-05T15:42:02Z</time>
      </trkpt>
      <trkpt lat="42.67815" lon="2.51638">
        <ele>479</ele>
        <time>2021-12-05T15:42:04Z</time>
      </trkpt>
      <trkpt lat="42.67812" lon="2.5165">
        <ele>477</ele>
        <time>2021-12-05T15:42:05Z</time>
      </trkpt>
      <trkpt lat="42.67811" lon="2.5167">
        <ele>475</ele>
        <time>2021-12-05T15:42:08Z</time>
      </trkpt>
      <trkpt lat="42.6781" lon="2.51702">
        <ele>471</ele>
        <time>2021-12-05T15:42:12Z</time>
      </trkpt>
      <trkpt lat="42.67813" lon="2.51722">
        <ele>469</ele>
        <time>2021-12-05T15:42:15Z</time>
      </trkpt>
      <trkpt lat="42.67818" lon="2.51736">
        <ele>467</ele>
        <time>2021-12-05T15:42:17Z</time>
      </trkpt>
      <trkpt lat="42.67828" lon="2.5175">
        <ele>466</ele>
        <time>2021-12-05T15:42:20Z</time>
      </trkpt>
      <trkpt lat="42.67838" lon="2.51757">
        <ele>465</ele>
        <time>2021-12-05T15:42:22Z</time>
      </trkpt>
      <trkpt lat="42.67862" lon="2.51757">
        <ele>466</ele>
        <time>2021-12-05T15:42:26Z</time>
      </trkpt>
      <trkpt lat="42.67879" lon="2.51763">
        <ele>466</ele>
        <time>2021-12-05T15:42:29Z</time>
      </trkpt>
      <trkpt lat="42.67915" lon="2.51794">
        <ele>463</ele>
        <time>2021-12-05T15:42:36Z</time>
      </trkpt>
      <trkpt lat="42.67917" lon="2.51794">
        <ele>463</ele>
        <time>2021-12-05T15:42:37Z</time>
      </trkpt>
      <trkpt lat="42.67924" lon="2.51797">
        <ele>462</ele>
        <time>2021-12-05T15:42:38Z</time>
      </trkpt>
      <trkpt lat="42.67938" lon="2.51796">
        <ele>461</ele>
        <time>2021-12-05T15:42:41Z</time>
      </trkpt>
      <trkpt lat="42.67947" lon="2.51799">
        <ele>460</ele>
        <time>2021-12-05T15:42:42Z</time>
      </trkpt>
      <trkpt lat="42.6797" lon="2.51823">
        <ele>455</ele>
        <time>2021-12-05T15:42:47Z</time>
      </trkpt>
      <trkpt lat="42.67979" lon="2.51828">
        <ele>454</ele>
        <time>2021-12-05T15:42:49Z</time>
      </trkpt>
      <trkpt lat="42.67992" lon="2.5183">
        <ele>454</ele>
        <time>2021-12-05T15:42:52Z</time>
      </trkpt>
      <trkpt lat="42.68013" lon="2.51826">
        <ele>453</ele>
        <time>2021-12-05T15:42:55Z</time>
      </trkpt>
      <trkpt lat="42.68023" lon="2.51825">
        <ele>453</ele>
        <time>2021-12-05T15:42:57Z</time>
      </trkpt>
      <trkpt lat="42.68029" lon="2.51834">
        <ele>452</ele>
        <time>2021-12-05T15:42:59Z</time>
      </trkpt>
      <trkpt lat="42.68043" lon="2.51826">
        <ele>452</ele>
        <time>2021-12-05T15:43:01Z</time>
      </trkpt>
      <trkpt lat="42.68067" lon="2.51815">
        <ele>451</ele>
        <time>2021-12-05T15:43:06Z</time>
      </trkpt>
      <trkpt lat="42.68178" lon="2.51776">
        <ele>452</ele>
        <time>2021-12-05T15:43:26Z</time>
      </trkpt>
      <trkpt lat="42.68194" lon="2.51769">
        <ele>453</ele>
        <time>2021-12-05T15:43:29Z</time>
      </trkpt>
      <trkpt lat="42.68206" lon="2.51761">
        <ele>453</ele>
        <time>2021-12-05T15:43:32Z</time>
      </trkpt>
      <trkpt lat="42.68324" lon="2.51666">
        <ele>457</ele>
        <time>2021-12-05T15:43:56Z</time>
      </trkpt>
      <trkpt lat="42.68329" lon="2.51662">
        <ele>457</ele>
        <time>2021-12-05T15:43:57Z</time>
      </trkpt>
      <trkpt lat="42.68338" lon="2.51656">
        <ele>458</ele>
        <time>2021-12-05T15:43:59Z</time>
      </trkpt>
      <trkpt lat="42.68372" lon="2.51629">
        <ele>459</ele>
        <time>2021-12-05T15:44:06Z</time>
      </trkpt>
      <trkpt lat="42.68439" lon="2.51575">
        <ele>463</ele>
        <time>2021-12-05T15:44:20Z</time>
      </trkpt>
      <trkpt lat="42.68454" lon="2.51566">
        <ele>464</ele>
        <time>2021-12-05T15:44:23Z</time>
      </trkpt>
      <trkpt lat="42.68455" lon="2.51566">
        <ele>464</ele>
        <time>2021-12-05T15:44:23Z</time>
      </trkpt>
      <trkpt lat="42.68496" lon="2.51544">
        <ele>467</ele>
        <time>2021-12-05T15:44:31Z</time>
      </trkpt>
      <trkpt lat="42.68541" lon="2.51528">
        <ele>467</ele>
        <time>2021-12-05T15:44:39Z</time>
      </trkpt>
      <trkpt lat="42.68555" lon="2.51517">
        <ele>467</ele>
        <time>2021-12-05T15:44:42Z</time>
      </trkpt>
      <trkpt lat="42.68558" lon="2.5151">
        <ele>467</ele>
        <time>2021-12-05T15:44:43Z</time>
      </trkpt>
      <trkpt lat="42.68558" lon="2.51498">
        <ele>468</ele>
        <time>2021-12-05T15:44:44Z</time>
      </trkpt>
      <trkpt lat="42.68553" lon="2.51452">
        <ele>470</ele>
        <time>2021-12-05T15:44:51Z</time>
      </trkpt>
      <trkpt lat="42.6854" lon="2.51399">
        <ele>475</ele>
        <time>2021-12-05T15:44:58Z</time>
      </trkpt>
      <trkpt lat="42.68538" lon="2.51382">
        <ele>477</ele>
        <time>2021-12-05T15:45:00Z</time>
      </trkpt>
      <trkpt lat="42.68539" lon="2.51369">
        <ele>478</ele>
        <time>2021-12-05T15:45:02Z</time>
      </trkpt>
      <trkpt lat="42.68544" lon="2.51352">
        <ele>479</ele>
        <time>2021-12-05T15:45:04Z</time>
      </trkpt>
      <trkpt lat="42.68551" lon="2.51335">
        <ele>480</ele>
        <time>2021-12-05T15:45:07Z</time>
      </trkpt>
      <trkpt lat="42.6856" lon="2.51322">
        <ele>480</ele>
        <time>2021-12-05T15:45:09Z</time>
      </trkpt>
      <trkpt lat="42.68571" lon="2.51312">
        <ele>480</ele>
        <time>2021-12-05T15:45:11Z</time>
      </trkpt>
      <trkpt lat="42.68604" lon="2.513">
        <ele>480</ele>
        <time>2021-12-05T15:45:17Z</time>
      </trkpt>
      <trkpt lat="42.68662" lon="2.51284">
        <ele>481</ele>
        <time>2021-12-05T15:45:28Z</time>
      </trkpt>
      <trkpt lat="42.68677" lon="2.51276">
        <ele>482</ele>
        <time>2021-12-05T15:45:31Z</time>
      </trkpt>
      <trkpt lat="42.68707" lon="2.51247">
        <ele>483</ele>
        <time>2021-12-05T15:45:37Z</time>
      </trkpt>
      <trkpt lat="42.68736" lon="2.51225">
        <ele>483</ele>
        <time>2021-12-05T15:45:43Z</time>
      </trkpt>
      <trkpt lat="42.68753" lon="2.51208">
        <ele>483</ele>
        <time>2021-12-05T15:45:47Z</time>
      </trkpt>
      <trkpt lat="42.68764" lon="2.51193">
        <ele>483</ele>
        <time>2021-12-05T15:45:50Z</time>
      </trkpt>
      <trkpt lat="42.68771" lon="2.51178">
        <ele>483</ele>
        <time>2021-12-05T15:45:52Z</time>
      </trkpt>
      <trkpt lat="42.68778" lon="2.5115">
        <ele>483</ele>
        <time>2021-12-05T15:45:56Z</time>
      </trkpt>
      <trkpt lat="42.68784" lon="2.5114">
        <ele>483</ele>
        <time>2021-12-05T15:45:58Z</time>
      </trkpt>
      <trkpt lat="42.68812" lon="2.51104">
        <ele>482</ele>
        <time>2021-12-05T15:46:05Z</time>
      </trkpt>
      <trkpt lat="42.68823" lon="2.5108">
        <ele>483</ele>
        <time>2021-12-05T15:46:08Z</time>
      </trkpt>
      <trkpt lat="42.68851" lon="2.50919">
        <ele>490</ele>
        <time>2021-12-05T15:46:30Z</time>
      </trkpt>
      <trkpt lat="42.68853" lon="2.50885">
        <ele>492</ele>
        <time>2021-12-05T15:46:34Z</time>
      </trkpt>
      <trkpt lat="42.6885" lon="2.50874">
        <ele>492</ele>
        <time>2021-12-05T15:46:36Z</time>
      </trkpt>
      <trkpt lat="42.68833" lon="2.50846">
        <ele>493</ele>
        <time>2021-12-05T15:46:41Z</time>
      </trkpt>
      <trkpt lat="42.68828" lon="2.50833">
        <ele>493</ele>
        <time>2021-12-05T15:46:43Z</time>
      </trkpt>
      <trkpt lat="42.68828" lon="2.5081">
        <ele>494</ele>
        <time>2021-12-05T15:46:46Z</time>
      </trkpt>
      <trkpt lat="42.6883" lon="2.50804">
        <ele>494</ele>
        <time>2021-12-05T15:46:46Z</time>
      </trkpt>
      <trkpt lat="42.68839" lon="2.50796">
        <ele>495</ele>
        <time>2021-12-05T15:46:48Z</time>
      </trkpt>
      <trkpt lat="42.68848" lon="2.50792">
        <ele>495</ele>
        <time>2021-12-05T15:46:50Z</time>
      </trkpt>
      <trkpt lat="42.68861" lon="2.50795">
        <ele>495</ele>
        <time>2021-12-05T15:46:52Z</time>
      </trkpt>
      <trkpt lat="42.68878" lon="2.50811">
        <ele>495</ele>
        <time>2021-12-05T15:46:56Z</time>
      </trkpt>
      <trkpt lat="42.68887" lon="2.50816">
        <ele>495</ele>
        <time>2021-12-05T15:46:58Z</time>
      </trkpt>
      <trkpt lat="42.68896" lon="2.50817">
        <ele>495</ele>
        <time>2021-12-05T15:46:59Z</time>
      </trkpt>
      <trkpt lat="42.68906" lon="2.50814">
        <ele>495</ele>
        <time>2021-12-05T15:47:01Z</time>
      </trkpt>
      <trkpt lat="42.68948" lon="2.50774">
        <ele>499</ele>
        <time>2021-12-05T15:47:10Z</time>
      </trkpt>
      <trkpt lat="42.68955" lon="2.50762">
        <ele>499</ele>
        <time>2021-12-05T15:47:12Z</time>
      </trkpt>
      <trkpt lat="42.68958" lon="2.50754">
        <ele>500</ele>
        <time>2021-12-05T15:47:14Z</time>
      </trkpt>
      <trkpt lat="42.68966" lon="2.50699">
        <ele>502</ele>
        <time>2021-12-05T15:47:21Z</time>
      </trkpt>
      <trkpt lat="42.68966" lon="2.50678">
        <ele>502</ele>
        <time>2021-12-05T15:47:24Z</time>
      </trkpt>
      <trkpt lat="42.68955" lon="2.50631">
        <ele>504</ele>
        <time>2021-12-05T15:47:30Z</time>
      </trkpt>
      <trkpt lat="42.68933" lon="2.50551">
        <ele>507</ele>
        <time>2021-12-05T15:47:41Z</time>
      </trkpt>
      <trkpt lat="42.68932" lon="2.50537">
        <ele>508</ele>
        <time>2021-12-05T15:47:43Z</time>
      </trkpt>
      <trkpt lat="42.68933" lon="2.50481">
        <ele>510</ele>
        <time>2021-12-05T15:47:50Z</time>
      </trkpt>
      <trkpt lat="42.68931" lon="2.50459">
        <ele>511</ele>
        <time>2021-12-05T15:47:53Z</time>
      </trkpt>
      <trkpt lat="42.68925" lon="2.50431">
        <ele>513</ele>
        <time>2021-12-05T15:47:57Z</time>
      </trkpt>
      <trkpt lat="42.68924" lon="2.50415">
        <ele>513</ele>
        <time>2021-12-05T15:47:59Z</time>
      </trkpt>
      <trkpt lat="42.68928" lon="2.50403">
        <ele>513</ele>
        <time>2021-12-05T15:48:01Z</time>
      </trkpt>
      <trkpt lat="42.68935" lon="2.50391">
        <ele>514</ele>
        <time>2021-12-05T15:48:03Z</time>
      </trkpt>
      <trkpt lat="42.68962" lon="2.50374">
        <ele>514</ele>
        <time>2021-12-05T15:48:08Z</time>
      </trkpt>
      <trkpt lat="42.68968" lon="2.50366">
        <ele>515</ele>
        <time>2021-12-05T15:48:10Z</time>
      </trkpt>
      <trkpt lat="42.68975" lon="2.50354">
        <ele>515</ele>
        <time>2021-12-05T15:48:12Z</time>
      </trkpt>
      <trkpt lat="42.68993" lon="2.50261">
        <ele>520</ele>
        <time>2021-12-05T15:48:24Z</time>
      </trkpt>
      <trkpt lat="42.68998" lon="2.50244">
        <ele>522</ele>
        <time>2021-12-05T15:48:27Z</time>
      </trkpt>
      <trkpt lat="42.69006" lon="2.50235">
        <ele>522</ele>
        <time>2021-12-05T15:48:29Z</time>
      </trkpt>
      <trkpt lat="42.69018" lon="2.50227">
        <ele>523</ele>
        <time>2021-12-05T15:48:31Z</time>
      </trkpt>
      <trkpt lat="42.69058" lon="2.50181">
        <ele>526</ele>
        <time>2021-12-05T15:48:40Z</time>
      </trkpt>
      <trkpt lat="42.69091" lon="2.50139">
        <ele>528</ele>
        <time>2021-12-05T15:48:48Z</time>
      </trkpt>
      <trkpt lat="42.69101" lon="2.50116">
        <ele>530</ele>
        <time>2021-12-05T15:48:52Z</time>
      </trkpt>
      <trkpt lat="42.69111" lon="2.50103">
        <ele>531</ele>
        <time>2021-12-05T15:48:54Z</time>
      </trkpt>
      <trkpt lat="42.6912" lon="2.50093">
        <ele>532</ele>
        <time>2021-12-05T15:48:56Z</time>
      </trkpt>
      <trkpt lat="42.69255" lon="2.50033">
        <ele>544</ele>
        <time>2021-12-05T15:49:22Z</time>
      </trkpt>
      <trkpt lat="42.69267" lon="2.50034">
        <ele>546</ele>
        <time>2021-12-05T15:49:24Z</time>
      </trkpt>
      <trkpt lat="42.69276" lon="2.50042">
        <ele>546</ele>
        <time>2021-12-05T15:49:26Z</time>
      </trkpt>
      <trkpt lat="42.69282" lon="2.50055">
        <ele>545</ele>
        <time>2021-12-05T15:49:28Z</time>
      </trkpt>
      <trkpt lat="42.69283" lon="2.50066">
        <ele>545</ele>
        <time>2021-12-05T15:49:29Z</time>
      </trkpt>
      <trkpt lat="42.6928" lon="2.50076">
        <ele>543</ele>
        <time>2021-12-05T15:49:31Z</time>
      </trkpt>
      <trkpt lat="42.69272" lon="2.50093">
        <ele>540</ele>
        <time>2021-12-05T15:49:33Z</time>
      </trkpt>
      <trkpt lat="42.69269" lon="2.50107">
        <ele>539</ele>
        <time>2021-12-05T15:49:35Z</time>
      </trkpt>
      <trkpt lat="42.6927" lon="2.50124">
        <ele>538</ele>
        <time>2021-12-05T15:49:37Z</time>
      </trkpt>
      <trkpt lat="42.6928" lon="2.50164">
        <ele>537</ele>
        <time>2021-12-05T15:49:43Z</time>
      </trkpt>
      <trkpt lat="42.6929" lon="2.5018">
        <ele>537</ele>
        <time>2021-12-05T15:49:46Z</time>
      </trkpt>
      <trkpt lat="42.69301" lon="2.50187">
        <ele>538</ele>
        <time>2021-12-05T15:49:48Z</time>
      </trkpt>
      <trkpt lat="42.69322" lon="2.50199">
        <ele>540</ele>
        <time>2021-12-05T15:49:52Z</time>
      </trkpt>
      <trkpt lat="42.69338" lon="2.50203">
        <ele>542</ele>
        <time>2021-12-05T15:49:55Z</time>
      </trkpt>
      <trkpt lat="42.69506" lon="2.50208">
        <ele>552</ele>
        <time>2021-12-05T15:50:25Z</time>
      </trkpt>
      <trkpt lat="42.69526" lon="2.50212">
        <ele>554</ele>
        <time>2021-12-05T15:50:28Z</time>
      </trkpt>
      <trkpt lat="42.69552" lon="2.50225">
        <ele>556</ele>
        <time>2021-12-05T15:50:33Z</time>
      </trkpt>
      <trkpt lat="42.6957" lon="2.50239">
        <ele>555</ele>
        <time>2021-12-05T15:50:37Z</time>
      </trkpt>
      <trkpt lat="42.6958" lon="2.50252">
        <ele>554</ele>
        <time>2021-12-05T15:50:39Z</time>
      </trkpt>
      <trkpt lat="42.69603" lon="2.50305">
        <ele>554</ele>
        <time>2021-12-05T15:50:47Z</time>
      </trkpt>
      <trkpt lat="42.69614" lon="2.50321">
        <ele>555</ele>
        <time>2021-12-05T15:50:50Z</time>
      </trkpt>
      <trkpt lat="42.69651" lon="2.50363">
        <ele>559</ele>
        <time>2021-12-05T15:50:59Z</time>
      </trkpt>
      <trkpt lat="42.69657" lon="2.50379">
        <ele>559</ele>
        <time>2021-12-05T15:51:01Z</time>
      </trkpt>
      <trkpt lat="42.69661" lon="2.50431">
        <ele>556</ele>
        <time>2021-12-05T15:51:08Z</time>
      </trkpt>
      <trkpt lat="42.69666" lon="2.50452">
        <ele>556</ele>
        <time>2021-12-05T15:51:11Z</time>
      </trkpt>
      <trkpt lat="42.69676" lon="2.50469">
        <ele>558</ele>
        <time>2021-12-05T15:51:14Z</time>
      </trkpt>
      <trkpt lat="42.6971" lon="2.50528">
        <ele>563</ele>
        <time>2021-12-05T15:51:23Z</time>
      </trkpt>
      <trkpt lat="42.69719" lon="2.50552">
        <ele>564</ele>
        <time>2021-12-05T15:51:27Z</time>
      </trkpt>
      <trkpt lat="42.69721" lon="2.50573">
        <ele>563</ele>
        <time>2021-12-05T15:51:30Z</time>
      </trkpt>
      <trkpt lat="42.69724" lon="2.50612">
        <ele>564</ele>
        <time>2021-12-05T15:51:35Z</time>
      </trkpt>
      <trkpt lat="42.69725" lon="2.50643">
        <ele>565</ele>
        <time>2021-12-05T15:51:39Z</time>
      </trkpt>
      <trkpt lat="42.69722" lon="2.50662">
        <ele>565</ele>
        <time>2021-12-05T15:51:41Z</time>
      </trkpt>
      <trkpt lat="42.69704" lon="2.50696">
        <ele>566</ele>
        <time>2021-12-05T15:51:47Z</time>
      </trkpt>
      <trkpt lat="42.69688" lon="2.50726">
        <ele>568</ele>
        <time>2021-12-05T15:51:52Z</time>
      </trkpt>
      <trkpt lat="42.69671" lon="2.50747">
        <ele>568</ele>
        <time>2021-12-05T15:51:56Z</time>
      </trkpt>
      <trkpt lat="42.69632" lon="2.50775">
        <ele>565</ele>
        <time>2021-12-05T15:52:04Z</time>
      </trkpt>
      <trkpt lat="42.69613" lon="2.50791">
        <ele>564</ele>
        <time>2021-12-05T15:52:08Z</time>
      </trkpt>
      <trkpt lat="42.69593" lon="2.50818">
        <ele>563</ele>
        <time>2021-12-05T15:52:13Z</time>
      </trkpt>
      <trkpt lat="42.69582" lon="2.50839">
        <ele>563</ele>
        <time>2021-12-05T15:52:16Z</time>
      </trkpt>
      <trkpt lat="42.69579" lon="2.50854">
        <ele>562</ele>
        <time>2021-12-05T15:52:18Z</time>
      </trkpt>
      <trkpt lat="42.69581" lon="2.50873">
        <ele>562</ele>
        <time>2021-12-05T15:52:21Z</time>
      </trkpt>
      <trkpt lat="42.69587" lon="2.50889">
        <ele>563</ele>
        <time>2021-12-05T15:52:23Z</time>
      </trkpt>
      <trkpt lat="42.69612" lon="2.5094">
        <ele>568</ele>
        <time>2021-12-05T15:52:31Z</time>
      </trkpt>
      <trkpt lat="42.6967" lon="2.51">
        <ele>574</ele>
        <time>2021-12-05T15:52:44Z</time>
      </trkpt>
      <trkpt lat="42.6971" lon="2.51039">
        <ele>570</ele>
        <time>2021-12-05T15:52:53Z</time>
      </trkpt>
      <trkpt lat="42.6972" lon="2.51042">
        <ele>571</ele>
        <time>2021-12-05T15:52:55Z</time>
      </trkpt>
      <trkpt lat="42.69732" lon="2.51042">
        <ele>572</ele>
        <time>2021-12-05T15:52:57Z</time>
      </trkpt>
      <trkpt lat="42.69778" lon="2.51023">
        <ele>580</ele>
        <time>2021-12-05T15:53:05Z</time>
      </trkpt>
      <trkpt lat="42.69806" lon="2.5102">
        <ele>581</ele>
        <time>2021-12-05T15:53:10Z</time>
      </trkpt>
      <trkpt lat="42.69835" lon="2.51022">
        <ele>580</ele>
        <time>2021-12-05T15:53:15Z</time>
      </trkpt>
      <trkpt lat="42.69885" lon="2.51035">
        <ele>578</ele>
        <time>2021-12-05T15:53:24Z</time>
      </trkpt>
      <trkpt lat="42.69908" lon="2.51036">
        <ele>579</ele>
        <time>2021-12-05T15:53:29Z</time>
      </trkpt>
      <trkpt lat="42.69923" lon="2.51031">
        <ele>580</ele>
        <time>2021-12-05T15:53:31Z</time>
      </trkpt>
      <trkpt lat="42.69965" lon="2.51012">
        <ele>584</ele>
        <time>2021-12-05T15:53:39Z</time>
      </trkpt>
      <trkpt lat="42.70024" lon="2.50983">
        <ele>588</ele>
        <time>2021-12-05T15:53:50Z</time>
      </trkpt>
      <trkpt lat="42.70039" lon="2.50979">
        <ele>588</ele>
        <time>2021-12-05T15:53:53Z</time>
      </trkpt>
      <trkpt lat="42.7008" lon="2.50986">
        <ele>585</ele>
        <time>2021-12-05T15:54:00Z</time>
      </trkpt>
      <trkpt lat="42.7009" lon="2.50984">
        <ele>585</ele>
        <time>2021-12-05T15:54:02Z</time>
      </trkpt>
      <trkpt lat="42.70099" lon="2.50979">
        <ele>585</ele>
        <time>2021-12-05T15:54:04Z</time>
      </trkpt>
      <trkpt lat="42.70108" lon="2.50962">
        <ele>588</ele>
        <time>2021-12-05T15:54:07Z</time>
      </trkpt>
      <trkpt lat="42.70117" lon="2.50926">
        <ele>593</ele>
        <time>2021-12-05T15:54:12Z</time>
      </trkpt>
      <trkpt lat="42.70124" lon="2.5091">
        <ele>596</ele>
        <time>2021-12-05T15:54:14Z</time>
      </trkpt>
      <trkpt lat="42.70137" lon="2.50897">
        <ele>598</ele>
        <time>2021-12-05T15:54:17Z</time>
      </trkpt>
      <trkpt lat="42.70147" lon="2.50893">
        <ele>598</ele>
        <time>2021-12-05T15:54:19Z</time>
      </trkpt>
      <trkpt lat="42.70158" lon="2.50894">
        <ele>598</ele>
        <time>2021-12-05T15:54:21Z</time>
      </trkpt>
      <trkpt lat="42.70177" lon="2.50905">
        <ele>597</ele>
        <time>2021-12-05T15:54:24Z</time>
      </trkpt>
      <trkpt lat="42.70207" lon="2.50938">
        <ele>600</ele>
        <time>2021-12-05T15:54:31Z</time>
      </trkpt>
      <trkpt lat="42.70216" lon="2.50951">
        <ele>601</ele>
        <time>2021-12-05T15:54:34Z</time>
      </trkpt>
      <trkpt lat="42.70222" lon="2.50969">
        <ele>601</ele>
        <time>2021-12-05T15:54:36Z</time>
      </trkpt>
      <trkpt lat="42.70224" lon="2.50992">
        <ele>600</ele>
        <time>2021-12-05T15:54:39Z</time>
      </trkpt>
      <trkpt lat="42.70222" lon="2.51018">
        <ele>599</ele>
        <time>2021-12-05T15:54:43Z</time>
      </trkpt>
      <trkpt lat="42.70199" lon="2.51122">
        <ele>594</ele>
        <time>2021-12-05T15:54:57Z</time>
      </trkpt>
      <trkpt lat="42.70198" lon="2.51165">
        <ele>596</ele>
        <time>2021-12-05T15:55:03Z</time>
      </trkpt>
      <trkpt lat="42.70194" lon="2.51208">
        <ele>597</ele>
        <time>2021-12-05T15:55:08Z</time>
      </trkpt>
      <trkpt lat="42.70195" lon="2.51223">
        <ele>597</ele>
        <time>2021-12-05T15:55:10Z</time>
      </trkpt>
      <trkpt lat="42.70206" lon="2.51251">
        <ele>602</ele>
        <time>2021-12-05T15:55:14Z</time>
      </trkpt>
      <trkpt lat="42.70209" lon="2.51265">
        <ele>603</ele>
        <time>2021-12-05T15:55:16Z</time>
      </trkpt>
      <trkpt lat="42.70209" lon="2.51286">
        <ele>603</ele>
        <time>2021-12-05T15:55:19Z</time>
      </trkpt>
      <trkpt lat="42.70203" lon="2.51385">
        <ele>605</ele>
        <time>2021-12-05T15:55:32Z</time>
      </trkpt>
      <trkpt lat="42.70193" lon="2.51464">
        <ele>606</ele>
        <time>2021-12-05T15:55:42Z</time>
      </trkpt>
      <trkpt lat="42.70176" lon="2.51513">
        <ele>605</ele>
        <time>2021-12-05T15:55:50Z</time>
      </trkpt>
      <trkpt lat="42.70172" lon="2.51536">
        <ele>606</ele>
        <time>2021-12-05T15:55:53Z</time>
      </trkpt>
      <trkpt lat="42.7017" lon="2.51559">
        <ele>606</ele>
        <time>2021-12-05T15:55:56Z</time>
      </trkpt>
      <trkpt lat="42.70175" lon="2.51579">
        <ele>607</ele>
        <time>2021-12-05T15:55:58Z</time>
      </trkpt>
      <trkpt lat="42.70182" lon="2.51588">
        <ele>608</ele>
        <time>2021-12-05T15:56:00Z</time>
      </trkpt>
      <trkpt lat="42.70188" lon="2.51592">
        <ele>608</ele>
        <time>2021-12-05T15:56:01Z</time>
      </trkpt>
      <trkpt lat="42.70199" lon="2.51596">
        <ele>609</ele>
        <time>2021-12-05T15:56:03Z</time>
      </trkpt>
      <trkpt lat="42.70258" lon="2.51602">
        <ele>612</ele>
        <time>2021-12-05T15:56:14Z</time>
      </trkpt>
      <trkpt lat="42.70276" lon="2.51609">
        <ele>612</ele>
        <time>2021-12-05T15:56:17Z</time>
      </trkpt>
      <trkpt lat="42.70313" lon="2.51629">
        <ele>611</ele>
        <time>2021-12-05T15:56:24Z</time>
      </trkpt>
      <trkpt lat="42.70333" lon="2.51634">
        <ele>611</ele>
        <time>2021-12-05T15:56:28Z</time>
      </trkpt>
      <trkpt lat="42.70347" lon="2.51634">
        <ele>611</ele>
        <time>2021-12-05T15:56:30Z</time>
      </trkpt>
      <trkpt lat="42.70361" lon="2.5163">
        <ele>611</ele>
        <time>2021-12-05T15:56:33Z</time>
      </trkpt>
      <trkpt lat="42.70386" lon="2.5161">
        <ele>613</ele>
        <time>2021-12-05T15:56:38Z</time>
      </trkpt>
      <trkpt lat="42.70418" lon="2.51578">
        <ele>617</ele>
        <time>2021-12-05T15:56:45Z</time>
      </trkpt>
      <trkpt lat="42.70428" lon="2.51571">
        <ele>617</ele>
        <time>2021-12-05T15:56:47Z</time>
      </trkpt>
      <trkpt lat="42.70438" lon="2.5157">
        <ele>617</ele>
        <time>2021-12-05T15:56:49Z</time>
      </trkpt>
      <trkpt lat="42.70445" lon="2.51573">
        <ele>617</ele>
        <time>2021-12-05T15:56:50Z</time>
      </trkpt>
      <trkpt lat="42.70465" lon="2.51587">
        <ele>615</ele>
        <time>2021-12-05T15:56:54Z</time>
      </trkpt>
      <trkpt lat="42.70477" lon="2.51592">
        <ele>615</ele>
        <time>2021-12-05T15:56:56Z</time>
      </trkpt>
      <trkpt lat="42.70495" lon="2.51592">
        <ele>614</ele>
        <time>2021-12-05T15:57:00Z</time>
      </trkpt>
      <trkpt lat="42.7051" lon="2.5159">
        <ele>615</ele>
        <time>2021-12-05T15:57:02Z</time>
      </trkpt>
      <trkpt lat="42.70565" lon="2.51568">
        <ele>619</ele>
        <time>2021-12-05T15:57:13Z</time>
      </trkpt>
      <trkpt lat="42.70584" lon="2.51566">
        <ele>619</ele>
        <time>2021-12-05T15:57:16Z</time>
      </trkpt>
      <trkpt lat="42.70595" lon="2.5157">
        <ele>619</ele>
        <time>2021-12-05T15:57:18Z</time>
      </trkpt>
      <trkpt lat="42.70607" lon="2.51578">
        <ele>618</ele>
        <time>2021-12-05T15:57:20Z</time>
      </trkpt>
      <trkpt lat="42.70634" lon="2.51601">
        <ele>617</ele>
        <time>2021-12-05T15:57:26Z</time>
      </trkpt>
      <trkpt lat="42.70646" lon="2.51604">
        <ele>616</ele>
        <time>2021-12-05T15:57:28Z</time>
      </trkpt>
      <trkpt lat="42.70657" lon="2.51604">
        <ele>616</ele>
        <time>2021-12-05T15:57:30Z</time>
      </trkpt>
      <trkpt lat="42.70683" lon="2.51598">
        <ele>616</ele>
        <time>2021-12-05T15:57:35Z</time>
      </trkpt>
      <trkpt lat="42.70698" lon="2.51598">
        <ele>616</ele>
        <time>2021-12-05T15:57:38Z</time>
      </trkpt>
      <trkpt lat="42.70716" lon="2.51603">
        <ele>615</ele>
        <time>2021-12-05T15:57:41Z</time>
      </trkpt>
      <trkpt lat="42.70761" lon="2.51623">
        <ele>612</ele>
        <time>2021-12-05T15:57:49Z</time>
      </trkpt>
      <trkpt lat="42.70773" lon="2.51625">
        <ele>611</ele>
        <time>2021-12-05T15:57:51Z</time>
      </trkpt>
      <trkpt lat="42.70786" lon="2.51624">
        <ele>610</ele>
        <time>2021-12-05T15:57:54Z</time>
      </trkpt>
      <trkpt lat="42.70798" lon="2.51617">
        <ele>609</ele>
        <time>2021-12-05T15:57:56Z</time>
      </trkpt>
      <trkpt lat="42.70813" lon="2.51604">
        <ele>609</ele>
        <time>2021-12-05T15:57:59Z</time>
      </trkpt>
      <trkpt lat="42.70829" lon="2.51586">
        <ele>609</ele>
        <time>2021-12-05T15:58:03Z</time>
      </trkpt>
      <trkpt lat="42.70847" lon="2.51558">
        <ele>608</ele>
        <time>2021-12-05T15:58:08Z</time>
      </trkpt>
      <trkpt lat="42.70864" lon="2.51528">
        <ele>608</ele>
        <time>2021-12-05T15:58:13Z</time>
      </trkpt>
      <trkpt lat="42.70917" lon="2.51411">
        <ele>606</ele>
        <time>2021-12-05T15:58:31Z</time>
      </trkpt>
      <trkpt lat="42.70938" lon="2.51372">
        <ele>603</ele>
        <time>2021-12-05T15:58:37Z</time>
      </trkpt>
      <trkpt lat="42.70947" lon="2.51345">
        <ele>602</ele>
        <time>2021-12-05T15:58:41Z</time>
      </trkpt>
      <trkpt lat="42.70954" lon="2.51333">
        <ele>602</ele>
        <time>2021-12-05T15:58:43Z</time>
      </trkpt>
      <trkpt lat="42.70965" lon="2.51318">
        <ele>600</ele>
        <time>2021-12-05T15:58:46Z</time>
      </trkpt>
      <trkpt lat="42.7097" lon="2.51312">
        <ele>600</ele>
        <time>2021-12-05T15:58:47Z</time>
      </trkpt>
      <trkpt lat="42.7096" lon="2.51296">
        <ele>599</ele>
        <time>2021-12-05T15:58:50Z</time>
      </trkpt>
      <trkpt lat="42.70951" lon="2.51288">
        <ele>598</ele>
        <time>2021-12-05T15:58:51Z</time>
      </trkpt>
      <trkpt lat="42.70934" lon="2.51278">
        <ele>597</ele>
        <time>2021-12-05T15:58:55Z</time>
      </trkpt>
      <trkpt lat="42.70921" lon="2.51277">
        <ele>596</ele>
        <time>2021-12-05T15:58:57Z</time>
      </trkpt>
      <trkpt lat="42.70887" lon="2.51282">
        <ele>599</ele>
        <time>2021-12-05T15:59:03Z</time>
      </trkpt>
      <trkpt lat="42.70873" lon="2.51278">
        <ele>599</ele>
        <time>2021-12-05T15:59:06Z</time>
      </trkpt>
      <trkpt lat="42.70867" lon="2.51273">
        <ele>599</ele>
        <time>2021-12-05T15:59:07Z</time>
      </trkpt>
      <trkpt lat="42.70864" lon="2.51271">
        <ele>599</ele>
        <time>2021-12-05T15:59:08Z</time>
      </trkpt>
      <trkpt lat="42.70855" lon="2.51258">
        <ele>598</ele>
        <time>2021-12-05T15:59:10Z</time>
      </trkpt>
      <trkpt lat="42.70847" lon="2.51243">
        <ele>597</ele>
        <time>2021-12-05T15:59:12Z</time>
      </trkpt>
      <trkpt lat="42.70839" lon="2.51218">
        <ele>595</ele>
        <time>2021-12-05T15:59:16Z</time>
      </trkpt>
      <trkpt lat="42.70831" lon="2.51161">
        <ele>590</ele>
        <time>2021-12-05T15:59:23Z</time>
      </trkpt>
      <trkpt lat="42.70819" lon="2.51141">
        <ele>591</ele>
        <time>2021-12-05T15:59:27Z</time>
      </trkpt>
      <trkpt lat="42.70814" lon="2.51129">
        <ele>591</ele>
        <time>2021-12-05T15:59:29Z</time>
      </trkpt>
      <trkpt lat="42.70812" lon="2.51116">
        <ele>591</ele>
        <time>2021-12-05T15:59:30Z</time>
      </trkpt>
      <trkpt lat="42.70814" lon="2.51099">
        <ele>590</ele>
        <time>2021-12-05T15:59:33Z</time>
      </trkpt>
      <trkpt lat="42.70819" lon="2.5108">
        <ele>588</ele>
        <time>2021-12-05T15:59:35Z</time>
      </trkpt>
      <trkpt lat="42.70819" lon="2.51065">
        <ele>586</ele>
        <time>2021-12-05T15:59:37Z</time>
      </trkpt>
      <trkpt lat="42.7081" lon="2.51013">
        <ele>584</ele>
        <time>2021-12-05T15:59:44Z</time>
      </trkpt>
      <trkpt lat="42.708" lon="2.50983">
        <ele>584</ele>
        <time>2021-12-05T15:59:49Z</time>
      </trkpt>
      <trkpt lat="42.70798" lon="2.50965">
        <ele>584</ele>
        <time>2021-12-05T15:59:51Z</time>
      </trkpt>
      <trkpt lat="42.70799" lon="2.50963">
        <ele>584</ele>
        <time>2021-12-05T15:59:51Z</time>
      </trkpt>
      <trkpt lat="42.708" lon="2.50945">
        <ele>583</ele>
        <time>2021-12-05T15:59:54Z</time>
      </trkpt>
      <trkpt lat="42.70805" lon="2.50911">
        <ele>582</ele>
        <time>2021-12-05T15:59:58Z</time>
      </trkpt>
      <trkpt lat="42.7081" lon="2.50869">
        <ele>581</ele>
        <time>2021-12-05T16:00:04Z</time>
      </trkpt>
      <trkpt lat="42.70811" lon="2.5085">
        <ele>581</ele>
        <time>2021-12-05T16:00:06Z</time>
      </trkpt>
      <trkpt lat="42.70812" lon="2.50811">
        <ele>580</ele>
        <time>2021-12-05T16:00:11Z</time>
      </trkpt>
      <trkpt lat="42.70813" lon="2.50794">
        <ele>580</ele>
        <time>2021-12-05T16:00:13Z</time>
      </trkpt>
      <trkpt lat="42.70816" lon="2.50782">
        <ele>579</ele>
        <time>2021-12-05T16:00:15Z</time>
      </trkpt>
      <trkpt lat="42.70822" lon="2.5077">
        <ele>577</ele>
        <time>2021-12-05T16:00:17Z</time>
      </trkpt>
      <trkpt lat="42.70855" lon="2.50719">
        <ele>568</ele>
        <time>2021-12-05T16:00:26Z</time>
      </trkpt>
      <trkpt lat="42.70862" lon="2.50702">
        <ele>566</ele>
        <time>2021-12-05T16:00:28Z</time>
      </trkpt>
      <trkpt lat="42.70865" lon="2.50685">
        <ele>565</ele>
        <time>2021-12-05T16:00:31Z</time>
      </trkpt>
      <trkpt lat="42.70864" lon="2.50669">
        <ele>566</ele>
        <time>2021-12-05T16:00:33Z</time>
      </trkpt>
      <trkpt lat="42.70858" lon="2.50653">
        <ele>567</ele>
        <time>2021-12-05T16:00:35Z</time>
      </trkpt>
      <trkpt lat="42.70846" lon="2.50639">
        <ele>569</ele>
        <time>2021-12-05T16:00:38Z</time>
      </trkpt>
      <trkpt lat="42.70823" lon="2.5062">
        <ele>574</ele>
        <time>2021-12-05T16:00:43Z</time>
      </trkpt>
      <trkpt lat="42.70818" lon="2.50613">
        <ele>575</ele>
        <time>2021-12-05T16:00:44Z</time>
      </trkpt>
      <trkpt lat="42.70815" lon="2.50603">
        <ele>575</ele>
        <time>2021-12-05T16:00:45Z</time>
      </trkpt>
      <trkpt lat="42.70817" lon="2.50591">
        <ele>574</ele>
        <time>2021-12-05T16:00:47Z</time>
      </trkpt>
      <trkpt lat="42.70823" lon="2.50584">
        <ele>572</ele>
        <time>2021-12-05T16:00:49Z</time>
      </trkpt>
      <trkpt lat="42.7083" lon="2.5058">
        <ele>571</ele>
        <time>2021-12-05T16:00:50Z</time>
      </trkpt>
      <trkpt lat="42.7088" lon="2.50567">
        <ele>562</ele>
        <time>2021-12-05T16:00:59Z</time>
      </trkpt>
      <trkpt lat="42.70889" lon="2.50562">
        <ele>561</ele>
        <time>2021-12-05T16:01:01Z</time>
      </trkpt>
      <trkpt lat="42.7093" lon="2.50529">
        <ele>556</ele>
        <time>2021-12-05T16:01:09Z</time>
      </trkpt>
      <trkpt lat="42.70941" lon="2.50517">
        <ele>554</ele>
        <time>2021-12-05T16:01:12Z</time>
      </trkpt>
      <trkpt lat="42.70947" lon="2.50504">
        <ele>553</ele>
        <time>2021-12-05T16:01:14Z</time>
      </trkpt>
      <trkpt lat="42.70952" lon="2.50485">
        <ele>555</ele>
        <time>2021-12-05T16:01:16Z</time>
      </trkpt>
      <trkpt lat="42.7096" lon="2.50464">
        <ele>557</ele>
        <time>2021-12-05T16:01:19Z</time>
      </trkpt>
      <trkpt lat="42.70971" lon="2.50445">
        <ele>557</ele>
        <time>2021-12-05T16:01:23Z</time>
      </trkpt>
      <trkpt lat="42.70984" lon="2.50429">
        <ele>555</ele>
        <time>2021-12-05T16:01:26Z</time>
      </trkpt>
      <trkpt lat="42.71" lon="2.50418">
        <ele>552</ele>
        <time>2021-12-05T16:01:29Z</time>
      </trkpt>
      <trkpt lat="42.71033" lon="2.50409">
        <ele>542</ele>
        <time>2021-12-05T16:01:35Z</time>
      </trkpt>
      <trkpt lat="42.71046" lon="2.504">
        <ele>540</ele>
        <time>2021-12-05T16:01:37Z</time>
      </trkpt>
      <trkpt lat="42.71057" lon="2.50386">
        <ele>538</ele>
        <time>2021-12-05T16:01:40Z</time>
      </trkpt>
      <trkpt lat="42.71075" lon="2.50345">
        <ele>538</ele>
        <time>2021-12-05T16:01:46Z</time>
      </trkpt>
      <trkpt lat="42.71079" lon="2.50327">
        <ele>539</ele>
        <time>2021-12-05T16:01:49Z</time>
      </trkpt>
      <trkpt lat="42.71079" lon="2.50284">
        <ele>543</ele>
        <time>2021-12-05T16:01:54Z</time>
      </trkpt>
      <trkpt lat="42.71083" lon="2.50269">
        <ele>543</ele>
        <time>2021-12-05T16:01:57Z</time>
      </trkpt>
      <trkpt lat="42.71096" lon="2.5024">
        <ele>538</ele>
        <time>2021-12-05T16:02:01Z</time>
      </trkpt>
      <trkpt lat="42.71099" lon="2.50219">
        <ele>535</ele>
        <time>2021-12-05T16:02:04Z</time>
      </trkpt>
      <trkpt lat="42.71098" lon="2.50175">
        <ele>534</ele>
        <time>2021-12-05T16:02:10Z</time>
      </trkpt>
      <trkpt lat="42.71094" lon="2.50136">
        <ele>529</ele>
        <time>2021-12-05T16:02:15Z</time>
      </trkpt>
      <trkpt lat="42.7109" lon="2.50119">
        <ele>527</ele>
        <time>2021-12-05T16:02:17Z</time>
      </trkpt>
      <trkpt lat="42.71084" lon="2.50107">
        <ele>527</ele>
        <time>2021-12-05T16:02:19Z</time>
      </trkpt>
      <trkpt lat="42.71069" lon="2.50095">
        <ele>530</ele>
        <time>2021-12-05T16:02:22Z</time>
      </trkpt>
      <trkpt lat="42.71047" lon="2.50089">
        <ele>538</ele>
        <time>2021-12-05T16:02:26Z</time>
      </trkpt>
      <trkpt lat="42.71039" lon="2.50076">
        <ele>540</ele>
        <time>2021-12-05T16:02:28Z</time>
      </trkpt>
      <trkpt lat="42.71036" lon="2.50066">
        <ele>541</ele>
        <time>2021-12-05T16:02:30Z</time>
      </trkpt>
      <trkpt lat="42.7104" lon="2.50041">
        <ele>539</ele>
        <time>2021-12-05T16:02:33Z</time>
      </trkpt>
      <trkpt lat="42.71048" lon="2.50013">
        <ele>535</ele>
        <time>2021-12-05T16:02:37Z</time>
      </trkpt>
      <trkpt lat="42.71056" lon="2.49998">
        <ele>531</ele>
        <time>2021-12-05T16:02:39Z</time>
      </trkpt>
      <trkpt lat="42.71069" lon="2.49978">
        <ele>526</ele>
        <time>2021-12-05T16:02:43Z</time>
      </trkpt>
      <trkpt lat="42.71076" lon="2.4996">
        <ele>524</ele>
        <time>2021-12-05T16:02:45Z</time>
      </trkpt>
      <trkpt lat="42.71095" lon="2.49818">
        <ele>519</ele>
        <time>2021-12-05T16:03:04Z</time>
      </trkpt>
      <trkpt lat="42.71107" lon="2.49773">
        <ele>508</ele>
        <time>2021-12-05T16:03:11Z</time>
      </trkpt>
      <trkpt lat="42.71107" lon="2.4976">
        <ele>507</ele>
        <time>2021-12-05T16:03:12Z</time>
      </trkpt>
      <trkpt lat="42.71105" lon="2.49749">
        <ele>507</ele>
        <time>2021-12-05T16:03:14Z</time>
      </trkpt>
      <trkpt lat="42.71089" lon="2.49719">
        <ele>506</ele>
        <time>2021-12-05T16:03:19Z</time>
      </trkpt>
      <trkpt lat="42.71076" lon="2.49701">
        <ele>504</ele>
        <time>2021-12-05T16:03:22Z</time>
      </trkpt>
      <trkpt lat="42.71069" lon="2.49696">
        <ele>504</ele>
        <time>2021-12-05T16:03:23Z</time>
      </trkpt>
      <trkpt lat="42.71061" lon="2.49694">
        <ele>505</ele>
        <time>2021-12-05T16:03:25Z</time>
      </trkpt>
      <trkpt lat="42.71054" lon="2.49696">
        <ele>506</ele>
        <time>2021-12-05T16:03:26Z</time>
      </trkpt>
      <trkpt lat="42.7104" lon="2.49711">
        <ele>513</ele>
        <time>2021-12-05T16:03:29Z</time>
      </trkpt>
      <trkpt lat="42.71029" lon="2.49718">
        <ele>517</ele>
        <time>2021-12-05T16:03:31Z</time>
      </trkpt>
      <trkpt lat="42.70998" lon="2.49721">
        <ele>523</ele>
        <time>2021-12-05T16:03:37Z</time>
      </trkpt>
      <trkpt lat="42.70979" lon="2.4972">
        <ele>527</ele>
        <time>2021-12-05T16:03:40Z</time>
      </trkpt>
      <trkpt lat="42.7097" lon="2.49714">
        <ele>529</ele>
        <time>2021-12-05T16:03:42Z</time>
      </trkpt>
      <trkpt lat="42.70969" lon="2.49705">
        <ele>528</ele>
        <time>2021-12-05T16:03:43Z</time>
      </trkpt>
      <trkpt lat="42.7097" lon="2.49679">
        <ele>523</ele>
        <time>2021-12-05T16:03:47Z</time>
      </trkpt>
      <trkpt lat="42.70974" lon="2.49669">
        <ele>520</ele>
        <time>2021-12-05T16:03:48Z</time>
      </trkpt>
      <trkpt lat="42.70992" lon="2.49642">
        <ele>513</ele>
        <time>2021-12-05T16:03:53Z</time>
      </trkpt>
      <trkpt lat="42.70993" lon="2.49631">
        <ele>513</ele>
        <time>2021-12-05T16:03:54Z</time>
      </trkpt>
      <trkpt lat="42.70991" lon="2.49569">
        <ele>518</ele>
        <time>2021-12-05T16:04:02Z</time>
      </trkpt>
      <trkpt lat="42.70992" lon="2.49539">
        <ele>523</ele>
        <time>2021-12-05T16:04:06Z</time>
      </trkpt>
      <trkpt lat="42.70994" lon="2.49529">
        <ele>524</ele>
        <time>2021-12-05T16:04:08Z</time>
      </trkpt>
      <trkpt lat="42.70998" lon="2.49523">
        <ele>523</ele>
        <time>2021-12-05T16:04:09Z</time>
      </trkpt>
      <trkpt lat="42.71029" lon="2.4951">
        <ele>516</ele>
        <time>2021-12-05T16:04:15Z</time>
      </trkpt>
      <trkpt lat="42.71036" lon="2.49503">
        <ele>515</ele>
        <time>2021-12-05T16:04:16Z</time>
      </trkpt>
      <trkpt lat="42.71049" lon="2.49462">
        <ele>523</ele>
        <time>2021-12-05T16:04:22Z</time>
      </trkpt>
      <trkpt lat="42.71054" lon="2.49453">
        <ele>524</ele>
        <time>2021-12-05T16:04:23Z</time>
      </trkpt>
      <trkpt lat="42.71061" lon="2.49449">
        <ele>524</ele>
        <time>2021-12-05T16:04:25Z</time>
      </trkpt>
      <trkpt lat="42.71069" lon="2.4945">
        <ele>522</ele>
        <time>2021-12-05T16:04:26Z</time>
      </trkpt>
      <trkpt lat="42.71085" lon="2.49457">
        <ele>516</ele>
        <time>2021-12-05T16:04:29Z</time>
      </trkpt>
      <trkpt lat="42.71101" lon="2.4946">
        <ele>514</ele>
        <time>2021-12-05T16:04:32Z</time>
      </trkpt>
      <trkpt lat="42.71132" lon="2.49459">
        <ele>511</ele>
        <time>2021-12-05T16:04:38Z</time>
      </trkpt>
      <trkpt lat="42.71212" lon="2.49433">
        <ele>505</ele>
        <time>2021-12-05T16:04:52Z</time>
      </trkpt>
      <trkpt lat="42.71225" lon="2.49425">
        <ele>505</ele>
        <time>2021-12-05T16:04:55Z</time>
      </trkpt>
      <trkpt lat="42.7124" lon="2.4941">
        <ele>505</ele>
        <time>2021-12-05T16:04:58Z</time>
      </trkpt>
      <trkpt lat="42.71249" lon="2.49395">
        <ele>505</ele>
        <time>2021-12-05T16:05:01Z</time>
      </trkpt>
      <trkpt lat="42.71256" lon="2.49373">
        <ele>505</ele>
        <time>2021-12-05T16:05:04Z</time>
      </trkpt>
      <trkpt lat="42.71262" lon="2.49345">
        <ele>506</ele>
        <time>2021-12-05T16:05:08Z</time>
      </trkpt>
      <trkpt lat="42.71261" lon="2.49331">
        <ele>508</ele>
        <time>2021-12-05T16:05:09Z</time>
      </trkpt>
      <trkpt lat="42.71255" lon="2.49292">
        <ele>508</ele>
        <time>2021-12-05T16:05:15Z</time>
      </trkpt>
      <trkpt lat="42.71246" lon="2.4925">
        <ele>510</ele>
        <time>2021-12-05T16:05:20Z</time>
      </trkpt>
      <trkpt lat="42.7124" lon="2.49234">
        <ele>510</ele>
        <time>2021-12-05T16:05:23Z</time>
      </trkpt>
      <trkpt lat="42.71213" lon="2.49194">
        <ele>517</ele>
        <time>2021-12-05T16:05:30Z</time>
      </trkpt>
      <trkpt lat="42.71204" lon="2.49178">
        <ele>518</ele>
        <time>2021-12-05T16:05:32Z</time>
      </trkpt>
      <trkpt lat="42.71199" lon="2.49161">
        <ele>519</ele>
        <time>2021-12-05T16:05:35Z</time>
      </trkpt>
      <trkpt lat="42.71191" lon="2.49117">
        <ele>523</ele>
        <time>2021-12-05T16:05:41Z</time>
      </trkpt>
      <trkpt lat="42.71191" lon="2.49095">
        <ele>523</ele>
        <time>2021-12-05T16:05:44Z</time>
      </trkpt>
      <trkpt lat="42.71193" lon="2.49083">
        <ele>523</ele>
        <time>2021-12-05T16:05:45Z</time>
      </trkpt>
      <trkpt lat="42.71196" lon="2.49077">
        <ele>524</ele>
        <time>2021-12-05T16:05:46Z</time>
      </trkpt>
      <trkpt lat="42.71204" lon="2.4907">
        <ele>523</ele>
        <time>2021-12-05T16:05:48Z</time>
      </trkpt>
      <trkpt lat="42.71272" lon="2.49054">
        <ele>507</ele>
        <time>2021-12-05T16:06:00Z</time>
      </trkpt>
      <trkpt lat="42.71299" lon="2.49045">
        <ele>502</ele>
        <time>2021-12-05T16:06:05Z</time>
      </trkpt>
      <trkpt lat="42.71316" lon="2.49036">
        <ele>501</ele>
        <time>2021-12-05T16:06:08Z</time>
      </trkpt>
      <trkpt lat="42.71337" lon="2.49021">
        <ele>501</ele>
        <time>2021-12-05T16:06:13Z</time>
      </trkpt>
      <trkpt lat="42.71353" lon="2.49007">
        <ele>501</ele>
        <time>2021-12-05T16:06:16Z</time>
      </trkpt>
      <trkpt lat="42.71365" lon="2.48991">
        <ele>502</ele>
        <time>2021-12-05T16:06:19Z</time>
      </trkpt>
      <trkpt lat="42.71376" lon="2.48984">
        <ele>499</ele>
        <time>2021-12-05T16:06:21Z</time>
      </trkpt>
      <trkpt lat="42.71402" lon="2.48973">
        <ele>492</ele>
        <time>2021-12-05T16:06:26Z</time>
      </trkpt>
      <trkpt lat="42.71411" lon="2.48965">
        <ele>491</ele>
        <time>2021-12-05T16:06:28Z</time>
      </trkpt>
      <trkpt lat="42.71416" lon="2.48957">
        <ele>491</ele>
        <time>2021-12-05T16:06:29Z</time>
      </trkpt>
      <trkpt lat="42.71422" lon="2.48939">
        <ele>492</ele>
        <time>2021-12-05T16:06:32Z</time>
      </trkpt>
      <trkpt lat="42.71436" lon="2.48878">
        <ele>493</ele>
        <time>2021-12-05T16:06:40Z</time>
      </trkpt>
      <trkpt lat="42.71437" lon="2.48862">
        <ele>494</ele>
        <time>2021-12-05T16:06:42Z</time>
      </trkpt>
      <trkpt lat="42.71431" lon="2.4882">
        <ele>501</ele>
        <time>2021-12-05T16:06:48Z</time>
      </trkpt>
      <trkpt lat="42.71431" lon="2.48804">
        <ele>503</ele>
        <time>2021-12-05T16:06:50Z</time>
      </trkpt>
      <trkpt lat="42.71439" lon="2.48794">
        <ele>502</ele>
        <time>2021-12-05T16:06:52Z</time>
      </trkpt>
      <trkpt lat="42.71474" lon="2.48779">
        <ele>491</ele>
        <time>2021-12-05T16:06:58Z</time>
      </trkpt>
      <trkpt lat="42.71492" lon="2.48769">
        <ele>487</ele>
        <time>2021-12-05T16:07:02Z</time>
      </trkpt>
      <trkpt lat="42.71523" lon="2.48734">
        <ele>486</ele>
        <time>2021-12-05T16:07:09Z</time>
      </trkpt>
      <trkpt lat="42.71535" lon="2.48728">
        <ele>483</ele>
        <time>2021-12-05T16:07:11Z</time>
      </trkpt>
      <trkpt lat="42.71553" lon="2.48723">
        <ele>478</ele>
        <time>2021-12-05T16:07:15Z</time>
      </trkpt>
      <trkpt lat="42.71561" lon="2.48715">
        <ele>478</ele>
        <time>2021-12-05T16:07:16Z</time>
      </trkpt>
      <trkpt lat="42.71581" lon="2.48672">
        <ele>482</ele>
        <time>2021-12-05T16:07:23Z</time>
      </trkpt>
      <trkpt lat="42.71593" lon="2.48655">
        <ele>479</ele>
        <time>2021-12-05T16:07:26Z</time>
      </trkpt>
      <trkpt lat="42.71612" lon="2.48635">
        <ele>472</ele>
        <time>2021-12-05T16:07:30Z</time>
      </trkpt>
      <trkpt lat="42.71628" lon="2.48613">
        <ele>468</ele>
        <time>2021-12-05T16:07:34Z</time>
      </trkpt>
      <trkpt lat="42.71632" lon="2.48604">
        <ele>467</ele>
        <time>2021-12-05T16:07:36Z</time>
      </trkpt>
      <trkpt lat="42.71633" lon="2.48588">
        <ele>470</ele>
        <time>2021-12-05T16:07:38Z</time>
      </trkpt>
      <trkpt lat="42.71628" lon="2.48561">
        <ele>478</ele>
        <time>2021-12-05T16:07:42Z</time>
      </trkpt>
      <trkpt lat="42.71628" lon="2.48549">
        <ele>480</ele>
        <time>2021-12-05T16:07:43Z</time>
      </trkpt>
      <trkpt lat="42.71634" lon="2.48539">
        <ele>479</ele>
        <time>2021-12-05T16:07:45Z</time>
      </trkpt>
      <trkpt lat="42.71665" lon="2.48513">
        <ele>472</ele>
        <time>2021-12-05T16:07:51Z</time>
      </trkpt>
      <trkpt lat="42.71672" lon="2.48504">
        <ele>470</ele>
        <time>2021-12-05T16:07:53Z</time>
      </trkpt>
      <trkpt lat="42.7168" lon="2.48486">
        <ele>469</ele>
        <time>2021-12-05T16:07:56Z</time>
      </trkpt>
      <trkpt lat="42.71712" lon="2.48398">
        <ele>461</ele>
        <time>2021-12-05T16:08:09Z</time>
      </trkpt>
      <trkpt lat="42.71718" lon="2.48376">
        <ele>458</ele>
        <time>2021-12-05T16:08:12Z</time>
      </trkpt>
      <trkpt lat="42.71719" lon="2.48369">
        <ele>457</ele>
        <time>2021-12-05T16:08:13Z</time>
      </trkpt>
      <trkpt lat="42.71709" lon="2.48305">
        <ele>461</ele>
        <time>2021-12-05T16:08:21Z</time>
      </trkpt>
      <trkpt lat="42.71704" lon="2.48252">
        <ele>458</ele>
        <time>2021-12-05T16:08:28Z</time>
      </trkpt>
      <trkpt lat="42.71702" lon="2.48204">
        <ele>454</ele>
        <time>2021-12-05T16:08:34Z</time>
      </trkpt>
      <trkpt lat="42.71682" lon="2.48113">
        <ele>450</ele>
        <time>2021-12-05T16:08:47Z</time>
      </trkpt>
      <trkpt lat="42.71677" lon="2.48099">
        <ele>450</ele>
        <time>2021-12-05T16:08:49Z</time>
      </trkpt>
      <trkpt lat="42.7167" lon="2.48089">
        <ele>451</ele>
        <time>2021-12-05T16:08:51Z</time>
      </trkpt>
      <trkpt lat="42.71628" lon="2.48045">
        <ele>466</ele>
        <time>2021-12-05T16:09:00Z</time>
      </trkpt>
      <trkpt lat="42.71625" lon="2.48036">
        <ele>468</ele>
        <time>2021-12-05T16:09:01Z</time>
      </trkpt>
      <trkpt lat="42.71625" lon="2.48026">
        <ele>469</ele>
        <time>2021-12-05T16:09:03Z</time>
      </trkpt>
      <trkpt lat="42.71629" lon="2.48018">
        <ele>468</ele>
        <time>2021-12-05T16:09:04Z</time>
      </trkpt>
      <trkpt lat="42.71638" lon="2.4801">
        <ele>464</ele>
        <time>2021-12-05T16:09:06Z</time>
      </trkpt>
      <trkpt lat="42.71712" lon="2.47966">
        <ele>447</ele>
        <time>2021-12-05T16:09:20Z</time>
      </trkpt>
      <trkpt lat="42.7174" lon="2.47956">
        <ele>439</ele>
        <time>2021-12-05T16:09:25Z</time>
      </trkpt>
      <trkpt lat="42.71748" lon="2.47949">
        <ele>438</ele>
        <time>2021-12-05T16:09:27Z</time>
      </trkpt>
      <trkpt lat="42.71757" lon="2.47933">
        <ele>440</ele>
        <time>2021-12-05T16:09:30Z</time>
      </trkpt>
      <trkpt lat="42.71764" lon="2.47903">
        <ele>448</ele>
        <time>2021-12-05T16:09:34Z</time>
      </trkpt>
      <trkpt lat="42.71771" lon="2.47895">
        <ele>448</ele>
        <time>2021-12-05T16:09:35Z</time>
      </trkpt>
      <trkpt lat="42.71806" lon="2.47879">
        <ele>438</ele>
        <time>2021-12-05T16:09:42Z</time>
      </trkpt>
      <trkpt lat="42.71816" lon="2.47872">
        <ele>436</ele>
        <time>2021-12-05T16:09:44Z</time>
      </trkpt>
      <trkpt lat="42.71823" lon="2.47861">
        <ele>435</ele>
        <time>2021-12-05T16:09:46Z</time>
      </trkpt>
      <trkpt lat="42.71833" lon="2.47837">
        <ele>437</ele>
        <time>2021-12-05T16:09:50Z</time>
      </trkpt>
      <trkpt lat="42.71847" lon="2.47795">
        <ele>442</ele>
        <time>2021-12-05T16:09:56Z</time>
      </trkpt>
      <trkpt lat="42.71853" lon="2.47784">
        <ele>442</ele>
        <time>2021-12-05T16:09:57Z</time>
      </trkpt>
      <trkpt lat="42.71862" lon="2.47777">
        <ele>440</ele>
        <time>2021-12-05T16:09:59Z</time>
      </trkpt>
      <trkpt lat="42.71891" lon="2.47765">
        <ele>433</ele>
        <time>2021-12-05T16:10:05Z</time>
      </trkpt>
      <trkpt lat="42.71901" lon="2.47759">
        <ele>431</ele>
        <time>2021-12-05T16:10:07Z</time>
      </trkpt>
      <trkpt lat="42.72026" lon="2.47611">
        <ele>411</ele>
        <time>2021-12-05T16:10:36Z</time>
      </trkpt>
      <trkpt lat="42.72037" lon="2.47592">
        <ele>410</ele>
        <time>2021-12-05T16:10:39Z</time>
      </trkpt>
      <trkpt lat="42.72039" lon="2.47571">
        <ele>407</ele>
        <time>2021-12-05T16:10:42Z</time>
      </trkpt>
      <trkpt lat="42.72034" lon="2.4756">
        <ele>406</ele>
        <time>2021-12-05T16:10:44Z</time>
      </trkpt>
      <trkpt lat="42.72025" lon="2.47552">
        <ele>407</ele>
        <time>2021-12-05T16:10:46Z</time>
      </trkpt>
      <trkpt lat="42.72012" lon="2.47543">
        <ele>408</ele>
        <time>2021-12-05T16:10:48Z</time>
      </trkpt>
      <trkpt lat="42.71992" lon="2.47534">
        <ele>410</ele>
        <time>2021-12-05T16:10:52Z</time>
      </trkpt>
      <trkpt lat="42.71968" lon="2.47529">
        <ele>416</ele>
        <time>2021-12-05T16:10:56Z</time>
      </trkpt>
      <trkpt lat="42.71948" lon="2.47521">
        <ele>419</ele>
        <time>2021-12-05T16:11:00Z</time>
      </trkpt>
      <trkpt lat="42.71937" lon="2.47512">
        <ele>420</ele>
        <time>2021-12-05T16:11:02Z</time>
      </trkpt>
      <trkpt lat="42.71931" lon="2.47498">
        <ele>419</ele>
        <time>2021-12-05T16:11:04Z</time>
      </trkpt>
      <trkpt lat="42.71928" lon="2.47469">
        <ele>413</ele>
        <time>2021-12-05T16:11:08Z</time>
      </trkpt>
      <trkpt lat="42.71923" lon="2.47445">
        <ele>409</ele>
        <time>2021-12-05T16:11:11Z</time>
      </trkpt>
      <trkpt lat="42.71859" lon="2.4726">
        <ele>392</ele>
        <time>2021-12-05T16:11:38Z</time>
      </trkpt>
      <trkpt lat="42.71851" lon="2.47246">
        <ele>391</ele>
        <time>2021-12-05T16:11:40Z</time>
      </trkpt>
      <trkpt lat="42.71841" lon="2.47234">
        <ele>391</ele>
        <time>2021-12-05T16:11:43Z</time>
      </trkpt>
      <trkpt lat="42.71828" lon="2.47225">
        <ele>390</ele>
        <time>2021-12-05T16:11:45Z</time>
      </trkpt>
      <trkpt lat="42.71814" lon="2.47222">
        <ele>390</ele>
        <time>2021-12-05T16:11:48Z</time>
      </trkpt>
      <trkpt lat="42.71816" lon="2.47215">
        <ele>389</ele>
        <time>2021-12-05T16:11:49Z</time>
      </trkpt>
      <trkpt lat="42.71822" lon="2.47212">
        <ele>388</ele>
        <time>2021-12-05T16:11:50Z</time>
      </trkpt>
      <trkpt lat="42.7183" lon="2.47214">
        <ele>388</ele>
        <time>2021-12-05T16:11:51Z</time>
      </trkpt>
      <trkpt lat="42.71861" lon="2.47228">
        <ele>387</ele>
        <time>2021-12-05T16:11:57Z</time>
      </trkpt>
      <trkpt lat="42.71886" lon="2.47245">
        <ele>386</ele>
        <time>2021-12-05T16:12:02Z</time>
      </trkpt>
      <trkpt lat="42.71906" lon="2.47267">
        <ele>385</ele>
        <time>2021-12-05T16:12:07Z</time>
      </trkpt>
      <trkpt lat="42.7193" lon="2.4731">
        <ele>385</ele>
        <time>2021-12-05T16:12:14Z</time>
      </trkpt>
      <trkpt lat="42.71952" lon="2.47356">
        <ele>385</ele>
        <time>2021-12-05T16:12:21Z</time>
      </trkpt>
      <trkpt lat="42.71965" lon="2.47428">
        <ele>392</ele>
        <time>2021-12-05T16:12:31Z</time>
      </trkpt>
      <trkpt lat="42.7197" lon="2.47447">
        <ele>395</ele>
        <time>2021-12-05T16:12:33Z</time>
      </trkpt>
      <trkpt lat="42.71981" lon="2.47463">
        <ele>395</ele>
        <time>2021-12-05T16:12:36Z</time>
      </trkpt>
      <trkpt lat="42.72005" lon="2.47476">
        <ele>391</ele>
        <time>2021-12-05T16:12:41Z</time>
      </trkpt>
      <trkpt lat="42.72025" lon="2.47491">
        <ele>391</ele>
        <time>2021-12-05T16:12:45Z</time>
      </trkpt>
      <trkpt lat="42.72036" lon="2.47496">
        <ele>390</ele>
        <time>2021-12-05T16:12:47Z</time>
      </trkpt>
      <trkpt lat="42.7205" lon="2.47499">
        <ele>388</ele>
        <time>2021-12-05T16:12:50Z</time>
      </trkpt>
      <trkpt lat="42.72065" lon="2.47499">
        <ele>385</ele>
        <time>2021-12-05T16:12:52Z</time>
      </trkpt>
      <trkpt lat="42.72089" lon="2.47495">
        <ele>380</ele>
        <time>2021-12-05T16:12:56Z</time>
      </trkpt>
      <trkpt lat="42.72099" lon="2.47497">
        <ele>378</ele>
        <time>2021-12-05T16:12:58Z</time>
      </trkpt>
      <trkpt lat="42.72114" lon="2.47505">
        <ele>375</ele>
        <time>2021-12-05T16:13:01Z</time>
      </trkpt>
      <trkpt lat="42.72134" lon="2.47524">
        <ele>372</ele>
        <time>2021-12-05T16:13:05Z</time>
      </trkpt>
      <trkpt lat="42.72143" lon="2.47539">
        <ele>371</ele>
        <time>2021-12-05T16:13:08Z</time>
      </trkpt>
      <trkpt lat="42.72148" lon="2.47558">
        <ele>371</ele>
        <time>2021-12-05T16:13:11Z</time>
      </trkpt>
      <trkpt lat="42.72146" lon="2.47582">
        <ele>374</ele>
        <time>2021-12-05T16:13:14Z</time>
      </trkpt>
      <trkpt lat="42.72142" lon="2.47597">
        <ele>374</ele>
        <time>2021-12-05T16:13:16Z</time>
      </trkpt>
      <trkpt lat="42.72071" lon="2.47708">
        <ele>375</ele>
        <time>2021-12-05T16:13:35Z</time>
      </trkpt>
      <trkpt lat="42.72041" lon="2.47761">
        <ele>377</ele>
        <time>2021-12-05T16:13:44Z</time>
      </trkpt>
      <trkpt lat="42.72026" lon="2.47793">
        <ele>376</ele>
        <time>2021-12-05T16:13:49Z</time>
      </trkpt>
      <trkpt lat="42.71997" lon="2.47874">
        <ele>373</ele>
        <time>2021-12-05T16:14:01Z</time>
      </trkpt>
      <trkpt lat="42.71996" lon="2.47896">
        <ele>372</ele>
        <time>2021-12-05T16:14:04Z</time>
      </trkpt>
      <trkpt lat="42.71998" lon="2.47913">
        <ele>371</ele>
        <time>2021-12-05T16:14:06Z</time>
      </trkpt>
      <trkpt lat="42.72006" lon="2.47919">
        <ele>371</ele>
        <time>2021-12-05T16:14:07Z</time>
      </trkpt>
      <trkpt lat="42.7203" lon="2.47928">
        <ele>370</ele>
        <time>2021-12-05T16:14:12Z</time>
      </trkpt>
      <trkpt lat="42.72046" lon="2.47941">
        <ele>373</ele>
        <time>2021-12-05T16:14:15Z</time>
      </trkpt>
      <trkpt lat="42.72059" lon="2.47941">
        <ele>371</ele>
        <time>2021-12-05T16:14:17Z</time>
      </trkpt>
      <trkpt lat="42.72072" lon="2.47945">
        <ele>371</ele>
        <time>2021-12-05T16:14:20Z</time>
      </trkpt>
      <trkpt lat="42.72085" lon="2.47953">
        <ele>372</ele>
        <time>2021-12-05T16:14:22Z</time>
      </trkpt>
      <trkpt lat="42.72099" lon="2.47972">
        <ele>378</ele>
        <time>2021-12-05T16:14:26Z</time>
      </trkpt>
      <trkpt lat="42.72112" lon="2.47986">
        <ele>381</ele>
        <time>2021-12-05T16:14:29Z</time>
      </trkpt>
      <trkpt lat="42.72127" lon="2.47992">
        <ele>379</ele>
        <time>2021-12-05T16:14:32Z</time>
      </trkpt>
      <trkpt lat="42.7214" lon="2.47994">
        <ele>377</ele>
        <time>2021-12-05T16:14:34Z</time>
      </trkpt>
      <trkpt lat="42.72151" lon="2.47993">
        <ele>374</ele>
        <time>2021-12-05T16:14:36Z</time>
      </trkpt>
      <trkpt lat="42.72169" lon="2.47981">
        <ele>368</ele>
        <time>2021-12-05T16:14:39Z</time>
      </trkpt>
      <trkpt lat="42.72194" lon="2.47959">
        <ele>364</ele>
        <time>2021-12-05T16:14:45Z</time>
      </trkpt>
      <trkpt lat="42.72219" lon="2.4793">
        <ele>358</ele>
        <time>2021-12-05T16:14:51Z</time>
      </trkpt>
      <trkpt lat="42.72231" lon="2.47921">
        <ele>356</ele>
        <time>2021-12-05T16:14:53Z</time>
      </trkpt>
      <trkpt lat="42.72243" lon="2.4792">
        <ele>357</ele>
        <time>2021-12-05T16:14:55Z</time>
      </trkpt>
      <trkpt lat="42.7226" lon="2.47926">
        <ele>359</ele>
        <time>2021-12-05T16:14:58Z</time>
      </trkpt>
      <trkpt lat="42.72271" lon="2.47938">
        <ele>361</ele>
        <time>2021-12-05T16:15:01Z</time>
      </trkpt>
      <trkpt lat="42.72317" lon="2.48045">
        <ele>370</ele>
        <time>2021-12-05T16:15:17Z</time>
      </trkpt>
      <trkpt lat="42.72338" lon="2.48082">
        <ele>368</ele>
        <time>2021-12-05T16:15:23Z</time>
      </trkpt>
      <trkpt lat="42.72356" lon="2.48101">
        <ele>371</ele>
        <time>2021-12-05T16:15:27Z</time>
      </trkpt>
      <trkpt lat="42.72371" lon="2.48111">
        <ele>371</ele>
        <time>2021-12-05T16:15:30Z</time>
      </trkpt>
      <trkpt lat="42.72385" lon="2.48117">
        <ele>370</ele>
        <time>2021-12-05T16:15:33Z</time>
      </trkpt>
      <trkpt lat="42.72395" lon="2.48117">
        <ele>366</ele>
        <time>2021-12-05T16:15:35Z</time>
      </trkpt>
      <trkpt lat="42.72411" lon="2.48114">
        <ele>361</ele>
        <time>2021-12-05T16:15:37Z</time>
      </trkpt>
      <trkpt lat="42.72432" lon="2.48117">
        <ele>358</ele>
        <time>2021-12-05T16:15:41Z</time>
      </trkpt>
      <trkpt lat="42.7245" lon="2.48124">
        <ele>358</ele>
        <time>2021-12-05T16:15:45Z</time>
      </trkpt>
      <trkpt lat="42.7246" lon="2.48133">
        <ele>359</ele>
        <time>2021-12-05T16:15:47Z</time>
      </trkpt>
      <trkpt lat="42.72504" lon="2.4819">
        <ele>366</ele>
        <time>2021-12-05T16:15:57Z</time>
      </trkpt>
      <trkpt lat="42.72518" lon="2.48198">
        <ele>366</ele>
        <time>2021-12-05T16:16:00Z</time>
      </trkpt>
      <trkpt lat="42.72534" lon="2.48203">
        <ele>366</ele>
        <time>2021-12-05T16:16:03Z</time>
      </trkpt>
      <trkpt lat="42.72549" lon="2.48205">
        <ele>364</ele>
        <time>2021-12-05T16:16:06Z</time>
      </trkpt>
      <trkpt lat="42.72567" lon="2.48202">
        <ele>361</ele>
        <time>2021-12-05T16:16:09Z</time>
      </trkpt>
      <trkpt lat="42.72594" lon="2.48193">
        <ele>354</ele>
        <time>2021-12-05T16:16:14Z</time>
      </trkpt>
      <trkpt lat="42.72613" lon="2.48193">
        <ele>352</ele>
        <time>2021-12-05T16:16:17Z</time>
      </trkpt>
      <trkpt lat="42.72628" lon="2.48201">
        <ele>352</ele>
        <time>2021-12-05T16:16:20Z</time>
      </trkpt>
      <trkpt lat="42.72639" lon="2.48215">
        <ele>352</ele>
        <time>2021-12-05T16:16:23Z</time>
      </trkpt>
      <trkpt lat="42.72648" lon="2.48247">
        <ele>353</ele>
        <time>2021-12-05T16:16:27Z</time>
      </trkpt>
      <trkpt lat="42.72649" lon="2.48262">
        <ele>353</ele>
        <time>2021-12-05T16:16:29Z</time>
      </trkpt>
      <trkpt lat="42.72645" lon="2.48296">
        <ele>356</ele>
        <time>2021-12-05T16:16:34Z</time>
      </trkpt>
      <trkpt lat="42.72632" lon="2.48361">
        <ele>364</ele>
        <time>2021-12-05T16:16:43Z</time>
      </trkpt>
      <trkpt lat="42.72632" lon="2.48375">
        <ele>365</ele>
        <time>2021-12-05T16:16:44Z</time>
      </trkpt>
      <trkpt lat="42.72634" lon="2.48394">
        <ele>364</ele>
        <time>2021-12-05T16:16:47Z</time>
      </trkpt>
      <trkpt lat="42.72646" lon="2.48423">
        <ele>358</ele>
        <time>2021-12-05T16:16:51Z</time>
      </trkpt>
      <trkpt lat="42.72664" lon="2.48444">
        <ele>353</ele>
        <time>2021-12-05T16:16:56Z</time>
      </trkpt>
      <trkpt lat="42.7268" lon="2.48459">
        <ele>354</ele>
        <time>2021-12-05T16:16:59Z</time>
      </trkpt>
      <trkpt lat="42.72692" lon="2.48466">
        <ele>354</ele>
        <time>2021-12-05T16:17:01Z</time>
      </trkpt>
      <trkpt lat="42.72713" lon="2.48465">
        <ele>350</ele>
        <time>2021-12-05T16:17:05Z</time>
      </trkpt>
      <trkpt lat="42.72731" lon="2.48467">
        <ele>348</ele>
        <time>2021-12-05T16:17:08Z</time>
      </trkpt>
      <trkpt lat="42.72743" lon="2.48474">
        <ele>348</ele>
        <time>2021-12-05T16:17:11Z</time>
      </trkpt>
      <trkpt lat="42.7275" lon="2.48481">
        <ele>348</ele>
        <time>2021-12-05T16:17:12Z</time>
      </trkpt>
      <trkpt lat="42.72763" lon="2.48506">
        <ele>350</ele>
        <time>2021-12-05T16:17:16Z</time>
      </trkpt>
      <trkpt lat="42.72772" lon="2.4853">
        <ele>354</ele>
        <time>2021-12-05T16:17:20Z</time>
      </trkpt>
      <trkpt lat="42.7278" lon="2.48543">
        <ele>356</ele>
        <time>2021-12-05T16:17:22Z</time>
      </trkpt>
      <trkpt lat="42.72812" lon="2.4855">
        <ele>353</ele>
        <time>2021-12-05T16:17:28Z</time>
      </trkpt>
      <trkpt lat="42.72846" lon="2.48553">
        <ele>354</ele>
        <time>2021-12-05T16:17:34Z</time>
      </trkpt>
      <trkpt lat="42.72865" lon="2.48548">
        <ele>355</ele>
        <time>2021-12-05T16:17:37Z</time>
      </trkpt>
      <trkpt lat="42.7288" lon="2.48542">
        <ele>356</ele>
        <time>2021-12-05T16:17:40Z</time>
      </trkpt>
      <trkpt lat="42.72894" lon="2.48528">
        <ele>354</ele>
        <time>2021-12-05T16:17:43Z</time>
      </trkpt>
      <trkpt lat="42.72913" lon="2.48501">
        <ele>350</ele>
        <time>2021-12-05T16:17:48Z</time>
      </trkpt>
      <trkpt lat="42.72984" lon="2.48369">
        <ele>344</ele>
        <time>2021-12-05T16:18:09Z</time>
      </trkpt>
      <trkpt lat="42.73013" lon="2.48328">
        <ele>337</ele>
        <time>2021-12-05T16:18:17Z</time>
      </trkpt>
      <trkpt lat="42.73025" lon="2.48322">
        <ele>335</ele>
        <time>2021-12-05T16:18:19Z</time>
      </trkpt>
      <trkpt lat="42.73036" lon="2.48322">
        <ele>335</ele>
        <time>2021-12-05T16:18:21Z</time>
      </trkpt>
      <trkpt lat="42.73051" lon="2.48331">
        <ele>334</ele>
        <time>2021-12-05T16:18:24Z</time>
      </trkpt>
      <trkpt lat="42.73071" lon="2.48355">
        <ele>335</ele>
        <time>2021-12-05T16:18:29Z</time>
      </trkpt>
      <trkpt lat="42.73086" lon="2.48378">
        <ele>337</ele>
        <time>2021-12-05T16:18:33Z</time>
      </trkpt>
      <trkpt lat="42.731" lon="2.48416">
        <ele>338</ele>
        <time>2021-12-05T16:18:38Z</time>
      </trkpt>
      <trkpt lat="42.73114" lon="2.48464">
        <ele>340</ele>
        <time>2021-12-05T16:18:45Z</time>
      </trkpt>
      <trkpt lat="42.73135" lon="2.48508">
        <ele>335</ele>
        <time>2021-12-05T16:18:52Z</time>
      </trkpt>
      <trkpt lat="42.73142" lon="2.48529">
        <ele>332</ele>
        <time>2021-12-05T16:18:55Z</time>
      </trkpt>
      <trkpt lat="42.73142" lon="2.48549">
        <ele>332</ele>
        <time>2021-12-05T16:18:57Z</time>
      </trkpt>
      <trkpt lat="42.73138" lon="2.48562">
        <ele>333</ele>
        <time>2021-12-05T16:18:59Z</time>
      </trkpt>
      <trkpt lat="42.73127" lon="2.48577">
        <ele>336</ele>
        <time>2021-12-05T16:19:02Z</time>
      </trkpt>
      <trkpt lat="42.73092" lon="2.48614">
        <ele>341</ele>
        <time>2021-12-05T16:19:10Z</time>
      </trkpt>
      <trkpt lat="42.7308" lon="2.48634">
        <ele>341</ele>
        <time>2021-12-05T16:19:13Z</time>
      </trkpt>
      <trkpt lat="42.73075" lon="2.4865">
        <ele>340</ele>
        <time>2021-12-05T16:19:16Z</time>
      </trkpt>
      <trkpt lat="42.73077" lon="2.48666">
        <ele>337</ele>
        <time>2021-12-05T16:19:18Z</time>
      </trkpt>
      <trkpt lat="42.73086" lon="2.48677">
        <ele>335</ele>
        <time>2021-12-05T16:19:20Z</time>
      </trkpt>
      <trkpt lat="42.73096" lon="2.48678">
        <ele>334</ele>
        <time>2021-12-05T16:19:22Z</time>
      </trkpt>
      <trkpt lat="42.73106" lon="2.48668">
        <ele>333</ele>
        <time>2021-12-05T16:19:24Z</time>
      </trkpt>
      <trkpt lat="42.73125" lon="2.48647">
        <ele>332</ele>
        <time>2021-12-05T16:19:28Z</time>
      </trkpt>
      <trkpt lat="42.73134" lon="2.48643">
        <ele>331</ele>
        <time>2021-12-05T16:19:30Z</time>
      </trkpt>
      <trkpt lat="42.73145" lon="2.48647">
        <ele>330</ele>
        <time>2021-12-05T16:19:32Z</time>
      </trkpt>
      <trkpt lat="42.73156" lon="2.4866">
        <ele>328</ele>
        <time>2021-12-05T16:19:34Z</time>
      </trkpt>
      <trkpt lat="42.73166" lon="2.48689">
        <ele>329</ele>
        <time>2021-12-05T16:19:39Z</time>
      </trkpt>
      <trkpt lat="42.73169" lon="2.48714">
        <ele>330</ele>
        <time>2021-12-05T16:19:42Z</time>
      </trkpt>
      <trkpt lat="42.73168" lon="2.48733">
        <ele>332</ele>
        <time>2021-12-05T16:19:44Z</time>
      </trkpt>
      <trkpt lat="42.73162" lon="2.48757">
        <ele>334</ele>
        <time>2021-12-05T16:19:48Z</time>
      </trkpt>
      <trkpt lat="42.73152" lon="2.48773">
        <ele>336</ele>
        <time>2021-12-05T16:19:51Z</time>
      </trkpt>
      <trkpt lat="42.7315" lon="2.48789">
        <ele>337</ele>
        <time>2021-12-05T16:19:53Z</time>
      </trkpt>
      <trkpt lat="42.73156" lon="2.48801">
        <ele>337</ele>
        <time>2021-12-05T16:19:55Z</time>
      </trkpt>
      <trkpt lat="42.73163" lon="2.48805">
        <ele>337</ele>
        <time>2021-12-05T16:19:56Z</time>
      </trkpt>
      <trkpt lat="42.73172" lon="2.48805">
        <ele>336</ele>
        <time>2021-12-05T16:19:57Z</time>
      </trkpt>
      <trkpt lat="42.73199" lon="2.48788">
        <ele>332</ele>
        <time>2021-12-05T16:20:03Z</time>
      </trkpt>
      <trkpt lat="42.7321" lon="2.48785">
        <ele>330</ele>
        <time>2021-12-05T16:20:05Z</time>
      </trkpt>
      <trkpt lat="42.73219" lon="2.48788">
        <ele>330</ele>
        <time>2021-12-05T16:20:06Z</time>
      </trkpt>
      <trkpt lat="42.73247" lon="2.48813">
        <ele>330</ele>
        <time>2021-12-05T16:20:12Z</time>
      </trkpt>
      <trkpt lat="42.73257" lon="2.48818">
        <ele>332</ele>
        <time>2021-12-05T16:20:14Z</time>
      </trkpt>
      <trkpt lat="42.7327" lon="2.4882">
        <ele>335</ele>
        <time>2021-12-05T16:20:17Z</time>
      </trkpt>
      <trkpt lat="42.73284" lon="2.48818">
        <ele>337</ele>
        <time>2021-12-05T16:20:19Z</time>
      </trkpt>
      <trkpt lat="42.73298" lon="2.4881">
        <ele>337</ele>
        <time>2021-12-05T16:20:22Z</time>
      </trkpt>
      <trkpt lat="42.73321" lon="2.48787">
        <ele>335</ele>
        <time>2021-12-05T16:20:27Z</time>
      </trkpt>
      <trkpt lat="42.73338" lon="2.48762">
        <ele>330</ele>
        <time>2021-12-05T16:20:31Z</time>
      </trkpt>
      <trkpt lat="42.73347" lon="2.48754">
        <ele>331</ele>
        <time>2021-12-05T16:20:33Z</time>
      </trkpt>
      <trkpt lat="42.73356" lon="2.48748">
        <ele>332</ele>
        <time>2021-12-05T16:20:35Z</time>
      </trkpt>
      <trkpt lat="42.73374" lon="2.48745">
        <ele>338</ele>
        <time>2021-12-05T16:20:38Z</time>
      </trkpt>
      <trkpt lat="42.73381" lon="2.4874">
        <ele>339</ele>
        <time>2021-12-05T16:20:40Z</time>
      </trkpt>
      <trkpt lat="42.73431" lon="2.48649">
        <ele>336</ele>
        <time>2021-12-05T16:20:55Z</time>
      </trkpt>
      <trkpt lat="42.73436" lon="2.48635">
        <ele>338</ele>
        <time>2021-12-05T16:20:57Z</time>
      </trkpt>
      <trkpt lat="42.73436" lon="2.48627">
        <ele>337</ele>
        <time>2021-12-05T16:20:58Z</time>
      </trkpt>
      <trkpt lat="42.73431" lon="2.48607">
        <ele>333</ele>
        <time>2021-12-05T16:21:00Z</time>
      </trkpt>
      <trkpt lat="42.73428" lon="2.48539">
        <ele>331</ele>
        <time>2021-12-05T16:21:09Z</time>
      </trkpt>
      <trkpt lat="42.7342" lon="2.48502">
        <ele>328</ele>
        <time>2021-12-05T16:21:14Z</time>
      </trkpt>
      <trkpt lat="42.73428" lon="2.48539">
        <ele>331</ele>
        <time>2021-12-05T16:21:19Z</time>
      </trkpt>
      <trkpt lat="42.73431" lon="2.48607">
        <ele>333</ele>
        <time>2021-12-05T16:21:28Z</time>
      </trkpt>
      <trkpt lat="42.73436" lon="2.48627">
        <ele>337</ele>
        <time>2021-12-05T16:21:31Z</time>
      </trkpt>
      <trkpt lat="42.73436" lon="2.48635">
        <ele>338</ele>
        <time>2021-12-05T16:21:32Z</time>
      </trkpt>
      <trkpt lat="42.73431" lon="2.48649">
        <ele>336</ele>
        <time>2021-12-05T16:21:34Z</time>
      </trkpt>
      <trkpt lat="42.73381" lon="2.4874">
        <ele>339</ele>
        <time>2021-12-05T16:21:49Z</time>
      </trkpt>
      <trkpt lat="42.73374" lon="2.48745">
        <ele>338</ele>
        <time>2021-12-05T16:21:50Z</time>
      </trkpt>
      <trkpt lat="42.73356" lon="2.48748">
        <ele>332</ele>
        <time>2021-12-05T16:21:54Z</time>
      </trkpt>
      <trkpt lat="42.73347" lon="2.48754">
        <ele>331</ele>
        <time>2021-12-05T16:21:55Z</time>
      </trkpt>
      <trkpt lat="42.73338" lon="2.48762">
        <ele>330</ele>
        <time>2021-12-05T16:21:57Z</time>
      </trkpt>
      <trkpt lat="42.73321" lon="2.48787">
        <ele>335</ele>
        <time>2021-12-05T16:22:02Z</time>
      </trkpt>
      <trkpt lat="42.73298" lon="2.4881">
        <ele>337</ele>
        <time>2021-12-05T16:22:07Z</time>
      </trkpt>
      <trkpt lat="42.73284" lon="2.48818">
        <ele>337</ele>
        <time>2021-12-05T16:22:10Z</time>
      </trkpt>
      <trkpt lat="42.7327" lon="2.4882">
        <ele>335</ele>
        <time>2021-12-05T16:22:12Z</time>
      </trkpt>
      <trkpt lat="42.73257" lon="2.48818">
        <ele>332</ele>
        <time>2021-12-05T16:22:14Z</time>
      </trkpt>
      <trkpt lat="42.73247" lon="2.48813">
        <ele>330</ele>
        <time>2021-12-05T16:22:16Z</time>
      </trkpt>
      <trkpt lat="42.73219" lon="2.48788">
        <ele>330</ele>
        <time>2021-12-05T16:22:22Z</time>
      </trkpt>
      <trkpt lat="42.7321" lon="2.48785">
        <ele>330</ele>
        <time>2021-12-05T16:22:24Z</time>
      </trkpt>
      <trkpt lat="42.73199" lon="2.48788">
        <ele>332</ele>
        <time>2021-12-05T16:22:26Z</time>
      </trkpt>
      <trkpt lat="42.73172" lon="2.48805">
        <ele>336</ele>
        <time>2021-12-05T16:22:31Z</time>
      </trkpt>
      <trkpt lat="42.73163" lon="2.48805">
        <ele>337</ele>
        <time>2021-12-05T16:22:33Z</time>
      </trkpt>
      <trkpt lat="42.73156" lon="2.48801">
        <ele>337</ele>
        <time>2021-12-05T16:22:34Z</time>
      </trkpt>
      <trkpt lat="42.7315" lon="2.48789">
        <ele>337</ele>
        <time>2021-12-05T16:22:36Z</time>
      </trkpt>
      <trkpt lat="42.73152" lon="2.48773">
        <ele>336</ele>
        <time>2021-12-05T16:22:38Z</time>
      </trkpt>
      <trkpt lat="42.73162" lon="2.48757">
        <ele>334</ele>
        <time>2021-12-05T16:22:41Z</time>
      </trkpt>
      <trkpt lat="42.73168" lon="2.48733">
        <ele>332</ele>
        <time>2021-12-05T16:22:44Z</time>
      </trkpt>
      <trkpt lat="42.73169" lon="2.48714">
        <ele>330</ele>
        <time>2021-12-05T16:22:47Z</time>
      </trkpt>
      <trkpt lat="42.73166" lon="2.48689">
        <ele>329</ele>
        <time>2021-12-05T16:22:50Z</time>
      </trkpt>
      <trkpt lat="42.73156" lon="2.4866">
        <ele>328</ele>
        <time>2021-12-05T16:22:54Z</time>
      </trkpt>
      <trkpt lat="42.73145" lon="2.48647">
        <ele>330</ele>
        <time>2021-12-05T16:22:57Z</time>
      </trkpt>
      <trkpt lat="42.73134" lon="2.48643">
        <ele>331</ele>
        <time>2021-12-05T16:22:59Z</time>
      </trkpt>
      <trkpt lat="42.73125" lon="2.48647">
        <ele>332</ele>
        <time>2021-12-05T16:23:00Z</time>
      </trkpt>
      <trkpt lat="42.73106" lon="2.48668">
        <ele>333</ele>
        <time>2021-12-05T16:23:05Z</time>
      </trkpt>
      <trkpt lat="42.73096" lon="2.48678">
        <ele>334</ele>
        <time>2021-12-05T16:23:07Z</time>
      </trkpt>
      <trkpt lat="42.73086" lon="2.48677">
        <ele>335</ele>
        <time>2021-12-05T16:23:09Z</time>
      </trkpt>
      <trkpt lat="42.73077" lon="2.48666">
        <ele>337</ele>
        <time>2021-12-05T16:23:11Z</time>
      </trkpt>
      <trkpt lat="42.73075" lon="2.4865">
        <ele>340</ele>
        <time>2021-12-05T16:23:13Z</time>
      </trkpt>
      <trkpt lat="42.7308" lon="2.48634">
        <ele>341</ele>
        <time>2021-12-05T16:23:15Z</time>
      </trkpt>
      <trkpt lat="42.73092" lon="2.48614">
        <ele>341</ele>
        <time>2021-12-05T16:23:19Z</time>
      </trkpt>
      <trkpt lat="42.73127" lon="2.48577">
        <ele>336</ele>
        <time>2021-12-05T16:23:27Z</time>
      </trkpt>
      <trkpt lat="42.73138" lon="2.48562">
        <ele>333</ele>
        <time>2021-12-05T16:23:29Z</time>
      </trkpt>
      <trkpt lat="42.73142" lon="2.48549">
        <ele>332</ele>
        <time>2021-12-05T16:23:31Z</time>
      </trkpt>
      <trkpt lat="42.73142" lon="2.48529">
        <ele>332</ele>
        <time>2021-12-05T16:23:34Z</time>
      </trkpt>
      <trkpt lat="42.73135" lon="2.48508">
        <ele>335</ele>
        <time>2021-12-05T16:23:37Z</time>
      </trkpt>
      <trkpt lat="42.73114" lon="2.48464">
        <ele>340</ele>
        <time>2021-12-05T16:23:44Z</time>
      </trkpt>
      <trkpt lat="42.731" lon="2.48416">
        <ele>338</ele>
        <time>2021-12-05T16:23:50Z</time>
      </trkpt>
      <trkpt lat="42.73086" lon="2.48378">
        <ele>337</ele>
        <time>2021-12-05T16:23:56Z</time>
      </trkpt>
      <trkpt lat="42.73071" lon="2.48355">
        <ele>335</ele>
        <time>2021-12-05T16:24:00Z</time>
      </trkpt>
      <trkpt lat="42.73051" lon="2.48331">
        <ele>334</ele>
        <time>2021-12-05T16:24:05Z</time>
      </trkpt>
      <trkpt lat="42.73036" lon="2.48322">
        <ele>335</ele>
        <time>2021-12-05T16:24:08Z</time>
      </trkpt>
      <trkpt lat="42.73025" lon="2.48322">
        <ele>335</ele>
        <time>2021-12-05T16:24:10Z</time>
      </trkpt>
      <trkpt lat="42.73013" lon="2.48328">
        <ele>337</ele>
        <time>2021-12-05T16:24:12Z</time>
      </trkpt>
      <trkpt lat="42.72984" lon="2.48369">
        <ele>344</ele>
        <time>2021-12-05T16:24:19Z</time>
      </trkpt>
      <trkpt lat="42.72913" lon="2.48501">
        <ele>350</ele>
        <time>2021-12-05T16:24:41Z</time>
      </trkpt>
      <trkpt lat="42.72894" lon="2.48528">
        <ele>354</ele>
        <time>2021-12-05T16:24:46Z</time>
      </trkpt>
      <trkpt lat="42.7288" lon="2.48542">
        <ele>356</ele>
        <time>2021-12-05T16:24:49Z</time>
      </trkpt>
      <trkpt lat="42.72865" lon="2.48548">
        <ele>355</ele>
        <time>2021-12-05T16:24:52Z</time>
      </trkpt>
      <trkpt lat="42.72846" lon="2.48553">
        <ele>354</ele>
        <time>2021-12-05T16:24:55Z</time>
      </trkpt>
      <trkpt lat="42.72812" lon="2.4855">
        <ele>353</ele>
        <time>2021-12-05T16:25:01Z</time>
      </trkpt>
      <trkpt lat="42.7278" lon="2.48543">
        <ele>356</ele>
        <time>2021-12-05T16:25:07Z</time>
      </trkpt>
      <trkpt lat="42.72772" lon="2.4853">
        <ele>354</ele>
        <time>2021-12-05T16:25:09Z</time>
      </trkpt>
      <trkpt lat="42.72763" lon="2.48506">
        <ele>350</ele>
        <time>2021-12-05T16:25:13Z</time>
      </trkpt>
      <trkpt lat="42.7275" lon="2.48481">
        <ele>348</ele>
        <time>2021-12-05T16:25:17Z</time>
      </trkpt>
      <trkpt lat="42.72743" lon="2.48474">
        <ele>348</ele>
        <time>2021-12-05T16:25:18Z</time>
      </trkpt>
      <trkpt lat="42.72731" lon="2.48467">
        <ele>348</ele>
        <time>2021-12-05T16:25:20Z</time>
      </trkpt>
      <trkpt lat="42.72713" lon="2.48465">
        <ele>350</ele>
        <time>2021-12-05T16:25:24Z</time>
      </trkpt>
      <trkpt lat="42.72692" lon="2.48466">
        <ele>354</ele>
        <time>2021-12-05T16:25:27Z</time>
      </trkpt>
      <trkpt lat="42.7268" lon="2.48459">
        <ele>354</ele>
        <time>2021-12-05T16:25:30Z</time>
      </trkpt>
      <trkpt lat="42.72664" lon="2.48444">
        <ele>353</ele>
        <time>2021-12-05T16:25:33Z</time>
      </trkpt>
      <trkpt lat="42.72646" lon="2.48423">
        <ele>358</ele>
        <time>2021-12-05T16:25:37Z</time>
      </trkpt>
      <trkpt lat="42.72634" lon="2.48394">
        <ele>364</ele>
        <time>2021-12-05T16:25:42Z</time>
      </trkpt>
      <trkpt lat="42.72632" lon="2.48375">
        <ele>365</ele>
        <time>2021-12-05T16:25:44Z</time>
      </trkpt>
      <trkpt lat="42.72632" lon="2.48361">
        <ele>364</ele>
        <time>2021-12-05T16:25:46Z</time>
      </trkpt>
      <trkpt lat="42.72645" lon="2.48296">
        <ele>356</ele>
        <time>2021-12-05T16:25:55Z</time>
      </trkpt>
      <trkpt lat="42.72649" lon="2.48262">
        <ele>353</ele>
        <time>2021-12-05T16:25:59Z</time>
      </trkpt>
      <trkpt lat="42.72648" lon="2.48247">
        <ele>353</ele>
        <time>2021-12-05T16:26:01Z</time>
      </trkpt>
      <trkpt lat="42.72639" lon="2.48215">
        <ele>352</ele>
        <time>2021-12-05T16:26:06Z</time>
      </trkpt>
      <trkpt lat="42.72628" lon="2.48201">
        <ele>352</ele>
        <time>2021-12-05T16:26:08Z</time>
      </trkpt>
      <trkpt lat="42.72613" lon="2.48193">
        <ele>352</ele>
        <time>2021-12-05T16:26:11Z</time>
      </trkpt>
      <trkpt lat="42.72594" lon="2.48193">
        <ele>354</ele>
        <time>2021-12-05T16:26:15Z</time>
      </trkpt>
      <trkpt lat="42.72567" lon="2.48202">
        <ele>361</ele>
        <time>2021-12-05T16:26:20Z</time>
      </trkpt>
      <trkpt lat="42.72549" lon="2.48205">
        <ele>364</ele>
        <time>2021-12-05T16:26:23Z</time>
      </trkpt>
      <trkpt lat="42.72534" lon="2.48203">
        <ele>366</ele>
        <time>2021-12-05T16:26:26Z</time>
      </trkpt>
      <trkpt lat="42.72518" lon="2.48198">
        <ele>366</ele>
        <time>2021-12-05T16:26:28Z</time>
      </trkpt>
      <trkpt lat="42.72504" lon="2.4819">
        <ele>366</ele>
        <time>2021-12-05T16:26:31Z</time>
      </trkpt>
      <trkpt lat="42.7246" lon="2.48133">
        <ele>359</ele>
        <time>2021-12-05T16:26:42Z</time>
      </trkpt>
      <trkpt lat="42.7245" lon="2.48124">
        <ele>358</ele>
        <time>2021-12-05T16:26:44Z</time>
      </trkpt>
      <trkpt lat="42.72432" lon="2.48117">
        <ele>358</ele>
        <time>2021-12-05T16:26:47Z</time>
      </trkpt>
      <trkpt lat="42.72411" lon="2.48114">
        <ele>361</ele>
        <time>2021-12-05T16:26:51Z</time>
      </trkpt>
      <trkpt lat="42.72395" lon="2.48117">
        <ele>366</ele>
        <time>2021-12-05T16:26:54Z</time>
      </trkpt>
      <trkpt lat="42.72385" lon="2.48117">
        <ele>370</ele>
        <time>2021-12-05T16:26:56Z</time>
      </trkpt>
      <trkpt lat="42.72371" lon="2.48111">
        <ele>371</ele>
        <time>2021-12-05T16:26:58Z</time>
      </trkpt>
      <trkpt lat="42.72356" lon="2.48101">
        <ele>371</ele>
        <time>2021-12-05T16:27:01Z</time>
      </trkpt>
      <trkpt lat="42.72338" lon="2.48082">
        <ele>368</ele>
        <time>2021-12-05T16:27:06Z</time>
      </trkpt>
      <trkpt lat="42.72317" lon="2.48045">
        <ele>370</ele>
        <time>2021-12-05T16:27:12Z</time>
      </trkpt>
      <trkpt lat="42.72271" lon="2.47938">
        <ele>361</ele>
        <time>2021-12-05T16:27:28Z</time>
      </trkpt>
      <trkpt lat="42.7226" lon="2.47926">
        <ele>359</ele>
        <time>2021-12-05T16:27:30Z</time>
      </trkpt>
      <trkpt lat="42.72243" lon="2.4792">
        <ele>357</ele>
        <time>2021-12-05T16:27:33Z</time>
      </trkpt>
      <trkpt lat="42.72231" lon="2.47921">
        <ele>356</ele>
        <time>2021-12-05T16:27:36Z</time>
      </trkpt>
      <trkpt lat="42.72219" lon="2.4793">
        <ele>358</ele>
        <time>2021-12-05T16:27:38Z</time>
      </trkpt>
      <trkpt lat="42.72194" lon="2.47959">
        <ele>364</ele>
        <time>2021-12-05T16:27:44Z</time>
      </trkpt>
      <trkpt lat="42.72169" lon="2.47981">
        <ele>368</ele>
        <time>2021-12-05T16:27:49Z</time>
      </trkpt>
      <trkpt lat="42.72151" lon="2.47993">
        <ele>374</ele>
        <time>2021-12-05T16:27:53Z</time>
      </trkpt>
      <trkpt lat="42.7214" lon="2.47994">
        <ele>377</ele>
        <time>2021-12-05T16:27:55Z</time>
      </trkpt>
      <trkpt lat="42.72127" lon="2.47992">
        <ele>379</ele>
        <time>2021-12-05T16:27:57Z</time>
      </trkpt>
      <trkpt lat="42.72112" lon="2.47986">
        <ele>381</ele>
        <time>2021-12-05T16:28:00Z</time>
      </trkpt>
      <trkpt lat="42.72099" lon="2.47972">
        <ele>378</ele>
        <time>2021-12-05T16:28:03Z</time>
      </trkpt>
      <trkpt lat="42.72085" lon="2.47953">
        <ele>372</ele>
        <time>2021-12-05T16:28:06Z</time>
      </trkpt>
      <trkpt lat="42.72072" lon="2.47945">
        <ele>371</ele>
        <time>2021-12-05T16:28:09Z</time>
      </trkpt>
      <trkpt lat="42.72059" lon="2.47941">
        <ele>371</ele>
        <time>2021-12-05T16:28:11Z</time>
      </trkpt>
      <trkpt lat="42.72046" lon="2.47941">
        <ele>373</ele>
        <time>2021-12-05T16:28:13Z</time>
      </trkpt>
      <trkpt lat="42.72036" lon="2.47932">
        <ele>371</ele>
        <time>2021-12-05T16:28:16Z</time>
      </trkpt>
      <trkpt lat="42.72046" lon="2.47941">
        <ele>373</ele>
        <time>2021-12-05T16:28:18Z</time>
      </trkpt>
      <trkpt lat="42.72059" lon="2.47941">
        <ele>371</ele>
        <time>2021-12-05T16:28:20Z</time>
      </trkpt>
      <trkpt lat="42.72072" lon="2.47945">
        <ele>371</ele>
        <time>2021-12-05T16:28:22Z</time>
      </trkpt>
      <trkpt lat="42.72085" lon="2.47953">
        <ele>372</ele>
        <time>2021-12-05T16:28:25Z</time>
      </trkpt>
      <trkpt lat="42.72099" lon="2.47972">
        <ele>378</ele>
        <time>2021-12-05T16:28:29Z</time>
      </trkpt>
      <trkpt lat="42.72112" lon="2.47986">
        <ele>381</ele>
        <time>2021-12-05T16:28:31Z</time>
      </trkpt>
      <trkpt lat="42.72127" lon="2.47992">
        <ele>379</ele>
        <time>2021-12-05T16:28:34Z</time>
      </trkpt>
      <trkpt lat="42.7214" lon="2.47994">
        <ele>377</ele>
        <time>2021-12-05T16:28:37Z</time>
      </trkpt>
      <trkpt lat="42.72151" lon="2.47993">
        <ele>374</ele>
        <time>2021-12-05T16:28:39Z</time>
      </trkpt>
      <trkpt lat="42.72169" lon="2.47981">
        <ele>368</ele>
        <time>2021-12-05T16:28:42Z</time>
      </trkpt>
      <trkpt lat="42.72194" lon="2.47959">
        <ele>364</ele>
        <time>2021-12-05T16:28:47Z</time>
      </trkpt>
      <trkpt lat="42.72219" lon="2.4793">
        <ele>358</ele>
        <time>2021-12-05T16:28:53Z</time>
      </trkpt>
      <trkpt lat="42.72231" lon="2.47921">
        <ele>356</ele>
        <time>2021-12-05T16:28:56Z</time>
      </trkpt>
      <trkpt lat="42.72243" lon="2.4792">
        <ele>357</ele>
        <time>2021-12-05T16:28:58Z</time>
      </trkpt>
      <trkpt lat="42.7226" lon="2.47926">
        <ele>359</ele>
        <time>2021-12-05T16:29:01Z</time>
      </trkpt>
      <trkpt lat="42.72271" lon="2.47938">
        <ele>361</ele>
        <time>2021-12-05T16:29:03Z</time>
      </trkpt>
      <trkpt lat="42.72317" lon="2.48045">
        <ele>370</ele>
        <time>2021-12-05T16:29:20Z</time>
      </trkpt>
      <trkpt lat="42.72338" lon="2.48082">
        <ele>368</ele>
        <time>2021-12-05T16:29:26Z</time>
      </trkpt>
      <trkpt lat="42.72356" lon="2.48101">
        <ele>371</ele>
        <time>2021-12-05T16:29:30Z</time>
      </trkpt>
      <trkpt lat="42.72371" lon="2.48111">
        <ele>371</ele>
        <time>2021-12-05T16:29:33Z</time>
      </trkpt>
      <trkpt lat="42.72385" lon="2.48117">
        <ele>370</ele>
        <time>2021-12-05T16:29:35Z</time>
      </trkpt>
      <trkpt lat="42.72395" lon="2.48117">
        <ele>366</ele>
        <time>2021-12-05T16:29:37Z</time>
      </trkpt>
      <trkpt lat="42.72411" lon="2.48114">
        <ele>361</ele>
        <time>2021-12-05T16:29:40Z</time>
      </trkpt>
      <trkpt lat="42.72432" lon="2.48117">
        <ele>358</ele>
        <time>2021-12-05T16:29:44Z</time>
      </trkpt>
      <trkpt lat="42.7245" lon="2.48124">
        <ele>358</ele>
        <time>2021-12-05T16:29:47Z</time>
      </trkpt>
      <trkpt lat="42.7246" lon="2.48133">
        <ele>359</ele>
        <time>2021-12-05T16:29:49Z</time>
      </trkpt>
      <trkpt lat="42.72504" lon="2.4819">
        <ele>366</ele>
        <time>2021-12-05T16:30:00Z</time>
      </trkpt>
      <trkpt lat="42.72518" lon="2.48198">
        <ele>366</ele>
        <time>2021-12-05T16:30:03Z</time>
      </trkpt>
      <trkpt lat="42.72534" lon="2.48203">
        <ele>366</ele>
        <time>2021-12-05T16:30:06Z</time>
      </trkpt>
      <trkpt lat="42.72549" lon="2.48205">
        <ele>364</ele>
        <time>2021-12-05T16:30:08Z</time>
      </trkpt>
      <trkpt lat="42.72567" lon="2.48202">
        <ele>361</ele>
        <time>2021-12-05T16:30:12Z</time>
      </trkpt>
      <trkpt lat="42.72594" lon="2.48193">
        <ele>354</ele>
        <time>2021-12-05T16:30:17Z</time>
      </trkpt>
      <trkpt lat="42.72613" lon="2.48193">
        <ele>352</ele>
        <time>2021-12-05T16:30:20Z</time>
      </trkpt>
      <trkpt lat="42.72628" lon="2.48201">
        <ele>352</ele>
        <time>2021-12-05T16:30:23Z</time>
      </trkpt>
      <trkpt lat="42.72639" lon="2.48215">
        <ele>352</ele>
        <time>2021-12-05T16:30:25Z</time>
      </trkpt>
      <trkpt lat="42.72648" lon="2.48247">
        <ele>353</ele>
        <time>2021-12-05T16:30:30Z</time>
      </trkpt>
      <trkpt lat="42.72649" lon="2.48262">
        <ele>353</ele>
        <time>2021-12-05T16:30:32Z</time>
      </trkpt>
      <trkpt lat="42.72645" lon="2.48296">
        <ele>356</ele>
        <time>2021-12-05T16:30:36Z</time>
      </trkpt>
      <trkpt lat="42.72632" lon="2.48361">
        <ele>364</ele>
        <time>2021-12-05T16:30:45Z</time>
      </trkpt>
      <trkpt lat="42.72632" lon="2.48375">
        <ele>365</ele>
        <time>2021-12-05T16:30:47Z</time>
      </trkpt>
      <trkpt lat="42.72634" lon="2.48394">
        <ele>364</ele>
        <time>2021-12-05T16:30:50Z</time>
      </trkpt>
      <trkpt lat="42.72646" lon="2.48423">
        <ele>358</ele>
        <time>2021-12-05T16:30:54Z</time>
      </trkpt>
      <trkpt lat="42.72664" lon="2.48444">
        <ele>353</ele>
        <time>2021-12-05T16:30:58Z</time>
      </trkpt>
      <trkpt lat="42.7268" lon="2.48459">
        <ele>354</ele>
        <time>2021-12-05T16:31:02Z</time>
      </trkpt>
      <trkpt lat="42.72692" lon="2.48466">
        <ele>354</ele>
        <time>2021-12-05T16:31:04Z</time>
      </trkpt>
      <trkpt lat="42.72713" lon="2.48465">
        <ele>350</ele>
        <time>2021-12-05T16:31:08Z</time>
      </trkpt>
      <trkpt lat="42.72731" lon="2.48467">
        <ele>348</ele>
        <time>2021-12-05T16:31:11Z</time>
      </trkpt>
      <trkpt lat="42.72743" lon="2.48474">
        <ele>348</ele>
        <time>2021-12-05T16:31:13Z</time>
      </trkpt>
      <trkpt lat="42.7275" lon="2.48481">
        <ele>348</ele>
        <time>2021-12-05T16:31:15Z</time>
      </trkpt>
      <trkpt lat="42.72763" lon="2.48506">
        <ele>350</ele>
        <time>2021-12-05T16:31:19Z</time>
      </trkpt>
      <trkpt lat="42.72772" lon="2.4853">
        <ele>354</ele>
        <time>2021-12-05T16:31:22Z</time>
      </trkpt>
      <trkpt lat="42.7278" lon="2.48543">
        <ele>356</ele>
        <time>2021-12-05T16:31:24Z</time>
      </trkpt>
      <trkpt lat="42.72812" lon="2.4855">
        <ele>353</ele>
        <time>2021-12-05T16:31:30Z</time>
      </trkpt>
      <trkpt lat="42.72846" lon="2.48553">
        <ele>354</ele>
        <time>2021-12-05T16:31:36Z</time>
      </trkpt>
      <trkpt lat="42.72865" lon="2.48548">
        <ele>355</ele>
        <time>2021-12-05T16:31:40Z</time>
      </trkpt>
      <trkpt lat="42.7288" lon="2.48542">
        <ele>356</ele>
        <time>2021-12-05T16:31:43Z</time>
      </trkpt>
      <trkpt lat="42.72894" lon="2.48528">
        <ele>354</ele>
        <time>2021-12-05T16:31:46Z</time>
      </trkpt>
      <trkpt lat="42.72913" lon="2.48501">
        <ele>350</ele>
        <time>2021-12-05T16:31:51Z</time>
      </trkpt>
      <trkpt lat="42.72984" lon="2.48369">
        <ele>344</ele>
        <time>2021-12-05T16:32:12Z</time>
      </trkpt>
      <trkpt lat="42.73013" lon="2.48328">
        <ele>337</ele>
        <time>2021-12-05T16:32:19Z</time>
      </trkpt>
      <trkpt lat="42.73025" lon="2.48322">
        <ele>335</ele>
        <time>2021-12-05T16:32:22Z</time>
      </trkpt>
      <trkpt lat="42.73036" lon="2.48322">
        <ele>335</ele>
        <time>2021-12-05T16:32:24Z</time>
      </trkpt>
      <trkpt lat="42.73051" lon="2.48331">
        <ele>334</ele>
        <time>2021-12-05T16:32:26Z</time>
      </trkpt>
      <trkpt lat="42.73071" lon="2.48355">
        <ele>335</ele>
        <time>2021-12-05T16:32:31Z</time>
      </trkpt>
      <trkpt lat="42.73086" lon="2.48378">
        <ele>337</ele>
        <time>2021-12-05T16:32:35Z</time>
      </trkpt>
      <trkpt lat="42.731" lon="2.48416">
        <ele>338</ele>
        <time>2021-12-05T16:32:41Z</time>
      </trkpt>
      <trkpt lat="42.73114" lon="2.48464">
        <ele>340</ele>
        <time>2021-12-05T16:32:48Z</time>
      </trkpt>
      <trkpt lat="42.73135" lon="2.48508">
        <ele>335</ele>
        <time>2021-12-05T16:32:54Z</time>
      </trkpt>
      <trkpt lat="42.73142" lon="2.48529">
        <ele>332</ele>
        <time>2021-12-05T16:32:57Z</time>
      </trkpt>
      <trkpt lat="42.73142" lon="2.48549">
        <ele>332</ele>
        <time>2021-12-05T16:33:00Z</time>
      </trkpt>
      <trkpt lat="42.73138" lon="2.48562">
        <ele>333</ele>
        <time>2021-12-05T16:33:02Z</time>
      </trkpt>
      <trkpt lat="42.73127" lon="2.48577">
        <ele>336</ele>
        <time>2021-12-05T16:33:05Z</time>
      </trkpt>
      <trkpt lat="42.73092" lon="2.48614">
        <ele>341</ele>
        <time>2021-12-05T16:33:13Z</time>
      </trkpt>
      <trkpt lat="42.7308" lon="2.48634">
        <ele>341</ele>
        <time>2021-12-05T16:33:16Z</time>
      </trkpt>
      <trkpt lat="42.73075" lon="2.4865">
        <ele>340</ele>
        <time>2021-12-05T16:33:18Z</time>
      </trkpt>
      <trkpt lat="42.73077" lon="2.48666">
        <ele>337</ele>
        <time>2021-12-05T16:33:20Z</time>
      </trkpt>
      <trkpt lat="42.73086" lon="2.48677">
        <ele>335</ele>
        <time>2021-12-05T16:33:22Z</time>
      </trkpt>
      <trkpt lat="42.73096" lon="2.48678">
        <ele>334</ele>
        <time>2021-12-05T16:33:24Z</time>
      </trkpt>
      <trkpt lat="42.73106" lon="2.48668">
        <ele>333</ele>
        <time>2021-12-05T16:33:26Z</time>
      </trkpt>
      <trkpt lat="42.73125" lon="2.48647">
        <ele>332</ele>
        <time>2021-12-05T16:33:31Z</time>
      </trkpt>
      <trkpt lat="42.73134" lon="2.48643">
        <ele>331</ele>
        <time>2021-12-05T16:33:32Z</time>
      </trkpt>
      <trkpt lat="42.73145" lon="2.48647">
        <ele>330</ele>
        <time>2021-12-05T16:33:35Z</time>
      </trkpt>
      <trkpt lat="42.73156" lon="2.4866">
        <ele>328</ele>
        <time>2021-12-05T16:33:37Z</time>
      </trkpt>
      <trkpt lat="42.73166" lon="2.48689">
        <ele>329</ele>
        <time>2021-12-05T16:33:41Z</time>
      </trkpt>
      <trkpt lat="42.73169" lon="2.48714">
        <ele>330</ele>
        <time>2021-12-05T16:33:45Z</time>
      </trkpt>
      <trkpt lat="42.73168" lon="2.48733">
        <ele>332</ele>
        <time>2021-12-05T16:33:47Z</time>
      </trkpt>
      <trkpt lat="42.73162" lon="2.48757">
        <ele>334</ele>
        <time>2021-12-05T16:33:50Z</time>
      </trkpt>
      <trkpt lat="42.73152" lon="2.48773">
        <ele>336</ele>
        <time>2021-12-05T16:33:53Z</time>
      </trkpt>
      <trkpt lat="42.7315" lon="2.48789">
        <ele>337</ele>
        <time>2021-12-05T16:33:55Z</time>
      </trkpt>
      <trkpt lat="42.73156" lon="2.48801">
        <ele>337</ele>
        <time>2021-12-05T16:33:57Z</time>
      </trkpt>
      <trkpt lat="42.73163" lon="2.48805">
        <ele>337</ele>
        <time>2021-12-05T16:33:59Z</time>
      </trkpt>
      <trkpt lat="42.73172" lon="2.48805">
        <ele>336</ele>
        <time>2021-12-05T16:34:00Z</time>
      </trkpt>
      <trkpt lat="42.73199" lon="2.48788">
        <ele>332</ele>
        <time>2021-12-05T16:34:05Z</time>
      </trkpt>
      <trkpt lat="42.7321" lon="2.48785">
        <ele>330</ele>
        <time>2021-12-05T16:34:07Z</time>
      </trkpt>
      <trkpt lat="42.73219" lon="2.48788">
        <ele>330</ele>
        <time>2021-12-05T16:34:09Z</time>
      </trkpt>
      <trkpt lat="42.73247" lon="2.48813">
        <ele>330</ele>
        <time>2021-12-05T16:34:15Z</time>
      </trkpt>
      <trkpt lat="42.73257" lon="2.48818">
        <ele>332</ele>
        <time>2021-12-05T16:34:17Z</time>
      </trkpt>
      <trkpt lat="42.7327" lon="2.4882">
        <ele>335</ele>
        <time>2021-12-05T16:34:19Z</time>
      </trkpt>
      <trkpt lat="42.73284" lon="2.48818">
        <ele>337</ele>
        <time>2021-12-05T16:34:22Z</time>
      </trkpt>
      <trkpt lat="42.73298" lon="2.4881">
        <ele>337</ele>
        <time>2021-12-05T16:34:24Z</time>
      </trkpt>
      <trkpt lat="42.73321" lon="2.48787">
        <ele>335</ele>
        <time>2021-12-05T16:34:30Z</time>
      </trkpt>
      <trkpt lat="42.73338" lon="2.48762">
        <ele>330</ele>
        <time>2021-12-05T16:34:34Z</time>
      </trkpt>
      <trkpt lat="42.73347" lon="2.48754">
        <ele>331</ele>
        <time>2021-12-05T16:34:36Z</time>
      </trkpt>
      <trkpt lat="42.73356" lon="2.48748">
        <ele>332</ele>
        <time>2021-12-05T16:34:38Z</time>
      </trkpt>
      <trkpt lat="42.73374" lon="2.48745">
        <ele>338</ele>
        <time>2021-12-05T16:34:41Z</time>
      </trkpt>
      <trkpt lat="42.73381" lon="2.4874">
        <ele>339</ele>
        <time>2021-12-05T16:34:42Z</time>
      </trkpt>
      <trkpt lat="42.73431" lon="2.48649">
        <ele>336</ele>
        <time>2021-12-05T16:34:57Z</time>
      </trkpt>
      <trkpt lat="42.73436" lon="2.48635">
        <ele>338</ele>
        <time>2021-12-05T16:34:59Z</time>
      </trkpt>
      <trkpt lat="42.73436" lon="2.48627">
        <ele>337</ele>
        <time>2021-12-05T16:35:00Z</time>
      </trkpt>
      <trkpt lat="42.73431" lon="2.48607">
        <ele>333</ele>
        <time>2021-12-05T16:35:03Z</time>
      </trkpt>
      <trkpt lat="42.73428" lon="2.48539">
        <ele>331</ele>
        <time>2021-12-05T16:35:12Z</time>
      </trkpt>
      <trkpt lat="42.73411" lon="2.48454">
        <ele>327</ele>
        <time>2021-12-05T16:35:23Z</time>
      </trkpt>
      <trkpt lat="42.73399" lon="2.48417">
        <ele>327</ele>
        <time>2021-12-05T16:35:29Z</time>
      </trkpt>
      <trkpt lat="42.7338" lon="2.48372">
        <ele>320</ele>
        <time>2021-12-05T16:35:35Z</time>
      </trkpt>
      <trkpt lat="42.73376" lon="2.48358">
        <ele>318</ele>
        <time>2021-12-05T16:35:37Z</time>
      </trkpt>
      <trkpt lat="42.73376" lon="2.48343">
        <ele>317</ele>
        <time>2021-12-05T16:35:39Z</time>
      </trkpt>
      <trkpt lat="42.73381" lon="2.48333">
        <ele>315</ele>
        <time>2021-12-05T16:35:41Z</time>
      </trkpt>
      <trkpt lat="42.73389" lon="2.48329">
        <ele>315</ele>
        <time>2021-12-05T16:35:43Z</time>
      </trkpt>
      <trkpt lat="42.73399" lon="2.48331">
        <ele>315</ele>
        <time>2021-12-05T16:35:44Z</time>
      </trkpt>
      <trkpt lat="42.73429" lon="2.48347">
        <ele>318</ele>
        <time>2021-12-05T16:35:50Z</time>
      </trkpt>
      <trkpt lat="42.73439" lon="2.4835">
        <ele>321</ele>
        <time>2021-12-05T16:35:52Z</time>
      </trkpt>
      <trkpt lat="42.73461" lon="2.48352">
        <ele>325</ele>
        <time>2021-12-05T16:35:56Z</time>
      </trkpt>
      <trkpt lat="42.7347" lon="2.4835">
        <ele>326</ele>
        <time>2021-12-05T16:35:57Z</time>
      </trkpt>
      <trkpt lat="42.73479" lon="2.48345">
        <ele>326</ele>
        <time>2021-12-05T16:35:59Z</time>
      </trkpt>
      <trkpt lat="42.73507" lon="2.48321">
        <ele>325</ele>
        <time>2021-12-05T16:36:05Z</time>
      </trkpt>
      <trkpt lat="42.7352" lon="2.48306">
        <ele>325</ele>
        <time>2021-12-05T16:36:08Z</time>
      </trkpt>
      <trkpt lat="42.73549" lon="2.4825">
        <ele>319</ele>
        <time>2021-12-05T16:36:17Z</time>
      </trkpt>
      <trkpt lat="42.73554" lon="2.48234">
        <ele>318</ele>
        <time>2021-12-05T16:36:19Z</time>
      </trkpt>
      <trkpt lat="42.73563" lon="2.48191">
        <ele>313</ele>
        <time>2021-12-05T16:36:25Z</time>
      </trkpt>
      <trkpt lat="42.73595" lon="2.48126">
        <ele>304</ele>
        <time>2021-12-05T16:36:35Z</time>
      </trkpt>
      <trkpt lat="42.73609" lon="2.48113">
        <ele>303</ele>
        <time>2021-12-05T16:36:38Z</time>
      </trkpt>
      <trkpt lat="42.7362" lon="2.48106">
        <ele>302</ele>
        <time>2021-12-05T16:36:41Z</time>
      </trkpt>
      <trkpt lat="42.73639" lon="2.48103">
        <ele>301</ele>
        <time>2021-12-05T16:36:44Z</time>
      </trkpt>
      <trkpt lat="42.73654" lon="2.48104">
        <ele>301</ele>
        <time>2021-12-05T16:36:47Z</time>
      </trkpt>
      <trkpt lat="42.73671" lon="2.48113">
        <ele>301</ele>
        <time>2021-12-05T16:36:50Z</time>
      </trkpt>
      <trkpt lat="42.73719" lon="2.48147">
        <ele>300</ele>
        <time>2021-12-05T16:36:59Z</time>
      </trkpt>
      <trkpt lat="42.73736" lon="2.48153">
        <ele>299</ele>
        <time>2021-12-05T16:37:03Z</time>
      </trkpt>
      <trkpt lat="42.73742" lon="2.48154">
        <ele>299</ele>
        <time>2021-12-05T16:37:04Z</time>
      </trkpt>
      <trkpt lat="42.73772" lon="2.48159">
        <ele>302</ele>
        <time>2021-12-05T16:37:09Z</time>
      </trkpt>
      <trkpt lat="42.73777" lon="2.4816">
        <ele>303</ele>
        <time>2021-12-05T16:37:10Z</time>
      </trkpt>
      <trkpt lat="42.73783" lon="2.48165">
        <ele>304</ele>
        <time>2021-12-05T16:37:11Z</time>
      </trkpt>
      <trkpt lat="42.73803" lon="2.48225">
        <ele>303</ele>
        <time>2021-12-05T16:37:20Z</time>
      </trkpt>
      <trkpt lat="42.73809" lon="2.48231">
        <ele>303</ele>
        <time>2021-12-05T16:37:21Z</time>
      </trkpt>
      <trkpt lat="42.73824" lon="2.48242">
        <ele>304</ele>
        <time>2021-12-05T16:37:24Z</time>
      </trkpt>
      <trkpt lat="42.73827" lon="2.48251">
        <ele>303</ele>
        <time>2021-12-05T16:37:25Z</time>
      </trkpt>
      <trkpt lat="42.73828" lon="2.48275">
        <ele>303</ele>
        <time>2021-12-05T16:37:29Z</time>
      </trkpt>
      <trkpt lat="42.73837" lon="2.48316">
        <ele>304</ele>
        <time>2021-12-05T16:37:34Z</time>
      </trkpt>
      <trkpt lat="42.73836" lon="2.4833">
        <ele>304</ele>
        <time>2021-12-05T16:37:36Z</time>
      </trkpt>
      <trkpt lat="42.73831" lon="2.48362">
        <ele>302</ele>
        <time>2021-12-05T16:37:40Z</time>
      </trkpt>
      <trkpt lat="42.73831" lon="2.48376">
        <ele>302</ele>
        <time>2021-12-05T16:37:42Z</time>
      </trkpt>
      <trkpt lat="42.73842" lon="2.48426">
        <ele>303</ele>
        <time>2021-12-05T16:37:49Z</time>
      </trkpt>
      <trkpt lat="42.73851" lon="2.48484">
        <ele>302</ele>
        <time>2021-12-05T16:37:57Z</time>
      </trkpt>
      <trkpt lat="42.73859" lon="2.48508">
        <ele>302</ele>
        <time>2021-12-05T16:38:00Z</time>
      </trkpt>
      <trkpt lat="42.73868" lon="2.48527">
        <ele>303</ele>
        <time>2021-12-05T16:38:03Z</time>
      </trkpt>
      <trkpt lat="42.73883" lon="2.48542">
        <ele>305</ele>
        <time>2021-12-05T16:38:06Z</time>
      </trkpt>
      <trkpt lat="42.73898" lon="2.4856">
        <ele>306</ele>
        <time>2021-12-05T16:38:10Z</time>
      </trkpt>
      <trkpt lat="42.73912" lon="2.48598">
        <ele>303</ele>
        <time>2021-12-05T16:38:16Z</time>
      </trkpt>
      <trkpt lat="42.73921" lon="2.48604">
        <ele>302</ele>
        <time>2021-12-05T16:38:17Z</time>
      </trkpt>
      <trkpt lat="42.73932" lon="2.48606">
        <ele>302</ele>
        <time>2021-12-05T16:38:19Z</time>
      </trkpt>
      <trkpt lat="42.74002" lon="2.48595">
        <ele>301</ele>
        <time>2021-12-05T16:38:32Z</time>
      </trkpt>
      <trkpt lat="42.74018" lon="2.48589">
        <ele>300</ele>
        <time>2021-12-05T16:38:35Z</time>
      </trkpt>
      <trkpt lat="42.741" lon="2.48523">
        <ele>304</ele>
        <time>2021-12-05T16:38:52Z</time>
      </trkpt>
      <trkpt lat="42.74122" lon="2.48515">
        <ele>303</ele>
        <time>2021-12-05T16:38:56Z</time>
      </trkpt>
      <trkpt lat="42.74168" lon="2.48508">
        <ele>300</ele>
        <time>2021-12-05T16:39:04Z</time>
      </trkpt>
      <trkpt lat="42.74193" lon="2.48498">
        <ele>301</ele>
        <time>2021-12-05T16:39:09Z</time>
      </trkpt>
      <trkpt lat="42.74223" lon="2.48479">
        <ele>305</ele>
        <time>2021-12-05T16:39:15Z</time>
      </trkpt>
      <trkpt lat="42.74249" lon="2.48478">
        <ele>305</ele>
        <time>2021-12-05T16:39:19Z</time>
      </trkpt>
      <trkpt lat="42.74259" lon="2.48481">
        <ele>307</ele>
        <time>2021-12-05T16:39:21Z</time>
      </trkpt>
      <trkpt lat="42.74268" lon="2.4849">
        <ele>309</ele>
        <time>2021-12-05T16:39:23Z</time>
      </trkpt>
      <trkpt lat="42.74277" lon="2.48519">
        <ele>308</ele>
        <time>2021-12-05T16:39:27Z</time>
      </trkpt>
      <trkpt lat="42.74322" lon="2.48599">
        <ele>312</ele>
        <time>2021-12-05T16:39:40Z</time>
      </trkpt>
      <trkpt lat="42.7433" lon="2.48622">
        <ele>311</ele>
        <time>2021-12-05T16:39:44Z</time>
      </trkpt>
      <trkpt lat="42.74332" lon="2.48639">
        <ele>310</ele>
        <time>2021-12-05T16:39:46Z</time>
      </trkpt>
      <trkpt lat="42.74327" lon="2.48672">
        <ele>305</ele>
        <time>2021-12-05T16:39:50Z</time>
      </trkpt>
      <trkpt lat="42.74323" lon="2.48717">
        <ele>300</ele>
        <time>2021-12-05T16:39:56Z</time>
      </trkpt>
      <trkpt lat="42.74322" lon="2.48759">
        <ele>296</ele>
        <time>2021-12-05T16:40:02Z</time>
      </trkpt>
      <trkpt lat="42.74326" lon="2.4878">
        <ele>295</ele>
        <time>2021-12-05T16:40:04Z</time>
      </trkpt>
      <trkpt lat="42.74333" lon="2.48792">
        <ele>295</ele>
        <time>2021-12-05T16:40:06Z</time>
      </trkpt>
      <trkpt lat="42.74348" lon="2.48802">
        <ele>292</ele>
        <time>2021-12-05T16:40:09Z</time>
      </trkpt>
      <trkpt lat="42.74367" lon="2.48803">
        <ele>290</ele>
        <time>2021-12-05T16:40:13Z</time>
      </trkpt>
      <trkpt lat="42.74383" lon="2.4879">
        <ele>290</ele>
        <time>2021-12-05T16:40:16Z</time>
      </trkpt>
      <trkpt lat="42.74394" lon="2.48772">
        <ele>291</ele>
        <time>2021-12-05T16:40:19Z</time>
      </trkpt>
      <trkpt lat="42.74407" lon="2.48739">
        <ele>295</ele>
        <time>2021-12-05T16:40:24Z</time>
      </trkpt>
      <trkpt lat="42.74421" lon="2.48692">
        <ele>307</ele>
        <time>2021-12-05T16:40:31Z</time>
      </trkpt>
      <trkpt lat="42.74432" lon="2.48673">
        <ele>311</ele>
        <time>2021-12-05T16:40:34Z</time>
      </trkpt>
      <trkpt lat="42.74442" lon="2.48665">
        <ele>311</ele>
        <time>2021-12-05T16:40:36Z</time>
      </trkpt>
      <trkpt lat="42.74453" lon="2.4866">
        <ele>311</ele>
        <time>2021-12-05T16:40:38Z</time>
      </trkpt>
      <trkpt lat="42.74479" lon="2.48662">
        <ele>305</ele>
        <time>2021-12-05T16:40:43Z</time>
      </trkpt>
      <trkpt lat="42.74491" lon="2.48656">
        <ele>305</ele>
        <time>2021-12-05T16:40:45Z</time>
      </trkpt>
      <trkpt lat="42.74508" lon="2.4864">
        <ele>314</ele>
        <time>2021-12-05T16:40:49Z</time>
      </trkpt>
      <trkpt lat="42.74516" lon="2.48636">
        <ele>318</ele>
        <time>2021-12-05T16:40:50Z</time>
      </trkpt>
      <trkpt lat="42.74524" lon="2.48638">
        <ele>319</ele>
        <time>2021-12-05T16:40:52Z</time>
      </trkpt>
      <trkpt lat="42.74533" lon="2.48646">
        <ele>318</ele>
        <time>2021-12-05T16:40:53Z</time>
      </trkpt>
      <trkpt lat="42.74558" lon="2.48687">
        <ele>309</ele>
        <time>2021-12-05T16:41:00Z</time>
      </trkpt>
      <trkpt lat="42.74598" lon="2.48742">
        <ele>309</ele>
        <time>2021-12-05T16:41:11Z</time>
      </trkpt>
      <trkpt lat="42.74606" lon="2.48787">
        <ele>308</ele>
        <time>2021-12-05T16:41:17Z</time>
      </trkpt>
      <trkpt lat="42.74605" lon="2.48874">
        <ele>298</ele>
        <time>2021-12-05T16:41:28Z</time>
      </trkpt>
      <trkpt lat="42.74628" lon="2.48987">
        <ele>293</ele>
        <time>2021-12-05T16:41:43Z</time>
      </trkpt>
      <trkpt lat="42.74636" lon="2.49002">
        <ele>294</ele>
        <time>2021-12-05T16:41:46Z</time>
      </trkpt>
      <trkpt lat="42.74654" lon="2.49011">
        <ele>299</ele>
        <time>2021-12-05T16:41:49Z</time>
      </trkpt>
      <trkpt lat="42.74664" lon="2.49024">
        <ele>302</ele>
        <time>2021-12-05T16:41:52Z</time>
      </trkpt>
      <trkpt lat="42.74669" lon="2.4904">
        <ele>303</ele>
        <time>2021-12-05T16:41:54Z</time>
      </trkpt>
      <trkpt lat="42.74666" lon="2.4906">
        <ele>303</ele>
        <time>2021-12-05T16:41:57Z</time>
      </trkpt>
      <trkpt lat="42.74646" lon="2.49111">
        <ele>298</ele>
        <time>2021-12-05T16:42:04Z</time>
      </trkpt>
      <trkpt lat="42.74643" lon="2.49128">
        <ele>297</ele>
        <time>2021-12-05T16:42:06Z</time>
      </trkpt>
      <trkpt lat="42.74643" lon="2.49189">
        <ele>299</ele>
        <time>2021-12-05T16:42:14Z</time>
      </trkpt>
      <trkpt lat="42.74639" lon="2.49243">
        <ele>298</ele>
        <time>2021-12-05T16:42:21Z</time>
      </trkpt>
      <trkpt lat="42.74625" lon="2.49323">
        <ele>295</ele>
        <time>2021-12-05T16:42:32Z</time>
      </trkpt>
      <trkpt lat="42.74608" lon="2.49394">
        <ele>291</ele>
        <time>2021-12-05T16:42:42Z</time>
      </trkpt>
      <trkpt lat="42.74589" lon="2.49455">
        <ele>291</ele>
        <time>2021-12-05T16:42:51Z</time>
      </trkpt>
      <trkpt lat="42.74581" lon="2.49487">
        <ele>294</ele>
        <time>2021-12-05T16:42:55Z</time>
      </trkpt>
      <trkpt lat="42.74582" lon="2.49503">
        <ele>296</ele>
        <time>2021-12-05T16:42:57Z</time>
      </trkpt>
      <trkpt lat="42.74586" lon="2.49512">
        <ele>296</ele>
        <time>2021-12-05T16:42:58Z</time>
      </trkpt>
      <trkpt lat="42.74593" lon="2.49516">
        <ele>294</ele>
        <time>2021-12-05T16:43:00Z</time>
      </trkpt>
      <trkpt lat="42.74605" lon="2.49517">
        <ele>292</ele>
        <time>2021-12-05T16:43:02Z</time>
      </trkpt>
      <trkpt lat="42.74615" lon="2.49512">
        <ele>290</ele>
        <time>2021-12-05T16:43:04Z</time>
      </trkpt>
      <trkpt lat="42.74666" lon="2.49463">
        <ele>294</ele>
        <time>2021-12-05T16:43:15Z</time>
      </trkpt>
      <trkpt lat="42.74704" lon="2.49446">
        <ele>297</ele>
        <time>2021-12-05T16:43:22Z</time>
      </trkpt>
      <trkpt lat="42.74723" lon="2.49443">
        <ele>298</ele>
        <time>2021-12-05T16:43:26Z</time>
      </trkpt>
      <trkpt lat="42.74742" lon="2.49444">
        <ele>297</ele>
        <time>2021-12-05T16:43:29Z</time>
      </trkpt>
      <trkpt lat="42.74765" lon="2.49455">
        <ele>293</ele>
        <time>2021-12-05T16:43:33Z</time>
      </trkpt>
      <trkpt lat="42.74793" lon="2.49473">
        <ele>289</ele>
        <time>2021-12-05T16:43:39Z</time>
      </trkpt>
      <trkpt lat="42.74809" lon="2.49487">
        <ele>286</ele>
        <time>2021-12-05T16:43:42Z</time>
      </trkpt>
      <trkpt lat="42.74823" lon="2.49493">
        <ele>286</ele>
        <time>2021-12-05T16:43:45Z</time>
      </trkpt>
      <trkpt lat="42.74885" lon="2.49512">
        <ele>276</ele>
        <time>2021-12-05T16:43:56Z</time>
      </trkpt>
      <trkpt lat="42.74902" lon="2.49514">
        <ele>274</ele>
        <time>2021-12-05T16:43:59Z</time>
      </trkpt>
      <trkpt lat="42.74914" lon="2.49509">
        <ele>274</ele>
        <time>2021-12-05T16:44:01Z</time>
      </trkpt>
      <trkpt lat="42.7492" lon="2.49497">
        <ele>274</ele>
        <time>2021-12-05T16:44:03Z</time>
      </trkpt>
      <trkpt lat="42.74926" lon="2.49447">
        <ele>276</ele>
        <time>2021-12-05T16:44:10Z</time>
      </trkpt>
      <trkpt lat="42.74929" lon="2.49405">
        <ele>279</ele>
        <time>2021-12-05T16:44:15Z</time>
      </trkpt>
      <trkpt lat="42.74942" lon="2.49346">
        <ele>283</ele>
        <time>2021-12-05T16:44:23Z</time>
      </trkpt>
      <trkpt lat="42.74972" lon="2.49278">
        <ele>284</ele>
        <time>2021-12-05T16:44:34Z</time>
      </trkpt>
      <trkpt lat="42.74997" lon="2.49244">
        <ele>282</ele>
        <time>2021-12-05T16:44:40Z</time>
      </trkpt>
      <trkpt lat="42.75019" lon="2.49226">
        <ele>283</ele>
        <time>2021-12-05T16:44:45Z</time>
      </trkpt>
      <trkpt lat="42.75059" lon="2.49208">
        <ele>281</ele>
        <time>2021-12-05T16:44:52Z</time>
      </trkpt>
      <trkpt lat="42.75081" lon="2.49201">
        <ele>279</ele>
        <time>2021-12-05T16:44:56Z</time>
      </trkpt>
      <trkpt lat="42.75089" lon="2.49202">
        <ele>279</ele>
        <time>2021-12-05T16:44:58Z</time>
      </trkpt>
      <trkpt lat="42.75101" lon="2.49211">
        <ele>277</ele>
        <time>2021-12-05T16:45:00Z</time>
      </trkpt>
      <trkpt lat="42.75137" lon="2.49247">
        <ele>272</ele>
        <time>2021-12-05T16:45:08Z</time>
      </trkpt>
      <trkpt lat="42.75176" lon="2.49314">
        <ele>260</ele>
        <time>2021-12-05T16:45:19Z</time>
      </trkpt>
      <trkpt lat="42.75189" lon="2.49332">
        <ele>257</ele>
        <time>2021-12-05T16:45:22Z</time>
      </trkpt>
      <trkpt lat="42.75208" lon="2.49352">
        <ele>256</ele>
        <time>2021-12-05T16:45:27Z</time>
      </trkpt>
      <trkpt lat="42.75224" lon="2.49352">
        <ele>258</ele>
        <time>2021-12-05T16:45:30Z</time>
      </trkpt>
      <trkpt lat="42.75235" lon="2.49347">
        <ele>260</ele>
        <time>2021-12-05T16:45:32Z</time>
      </trkpt>
      <trkpt lat="42.75253" lon="2.49344">
        <ele>262</ele>
        <time>2021-12-05T16:45:35Z</time>
      </trkpt>
      <trkpt lat="42.75288" lon="2.49347">
        <ele>260</ele>
        <time>2021-12-05T16:45:41Z</time>
      </trkpt>
      <trkpt lat="42.75312" lon="2.49351">
        <ele>258</ele>
        <time>2021-12-05T16:45:45Z</time>
      </trkpt>
      <trkpt lat="42.7533" lon="2.49358">
        <ele>257</ele>
        <time>2021-12-05T16:45:49Z</time>
      </trkpt>
      <trkpt lat="42.75359" lon="2.49377">
        <ele>254</ele>
        <time>2021-12-05T16:45:54Z</time>
      </trkpt>
      <trkpt lat="42.75365" lon="2.49387">
        <ele>253</ele>
        <time>2021-12-05T16:45:56Z</time>
      </trkpt>
      <trkpt lat="42.75369" lon="2.49404">
        <ele>252</ele>
        <time>2021-12-05T16:45:58Z</time>
      </trkpt>
      <trkpt lat="42.75367" lon="2.49423">
        <ele>250</ele>
        <time>2021-12-05T16:46:01Z</time>
      </trkpt>
      <trkpt lat="42.75361" lon="2.4944">
        <ele>250</ele>
        <time>2021-12-05T16:46:03Z</time>
      </trkpt>
      <trkpt lat="42.75349" lon="2.4947">
        <ele>251</ele>
        <time>2021-12-05T16:46:08Z</time>
      </trkpt>
      <trkpt lat="42.75331" lon="2.4952">
        <ele>254</ele>
        <time>2021-12-05T16:46:15Z</time>
      </trkpt>
      <trkpt lat="42.75328" lon="2.49534">
        <ele>255</ele>
        <time>2021-12-05T16:46:17Z</time>
      </trkpt>
      <trkpt lat="42.75333" lon="2.49582">
        <ele>261</ele>
        <time>2021-12-05T16:46:23Z</time>
      </trkpt>
      <trkpt lat="42.75333" lon="2.49597">
        <ele>262</ele>
        <time>2021-12-05T16:46:25Z</time>
      </trkpt>
      <trkpt lat="42.7533" lon="2.49611">
        <ele>263</ele>
        <time>2021-12-05T16:46:27Z</time>
      </trkpt>
      <trkpt lat="42.75304" lon="2.49681">
        <ele>260</ele>
        <time>2021-12-05T16:46:37Z</time>
      </trkpt>
      <trkpt lat="42.75298" lon="2.49722">
        <ele>262</ele>
        <time>2021-12-05T16:46:43Z</time>
      </trkpt>
      <trkpt lat="42.75295" lon="2.49763">
        <ele>264</ele>
        <time>2021-12-05T16:46:48Z</time>
      </trkpt>
      <trkpt lat="42.75286" lon="2.49812">
        <ele>264</ele>
        <time>2021-12-05T16:46:55Z</time>
      </trkpt>
      <trkpt lat="42.75281" lon="2.49826">
        <ele>263</ele>
        <time>2021-12-05T16:46:57Z</time>
      </trkpt>
      <trkpt lat="42.75269" lon="2.49845">
        <ele>259</ele>
        <time>2021-12-05T16:47:00Z</time>
      </trkpt>
      <trkpt lat="42.75235" lon="2.49892">
        <ele>258</ele>
        <time>2021-12-05T16:47:09Z</time>
      </trkpt>
      <trkpt lat="42.75213" lon="2.49913">
        <ele>255</ele>
        <time>2021-12-05T16:47:14Z</time>
      </trkpt>
      <trkpt lat="42.75204" lon="2.49926">
        <ele>253</ele>
        <time>2021-12-05T16:47:16Z</time>
      </trkpt>
      <trkpt lat="42.75194" lon="2.49955">
        <ele>251</ele>
        <time>2021-12-05T16:47:20Z</time>
      </trkpt>
      <trkpt lat="42.75187" lon="2.49988">
        <ele>249</ele>
        <time>2021-12-05T16:47:25Z</time>
      </trkpt>
      <trkpt lat="42.75185" lon="2.50006">
        <ele>248</ele>
        <time>2021-12-05T16:47:27Z</time>
      </trkpt>
      <trkpt lat="42.75187" lon="2.50025">
        <ele>249</ele>
        <time>2021-12-05T16:47:30Z</time>
      </trkpt>
      <trkpt lat="42.75202" lon="2.5007">
        <ele>255</ele>
        <time>2021-12-05T16:47:36Z</time>
      </trkpt>
      <trkpt lat="42.75207" lon="2.50093">
        <ele>257</ele>
        <time>2021-12-05T16:47:39Z</time>
      </trkpt>
      <trkpt lat="42.75206" lon="2.50121">
        <ele>256</ele>
        <time>2021-12-05T16:47:43Z</time>
      </trkpt>
      <trkpt lat="42.752" lon="2.50192">
        <ele>252</ele>
        <time>2021-12-05T16:47:52Z</time>
      </trkpt>
      <trkpt lat="42.75203" lon="2.50216">
        <ele>252</ele>
        <time>2021-12-05T16:47:55Z</time>
      </trkpt>
      <trkpt lat="42.75211" lon="2.50253">
        <ele>252</ele>
        <time>2021-12-05T16:48:00Z</time>
      </trkpt>
      <trkpt lat="42.75222" lon="2.5029">
        <ele>253</ele>
        <time>2021-12-05T16:48:06Z</time>
      </trkpt>
      <trkpt lat="42.75222" lon="2.50303">
        <ele>252</ele>
        <time>2021-12-05T16:48:07Z</time>
      </trkpt>
      <trkpt lat="42.75219" lon="2.50356">
        <ele>248</ele>
        <time>2021-12-05T16:48:14Z</time>
      </trkpt>
      <trkpt lat="42.75222" lon="2.50372">
        <ele>248</ele>
        <time>2021-12-05T16:48:16Z</time>
      </trkpt>
      <trkpt lat="42.75232" lon="2.50393">
        <ele>251</ele>
        <time>2021-12-05T16:48:20Z</time>
      </trkpt>
      <trkpt lat="42.75235" lon="2.50408">
        <ele>252</ele>
        <time>2021-12-05T16:48:22Z</time>
      </trkpt>
      <trkpt lat="42.75235" lon="2.5042">
        <ele>252</ele>
        <time>2021-12-05T16:48:23Z</time>
      </trkpt>
      <trkpt lat="42.75231" lon="2.50433">
        <ele>253</ele>
        <time>2021-12-05T16:48:25Z</time>
      </trkpt>
      <trkpt lat="42.75212" lon="2.50459">
        <ele>250</ele>
        <time>2021-12-05T16:48:30Z</time>
      </trkpt>
      <trkpt lat="42.75206" lon="2.5047">
        <ele>249</ele>
        <time>2021-12-05T16:48:32Z</time>
      </trkpt>
      <trkpt lat="42.75203" lon="2.50484">
        <ele>250</ele>
        <time>2021-12-05T16:48:34Z</time>
      </trkpt>
      <trkpt lat="42.75198" lon="2.50517">
        <ele>251</ele>
        <time>2021-12-05T16:48:38Z</time>
      </trkpt>
      <trkpt lat="42.75184" lon="2.50575">
        <ele>251</ele>
        <time>2021-12-05T16:48:46Z</time>
      </trkpt>
      <trkpt lat="42.75178" lon="2.50604">
        <ele>251</ele>
        <time>2021-12-05T16:48:50Z</time>
      </trkpt>
      <trkpt lat="42.75169" lon="2.50676">
        <ele>256</ele>
        <time>2021-12-05T16:48:59Z</time>
      </trkpt>
      <trkpt lat="42.75164" lon="2.50696">
        <ele>256</ele>
        <time>2021-12-05T16:49:02Z</time>
      </trkpt>
      <trkpt lat="42.75116" lon="2.5082">
        <ele>245</ele>
        <time>2021-12-05T16:49:20Z</time>
      </trkpt>
      <trkpt lat="42.75111" lon="2.50841">
        <ele>242</ele>
        <time>2021-12-05T16:49:23Z</time>
      </trkpt>
      <trkpt lat="42.75113" lon="2.50851">
        <ele>242</ele>
        <time>2021-12-05T16:49:25Z</time>
      </trkpt>
      <trkpt lat="42.75117" lon="2.50864">
        <ele>241</ele>
        <time>2021-12-05T16:49:27Z</time>
      </trkpt>
      <trkpt lat="42.75126" lon="2.50874">
        <ele>242</ele>
        <time>2021-12-05T16:49:29Z</time>
      </trkpt>
      <trkpt lat="42.75165" lon="2.50899">
        <ele>246</ele>
        <time>2021-12-05T16:49:36Z</time>
      </trkpt>
      <trkpt lat="42.752" lon="2.50913">
        <ele>255</ele>
        <time>2021-12-05T16:49:43Z</time>
      </trkpt>
      <trkpt lat="42.75213" lon="2.50921">
        <ele>258</ele>
        <time>2021-12-05T16:49:45Z</time>
      </trkpt>
      <trkpt lat="42.75223" lon="2.50932">
        <ele>258</ele>
        <time>2021-12-05T16:49:48Z</time>
      </trkpt>
      <trkpt lat="42.75255" lon="2.5102">
        <ele>241</ele>
        <time>2021-12-05T16:50:00Z</time>
      </trkpt>
      <trkpt lat="42.75264" lon="2.51031">
        <ele>238</ele>
        <time>2021-12-05T16:50:03Z</time>
      </trkpt>
      <trkpt lat="42.75273" lon="2.51033">
        <ele>238</ele>
        <time>2021-12-05T16:50:04Z</time>
      </trkpt>
      <trkpt lat="42.75285" lon="2.51028">
        <ele>239</ele>
        <time>2021-12-05T16:50:06Z</time>
      </trkpt>
      <trkpt lat="42.75302" lon="2.51017">
        <ele>243</ele>
        <time>2021-12-05T16:50:10Z</time>
      </trkpt>
      <trkpt lat="42.75335" lon="2.51006">
        <ele>247</ele>
        <time>2021-12-05T16:50:16Z</time>
      </trkpt>
      <trkpt lat="42.75373" lon="2.50998">
        <ele>246</ele>
        <time>2021-12-05T16:50:23Z</time>
      </trkpt>
      <trkpt lat="42.75405" lon="2.50976">
        <ele>253</ele>
        <time>2021-12-05T16:50:29Z</time>
      </trkpt>
      <trkpt lat="42.75416" lon="2.50972">
        <ele>254</ele>
        <time>2021-12-05T16:50:31Z</time>
      </trkpt>
      <trkpt lat="42.75441" lon="2.50977">
        <ele>251</ele>
        <time>2021-12-05T16:50:36Z</time>
      </trkpt>
      <trkpt lat="42.75462" lon="2.50976">
        <ele>251</ele>
        <time>2021-12-05T16:50:39Z</time>
      </trkpt>
      <trkpt lat="42.7548" lon="2.50974">
        <ele>252</ele>
        <time>2021-12-05T16:50:43Z</time>
      </trkpt>
      <trkpt lat="42.75493" lon="2.50976">
        <ele>251</ele>
        <time>2021-12-05T16:50:45Z</time>
      </trkpt>
      <trkpt lat="42.75527" lon="2.51002">
        <ele>241</ele>
        <time>2021-12-05T16:50:52Z</time>
      </trkpt>
      <trkpt lat="42.75538" lon="2.51006">
        <ele>239</ele>
        <time>2021-12-05T16:50:54Z</time>
      </trkpt>
      <trkpt lat="42.75545" lon="2.51001">
        <ele>241</ele>
        <time>2021-12-05T16:50:55Z</time>
      </trkpt>
      <trkpt lat="42.75557" lon="2.50951">
        <ele>254</ele>
        <time>2021-12-05T16:51:02Z</time>
      </trkpt>
      <trkpt lat="42.75568" lon="2.50933">
        <ele>257</ele>
        <time>2021-12-05T16:51:05Z</time>
      </trkpt>
      <trkpt lat="42.75578" lon="2.50925">
        <ele>257</ele>
        <time>2021-12-05T16:51:07Z</time>
      </trkpt>
      <trkpt lat="42.75588" lon="2.50923">
        <ele>258</ele>
        <time>2021-12-05T16:51:09Z</time>
      </trkpt>
      <trkpt lat="42.75597" lon="2.50925">
        <ele>260</ele>
        <time>2021-12-05T16:51:11Z</time>
      </trkpt>
      <trkpt lat="42.75606" lon="2.50933">
        <ele>261</ele>
        <time>2021-12-05T16:51:13Z</time>
      </trkpt>
      <trkpt lat="42.75612" lon="2.50949">
        <ele>260</ele>
        <time>2021-12-05T16:51:15Z</time>
      </trkpt>
      <trkpt lat="42.75626" lon="2.51031">
        <ele>248</ele>
        <time>2021-12-05T16:51:26Z</time>
      </trkpt>
      <trkpt lat="42.75632" lon="2.51053">
        <ele>246</ele>
        <time>2021-12-05T16:51:29Z</time>
      </trkpt>
      <trkpt lat="42.75639" lon="2.51068">
        <ele>245</ele>
        <time>2021-12-05T16:51:31Z</time>
      </trkpt>
      <trkpt lat="42.7567" lon="2.51114">
        <ele>246</ele>
        <time>2021-12-05T16:51:39Z</time>
      </trkpt>
      <trkpt lat="42.75722" lon="2.51201">
        <ele>242</ele>
        <time>2021-12-05T16:51:54Z</time>
      </trkpt>
      <trkpt lat="42.75739" lon="2.51238">
        <ele>237</ele>
        <time>2021-12-05T16:52:00Z</time>
      </trkpt>
      <trkpt lat="42.75744" lon="2.51243">
        <ele>237</ele>
        <time>2021-12-05T16:52:01Z</time>
      </trkpt>
      <trkpt lat="42.75756" lon="2.51244">
        <ele>239</ele>
        <time>2021-12-05T16:52:03Z</time>
      </trkpt>
      <trkpt lat="42.75763" lon="2.51242">
        <ele>239</ele>
        <time>2021-12-05T16:52:04Z</time>
      </trkpt>
      <trkpt lat="42.75776" lon="2.51227">
        <ele>242</ele>
        <time>2021-12-05T16:52:07Z</time>
      </trkpt>
      <trkpt lat="42.75815" lon="2.51169">
        <ele>251</ele>
        <time>2021-12-05T16:52:18Z</time>
      </trkpt>
      <trkpt lat="42.75829" lon="2.5116">
        <ele>251</ele>
        <time>2021-12-05T16:52:20Z</time>
      </trkpt>
      <trkpt lat="42.75874" lon="2.51145">
        <ele>253</ele>
        <time>2021-12-05T16:52:29Z</time>
      </trkpt>
      <trkpt lat="42.7589" lon="2.51144">
        <ele>252</ele>
        <time>2021-12-05T16:52:31Z</time>
      </trkpt>
      <trkpt lat="42.759" lon="2.51147">
        <ele>251</ele>
        <time>2021-12-05T16:52:33Z</time>
      </trkpt>
      <trkpt lat="42.75907" lon="2.51155">
        <ele>249</ele>
        <time>2021-12-05T16:52:35Z</time>
      </trkpt>
      <trkpt lat="42.75919" lon="2.51183">
        <ele>245</ele>
        <time>2021-12-05T16:52:39Z</time>
      </trkpt>
      <trkpt lat="42.7593" lon="2.51216">
        <ele>244</ele>
        <time>2021-12-05T16:52:44Z</time>
      </trkpt>
      <trkpt lat="42.75939" lon="2.51231">
        <ele>244</ele>
        <time>2021-12-05T16:52:46Z</time>
      </trkpt>
      <trkpt lat="42.75971" lon="2.51263">
        <ele>246</ele>
        <time>2021-12-05T16:52:54Z</time>
      </trkpt>
      <trkpt lat="42.75985" lon="2.51295">
        <ele>247</ele>
        <time>2021-12-05T16:52:58Z</time>
      </trkpt>
      <trkpt lat="42.75987" lon="2.51313">
        <ele>246</ele>
        <time>2021-12-05T16:53:01Z</time>
      </trkpt>
      <trkpt lat="42.75987" lon="2.51342">
        <ele>246</ele>
        <time>2021-12-05T16:53:05Z</time>
      </trkpt>
      <trkpt lat="42.75981" lon="2.51373">
        <ele>246</ele>
        <time>2021-12-05T16:53:09Z</time>
      </trkpt>
      <trkpt lat="42.75961" lon="2.51454">
        <ele>244</ele>
        <time>2021-12-05T16:53:20Z</time>
      </trkpt>
      <trkpt lat="42.7596" lon="2.51471">
        <ele>244</ele>
        <time>2021-12-05T16:53:22Z</time>
      </trkpt>
      <trkpt lat="42.75966" lon="2.51516">
        <ele>244</ele>
        <time>2021-12-05T16:53:28Z</time>
      </trkpt>
      <trkpt lat="42.75987" lon="2.51634">
        <ele>245</ele>
        <time>2021-12-05T16:53:44Z</time>
      </trkpt>
      <trkpt lat="42.75994" lon="2.51666">
        <ele>247</ele>
        <time>2021-12-05T16:53:48Z</time>
      </trkpt>
      <trkpt lat="42.75998" lon="2.51669">
        <ele>247</ele>
        <time>2021-12-05T16:53:49Z</time>
      </trkpt>
      <trkpt lat="42.76003" lon="2.51668">
        <ele>247</ele>
        <time>2021-12-05T16:53:50Z</time>
      </trkpt>
      <trkpt lat="42.76013" lon="2.5166">
        <ele>247</ele>
        <time>2021-12-05T16:53:52Z</time>
      </trkpt>
      <trkpt lat="42.76079" lon="2.51597">
        <ele>245</ele>
        <time>2021-12-05T16:54:06Z</time>
      </trkpt>
      <trkpt lat="42.76107" lon="2.51566">
        <ele>240</ele>
        <time>2021-12-05T16:54:13Z</time>
      </trkpt>
      <trkpt lat="42.76179" lon="2.51497">
        <ele>234</ele>
        <time>2021-12-05T16:54:29Z</time>
      </trkpt>
      <trkpt lat="42.76182" lon="2.51493">
        <ele>234</ele>
        <time>2021-12-05T16:54:29Z</time>
      </trkpt>
      <trkpt lat="42.76188" lon="2.51488">
        <ele>233</ele>
        <time>2021-12-05T16:54:31Z</time>
      </trkpt>
      <trkpt lat="42.76222" lon="2.51448">
        <ele>229</ele>
        <time>2021-12-05T16:54:39Z</time>
      </trkpt>
      <trkpt lat="42.7624" lon="2.51419">
        <ele>231</ele>
        <time>2021-12-05T16:54:43Z</time>
      </trkpt>
      <trkpt lat="42.76254" lon="2.51391">
        <ele>234</ele>
        <time>2021-12-05T16:54:48Z</time>
      </trkpt>
      <trkpt lat="42.76317" lon="2.51319">
        <ele>232</ele>
        <time>2021-12-05T16:55:03Z</time>
      </trkpt>
      <trkpt lat="42.76349" lon="2.51287">
        <ele>232</ele>
        <time>2021-12-05T16:55:10Z</time>
      </trkpt>
      <trkpt lat="42.76358" lon="2.51281">
        <ele>232</ele>
        <time>2021-12-05T16:55:11Z</time>
      </trkpt>
      <trkpt lat="42.76376" lon="2.51274">
        <ele>232</ele>
        <time>2021-12-05T16:55:15Z</time>
      </trkpt>
      <trkpt lat="42.76387" lon="2.51278">
        <ele>229</ele>
        <time>2021-12-05T16:55:17Z</time>
      </trkpt>
      <trkpt lat="42.76409" lon="2.51318">
        <ele>215</ele>
        <time>2021-12-05T16:55:23Z</time>
      </trkpt>
      <trkpt lat="42.76415" lon="2.51323">
        <ele>212</ele>
        <time>2021-12-05T16:55:25Z</time>
      </trkpt>
      <trkpt lat="42.76421" lon="2.51324">
        <ele>211</ele>
        <time>2021-12-05T16:55:26Z</time>
      </trkpt>
      <trkpt lat="42.76428" lon="2.51321">
        <ele>210</ele>
        <time>2021-12-05T16:55:27Z</time>
      </trkpt>
      <trkpt lat="42.76433" lon="2.51315">
        <ele>211</ele>
        <time>2021-12-05T16:55:28Z</time>
      </trkpt>
      <trkpt lat="42.76447" lon="2.5129">
        <ele>216</ele>
        <time>2021-12-05T16:55:32Z</time>
      </trkpt>
      <trkpt lat="42.76462" lon="2.51272">
        <ele>219</ele>
        <time>2021-12-05T16:55:36Z</time>
      </trkpt>
      <trkpt lat="42.76513" lon="2.51235">
        <ele>219</ele>
        <time>2021-12-05T16:55:46Z</time>
      </trkpt>
      <trkpt lat="42.76525" lon="2.51224">
        <ele>218</ele>
        <time>2021-12-05T16:55:49Z</time>
      </trkpt>
      <trkpt lat="42.76566" lon="2.51182">
        <ele>215</ele>
        <time>2021-12-05T16:55:58Z</time>
      </trkpt>
      <trkpt lat="42.76614" lon="2.51124">
        <ele>217</ele>
        <time>2021-12-05T16:56:09Z</time>
      </trkpt>
      <trkpt lat="42.76635" lon="2.51092">
        <ele>221</ele>
        <time>2021-12-05T16:56:15Z</time>
      </trkpt>
      <trkpt lat="42.76645" lon="2.51086">
        <ele>221</ele>
        <time>2021-12-05T16:56:17Z</time>
      </trkpt>
      <trkpt lat="42.76652" lon="2.51085">
        <ele>219</ele>
        <time>2021-12-05T16:56:18Z</time>
      </trkpt>
      <trkpt lat="42.76662" lon="2.51089">
        <ele>217</ele>
        <time>2021-12-05T16:56:20Z</time>
      </trkpt>
      <trkpt lat="42.76695" lon="2.51114">
        <ele>215</ele>
        <time>2021-12-05T16:56:27Z</time>
      </trkpt>
      <trkpt lat="42.76706" lon="2.51126">
        <ele>215</ele>
        <time>2021-12-05T16:56:29Z</time>
      </trkpt>
      <trkpt lat="42.76716" lon="2.51143">
        <ele>213</ele>
        <time>2021-12-05T16:56:32Z</time>
      </trkpt>
      <trkpt lat="42.76749" lon="2.51209">
        <ele>206</ele>
        <time>2021-12-05T16:56:42Z</time>
      </trkpt>
      <trkpt lat="42.76759" lon="2.51217">
        <ele>206</ele>
        <time>2021-12-05T16:56:44Z</time>
      </trkpt>
      <trkpt lat="42.76775" lon="2.51219">
        <ele>208</ele>
        <time>2021-12-05T16:56:47Z</time>
      </trkpt>
      <trkpt lat="42.76784" lon="2.51214">
        <ele>211</ele>
        <time>2021-12-05T16:56:49Z</time>
      </trkpt>
      <trkpt lat="42.76798" lon="2.51201">
        <ele>215</ele>
        <time>2021-12-05T16:56:52Z</time>
      </trkpt>
      <trkpt lat="42.76808" lon="2.51196">
        <ele>217</ele>
        <time>2021-12-05T16:56:54Z</time>
      </trkpt>
      <trkpt lat="42.76815" lon="2.51196">
        <ele>218</ele>
        <time>2021-12-05T16:56:55Z</time>
      </trkpt>
      <trkpt lat="42.76824" lon="2.51204">
        <ele>219</ele>
        <time>2021-12-05T16:56:57Z</time>
      </trkpt>
      <trkpt lat="42.76826" lon="2.51213">
        <ele>218</ele>
        <time>2021-12-05T16:56:58Z</time>
      </trkpt>
      <trkpt lat="42.76826" lon="2.51222">
        <ele>218</ele>
        <time>2021-12-05T16:56:59Z</time>
      </trkpt>
      <trkpt lat="42.76825" lon="2.51231">
        <ele>217</ele>
        <time>2021-12-05T16:57:01Z</time>
      </trkpt>
      <trkpt lat="42.76816" lon="2.51258">
        <ele>212</ele>
        <time>2021-12-05T16:57:04Z</time>
      </trkpt>
      <trkpt lat="42.76812" lon="2.51272">
        <ele>210</ele>
        <time>2021-12-05T16:57:06Z</time>
      </trkpt>
      <trkpt lat="42.76811" lon="2.51285">
        <ele>208</ele>
        <time>2021-12-05T16:57:08Z</time>
      </trkpt>
      <trkpt lat="42.76812" lon="2.51297">
        <ele>207</ele>
        <time>2021-12-05T16:57:10Z</time>
      </trkpt>
      <trkpt lat="42.76819" lon="2.51318">
        <ele>207</ele>
        <time>2021-12-05T16:57:13Z</time>
      </trkpt>
      <trkpt lat="42.76833" lon="2.51353">
        <ele>205</ele>
        <time>2021-12-05T16:57:18Z</time>
      </trkpt>
      <trkpt lat="42.76849" lon="2.51374">
        <ele>203</ele>
        <time>2021-12-05T16:57:22Z</time>
      </trkpt>
      <trkpt lat="42.76861" lon="2.51385">
        <ele>203</ele>
        <time>2021-12-05T16:57:24Z</time>
      </trkpt>
      <trkpt lat="42.76889" lon="2.51394">
        <ele>205</ele>
        <time>2021-12-05T16:57:30Z</time>
      </trkpt>
      <trkpt lat="42.76923" lon="2.514">
        <ele>207</ele>
        <time>2021-12-05T16:57:36Z</time>
      </trkpt>
      <trkpt lat="42.76941" lon="2.514">
        <ele>207</ele>
        <time>2021-12-05T16:57:39Z</time>
      </trkpt>
      <trkpt lat="42.76956" lon="2.51394">
        <ele>207</ele>
        <time>2021-12-05T16:57:42Z</time>
      </trkpt>
      <trkpt lat="42.76975" lon="2.51381">
        <ele>208</ele>
        <time>2021-12-05T16:57:45Z</time>
      </trkpt>
      <trkpt lat="42.76986" lon="2.51375">
        <ele>209</ele>
        <time>2021-12-05T16:57:48Z</time>
      </trkpt>
      <trkpt lat="42.77002" lon="2.51373">
        <ele>208</ele>
        <time>2021-12-05T16:57:50Z</time>
      </trkpt>
      <trkpt lat="42.77012" lon="2.51378">
        <ele>208</ele>
        <time>2021-12-05T16:57:52Z</time>
      </trkpt>
      <trkpt lat="42.77028" lon="2.51388">
        <ele>206</ele>
        <time>2021-12-05T16:57:55Z</time>
      </trkpt>
      <trkpt lat="42.77039" lon="2.51391">
        <ele>206</ele>
        <time>2021-12-05T16:57:57Z</time>
      </trkpt>
      <trkpt lat="42.77049" lon="2.51386">
        <ele>206</ele>
        <time>2021-12-05T16:57:59Z</time>
      </trkpt>
      <trkpt lat="42.77061" lon="2.51356">
        <ele>209</ele>
        <time>2021-12-05T16:58:04Z</time>
      </trkpt>
      <trkpt lat="42.77074" lon="2.51341">
        <ele>211</ele>
        <time>2021-12-05T16:58:07Z</time>
      </trkpt>
      <trkpt lat="42.77111" lon="2.51315">
        <ele>216</ele>
        <time>2021-12-05T16:58:14Z</time>
      </trkpt>
      <trkpt lat="42.77126" lon="2.5131">
        <ele>217</ele>
        <time>2021-12-05T16:58:17Z</time>
      </trkpt>
      <trkpt lat="42.77163" lon="2.51313">
        <ele>219</ele>
        <time>2021-12-05T16:58:24Z</time>
      </trkpt>
      <trkpt lat="42.77174" lon="2.51321">
        <ele>221</ele>
        <time>2021-12-05T16:58:26Z</time>
      </trkpt>
      <trkpt lat="42.77188" lon="2.51336">
        <ele>223</ele>
        <time>2021-12-05T16:58:29Z</time>
      </trkpt>
      <trkpt lat="42.77198" lon="2.51354">
        <ele>224</ele>
        <time>2021-12-05T16:58:32Z</time>
      </trkpt>
      <trkpt lat="42.77218" lon="2.51413">
        <ele>216</ele>
        <time>2021-12-05T16:58:40Z</time>
      </trkpt>
      <trkpt lat="42.77229" lon="2.51427">
        <ele>216</ele>
        <time>2021-12-05T16:58:43Z</time>
      </trkpt>
      <trkpt lat="42.77255" lon="2.51446">
        <ele>219</ele>
        <time>2021-12-05T16:58:48Z</time>
      </trkpt>
      <trkpt lat="42.77269" lon="2.51462">
        <ele>221</ele>
        <time>2021-12-05T16:58:52Z</time>
      </trkpt>
      <trkpt lat="42.77284" lon="2.51488">
        <ele>223</ele>
        <time>2021-12-05T16:58:56Z</time>
      </trkpt>
      <trkpt lat="42.77326" lon="2.51582">
        <ele>228</ele>
        <time>2021-12-05T16:59:10Z</time>
      </trkpt>
      <trkpt lat="42.77334" lon="2.51617">
        <ele>227</ele>
        <time>2021-12-05T16:59:15Z</time>
      </trkpt>
      <trkpt lat="42.77331" lon="2.51649">
        <ele>223</ele>
        <time>2021-12-05T16:59:19Z</time>
      </trkpt>
      <trkpt lat="42.77323" lon="2.51695">
        <ele>217</ele>
        <time>2021-12-05T16:59:25Z</time>
      </trkpt>
      <trkpt lat="42.77323" lon="2.51708">
        <ele>215</ele>
        <time>2021-12-05T16:59:27Z</time>
      </trkpt>
      <trkpt lat="42.77324" lon="2.51719">
        <ele>214</ele>
        <time>2021-12-05T16:59:29Z</time>
      </trkpt>
      <trkpt lat="42.77329" lon="2.51727">
        <ele>212</ele>
        <time>2021-12-05T16:59:30Z</time>
      </trkpt>
      <trkpt lat="42.77337" lon="2.51732">
        <ele>211</ele>
        <time>2021-12-05T16:59:32Z</time>
      </trkpt>
      <trkpt lat="42.77363" lon="2.51734">
        <ele>215</ele>
        <time>2021-12-05T16:59:36Z</time>
      </trkpt>
      <trkpt lat="42.7738" lon="2.51741">
        <ele>216</ele>
        <time>2021-12-05T16:59:39Z</time>
      </trkpt>
      <trkpt lat="42.77413" lon="2.51765">
        <ele>218</ele>
        <time>2021-12-05T16:59:46Z</time>
      </trkpt>
      <trkpt lat="42.77469" lon="2.51835">
        <ele>227</ele>
        <time>2021-12-05T17:00:00Z</time>
      </trkpt>
      <trkpt lat="42.77486" lon="2.51871">
        <ele>229</ele>
        <time>2021-12-05T17:00:05Z</time>
      </trkpt>
      <trkpt lat="42.77511" lon="2.51953">
        <ele>227</ele>
        <time>2021-12-05T17:00:17Z</time>
      </trkpt>
      <trkpt lat="42.77523" lon="2.52">
        <ele>227</ele>
        <time>2021-12-05T17:00:23Z</time>
      </trkpt>
      <trkpt lat="42.77529" lon="2.52036">
        <ele>228</ele>
        <time>2021-12-05T17:00:28Z</time>
      </trkpt>
      <trkpt lat="42.77528" lon="2.52088">
        <ele>224</ele>
        <time>2021-12-05T17:00:35Z</time>
      </trkpt>
      <trkpt lat="42.77525" lon="2.52143">
        <ele>222</ele>
        <time>2021-12-05T17:00:42Z</time>
      </trkpt>
      <trkpt lat="42.77528" lon="2.52168">
        <ele>223</ele>
        <time>2021-12-05T17:00:45Z</time>
      </trkpt>
      <trkpt lat="42.77537" lon="2.52186">
        <ele>226</ele>
        <time>2021-12-05T17:00:48Z</time>
      </trkpt>
      <trkpt lat="42.77574" lon="2.52217">
        <ele>227</ele>
        <time>2021-12-05T17:00:56Z</time>
      </trkpt>
      <trkpt lat="42.77621" lon="2.52234">
        <ele>229</ele>
        <time>2021-12-05T17:01:05Z</time>
      </trkpt>
      <trkpt lat="42.77655" lon="2.5225">
        <ele>227</ele>
        <time>2021-12-05T17:01:11Z</time>
      </trkpt>
      <trkpt lat="42.77665" lon="2.52262">
        <ele>226</ele>
        <time>2021-12-05T17:01:13Z</time>
      </trkpt>
      <trkpt lat="42.77676" lon="2.52283">
        <ele>224</ele>
        <time>2021-12-05T17:01:17Z</time>
      </trkpt>
      <trkpt lat="42.77699" lon="2.52364">
        <ele>219</ele>
        <time>2021-12-05T17:01:28Z</time>
      </trkpt>
      <trkpt lat="42.77716" lon="2.52404">
        <ele>217</ele>
        <time>2021-12-05T17:01:34Z</time>
      </trkpt>
      <trkpt lat="42.77735" lon="2.52425">
        <ele>217</ele>
        <time>2021-12-05T17:01:38Z</time>
      </trkpt>
      <trkpt lat="42.77745" lon="2.52426">
        <ele>217</ele>
        <time>2021-12-05T17:01:40Z</time>
      </trkpt>
      <trkpt lat="42.7775" lon="2.52424">
        <ele>217</ele>
        <time>2021-12-05T17:01:41Z</time>
      </trkpt>
      <trkpt lat="42.77758" lon="2.52416">
        <ele>217</ele>
        <time>2021-12-05T17:01:43Z</time>
      </trkpt>
      <trkpt lat="42.77763" lon="2.52393">
        <ele>220</ele>
        <time>2021-12-05T17:01:46Z</time>
      </trkpt>
      <trkpt lat="42.77762" lon="2.5235">
        <ele>224</ele>
        <time>2021-12-05T17:01:52Z</time>
      </trkpt>
      <trkpt lat="42.77757" lon="2.52306">
        <ele>228</ele>
        <time>2021-12-05T17:01:57Z</time>
      </trkpt>
      <trkpt lat="42.77758" lon="2.52277">
        <ele>230</ele>
        <time>2021-12-05T17:02:01Z</time>
      </trkpt>
      <trkpt lat="42.77762" lon="2.52244">
        <ele>233</ele>
        <time>2021-12-05T17:02:06Z</time>
      </trkpt>
      <trkpt lat="42.7778" lon="2.52211">
        <ele>239</ele>
        <time>2021-12-05T17:02:11Z</time>
      </trkpt>
      <trkpt lat="42.77847" lon="2.52159">
        <ele>238</ele>
        <time>2021-12-05T17:02:25Z</time>
      </trkpt>
      <trkpt lat="42.77865" lon="2.52152">
        <ele>238</ele>
        <time>2021-12-05T17:02:28Z</time>
      </trkpt>
      <trkpt lat="42.7789" lon="2.52147">
        <ele>234</ele>
        <time>2021-12-05T17:02:33Z</time>
      </trkpt>
      <trkpt lat="42.77922" lon="2.52145">
        <ele>228</ele>
        <time>2021-12-05T17:02:38Z</time>
      </trkpt>
      <trkpt lat="42.77932" lon="2.5214">
        <ele>228</ele>
        <time>2021-12-05T17:02:40Z</time>
      </trkpt>
      <trkpt lat="42.77939" lon="2.52129">
        <ele>228</ele>
        <time>2021-12-05T17:02:42Z</time>
      </trkpt>
      <trkpt lat="42.77943" lon="2.52112">
        <ele>230</ele>
        <time>2021-12-05T17:02:44Z</time>
      </trkpt>
      <trkpt lat="42.7794" lon="2.52089">
        <ele>234</ele>
        <time>2021-12-05T17:02:47Z</time>
      </trkpt>
      <trkpt lat="42.7794" lon="2.52061">
        <ele>236</ele>
        <time>2021-12-05T17:02:51Z</time>
      </trkpt>
      <trkpt lat="42.77957" lon="2.51868">
        <ele>247</ele>
        <time>2021-12-05T17:03:16Z</time>
      </trkpt>
      <trkpt lat="42.77959" lon="2.51856">
        <ele>248</ele>
        <time>2021-12-05T17:03:18Z</time>
      </trkpt>
      <trkpt lat="42.77983" lon="2.51796">
        <ele>250</ele>
        <time>2021-12-05T17:03:27Z</time>
      </trkpt>
      <trkpt lat="42.78026" lon="2.51752">
        <ele>251</ele>
        <time>2021-12-05T17:03:37Z</time>
      </trkpt>
      <trkpt lat="42.78049" lon="2.51737">
        <ele>251</ele>
        <time>2021-12-05T17:03:41Z</time>
      </trkpt>
      <trkpt lat="42.7807" lon="2.51735">
        <ele>246</ele>
        <time>2021-12-05T17:03:45Z</time>
      </trkpt>
      <trkpt lat="42.78103" lon="2.51745">
        <ele>238</ele>
        <time>2021-12-05T17:03:51Z</time>
      </trkpt>
      <trkpt lat="42.78114" lon="2.51745">
        <ele>237</ele>
        <time>2021-12-05T17:03:53Z</time>
      </trkpt>
      <trkpt lat="42.78125" lon="2.5174">
        <ele>238</ele>
        <time>2021-12-05T17:03:55Z</time>
      </trkpt>
      <trkpt lat="42.7814" lon="2.51721">
        <ele>242</ele>
        <time>2021-12-05T17:03:59Z</time>
      </trkpt>
      <trkpt lat="42.78145" lon="2.51713">
        <ele>243</ele>
        <time>2021-12-05T17:04:00Z</time>
      </trkpt>
      <trkpt lat="42.78147" lon="2.51711">
        <ele>243</ele>
        <time>2021-12-05T17:04:00Z</time>
      </trkpt>
      <trkpt lat="42.78158" lon="2.51711">
        <ele>242</ele>
        <time>2021-12-05T17:04:02Z</time>
      </trkpt>
      <trkpt lat="42.78162" lon="2.51714">
        <ele>241</ele>
        <time>2021-12-05T17:04:03Z</time>
      </trkpt>
      <trkpt lat="42.78174" lon="2.51744">
        <ele>238</ele>
        <time>2021-12-05T17:04:08Z</time>
      </trkpt>
      <trkpt lat="42.78207" lon="2.51797">
        <ele>240</ele>
        <time>2021-12-05T17:04:17Z</time>
      </trkpt>
      <trkpt lat="42.78226" lon="2.5182">
        <ele>241</ele>
        <time>2021-12-05T17:04:21Z</time>
      </trkpt>
      <trkpt lat="42.78229" lon="2.51826">
        <ele>241</ele>
        <time>2021-12-05T17:04:22Z</time>
      </trkpt>
      <trkpt lat="42.7823" lon="2.51833">
        <ele>240</ele>
        <time>2021-12-05T17:04:23Z</time>
      </trkpt>
      <trkpt lat="42.7823" lon="2.51858">
        <ele>239</ele>
        <time>2021-12-05T17:04:26Z</time>
      </trkpt>
      <trkpt lat="42.78225" lon="2.51919">
        <ele>235</ele>
        <time>2021-12-05T17:04:34Z</time>
      </trkpt>
      <trkpt lat="42.7822" lon="2.51944">
        <ele>233</ele>
        <time>2021-12-05T17:04:38Z</time>
      </trkpt>
      <trkpt lat="42.78201" lon="2.51995">
        <ele>228</ele>
        <time>2021-12-05T17:04:45Z</time>
      </trkpt>
      <trkpt lat="42.78198" lon="2.5201">
        <ele>227</ele>
        <time>2021-12-05T17:04:47Z</time>
      </trkpt>
      <trkpt lat="42.78198" lon="2.52035">
        <ele>226</ele>
        <time>2021-12-05T17:04:50Z</time>
      </trkpt>
      <trkpt lat="42.78201" lon="2.52044">
        <ele>226</ele>
        <time>2021-12-05T17:04:52Z</time>
      </trkpt>
      <trkpt lat="42.78205" lon="2.5205">
        <ele>226</ele>
        <time>2021-12-05T17:04:53Z</time>
      </trkpt>
      <trkpt lat="42.78218" lon="2.52058">
        <ele>227</ele>
        <time>2021-12-05T17:04:55Z</time>
      </trkpt>
      <trkpt lat="42.78242" lon="2.5206">
        <ele>227</ele>
        <time>2021-12-05T17:05:00Z</time>
      </trkpt>
      <trkpt lat="42.78249" lon="2.52059">
        <ele>228</ele>
        <time>2021-12-05T17:05:01Z</time>
      </trkpt>
      <trkpt lat="42.78282" lon="2.5204">
        <ele>232</ele>
        <time>2021-12-05T17:05:07Z</time>
      </trkpt>
      <trkpt lat="42.78327" lon="2.5202">
        <ele>238</ele>
        <time>2021-12-05T17:05:16Z</time>
      </trkpt>
      <trkpt lat="42.78347" lon="2.52016">
        <ele>239</ele>
        <time>2021-12-05T17:05:19Z</time>
      </trkpt>
      <trkpt lat="42.78374" lon="2.52019">
        <ele>238</ele>
        <time>2021-12-05T17:05:24Z</time>
      </trkpt>
      <trkpt lat="42.78401" lon="2.5201">
        <ele>239</ele>
        <time>2021-12-05T17:05:29Z</time>
      </trkpt>
      <trkpt lat="42.78414" lon="2.52008">
        <ele>239</ele>
        <time>2021-12-05T17:05:31Z</time>
      </trkpt>
      <trkpt lat="42.78423" lon="2.52014">
        <ele>239</ele>
        <time>2021-12-05T17:05:33Z</time>
      </trkpt>
      <trkpt lat="42.78438" lon="2.52016">
        <ele>242</ele>
        <time>2021-12-05T17:05:36Z</time>
      </trkpt>
      <trkpt lat="42.78516" lon="2.52078">
        <ele>239</ele>
        <time>2021-12-05T17:05:52Z</time>
      </trkpt>
      <trkpt lat="42.78537" lon="2.52109">
        <ele>243</ele>
        <time>2021-12-05T17:05:57Z</time>
      </trkpt>
      <trkpt lat="42.78551" lon="2.52143">
        <ele>243</ele>
        <time>2021-12-05T17:06:03Z</time>
      </trkpt>
      <trkpt lat="42.78563" lon="2.5221">
        <ele>240</ele>
        <time>2021-12-05T17:06:12Z</time>
      </trkpt>
      <trkpt lat="42.78585" lon="2.52299">
        <ele>233</ele>
        <time>2021-12-05T17:06:24Z</time>
      </trkpt>
      <trkpt lat="42.78635" lon="2.5239">
        <ele>235</ele>
        <time>2021-12-05T17:06:39Z</time>
      </trkpt>
      <trkpt lat="42.78651" lon="2.52407">
        <ele>233</ele>
        <time>2021-12-05T17:06:42Z</time>
      </trkpt>
      <trkpt lat="42.78668" lon="2.5242">
        <ele>231</ele>
        <time>2021-12-05T17:06:46Z</time>
      </trkpt>
      <trkpt lat="42.78696" lon="2.52432">
        <ele>233</ele>
        <time>2021-12-05T17:06:51Z</time>
      </trkpt>
      <trkpt lat="42.7872" lon="2.5244">
        <ele>234</ele>
        <time>2021-12-05T17:06:55Z</time>
      </trkpt>
      <trkpt lat="42.78742" lon="2.52443">
        <ele>236</ele>
        <time>2021-12-05T17:06:59Z</time>
      </trkpt>
      <trkpt lat="42.78778" lon="2.52445">
        <ele>233</ele>
        <time>2021-12-05T17:07:06Z</time>
      </trkpt>
      <trkpt lat="42.78809" lon="2.52443">
        <ele>230</ele>
        <time>2021-12-05T17:07:11Z</time>
      </trkpt>
      <trkpt lat="42.78821" lon="2.52436">
        <ele>230</ele>
        <time>2021-12-05T17:07:14Z</time>
      </trkpt>
      <trkpt lat="42.78838" lon="2.52423">
        <ele>229</ele>
        <time>2021-12-05T17:07:17Z</time>
      </trkpt>
      <trkpt lat="42.78896" lon="2.52393">
        <ele>230</ele>
        <time>2021-12-05T17:07:28Z</time>
      </trkpt>
      <trkpt lat="42.78974" lon="2.52344">
        <ele>230</ele>
        <time>2021-12-05T17:07:43Z</time>
      </trkpt>
      <trkpt lat="42.7899" lon="2.52329">
        <ele>231</ele>
        <time>2021-12-05T17:07:47Z</time>
      </trkpt>
      <trkpt lat="42.79004" lon="2.52312">
        <ele>232</ele>
        <time>2021-12-05T17:07:50Z</time>
      </trkpt>
      <trkpt lat="42.79014" lon="2.52293">
        <ele>232</ele>
        <time>2021-12-05T17:07:53Z</time>
      </trkpt>
      <trkpt lat="42.79023" lon="2.52266">
        <ele>233</ele>
        <time>2021-12-05T17:07:57Z</time>
      </trkpt>
      <trkpt lat="42.79033" lon="2.52223">
        <ele>235</ele>
        <time>2021-12-05T17:08:03Z</time>
      </trkpt>
      <trkpt lat="42.79042" lon="2.52196">
        <ele>236</ele>
        <time>2021-12-05T17:08:07Z</time>
      </trkpt>
      <trkpt lat="42.79086" lon="2.52117">
        <ele>232</ele>
        <time>2021-12-05T17:08:20Z</time>
      </trkpt>
      <trkpt lat="42.79103" lon="2.52075">
        <ele>234</ele>
        <time>2021-12-05T17:08:26Z</time>
      </trkpt>
      <trkpt lat="42.7915" lon="2.51967">
        <ele>236</ele>
        <time>2021-12-05T17:08:42Z</time>
      </trkpt>
      <trkpt lat="42.79174" lon="2.51924">
        <ele>235</ele>
        <time>2021-12-05T17:08:49Z</time>
      </trkpt>
      <trkpt lat="42.79188" lon="2.51895">
        <ele>234</ele>
        <time>2021-12-05T17:08:54Z</time>
      </trkpt>
      <trkpt lat="42.79206" lon="2.51847">
        <ele>233</ele>
        <time>2021-12-05T17:09:01Z</time>
      </trkpt>
      <trkpt lat="42.7922" lon="2.51798">
        <ele>233</ele>
        <time>2021-12-05T17:09:08Z</time>
      </trkpt>
      <trkpt lat="42.79256" lon="2.51633">
        <ele>235</ele>
        <time>2021-12-05T17:09:30Z</time>
      </trkpt>
      <trkpt lat="42.79266" lon="2.51576">
        <ele>236</ele>
        <time>2021-12-05T17:09:38Z</time>
      </trkpt>
      <trkpt lat="42.79276" lon="2.51499">
        <ele>240</ele>
        <time>2021-12-05T17:09:48Z</time>
      </trkpt>
      <trkpt lat="42.79325" lon="2.51206">
        <ele>239</ele>
        <time>2021-12-05T17:10:27Z</time>
      </trkpt>
      <trkpt lat="42.79334" lon="2.51141">
        <ele>236</ele>
        <time>2021-12-05T17:10:36Z</time>
      </trkpt>
      <trkpt lat="42.7934" lon="2.51081">
        <ele>237</ele>
        <time>2021-12-05T17:10:44Z</time>
      </trkpt>
      <trkpt lat="42.79356" lon="2.50749">
        <ele>240</ele>
        <time>2021-12-05T17:11:27Z</time>
      </trkpt>
      <trkpt lat="42.79352" lon="2.5067">
        <ele>242</ele>
        <time>2021-12-05T17:11:38Z</time>
      </trkpt>
      <trkpt lat="42.79344" lon="2.50626">
        <ele>240</ele>
        <time>2021-12-05T17:11:44Z</time>
      </trkpt>
      <trkpt lat="42.79333" lon="2.50576">
        <ele>240</ele>
        <time>2021-12-05T17:11:51Z</time>
      </trkpt>
      <trkpt lat="42.79325" lon="2.50518">
        <ele>247</ele>
        <time>2021-12-05T17:11:58Z</time>
      </trkpt>
      <trkpt lat="42.79321" lon="2.50471">
        <ele>252</ele>
        <time>2021-12-05T17:12:04Z</time>
      </trkpt>
      <trkpt lat="42.79323" lon="2.50368">
        <ele>259</ele>
        <time>2021-12-05T17:12:18Z</time>
      </trkpt>
      <trkpt lat="42.79329" lon="2.50342">
        <ele>257</ele>
        <time>2021-12-05T17:12:21Z</time>
      </trkpt>
      <trkpt lat="42.79341" lon="2.50302">
        <ele>253</ele>
        <time>2021-12-05T17:12:27Z</time>
      </trkpt>
      <trkpt lat="42.7936" lon="2.50253">
        <ele>250</ele>
        <time>2021-12-05T17:12:34Z</time>
      </trkpt>
      <trkpt lat="42.79376" lon="2.50218">
        <ele>247</ele>
        <time>2021-12-05T17:12:40Z</time>
      </trkpt>
      <trkpt lat="42.79404" lon="2.50164">
        <ele>241</ele>
        <time>2021-12-05T17:12:48Z</time>
      </trkpt>
      <trkpt lat="42.79504" lon="2.50019">
        <ele>238</ele>
        <time>2021-12-05T17:13:14Z</time>
      </trkpt>
      <trkpt lat="42.7954" lon="2.4996">
        <ele>239</ele>
        <time>2021-12-05T17:13:24Z</time>
      </trkpt>
      <trkpt lat="42.7965" lon="2.49714">
        <ele>244</ele>
        <time>2021-12-05T17:14:02Z</time>
      </trkpt>
      <trkpt lat="42.79659" lon="2.49699">
        <ele>245</ele>
        <time>2021-12-05T17:14:04Z</time>
      </trkpt>
      <trkpt lat="42.79674" lon="2.49682">
        <ele>246</ele>
        <time>2021-12-05T17:14:08Z</time>
      </trkpt>
      <trkpt lat="42.79681" lon="2.49678">
        <ele>246</ele>
        <time>2021-12-05T17:14:09Z</time>
      </trkpt>
      <trkpt lat="42.79693" lon="2.49675">
        <ele>247</ele>
        <time>2021-12-05T17:14:11Z</time>
      </trkpt>
      <trkpt lat="42.79744" lon="2.49677">
        <ele>249</ele>
        <time>2021-12-05T17:14:21Z</time>
      </trkpt>
      <trkpt lat="42.79803" lon="2.49668">
        <ele>253</ele>
        <time>2021-12-05T17:14:31Z</time>
      </trkpt>
      <trkpt lat="42.79824" lon="2.49669">
        <ele>253</ele>
        <time>2021-12-05T17:14:35Z</time>
      </trkpt>
      <trkpt lat="42.79924" lon="2.49699">
        <ele>257</ele>
        <time>2021-12-05T17:14:53Z</time>
      </trkpt>
      <trkpt lat="42.79932" lon="2.49703">
        <ele>260</ele>
        <time>2021-12-05T17:14:55Z</time>
      </trkpt>
      <trkpt lat="42.79936" lon="2.4971">
        <ele>259</ele>
        <time>2021-12-05T17:14:56Z</time>
      </trkpt>
      <trkpt lat="42.79942" lon="2.49739">
        <ele>253</ele>
        <time>2021-12-05T17:15:00Z</time>
      </trkpt>
      <trkpt lat="42.79947" lon="2.49746">
        <ele>253</ele>
        <time>2021-12-05T17:15:01Z</time>
      </trkpt>
      <trkpt lat="42.79953" lon="2.49749">
        <ele>254</ele>
        <time>2021-12-05T17:15:02Z</time>
      </trkpt>
      <trkpt lat="42.79972" lon="2.49751">
        <ele>259</ele>
        <time>2021-12-05T17:15:05Z</time>
      </trkpt>
      <trkpt lat="42.79984" lon="2.49754">
        <ele>263</ele>
        <time>2021-12-05T17:15:08Z</time>
      </trkpt>
      <trkpt lat="42.80022" lon="2.4978">
        <ele>278</ele>
        <time>2021-12-05T17:15:15Z</time>
      </trkpt>
      <trkpt lat="42.80045" lon="2.49792">
        <ele>284</ele>
        <time>2021-12-05T17:15:20Z</time>
      </trkpt>
      <trkpt lat="42.8006" lon="2.49795">
        <ele>286</ele>
        <time>2021-12-05T17:15:22Z</time>
      </trkpt>
      <trkpt lat="42.80068" lon="2.49795">
        <ele>287</ele>
        <time>2021-12-05T17:15:24Z</time>
      </trkpt>
      <trkpt lat="42.80111" lon="2.49782">
        <ele>276</ele>
        <time>2021-12-05T17:15:32Z</time>
      </trkpt>
      <trkpt lat="42.80138" lon="2.49782">
        <ele>266</ele>
        <time>2021-12-05T17:15:36Z</time>
      </trkpt>
      <trkpt lat="42.80154" lon="2.49785">
        <ele>261</ele>
        <time>2021-12-05T17:15:39Z</time>
      </trkpt>
      <trkpt lat="42.80183" lon="2.49794">
        <ele>255</ele>
        <time>2021-12-05T17:15:45Z</time>
      </trkpt>
      <trkpt lat="42.8021" lon="2.49808">
        <ele>254</ele>
        <time>2021-12-05T17:15:50Z</time>
      </trkpt>
      <trkpt lat="42.80231" lon="2.49819">
        <ele>253</ele>
        <time>2021-12-05T17:15:54Z</time>
      </trkpt>
      <trkpt lat="42.80255" lon="2.49838">
        <ele>253</ele>
        <time>2021-12-05T17:15:59Z</time>
      </trkpt>
      <trkpt lat="42.80305" lon="2.49882">
        <ele>257</ele>
        <time>2021-12-05T17:16:09Z</time>
      </trkpt>
      <trkpt lat="42.80338" lon="2.49916">
        <ele>256</ele>
        <time>2021-12-05T17:16:17Z</time>
      </trkpt>
      <trkpt lat="42.80361" lon="2.49965">
        <ele>262</ele>
        <time>2021-12-05T17:16:24Z</time>
      </trkpt>
      <trkpt lat="42.8037" lon="2.49987">
        <ele>263</ele>
        <time>2021-12-05T17:16:27Z</time>
      </trkpt>
      <trkpt lat="42.80418" lon="2.50122">
        <ele>264</ele>
        <time>2021-12-05T17:16:47Z</time>
      </trkpt>
      <trkpt lat="42.80439" lon="2.50165">
        <ele>265</ele>
        <time>2021-12-05T17:16:54Z</time>
      </trkpt>
      <trkpt lat="42.80451" lon="2.50181">
        <ele>264</ele>
        <time>2021-12-05T17:16:57Z</time>
      </trkpt>
      <trkpt lat="42.80467" lon="2.50195">
        <ele>262</ele>
        <time>2021-12-05T17:17:00Z</time>
      </trkpt>
      <trkpt lat="42.80602" lon="2.50259">
        <ele>255</ele>
        <time>2021-12-05T17:17:26Z</time>
      </trkpt>
      <trkpt lat="42.8062" lon="2.50259">
        <ele>255</ele>
        <time>2021-12-05T17:17:29Z</time>
      </trkpt>
      <trkpt lat="42.80676" lon="2.50245">
        <ele>254</ele>
        <time>2021-12-05T17:17:39Z</time>
      </trkpt>
      <trkpt lat="42.80698" lon="2.50242">
        <ele>253</ele>
        <time>2021-12-05T17:17:43Z</time>
      </trkpt>
      <trkpt lat="42.80881" lon="2.50233">
        <ele>252</ele>
        <time>2021-12-05T17:18:15Z</time>
      </trkpt>
      <trkpt lat="42.80912" lon="2.50242">
        <ele>253</ele>
        <time>2021-12-05T17:18:21Z</time>
      </trkpt>
      <trkpt lat="42.80947" lon="2.50261">
        <ele>255</ele>
        <time>2021-12-05T17:18:28Z</time>
      </trkpt>
      <trkpt lat="42.80983" lon="2.50249">
        <ele>255</ele>
        <time>2021-12-05T17:18:34Z</time>
      </trkpt>
      <trkpt lat="42.80993" lon="2.50249">
        <ele>255</ele>
        <time>2021-12-05T17:18:36Z</time>
      </trkpt>
      <trkpt lat="42.81025" lon="2.50235">
        <ele>255</ele>
        <time>2021-12-05T17:18:42Z</time>
      </trkpt>
      <trkpt lat="42.81038" lon="2.5022">
        <ele>254</ele>
        <time>2021-12-05T17:18:45Z</time>
      </trkpt>
      <trkpt lat="42.811" lon="2.50173">
        <ele>252</ele>
        <time>2021-12-05T17:18:58Z</time>
      </trkpt>
      <trkpt lat="42.81112" lon="2.50173">
        <ele>252</ele>
        <time>2021-12-05T17:19:00Z</time>
      </trkpt>
      <trkpt lat="42.81118" lon="2.50189">
        <ele>253</ele>
        <time>2021-12-05T17:19:02Z</time>
      </trkpt>
      <trkpt lat="42.81161" lon="2.50222">
        <ele>255</ele>
        <time>2021-12-05T17:19:11Z</time>
      </trkpt>
      <trkpt lat="42.81162" lon="2.50233">
        <ele>256</ele>
        <time>2021-12-05T17:19:12Z</time>
      </trkpt>
      <trkpt lat="42.81158" lon="2.50254">
        <ele>257</ele>
        <time>2021-12-05T17:19:15Z</time>
      </trkpt>
      <trkpt lat="42.81158" lon="2.50277">
        <ele>258</ele>
        <time>2021-12-05T17:19:18Z</time>
      </trkpt>
      <trkpt lat="42.81156" lon="2.50294">
        <ele>259</ele>
        <time>2021-12-05T17:19:21Z</time>
      </trkpt>
      <trkpt lat="42.81149" lon="2.50313">
        <ele>260</ele>
        <time>2021-12-05T17:19:23Z</time>
      </trkpt>
      <trkpt lat="42.81165" lon="2.50316">
        <ele>259</ele>
        <time>2021-12-05T17:19:26Z</time>
      </trkpt>
      <trkpt lat="42.81221" lon="2.50316">
        <ele>263</ele>
        <time>2021-12-05T17:19:36Z</time>
      </trkpt>
      <trkpt lat="42.81224" lon="2.50316">
        <ele>263</ele>
        <time>2021-12-05T17:19:37Z</time>
      </trkpt>
      <trkpt lat="42.81232" lon="2.50283">
        <ele>261</ele>
        <time>2021-12-05T17:19:41Z</time>
      </trkpt>
      <trkpt lat="42.81245" lon="2.50246">
        <ele>259</ele>
        <time>2021-12-05T17:19:47Z</time>
      </trkpt>
      <trkpt lat="42.81253" lon="2.50229">
        <ele>257</ele>
        <time>2021-12-05T17:19:49Z</time>
      </trkpt>
      <trkpt lat="42.81264" lon="2.5022">
        <ele>257</ele>
        <time>2021-12-05T17:19:51Z</time>
      </trkpt>
      <trkpt lat="42.81276" lon="2.50218">
        <ele>257</ele>
        <time>2021-12-05T17:19:54Z</time>
      </trkpt>
      <trkpt lat="42.8129" lon="2.50224">
        <ele>258</ele>
        <time>2021-12-05T17:19:56Z</time>
      </trkpt>
      <trkpt lat="42.81307" lon="2.50237">
        <ele>259</ele>
        <time>2021-12-05T17:20:00Z</time>
      </trkpt>
      <trkpt lat="42.81319" lon="2.50237">
        <ele>259</ele>
        <time>2021-12-05T17:20:02Z</time>
      </trkpt>
      <trkpt lat="42.81333" lon="2.50224">
        <ele>258</ele>
        <time>2021-12-05T17:20:05Z</time>
      </trkpt>
      <trkpt lat="42.81353" lon="2.50195">
        <ele>258</ele>
        <time>2021-12-05T17:20:10Z</time>
      </trkpt>
      <trkpt lat="42.81361" lon="2.50191">
        <ele>258</ele>
        <time>2021-12-05T17:20:12Z</time>
      </trkpt>
      <trkpt lat="42.81382" lon="2.50193">
        <ele>260</ele>
        <time>2021-12-05T17:20:15Z</time>
      </trkpt>
      <trkpt lat="42.81388" lon="2.50189">
        <ele>260</ele>
        <time>2021-12-05T17:20:17Z</time>
      </trkpt>
      <trkpt lat="42.81403" lon="2.5016">
        <ele>260</ele>
        <time>2021-12-05T17:20:21Z</time>
      </trkpt>
      <trkpt lat="42.81425" lon="2.50139">
        <ele>260</ele>
        <time>2021-12-05T17:20:26Z</time>
      </trkpt>
      <trkpt lat="42.81501" lon="2.5009">
        <ele>260</ele>
        <time>2021-12-05T17:20:41Z</time>
      </trkpt>
      <trkpt lat="42.81529" lon="2.50069">
        <ele>262</ele>
        <time>2021-12-05T17:20:47Z</time>
      </trkpt>
      <trkpt lat="42.8155" lon="2.5005">
        <ele>262</ele>
        <time>2021-12-05T17:20:51Z</time>
      </trkpt>
      <trkpt lat="42.81643" lon="2.49997">
        <ele>262</ele>
        <time>2021-12-05T17:21:09Z</time>
      </trkpt>
      <trkpt lat="42.81705" lon="2.49949">
        <ele>263</ele>
        <time>2021-12-05T17:21:22Z</time>
      </trkpt>
      <trkpt lat="42.81736" lon="2.49919">
        <ele>264</ele>
        <time>2021-12-05T17:21:28Z</time>
      </trkpt>
      <trkpt lat="42.8179" lon="2.49861">
        <ele>265</ele>
        <time>2021-12-05T17:21:41Z</time>
      </trkpt>
      <trkpt lat="42.81819" lon="2.49837">
        <ele>265</ele>
        <time>2021-12-05T17:21:47Z</time>
      </trkpt>
      <trkpt lat="42.81853" lon="2.49816">
        <ele>267</ele>
        <time>2021-12-05T17:21:53Z</time>
      </trkpt>
      <trkpt lat="42.81974" lon="2.49763">
        <ele>273</ele>
        <time>2021-12-05T17:22:16Z</time>
      </trkpt>
      <trkpt lat="42.81984" lon="2.4976">
        <ele>273</ele>
        <time>2021-12-05T17:22:18Z</time>
      </trkpt>
      <trkpt lat="42.82042" lon="2.49757">
        <ele>275</ele>
        <time>2021-12-05T17:22:28Z</time>
      </trkpt>
      <trkpt lat="42.82061" lon="2.49761">
        <ele>276</ele>
        <time>2021-12-05T17:22:32Z</time>
      </trkpt>
      <trkpt lat="42.82116" lon="2.49793">
        <ele>278</ele>
        <time>2021-12-05T17:22:42Z</time>
      </trkpt>
      <trkpt lat="42.82138" lon="2.49804">
        <ele>279</ele>
        <time>2021-12-05T17:22:46Z</time>
      </trkpt>
      <trkpt lat="42.82179" lon="2.49807">
        <ele>279</ele>
        <time>2021-12-05T17:22:54Z</time>
      </trkpt>
      <trkpt lat="42.82284" lon="2.49808">
        <ele>279</ele>
        <time>2021-12-05T17:23:12Z</time>
      </trkpt>
      <trkpt lat="42.82306" lon="2.49803">
        <ele>280</ele>
        <time>2021-12-05T17:23:16Z</time>
      </trkpt>
      <trkpt lat="42.82335" lon="2.4979">
        <ele>280</ele>
        <time>2021-12-05T17:23:22Z</time>
      </trkpt>
      <trkpt lat="42.82368" lon="2.49771">
        <ele>281</ele>
        <time>2021-12-05T17:23:28Z</time>
      </trkpt>
      <trkpt lat="42.82429" lon="2.49743">
        <ele>284</ele>
        <time>2021-12-05T17:23:40Z</time>
      </trkpt>
      <trkpt lat="42.8248" lon="2.49749">
        <ele>286</ele>
        <time>2021-12-05T17:23:49Z</time>
      </trkpt>
      <trkpt lat="42.8249" lon="2.49747">
        <ele>287</ele>
        <time>2021-12-05T17:23:50Z</time>
      </trkpt>
      <trkpt lat="42.82527" lon="2.49712">
        <ele>291</ele>
        <time>2021-12-05T17:23:58Z</time>
      </trkpt>
      <trkpt lat="42.82537" lon="2.49706">
        <ele>292</ele>
        <time>2021-12-05T17:24:00Z</time>
      </trkpt>
      <trkpt lat="42.82561" lon="2.49697">
        <ele>294</ele>
        <time>2021-12-05T17:24:05Z</time>
      </trkpt>
      <trkpt lat="42.82598" lon="2.49674">
        <ele>295</ele>
        <time>2021-12-05T17:24:12Z</time>
      </trkpt>
      <trkpt lat="42.8264" lon="2.49653">
        <ele>298</ele>
        <time>2021-12-05T17:24:20Z</time>
      </trkpt>
      <trkpt lat="42.82658" lon="2.4965">
        <ele>299</ele>
        <time>2021-12-05T17:24:23Z</time>
      </trkpt>
      <trkpt lat="42.82668" lon="2.49642">
        <ele>300</ele>
        <time>2021-12-05T17:24:25Z</time>
      </trkpt>
      <trkpt lat="42.82686" lon="2.49617">
        <ele>301</ele>
        <time>2021-12-05T17:24:30Z</time>
      </trkpt>
      <trkpt lat="42.82694" lon="2.49609">
        <ele>301</ele>
        <time>2021-12-05T17:24:32Z</time>
      </trkpt>
      <trkpt lat="42.82733" lon="2.49585">
        <ele>301</ele>
        <time>2021-12-05T17:24:39Z</time>
      </trkpt>
      <trkpt lat="42.82742" lon="2.49581">
        <ele>302</ele>
        <time>2021-12-05T17:24:41Z</time>
      </trkpt>
      <trkpt lat="42.82754" lon="2.4958">
        <ele>302</ele>
        <time>2021-12-05T17:24:43Z</time>
      </trkpt>
      <trkpt lat="42.82778" lon="2.49587">
        <ele>303</ele>
        <time>2021-12-05T17:24:47Z</time>
      </trkpt>
      <trkpt lat="42.82804" lon="2.49604">
        <ele>306</ele>
        <time>2021-12-05T17:24:53Z</time>
      </trkpt>
      <trkpt lat="42.82817" lon="2.49617">
        <ele>307</ele>
        <time>2021-12-05T17:24:55Z</time>
      </trkpt>
      <trkpt lat="42.82852" lon="2.49673">
        <ele>313</ele>
        <time>2021-12-05T17:25:05Z</time>
      </trkpt>
      <trkpt lat="42.8287" lon="2.49691">
        <ele>315</ele>
        <time>2021-12-05T17:25:09Z</time>
      </trkpt>
      <trkpt lat="42.82887" lon="2.49701">
        <ele>315</ele>
        <time>2021-12-05T17:25:12Z</time>
      </trkpt>
      <trkpt lat="42.82912" lon="2.49708">
        <ele>314</ele>
        <time>2021-12-05T17:25:17Z</time>
      </trkpt>
      <trkpt lat="42.82947" lon="2.4972">
        <ele>315</ele>
        <time>2021-12-05T17:25:23Z</time>
      </trkpt>
      <trkpt lat="42.8298" lon="2.49728">
        <ele>315</ele>
        <time>2021-12-05T17:25:29Z</time>
      </trkpt>
      <trkpt lat="42.82989" lon="2.49735">
        <ele>315</ele>
        <time>2021-12-05T17:25:31Z</time>
      </trkpt>
      <trkpt lat="42.83005" lon="2.49753">
        <ele>315</ele>
        <time>2021-12-05T17:25:35Z</time>
      </trkpt>
      <trkpt lat="42.83015" lon="2.49758">
        <ele>317</ele>
        <time>2021-12-05T17:25:37Z</time>
      </trkpt>
      <trkpt lat="42.83045" lon="2.49758">
        <ele>319</ele>
        <time>2021-12-05T17:25:42Z</time>
      </trkpt>
      <trkpt lat="42.83084" lon="2.49747">
        <ele>322</ele>
        <time>2021-12-05T17:25:49Z</time>
      </trkpt>
      <trkpt lat="42.83113" lon="2.49725">
        <ele>324</ele>
        <time>2021-12-05T17:25:55Z</time>
      </trkpt>
      <trkpt lat="42.83121" lon="2.49723">
        <ele>324</ele>
        <time>2021-12-05T17:25:56Z</time>
      </trkpt>
      <trkpt lat="42.8316" lon="2.49736">
        <ele>326</ele>
        <time>2021-12-05T17:26:04Z</time>
      </trkpt>
      <trkpt lat="42.83167" lon="2.49736">
        <ele>327</ele>
        <time>2021-12-05T17:26:05Z</time>
      </trkpt>
      <trkpt lat="42.83176" lon="2.49733">
        <ele>328</ele>
        <time>2021-12-05T17:26:07Z</time>
      </trkpt>
      <trkpt lat="42.83181" lon="2.49728">
        <ele>328</ele>
        <time>2021-12-05T17:26:08Z</time>
      </trkpt>
      <trkpt lat="42.83186" lon="2.49721">
        <ele>329</ele>
        <time>2021-12-05T17:26:09Z</time>
      </trkpt>
      <trkpt lat="42.83188" lon="2.49712">
        <ele>329</ele>
        <time>2021-12-05T17:26:10Z</time>
      </trkpt>
      <trkpt lat="42.83188" lon="2.49704">
        <ele>329</ele>
        <time>2021-12-05T17:26:11Z</time>
      </trkpt>
      <trkpt lat="42.83187" lon="2.49696">
        <ele>329</ele>
        <time>2021-12-05T17:26:12Z</time>
      </trkpt>
      <trkpt lat="42.83179" lon="2.49681">
        <ele>328</ele>
        <time>2021-12-05T17:26:15Z</time>
      </trkpt>
      <trkpt lat="42.83177" lon="2.49672">
        <ele>327</ele>
        <time>2021-12-05T17:26:16Z</time>
      </trkpt>
      <trkpt lat="42.83177" lon="2.49664">
        <ele>327</ele>
        <time>2021-12-05T17:26:17Z</time>
      </trkpt>
      <trkpt lat="42.83179" lon="2.49657">
        <ele>328</ele>
        <time>2021-12-05T17:26:18Z</time>
      </trkpt>
      <trkpt lat="42.83183" lon="2.49651">
        <ele>329</ele>
        <time>2021-12-05T17:26:19Z</time>
      </trkpt>
      <trkpt lat="42.83205" lon="2.49637">
        <ele>332</ele>
        <time>2021-12-05T17:26:23Z</time>
      </trkpt>
      <trkpt lat="42.83212" lon="2.49629">
        <ele>333</ele>
        <time>2021-12-05T17:26:25Z</time>
      </trkpt>
      <trkpt lat="42.83218" lon="2.4962">
        <ele>334</ele>
        <time>2021-12-05T17:26:26Z</time>
      </trkpt>
      <trkpt lat="42.83235" lon="2.49578">
        <ele>337</ele>
        <time>2021-12-05T17:26:33Z</time>
      </trkpt>
      <trkpt lat="42.8326" lon="2.49529">
        <ele>338</ele>
        <time>2021-12-05T17:26:41Z</time>
      </trkpt>
      <trkpt lat="42.83282" lon="2.49498">
        <ele>342</ele>
        <time>2021-12-05T17:26:46Z</time>
      </trkpt>
      <trkpt lat="42.83309" lon="2.49454">
        <ele>343</ele>
        <time>2021-12-05T17:26:54Z</time>
      </trkpt>
      <trkpt lat="42.83317" lon="2.49445">
        <ele>344</ele>
        <time>2021-12-05T17:26:55Z</time>
      </trkpt>
      <trkpt lat="42.83324" lon="2.4944">
        <ele>344</ele>
        <time>2021-12-05T17:26:57Z</time>
      </trkpt>
      <trkpt lat="42.8334" lon="2.49436">
        <ele>348</ele>
        <time>2021-12-05T17:27:00Z</time>
      </trkpt>
      <trkpt lat="42.83347" lon="2.49426">
        <ele>349</ele>
        <time>2021-12-05T17:27:02Z</time>
      </trkpt>
      <trkpt lat="42.83349" lon="2.49413">
        <ele>349</ele>
        <time>2021-12-05T17:27:03Z</time>
      </trkpt>
      <trkpt lat="42.83348" lon="2.49398">
        <ele>348</ele>
        <time>2021-12-05T17:27:05Z</time>
      </trkpt>
      <trkpt lat="42.83358" lon="2.49356">
        <ele>350</ele>
        <time>2021-12-05T17:27:11Z</time>
      </trkpt>
      <trkpt lat="42.83363" lon="2.49341">
        <ele>351</ele>
        <time>2021-12-05T17:27:13Z</time>
      </trkpt>
      <trkpt lat="42.83369" lon="2.49336">
        <ele>353</ele>
        <time>2021-12-05T17:27:14Z</time>
      </trkpt>
      <trkpt lat="42.83381" lon="2.49332">
        <ele>356</ele>
        <time>2021-12-05T17:27:17Z</time>
      </trkpt>
      <trkpt lat="42.83389" lon="2.49325">
        <ele>359</ele>
        <time>2021-12-05T17:27:18Z</time>
      </trkpt>
      <trkpt lat="42.83396" lon="2.49311">
        <ele>360</ele>
        <time>2021-12-05T17:27:21Z</time>
      </trkpt>
      <trkpt lat="42.83403" lon="2.49263">
        <ele>359</ele>
        <time>2021-12-05T17:27:27Z</time>
      </trkpt>
      <trkpt lat="42.8341" lon="2.49245">
        <ele>360</ele>
        <time>2021-12-05T17:27:30Z</time>
      </trkpt>
      <trkpt lat="42.83431" lon="2.49221">
        <ele>364</ele>
        <time>2021-12-05T17:27:34Z</time>
      </trkpt>
      <trkpt lat="42.8345" lon="2.49203">
        <ele>366</ele>
        <time>2021-12-05T17:27:39Z</time>
      </trkpt>
      <trkpt lat="42.83466" lon="2.49195">
        <ele>368</ele>
        <time>2021-12-05T17:27:42Z</time>
      </trkpt>
      <trkpt lat="42.83484" lon="2.49192">
        <ele>369</ele>
        <time>2021-12-05T17:27:45Z</time>
      </trkpt>
      <trkpt lat="42.83504" lon="2.49196">
        <ele>372</ele>
        <time>2021-12-05T17:27:48Z</time>
      </trkpt>
      <trkpt lat="42.83521" lon="2.49203">
        <ele>373</ele>
        <time>2021-12-05T17:27:52Z</time>
      </trkpt>
      <trkpt lat="42.83538" lon="2.49214">
        <ele>376</ele>
        <time>2021-12-05T17:27:55Z</time>
      </trkpt>
      <trkpt lat="42.83563" lon="2.49237">
        <ele>378</ele>
        <time>2021-12-05T17:28:00Z</time>
      </trkpt>
      <trkpt lat="42.83574" lon="2.49239">
        <ele>378</ele>
        <time>2021-12-05T17:28:02Z</time>
      </trkpt>
      <trkpt lat="42.83586" lon="2.49236">
        <ele>378</ele>
        <time>2021-12-05T17:28:04Z</time>
      </trkpt>
      <trkpt lat="42.83595" lon="2.49229">
        <ele>380</ele>
        <time>2021-12-05T17:28:06Z</time>
      </trkpt>
      <trkpt lat="42.83604" lon="2.49209">
        <ele>381</ele>
        <time>2021-12-05T17:28:09Z</time>
      </trkpt>
      <trkpt lat="42.83608" lon="2.49187">
        <ele>381</ele>
        <time>2021-12-05T17:28:12Z</time>
      </trkpt>
      <trkpt lat="42.83607" lon="2.49166">
        <ele>380</ele>
        <time>2021-12-05T17:28:15Z</time>
      </trkpt>
      <trkpt lat="42.83604" lon="2.49146">
        <ele>381</ele>
        <time>2021-12-05T17:28:18Z</time>
      </trkpt>
      <trkpt lat="42.83579" lon="2.49096">
        <ele>378</ele>
        <time>2021-12-05T17:28:26Z</time>
      </trkpt>
      <trkpt lat="42.83575" lon="2.49075">
        <ele>379</ele>
        <time>2021-12-05T17:28:28Z</time>
      </trkpt>
      <trkpt lat="42.83577" lon="2.49055">
        <ele>380</ele>
        <time>2021-12-05T17:28:31Z</time>
      </trkpt>
      <trkpt lat="42.83604" lon="2.48992">
        <ele>387</ele>
        <time>2021-12-05T17:28:41Z</time>
      </trkpt>
      <trkpt lat="42.8361" lon="2.48967">
        <ele>387</ele>
        <time>2021-12-05T17:28:44Z</time>
      </trkpt>
      <trkpt lat="42.83613" lon="2.48944">
        <ele>387</ele>
        <time>2021-12-05T17:28:47Z</time>
      </trkpt>
      <trkpt lat="42.83612" lon="2.48873">
        <ele>387</ele>
        <time>2021-12-05T17:28:56Z</time>
      </trkpt>
      <trkpt lat="42.8361" lon="2.48857">
        <ele>386</ele>
        <time>2021-12-05T17:28:58Z</time>
      </trkpt>
      <trkpt lat="42.83596" lon="2.48808">
        <ele>383</ele>
        <time>2021-12-05T17:29:05Z</time>
      </trkpt>
      <trkpt lat="42.83589" lon="2.48772">
        <ele>384</ele>
        <time>2021-12-05T17:29:10Z</time>
      </trkpt>
      <trkpt lat="42.83577" lon="2.48728">
        <ele>387</ele>
        <time>2021-12-05T17:29:16Z</time>
      </trkpt>
      <trkpt lat="42.83531" lon="2.48636">
        <ele>380</ele>
        <time>2021-12-05T17:29:31Z</time>
      </trkpt>
      <trkpt lat="42.83519" lon="2.48607">
        <ele>377</ele>
        <time>2021-12-05T17:29:35Z</time>
      </trkpt>
      <trkpt lat="42.83514" lon="2.48588">
        <ele>378</ele>
        <time>2021-12-05T17:29:38Z</time>
      </trkpt>
      <trkpt lat="42.83514" lon="2.48571">
        <ele>379</ele>
        <time>2021-12-05T17:29:40Z</time>
      </trkpt>
      <trkpt lat="42.83516" lon="2.48556">
        <ele>380</ele>
        <time>2021-12-05T17:29:42Z</time>
      </trkpt>
      <trkpt lat="42.83527" lon="2.48527">
        <ele>387</ele>
        <time>2021-12-05T17:29:46Z</time>
      </trkpt>
      <trkpt lat="42.8353" lon="2.48513">
        <ele>388</ele>
        <time>2021-12-05T17:29:48Z</time>
      </trkpt>
      <trkpt lat="42.83528" lon="2.48498">
        <ele>388</ele>
        <time>2021-12-05T17:29:50Z</time>
      </trkpt>
      <trkpt lat="42.83524" lon="2.48483">
        <ele>389</ele>
        <time>2021-12-05T17:29:52Z</time>
      </trkpt>
      <trkpt lat="42.83516" lon="2.48464">
        <ele>389</ele>
        <time>2021-12-05T17:29:55Z</time>
      </trkpt>
      <trkpt lat="42.83505" lon="2.48446">
        <ele>387</ele>
        <time>2021-12-05T17:29:58Z</time>
      </trkpt>
      <trkpt lat="42.83488" lon="2.48425">
        <ele>385</ele>
        <time>2021-12-05T17:30:02Z</time>
      </trkpt>
      <trkpt lat="42.83454" lon="2.4839">
        <ele>382</ele>
        <time>2021-12-05T17:30:10Z</time>
      </trkpt>
      <trkpt lat="42.83435" lon="2.48369">
        <ele>381</ele>
        <time>2021-12-05T17:30:14Z</time>
      </trkpt>
      <trkpt lat="42.83422" lon="2.48349">
        <ele>382</ele>
        <time>2021-12-05T17:30:18Z</time>
      </trkpt>
      <trkpt lat="42.83411" lon="2.4833">
        <ele>382</ele>
        <time>2021-12-05T17:30:21Z</time>
      </trkpt>
      <trkpt lat="42.83403" lon="2.48309">
        <ele>383</ele>
        <time>2021-12-05T17:30:24Z</time>
      </trkpt>
      <trkpt lat="42.83392" lon="2.48268">
        <ele>385</ele>
        <time>2021-12-05T17:30:30Z</time>
      </trkpt>
      <trkpt lat="42.8339" lon="2.48247">
        <ele>387</ele>
        <time>2021-12-05T17:30:32Z</time>
      </trkpt>
      <trkpt lat="42.8339" lon="2.48155">
        <ele>378</ele>
        <time>2021-12-05T17:30:44Z</time>
      </trkpt>
      <trkpt lat="42.83392" lon="2.48141">
        <ele>373</ele>
        <time>2021-12-05T17:30:46Z</time>
      </trkpt>
      <trkpt lat="42.834" lon="2.48122">
        <ele>370</ele>
        <time>2021-12-05T17:30:49Z</time>
      </trkpt>
      <trkpt lat="42.8341" lon="2.48087">
        <ele>360</ele>
        <time>2021-12-05T17:30:54Z</time>
      </trkpt>
      <trkpt lat="42.83415" lon="2.4808">
        <ele>360</ele>
        <time>2021-12-05T17:30:55Z</time>
      </trkpt>
      <trkpt lat="42.83422" lon="2.48076">
        <ele>361</ele>
        <time>2021-12-05T17:30:57Z</time>
      </trkpt>
      <trkpt lat="42.8343" lon="2.48077">
        <ele>364</ele>
        <time>2021-12-05T17:30:58Z</time>
      </trkpt>
      <trkpt lat="42.83437" lon="2.48082">
        <ele>369</ele>
        <time>2021-12-05T17:30:59Z</time>
      </trkpt>
      <trkpt lat="42.83458" lon="2.48099">
        <ele>385</ele>
        <time>2021-12-05T17:31:04Z</time>
      </trkpt>
      <trkpt lat="42.83468" lon="2.48103">
        <ele>390</ele>
        <time>2021-12-05T17:31:06Z</time>
      </trkpt>
      <trkpt lat="42.83479" lon="2.48102">
        <ele>394</ele>
        <time>2021-12-05T17:31:08Z</time>
      </trkpt>
      <trkpt lat="42.835" lon="2.48092">
        <ele>398</ele>
        <time>2021-12-05T17:31:12Z</time>
      </trkpt>
      <trkpt lat="42.83543" lon="2.48049">
        <ele>381</ele>
        <time>2021-12-05T17:31:21Z</time>
      </trkpt>
      <trkpt lat="42.83549" lon="2.48045">
        <ele>380</ele>
        <time>2021-12-05T17:31:22Z</time>
      </trkpt>
      <trkpt lat="42.83558" lon="2.48045">
        <ele>381</ele>
        <time>2021-12-05T17:31:24Z</time>
      </trkpt>
      <trkpt lat="42.83567" lon="2.48047">
        <ele>382</ele>
        <time>2021-12-05T17:31:25Z</time>
      </trkpt>
      <trkpt lat="42.83574" lon="2.48052">
        <ele>385</ele>
        <time>2021-12-05T17:31:27Z</time>
      </trkpt>
      <trkpt lat="42.83581" lon="2.4806">
        <ele>388</ele>
        <time>2021-12-05T17:31:29Z</time>
      </trkpt>
      <trkpt lat="42.83585" lon="2.48069">
        <ele>391</ele>
        <time>2021-12-05T17:31:30Z</time>
      </trkpt>
      <trkpt lat="42.83597" lon="2.481">
        <ele>398</ele>
        <time>2021-12-05T17:31:34Z</time>
      </trkpt>
      <trkpt lat="42.83608" lon="2.48124">
        <ele>405</ele>
        <time>2021-12-05T17:31:38Z</time>
      </trkpt>
      <trkpt lat="42.83621" lon="2.48143">
        <ele>408</ele>
        <time>2021-12-05T17:31:42Z</time>
      </trkpt>
      <trkpt lat="42.83634" lon="2.48156">
        <ele>408</ele>
        <time>2021-12-05T17:31:44Z</time>
      </trkpt>
      <trkpt lat="42.83666" lon="2.4818">
        <ele>403</ele>
        <time>2021-12-05T17:31:51Z</time>
      </trkpt>
      <trkpt lat="42.83683" lon="2.48189">
        <ele>406</ele>
        <time>2021-12-05T17:31:54Z</time>
      </trkpt>
      <trkpt lat="42.83691" lon="2.4819">
        <ele>406</ele>
        <time>2021-12-05T17:31:56Z</time>
      </trkpt>
      <trkpt lat="42.83702" lon="2.48186">
        <ele>405</ele>
        <time>2021-12-05T17:31:58Z</time>
      </trkpt>
      <trkpt lat="42.83729" lon="2.48171">
        <ele>399</ele>
        <time>2021-12-05T17:32:03Z</time>
      </trkpt>
      <trkpt lat="42.83758" lon="2.48166">
        <ele>399</ele>
        <time>2021-12-05T17:32:08Z</time>
      </trkpt>
      <trkpt lat="42.83789" lon="2.48158">
        <ele>404</ele>
        <time>2021-12-05T17:32:14Z</time>
      </trkpt>
      <trkpt lat="42.83801" lon="2.48155">
        <ele>406</ele>
        <time>2021-12-05T17:32:16Z</time>
      </trkpt>
      <trkpt lat="42.83813" lon="2.4815">
        <ele>407</ele>
        <time>2021-12-05T17:32:18Z</time>
      </trkpt>
      <trkpt lat="42.83828" lon="2.48127">
        <ele>406</ele>
        <time>2021-12-05T17:32:22Z</time>
      </trkpt>
      <trkpt lat="42.83838" lon="2.48106">
        <ele>405</ele>
        <time>2021-12-05T17:32:25Z</time>
      </trkpt>
      <trkpt lat="42.83841" lon="2.48084">
        <ele>402</ele>
        <time>2021-12-05T17:32:28Z</time>
      </trkpt>
      <trkpt lat="42.83839" lon="2.48068">
        <ele>399</ele>
        <time>2021-12-05T17:32:30Z</time>
      </trkpt>
      <trkpt lat="42.83834" lon="2.48054">
        <ele>396</ele>
        <time>2021-12-05T17:32:32Z</time>
      </trkpt>
      <trkpt lat="42.83831" lon="2.48028">
        <ele>394</ele>
        <time>2021-12-05T17:32:36Z</time>
      </trkpt>
      <trkpt lat="42.83837" lon="2.48007">
        <ele>394</ele>
        <time>2021-12-05T17:32:39Z</time>
      </trkpt>
      <trkpt lat="42.83844" lon="2.47997">
        <ele>396</ele>
        <time>2021-12-05T17:32:41Z</time>
      </trkpt>
      <trkpt lat="42.83848" lon="2.47983">
        <ele>400</ele>
        <time>2021-12-05T17:32:43Z</time>
      </trkpt>
      <trkpt lat="42.83855" lon="2.47978">
        <ele>402</ele>
        <time>2021-12-05T17:32:44Z</time>
      </trkpt>
      <trkpt lat="42.83873" lon="2.47977">
        <ele>404</ele>
        <time>2021-12-05T17:32:47Z</time>
      </trkpt>
      <trkpt lat="42.83886" lon="2.47971">
        <ele>406</ele>
        <time>2021-12-05T17:32:50Z</time>
      </trkpt>
      <trkpt lat="42.83896" lon="2.47971">
        <ele>407</ele>
        <time>2021-12-05T17:32:51Z</time>
      </trkpt>
      <trkpt lat="42.839" lon="2.47973">
        <ele>407</ele>
        <time>2021-12-05T17:32:52Z</time>
      </trkpt>
      <trkpt lat="42.83905" lon="2.47988">
        <ele>408</ele>
        <time>2021-12-05T17:32:54Z</time>
      </trkpt>
      <trkpt lat="42.83908" lon="2.4799">
        <ele>408</ele>
        <time>2021-12-05T17:32:55Z</time>
      </trkpt>
      <trkpt lat="42.83937" lon="2.47979">
        <ele>415</ele>
        <time>2021-12-05T17:33:00Z</time>
      </trkpt>
      <trkpt lat="42.83952" lon="2.47961">
        <ele>417</ele>
        <time>2021-12-05T17:33:04Z</time>
      </trkpt>
      <trkpt lat="42.83965" lon="2.47963">
        <ele>421</ele>
        <time>2021-12-05T17:33:06Z</time>
      </trkpt>
      <trkpt lat="42.83976" lon="2.47957">
        <ele>423</ele>
        <time>2021-12-05T17:33:08Z</time>
      </trkpt>
      <trkpt lat="42.83984" lon="2.47955">
        <ele>425</ele>
        <time>2021-12-05T17:33:10Z</time>
      </trkpt>
      <trkpt lat="42.83994" lon="2.47944">
        <ele>426</ele>
        <time>2021-12-05T17:33:12Z</time>
      </trkpt>
      <trkpt lat="42.83999" lon="2.47944">
        <ele>427</ele>
        <time>2021-12-05T17:33:13Z</time>
      </trkpt>
      <trkpt lat="42.84009" lon="2.47949">
        <ele>430</ele>
        <time>2021-12-05T17:33:15Z</time>
      </trkpt>
      <trkpt lat="42.84019" lon="2.47942">
        <ele>431</ele>
        <time>2021-12-05T17:33:17Z</time>
      </trkpt>
      <trkpt lat="42.84036" lon="2.47938">
        <ele>434</ele>
        <time>2021-12-05T17:33:20Z</time>
      </trkpt>
      <trkpt lat="42.8404" lon="2.47933">
        <ele>433</ele>
        <time>2021-12-05T17:33:21Z</time>
      </trkpt>
      <trkpt lat="42.84042" lon="2.4792">
        <ele>430</ele>
        <time>2021-12-05T17:33:22Z</time>
      </trkpt>
      <trkpt lat="42.84046" lon="2.47919">
        <ele>430</ele>
        <time>2021-12-05T17:33:23Z</time>
      </trkpt>
      <trkpt lat="42.84063" lon="2.47934">
        <ele>438</ele>
        <time>2021-12-05T17:33:27Z</time>
      </trkpt>
      <trkpt lat="42.8408" lon="2.47931">
        <ele>440</ele>
        <time>2021-12-05T17:33:30Z</time>
      </trkpt>
      <trkpt lat="42.84093" lon="2.47925">
        <ele>439</ele>
        <time>2021-12-05T17:33:32Z</time>
      </trkpt>
      <trkpt lat="42.84104" lon="2.47926">
        <ele>440</ele>
        <time>2021-12-05T17:33:34Z</time>
      </trkpt>
      <trkpt lat="42.84109" lon="2.47931">
        <ele>442</ele>
        <time>2021-12-05T17:33:35Z</time>
      </trkpt>
      <trkpt lat="42.84119" lon="2.47949">
        <ele>449</ele>
        <time>2021-12-05T17:33:38Z</time>
      </trkpt>
      <trkpt lat="42.84136" lon="2.47966">
        <ele>455</ele>
        <time>2021-12-05T17:33:42Z</time>
      </trkpt>
      <trkpt lat="42.84153" lon="2.47978">
        <ele>459</ele>
        <time>2021-12-05T17:33:45Z</time>
      </trkpt>
      <trkpt lat="42.84176" lon="2.47988">
        <ele>462</ele>
        <time>2021-12-05T17:33:50Z</time>
      </trkpt>
      <trkpt lat="42.84186" lon="2.47989">
        <ele>463</ele>
        <time>2021-12-05T17:33:52Z</time>
      </trkpt>
      <trkpt lat="42.84194" lon="2.47985">
        <ele>461</ele>
        <time>2021-12-05T17:33:53Z</time>
      </trkpt>
      <trkpt lat="42.84212" lon="2.47982">
        <ele>460</ele>
        <time>2021-12-05T17:33:56Z</time>
      </trkpt>
      <trkpt lat="42.84226" lon="2.47985">
        <ele>461</ele>
        <time>2021-12-05T17:33:59Z</time>
      </trkpt>
      <trkpt lat="42.84252" lon="2.47997">
        <ele>466</ele>
        <time>2021-12-05T17:34:04Z</time>
      </trkpt>
      <trkpt lat="42.84259" lon="2.47998">
        <ele>468</ele>
        <time>2021-12-05T17:34:05Z</time>
      </trkpt>
      <trkpt lat="42.84264" lon="2.47993">
        <ele>466</ele>
        <time>2021-12-05T17:34:06Z</time>
      </trkpt>
      <trkpt lat="42.84267" lon="2.47983">
        <ele>460</ele>
        <time>2021-12-05T17:34:07Z</time>
      </trkpt>
      <trkpt lat="42.84271" lon="2.4798">
        <ele>459</ele>
        <time>2021-12-05T17:34:08Z</time>
      </trkpt>
      <trkpt lat="42.84292" lon="2.47988">
        <ele>465</ele>
        <time>2021-12-05T17:34:12Z</time>
      </trkpt>
      <trkpt lat="42.84302" lon="2.47989">
        <ele>466</ele>
        <time>2021-12-05T17:34:14Z</time>
      </trkpt>
      <trkpt lat="42.84314" lon="2.47984">
        <ele>462</ele>
        <time>2021-12-05T17:34:16Z</time>
      </trkpt>
      <trkpt lat="42.84337" lon="2.47988">
        <ele>468</ele>
        <time>2021-12-05T17:34:20Z</time>
      </trkpt>
      <trkpt lat="42.84341" lon="2.47986">
        <ele>466</ele>
        <time>2021-12-05T17:34:21Z</time>
      </trkpt>
      <trkpt lat="42.84345" lon="2.47982">
        <ele>462</ele>
        <time>2021-12-05T17:34:22Z</time>
      </trkpt>
      <trkpt lat="42.84367" lon="2.4793">
        <ele>408</ele>
        <time>2021-12-05T17:34:30Z</time>
      </trkpt>
      <trkpt lat="42.84373" lon="2.47921">
        <ele>400</ele>
        <time>2021-12-05T17:34:31Z</time>
      </trkpt>
      <trkpt lat="42.84387" lon="2.47913">
        <ele>399</ele>
        <time>2021-12-05T17:34:34Z</time>
      </trkpt>
      <trkpt lat="42.84391" lon="2.47908">
        <ele>398</ele>
        <time>2021-12-05T17:34:35Z</time>
      </trkpt>
      <trkpt lat="42.84395" lon="2.47893">
        <ele>394</ele>
        <time>2021-12-05T17:34:37Z</time>
      </trkpt>
      <trkpt lat="42.84399" lon="2.47888">
        <ele>392</ele>
        <time>2021-12-05T17:34:38Z</time>
      </trkpt>
      <trkpt lat="42.84412" lon="2.47878">
        <ele>390</ele>
        <time>2021-12-05T17:34:41Z</time>
      </trkpt>
      <trkpt lat="42.84426" lon="2.47854">
        <ele>378</ele>
        <time>2021-12-05T17:34:45Z</time>
      </trkpt>
      <trkpt lat="42.84437" lon="2.47846">
        <ele>374</ele>
        <time>2021-12-05T17:34:47Z</time>
      </trkpt>
      <trkpt lat="42.84446" lon="2.47844">
        <ele>374</ele>
        <time>2021-12-05T17:34:49Z</time>
      </trkpt>
      <trkpt lat="42.84459" lon="2.47845">
        <ele>376</ele>
        <time>2021-12-05T17:34:51Z</time>
      </trkpt>
      <trkpt lat="42.84473" lon="2.47856">
        <ele>381</ele>
        <time>2021-12-05T17:34:54Z</time>
      </trkpt>
      <trkpt lat="42.84495" lon="2.47853">
        <ele>381</ele>
        <time>2021-12-05T17:34:58Z</time>
      </trkpt>
      <trkpt lat="42.84501" lon="2.47844">
        <ele>378</ele>
        <time>2021-12-05T17:34:59Z</time>
      </trkpt>
      <trkpt lat="42.84514" lon="2.47829">
        <ele>378</ele>
        <time>2021-12-05T17:35:02Z</time>
      </trkpt>
      <trkpt lat="42.84527" lon="2.47818">
        <ele>382</ele>
        <time>2021-12-05T17:35:05Z</time>
      </trkpt>
      <trkpt lat="42.84544" lon="2.47819">
        <ele>385</ele>
        <time>2021-12-05T17:35:08Z</time>
      </trkpt>
      <trkpt lat="42.84551" lon="2.47818">
        <ele>386</ele>
        <time>2021-12-05T17:35:09Z</time>
      </trkpt>
      <trkpt lat="42.84561" lon="2.47809">
        <ele>387</ele>
        <time>2021-12-05T17:35:11Z</time>
      </trkpt>
      <trkpt lat="42.84589" lon="2.47773">
        <ele>383</ele>
        <time>2021-12-05T17:35:18Z</time>
      </trkpt>
      <trkpt lat="42.84607" lon="2.47741">
        <ele>384</ele>
        <time>2021-12-05T17:35:24Z</time>
      </trkpt>
      <trkpt lat="42.84631" lon="2.47664">
        <ele>400</ele>
        <time>2021-12-05T17:35:34Z</time>
      </trkpt>
      <trkpt lat="42.84627" lon="2.4759">
        <ele>398</ele>
        <time>2021-12-05T17:35:44Z</time>
      </trkpt>
      <trkpt lat="42.84628" lon="2.4757">
        <ele>398</ele>
        <time>2021-12-05T17:35:47Z</time>
      </trkpt>
      <trkpt lat="42.84632" lon="2.4755">
        <ele>398</ele>
        <time>2021-12-05T17:35:49Z</time>
      </trkpt>
      <trkpt lat="42.84637" lon="2.47539">
        <ele>398</ele>
        <time>2021-12-05T17:35:51Z</time>
      </trkpt>
      <trkpt lat="42.84648" lon="2.47527">
        <ele>395</ele>
        <time>2021-12-05T17:35:54Z</time>
      </trkpt>
      <trkpt lat="42.84681" lon="2.47482">
        <ele>395</ele>
        <time>2021-12-05T17:36:02Z</time>
      </trkpt>
      <trkpt lat="42.84683" lon="2.47473">
        <ele>396</ele>
        <time>2021-12-05T17:36:03Z</time>
      </trkpt>
      <trkpt lat="42.84682" lon="2.47316">
        <ele>394</ele>
        <time>2021-12-05T17:36:24Z</time>
      </trkpt>
      <trkpt lat="42.84678" lon="2.47294">
        <ele>394</ele>
        <time>2021-12-05T17:36:27Z</time>
      </trkpt>
      <trkpt lat="42.84658" lon="2.47231">
        <ele>397</ele>
        <time>2021-12-05T17:36:36Z</time>
      </trkpt>
      <trkpt lat="42.84654" lon="2.47224">
        <ele>398</ele>
        <time>2021-12-05T17:36:37Z</time>
      </trkpt>
      <trkpt lat="42.84636" lon="2.47211">
        <ele>401</ele>
        <time>2021-12-05T17:36:40Z</time>
      </trkpt>
      <trkpt lat="42.84624" lon="2.47188">
        <ele>402</ele>
        <time>2021-12-05T17:36:44Z</time>
      </trkpt>
      <trkpt lat="42.8462" lon="2.47177">
        <ele>402</ele>
        <time>2021-12-05T17:36:46Z</time>
      </trkpt>
      <trkpt lat="42.84619" lon="2.47162">
        <ele>402</ele>
        <time>2021-12-05T17:36:48Z</time>
      </trkpt>
      <trkpt lat="42.84623" lon="2.47135">
        <ele>405</ele>
        <time>2021-12-05T17:36:51Z</time>
      </trkpt>
      <trkpt lat="42.84624" lon="2.47125">
        <ele>407</ele>
        <time>2021-12-05T17:36:53Z</time>
      </trkpt>
      <trkpt lat="42.84621" lon="2.47102">
        <ele>409</ele>
        <time>2021-12-05T17:36:56Z</time>
      </trkpt>
      <trkpt lat="42.84617" lon="2.47017">
        <ele>412</ele>
        <time>2021-12-05T17:37:07Z</time>
      </trkpt>
      <trkpt lat="42.8462" lon="2.47003">
        <ele>412</ele>
        <time>2021-12-05T17:37:09Z</time>
      </trkpt>
      <trkpt lat="42.84628" lon="2.46989">
        <ele>413</ele>
        <time>2021-12-05T17:37:11Z</time>
      </trkpt>
      <trkpt lat="42.84637" lon="2.46978">
        <ele>414</ele>
        <time>2021-12-05T17:37:13Z</time>
      </trkpt>
      <trkpt lat="42.84678" lon="2.46944">
        <ele>415</ele>
        <time>2021-12-05T17:37:22Z</time>
      </trkpt>
      <trkpt lat="42.84695" lon="2.46924">
        <ele>417</ele>
        <time>2021-12-05T17:37:26Z</time>
      </trkpt>
      <trkpt lat="42.84705" lon="2.46909">
        <ele>418</ele>
        <time>2021-12-05T17:37:28Z</time>
      </trkpt>
      <trkpt lat="42.84713" lon="2.46888">
        <ele>419</ele>
        <time>2021-12-05T17:37:31Z</time>
      </trkpt>
      <trkpt lat="42.84729" lon="2.46863">
        <ele>416</ele>
        <time>2021-12-05T17:37:36Z</time>
      </trkpt>
      <trkpt lat="42.84734" lon="2.46836">
        <ele>412</ele>
        <time>2021-12-05T17:37:39Z</time>
      </trkpt>
      <trkpt lat="42.8474" lon="2.46821">
        <ele>413</ele>
        <time>2021-12-05T17:37:42Z</time>
      </trkpt>
      <trkpt lat="42.84753" lon="2.46804">
        <ele>414</ele>
        <time>2021-12-05T17:37:45Z</time>
      </trkpt>
      <trkpt lat="42.84758" lon="2.46802">
        <ele>416</ele>
        <time>2021-12-05T17:37:46Z</time>
      </trkpt>
      <trkpt lat="42.84763" lon="2.46805">
        <ele>416</ele>
        <time>2021-12-05T17:37:47Z</time>
      </trkpt>
      <trkpt lat="42.84773" lon="2.4683">
        <ele>410</ele>
        <time>2021-12-05T17:37:50Z</time>
      </trkpt>
      <trkpt lat="42.8481" lon="2.46888">
        <ele>414</ele>
        <time>2021-12-05T17:38:00Z</time>
      </trkpt>
      <trkpt lat="42.84815" lon="2.46904">
        <ele>413</ele>
        <time>2021-12-05T17:38:03Z</time>
      </trkpt>
      <trkpt lat="42.84814" lon="2.46917">
        <ele>412</ele>
        <time>2021-12-05T17:38:04Z</time>
      </trkpt>
      <trkpt lat="42.84808" lon="2.46957">
        <ele>416</ele>
        <time>2021-12-05T17:38:10Z</time>
      </trkpt>
      <trkpt lat="42.84798" lon="2.47013">
        <ele>426</ele>
        <time>2021-12-05T17:38:17Z</time>
      </trkpt>
      <trkpt lat="42.84799" lon="2.47048">
        <ele>431</ele>
        <time>2021-12-05T17:38:22Z</time>
      </trkpt>
      <trkpt lat="42.84802" lon="2.47068">
        <ele>433</ele>
        <time>2021-12-05T17:38:24Z</time>
      </trkpt>
      <trkpt lat="42.8481" lon="2.47082">
        <ele>431</ele>
        <time>2021-12-05T17:38:27Z</time>
      </trkpt>
      <trkpt lat="42.84827" lon="2.47094">
        <ele>426</ele>
        <time>2021-12-05T17:38:30Z</time>
      </trkpt>
      <trkpt lat="42.84872" lon="2.47121">
        <ele>426</ele>
        <time>2021-12-05T17:38:39Z</time>
      </trkpt>
      <trkpt lat="42.849" lon="2.47134">
        <ele>422</ele>
        <time>2021-12-05T17:38:44Z</time>
      </trkpt>
      <trkpt lat="42.84914" lon="2.47137">
        <ele>419</ele>
        <time>2021-12-05T17:38:47Z</time>
      </trkpt>
      <trkpt lat="42.84923" lon="2.47136">
        <ele>421</ele>
        <time>2021-12-05T17:38:48Z</time>
      </trkpt>
      <trkpt lat="42.84934" lon="2.47128">
        <ele>423</ele>
        <time>2021-12-05T17:38:50Z</time>
      </trkpt>
      <trkpt lat="42.84991" lon="2.47057">
        <ele>430</ele>
        <time>2021-12-05T17:39:04Z</time>
      </trkpt>
      <trkpt lat="42.85056" lon="2.47017">
        <ele>427</ele>
        <time>2021-12-05T17:39:17Z</time>
      </trkpt>
      <trkpt lat="42.85068" lon="2.47016">
        <ele>426</ele>
        <time>2021-12-05T17:39:19Z</time>
      </trkpt>
      <trkpt lat="42.85081" lon="2.47025">
        <ele>428</ele>
        <time>2021-12-05T17:39:22Z</time>
      </trkpt>
      <trkpt lat="42.85091" lon="2.47037">
        <ele>430</ele>
        <time>2021-12-05T17:39:24Z</time>
      </trkpt>
      <trkpt lat="42.85113" lon="2.47045">
        <ele>430</ele>
        <time>2021-12-05T17:39:28Z</time>
      </trkpt>
      <trkpt lat="42.85125" lon="2.47045">
        <ele>429</ele>
        <time>2021-12-05T17:39:30Z</time>
      </trkpt>
      <trkpt lat="42.85144" lon="2.47043">
        <ele>427</ele>
        <time>2021-12-05T17:39:34Z</time>
      </trkpt>
      <trkpt lat="42.85153" lon="2.47038">
        <ele>424</ele>
        <time>2021-12-05T17:39:35Z</time>
      </trkpt>
      <trkpt lat="42.85165" lon="2.47035">
        <ele>422</ele>
        <time>2021-12-05T17:39:37Z</time>
      </trkpt>
      <trkpt lat="42.85179" lon="2.47039">
        <ele>423</ele>
        <time>2021-12-05T17:39:40Z</time>
      </trkpt>
      <trkpt lat="42.85206" lon="2.47036">
        <ele>423</ele>
        <time>2021-12-05T17:39:45Z</time>
      </trkpt>
      <trkpt lat="42.85231" lon="2.47021">
        <ele>420</ele>
        <time>2021-12-05T17:39:50Z</time>
      </trkpt>
      <trkpt lat="42.8524" lon="2.47012">
        <ele>418</ele>
        <time>2021-12-05T17:39:52Z</time>
      </trkpt>
      <trkpt lat="42.85246" lon="2.46999">
        <ele>416</ele>
        <time>2021-12-05T17:39:54Z</time>
      </trkpt>
      <trkpt lat="42.85256" lon="2.46944">
        <ele>419</ele>
        <time>2021-12-05T17:40:01Z</time>
      </trkpt>
      <trkpt lat="42.85262" lon="2.46901">
        <ele>421</ele>
        <time>2021-12-05T17:40:07Z</time>
      </trkpt>
      <trkpt lat="42.853" lon="2.46701">
        <ele>424</ele>
        <time>2021-12-05T17:40:34Z</time>
      </trkpt>
      <trkpt lat="42.85307" lon="2.46679">
        <ele>422</ele>
        <time>2021-12-05T17:40:37Z</time>
      </trkpt>
      <trkpt lat="42.85315" lon="2.46658">
        <ele>420</ele>
        <time>2021-12-05T17:40:40Z</time>
      </trkpt>
      <trkpt lat="42.8532" lon="2.4665">
        <ele>420</ele>
        <time>2021-12-05T17:40:41Z</time>
      </trkpt>
      <trkpt lat="42.85326" lon="2.46645">
        <ele>420</ele>
        <time>2021-12-05T17:40:43Z</time>
      </trkpt>
      <trkpt lat="42.85335" lon="2.46643">
        <ele>420</ele>
        <time>2021-12-05T17:40:44Z</time>
      </trkpt>
      <trkpt lat="42.85362" lon="2.46644">
        <ele>424</ele>
        <time>2021-12-05T17:40:49Z</time>
      </trkpt>
      <trkpt lat="42.85374" lon="2.46641">
        <ele>426</ele>
        <time>2021-12-05T17:40:51Z</time>
      </trkpt>
      <trkpt lat="42.85381" lon="2.46636">
        <ele>426</ele>
        <time>2021-12-05T17:40:53Z</time>
      </trkpt>
      <trkpt lat="42.85452" lon="2.46558">
        <ele>431</ele>
        <time>2021-12-05T17:41:09Z</time>
      </trkpt>
      <trkpt lat="42.85483" lon="2.46518">
        <ele>432</ele>
        <time>2021-12-05T17:41:16Z</time>
      </trkpt>
      <trkpt lat="42.85536" lon="2.46468">
        <ele>433</ele>
        <time>2021-12-05T17:41:28Z</time>
      </trkpt>
      <trkpt lat="42.85552" lon="2.46458">
        <ele>433</ele>
        <time>2021-12-05T17:41:31Z</time>
      </trkpt>
      <trkpt lat="42.85572" lon="2.46457">
        <ele>434</ele>
        <time>2021-12-05T17:41:35Z</time>
      </trkpt>
      <trkpt lat="42.85583" lon="2.46452">
        <ele>434</ele>
        <time>2021-12-05T17:41:37Z</time>
      </trkpt>
      <trkpt lat="42.85603" lon="2.46433">
        <ele>434</ele>
        <time>2021-12-05T17:41:41Z</time>
      </trkpt>
      <trkpt lat="42.85627" lon="2.46389">
        <ele>435</ele>
        <time>2021-12-05T17:41:48Z</time>
      </trkpt>
      <trkpt lat="42.85689" lon="2.46265">
        <ele>441</ele>
        <time>2021-12-05T17:42:08Z</time>
      </trkpt>
      <trkpt lat="42.85706" lon="2.46238">
        <ele>442</ele>
        <time>2021-12-05T17:42:12Z</time>
      </trkpt>
      <trkpt lat="42.85729" lon="2.46214">
        <ele>444</ele>
        <time>2021-12-05T17:42:17Z</time>
      </trkpt>
      <trkpt lat="42.85744" lon="2.46205">
        <ele>445</ele>
        <time>2021-12-05T17:42:20Z</time>
      </trkpt>
      <trkpt lat="42.85813" lon="2.46182">
        <ele>443</ele>
        <time>2021-12-05T17:42:33Z</time>
      </trkpt>
      <trkpt lat="42.85838" lon="2.46169">
        <ele>441</ele>
        <time>2021-12-05T17:42:38Z</time>
      </trkpt>
      <trkpt lat="42.85879" lon="2.46134">
        <ele>447</ele>
        <time>2021-12-05T17:42:46Z</time>
      </trkpt>
      <trkpt lat="42.85915" lon="2.46099">
        <ele>447</ele>
        <time>2021-12-05T17:42:54Z</time>
      </trkpt>
      <trkpt lat="42.85958" lon="2.46074">
        <ele>448</ele>
        <time>2021-12-05T17:43:03Z</time>
      </trkpt>
      <trkpt lat="42.85984" lon="2.46064">
        <ele>448</ele>
        <time>2021-12-05T17:43:07Z</time>
      </trkpt>
      <trkpt lat="42.86037" lon="2.46056">
        <ele>448</ele>
        <time>2021-12-05T17:43:17Z</time>
      </trkpt>
      <trkpt lat="42.86047" lon="2.46045">
        <ele>448</ele>
        <time>2021-12-05T17:43:19Z</time>
      </trkpt>
      <trkpt lat="42.8605" lon="2.46036">
        <ele>448</ele>
        <time>2021-12-05T17:43:20Z</time>
      </trkpt>
      <trkpt lat="42.86061" lon="2.46018">
        <ele>448</ele>
        <time>2021-12-05T17:43:24Z</time>
      </trkpt>
      <trkpt lat="42.86068" lon="2.46015">
        <ele>448</ele>
        <time>2021-12-05T17:43:25Z</time>
      </trkpt>
      <trkpt lat="42.86095" lon="2.46018">
        <ele>448</ele>
        <time>2021-12-05T17:43:30Z</time>
      </trkpt>
      <trkpt lat="42.86149" lon="2.46015">
        <ele>449</ele>
        <time>2021-12-05T17:43:39Z</time>
      </trkpt>
      <trkpt lat="42.86192" lon="2.46004">
        <ele>449</ele>
        <time>2021-12-05T17:43:47Z</time>
      </trkpt>
      <trkpt lat="42.86185" lon="2.45973">
        <ele>448</ele>
        <time>2021-12-05T17:43:51Z</time>
      </trkpt>
      <trkpt lat="42.86183" lon="2.45961">
        <ele>448</ele>
        <time>2021-12-05T17:43:53Z</time>
      </trkpt>
      <trkpt lat="42.86176" lon="2.45928">
        <ele>448</ele>
        <time>2021-12-05T17:43:57Z</time>
      </trkpt>
      <trkpt lat="42.86172" lon="2.45912">
        <ele>448</ele>
        <time>2021-12-05T17:44:00Z</time>
      </trkpt>
      <trkpt lat="42.86169" lon="2.45878">
        <ele>450</ele>
        <time>2021-12-05T17:44:04Z</time>
      </trkpt>
      <trkpt lat="42.86169" lon="2.45853">
        <ele>451</ele>
        <time>2021-12-05T17:44:07Z</time>
      </trkpt>
      <trkpt lat="42.86173" lon="2.45827">
        <ele>453</ele>
        <time>2021-12-05T17:44:11Z</time>
      </trkpt>
      <trkpt lat="42.86181" lon="2.45804">
        <ele>455</ele>
        <time>2021-12-05T17:44:14Z</time>
      </trkpt>
      <trkpt lat="42.86229" lon="2.45672">
        <ele>460</ele>
        <time>2021-12-05T17:44:33Z</time>
      </trkpt>
      <trkpt lat="42.86235" lon="2.45637">
        <ele>461</ele>
        <time>2021-12-05T17:44:38Z</time>
      </trkpt>
      <trkpt lat="42.86236" lon="2.45603">
        <ele>463</ele>
        <time>2021-12-05T17:44:42Z</time>
      </trkpt>
      <trkpt lat="42.86232" lon="2.45561">
        <ele>466</ele>
        <time>2021-12-05T17:44:48Z</time>
      </trkpt>
      <trkpt lat="42.86226" lon="2.45534">
        <ele>468</ele>
        <time>2021-12-05T17:44:52Z</time>
      </trkpt>
      <trkpt lat="42.86226" lon="2.4549">
        <ele>468</ele>
        <time>2021-12-05T17:44:57Z</time>
      </trkpt>
      <trkpt lat="42.86224" lon="2.45479">
        <ele>469</ele>
        <time>2021-12-05T17:44:59Z</time>
      </trkpt>
      <trkpt lat="42.86221" lon="2.45468">
        <ele>470</ele>
        <time>2021-12-05T17:45:00Z</time>
      </trkpt>
      <trkpt lat="42.86212" lon="2.45449">
        <ele>473</ele>
        <time>2021-12-05T17:45:03Z</time>
      </trkpt>
      <trkpt lat="42.86209" lon="2.45438">
        <ele>474</ele>
        <time>2021-12-05T17:45:05Z</time>
      </trkpt>
      <trkpt lat="42.86206" lon="2.45421">
        <ele>475</ele>
        <time>2021-12-05T17:45:07Z</time>
      </trkpt>
      <trkpt lat="42.86206" lon="2.45405">
        <ele>476</ele>
        <time>2021-12-05T17:45:09Z</time>
      </trkpt>
      <trkpt lat="42.86213" lon="2.45335">
        <ele>479</ele>
        <time>2021-12-05T17:45:18Z</time>
      </trkpt>
      <trkpt lat="42.86212" lon="2.45317">
        <ele>480</ele>
        <time>2021-12-05T17:45:21Z</time>
      </trkpt>
      <trkpt lat="42.86199" lon="2.4525">
        <ele>487</ele>
        <time>2021-12-05T17:45:30Z</time>
      </trkpt>
      <trkpt lat="42.862" lon="2.4523">
        <ele>489</ele>
        <time>2021-12-05T17:45:32Z</time>
      </trkpt>
      <trkpt lat="42.86205" lon="2.45213">
        <ele>490</ele>
        <time>2021-12-05T17:45:35Z</time>
      </trkpt>
      <trkpt lat="42.86236" lon="2.45167">
        <ele>489</ele>
        <time>2021-12-05T17:45:43Z</time>
      </trkpt>
      <trkpt lat="42.86307" lon="2.45069">
        <ele>497</ele>
        <time>2021-12-05T17:46:01Z</time>
      </trkpt>
      <trkpt lat="42.86314" lon="2.45057">
        <ele>498</ele>
        <time>2021-12-05T17:46:03Z</time>
      </trkpt>
      <trkpt lat="42.86317" lon="2.45042">
        <ele>498</ele>
        <time>2021-12-05T17:46:05Z</time>
      </trkpt>
      <trkpt lat="42.86319" lon="2.45023">
        <ele>500</ele>
        <time>2021-12-05T17:46:07Z</time>
      </trkpt>
      <trkpt lat="42.86318" lon="2.44942">
        <ele>499</ele>
        <time>2021-12-05T17:46:18Z</time>
      </trkpt>
      <trkpt lat="42.86312" lon="2.44876">
        <ele>497</ele>
        <time>2021-12-05T17:46:27Z</time>
      </trkpt>
      <trkpt lat="42.86295" lon="2.44768">
        <ele>490</ele>
        <time>2021-12-05T17:46:41Z</time>
      </trkpt>
      <trkpt lat="42.86291" lon="2.4475">
        <ele>488</ele>
        <time>2021-12-05T17:46:44Z</time>
      </trkpt>
      <trkpt lat="42.86286" lon="2.44737">
        <ele>488</ele>
        <time>2021-12-05T17:46:45Z</time>
      </trkpt>
      <trkpt lat="42.86274" lon="2.44716">
        <ele>488</ele>
        <time>2021-12-05T17:46:49Z</time>
      </trkpt>
      <trkpt lat="42.86195" lon="2.44626">
        <ele>484</ele>
        <time>2021-12-05T17:47:07Z</time>
      </trkpt>
      <trkpt lat="42.86169" lon="2.44596">
        <ele>482</ele>
        <time>2021-12-05T17:47:13Z</time>
      </trkpt>
      <trkpt lat="42.86164" lon="2.44586">
        <ele>482</ele>
        <time>2021-12-05T17:47:15Z</time>
      </trkpt>
      <trkpt lat="42.86162" lon="2.44576">
        <ele>481</ele>
        <time>2021-12-05T17:47:16Z</time>
      </trkpt>
      <trkpt lat="42.86163" lon="2.44564">
        <ele>480</ele>
        <time>2021-12-05T17:47:18Z</time>
      </trkpt>
      <trkpt lat="42.86166" lon="2.44552">
        <ele>479</ele>
        <time>2021-12-05T17:47:20Z</time>
      </trkpt>
      <trkpt lat="42.86175" lon="2.44538">
        <ele>478</ele>
        <time>2021-12-05T17:47:22Z</time>
      </trkpt>
      <trkpt lat="42.86237" lon="2.44469">
        <ele>478</ele>
        <time>2021-12-05T17:47:36Z</time>
      </trkpt>
      <trkpt lat="42.86242" lon="2.4446">
        <ele>478</ele>
        <time>2021-12-05T17:47:38Z</time>
      </trkpt>
      <trkpt lat="42.86243" lon="2.44445">
        <ele>477</ele>
        <time>2021-12-05T17:47:40Z</time>
      </trkpt>
      <trkpt lat="42.86241" lon="2.44436">
        <ele>477</ele>
        <time>2021-12-05T17:47:41Z</time>
      </trkpt>
      <trkpt lat="42.86234" lon="2.44422">
        <ele>476</ele>
        <time>2021-12-05T17:47:43Z</time>
      </trkpt>
      <trkpt lat="42.86224" lon="2.44416">
        <ele>475</ele>
        <time>2021-12-05T17:47:45Z</time>
      </trkpt>
      <trkpt lat="42.86167" lon="2.44424">
        <ele>473</ele>
        <time>2021-12-05T17:47:55Z</time>
      </trkpt>
      <trkpt lat="42.86156" lon="2.44419">
        <ele>472</ele>
        <time>2021-12-05T17:47:57Z</time>
      </trkpt>
      <trkpt lat="42.86152" lon="2.44414">
        <ele>472</ele>
        <time>2021-12-05T17:47:58Z</time>
      </trkpt>
      <trkpt lat="42.86148" lon="2.44406">
        <ele>471</ele>
        <time>2021-12-05T17:47:59Z</time>
      </trkpt>
      <trkpt lat="42.86146" lon="2.44398">
        <ele>471</ele>
        <time>2021-12-05T17:48:01Z</time>
      </trkpt>
      <trkpt lat="42.86147" lon="2.44387">
        <ele>471</ele>
        <time>2021-12-05T17:48:02Z</time>
      </trkpt>
      <trkpt lat="42.86164" lon="2.44284">
        <ele>472</ele>
        <time>2021-12-05T17:48:16Z</time>
      </trkpt>
      <trkpt lat="42.86167" lon="2.4422">
        <ele>472</ele>
        <time>2021-12-05T17:48:24Z</time>
      </trkpt>
      <trkpt lat="42.86172" lon="2.44123">
        <ele>471</ele>
        <time>2021-12-05T17:48:37Z</time>
      </trkpt>
      <trkpt lat="42.86173" lon="2.44107">
        <ele>471</ele>
        <time>2021-12-05T17:48:39Z</time>
      </trkpt>
      <trkpt lat="42.86175" lon="2.44093">
        <ele>471</ele>
        <time>2021-12-05T17:48:41Z</time>
      </trkpt>
      <trkpt lat="42.86181" lon="2.44078">
        <ele>472</ele>
        <time>2021-12-05T17:48:43Z</time>
      </trkpt>
      <trkpt lat="42.86196" lon="2.4405">
        <ele>474</ele>
        <time>2021-12-05T17:48:48Z</time>
      </trkpt>
      <trkpt lat="42.86221" lon="2.44014">
        <ele>476</ele>
        <time>2021-12-05T17:48:54Z</time>
      </trkpt>
      <trkpt lat="42.86224" lon="2.44007">
        <ele>476</ele>
        <time>2021-12-05T17:48:55Z</time>
      </trkpt>
      <trkpt lat="42.86225" lon="2.44002">
        <ele>476</ele>
        <time>2021-12-05T17:48:56Z</time>
      </trkpt>
      <trkpt lat="42.86222" lon="2.43985">
        <ele>476</ele>
        <time>2021-12-05T17:48:58Z</time>
      </trkpt>
      <trkpt lat="42.86201" lon="2.43916">
        <ele>475</ele>
        <time>2021-12-05T17:49:08Z</time>
      </trkpt>
      <trkpt lat="42.86199" lon="2.43898">
        <ele>475</ele>
        <time>2021-12-05T17:49:10Z</time>
      </trkpt>
      <trkpt lat="42.86193" lon="2.43809">
        <ele>475</ele>
        <time>2021-12-05T17:49:22Z</time>
      </trkpt>
      <trkpt lat="42.86192" lon="2.43767">
        <ele>475</ele>
        <time>2021-12-05T17:49:27Z</time>
      </trkpt>
      <trkpt lat="42.86193" lon="2.43745">
        <ele>475</ele>
        <time>2021-12-05T17:49:30Z</time>
      </trkpt>
      <trkpt lat="42.86196" lon="2.43713">
        <ele>476</ele>
        <time>2021-12-05T17:49:34Z</time>
      </trkpt>
      <trkpt lat="42.862" lon="2.43684">
        <ele>478</ele>
        <time>2021-12-05T17:49:38Z</time>
      </trkpt>
      <trkpt lat="42.86201" lon="2.43681">
        <ele>478</ele>
        <time>2021-12-05T17:49:39Z</time>
      </trkpt>
      <trkpt lat="42.86216" lon="2.43605">
        <ele>481</ele>
        <time>2021-12-05T17:49:49Z</time>
      </trkpt>
      <trkpt lat="42.86251" lon="2.43482">
        <ele>482</ele>
        <time>2021-12-05T17:50:06Z</time>
      </trkpt>
      <trkpt lat="42.86255" lon="2.43429">
        <ele>483</ele>
        <time>2021-12-05T17:50:13Z</time>
      </trkpt>
      <trkpt lat="42.86258" lon="2.4331">
        <ele>482</ele>
        <time>2021-12-05T17:50:29Z</time>
      </trkpt>
      <trkpt lat="42.86256" lon="2.43274">
        <ele>482</ele>
        <time>2021-12-05T17:50:33Z</time>
      </trkpt>
      <trkpt lat="42.86255" lon="2.43247">
        <ele>482</ele>
        <time>2021-12-05T17:50:37Z</time>
      </trkpt>
      <trkpt lat="42.86257" lon="2.4319">
        <ele>484</ele>
        <time>2021-12-05T17:50:44Z</time>
      </trkpt>
      <trkpt lat="42.86254" lon="2.43158">
        <ele>484</ele>
        <time>2021-12-05T17:50:48Z</time>
      </trkpt>
      <trkpt lat="42.86254" lon="2.4313">
        <ele>483</ele>
        <time>2021-12-05T17:50:52Z</time>
      </trkpt>
      <trkpt lat="42.86258" lon="2.43058">
        <ele>482</ele>
        <time>2021-12-05T17:51:02Z</time>
      </trkpt>
      <trkpt lat="42.8626" lon="2.42978">
        <ele>482</ele>
        <time>2021-12-05T17:51:12Z</time>
      </trkpt>
      <trkpt lat="42.86266" lon="2.42945">
        <ele>483</ele>
        <time>2021-12-05T17:51:16Z</time>
      </trkpt>
      <trkpt lat="42.86275" lon="2.42914">
        <ele>484</ele>
        <time>2021-12-05T17:51:21Z</time>
      </trkpt>
      <trkpt lat="42.86288" lon="2.42894">
        <ele>486</ele>
        <time>2021-12-05T17:51:24Z</time>
      </trkpt>
      <trkpt lat="42.86312" lon="2.42872">
        <ele>488</ele>
        <time>2021-12-05T17:51:29Z</time>
      </trkpt>
      <trkpt lat="42.86322" lon="2.42865">
        <ele>488</ele>
        <time>2021-12-05T17:51:31Z</time>
      </trkpt>
      <trkpt lat="42.86361" lon="2.42846">
        <ele>490</ele>
        <time>2021-12-05T17:51:39Z</time>
      </trkpt>
      <trkpt lat="42.86367" lon="2.42841">
        <ele>490</ele>
        <time>2021-12-05T17:51:40Z</time>
      </trkpt>
      <trkpt lat="42.86372" lon="2.42835">
        <ele>490</ele>
        <time>2021-12-05T17:51:41Z</time>
      </trkpt>
      <trkpt lat="42.86377" lon="2.42827">
        <ele>491</ele>
        <time>2021-12-05T17:51:43Z</time>
      </trkpt>
      <trkpt lat="42.86381" lon="2.4281">
        <ele>492</ele>
        <time>2021-12-05T17:51:45Z</time>
      </trkpt>
      <trkpt lat="42.86381" lon="2.42802">
        <ele>493</ele>
        <time>2021-12-05T17:51:46Z</time>
      </trkpt>
      <trkpt lat="42.86379" lon="2.42794">
        <ele>493</ele>
        <time>2021-12-05T17:51:47Z</time>
      </trkpt>
      <trkpt lat="42.86375" lon="2.42788">
        <ele>493</ele>
        <time>2021-12-05T17:51:48Z</time>
      </trkpt>
      <trkpt lat="42.86361" lon="2.42782">
        <ele>493</ele>
        <time>2021-12-05T17:51:51Z</time>
      </trkpt>
      <trkpt lat="42.86335" lon="2.42779">
        <ele>492</ele>
        <time>2021-12-05T17:51:55Z</time>
      </trkpt>
      <trkpt lat="42.86325" lon="2.42768">
        <ele>492</ele>
        <time>2021-12-05T17:51:58Z</time>
      </trkpt>
      <trkpt lat="42.86322" lon="2.4276">
        <ele>492</ele>
        <time>2021-12-05T17:51:59Z</time>
      </trkpt>
      <trkpt lat="42.8632" lon="2.42749">
        <ele>493</ele>
        <time>2021-12-05T17:52:00Z</time>
      </trkpt>
      <trkpt lat="42.8632" lon="2.42718">
        <ele>493</ele>
        <time>2021-12-05T17:52:04Z</time>
      </trkpt>
      <trkpt lat="42.86323" lon="2.427">
        <ele>494</ele>
        <time>2021-12-05T17:52:07Z</time>
      </trkpt>
      <trkpt lat="42.86326" lon="2.42683">
        <ele>494</ele>
        <time>2021-12-05T17:52:09Z</time>
      </trkpt>
      <trkpt lat="42.86339" lon="2.42657">
        <ele>495</ele>
        <time>2021-12-05T17:52:13Z</time>
      </trkpt>
      <trkpt lat="42.86355" lon="2.4264">
        <ele>497</ele>
        <time>2021-12-05T17:52:17Z</time>
      </trkpt>
      <trkpt lat="42.86399" lon="2.42586">
        <ele>499</ele>
        <time>2021-12-05T17:52:27Z</time>
      </trkpt>
      <trkpt lat="42.86428" lon="2.42539">
        <ele>502</ele>
        <time>2021-12-05T17:52:35Z</time>
      </trkpt>
      <trkpt lat="42.8646" lon="2.42497">
        <ele>506</ele>
        <time>2021-12-05T17:52:43Z</time>
      </trkpt>
      <trkpt lat="42.86469" lon="2.42457">
        <ele>507</ele>
        <time>2021-12-05T17:52:49Z</time>
      </trkpt>
      <trkpt lat="42.86481" lon="2.42428">
        <ele>509</ele>
        <time>2021-12-05T17:52:53Z</time>
      </trkpt>
      <trkpt lat="42.86542" lon="2.42353">
        <ele>515</ele>
        <time>2021-12-05T17:53:08Z</time>
      </trkpt>
      <trkpt lat="42.86604" lon="2.42279">
        <ele>519</ele>
        <time>2021-12-05T17:53:22Z</time>
      </trkpt>
      <trkpt lat="42.86618" lon="2.42263">
        <ele>520</ele>
        <time>2021-12-05T17:53:25Z</time>
      </trkpt>
      <trkpt lat="42.86679" lon="2.42208">
        <ele>524</ele>
        <time>2021-12-05T17:53:39Z</time>
      </trkpt>
      <trkpt lat="42.86689" lon="2.42194">
        <ele>525</ele>
        <time>2021-12-05T17:53:41Z</time>
      </trkpt>
      <trkpt lat="42.86691" lon="2.42192">
        <ele>525</ele>
        <time>2021-12-05T17:53:41Z</time>
      </trkpt>
      <trkpt lat="42.86709" lon="2.42156">
        <ele>525</ele>
        <time>2021-12-05T17:53:47Z</time>
      </trkpt>
      <trkpt lat="42.86716" lon="2.42145">
        <ele>526</ele>
        <time>2021-12-05T17:53:49Z</time>
      </trkpt>
      <trkpt lat="42.86723" lon="2.42135">
        <ele>526</ele>
        <time>2021-12-05T17:53:51Z</time>
      </trkpt>
      <trkpt lat="42.86787" lon="2.4207">
        <ele>532</ele>
        <time>2021-12-05T17:54:05Z</time>
      </trkpt>
      <trkpt lat="42.86798" lon="2.42043">
        <ele>533</ele>
        <time>2021-12-05T17:54:09Z</time>
      </trkpt>
      <trkpt lat="42.86821" lon="2.41962">
        <ele>537</ele>
        <time>2021-12-05T17:54:20Z</time>
      </trkpt>
      <trkpt lat="42.86836" lon="2.41929">
        <ele>540</ele>
        <time>2021-12-05T17:54:25Z</time>
      </trkpt>
      <trkpt lat="42.86845" lon="2.41899">
        <ele>541</ele>
        <time>2021-12-05T17:54:30Z</time>
      </trkpt>
      <trkpt lat="42.86852" lon="2.41863">
        <ele>541</ele>
        <time>2021-12-05T17:54:35Z</time>
      </trkpt>
      <trkpt lat="42.86855" lon="2.41838">
        <ele>541</ele>
        <time>2021-12-05T17:54:38Z</time>
      </trkpt>
      <trkpt lat="42.86872" lon="2.41814">
        <ele>544</ele>
        <time>2021-12-05T17:54:42Z</time>
      </trkpt>
      <trkpt lat="42.86884" lon="2.41803">
        <ele>547</ele>
        <time>2021-12-05T17:54:45Z</time>
      </trkpt>
      <trkpt lat="42.86887" lon="2.41783">
        <ele>549</ele>
        <time>2021-12-05T17:54:47Z</time>
      </trkpt>
      <trkpt lat="42.86887" lon="2.41765">
        <ele>549</ele>
        <time>2021-12-05T17:54:50Z</time>
      </trkpt>
      <trkpt lat="42.86892" lon="2.41728">
        <ele>550</ele>
        <time>2021-12-05T17:54:55Z</time>
      </trkpt>
      <trkpt lat="42.86904" lon="2.41673">
        <ele>550</ele>
        <time>2021-12-05T17:55:02Z</time>
      </trkpt>
      <trkpt lat="42.86916" lon="2.41656">
        <ele>552</ele>
        <time>2021-12-05T17:55:05Z</time>
      </trkpt>
      <trkpt lat="42.86942" lon="2.41632">
        <ele>556</ele>
        <time>2021-12-05T17:55:11Z</time>
      </trkpt>
      <trkpt lat="42.87013" lon="2.41567">
        <ele>566</ele>
        <time>2021-12-05T17:55:26Z</time>
      </trkpt>
      <trkpt lat="42.87039" lon="2.41531">
        <ele>570</ele>
        <time>2021-12-05T17:55:33Z</time>
      </trkpt>
      <trkpt lat="42.87059" lon="2.41488">
        <ele>571</ele>
        <time>2021-12-05T17:55:39Z</time>
      </trkpt>
      <trkpt lat="42.87063" lon="2.41474">
        <ele>571</ele>
        <time>2021-12-05T17:55:41Z</time>
      </trkpt>
      <trkpt lat="42.87078" lon="2.41455">
        <ele>573</ele>
        <time>2021-12-05T17:55:45Z</time>
      </trkpt>
      <trkpt lat="42.87107" lon="2.41444">
        <ele>578</ele>
        <time>2021-12-05T17:55:50Z</time>
      </trkpt>
      <trkpt lat="42.87124" lon="2.4144">
        <ele>582</ele>
        <time>2021-12-05T17:55:53Z</time>
      </trkpt>
      <trkpt lat="42.87135" lon="2.41432">
        <ele>584</ele>
        <time>2021-12-05T17:55:56Z</time>
      </trkpt>
      <trkpt lat="42.87137" lon="2.41411">
        <ele>583</ele>
        <time>2021-12-05T17:55:58Z</time>
      </trkpt>
      <trkpt lat="42.87129" lon="2.41384">
        <ele>582</ele>
        <time>2021-12-05T17:56:02Z</time>
      </trkpt>
      <trkpt lat="42.87133" lon="2.4136">
        <ele>584</ele>
        <time>2021-12-05T17:56:05Z</time>
      </trkpt>
      <trkpt lat="42.87165" lon="2.41296">
        <ele>592</ele>
        <time>2021-12-05T17:56:15Z</time>
      </trkpt>
      <trkpt lat="42.87178" lon="2.41244">
        <ele>595</ele>
        <time>2021-12-05T17:56:23Z</time>
      </trkpt>
      <trkpt lat="42.87179" lon="2.41168">
        <ele>595</ele>
        <time>2021-12-05T17:56:33Z</time>
      </trkpt>
      <trkpt lat="42.87176" lon="2.41124">
        <ele>594</ele>
        <time>2021-12-05T17:56:38Z</time>
      </trkpt>
      <trkpt lat="42.87181" lon="2.41089">
        <ele>596</ele>
        <time>2021-12-05T17:56:43Z</time>
      </trkpt>
      <trkpt lat="42.8719" lon="2.4105">
        <ele>598</ele>
        <time>2021-12-05T17:56:48Z</time>
      </trkpt>
      <trkpt lat="42.87207" lon="2.40993">
        <ele>603</ele>
        <time>2021-12-05T17:56:56Z</time>
      </trkpt>
      <trkpt lat="42.8722" lon="2.40965">
        <ele>605</ele>
        <time>2021-12-05T17:57:01Z</time>
      </trkpt>
      <trkpt lat="42.87252" lon="2.40922">
        <ele>611</ele>
        <time>2021-12-05T17:57:09Z</time>
      </trkpt>
      <trkpt lat="42.87264" lon="2.40887">
        <ele>617</ele>
        <time>2021-12-05T17:57:14Z</time>
      </trkpt>
      <trkpt lat="42.87263" lon="2.40863">
        <ele>619</ele>
        <time>2021-12-05T17:57:17Z</time>
      </trkpt>
      <trkpt lat="42.87255" lon="2.40838">
        <ele>618</ele>
        <time>2021-12-05T17:57:20Z</time>
      </trkpt>
      <trkpt lat="42.87221" lon="2.4077">
        <ele>610</ele>
        <time>2021-12-05T17:57:31Z</time>
      </trkpt>
      <trkpt lat="42.87218" lon="2.40749">
        <ele>610</ele>
        <time>2021-12-05T17:57:34Z</time>
      </trkpt>
      <trkpt lat="42.87217" lon="2.40726">
        <ele>608</ele>
        <time>2021-12-05T17:57:37Z</time>
      </trkpt>
      <trkpt lat="42.87223" lon="2.40705">
        <ele>608</ele>
        <time>2021-12-05T17:57:40Z</time>
      </trkpt>
      <trkpt lat="42.87239" lon="2.40683">
        <ele>609</ele>
        <time>2021-12-05T17:57:44Z</time>
      </trkpt>
      <trkpt lat="42.87291" lon="2.40648">
        <ele>621</ele>
        <time>2021-12-05T17:57:54Z</time>
      </trkpt>
      <trkpt lat="42.87301" lon="2.40638">
        <ele>622</ele>
        <time>2021-12-05T17:57:56Z</time>
      </trkpt>
      <trkpt lat="42.87325" lon="2.40596">
        <ele>621</ele>
        <time>2021-12-05T17:58:03Z</time>
      </trkpt>
      <trkpt lat="42.87358" lon="2.40522">
        <ele>619</ele>
        <time>2021-12-05T17:58:15Z</time>
      </trkpt>
      <trkpt lat="42.87387" lon="2.40503">
        <ele>628</ele>
        <time>2021-12-05T17:58:20Z</time>
      </trkpt>
      <trkpt lat="42.87395" lon="2.40495">
        <ele>630</ele>
        <time>2021-12-05T17:58:22Z</time>
      </trkpt>
      <trkpt lat="42.87413" lon="2.40456">
        <ele>632</ele>
        <time>2021-12-05T17:58:28Z</time>
      </trkpt>
      <trkpt lat="42.87427" lon="2.40419">
        <ele>633</ele>
        <time>2021-12-05T17:58:34Z</time>
      </trkpt>
      <trkpt lat="42.87425" lon="2.40344">
        <ele>633</ele>
        <time>2021-12-05T17:58:43Z</time>
      </trkpt>
      <trkpt lat="42.87417" lon="2.40277">
        <ele>631</ele>
        <time>2021-12-05T17:58:52Z</time>
      </trkpt>
      <trkpt lat="42.87426" lon="2.40233">
        <ele>638</ele>
        <time>2021-12-05T17:58:58Z</time>
      </trkpt>
      <trkpt lat="42.87427" lon="2.40207">
        <ele>640</ele>
        <time>2021-12-05T17:59:02Z</time>
      </trkpt>
      <trkpt lat="42.87411" lon="2.40156">
        <ele>640</ele>
        <time>2021-12-05T17:59:09Z</time>
      </trkpt>
      <trkpt lat="42.87407" lon="2.40136">
        <ele>642</ele>
        <time>2021-12-05T17:59:11Z</time>
      </trkpt>
      <trkpt lat="42.87405" lon="2.40115">
        <ele>644</ele>
        <time>2021-12-05T17:59:14Z</time>
      </trkpt>
      <trkpt lat="42.87408" lon="2.4009">
        <ele>646</ele>
        <time>2021-12-05T17:59:18Z</time>
      </trkpt>
      <trkpt lat="42.87419" lon="2.40049">
        <ele>649</ele>
        <time>2021-12-05T17:59:23Z</time>
      </trkpt>
      <trkpt lat="42.87434" lon="2.40015">
        <ele>655</ele>
        <time>2021-12-05T17:59:28Z</time>
      </trkpt>
      <trkpt lat="42.87453" lon="2.3998">
        <ele>660</ele>
        <time>2021-12-05T17:59:34Z</time>
      </trkpt>
      <trkpt lat="42.87507" lon="2.39906">
        <ele>656</ele>
        <time>2021-12-05T17:59:48Z</time>
      </trkpt>
      <trkpt lat="42.87522" lon="2.39893">
        <ele>659</ele>
        <time>2021-12-05T17:59:51Z</time>
      </trkpt>
      <trkpt lat="42.87559" lon="2.39867">
        <ele>660</ele>
        <time>2021-12-05T17:59:58Z</time>
      </trkpt>
      <trkpt lat="42.8757" lon="2.39856">
        <ele>658</ele>
        <time>2021-12-05T18:00:01Z</time>
      </trkpt>
      <trkpt lat="42.87591" lon="2.39828">
        <ele>654</ele>
        <time>2021-12-05T18:00:06Z</time>
      </trkpt>
      <trkpt lat="42.87612" lon="2.3981">
        <ele>659</ele>
        <time>2021-12-05T18:00:10Z</time>
      </trkpt>
      <trkpt lat="42.87643" lon="2.3979">
        <ele>659</ele>
        <time>2021-12-05T18:00:16Z</time>
      </trkpt>
      <trkpt lat="42.87681" lon="2.39775">
        <ele>656</ele>
        <time>2021-12-05T18:00:23Z</time>
      </trkpt>
      <trkpt lat="42.87692" lon="2.39772">
        <ele>656</ele>
        <time>2021-12-05T18:00:25Z</time>
      </trkpt>
      <trkpt lat="42.87699" lon="2.3977">
        <ele>656</ele>
        <time>2021-12-05T18:00:27Z</time>
      </trkpt>
      <trkpt lat="42.87709" lon="2.39771">
        <ele>657</ele>
        <time>2021-12-05T18:00:29Z</time>
      </trkpt>
      <trkpt lat="42.87719" lon="2.39773">
        <ele>657</ele>
        <time>2021-12-05T18:00:30Z</time>
      </trkpt>
      <trkpt lat="42.87734" lon="2.3978">
        <ele>659</ele>
        <time>2021-12-05T18:00:33Z</time>
      </trkpt>
      <trkpt lat="42.87756" lon="2.39797">
        <ele>662</ele>
        <time>2021-12-05T18:00:38Z</time>
      </trkpt>
      <trkpt lat="42.87784" lon="2.39806">
        <ele>662</ele>
        <time>2021-12-05T18:00:43Z</time>
      </trkpt>
      <trkpt lat="42.878" lon="2.39806">
        <ele>662</ele>
        <time>2021-12-05T18:00:46Z</time>
      </trkpt>
      <trkpt lat="42.87822" lon="2.39801">
        <ele>661</ele>
        <time>2021-12-05T18:00:50Z</time>
      </trkpt>
      <trkpt lat="42.8783" lon="2.39796">
        <ele>660</ele>
        <time>2021-12-05T18:00:51Z</time>
      </trkpt>
      <trkpt lat="42.87835" lon="2.3979">
        <ele>660</ele>
        <time>2021-12-05T18:00:52Z</time>
      </trkpt>
      <trkpt lat="42.8784" lon="2.39782">
        <ele>660</ele>
        <time>2021-12-05T18:00:54Z</time>
      </trkpt>
      <trkpt lat="42.87844" lon="2.39771">
        <ele>660</ele>
        <time>2021-12-05T18:00:55Z</time>
      </trkpt>
      <trkpt lat="42.87847" lon="2.39759">
        <ele>660</ele>
        <time>2021-12-05T18:00:57Z</time>
      </trkpt>
      <trkpt lat="42.87849" lon="2.39732">
        <ele>659</ele>
        <time>2021-12-05T18:01:00Z</time>
      </trkpt>
      <trkpt lat="42.87846" lon="2.39708">
        <ele>658</ele>
        <time>2021-12-05T18:01:04Z</time>
      </trkpt>
      <trkpt lat="42.8783" lon="2.39668">
        <ele>654</ele>
        <time>2021-12-05T18:01:10Z</time>
      </trkpt>
      <trkpt lat="42.87829" lon="2.39649">
        <ele>654</ele>
        <time>2021-12-05T18:01:12Z</time>
      </trkpt>
      <trkpt lat="42.87831" lon="2.39639">
        <ele>654</ele>
        <time>2021-12-05T18:01:13Z</time>
      </trkpt>
      <trkpt lat="42.8784" lon="2.39616">
        <ele>655</ele>
        <time>2021-12-05T18:01:17Z</time>
      </trkpt>
      <trkpt lat="42.87843" lon="2.39599">
        <ele>655</ele>
        <time>2021-12-05T18:01:19Z</time>
      </trkpt>
      <trkpt lat="42.87843" lon="2.39586">
        <ele>655</ele>
        <time>2021-12-05T18:01:21Z</time>
      </trkpt>
      <trkpt lat="42.87839" lon="2.39545">
        <ele>655</ele>
        <time>2021-12-05T18:01:26Z</time>
      </trkpt>
      <trkpt lat="42.8784" lon="2.3952">
        <ele>655</ele>
        <time>2021-12-05T18:01:29Z</time>
      </trkpt>
      <trkpt lat="42.8785" lon="2.39466">
        <ele>657</ele>
        <time>2021-12-05T18:01:37Z</time>
      </trkpt>
      <trkpt lat="42.87849" lon="2.39441">
        <ele>658</ele>
        <time>2021-12-05T18:01:40Z</time>
      </trkpt>
      <trkpt lat="42.87848" lon="2.39429">
        <ele>658</ele>
        <time>2021-12-05T18:01:42Z</time>
      </trkpt>
      <trkpt lat="42.8783" lon="2.39322">
        <ele>658</ele>
        <time>2021-12-05T18:01:56Z</time>
      </trkpt>
      <trkpt lat="42.87826" lon="2.39298">
        <ele>659</ele>
        <time>2021-12-05T18:01:59Z</time>
      </trkpt>
      <trkpt lat="42.87824" lon="2.39268">
        <ele>660</ele>
        <time>2021-12-05T18:02:03Z</time>
      </trkpt>
      <trkpt lat="42.87823" lon="2.39234">
        <ele>661</ele>
        <time>2021-12-05T18:02:07Z</time>
      </trkpt>
      <trkpt lat="42.87821" lon="2.39092">
        <ele>665</ele>
        <time>2021-12-05T18:02:26Z</time>
      </trkpt>
      <trkpt lat="42.87821" lon="2.39045">
        <ele>663</ele>
        <time>2021-12-05T18:02:32Z</time>
      </trkpt>
      <trkpt lat="42.87821" lon="2.39032">
        <ele>663</ele>
        <time>2021-12-05T18:02:34Z</time>
      </trkpt>
      <trkpt lat="42.87823" lon="2.3902">
        <ele>663</ele>
        <time>2021-12-05T18:02:35Z</time>
      </trkpt>
      <trkpt lat="42.87827" lon="2.39007">
        <ele>663</ele>
        <time>2021-12-05T18:02:37Z</time>
      </trkpt>
      <trkpt lat="42.8784" lon="2.38987">
        <ele>663</ele>
        <time>2021-12-05T18:02:41Z</time>
      </trkpt>
      <trkpt lat="42.87856" lon="2.38975">
        <ele>664</ele>
        <time>2021-12-05T18:02:44Z</time>
      </trkpt>
      <trkpt lat="42.87882" lon="2.38965">
        <ele>667</ele>
        <time>2021-12-05T18:02:49Z</time>
      </trkpt>
      <trkpt lat="42.87894" lon="2.38956">
        <ele>668</ele>
        <time>2021-12-05T18:02:51Z</time>
      </trkpt>
      <trkpt lat="42.87906" lon="2.38937">
        <ele>670</ele>
        <time>2021-12-05T18:02:54Z</time>
      </trkpt>
      <trkpt lat="42.87909" lon="2.38926">
        <ele>671</ele>
        <time>2021-12-05T18:02:56Z</time>
      </trkpt>
      <trkpt lat="42.8791" lon="2.38922">
        <ele>671</ele>
        <time>2021-12-05T18:02:57Z</time>
      </trkpt>
      <trkpt lat="42.87912" lon="2.38911">
        <ele>671</ele>
        <time>2021-12-05T18:02:58Z</time>
      </trkpt>
      <trkpt lat="42.87912" lon="2.38897">
        <ele>671</ele>
        <time>2021-12-05T18:03:00Z</time>
      </trkpt>
      <trkpt lat="42.87908" lon="2.38853">
        <ele>670</ele>
        <time>2021-12-05T18:03:06Z</time>
      </trkpt>
      <trkpt lat="42.87895" lon="2.38776">
        <ele>669</ele>
        <time>2021-12-05T18:03:16Z</time>
      </trkpt>
      <trkpt lat="42.87896" lon="2.38737">
        <ele>670</ele>
        <time>2021-12-05T18:03:21Z</time>
      </trkpt>
      <trkpt lat="42.87906" lon="2.38687">
        <ele>671</ele>
        <time>2021-12-05T18:03:28Z</time>
      </trkpt>
      <trkpt lat="42.87908" lon="2.38662">
        <ele>672</ele>
        <time>2021-12-05T18:03:31Z</time>
      </trkpt>
      <trkpt lat="42.879" lon="2.38618">
        <ele>673</ele>
        <time>2021-12-05T18:03:37Z</time>
      </trkpt>
      <trkpt lat="42.87882" lon="2.38534">
        <ele>673</ele>
        <time>2021-12-05T18:03:48Z</time>
      </trkpt>
      <trkpt lat="42.87875" lon="2.38506">
        <ele>673</ele>
        <time>2021-12-05T18:03:52Z</time>
      </trkpt>
      <trkpt lat="42.87871" lon="2.38486">
        <ele>672</ele>
        <time>2021-12-05T18:03:55Z</time>
      </trkpt>
      <trkpt lat="42.87868" lon="2.38468">
        <ele>670</ele>
        <time>2021-12-05T18:03:57Z</time>
      </trkpt>
      <trkpt lat="42.87867" lon="2.3846">
        <ele>669</ele>
        <time>2021-12-05T18:03:58Z</time>
      </trkpt>
      <trkpt lat="42.87868" lon="2.38451">
        <ele>668</ele>
        <time>2021-12-05T18:04:00Z</time>
      </trkpt>
      <trkpt lat="42.87874" lon="2.38439">
        <ele>667</ele>
        <time>2021-12-05T18:04:01Z</time>
      </trkpt>
      <trkpt lat="42.87888" lon="2.3843">
        <ele>666</ele>
        <time>2021-12-05T18:04:04Z</time>
      </trkpt>
      <trkpt lat="42.87909" lon="2.38428">
        <ele>665</ele>
        <time>2021-12-05T18:04:08Z</time>
      </trkpt>
      <trkpt lat="42.87918" lon="2.38422">
        <ele>665</ele>
        <time>2021-12-05T18:04:10Z</time>
      </trkpt>
      <trkpt lat="42.87924" lon="2.38408">
        <ele>664</ele>
        <time>2021-12-05T18:04:12Z</time>
      </trkpt>
      <trkpt lat="42.87922" lon="2.38386">
        <ele>664</ele>
        <time>2021-12-05T18:04:15Z</time>
      </trkpt>
      <trkpt lat="42.87915" lon="2.38357">
        <ele>662</ele>
        <time>2021-12-05T18:04:19Z</time>
      </trkpt>
      <trkpt lat="42.87899" lon="2.38287">
        <ele>660</ele>
        <time>2021-12-05T18:04:28Z</time>
      </trkpt>
      <trkpt lat="42.87891" lon="2.38251">
        <ele>659</ele>
        <time>2021-12-05T18:04:33Z</time>
      </trkpt>
      <trkpt lat="42.87871" lon="2.3814">
        <ele>654</ele>
        <time>2021-12-05T18:04:48Z</time>
      </trkpt>
      <trkpt lat="42.87871" lon="2.38121">
        <ele>653</ele>
        <time>2021-12-05T18:04:51Z</time>
      </trkpt>
      <trkpt lat="42.87875" lon="2.38113">
        <ele>653</ele>
        <time>2021-12-05T18:04:52Z</time>
      </trkpt>
      <trkpt lat="42.87884" lon="2.38107">
        <ele>654</ele>
        <time>2021-12-05T18:04:54Z</time>
      </trkpt>
      <trkpt lat="42.87907" lon="2.38101">
        <ele>655</ele>
        <time>2021-12-05T18:04:58Z</time>
      </trkpt>
      <trkpt lat="42.87911" lon="2.38094">
        <ele>655</ele>
        <time>2021-12-05T18:04:59Z</time>
      </trkpt>
      <trkpt lat="42.87915" lon="2.38062">
        <ele>653</ele>
        <time>2021-12-05T18:05:03Z</time>
      </trkpt>
      <trkpt lat="42.87919" lon="2.38048">
        <ele>652</ele>
        <time>2021-12-05T18:05:05Z</time>
      </trkpt>
      <trkpt lat="42.87938" lon="2.38024">
        <ele>653</ele>
        <time>2021-12-05T18:05:10Z</time>
      </trkpt>
      <trkpt lat="42.87942" lon="2.38014">
        <ele>653</ele>
        <time>2021-12-05T18:05:11Z</time>
      </trkpt>
      <trkpt lat="42.87941" lon="2.37996">
        <ele>652</ele>
        <time>2021-12-05T18:05:14Z</time>
      </trkpt>
      <trkpt lat="42.87934" lon="2.37952">
        <ele>648</ele>
        <time>2021-12-05T18:05:19Z</time>
      </trkpt>
      <trkpt lat="42.87924" lon="2.37903">
        <ele>644</ele>
        <time>2021-12-05T18:05:26Z</time>
      </trkpt>
      <trkpt lat="42.87918" lon="2.37878">
        <ele>642</ele>
        <time>2021-12-05T18:05:30Z</time>
      </trkpt>
      <trkpt lat="42.87905" lon="2.37842">
        <ele>641</ele>
        <time>2021-12-05T18:05:35Z</time>
      </trkpt>
      <trkpt lat="42.87894" lon="2.37804">
        <ele>642</ele>
        <time>2021-12-05T18:05:40Z</time>
      </trkpt>
      <trkpt lat="42.87889" lon="2.37781">
        <ele>642</ele>
        <time>2021-12-05T18:05:43Z</time>
      </trkpt>
      <trkpt lat="42.87879" lon="2.37702">
        <ele>641</ele>
        <time>2021-12-05T18:05:54Z</time>
      </trkpt>
      <trkpt lat="42.87871" lon="2.37638">
        <ele>639</ele>
        <time>2021-12-05T18:06:02Z</time>
      </trkpt>
      <trkpt lat="42.8786" lon="2.37578">
        <ele>637</ele>
        <time>2021-12-05T18:06:10Z</time>
      </trkpt>
      <trkpt lat="42.87855" lon="2.37544">
        <ele>636</ele>
        <time>2021-12-05T18:06:15Z</time>
      </trkpt>
      <trkpt lat="42.87854" lon="2.37516">
        <ele>635</ele>
        <time>2021-12-05T18:06:18Z</time>
      </trkpt>
      <trkpt lat="42.87857" lon="2.37497">
        <ele>635</ele>
        <time>2021-12-05T18:06:21Z</time>
      </trkpt>
      <trkpt lat="42.87872" lon="2.37472">
        <ele>635</ele>
        <time>2021-12-05T18:06:25Z</time>
      </trkpt>
      <trkpt lat="42.87877" lon="2.3746">
        <ele>635</ele>
        <time>2021-12-05T18:06:27Z</time>
      </trkpt>
      <trkpt lat="42.87878" lon="2.37444">
        <ele>635</ele>
        <time>2021-12-05T18:06:29Z</time>
      </trkpt>
      <trkpt lat="42.87865" lon="2.37354">
        <ele>634</ele>
        <time>2021-12-05T18:06:41Z</time>
      </trkpt>
      <trkpt lat="42.87868" lon="2.37282">
        <ele>630</ele>
        <time>2021-12-05T18:06:50Z</time>
      </trkpt>
      <trkpt lat="42.87868" lon="2.3725">
        <ele>628</ele>
        <time>2021-12-05T18:06:55Z</time>
      </trkpt>
      <trkpt lat="42.87865" lon="2.37167">
        <ele>624</ele>
        <time>2021-12-05T18:07:05Z</time>
      </trkpt>
      <trkpt lat="42.87861" lon="2.37142">
        <ele>622</ele>
        <time>2021-12-05T18:07:09Z</time>
      </trkpt>
      <trkpt lat="42.87856" lon="2.37133">
        <ele>621</ele>
        <time>2021-12-05T18:07:10Z</time>
      </trkpt>
      <trkpt lat="42.87851" lon="2.37123">
        <ele>620</ele>
        <time>2021-12-05T18:07:12Z</time>
      </trkpt>
      <trkpt lat="42.87842" lon="2.37106">
        <ele>619</ele>
        <time>2021-12-05T18:07:15Z</time>
      </trkpt>
      <trkpt lat="42.87841" lon="2.37091">
        <ele>618</ele>
        <time>2021-12-05T18:07:16Z</time>
      </trkpt>
      <trkpt lat="42.87844" lon="2.37077">
        <ele>617</ele>
        <time>2021-12-05T18:07:18Z</time>
      </trkpt>
      <trkpt lat="42.87854" lon="2.37061">
        <ele>617</ele>
        <time>2021-12-05T18:07:21Z</time>
      </trkpt>
      <trkpt lat="42.87864" lon="2.37044">
        <ele>616</ele>
        <time>2021-12-05T18:07:24Z</time>
      </trkpt>
      <trkpt lat="42.8787" lon="2.3702">
        <ele>615</ele>
        <time>2021-12-05T18:07:27Z</time>
      </trkpt>
      <trkpt lat="42.87872" lon="2.36982">
        <ele>613</ele>
        <time>2021-12-05T18:07:32Z</time>
      </trkpt>
      <trkpt lat="42.87884" lon="2.36891">
        <ele>604</ele>
        <time>2021-12-05T18:07:44Z</time>
      </trkpt>
      <trkpt lat="42.87895" lon="2.36844">
        <ele>598</ele>
        <time>2021-12-05T18:07:51Z</time>
      </trkpt>
      <trkpt lat="42.87893" lon="2.36833">
        <ele>597</ele>
        <time>2021-12-05T18:07:52Z</time>
      </trkpt>
      <trkpt lat="42.87888" lon="2.36823">
        <ele>596</ele>
        <time>2021-12-05T18:07:54Z</time>
      </trkpt>
      <trkpt lat="42.87876" lon="2.36815">
        <ele>595</ele>
        <time>2021-12-05T18:07:56Z</time>
      </trkpt>
      <trkpt lat="42.8785" lon="2.36805">
        <ele>593</ele>
        <time>2021-12-05T18:08:01Z</time>
      </trkpt>
      <trkpt lat="42.8784" lon="2.36804">
        <ele>593</ele>
        <time>2021-12-05T18:08:03Z</time>
      </trkpt>
      <trkpt lat="42.87829" lon="2.36812">
        <ele>595</ele>
        <time>2021-12-05T18:08:05Z</time>
      </trkpt>
      <trkpt lat="42.87814" lon="2.36834">
        <ele>600</ele>
        <time>2021-12-05T18:08:09Z</time>
      </trkpt>
      <trkpt lat="42.87807" lon="2.36835">
        <ele>601</ele>
        <time>2021-12-05T18:08:10Z</time>
      </trkpt>
      <trkpt lat="42.878" lon="2.3683">
        <ele>602</ele>
        <time>2021-12-05T18:08:12Z</time>
      </trkpt>
      <trkpt lat="42.87795" lon="2.36816">
        <ele>600</ele>
        <time>2021-12-05T18:08:14Z</time>
      </trkpt>
      <trkpt lat="42.87792" lon="2.36795">
        <ele>598</ele>
        <time>2021-12-05T18:08:16Z</time>
      </trkpt>
      <trkpt lat="42.87795" lon="2.36733">
        <ele>591</ele>
        <time>2021-12-05T18:08:24Z</time>
      </trkpt>
      <trkpt lat="42.87786" lon="2.36667">
        <ele>588</ele>
        <time>2021-12-05T18:08:33Z</time>
      </trkpt>
      <trkpt lat="42.87776" lon="2.3662">
        <ele>584</ele>
        <time>2021-12-05T18:08:40Z</time>
      </trkpt>
      <trkpt lat="42.87745" lon="2.36511">
        <ele>573</ele>
        <time>2021-12-05T18:08:55Z</time>
      </trkpt>
      <trkpt lat="42.87733" lon="2.36496">
        <ele>573</ele>
        <time>2021-12-05T18:08:58Z</time>
      </trkpt>
      <trkpt lat="42.87717" lon="2.36484">
        <ele>574</ele>
        <time>2021-12-05T18:09:01Z</time>
      </trkpt>
      <trkpt lat="42.87703" lon="2.36483">
        <ele>576</ele>
        <time>2021-12-05T18:09:03Z</time>
      </trkpt>
      <trkpt lat="42.87676" lon="2.3649">
        <ele>579</ele>
        <time>2021-12-05T18:09:08Z</time>
      </trkpt>
      <trkpt lat="42.87668" lon="2.36487">
        <ele>580</ele>
        <time>2021-12-05T18:09:10Z</time>
      </trkpt>
      <trkpt lat="42.87664" lon="2.36475">
        <ele>580</ele>
        <time>2021-12-05T18:09:12Z</time>
      </trkpt>
      <trkpt lat="42.87665" lon="2.36465">
        <ele>580</ele>
        <time>2021-12-05T18:09:13Z</time>
      </trkpt>
      <trkpt lat="42.87671" lon="2.36455">
        <ele>579</ele>
        <time>2021-12-05T18:09:15Z</time>
      </trkpt>
      <trkpt lat="42.87708" lon="2.36443">
        <ele>573</ele>
        <time>2021-12-05T18:09:21Z</time>
      </trkpt>
      <trkpt lat="42.87724" lon="2.36436">
        <ele>571</ele>
        <time>2021-12-05T18:09:24Z</time>
      </trkpt>
      <trkpt lat="42.87736" lon="2.36426">
        <ele>569</ele>
        <time>2021-12-05T18:09:27Z</time>
      </trkpt>
      <trkpt lat="42.8775" lon="2.36408">
        <ele>566</ele>
        <time>2021-12-05T18:09:30Z</time>
      </trkpt>
      <trkpt lat="42.87758" lon="2.36393">
        <ele>564</ele>
        <time>2021-12-05T18:09:33Z</time>
      </trkpt>
      <trkpt lat="42.87763" lon="2.36375">
        <ele>563</ele>
        <time>2021-12-05T18:09:35Z</time>
      </trkpt>
      <trkpt lat="42.87769" lon="2.36326">
        <ele>560</ele>
        <time>2021-12-05T18:09:42Z</time>
      </trkpt>
      <trkpt lat="42.87771" lon="2.3627">
        <ele>557</ele>
        <time>2021-12-05T18:09:49Z</time>
      </trkpt>
      <trkpt lat="42.87767" lon="2.36257">
        <ele>557</ele>
        <time>2021-12-05T18:09:51Z</time>
      </trkpt>
      <trkpt lat="42.87762" lon="2.36251">
        <ele>557</ele>
        <time>2021-12-05T18:09:52Z</time>
      </trkpt>
      <trkpt lat="42.87756" lon="2.36249">
        <ele>558</ele>
        <time>2021-12-05T18:09:53Z</time>
      </trkpt>
      <trkpt lat="42.87748" lon="2.36251">
        <ele>559</ele>
        <time>2021-12-05T18:09:55Z</time>
      </trkpt>
      <trkpt lat="42.87717" lon="2.36266">
        <ele>559</ele>
        <time>2021-12-05T18:10:00Z</time>
      </trkpt>
      <trkpt lat="42.87705" lon="2.36269">
        <ele>559</ele>
        <time>2021-12-05T18:10:03Z</time>
      </trkpt>
      <trkpt lat="42.87697" lon="2.36267">
        <ele>558</ele>
        <time>2021-12-05T18:10:04Z</time>
      </trkpt>
      <trkpt lat="42.87662" lon="2.3624">
        <ele>555</ele>
        <time>2021-12-05T18:10:11Z</time>
      </trkpt>
      <trkpt lat="42.87653" lon="2.3623">
        <ele>555</ele>
        <time>2021-12-05T18:10:13Z</time>
      </trkpt>
      <trkpt lat="42.87651" lon="2.3622">
        <ele>554</ele>
        <time>2021-12-05T18:10:15Z</time>
      </trkpt>
      <trkpt lat="42.87652" lon="2.3621">
        <ele>553</ele>
        <time>2021-12-05T18:10:16Z</time>
      </trkpt>
      <trkpt lat="42.87656" lon="2.36201">
        <ele>552</ele>
        <time>2021-12-05T18:10:17Z</time>
      </trkpt>
      <trkpt lat="42.87667" lon="2.36197">
        <ele>551</ele>
        <time>2021-12-05T18:10:19Z</time>
      </trkpt>
      <trkpt lat="42.87676" lon="2.36198">
        <ele>551</ele>
        <time>2021-12-05T18:10:21Z</time>
      </trkpt>
      <trkpt lat="42.87694" lon="2.36207">
        <ele>552</ele>
        <time>2021-12-05T18:10:24Z</time>
      </trkpt>
      <trkpt lat="42.87702" lon="2.36205">
        <ele>552</ele>
        <time>2021-12-05T18:10:26Z</time>
      </trkpt>
      <trkpt lat="42.8771" lon="2.36195">
        <ele>552</ele>
        <time>2021-12-05T18:10:28Z</time>
      </trkpt>
      <trkpt lat="42.87718" lon="2.36175">
        <ele>550</ele>
        <time>2021-12-05T18:10:31Z</time>
      </trkpt>
      <trkpt lat="42.87743" lon="2.36128">
        <ele>545</ele>
        <time>2021-12-05T18:10:38Z</time>
      </trkpt>
      <trkpt lat="42.87779" lon="2.36077">
        <ele>539</ele>
        <time>2021-12-05T18:10:47Z</time>
      </trkpt>
      <trkpt lat="42.87792" lon="2.36054">
        <ele>536</ele>
        <time>2021-12-05T18:10:51Z</time>
      </trkpt>
      <trkpt lat="42.87799" lon="2.36047">
        <ele>536</ele>
        <time>2021-12-05T18:10:53Z</time>
      </trkpt>
      <trkpt lat="42.87808" lon="2.36043">
        <ele>535</ele>
        <time>2021-12-05T18:10:54Z</time>
      </trkpt>
      <trkpt lat="42.87816" lon="2.36044">
        <ele>535</ele>
        <time>2021-12-05T18:10:56Z</time>
      </trkpt>
      <trkpt lat="42.87827" lon="2.36049">
        <ele>536</ele>
        <time>2021-12-05T18:10:58Z</time>
      </trkpt>
      <trkpt lat="42.87852" lon="2.36068">
        <ele>536</ele>
        <time>2021-12-05T18:11:03Z</time>
      </trkpt>
      <trkpt lat="42.87879" lon="2.36091">
        <ele>534</ele>
        <time>2021-12-05T18:11:09Z</time>
      </trkpt>
      <trkpt lat="42.87886" lon="2.36102">
        <ele>534</ele>
        <time>2021-12-05T18:11:11Z</time>
      </trkpt>
      <trkpt lat="42.87893" lon="2.36108">
        <ele>533</ele>
        <time>2021-12-05T18:11:12Z</time>
      </trkpt>
      <trkpt lat="42.87899" lon="2.36107">
        <ele>532</ele>
        <time>2021-12-05T18:11:13Z</time>
      </trkpt>
      <trkpt lat="42.87907" lon="2.36103">
        <ele>531</ele>
        <time>2021-12-05T18:11:15Z</time>
      </trkpt>
      <trkpt lat="42.87911" lon="2.3609">
        <ele>529</ele>
        <time>2021-12-05T18:11:17Z</time>
      </trkpt>
      <trkpt lat="42.8791" lon="2.36045">
        <ele>526</ele>
        <time>2021-12-05T18:11:22Z</time>
      </trkpt>
      <trkpt lat="42.87917" lon="2.36022">
        <ele>523</ele>
        <time>2021-12-05T18:11:26Z</time>
      </trkpt>
      <trkpt lat="42.87938" lon="2.35985">
        <ele>520</ele>
        <time>2021-12-05T18:11:32Z</time>
      </trkpt>
      <trkpt lat="42.87937" lon="2.35978">
        <ele>520</ele>
        <time>2021-12-05T18:11:33Z</time>
      </trkpt>
      <trkpt lat="42.87934" lon="2.35971">
        <ele>520</ele>
        <time>2021-12-05T18:11:34Z</time>
      </trkpt>
      <trkpt lat="42.87925" lon="2.35968">
        <ele>520</ele>
        <time>2021-12-05T18:11:35Z</time>
      </trkpt>
      <trkpt lat="42.87918" lon="2.35973">
        <ele>521</ele>
        <time>2021-12-05T18:11:37Z</time>
      </trkpt>
      <trkpt lat="42.87893" lon="2.36005">
        <ele>524</ele>
        <time>2021-12-05T18:11:43Z</time>
      </trkpt>
      <trkpt lat="42.87882" lon="2.36007">
        <ele>525</ele>
        <time>2021-12-05T18:11:45Z</time>
      </trkpt>
      <trkpt lat="42.87872" lon="2.35999">
        <ele>525</ele>
        <time>2021-12-05T18:11:47Z</time>
      </trkpt>
      <trkpt lat="42.87864" lon="2.35981">
        <ele>524</ele>
        <time>2021-12-05T18:11:50Z</time>
      </trkpt>
      <trkpt lat="42.8784" lon="2.35898">
        <ele>515</ele>
        <time>2021-12-05T18:12:01Z</time>
      </trkpt>
      <trkpt lat="42.87828" lon="2.35881">
        <ele>513</ele>
        <time>2021-12-05T18:12:04Z</time>
      </trkpt>
      <trkpt lat="42.87822" lon="2.35877">
        <ele>512</ele>
        <time>2021-12-05T18:12:06Z</time>
      </trkpt>
      <trkpt lat="42.8781" lon="2.35876">
        <ele>511</ele>
        <time>2021-12-05T18:12:08Z</time>
      </trkpt>
      <trkpt lat="42.87798" lon="2.35883">
        <ele>511</ele>
        <time>2021-12-05T18:12:10Z</time>
      </trkpt>
      <trkpt lat="42.87774" lon="2.35903">
        <ele>513</ele>
        <time>2021-12-05T18:12:15Z</time>
      </trkpt>
      <trkpt lat="42.87763" lon="2.35904">
        <ele>513</ele>
        <time>2021-12-05T18:12:17Z</time>
      </trkpt>
      <trkpt lat="42.87738" lon="2.35893">
        <ele>511</ele>
        <time>2021-12-05T18:12:22Z</time>
      </trkpt>
      <trkpt lat="42.87728" lon="2.35892">
        <ele>511</ele>
        <time>2021-12-05T18:12:23Z</time>
      </trkpt>
      <trkpt lat="42.87699" lon="2.35899">
        <ele>512</ele>
        <time>2021-12-05T18:12:29Z</time>
      </trkpt>
      <trkpt lat="42.87693" lon="2.35899">
        <ele>512</ele>
        <time>2021-12-05T18:12:30Z</time>
      </trkpt>
      <trkpt lat="42.87688" lon="2.35895">
        <ele>511</ele>
        <time>2021-12-05T18:12:31Z</time>
      </trkpt>
      <trkpt lat="42.87682" lon="2.35888">
        <ele>510</ele>
        <time>2021-12-05T18:12:32Z</time>
      </trkpt>
      <trkpt lat="42.87661" lon="2.35846">
        <ele>505</ele>
        <time>2021-12-05T18:12:39Z</time>
      </trkpt>
      <trkpt lat="42.87643" lon="2.35817">
        <ele>505</ele>
        <time>2021-12-05T18:12:44Z</time>
      </trkpt>
      <trkpt lat="42.87638" lon="2.35792">
        <ele>504</ele>
        <time>2021-12-05T18:12:47Z</time>
      </trkpt>
      <trkpt lat="42.87624" lon="2.35703">
        <ele>499</ele>
        <time>2021-12-05T18:12:59Z</time>
      </trkpt>
      <trkpt lat="42.87623" lon="2.3569">
        <ele>499</ele>
        <time>2021-12-05T18:13:01Z</time>
      </trkpt>
      <trkpt lat="42.87618" lon="2.35658">
        <ele>497</ele>
        <time>2021-12-05T18:13:05Z</time>
      </trkpt>
      <trkpt lat="42.87612" lon="2.35627">
        <ele>495</ele>
        <time>2021-12-05T18:13:09Z</time>
      </trkpt>
      <trkpt lat="42.87605" lon="2.35573">
        <ele>491</ele>
        <time>2021-12-05T18:13:16Z</time>
      </trkpt>
      <trkpt lat="42.87611" lon="2.35519">
        <ele>485</ele>
        <time>2021-12-05T18:13:23Z</time>
      </trkpt>
      <trkpt lat="42.8761" lon="2.35504">
        <ele>484</ele>
        <time>2021-12-05T18:13:25Z</time>
      </trkpt>
      <trkpt lat="42.87608" lon="2.35495">
        <ele>484</ele>
        <time>2021-12-05T18:13:27Z</time>
      </trkpt>
      <trkpt lat="42.87604" lon="2.35487">
        <ele>483</ele>
        <time>2021-12-05T18:13:28Z</time>
      </trkpt>
      <trkpt lat="42.87587" lon="2.35459">
        <ele>483</ele>
        <time>2021-12-05T18:13:33Z</time>
      </trkpt>
      <trkpt lat="42.87571" lon="2.35438">
        <ele>481</ele>
        <time>2021-12-05T18:13:37Z</time>
      </trkpt>
      <trkpt lat="42.87558" lon="2.3543">
        <ele>481</ele>
        <time>2021-12-05T18:13:39Z</time>
      </trkpt>
      <trkpt lat="42.87539" lon="2.35417">
        <ele>481</ele>
        <time>2021-12-05T18:13:43Z</time>
      </trkpt>
      <trkpt lat="42.87523" lon="2.354">
        <ele>481</ele>
        <time>2021-12-05T18:13:47Z</time>
      </trkpt>
      <trkpt lat="42.87512" lon="2.35371">
        <ele>480</ele>
        <time>2021-12-05T18:13:51Z</time>
      </trkpt>
      <trkpt lat="42.87504" lon="2.35351">
        <ele>479</ele>
        <time>2021-12-05T18:13:54Z</time>
      </trkpt>
      <trkpt lat="42.87491" lon="2.35339">
        <ele>478</ele>
        <time>2021-12-05T18:13:57Z</time>
      </trkpt>
      <trkpt lat="42.87476" lon="2.35335">
        <ele>478</ele>
        <time>2021-12-05T18:13:59Z</time>
      </trkpt>
      <trkpt lat="42.87442" lon="2.35337">
        <ele>478</ele>
        <time>2021-12-05T18:14:05Z</time>
      </trkpt>
      <trkpt lat="42.87434" lon="2.35334">
        <ele>477</ele>
        <time>2021-12-05T18:14:07Z</time>
      </trkpt>
      <trkpt lat="42.8743" lon="2.35328">
        <ele>477</ele>
        <time>2021-12-05T18:14:08Z</time>
      </trkpt>
      <trkpt lat="42.87429" lon="2.35323">
        <ele>476</ele>
        <time>2021-12-05T18:14:09Z</time>
      </trkpt>
      <trkpt lat="42.87431" lon="2.35315">
        <ele>475</ele>
        <time>2021-12-05T18:14:10Z</time>
      </trkpt>
      <trkpt lat="42.87458" lon="2.35279">
        <ele>473</ele>
        <time>2021-12-05T18:14:16Z</time>
      </trkpt>
      <trkpt lat="42.87463" lon="2.3527">
        <ele>472</ele>
        <time>2021-12-05T18:14:18Z</time>
      </trkpt>
      <trkpt lat="42.87498" lon="2.35217">
        <ele>470</ele>
        <time>2021-12-05T18:14:27Z</time>
      </trkpt>
      <trkpt lat="42.87533" lon="2.35163">
        <ele>469</ele>
        <time>2021-12-05T18:14:37Z</time>
      </trkpt>
      <trkpt lat="42.87543" lon="2.35148">
        <ele>468</ele>
        <time>2021-12-05T18:14:39Z</time>
      </trkpt>
      <trkpt lat="42.87558" lon="2.35124">
        <ele>467</ele>
        <time>2021-12-05T18:14:43Z</time>
      </trkpt>
      <trkpt lat="42.87568" lon="2.35129">
        <ele>468</ele>
        <time>2021-12-05T18:14:45Z</time>
      </trkpt>
      <trkpt lat="42.87592" lon="2.35153">
        <ele>471</ele>
        <time>2021-12-05T18:14:50Z</time>
      </trkpt>
      <trkpt lat="42.87599" lon="2.35149">
        <ele>470</ele>
        <time>2021-12-05T18:14:52Z</time>
      </trkpt>
      <trkpt lat="42.87621" lon="2.35168">
        <ele>471</ele>
        <time>2021-12-05T18:14:56Z</time>
      </trkpt>
      <trkpt lat="42.87599" lon="2.35149">
        <ele>470</ele>
        <time>2021-12-05T18:15:01Z</time>
      </trkpt>
      <trkpt lat="42.87592" lon="2.35153">
        <ele>471</ele>
        <time>2021-12-05T18:15:02Z</time>
      </trkpt>
      <trkpt lat="42.87568" lon="2.35129">
        <ele>468</ele>
        <time>2021-12-05T18:15:08Z</time>
      </trkpt>
      <trkpt lat="42.87558" lon="2.35124">
        <ele>467</ele>
        <time>2021-12-05T18:15:10Z</time>
      </trkpt>
      <trkpt lat="42.87578" lon="2.35095">
        <ele>466</ele>
        <time>2021-12-05T18:15:15Z</time>
      </trkpt>
      <trkpt lat="42.87601" lon="2.35059">
        <ele>463</ele>
        <time>2021-12-05T18:15:21Z</time>
      </trkpt>
      <trkpt lat="42.87613" lon="2.35043">
        <ele>462</ele>
        <time>2021-12-05T18:15:24Z</time>
      </trkpt>
      <trkpt lat="42.87629" lon="2.35027">
        <ele>461</ele>
        <time>2021-12-05T18:15:28Z</time>
      </trkpt>
      <trkpt lat="42.87644" lon="2.35016">
        <ele>461</ele>
        <time>2021-12-05T18:15:31Z</time>
      </trkpt>
      <trkpt lat="42.87657" lon="2.35006">
        <ele>460</ele>
        <time>2021-12-05T18:15:33Z</time>
      </trkpt>
      <trkpt lat="42.87659" lon="2.35004">
        <ele>460</ele>
        <time>2021-12-05T18:15:34Z</time>
      </trkpt>
      <trkpt lat="42.87662" lon="2.35001">
        <ele>460</ele>
        <time>2021-12-05T18:15:34Z</time>
      </trkpt>
      <trkpt lat="42.8767" lon="2.34996">
        <ele>460</ele>
        <time>2021-12-05T18:15:36Z</time>
      </trkpt>
      <trkpt lat="42.87692" lon="2.3498">
        <ele>459</ele>
        <time>2021-12-05T18:15:40Z</time>
      </trkpt>
      <trkpt lat="42.87724" lon="2.34954">
        <ele>459</ele>
        <time>2021-12-05T18:15:47Z</time>
      </trkpt>
      <trkpt lat="42.87805" lon="2.34894">
        <ele>455</ele>
        <time>2021-12-05T18:16:03Z</time>
      </trkpt>
      <trkpt lat="42.87818" lon="2.34885">
        <ele>455</ele>
        <time>2021-12-05T18:16:06Z</time>
      </trkpt>
      <trkpt lat="42.87823" lon="2.34877">
        <ele>454</ele>
        <time>2021-12-05T18:16:07Z</time>
      </trkpt>
      <trkpt lat="42.87851" lon="2.34813">
        <ele>452</ele>
        <time>2021-12-05T18:16:17Z</time>
      </trkpt>
      <trkpt lat="42.87853" lon="2.34797">
        <ele>452</ele>
        <time>2021-12-05T18:16:19Z</time>
      </trkpt>
      <trkpt lat="42.87852" lon="2.34783">
        <ele>452</ele>
        <time>2021-12-05T18:16:21Z</time>
      </trkpt>
      <trkpt lat="42.87843" lon="2.34764">
        <ele>451</ele>
        <time>2021-12-05T18:16:24Z</time>
      </trkpt>
      <trkpt lat="42.87832" lon="2.3475">
        <ele>451</ele>
        <time>2021-12-05T18:16:27Z</time>
      </trkpt>
      <trkpt lat="42.87823" lon="2.34743">
        <ele>452</ele>
        <time>2021-12-05T18:16:28Z</time>
      </trkpt>
      <trkpt lat="42.87811" lon="2.34732">
        <ele>452</ele>
        <time>2021-12-05T18:16:31Z</time>
      </trkpt>
      <trkpt lat="42.87771" lon="2.34697">
        <ele>454</ele>
        <time>2021-12-05T18:16:40Z</time>
      </trkpt>
      <trkpt lat="42.87757" lon="2.3468">
        <ele>454</ele>
        <time>2021-12-05T18:16:43Z</time>
      </trkpt>
      <trkpt lat="42.87749" lon="2.34667">
        <ele>454</ele>
        <time>2021-12-05T18:16:45Z</time>
      </trkpt>
      <trkpt lat="42.87738" lon="2.3464">
        <ele>454</ele>
        <time>2021-12-05T18:16:49Z</time>
      </trkpt>
      <trkpt lat="42.87732" lon="2.34616">
        <ele>454</ele>
        <time>2021-12-05T18:16:52Z</time>
      </trkpt>
      <trkpt lat="42.8773" lon="2.34602">
        <ele>454</ele>
        <time>2021-12-05T18:16:54Z</time>
      </trkpt>
      <trkpt lat="42.87733" lon="2.3458">
        <ele>454</ele>
        <time>2021-12-05T18:16:57Z</time>
      </trkpt>
      <trkpt lat="42.8774" lon="2.34541">
        <ele>452</ele>
        <time>2021-12-05T18:17:02Z</time>
      </trkpt>
      <trkpt lat="42.87742" lon="2.34515">
        <ele>452</ele>
        <time>2021-12-05T18:17:06Z</time>
      </trkpt>
      <trkpt lat="42.87743" lon="2.3448">
        <ele>451</ele>
        <time>2021-12-05T18:17:10Z</time>
      </trkpt>
      <trkpt lat="42.87741" lon="2.34433">
        <ele>451</ele>
        <time>2021-12-05T18:17:17Z</time>
      </trkpt>
      <trkpt lat="42.87731" lon="2.34367">
        <ele>451</ele>
        <time>2021-12-05T18:17:25Z</time>
      </trkpt>
      <trkpt lat="42.87693" lon="2.34141">
        <ele>461</ele>
        <time>2021-12-05T18:17:56Z</time>
      </trkpt>
      <trkpt lat="42.87691" lon="2.34122">
        <ele>461</ele>
        <time>2021-12-05T18:17:58Z</time>
      </trkpt>
      <trkpt lat="42.87693" lon="2.34111">
        <ele>461</ele>
        <time>2021-12-05T18:18:00Z</time>
      </trkpt>
      <trkpt lat="42.87696" lon="2.34105">
        <ele>461</ele>
        <time>2021-12-05T18:18:00Z</time>
      </trkpt>
      <trkpt lat="42.87701" lon="2.34099">
        <ele>461</ele>
        <time>2021-12-05T18:18:02Z</time>
      </trkpt>
      <trkpt lat="42.8772" lon="2.34084">
        <ele>460</ele>
        <time>2021-12-05T18:18:06Z</time>
      </trkpt>
      <trkpt lat="42.87727" lon="2.34076">
        <ele>460</ele>
        <time>2021-12-05T18:18:07Z</time>
      </trkpt>
      <trkpt lat="42.87732" lon="2.34068">
        <ele>460</ele>
        <time>2021-12-05T18:18:09Z</time>
      </trkpt>
      <trkpt lat="42.87734" lon="2.34056">
        <ele>459</ele>
        <time>2021-12-05T18:18:10Z</time>
      </trkpt>
      <trkpt lat="42.87732" lon="2.34017">
        <ele>459</ele>
        <time>2021-12-05T18:18:15Z</time>
      </trkpt>
      <trkpt lat="42.87724" lon="2.3397">
        <ele>457</ele>
        <time>2021-12-05T18:18:22Z</time>
      </trkpt>
      <trkpt lat="42.877" lon="2.33924">
        <ele>455</ele>
        <time>2021-12-05T18:18:29Z</time>
      </trkpt>
      <trkpt lat="42.87679" lon="2.33895">
        <ele>454</ele>
        <time>2021-12-05T18:18:34Z</time>
      </trkpt>
      <trkpt lat="42.87658" lon="2.33862">
        <ele>452</ele>
        <time>2021-12-05T18:18:40Z</time>
      </trkpt>
      <trkpt lat="42.87651" lon="2.3384">
        <ele>451</ele>
        <time>2021-12-05T18:18:43Z</time>
      </trkpt>
      <trkpt lat="42.8765" lon="2.33822">
        <ele>451</ele>
        <time>2021-12-05T18:18:45Z</time>
      </trkpt>
      <trkpt lat="42.87654" lon="2.33763">
        <ele>450</ele>
        <time>2021-12-05T18:18:53Z</time>
      </trkpt>
      <trkpt lat="42.87676" lon="2.3366">
        <ele>452</ele>
        <time>2021-12-05T18:19:07Z</time>
      </trkpt>
      <trkpt lat="42.87677" lon="2.33644">
        <ele>452</ele>
        <time>2021-12-05T18:19:09Z</time>
      </trkpt>
      <trkpt lat="42.87677" lon="2.33633">
        <ele>452</ele>
        <time>2021-12-05T18:19:11Z</time>
      </trkpt>
      <trkpt lat="42.87673" lon="2.33606">
        <ele>454</ele>
        <time>2021-12-05T18:19:14Z</time>
      </trkpt>
      <trkpt lat="42.8767" lon="2.33591">
        <ele>454</ele>
        <time>2021-12-05T18:19:16Z</time>
      </trkpt>
      <trkpt lat="42.87668" lon="2.33574">
        <ele>456</ele>
        <time>2021-12-05T18:19:19Z</time>
      </trkpt>
      <trkpt lat="42.87668" lon="2.33563">
        <ele>457</ele>
        <time>2021-12-05T18:19:20Z</time>
      </trkpt>
      <trkpt lat="42.87671" lon="2.33553">
        <ele>457</ele>
        <time>2021-12-05T18:19:21Z</time>
      </trkpt>
      <trkpt lat="42.87679" lon="2.33531">
        <ele>458</ele>
        <time>2021-12-05T18:19:25Z</time>
      </trkpt>
      <trkpt lat="42.87693" lon="2.33503">
        <ele>458</ele>
        <time>2021-12-05T18:19:29Z</time>
      </trkpt>
      <trkpt lat="42.87727" lon="2.33459">
        <ele>455</ele>
        <time>2021-12-05T18:19:37Z</time>
      </trkpt>
      <trkpt lat="42.87742" lon="2.33428">
        <ele>455</ele>
        <time>2021-12-05T18:19:42Z</time>
      </trkpt>
      <trkpt lat="42.8778" lon="2.33362">
        <ele>458</ele>
        <time>2021-12-05T18:19:53Z</time>
      </trkpt>
      <trkpt lat="42.87808" lon="2.33289">
        <ele>462</ele>
        <time>2021-12-05T18:20:04Z</time>
      </trkpt>
      <trkpt lat="42.87814" lon="2.33263">
        <ele>464</ele>
        <time>2021-12-05T18:20:07Z</time>
      </trkpt>
      <trkpt lat="42.87832" lon="2.33115">
        <ele>467</ele>
        <time>2021-12-05T18:20:27Z</time>
      </trkpt>
      <trkpt lat="42.87838" lon="2.33092">
        <ele>467</ele>
        <time>2021-12-05T18:20:30Z</time>
      </trkpt>
      <trkpt lat="42.87889" lon="2.32931">
        <ele>476</ele>
        <time>2021-12-05T18:20:53Z</time>
      </trkpt>
      <trkpt lat="42.87908" lon="2.32902">
        <ele>476</ele>
        <time>2021-12-05T18:20:58Z</time>
      </trkpt>
      <trkpt lat="42.87935" lon="2.3288">
        <ele>476</ele>
        <time>2021-12-05T18:21:04Z</time>
      </trkpt>
      <trkpt lat="42.87952" lon="2.32863">
        <ele>475</ele>
        <time>2021-12-05T18:21:07Z</time>
      </trkpt>
      <trkpt lat="42.87965" lon="2.32837">
        <ele>474</ele>
        <time>2021-12-05T18:21:12Z</time>
      </trkpt>
      <trkpt lat="42.87983" lon="2.32766">
        <ele>470</ele>
        <time>2021-12-05T18:21:21Z</time>
      </trkpt>
      <trkpt lat="42.87983" lon="2.32729">
        <ele>469</ele>
        <time>2021-12-05T18:21:26Z</time>
      </trkpt>
      <trkpt lat="42.87982" lon="2.32716">
        <ele>468</ele>
        <time>2021-12-05T18:21:28Z</time>
      </trkpt>
      <trkpt lat="42.87952" lon="2.3266">
        <ele>464</ele>
        <time>2021-12-05T18:21:37Z</time>
      </trkpt>
      <trkpt lat="42.87931" lon="2.32627">
        <ele>462</ele>
        <time>2021-12-05T18:21:43Z</time>
      </trkpt>
      <trkpt lat="42.8793" lon="2.32616">
        <ele>461</ele>
        <time>2021-12-05T18:21:44Z</time>
      </trkpt>
      <trkpt lat="42.87931" lon="2.32606">
        <ele>460</ele>
        <time>2021-12-05T18:21:45Z</time>
      </trkpt>
      <trkpt lat="42.87943" lon="2.32566">
        <ele>456</ele>
        <time>2021-12-05T18:21:51Z</time>
      </trkpt>
      <trkpt lat="42.87947" lon="2.32545">
        <ele>453</ele>
        <time>2021-12-05T18:21:54Z</time>
      </trkpt>
      <trkpt lat="42.87944" lon="2.32527">
        <ele>452</ele>
        <time>2021-12-05T18:21:56Z</time>
      </trkpt>
      <trkpt lat="42.87899" lon="2.32474">
        <ele>451</ele>
        <time>2021-12-05T18:22:07Z</time>
      </trkpt>
      <trkpt lat="42.87889" lon="2.32451">
        <ele>451</ele>
        <time>2021-12-05T18:22:10Z</time>
      </trkpt>
      <trkpt lat="42.87886" lon="2.32439">
        <ele>451</ele>
        <time>2021-12-05T18:22:12Z</time>
      </trkpt>
      <trkpt lat="42.87885" lon="2.32423">
        <ele>450</ele>
        <time>2021-12-05T18:22:14Z</time>
      </trkpt>
      <trkpt lat="42.87887" lon="2.32397">
        <ele>448</ele>
        <time>2021-12-05T18:22:17Z</time>
      </trkpt>
      <trkpt lat="42.87898" lon="2.32333">
        <ele>441</ele>
        <time>2021-12-05T18:22:26Z</time>
      </trkpt>
      <trkpt lat="42.87897" lon="2.32321">
        <ele>441</ele>
        <time>2021-12-05T18:22:28Z</time>
      </trkpt>
      <trkpt lat="42.87895" lon="2.3231">
        <ele>441</ele>
        <time>2021-12-05T18:22:29Z</time>
      </trkpt>
      <trkpt lat="42.87885" lon="2.32279">
        <ele>442</ele>
        <time>2021-12-05T18:22:34Z</time>
      </trkpt>
      <trkpt lat="42.87882" lon="2.32257">
        <ele>442</ele>
        <time>2021-12-05T18:22:36Z</time>
      </trkpt>
      <trkpt lat="42.87883" lon="2.32245">
        <ele>441</ele>
        <time>2021-12-05T18:22:38Z</time>
      </trkpt>
      <trkpt lat="42.87887" lon="2.32231">
        <ele>441</ele>
        <time>2021-12-05T18:22:40Z</time>
      </trkpt>
      <trkpt lat="42.8789" lon="2.32225">
        <ele>441</ele>
        <time>2021-12-05T18:22:41Z</time>
      </trkpt>
      <trkpt lat="42.87906" lon="2.322">
        <ele>440</ele>
        <time>2021-12-05T18:22:45Z</time>
      </trkpt>
      <trkpt lat="42.87916" lon="2.32186">
        <ele>440</ele>
        <time>2021-12-05T18:22:48Z</time>
      </trkpt>
      <trkpt lat="42.87926" lon="2.32177">
        <ele>440</ele>
        <time>2021-12-05T18:22:50Z</time>
      </trkpt>
      <trkpt lat="42.87938" lon="2.32173">
        <ele>440</ele>
        <time>2021-12-05T18:22:52Z</time>
      </trkpt>
      <trkpt lat="42.88034" lon="2.32168">
        <ele>440</ele>
        <time>2021-12-05T18:23:09Z</time>
      </trkpt>
      <trkpt lat="42.88047" lon="2.32169">
        <ele>440</ele>
        <time>2021-12-05T18:23:12Z</time>
      </trkpt>
      <trkpt lat="42.88068" lon="2.32177">
        <ele>440</ele>
        <time>2021-12-05T18:23:15Z</time>
      </trkpt>
      <trkpt lat="42.88113" lon="2.32211">
        <ele>440</ele>
        <time>2021-12-05T18:23:25Z</time>
      </trkpt>
      <trkpt lat="42.88124" lon="2.32214">
        <ele>440</ele>
        <time>2021-12-05T18:23:27Z</time>
      </trkpt>
      <trkpt lat="42.88136" lon="2.32214">
        <ele>441</ele>
        <time>2021-12-05T18:23:29Z</time>
      </trkpt>
      <trkpt lat="42.88161" lon="2.32204">
        <ele>444</ele>
        <time>2021-12-05T18:23:33Z</time>
      </trkpt>
      <trkpt lat="42.88209" lon="2.32179">
        <ele>444</ele>
        <time>2021-12-05T18:23:42Z</time>
      </trkpt>
      <trkpt lat="42.8823" lon="2.32157">
        <ele>445</ele>
        <time>2021-12-05T18:23:47Z</time>
      </trkpt>
      <trkpt lat="42.88249" lon="2.32131">
        <ele>445</ele>
        <time>2021-12-05T18:23:52Z</time>
      </trkpt>
      <trkpt lat="42.88306" lon="2.32093">
        <ele>440</ele>
        <time>2021-12-05T18:24:03Z</time>
      </trkpt>
      <trkpt lat="42.88324" lon="2.32078">
        <ele>439</ele>
        <time>2021-12-05T18:24:07Z</time>
      </trkpt>
      <trkpt lat="42.88347" lon="2.32055">
        <ele>440</ele>
        <time>2021-12-05T18:24:12Z</time>
      </trkpt>
      <trkpt lat="42.88366" lon="2.32043">
        <ele>439</ele>
        <time>2021-12-05T18:24:16Z</time>
      </trkpt>
      <trkpt lat="42.88384" lon="2.32035">
        <ele>437</ele>
        <time>2021-12-05T18:24:19Z</time>
      </trkpt>
      <trkpt lat="42.88395" lon="2.32027">
        <ele>437</ele>
        <time>2021-12-05T18:24:21Z</time>
      </trkpt>
      <trkpt lat="42.8842" lon="2.32">
        <ele>435</ele>
        <time>2021-12-05T18:24:27Z</time>
      </trkpt>
      <trkpt lat="42.88456" lon="2.31977">
        <ele>432</ele>
        <time>2021-12-05T18:24:34Z</time>
      </trkpt>
      <trkpt lat="42.88478" lon="2.3196">
        <ele>430</ele>
        <time>2021-12-05T18:24:39Z</time>
      </trkpt>
      <trkpt lat="42.88504" lon="2.31929">
        <ele>427</ele>
        <time>2021-12-05T18:24:45Z</time>
      </trkpt>
      <trkpt lat="42.8854" lon="2.31851">
        <ele>428</ele>
        <time>2021-12-05T18:24:57Z</time>
      </trkpt>
      <trkpt lat="42.88546" lon="2.31843">
        <ele>428</ele>
        <time>2021-12-05T18:24:58Z</time>
      </trkpt>
      <trkpt lat="42.88552" lon="2.31838">
        <ele>428</ele>
        <time>2021-12-05T18:25:00Z</time>
      </trkpt>
      <trkpt lat="42.88566" lon="2.31835">
        <ele>426</ele>
        <time>2021-12-05T18:25:02Z</time>
      </trkpt>
      <trkpt lat="42.88636" lon="2.31837">
        <ele>415</ele>
        <time>2021-12-05T18:25:15Z</time>
      </trkpt>
      <trkpt lat="42.88654" lon="2.31833">
        <ele>413</ele>
        <time>2021-12-05T18:25:18Z</time>
      </trkpt>
      <trkpt lat="42.8867" lon="2.31825">
        <ele>412</ele>
        <time>2021-12-05T18:25:21Z</time>
      </trkpt>
      <trkpt lat="42.88682" lon="2.31813">
        <ele>412</ele>
        <time>2021-12-05T18:25:23Z</time>
      </trkpt>
      <trkpt lat="42.88697" lon="2.31792">
        <ele>413</ele>
        <time>2021-12-05T18:25:27Z</time>
      </trkpt>
      <trkpt lat="42.88727" lon="2.31723">
        <ele>418</ele>
        <time>2021-12-05T18:25:38Z</time>
      </trkpt>
      <trkpt lat="42.88731" lon="2.31718">
        <ele>418</ele>
        <time>2021-12-05T18:25:39Z</time>
      </trkpt>
      <trkpt lat="42.88738" lon="2.31715">
        <ele>417</ele>
        <time>2021-12-05T18:25:40Z</time>
      </trkpt>
      <trkpt lat="42.88758" lon="2.31712">
        <ele>416</ele>
        <time>2021-12-05T18:25:44Z</time>
      </trkpt>
      <trkpt lat="42.88787" lon="2.31714">
        <ele>416</ele>
        <time>2021-12-05T18:25:49Z</time>
      </trkpt>
      <trkpt lat="42.88798" lon="2.31723">
        <ele>415</ele>
        <time>2021-12-05T18:25:51Z</time>
      </trkpt>
      <trkpt lat="42.88803" lon="2.3173">
        <ele>413</ele>
        <time>2021-12-05T18:25:52Z</time>
      </trkpt>
      <trkpt lat="42.88809" lon="2.31748">
        <ele>411</ele>
        <time>2021-12-05T18:25:55Z</time>
      </trkpt>
      <trkpt lat="42.88817" lon="2.31759">
        <ele>409</ele>
        <time>2021-12-05T18:25:57Z</time>
      </trkpt>
      <trkpt lat="42.88824" lon="2.31764">
        <ele>408</ele>
        <time>2021-12-05T18:25:58Z</time>
      </trkpt>
      <trkpt lat="42.88835" lon="2.31767">
        <ele>407</ele>
        <time>2021-12-05T18:26:00Z</time>
      </trkpt>
      <trkpt lat="42.88848" lon="2.31766">
        <ele>405</ele>
        <time>2021-12-05T18:26:03Z</time>
      </trkpt>
      <trkpt lat="42.88873" lon="2.31758">
        <ele>403</ele>
        <time>2021-12-05T18:26:07Z</time>
      </trkpt>
      <trkpt lat="42.88893" lon="2.31748">
        <ele>401</ele>
        <time>2021-12-05T18:26:11Z</time>
      </trkpt>
      <trkpt lat="42.88915" lon="2.31726">
        <ele>402</ele>
        <time>2021-12-05T18:26:16Z</time>
      </trkpt>
      <trkpt lat="42.88939" lon="2.31698">
        <ele>403</ele>
        <time>2021-12-05T18:26:21Z</time>
      </trkpt>
      <trkpt lat="42.88951" lon="2.31691">
        <ele>402</ele>
        <time>2021-12-05T18:26:24Z</time>
      </trkpt>
      <trkpt lat="42.8897" lon="2.31684">
        <ele>400</ele>
        <time>2021-12-05T18:26:27Z</time>
      </trkpt>
      <trkpt lat="42.88981" lon="2.31675">
        <ele>399</ele>
        <time>2021-12-05T18:26:30Z</time>
      </trkpt>
      <trkpt lat="42.88989" lon="2.31658">
        <ele>400</ele>
        <time>2021-12-05T18:26:32Z</time>
      </trkpt>
      <trkpt lat="42.88996" lon="2.31621">
        <ele>403</ele>
        <time>2021-12-05T18:26:37Z</time>
      </trkpt>
      <trkpt lat="42.89001" lon="2.31608">
        <ele>403</ele>
        <time>2021-12-05T18:26:39Z</time>
      </trkpt>
      <trkpt lat="42.89007" lon="2.31598">
        <ele>403</ele>
        <time>2021-12-05T18:26:41Z</time>
      </trkpt>
      <trkpt lat="42.89046" lon="2.31564">
        <ele>400</ele>
        <time>2021-12-05T18:26:49Z</time>
      </trkpt>
      <trkpt lat="42.89071" lon="2.31539">
        <ele>398</ele>
        <time>2021-12-05T18:26:54Z</time>
      </trkpt>
      <trkpt lat="42.89088" lon="2.31528">
        <ele>396</ele>
        <time>2021-12-05T18:26:58Z</time>
      </trkpt>
      <trkpt lat="42.89107" lon="2.31519">
        <ele>394</ele>
        <time>2021-12-05T18:27:01Z</time>
      </trkpt>
      <trkpt lat="42.89118" lon="2.31515">
        <ele>393</ele>
        <time>2021-12-05T18:27:03Z</time>
      </trkpt>
      <trkpt lat="42.8913" lon="2.31511">
        <ele>392</ele>
        <time>2021-12-05T18:27:06Z</time>
      </trkpt>
      <trkpt lat="42.89145" lon="2.31503">
        <ele>390</ele>
        <time>2021-12-05T18:27:09Z</time>
      </trkpt>
      <trkpt lat="42.89153" lon="2.31496">
        <ele>390</ele>
        <time>2021-12-05T18:27:10Z</time>
      </trkpt>
      <trkpt lat="42.89165" lon="2.31479">
        <ele>390</ele>
        <time>2021-12-05T18:27:13Z</time>
      </trkpt>
      <trkpt lat="42.89191" lon="2.31435">
        <ele>390</ele>
        <time>2021-12-05T18:27:21Z</time>
      </trkpt>
      <trkpt lat="42.89223" lon="2.31403">
        <ele>388</ele>
        <time>2021-12-05T18:27:28Z</time>
      </trkpt>
      <trkpt lat="42.89231" lon="2.31383">
        <ele>390</ele>
        <time>2021-12-05T18:27:31Z</time>
      </trkpt>
      <trkpt lat="42.89242" lon="2.31343">
        <ele>396</ele>
        <time>2021-12-05T18:27:36Z</time>
      </trkpt>
      <trkpt lat="42.89249" lon="2.31334">
        <ele>396</ele>
        <time>2021-12-05T18:27:38Z</time>
      </trkpt>
      <trkpt lat="42.89258" lon="2.31331">
        <ele>397</ele>
        <time>2021-12-05T18:27:40Z</time>
      </trkpt>
      <trkpt lat="42.89267" lon="2.31334">
        <ele>398</ele>
        <time>2021-12-05T18:27:41Z</time>
      </trkpt>
      <trkpt lat="42.89273" lon="2.31345">
        <ele>397</ele>
        <time>2021-12-05T18:27:43Z</time>
      </trkpt>
      <trkpt lat="42.89283" lon="2.31374">
        <ele>393</ele>
        <time>2021-12-05T18:27:47Z</time>
      </trkpt>
      <trkpt lat="42.89292" lon="2.31391">
        <ele>392</ele>
        <time>2021-12-05T18:27:50Z</time>
      </trkpt>
      <trkpt lat="42.89319" lon="2.3144">
        <ele>388</ele>
        <time>2021-12-05T18:27:58Z</time>
      </trkpt>
      <trkpt lat="42.89332" lon="2.31462">
        <ele>386</ele>
        <time>2021-12-05T18:28:02Z</time>
      </trkpt>
      <trkpt lat="42.89344" lon="2.315">
        <ele>381</ele>
        <time>2021-12-05T18:28:07Z</time>
      </trkpt>
      <trkpt lat="42.89349" lon="2.3151">
        <ele>380</ele>
        <time>2021-12-05T18:28:09Z</time>
      </trkpt>
      <trkpt lat="42.89364" lon="2.31528">
        <ele>380</ele>
        <time>2021-12-05T18:28:12Z</time>
      </trkpt>
      <trkpt lat="42.89376" lon="2.31536">
        <ele>381</ele>
        <time>2021-12-05T18:28:15Z</time>
      </trkpt>
      <trkpt lat="42.89392" lon="2.31539">
        <ele>383</ele>
        <time>2021-12-05T18:28:17Z</time>
      </trkpt>
      <trkpt lat="42.89414" lon="2.31536">
        <ele>387</ele>
        <time>2021-12-05T18:28:21Z</time>
      </trkpt>
      <trkpt lat="42.89442" lon="2.31527">
        <ele>385</ele>
        <time>2021-12-05T18:28:26Z</time>
      </trkpt>
      <trkpt lat="42.8945" lon="2.31522">
        <ele>385</ele>
        <time>2021-12-05T18:28:28Z</time>
      </trkpt>
      <trkpt lat="42.89481" lon="2.31492">
        <ele>382</ele>
        <time>2021-12-05T18:28:35Z</time>
      </trkpt>
      <trkpt lat="42.8951" lon="2.31481">
        <ele>378</ele>
        <time>2021-12-05T18:28:40Z</time>
      </trkpt>
      <trkpt lat="42.89538" lon="2.31474">
        <ele>372</ele>
        <time>2021-12-05T18:28:45Z</time>
      </trkpt>
      <trkpt lat="42.89545" lon="2.31469">
        <ele>372</ele>
        <time>2021-12-05T18:28:47Z</time>
      </trkpt>
      <trkpt lat="42.89561" lon="2.31452">
        <ele>370</ele>
        <time>2021-12-05T18:28:50Z</time>
      </trkpt>
      <trkpt lat="42.8957" lon="2.31448">
        <ele>368</ele>
        <time>2021-12-05T18:28:52Z</time>
      </trkpt>
      <trkpt lat="42.89595" lon="2.31442">
        <ele>363</ele>
        <time>2021-12-05T18:28:56Z</time>
      </trkpt>
      <trkpt lat="42.89605" lon="2.31436">
        <ele>362</ele>
        <time>2021-12-05T18:28:58Z</time>
      </trkpt>
      <trkpt lat="42.89609" lon="2.3143">
        <ele>362</ele>
        <time>2021-12-05T18:28:59Z</time>
      </trkpt>
      <trkpt lat="42.89613" lon="2.31418">
        <ele>362</ele>
        <time>2021-12-05T18:29:01Z</time>
      </trkpt>
      <trkpt lat="42.89615" lon="2.31404">
        <ele>362</ele>
        <time>2021-12-05T18:29:03Z</time>
      </trkpt>
      <trkpt lat="42.89614" lon="2.31374">
        <ele>362</ele>
        <time>2021-12-05T18:29:07Z</time>
      </trkpt>
      <trkpt lat="42.89609" lon="2.31348">
        <ele>363</ele>
        <time>2021-12-05T18:29:10Z</time>
      </trkpt>
      <trkpt lat="42.89605" lon="2.31332">
        <ele>364</ele>
        <time>2021-12-05T18:29:13Z</time>
      </trkpt>
      <trkpt lat="42.89599" lon="2.31306">
        <ele>364</ele>
        <time>2021-12-05T18:29:16Z</time>
      </trkpt>
      <trkpt lat="42.89593" lon="2.3127">
        <ele>364</ele>
        <time>2021-12-05T18:29:21Z</time>
      </trkpt>
      <trkpt lat="42.89594" lon="2.31254">
        <ele>363</ele>
        <time>2021-12-05T18:29:23Z</time>
      </trkpt>
      <trkpt lat="42.89596" lon="2.31246">
        <ele>363</ele>
        <time>2021-12-05T18:29:24Z</time>
      </trkpt>
      <trkpt lat="42.89599" lon="2.31238">
        <ele>364</ele>
        <time>2021-12-05T18:29:25Z</time>
      </trkpt>
      <trkpt lat="42.89605" lon="2.31235">
        <ele>364</ele>
        <time>2021-12-05T18:29:26Z</time>
      </trkpt>
      <trkpt lat="42.89613" lon="2.31235">
        <ele>364</ele>
        <time>2021-12-05T18:29:28Z</time>
      </trkpt>
      <trkpt lat="42.8962" lon="2.31237">
        <ele>364</ele>
        <time>2021-12-05T18:29:29Z</time>
      </trkpt>
      <trkpt lat="42.89627" lon="2.31243">
        <ele>364</ele>
        <time>2021-12-05T18:29:31Z</time>
      </trkpt>
      <trkpt lat="42.89631" lon="2.31252">
        <ele>364</ele>
        <time>2021-12-05T18:29:32Z</time>
      </trkpt>
      <trkpt lat="42.89645" lon="2.31296">
        <ele>361</ele>
        <time>2021-12-05T18:29:38Z</time>
      </trkpt>
      <trkpt lat="42.89667" lon="2.31327">
        <ele>355</ele>
        <time>2021-12-05T18:29:44Z</time>
      </trkpt>
      <trkpt lat="42.89682" lon="2.31352">
        <ele>356</ele>
        <time>2021-12-05T18:29:48Z</time>
      </trkpt>
      <trkpt lat="42.89689" lon="2.3138">
        <ele>355</ele>
        <time>2021-12-05T18:29:52Z</time>
      </trkpt>
      <trkpt lat="42.89692" lon="2.3142">
        <ele>353</ele>
        <time>2021-12-05T18:29:57Z</time>
      </trkpt>
      <trkpt lat="42.89695" lon="2.31434">
        <ele>352</ele>
        <time>2021-12-05T18:29:59Z</time>
      </trkpt>
      <trkpt lat="42.89712" lon="2.31465">
        <ele>352</ele>
        <time>2021-12-05T18:30:04Z</time>
      </trkpt>
      <trkpt lat="42.89764" lon="2.31513">
        <ele>349</ele>
        <time>2021-12-05T18:30:15Z</time>
      </trkpt>
      <trkpt lat="42.89786" lon="2.31527">
        <ele>347</ele>
        <time>2021-12-05T18:30:20Z</time>
      </trkpt>
      <trkpt lat="42.89795" lon="2.31528">
        <ele>347</ele>
        <time>2021-12-05T18:30:21Z</time>
      </trkpt>
      <trkpt lat="42.89799" lon="2.31525">
        <ele>347</ele>
        <time>2021-12-05T18:30:22Z</time>
      </trkpt>
      <trkpt lat="42.89807" lon="2.31514">
        <ele>347</ele>
        <time>2021-12-05T18:30:24Z</time>
      </trkpt>
      <trkpt lat="42.89813" lon="2.31485">
        <ele>349</ele>
        <time>2021-12-05T18:30:28Z</time>
      </trkpt>
      <trkpt lat="42.89818" lon="2.31426">
        <ele>351</ele>
        <time>2021-12-05T18:30:36Z</time>
      </trkpt>
      <trkpt lat="42.89816" lon="2.31374">
        <ele>357</ele>
        <time>2021-12-05T18:30:43Z</time>
      </trkpt>
      <trkpt lat="42.89819" lon="2.31356">
        <ele>359</ele>
        <time>2021-12-05T18:30:45Z</time>
      </trkpt>
      <trkpt lat="42.89833" lon="2.31323">
        <ele>362</ele>
        <time>2021-12-05T18:30:50Z</time>
      </trkpt>
      <trkpt lat="42.89844" lon="2.31293">
        <ele>366</ele>
        <time>2021-12-05T18:30:54Z</time>
      </trkpt>
      <trkpt lat="42.89849" lon="2.31287">
        <ele>367</ele>
        <time>2021-12-05T18:30:55Z</time>
      </trkpt>
      <trkpt lat="42.89859" lon="2.3128">
        <ele>367</ele>
        <time>2021-12-05T18:30:57Z</time>
      </trkpt>
      <trkpt lat="42.89869" lon="2.31279">
        <ele>366</ele>
        <time>2021-12-05T18:30:59Z</time>
      </trkpt>
      <trkpt lat="42.89899" lon="2.31282">
        <ele>360</ele>
        <time>2021-12-05T18:31:05Z</time>
      </trkpt>
      <trkpt lat="42.89908" lon="2.31281">
        <ele>359</ele>
        <time>2021-12-05T18:31:06Z</time>
      </trkpt>
      <trkpt lat="42.89923" lon="2.31271">
        <ele>361</ele>
        <time>2021-12-05T18:31:09Z</time>
      </trkpt>
      <trkpt lat="42.8993" lon="2.3127">
        <ele>362</ele>
        <time>2021-12-05T18:31:10Z</time>
      </trkpt>
      <trkpt lat="42.89958" lon="2.31276">
        <ele>362</ele>
        <time>2021-12-05T18:31:15Z</time>
      </trkpt>
      <trkpt lat="42.89983" lon="2.31274">
        <ele>365</ele>
        <time>2021-12-05T18:31:20Z</time>
      </trkpt>
      <trkpt lat="42.90017" lon="2.31269">
        <ele>367</ele>
        <time>2021-12-05T18:31:26Z</time>
      </trkpt>
      <trkpt lat="42.90036" lon="2.31271">
        <ele>366</ele>
        <time>2021-12-05T18:31:29Z</time>
      </trkpt>
      <trkpt lat="42.90052" lon="2.31275">
        <ele>364</ele>
        <time>2021-12-05T18:31:32Z</time>
      </trkpt>
      <trkpt lat="42.90059" lon="2.31279">
        <ele>362</ele>
        <time>2021-12-05T18:31:34Z</time>
      </trkpt>
      <trkpt lat="42.90065" lon="2.31284">
        <ele>361</ele>
        <time>2021-12-05T18:31:35Z</time>
      </trkpt>
      <trkpt lat="42.90076" lon="2.31299">
        <ele>355</ele>
        <time>2021-12-05T18:31:38Z</time>
      </trkpt>
      <trkpt lat="42.90092" lon="2.31325">
        <ele>347</ele>
        <time>2021-12-05T18:31:42Z</time>
      </trkpt>
      <trkpt lat="42.90098" lon="2.3133">
        <ele>346</ele>
        <time>2021-12-05T18:31:43Z</time>
      </trkpt>
      <trkpt lat="42.90104" lon="2.31332">
        <ele>346</ele>
        <time>2021-12-05T18:31:44Z</time>
      </trkpt>
      <trkpt lat="42.9011" lon="2.3133">
        <ele>347</ele>
        <time>2021-12-05T18:31:46Z</time>
      </trkpt>
      <trkpt lat="42.90136" lon="2.31314">
        <ele>352</ele>
        <time>2021-12-05T18:31:51Z</time>
      </trkpt>
      <trkpt lat="42.90143" lon="2.31312">
        <ele>353</ele>
        <time>2021-12-05T18:31:52Z</time>
      </trkpt>
      <trkpt lat="42.9015" lon="2.31313">
        <ele>353</ele>
        <time>2021-12-05T18:31:53Z</time>
      </trkpt>
      <trkpt lat="42.90178" lon="2.31324">
        <ele>351</ele>
        <time>2021-12-05T18:31:58Z</time>
      </trkpt>
      <trkpt lat="42.90208" lon="2.31328">
        <ele>348</ele>
        <time>2021-12-05T18:32:04Z</time>
      </trkpt>
      <trkpt lat="42.90242" lon="2.31322">
        <ele>348</ele>
        <time>2021-12-05T18:32:10Z</time>
      </trkpt>
      <trkpt lat="42.90258" lon="2.31322">
        <ele>348</ele>
        <time>2021-12-05T18:32:13Z</time>
      </trkpt>
      <trkpt lat="42.90265" lon="2.31326">
        <ele>348</ele>
        <time>2021-12-05T18:32:14Z</time>
      </trkpt>
      <trkpt lat="42.90269" lon="2.31332">
        <ele>348</ele>
        <time>2021-12-05T18:32:15Z</time>
      </trkpt>
      <trkpt lat="42.90286" lon="2.31358">
        <ele>348</ele>
        <time>2021-12-05T18:32:20Z</time>
      </trkpt>
      <trkpt lat="42.90294" lon="2.31367">
        <ele>348</ele>
        <time>2021-12-05T18:32:21Z</time>
      </trkpt>
      <trkpt lat="42.90305" lon="2.31374">
        <ele>348</ele>
        <time>2021-12-05T18:32:24Z</time>
      </trkpt>
      <trkpt lat="42.90332" lon="2.31387">
        <ele>347</ele>
        <time>2021-12-05T18:32:29Z</time>
      </trkpt>
      <trkpt lat="42.90343" lon="2.31393">
        <ele>347</ele>
        <time>2021-12-05T18:32:31Z</time>
      </trkpt>
      <trkpt lat="42.9035" lon="2.31397">
        <ele>347</ele>
        <time>2021-12-05T18:32:32Z</time>
      </trkpt>
      <trkpt lat="42.90364" lon="2.31399">
        <ele>347</ele>
        <time>2021-12-05T18:32:35Z</time>
      </trkpt>
      <trkpt lat="42.90372" lon="2.314">
        <ele>347</ele>
        <time>2021-12-05T18:32:36Z</time>
      </trkpt>
      <trkpt lat="42.90395" lon="2.31395">
        <ele>349</ele>
        <time>2021-12-05T18:32:40Z</time>
      </trkpt>
      <trkpt lat="42.90406" lon="2.31398">
        <ele>349</ele>
        <time>2021-12-05T18:32:42Z</time>
      </trkpt>
      <trkpt lat="42.90417" lon="2.31407">
        <ele>348</ele>
        <time>2021-12-05T18:32:45Z</time>
      </trkpt>
      <trkpt lat="42.90424" lon="2.31424">
        <ele>347</ele>
        <time>2021-12-05T18:32:47Z</time>
      </trkpt>
      <trkpt lat="42.90448" lon="2.31461">
        <ele>349</ele>
        <time>2021-12-05T18:32:54Z</time>
      </trkpt>
      <trkpt lat="42.90465" lon="2.31485">
        <ele>349</ele>
        <time>2021-12-05T18:32:58Z</time>
      </trkpt>
      <trkpt lat="42.90469" lon="2.31497">
        <ele>349</ele>
        <time>2021-12-05T18:33:00Z</time>
      </trkpt>
      <trkpt lat="42.90469" lon="2.3151">
        <ele>348</ele>
        <time>2021-12-05T18:33:01Z</time>
      </trkpt>
      <trkpt lat="42.9047" lon="2.31538">
        <ele>347</ele>
        <time>2021-12-05T18:33:05Z</time>
      </trkpt>
      <trkpt lat="42.90473" lon="2.31553">
        <ele>346</ele>
        <time>2021-12-05T18:33:07Z</time>
      </trkpt>
      <trkpt lat="42.90478" lon="2.31565">
        <ele>345</ele>
        <time>2021-12-05T18:33:09Z</time>
      </trkpt>
      <trkpt lat="42.90507" lon="2.31606">
        <ele>344</ele>
        <time>2021-12-05T18:33:16Z</time>
      </trkpt>
      <trkpt lat="42.90514" lon="2.31611">
        <ele>345</ele>
        <time>2021-12-05T18:33:18Z</time>
      </trkpt>
      <trkpt lat="42.90524" lon="2.31614">
        <ele>346</ele>
        <time>2021-12-05T18:33:19Z</time>
      </trkpt>
      <trkpt lat="42.90537" lon="2.31612">
        <ele>346</ele>
        <time>2021-12-05T18:33:22Z</time>
      </trkpt>
      <trkpt lat="42.90618" lon="2.3158">
        <ele>352</ele>
        <time>2021-12-05T18:33:37Z</time>
      </trkpt>
      <trkpt lat="42.90633" lon="2.31576">
        <ele>353</ele>
        <time>2021-12-05T18:33:39Z</time>
      </trkpt>
      <trkpt lat="42.90641" lon="2.31578">
        <ele>353</ele>
        <time>2021-12-05T18:33:41Z</time>
      </trkpt>
      <trkpt lat="42.90663" lon="2.31588">
        <ele>351</ele>
        <time>2021-12-05T18:33:45Z</time>
      </trkpt>
      <trkpt lat="42.90684" lon="2.31601">
        <ele>352</ele>
        <time>2021-12-05T18:33:49Z</time>
      </trkpt>
      <trkpt lat="42.90699" lon="2.31613">
        <ele>352</ele>
        <time>2021-12-05T18:33:52Z</time>
      </trkpt>
      <trkpt lat="42.90705" lon="2.31626">
        <ele>352</ele>
        <time>2021-12-05T18:33:54Z</time>
      </trkpt>
      <trkpt lat="42.90707" lon="2.31643">
        <ele>350</ele>
        <time>2021-12-05T18:33:56Z</time>
      </trkpt>
      <trkpt lat="42.90706" lon="2.31663">
        <ele>348</ele>
        <time>2021-12-05T18:33:59Z</time>
      </trkpt>
      <trkpt lat="42.90686" lon="2.31724">
        <ele>350</ele>
        <time>2021-12-05T18:34:08Z</time>
      </trkpt>
      <trkpt lat="42.90683" lon="2.31749">
        <ele>351</ele>
        <time>2021-12-05T18:34:11Z</time>
      </trkpt>
      <trkpt lat="42.90683" lon="2.31766">
        <ele>351</ele>
        <time>2021-12-05T18:34:13Z</time>
      </trkpt>
      <trkpt lat="42.90714" lon="2.31878">
        <ele>353</ele>
        <time>2021-12-05T18:34:29Z</time>
      </trkpt>
      <trkpt lat="42.90719" lon="2.31889">
        <ele>352</ele>
        <time>2021-12-05T18:34:31Z</time>
      </trkpt>
      <trkpt lat="42.90723" lon="2.31892">
        <ele>351</ele>
        <time>2021-12-05T18:34:31Z</time>
      </trkpt>
      <trkpt lat="42.90743" lon="2.31906">
        <ele>348</ele>
        <time>2021-12-05T18:34:35Z</time>
      </trkpt>
      <trkpt lat="42.90763" lon="2.31913">
        <ele>349</ele>
        <time>2021-12-05T18:34:39Z</time>
      </trkpt>
      <trkpt lat="42.90825" lon="2.31928">
        <ele>355</ele>
        <time>2021-12-05T18:34:50Z</time>
      </trkpt>
      <trkpt lat="42.90896" lon="2.31953">
        <ele>345</ele>
        <time>2021-12-05T18:35:03Z</time>
      </trkpt>
      <trkpt lat="42.9091" lon="2.31953">
        <ele>344</ele>
        <time>2021-12-05T18:35:06Z</time>
      </trkpt>
      <trkpt lat="42.90924" lon="2.3195">
        <ele>344</ele>
        <time>2021-12-05T18:35:08Z</time>
      </trkpt>
      <trkpt lat="42.90945" lon="2.31936">
        <ele>345</ele>
        <time>2021-12-05T18:35:13Z</time>
      </trkpt>
      <trkpt lat="42.90963" lon="2.31925">
        <ele>344</ele>
        <time>2021-12-05T18:35:16Z</time>
      </trkpt>
      <trkpt lat="42.91023" lon="2.31885">
        <ele>341</ele>
        <time>2021-12-05T18:35:28Z</time>
      </trkpt>
      <trkpt lat="42.91038" lon="2.31871">
        <ele>340</ele>
        <time>2021-12-05T18:35:31Z</time>
      </trkpt>
      <trkpt lat="42.91044" lon="2.31864">
        <ele>339</ele>
        <time>2021-12-05T18:35:33Z</time>
      </trkpt>
      <trkpt lat="42.91049" lon="2.31859">
        <ele>339</ele>
        <time>2021-12-05T18:35:34Z</time>
      </trkpt>
      <trkpt lat="42.91105" lon="2.31779">
        <ele>341</ele>
        <time>2021-12-05T18:35:48Z</time>
      </trkpt>
      <trkpt lat="42.91121" lon="2.31763">
        <ele>342</ele>
        <time>2021-12-05T18:35:52Z</time>
      </trkpt>
      <trkpt lat="42.91172" lon="2.31728">
        <ele>346</ele>
        <time>2021-12-05T18:36:02Z</time>
      </trkpt>
      <trkpt lat="42.91211" lon="2.31713">
        <ele>350</ele>
        <time>2021-12-05T18:36:09Z</time>
      </trkpt>
      <trkpt lat="42.91221" lon="2.31712">
        <ele>349</ele>
        <time>2021-12-05T18:36:11Z</time>
      </trkpt>
      <trkpt lat="42.91243" lon="2.31722">
        <ele>341</ele>
        <time>2021-12-05T18:36:15Z</time>
      </trkpt>
      <trkpt lat="42.91304" lon="2.31758">
        <ele>328</ele>
        <time>2021-12-05T18:36:27Z</time>
      </trkpt>
      <trkpt lat="42.91377" lon="2.31825">
        <ele>319</ele>
        <time>2021-12-05T18:36:42Z</time>
      </trkpt>
      <trkpt lat="42.91399" lon="2.31841">
        <ele>318</ele>
        <time>2021-12-05T18:36:47Z</time>
      </trkpt>
      <trkpt lat="42.91414" lon="2.31842">
        <ele>319</ele>
        <time>2021-12-05T18:36:49Z</time>
      </trkpt>
      <trkpt lat="42.91428" lon="2.3184">
        <ele>318</ele>
        <time>2021-12-05T18:36:52Z</time>
      </trkpt>
      <trkpt lat="42.91439" lon="2.31834">
        <ele>318</ele>
        <time>2021-12-05T18:36:54Z</time>
      </trkpt>
      <trkpt lat="42.91469" lon="2.31809">
        <ele>320</ele>
        <time>2021-12-05T18:37:00Z</time>
      </trkpt>
      <trkpt lat="42.91475" lon="2.31804">
        <ele>320</ele>
        <time>2021-12-05T18:37:02Z</time>
      </trkpt>
      <trkpt lat="42.91508" lon="2.31779">
        <ele>321</ele>
        <time>2021-12-05T18:37:08Z</time>
      </trkpt>
      <trkpt lat="42.91522" lon="2.31774">
        <ele>322</ele>
        <time>2021-12-05T18:37:11Z</time>
      </trkpt>
      <trkpt lat="42.91543" lon="2.31768">
        <ele>321</ele>
        <time>2021-12-05T18:37:15Z</time>
      </trkpt>
      <trkpt lat="42.91629" lon="2.31753">
        <ele>327</ele>
        <time>2021-12-05T18:37:30Z</time>
      </trkpt>
      <trkpt lat="42.91638" lon="2.31757">
        <ele>327</ele>
        <time>2021-12-05T18:37:32Z</time>
      </trkpt>
      <trkpt lat="42.91652" lon="2.31772">
        <ele>326</ele>
        <time>2021-12-05T18:37:35Z</time>
      </trkpt>
      <trkpt lat="42.91665" lon="2.31795">
        <ele>323</ele>
        <time>2021-12-05T18:37:39Z</time>
      </trkpt>
      <trkpt lat="42.91674" lon="2.31816">
        <ele>320</ele>
        <time>2021-12-05T18:37:42Z</time>
      </trkpt>
      <trkpt lat="42.91683" lon="2.31825">
        <ele>320</ele>
        <time>2021-12-05T18:37:44Z</time>
      </trkpt>
      <trkpt lat="42.91693" lon="2.31833">
        <ele>320</ele>
        <time>2021-12-05T18:37:46Z</time>
      </trkpt>
      <trkpt lat="42.9171" lon="2.31838">
        <ele>322</ele>
        <time>2021-12-05T18:37:49Z</time>
      </trkpt>
      <trkpt lat="42.91728" lon="2.31846">
        <ele>324</ele>
        <time>2021-12-05T18:37:52Z</time>
      </trkpt>
      <trkpt lat="42.91733" lon="2.31849">
        <ele>325</ele>
        <time>2021-12-05T18:37:53Z</time>
      </trkpt>
      <trkpt lat="42.91742" lon="2.31857">
        <ele>325</ele>
        <time>2021-12-05T18:37:55Z</time>
      </trkpt>
      <trkpt lat="42.91752" lon="2.3187">
        <ele>323</ele>
        <time>2021-12-05T18:37:58Z</time>
      </trkpt>
      <trkpt lat="42.91766" lon="2.31881">
        <ele>322</ele>
        <time>2021-12-05T18:38:01Z</time>
      </trkpt>
      <trkpt lat="42.91809" lon="2.31901">
        <ele>320</ele>
        <time>2021-12-05T18:38:09Z</time>
      </trkpt>
      <trkpt lat="42.91827" lon="2.31907">
        <ele>320</ele>
        <time>2021-12-05T18:38:12Z</time>
      </trkpt>
      <trkpt lat="42.91834" lon="2.31911">
        <ele>319</ele>
        <time>2021-12-05T18:38:13Z</time>
      </trkpt>
      <trkpt lat="42.91858" lon="2.31921">
        <ele>319</ele>
        <time>2021-12-05T18:38:18Z</time>
      </trkpt>
      <trkpt lat="42.91881" lon="2.31933">
        <ele>318</ele>
        <time>2021-12-05T18:38:22Z</time>
      </trkpt>
      <trkpt lat="42.91949" lon="2.31962">
        <ele>319</ele>
        <time>2021-12-05T18:38:35Z</time>
      </trkpt>
      <trkpt lat="42.91976" lon="2.31976">
        <ele>319</ele>
        <time>2021-12-05T18:38:40Z</time>
      </trkpt>
      <trkpt lat="42.92086" lon="2.32048">
        <ele>323</ele>
        <time>2021-12-05T18:39:02Z</time>
      </trkpt>
      <trkpt lat="42.92143" lon="2.32081">
        <ele>312</ele>
        <time>2021-12-05T18:39:13Z</time>
      </trkpt>
      <trkpt lat="42.92154" lon="2.32082">
        <ele>311</ele>
        <time>2021-12-05T18:39:15Z</time>
      </trkpt>
      <trkpt lat="42.92171" lon="2.32071">
        <ele>311</ele>
        <time>2021-12-05T18:39:18Z</time>
      </trkpt>
      <trkpt lat="42.92178" lon="2.32051">
        <ele>314</ele>
        <time>2021-12-05T18:39:21Z</time>
      </trkpt>
      <trkpt lat="42.92178" lon="2.32038">
        <ele>314</ele>
        <time>2021-12-05T18:39:23Z</time>
      </trkpt>
      <trkpt lat="42.92152" lon="2.31844">
        <ele>317</ele>
        <time>2021-12-05T18:39:48Z</time>
      </trkpt>
      <trkpt lat="42.92152" lon="2.31822">
        <ele>318</ele>
        <time>2021-12-05T18:39:51Z</time>
      </trkpt>
      <trkpt lat="42.92154" lon="2.31803">
        <ele>320</ele>
        <time>2021-12-05T18:39:54Z</time>
      </trkpt>
      <trkpt lat="42.92169" lon="2.31773">
        <ele>319</ele>
        <time>2021-12-05T18:39:58Z</time>
      </trkpt>
      <trkpt lat="42.92181" lon="2.31764">
        <ele>320</ele>
        <time>2021-12-05T18:40:01Z</time>
      </trkpt>
      <trkpt lat="42.92194" lon="2.31759">
        <ele>319</ele>
        <time>2021-12-05T18:40:03Z</time>
      </trkpt>
      <trkpt lat="42.92236" lon="2.31747">
        <ele>318</ele>
        <time>2021-12-05T18:40:11Z</time>
      </trkpt>
      <trkpt lat="42.92253" lon="2.31748">
        <ele>316</ele>
        <time>2021-12-05T18:40:14Z</time>
      </trkpt>
      <trkpt lat="42.92283" lon="2.31756">
        <ele>316</ele>
        <time>2021-12-05T18:40:19Z</time>
      </trkpt>
      <trkpt lat="42.92313" lon="2.31767">
        <ele>316</ele>
        <time>2021-12-05T18:40:25Z</time>
      </trkpt>
      <trkpt lat="42.92364" lon="2.31782">
        <ele>313</ele>
        <time>2021-12-05T18:40:34Z</time>
      </trkpt>
      <trkpt lat="42.92381" lon="2.3178">
        <ele>312</ele>
        <time>2021-12-05T18:40:37Z</time>
      </trkpt>
      <trkpt lat="42.92397" lon="2.31774">
        <ele>311</ele>
        <time>2021-12-05T18:40:40Z</time>
      </trkpt>
      <trkpt lat="42.92416" lon="2.31761">
        <ele>309</ele>
        <time>2021-12-05T18:40:44Z</time>
      </trkpt>
      <trkpt lat="42.92432" lon="2.31747">
        <ele>309</ele>
        <time>2021-12-05T18:40:47Z</time>
      </trkpt>
      <trkpt lat="42.92446" lon="2.31728">
        <ele>311</ele>
        <time>2021-12-05T18:40:51Z</time>
      </trkpt>
      <trkpt lat="42.92456" lon="2.31706">
        <ele>312</ele>
        <time>2021-12-05T18:40:54Z</time>
      </trkpt>
      <trkpt lat="42.92461" lon="2.31688">
        <ele>312</ele>
        <time>2021-12-05T18:40:57Z</time>
      </trkpt>
      <trkpt lat="42.92469" lon="2.31598">
        <ele>317</ele>
        <time>2021-12-05T18:41:09Z</time>
      </trkpt>
      <trkpt lat="42.92475" lon="2.31563">
        <ele>319</ele>
        <time>2021-12-05T18:41:13Z</time>
      </trkpt>
      <trkpt lat="42.92484" lon="2.31533">
        <ele>319</ele>
        <time>2021-12-05T18:41:17Z</time>
      </trkpt>
      <trkpt lat="42.92501" lon="2.31497">
        <ele>316</ele>
        <time>2021-12-05T18:41:23Z</time>
      </trkpt>
      <trkpt lat="42.92516" lon="2.31475">
        <ele>320</ele>
        <time>2021-12-05T18:41:27Z</time>
      </trkpt>
      <trkpt lat="42.92527" lon="2.31463">
        <ele>321</ele>
        <time>2021-12-05T18:41:29Z</time>
      </trkpt>
      <trkpt lat="42.92542" lon="2.31454">
        <ele>319</ele>
        <time>2021-12-05T18:41:32Z</time>
      </trkpt>
      <trkpt lat="42.92556" lon="2.31451">
        <ele>316</ele>
        <time>2021-12-05T18:41:35Z</time>
      </trkpt>
      <trkpt lat="42.92573" lon="2.31451">
        <ele>310</ele>
        <time>2021-12-05T18:41:38Z</time>
      </trkpt>
      <trkpt lat="42.92611" lon="2.31462">
        <ele>308</ele>
        <time>2021-12-05T18:41:45Z</time>
      </trkpt>
      <trkpt lat="42.92642" lon="2.31479">
        <ele>306</ele>
        <time>2021-12-05T18:41:51Z</time>
      </trkpt>
      <trkpt lat="42.92657" lon="2.31488">
        <ele>303</ele>
        <time>2021-12-05T18:41:54Z</time>
      </trkpt>
      <trkpt lat="42.92669" lon="2.315">
        <ele>299</ele>
        <time>2021-12-05T18:41:56Z</time>
      </trkpt>
      <trkpt lat="42.92686" lon="2.3152">
        <ele>301</ele>
        <time>2021-12-05T18:42:00Z</time>
      </trkpt>
      <trkpt lat="42.92733" lon="2.31591">
        <ele>294</ele>
        <time>2021-12-05T18:42:13Z</time>
      </trkpt>
      <trkpt lat="42.92745" lon="2.31606">
        <ele>294</ele>
        <time>2021-12-05T18:42:16Z</time>
      </trkpt>
      <trkpt lat="42.92756" lon="2.31613">
        <ele>294</ele>
        <time>2021-12-05T18:42:18Z</time>
      </trkpt>
      <trkpt lat="42.92784" lon="2.31616">
        <ele>294</ele>
        <time>2021-12-05T18:42:23Z</time>
      </trkpt>
      <trkpt lat="42.92834" lon="2.31609">
        <ele>292</ele>
        <time>2021-12-05T18:42:32Z</time>
      </trkpt>
      <trkpt lat="42.92926" lon="2.31603">
        <ele>294</ele>
        <time>2021-12-05T18:42:48Z</time>
      </trkpt>
      <trkpt lat="42.93178" lon="2.31577">
        <ele>293</ele>
        <time>2021-12-05T18:43:33Z</time>
      </trkpt>
      <trkpt lat="42.93198" lon="2.31578">
        <ele>294</ele>
        <time>2021-12-05T18:43:37Z</time>
      </trkpt>
      <trkpt lat="42.93242" lon="2.3159">
        <ele>293</ele>
        <time>2021-12-05T18:43:45Z</time>
      </trkpt>
      <trkpt lat="42.93311" lon="2.31598">
        <ele>294</ele>
        <time>2021-12-05T18:43:57Z</time>
      </trkpt>
      <trkpt lat="42.93373" lon="2.31601">
        <ele>293</ele>
        <time>2021-12-05T18:44:08Z</time>
      </trkpt>
      <trkpt lat="42.93405" lon="2.316">
        <ele>293</ele>
        <time>2021-12-05T18:44:14Z</time>
      </trkpt>
      <trkpt lat="42.93437" lon="2.31596">
        <ele>290</ele>
        <time>2021-12-05T18:44:19Z</time>
      </trkpt>
      <trkpt lat="42.93467" lon="2.3159">
        <ele>285</ele>
        <time>2021-12-05T18:44:25Z</time>
      </trkpt>
      <trkpt lat="42.93508" lon="2.31585">
        <ele>278</ele>
        <time>2021-12-05T18:44:32Z</time>
      </trkpt>
      <trkpt lat="42.93533" lon="2.31585">
        <ele>278</ele>
        <time>2021-12-05T18:44:37Z</time>
      </trkpt>
      <trkpt lat="42.93565" lon="2.31586">
        <ele>278</ele>
        <time>2021-12-05T18:44:42Z</time>
      </trkpt>
      <trkpt lat="42.93617" lon="2.31566">
        <ele>276</ele>
        <time>2021-12-05T18:44:52Z</time>
      </trkpt>
      <trkpt lat="42.9363" lon="2.31564">
        <ele>275</ele>
        <time>2021-12-05T18:44:54Z</time>
      </trkpt>
      <trkpt lat="42.93643" lon="2.31566">
        <ele>275</ele>
        <time>2021-12-05T18:44:57Z</time>
      </trkpt>
      <trkpt lat="42.93662" lon="2.31572">
        <ele>276</ele>
        <time>2021-12-05T18:45:00Z</time>
      </trkpt>
      <trkpt lat="42.93779" lon="2.31631">
        <ele>279</ele>
        <time>2021-12-05T18:45:22Z</time>
      </trkpt>
      <trkpt lat="42.938" lon="2.31638">
        <ele>278</ele>
        <time>2021-12-05T18:45:26Z</time>
      </trkpt>
      <trkpt lat="42.93821" lon="2.31642">
        <ele>277</ele>
        <time>2021-12-05T18:45:30Z</time>
      </trkpt>
      <trkpt lat="42.93854" lon="2.31641">
        <ele>277</ele>
        <time>2021-12-05T18:45:36Z</time>
      </trkpt>
      <trkpt lat="42.93992" lon="2.31607">
        <ele>275</ele>
        <time>2021-12-05T18:46:01Z</time>
      </trkpt>
      <trkpt lat="42.94016" lon="2.31595">
        <ele>273</ele>
        <time>2021-12-05T18:46:05Z</time>
      </trkpt>
      <trkpt lat="42.94035" lon="2.31583">
        <ele>271</ele>
        <time>2021-12-05T18:46:09Z</time>
      </trkpt>
      <trkpt lat="42.94052" lon="2.31569">
        <ele>271</ele>
        <time>2021-12-05T18:46:12Z</time>
      </trkpt>
      <trkpt lat="42.94068" lon="2.3155">
        <ele>270</ele>
        <time>2021-12-05T18:46:16Z</time>
      </trkpt>
      <trkpt lat="42.94091" lon="2.31512">
        <ele>267</ele>
        <time>2021-12-05T18:46:23Z</time>
      </trkpt>
      <trkpt lat="42.94104" lon="2.31504">
        <ele>266</ele>
        <time>2021-12-05T18:46:25Z</time>
      </trkpt>
      <trkpt lat="42.94127" lon="2.31495">
        <ele>266</ele>
        <time>2021-12-05T18:46:29Z</time>
      </trkpt>
      <trkpt lat="42.94152" lon="2.31485">
        <ele>265</ele>
        <time>2021-12-05T18:46:34Z</time>
      </trkpt>
      <trkpt lat="42.94153" lon="2.31518">
        <ele>266</ele>
        <time>2021-12-05T18:46:38Z</time>
      </trkpt>
      <trkpt lat="42.94158" lon="2.31556">
        <ele>266</ele>
        <time>2021-12-05T18:46:43Z</time>
      </trkpt>
      <trkpt lat="42.94167" lon="2.31597">
        <ele>267</ele>
        <time>2021-12-05T18:46:49Z</time>
      </trkpt>
      <trkpt lat="42.94193" lon="2.31678">
        <ele>271</ele>
        <time>2021-12-05T18:47:01Z</time>
      </trkpt>
      <trkpt lat="42.94206" lon="2.31703">
        <ele>272</ele>
        <time>2021-12-05T18:47:05Z</time>
      </trkpt>
      <trkpt lat="42.94222" lon="2.31729">
        <ele>271</ele>
        <time>2021-12-05T18:47:09Z</time>
      </trkpt>
      <trkpt lat="42.94235" lon="2.31743">
        <ele>270</ele>
        <time>2021-12-05T18:47:12Z</time>
      </trkpt>
      <trkpt lat="42.94247" lon="2.31753">
        <ele>268</ele>
        <time>2021-12-05T18:47:14Z</time>
      </trkpt>
      <trkpt lat="42.94266" lon="2.31759">
        <ele>269</ele>
        <time>2021-12-05T18:47:18Z</time>
      </trkpt>
      <trkpt lat="42.94303" lon="2.31759">
        <ele>272</ele>
        <time>2021-12-05T18:47:24Z</time>
      </trkpt>
      <trkpt lat="42.94314" lon="2.31762">
        <ele>272</ele>
        <time>2021-12-05T18:47:26Z</time>
      </trkpt>
      <trkpt lat="42.94389" lon="2.31797">
        <ele>274</ele>
        <time>2021-12-05T18:47:41Z</time>
      </trkpt>
      <trkpt lat="42.944" lon="2.31806">
        <ele>274</ele>
        <time>2021-12-05T18:47:43Z</time>
      </trkpt>
      <trkpt lat="42.94411" lon="2.31821">
        <ele>272</ele>
        <time>2021-12-05T18:47:46Z</time>
      </trkpt>
      <trkpt lat="42.94435" lon="2.31868">
        <ele>269</ele>
        <time>2021-12-05T18:47:53Z</time>
      </trkpt>
      <trkpt lat="42.94573" lon="2.32159">
        <ele>270</ele>
        <time>2021-12-05T18:48:38Z</time>
      </trkpt>
      <trkpt lat="42.94587" lon="2.32194">
        <ele>270</ele>
        <time>2021-12-05T18:48:43Z</time>
      </trkpt>
      <trkpt lat="42.94606" lon="2.32253">
        <ele>271</ele>
        <time>2021-12-05T18:48:52Z</time>
      </trkpt>
      <trkpt lat="42.94619" lon="2.32302">
        <ele>272</ele>
        <time>2021-12-05T18:48:59Z</time>
      </trkpt>
      <trkpt lat="42.94635" lon="2.32407">
        <ele>273</ele>
        <time>2021-12-05T18:49:13Z</time>
      </trkpt>
      <trkpt lat="42.94638" lon="2.32515">
        <ele>271</ele>
        <time>2021-12-05T18:49:27Z</time>
      </trkpt>
      <trkpt lat="42.9463" lon="2.32829">
        <ele>275</ele>
        <time>2021-12-05T18:50:08Z</time>
      </trkpt>
      <trkpt lat="42.9463" lon="2.32883">
        <ele>275</ele>
        <time>2021-12-05T18:50:15Z</time>
      </trkpt>
      <trkpt lat="42.94632" lon="2.32908">
        <ele>276</ele>
        <time>2021-12-05T18:50:18Z</time>
      </trkpt>
      <trkpt lat="42.94667" lon="2.33076">
        <ele>278</ele>
        <time>2021-12-05T18:50:41Z</time>
      </trkpt>
      <trkpt lat="42.94682" lon="2.3313">
        <ele>279</ele>
        <time>2021-12-05T18:50:48Z</time>
      </trkpt>
      <trkpt lat="42.94703" lon="2.33176">
        <ele>279</ele>
        <time>2021-12-05T18:50:55Z</time>
      </trkpt>
      <trkpt lat="42.94766" lon="2.33276">
        <ele>281</ele>
        <time>2021-12-05T18:51:12Z</time>
      </trkpt>
      <trkpt lat="42.9489" lon="2.33462">
        <ele>285</ele>
        <time>2021-12-05T18:51:45Z</time>
      </trkpt>
      <trkpt lat="42.949" lon="2.33474">
        <ele>285</ele>
        <time>2021-12-05T18:51:48Z</time>
      </trkpt>
      <trkpt lat="42.9491" lon="2.3348">
        <ele>285</ele>
        <time>2021-12-05T18:51:49Z</time>
      </trkpt>
      <trkpt lat="42.94986" lon="2.33518">
        <ele>293</ele>
        <time>2021-12-05T18:52:04Z</time>
      </trkpt>
      <trkpt lat="42.95006" lon="2.33533">
        <ele>292</ele>
        <time>2021-12-05T18:52:08Z</time>
      </trkpt>
      <trkpt lat="42.95022" lon="2.3355">
        <ele>290</ele>
        <time>2021-12-05T18:52:12Z</time>
      </trkpt>
      <trkpt lat="42.95036" lon="2.3357">
        <ele>286</ele>
        <time>2021-12-05T18:52:15Z</time>
      </trkpt>
      <trkpt lat="42.95043" lon="2.33585">
        <ele>284</ele>
        <time>2021-12-05T18:52:17Z</time>
      </trkpt>
      <trkpt lat="42.95055" lon="2.3361">
        <ele>284</ele>
        <time>2021-12-05T18:52:21Z</time>
      </trkpt>
      <trkpt lat="42.95112" lon="2.33728">
        <ele>289</ele>
        <time>2021-12-05T18:52:40Z</time>
      </trkpt>
      <trkpt lat="42.9512" lon="2.33751">
        <ele>291</ele>
        <time>2021-12-05T18:52:43Z</time>
      </trkpt>
      <trkpt lat="42.95122" lon="2.33765">
        <ele>292</ele>
        <time>2021-12-05T18:52:45Z</time>
      </trkpt>
      <trkpt lat="42.95122" lon="2.33781">
        <ele>292</ele>
        <time>2021-12-05T18:52:47Z</time>
      </trkpt>
      <trkpt lat="42.9512" lon="2.33799">
        <ele>292</ele>
        <time>2021-12-05T18:52:49Z</time>
      </trkpt>
      <trkpt lat="42.95112" lon="2.33834">
        <ele>292</ele>
        <time>2021-12-05T18:52:54Z</time>
      </trkpt>
      <trkpt lat="42.95111" lon="2.33868">
        <ele>294</ele>
        <time>2021-12-05T18:52:59Z</time>
      </trkpt>
      <trkpt lat="42.95107" lon="2.33896">
        <ele>295</ele>
        <time>2021-12-05T18:53:02Z</time>
      </trkpt>
      <trkpt lat="42.95101" lon="2.33913">
        <ele>295</ele>
        <time>2021-12-05T18:53:05Z</time>
      </trkpt>
      <trkpt lat="42.95086" lon="2.33947">
        <ele>294</ele>
        <time>2021-12-05T18:53:10Z</time>
      </trkpt>
      <trkpt lat="42.95081" lon="2.33965">
        <ele>294</ele>
        <time>2021-12-05T18:53:12Z</time>
      </trkpt>
      <trkpt lat="42.95074" lon="2.33997">
        <ele>295</ele>
        <time>2021-12-05T18:53:17Z</time>
      </trkpt>
      <trkpt lat="42.95071" lon="2.34094">
        <ele>298</ele>
        <time>2021-12-05T18:53:29Z</time>
      </trkpt>
      <trkpt lat="42.95068" lon="2.34104">
        <ele>299</ele>
        <time>2021-12-05T18:53:31Z</time>
      </trkpt>
      <trkpt lat="42.95063" lon="2.34111">
        <ele>299</ele>
        <time>2021-12-05T18:53:32Z</time>
      </trkpt>
      <trkpt lat="42.95056" lon="2.34118">
        <ele>300</ele>
        <time>2021-12-05T18:53:34Z</time>
      </trkpt>
      <trkpt lat="42.95027" lon="2.34133">
        <ele>299</ele>
        <time>2021-12-05T18:53:39Z</time>
      </trkpt>
      <trkpt lat="42.95019" lon="2.3414">
        <ele>299</ele>
        <time>2021-12-05T18:53:41Z</time>
      </trkpt>
      <trkpt lat="42.95014" lon="2.34149">
        <ele>299</ele>
        <time>2021-12-05T18:53:42Z</time>
      </trkpt>
      <trkpt lat="42.95009" lon="2.34165">
        <ele>300</ele>
        <time>2021-12-05T18:53:45Z</time>
      </trkpt>
      <trkpt lat="42.94987" lon="2.34279">
        <ele>301</ele>
        <time>2021-12-05T18:54:00Z</time>
      </trkpt>
      <trkpt lat="42.94985" lon="2.34296">
        <ele>302</ele>
        <time>2021-12-05T18:54:02Z</time>
      </trkpt>
      <trkpt lat="42.94985" lon="2.34369">
        <ele>307</ele>
        <time>2021-12-05T18:54:12Z</time>
      </trkpt>
      <trkpt lat="42.94983" lon="2.34387">
        <ele>308</ele>
        <time>2021-12-05T18:54:14Z</time>
      </trkpt>
      <trkpt lat="42.94978" lon="2.34403">
        <ele>309</ele>
        <time>2021-12-05T18:54:16Z</time>
      </trkpt>
      <trkpt lat="42.94939" lon="2.34495">
        <ele>314</ele>
        <time>2021-12-05T18:54:30Z</time>
      </trkpt>
      <trkpt lat="42.94924" lon="2.3451">
        <ele>313</ele>
        <time>2021-12-05T18:54:33Z</time>
      </trkpt>
      <trkpt lat="42.94873" lon="2.34521">
        <ele>309</ele>
        <time>2021-12-05T18:54:43Z</time>
      </trkpt>
      <trkpt lat="42.94857" lon="2.34531">
        <ele>309</ele>
        <time>2021-12-05T18:54:46Z</time>
      </trkpt>
      <trkpt lat="42.94849" lon="2.3454">
        <ele>309</ele>
        <time>2021-12-05T18:54:48Z</time>
      </trkpt>
      <trkpt lat="42.94841" lon="2.34554">
        <ele>311</ele>
        <time>2021-12-05T18:54:50Z</time>
      </trkpt>
      <trkpt lat="42.94751" lon="2.34751">
        <ele>319</ele>
        <time>2021-12-05T18:55:20Z</time>
      </trkpt>
      <trkpt lat="42.94743" lon="2.34762">
        <ele>321</ele>
        <time>2021-12-05T18:55:22Z</time>
      </trkpt>
      <trkpt lat="42.94728" lon="2.34774">
        <ele>321</ele>
        <time>2021-12-05T18:55:25Z</time>
      </trkpt>
      <trkpt lat="42.94673" lon="2.348">
        <ele>317</ele>
        <time>2021-12-05T18:55:36Z</time>
      </trkpt>
      <trkpt lat="42.94667" lon="2.34805">
        <ele>317</ele>
        <time>2021-12-05T18:55:37Z</time>
      </trkpt>
      <trkpt lat="42.94661" lon="2.34813">
        <ele>317</ele>
        <time>2021-12-05T18:55:38Z</time>
      </trkpt>
      <trkpt lat="42.94658" lon="2.34824">
        <ele>318</ele>
        <time>2021-12-05T18:55:40Z</time>
      </trkpt>
      <trkpt lat="42.94658" lon="2.34845">
        <ele>320</ele>
        <time>2021-12-05T18:55:43Z</time>
      </trkpt>
      <trkpt lat="42.94678" lon="2.34927">
        <ele>325</ele>
        <time>2021-12-05T18:55:54Z</time>
      </trkpt>
      <trkpt lat="42.9469" lon="2.34972">
        <ele>327</ele>
        <time>2021-12-05T18:56:00Z</time>
      </trkpt>
      <trkpt lat="42.94697" lon="2.34985">
        <ele>328</ele>
        <time>2021-12-05T18:56:02Z</time>
      </trkpt>
      <trkpt lat="42.94705" lon="2.34997">
        <ele>329</ele>
        <time>2021-12-05T18:56:04Z</time>
      </trkpt>
      <trkpt lat="42.94719" lon="2.35012">
        <ele>330</ele>
        <time>2021-12-05T18:56:08Z</time>
      </trkpt>
      <trkpt lat="42.9478" lon="2.35039">
        <ele>335</ele>
        <time>2021-12-05T18:56:19Z</time>
      </trkpt>
      <trkpt lat="42.94791" lon="2.35049">
        <ele>336</ele>
        <time>2021-12-05T18:56:21Z</time>
      </trkpt>
      <trkpt lat="42.94804" lon="2.35075">
        <ele>336</ele>
        <time>2021-12-05T18:56:25Z</time>
      </trkpt>
      <trkpt lat="42.94819" lon="2.3512">
        <ele>336</ele>
        <time>2021-12-05T18:56:32Z</time>
      </trkpt>
      <trkpt lat="42.94822" lon="2.35134">
        <ele>336</ele>
        <time>2021-12-05T18:56:34Z</time>
      </trkpt>
      <trkpt lat="42.94823" lon="2.35145">
        <ele>336</ele>
        <time>2021-12-05T18:56:35Z</time>
      </trkpt>
      <trkpt lat="42.94821" lon="2.3516">
        <ele>335</ele>
        <time>2021-12-05T18:56:37Z</time>
      </trkpt>
      <trkpt lat="42.94816" lon="2.35177">
        <ele>335</ele>
        <time>2021-12-05T18:56:40Z</time>
      </trkpt>
      <trkpt lat="42.94791" lon="2.35235">
        <ele>337</ele>
        <time>2021-12-05T18:56:48Z</time>
      </trkpt>
      <trkpt lat="42.94765" lon="2.35287">
        <ele>336</ele>
        <time>2021-12-05T18:56:57Z</time>
      </trkpt>
      <trkpt lat="42.9476" lon="2.35301">
        <ele>335</ele>
        <time>2021-12-05T18:56:59Z</time>
      </trkpt>
      <trkpt lat="42.94756" lon="2.35316">
        <ele>335</ele>
        <time>2021-12-05T18:57:01Z</time>
      </trkpt>
      <trkpt lat="42.94752" lon="2.35388">
        <ele>337</ele>
        <time>2021-12-05T18:57:10Z</time>
      </trkpt>
      <trkpt lat="42.94728" lon="2.35552">
        <ele>339</ele>
        <time>2021-12-05T18:57:32Z</time>
      </trkpt>
      <trkpt lat="42.94727" lon="2.35575">
        <ele>339</ele>
        <time>2021-12-05T18:57:35Z</time>
      </trkpt>
      <trkpt lat="42.94728" lon="2.3559">
        <ele>339</ele>
        <time>2021-12-05T18:57:37Z</time>
      </trkpt>
      <trkpt lat="42.94731" lon="2.35604">
        <ele>338</ele>
        <time>2021-12-05T18:57:39Z</time>
      </trkpt>
      <trkpt lat="42.94736" lon="2.35619">
        <ele>338</ele>
        <time>2021-12-05T18:57:41Z</time>
      </trkpt>
      <trkpt lat="42.94743" lon="2.35634">
        <ele>337</ele>
        <time>2021-12-05T18:57:43Z</time>
      </trkpt>
      <trkpt lat="42.94761" lon="2.3566">
        <ele>338</ele>
        <time>2021-12-05T18:57:48Z</time>
      </trkpt>
      <trkpt lat="42.94808" lon="2.3572">
        <ele>342</ele>
        <time>2021-12-05T18:57:59Z</time>
      </trkpt>
      <trkpt lat="42.9482" lon="2.35738">
        <ele>343</ele>
        <time>2021-12-05T18:58:02Z</time>
      </trkpt>
      <trkpt lat="42.94836" lon="2.35768">
        <ele>344</ele>
        <time>2021-12-05T18:58:07Z</time>
      </trkpt>
      <trkpt lat="42.95125" lon="2.36384">
        <ele>348</ele>
        <time>2021-12-05T18:59:43Z</time>
      </trkpt>
      <trkpt lat="42.95131" lon="2.36399">
        <ele>348</ele>
        <time>2021-12-05T18:59:45Z</time>
      </trkpt>
      <trkpt lat="42.95137" lon="2.36423">
        <ele>347</ele>
        <time>2021-12-05T18:59:48Z</time>
      </trkpt>
      <trkpt lat="42.95145" lon="2.36463">
        <ele>347</ele>
        <time>2021-12-05T18:59:53Z</time>
      </trkpt>
      <trkpt lat="42.95167" lon="2.3667">
        <ele>349</ele>
        <time>2021-12-05T19:00:21Z</time>
      </trkpt>
      <trkpt lat="42.95172" lon="2.36688">
        <ele>349</ele>
        <time>2021-12-05T19:00:23Z</time>
      </trkpt>
      <trkpt lat="42.95178" lon="2.36704">
        <ele>349</ele>
        <time>2021-12-05T19:00:26Z</time>
      </trkpt>
      <trkpt lat="42.95188" lon="2.36716">
        <ele>349</ele>
        <time>2021-12-05T19:00:28Z</time>
      </trkpt>
      <trkpt lat="42.95199" lon="2.36726">
        <ele>350</ele>
        <time>2021-12-05T19:00:30Z</time>
      </trkpt>
      <trkpt lat="42.95214" lon="2.36733">
        <ele>351</ele>
        <time>2021-12-05T19:00:33Z</time>
      </trkpt>
      <trkpt lat="42.95263" lon="2.36747">
        <ele>353</ele>
        <time>2021-12-05T19:00:42Z</time>
      </trkpt>
      <trkpt lat="42.95273" lon="2.36752">
        <ele>353</ele>
        <time>2021-12-05T19:00:44Z</time>
      </trkpt>
      <trkpt lat="42.95284" lon="2.36763">
        <ele>353</ele>
        <time>2021-12-05T19:00:46Z</time>
      </trkpt>
      <trkpt lat="42.95294" lon="2.36779">
        <ele>353</ele>
        <time>2021-12-05T19:00:49Z</time>
      </trkpt>
      <trkpt lat="42.95302" lon="2.36813">
        <ele>352</ele>
        <time>2021-12-05T19:00:54Z</time>
      </trkpt>
      <trkpt lat="42.95377" lon="2.37241">
        <ele>354</ele>
        <time>2021-12-05T19:01:51Z</time>
      </trkpt>
      <trkpt lat="42.95378" lon="2.37261">
        <ele>354</ele>
        <time>2021-12-05T19:01:54Z</time>
      </trkpt>
      <trkpt lat="42.95376" lon="2.37274">
        <ele>355</ele>
        <time>2021-12-05T19:01:55Z</time>
      </trkpt>
      <trkpt lat="42.95372" lon="2.37285">
        <ele>355</ele>
        <time>2021-12-05T19:01:57Z</time>
      </trkpt>
      <trkpt lat="42.95362" lon="2.37303">
        <ele>355</ele>
        <time>2021-12-05T19:02:00Z</time>
      </trkpt>
      <trkpt lat="42.95354" lon="2.37352">
        <ele>358</ele>
        <time>2021-12-05T19:02:06Z</time>
      </trkpt>
      <trkpt lat="42.95345" lon="2.37363">
        <ele>358</ele>
        <time>2021-12-05T19:02:09Z</time>
      </trkpt>
      <trkpt lat="42.95322" lon="2.37414">
        <ele>361</ele>
        <time>2021-12-05T19:02:16Z</time>
      </trkpt>
      <trkpt lat="42.9531" lon="2.37446">
        <ele>362</ele>
        <time>2021-12-05T19:02:21Z</time>
      </trkpt>
      <trkpt lat="42.95303" lon="2.37473">
        <ele>362</ele>
        <time>2021-12-05T19:02:25Z</time>
      </trkpt>
      <trkpt lat="42.95288" lon="2.37551">
        <ele>364</ele>
        <time>2021-12-05T19:02:35Z</time>
      </trkpt>
      <trkpt lat="42.95308" lon="2.37589">
        <ele>366</ele>
        <time>2021-12-05T19:02:41Z</time>
      </trkpt>
      <trkpt lat="42.95286" lon="2.37651">
        <ele>367</ele>
        <time>2021-12-05T19:02:50Z</time>
      </trkpt>
      <trkpt lat="42.95284" lon="2.37669">
        <ele>367</ele>
        <time>2021-12-05T19:02:53Z</time>
      </trkpt>
      <trkpt lat="42.95285" lon="2.37678">
        <ele>367</ele>
        <time>2021-12-05T19:02:54Z</time>
      </trkpt>
      <trkpt lat="42.95289" lon="2.37692">
        <ele>367</ele>
        <time>2021-12-05T19:02:56Z</time>
      </trkpt>
      <trkpt lat="42.95344" lon="2.37758">
        <ele>371</ele>
        <time>2021-12-05T19:03:09Z</time>
      </trkpt>
      <trkpt lat="42.95373" lon="2.37791">
        <ele>376</ele>
        <time>2021-12-05T19:03:16Z</time>
      </trkpt>
      <trkpt lat="42.95381" lon="2.37797">
        <ele>378</ele>
        <time>2021-12-05T19:03:17Z</time>
      </trkpt>
      <trkpt lat="42.95388" lon="2.37798">
        <ele>379</ele>
        <time>2021-12-05T19:03:19Z</time>
      </trkpt>
      <trkpt lat="42.95395" lon="2.37794">
        <ele>379</ele>
        <time>2021-12-05T19:03:20Z</time>
      </trkpt>
      <trkpt lat="42.954" lon="2.37787">
        <ele>380</ele>
        <time>2021-12-05T19:03:21Z</time>
      </trkpt>
      <trkpt lat="42.95405" lon="2.37774">
        <ele>379</ele>
        <time>2021-12-05T19:03:23Z</time>
      </trkpt>
      <trkpt lat="42.95407" lon="2.3775">
        <ele>378</ele>
        <time>2021-12-05T19:03:26Z</time>
      </trkpt>
      <trkpt lat="42.9541" lon="2.37739">
        <ele>378</ele>
        <time>2021-12-05T19:03:28Z</time>
      </trkpt>
      <trkpt lat="42.95437" lon="2.37707">
        <ele>379</ele>
        <time>2021-12-05T19:03:34Z</time>
      </trkpt>
      <trkpt lat="42.95455" lon="2.37674">
        <ele>379</ele>
        <time>2021-12-05T19:03:39Z</time>
      </trkpt>
      <trkpt lat="42.95461" lon="2.37667">
        <ele>379</ele>
        <time>2021-12-05T19:03:41Z</time>
      </trkpt>
      <trkpt lat="42.9552" lon="2.37641">
        <ele>379</ele>
        <time>2021-12-05T19:03:52Z</time>
      </trkpt>
      <trkpt lat="42.95532" lon="2.37641">
        <ele>379</ele>
        <time>2021-12-05T19:03:54Z</time>
      </trkpt>
      <trkpt lat="42.95558" lon="2.37664">
        <ele>379</ele>
        <time>2021-12-05T19:04:00Z</time>
      </trkpt>
      <trkpt lat="42.9556" lon="2.37671">
        <ele>380</ele>
        <time>2021-12-05T19:04:01Z</time>
      </trkpt>
      <trkpt lat="42.95559" lon="2.37682">
        <ele>381</ele>
        <time>2021-12-05T19:04:02Z</time>
      </trkpt>
      <trkpt lat="42.9555" lon="2.37724">
        <ele>386</ele>
        <time>2021-12-05T19:04:08Z</time>
      </trkpt>
      <trkpt lat="42.95547" lon="2.37745">
        <ele>388</ele>
        <time>2021-12-05T19:04:10Z</time>
      </trkpt>
      <trkpt lat="42.95546" lon="2.37765">
        <ele>390</ele>
        <time>2021-12-05T19:04:13Z</time>
      </trkpt>
      <trkpt lat="42.9555" lon="2.37801">
        <ele>393</ele>
        <time>2021-12-05T19:04:18Z</time>
      </trkpt>
      <trkpt lat="42.95556" lon="2.37816">
        <ele>395</ele>
        <time>2021-12-05T19:04:20Z</time>
      </trkpt>
      <trkpt lat="42.9556" lon="2.3782">
        <ele>395</ele>
        <time>2021-12-05T19:04:21Z</time>
      </trkpt>
      <trkpt lat="42.9558" lon="2.37819">
        <ele>394</ele>
        <time>2021-12-05T19:04:24Z</time>
      </trkpt>
      <trkpt lat="42.95589" lon="2.37826">
        <ele>395</ele>
        <time>2021-12-05T19:04:26Z</time>
      </trkpt>
      <trkpt lat="42.95592" lon="2.37836">
        <ele>396</ele>
        <time>2021-12-05T19:04:28Z</time>
      </trkpt>
      <trkpt lat="42.95591" lon="2.37866">
        <ele>400</ele>
        <time>2021-12-05T19:04:32Z</time>
      </trkpt>
      <trkpt lat="42.95593" lon="2.37875">
        <ele>401</ele>
        <time>2021-12-05T19:04:33Z</time>
      </trkpt>
      <trkpt lat="42.95603" lon="2.37892">
        <ele>402</ele>
        <time>2021-12-05T19:04:36Z</time>
      </trkpt>
      <trkpt lat="42.95609" lon="2.37905">
        <ele>403</ele>
        <time>2021-12-05T19:04:38Z</time>
      </trkpt>
      <trkpt lat="42.95615" lon="2.37945">
        <ele>407</ele>
        <time>2021-12-05T19:04:43Z</time>
      </trkpt>
      <trkpt lat="42.9562" lon="2.37956">
        <ele>408</ele>
        <time>2021-12-05T19:04:45Z</time>
      </trkpt>
      <trkpt lat="42.95627" lon="2.37964">
        <ele>409</ele>
        <time>2021-12-05T19:04:46Z</time>
      </trkpt>
      <trkpt lat="42.95656" lon="2.37977">
        <ele>411</ele>
        <time>2021-12-05T19:04:52Z</time>
      </trkpt>
      <trkpt lat="42.95666" lon="2.37978">
        <ele>412</ele>
        <time>2021-12-05T19:04:54Z</time>
      </trkpt>
      <trkpt lat="42.95705" lon="2.37973">
        <ele>415</ele>
        <time>2021-12-05T19:05:01Z</time>
      </trkpt>
      <trkpt lat="42.95716" lon="2.37966">
        <ele>416</ele>
        <time>2021-12-05T19:05:03Z</time>
      </trkpt>
      <trkpt lat="42.95749" lon="2.37953">
        <ele>418</ele>
        <time>2021-12-05T19:05:09Z</time>
      </trkpt>
      <trkpt lat="42.95771" lon="2.37937">
        <ele>421</ele>
        <time>2021-12-05T19:05:13Z</time>
      </trkpt>
      <trkpt lat="42.95778" lon="2.37926">
        <ele>422</ele>
        <time>2021-12-05T19:05:15Z</time>
      </trkpt>
      <trkpt lat="42.95783" lon="2.37913">
        <ele>422</ele>
        <time>2021-12-05T19:05:17Z</time>
      </trkpt>
      <trkpt lat="42.95788" lon="2.37888">
        <ele>423</ele>
        <time>2021-12-05T19:05:20Z</time>
      </trkpt>
      <trkpt lat="42.95787" lon="2.37878">
        <ele>423</ele>
        <time>2021-12-05T19:05:22Z</time>
      </trkpt>
      <trkpt lat="42.95783" lon="2.37866">
        <ele>422</ele>
        <time>2021-12-05T19:05:23Z</time>
      </trkpt>
      <trkpt lat="42.9577" lon="2.37836">
        <ele>420</ele>
        <time>2021-12-05T19:05:28Z</time>
      </trkpt>
      <trkpt lat="42.95769" lon="2.37769">
        <ele>417</ele>
        <time>2021-12-05T19:05:37Z</time>
      </trkpt>
      <trkpt lat="42.95771" lon="2.37752">
        <ele>416</ele>
        <time>2021-12-05T19:05:39Z</time>
      </trkpt>
      <trkpt lat="42.95775" lon="2.3774">
        <ele>415</ele>
        <time>2021-12-05T19:05:41Z</time>
      </trkpt>
      <trkpt lat="42.95783" lon="2.37732">
        <ele>415</ele>
        <time>2021-12-05T19:05:42Z</time>
      </trkpt>
      <trkpt lat="42.95809" lon="2.37718">
        <ele>415</ele>
        <time>2021-12-05T19:05:47Z</time>
      </trkpt>
      <trkpt lat="42.95816" lon="2.37719">
        <ele>416</ele>
        <time>2021-12-05T19:05:49Z</time>
      </trkpt>
      <trkpt lat="42.95823" lon="2.37725">
        <ele>417</ele>
        <time>2021-12-05T19:05:50Z</time>
      </trkpt>
      <trkpt lat="42.9583" lon="2.37739">
        <ele>420</ele>
        <time>2021-12-05T19:05:52Z</time>
      </trkpt>
      <trkpt lat="42.95837" lon="2.37772">
        <ele>424</ele>
        <time>2021-12-05T19:05:57Z</time>
      </trkpt>
      <trkpt lat="42.95841" lon="2.37825">
        <ele>430</ele>
        <time>2021-12-05T19:06:04Z</time>
      </trkpt>
      <trkpt lat="42.95835" lon="2.37879">
        <ele>432</ele>
        <time>2021-12-05T19:06:11Z</time>
      </trkpt>
      <trkpt lat="42.95835" lon="2.37896">
        <ele>433</ele>
        <time>2021-12-05T19:06:13Z</time>
      </trkpt>
      <trkpt lat="42.95838" lon="2.37913">
        <ele>433</ele>
        <time>2021-12-05T19:06:15Z</time>
      </trkpt>
      <trkpt lat="42.95843" lon="2.37926">
        <ele>434</ele>
        <time>2021-12-05T19:06:17Z</time>
      </trkpt>
      <trkpt lat="42.9585" lon="2.37935">
        <ele>435</ele>
        <time>2021-12-05T19:06:19Z</time>
      </trkpt>
      <trkpt lat="42.9586" lon="2.37941">
        <ele>436</ele>
        <time>2021-12-05T19:06:21Z</time>
      </trkpt>
      <trkpt lat="42.95894" lon="2.3795">
        <ele>440</ele>
        <time>2021-12-05T19:06:27Z</time>
      </trkpt>
      <trkpt lat="42.95936" lon="2.37941">
        <ele>443</ele>
        <time>2021-12-05T19:06:35Z</time>
      </trkpt>
      <trkpt lat="42.95959" lon="2.37947">
        <ele>445</ele>
        <time>2021-12-05T19:06:39Z</time>
      </trkpt>
      <trkpt lat="42.95967" lon="2.37947">
        <ele>446</ele>
        <time>2021-12-05T19:06:40Z</time>
      </trkpt>
      <trkpt lat="42.95991" lon="2.37938">
        <ele>447</ele>
        <time>2021-12-05T19:06:45Z</time>
      </trkpt>
      <trkpt lat="42.95997" lon="2.37942">
        <ele>448</ele>
        <time>2021-12-05T19:06:46Z</time>
      </trkpt>
      <trkpt lat="42.96002" lon="2.3795">
        <ele>449</ele>
        <time>2021-12-05T19:06:47Z</time>
      </trkpt>
      <trkpt lat="42.96003" lon="2.3796">
        <ele>451</ele>
        <time>2021-12-05T19:06:49Z</time>
      </trkpt>
      <trkpt lat="42.95999" lon="2.37974">
        <ele>453</ele>
        <time>2021-12-05T19:06:50Z</time>
      </trkpt>
      <trkpt lat="42.95982" lon="2.37979">
        <ele>452</ele>
        <time>2021-12-05T19:06:54Z</time>
      </trkpt>
      <trkpt lat="42.95962" lon="2.37982">
        <ele>451</ele>
        <time>2021-12-05T19:06:57Z</time>
      </trkpt>
      <trkpt lat="42.95955" lon="2.37987">
        <ele>451</ele>
        <time>2021-12-05T19:06:59Z</time>
      </trkpt>
      <trkpt lat="42.95947" lon="2.38">
        <ele>452</ele>
        <time>2021-12-05T19:07:01Z</time>
      </trkpt>
      <trkpt lat="42.95898" lon="2.38091">
        <ele>456</ele>
        <time>2021-12-05T19:07:15Z</time>
      </trkpt>
      <trkpt lat="42.95892" lon="2.38129">
        <ele>459</ele>
        <time>2021-12-05T19:07:21Z</time>
      </trkpt>
      <trkpt lat="42.95886" lon="2.38145">
        <ele>460</ele>
        <time>2021-12-05T19:07:23Z</time>
      </trkpt>
      <trkpt lat="42.95833" lon="2.38226">
        <ele>463</ele>
        <time>2021-12-05T19:07:37Z</time>
      </trkpt>
      <trkpt lat="42.95801" lon="2.38278">
        <ele>462</ele>
        <time>2021-12-05T19:07:46Z</time>
      </trkpt>
      <trkpt lat="42.95795" lon="2.38297">
        <ele>463</ele>
        <time>2021-12-05T19:07:49Z</time>
      </trkpt>
      <trkpt lat="42.95793" lon="2.38311">
        <ele>463</ele>
        <time>2021-12-05T19:07:50Z</time>
      </trkpt>
      <trkpt lat="42.95792" lon="2.3832">
        <ele>463</ele>
        <time>2021-12-05T19:07:52Z</time>
      </trkpt>
      <trkpt lat="42.95794" lon="2.38332">
        <ele>464</ele>
        <time>2021-12-05T19:07:53Z</time>
      </trkpt>
      <trkpt lat="42.95798" lon="2.38341">
        <ele>464</ele>
        <time>2021-12-05T19:07:55Z</time>
      </trkpt>
      <trkpt lat="42.95806" lon="2.38353">
        <ele>465</ele>
        <time>2021-12-05T19:07:57Z</time>
      </trkpt>
      <trkpt lat="42.95827" lon="2.3837">
        <ele>468</ele>
        <time>2021-12-05T19:08:01Z</time>
      </trkpt>
      <trkpt lat="42.95837" lon="2.38375">
        <ele>470</ele>
        <time>2021-12-05T19:08:03Z</time>
      </trkpt>
      <trkpt lat="42.95847" lon="2.38376">
        <ele>471</ele>
        <time>2021-12-05T19:08:05Z</time>
      </trkpt>
      <trkpt lat="42.95881" lon="2.38386">
        <ele>474</ele>
        <time>2021-12-05T19:08:11Z</time>
      </trkpt>
      <trkpt lat="42.95893" lon="2.38387">
        <ele>475</ele>
        <time>2021-12-05T19:08:13Z</time>
      </trkpt>
      <trkpt lat="42.95941" lon="2.38374">
        <ele>481</ele>
        <time>2021-12-05T19:08:22Z</time>
      </trkpt>
      <trkpt lat="42.95954" lon="2.38376">
        <ele>482</ele>
        <time>2021-12-05T19:08:24Z</time>
      </trkpt>
      <trkpt lat="42.95983" lon="2.38399">
        <ele>483</ele>
        <time>2021-12-05T19:08:30Z</time>
      </trkpt>
      <trkpt lat="42.95994" lon="2.38402">
        <ele>484</ele>
        <time>2021-12-05T19:08:32Z</time>
      </trkpt>
      <trkpt lat="42.96014" lon="2.38402">
        <ele>486</ele>
        <time>2021-12-05T19:08:36Z</time>
      </trkpt>
      <trkpt lat="42.96056" lon="2.3839">
        <ele>493</ele>
        <time>2021-12-05T19:08:43Z</time>
      </trkpt>
      <trkpt lat="42.96074" lon="2.38391">
        <ele>495</ele>
        <time>2021-12-05T19:08:46Z</time>
      </trkpt>
      <trkpt lat="42.96093" lon="2.38399">
        <ele>496</ele>
        <time>2021-12-05T19:08:50Z</time>
      </trkpt>
      <trkpt lat="42.9611" lon="2.3841">
        <ele>496</ele>
        <time>2021-12-05T19:08:53Z</time>
      </trkpt>
      <trkpt lat="42.96152" lon="2.38427">
        <ele>498</ele>
        <time>2021-12-05T19:09:01Z</time>
      </trkpt>
      <trkpt lat="42.96179" lon="2.38435">
        <ele>499</ele>
        <time>2021-12-05T19:09:06Z</time>
      </trkpt>
      <trkpt lat="42.96195" lon="2.38436">
        <ele>501</ele>
        <time>2021-12-05T19:09:09Z</time>
      </trkpt>
      <trkpt lat="42.9621" lon="2.38432">
        <ele>503</ele>
        <time>2021-12-05T19:09:12Z</time>
      </trkpt>
      <trkpt lat="42.96229" lon="2.38423">
        <ele>506</ele>
        <time>2021-12-05T19:09:15Z</time>
      </trkpt>
      <trkpt lat="42.96243" lon="2.38421">
        <ele>508</ele>
        <time>2021-12-05T19:09:18Z</time>
      </trkpt>
      <trkpt lat="42.96255" lon="2.38422">
        <ele>509</ele>
        <time>2021-12-05T19:09:20Z</time>
      </trkpt>
      <trkpt lat="42.96266" lon="2.38426">
        <ele>510</ele>
        <time>2021-12-05T19:09:22Z</time>
      </trkpt>
      <trkpt lat="42.96287" lon="2.3844">
        <ele>511</ele>
        <time>2021-12-05T19:09:26Z</time>
      </trkpt>
      <trkpt lat="42.96313" lon="2.38447">
        <ele>514</ele>
        <time>2021-12-05T19:09:31Z</time>
      </trkpt>
      <trkpt lat="42.96325" lon="2.38453">
        <ele>516</ele>
        <time>2021-12-05T19:09:33Z</time>
      </trkpt>
      <trkpt lat="42.96332" lon="2.3846">
        <ele>516</ele>
        <time>2021-12-05T19:09:35Z</time>
      </trkpt>
      <trkpt lat="42.96352" lon="2.38494">
        <ele>515</ele>
        <time>2021-12-05T19:09:40Z</time>
      </trkpt>
      <trkpt lat="42.96389" lon="2.38566">
        <ele>516</ele>
        <time>2021-12-05T19:09:52Z</time>
      </trkpt>
      <trkpt lat="42.96394" lon="2.38572">
        <ele>517</ele>
        <time>2021-12-05T19:09:53Z</time>
      </trkpt>
      <trkpt lat="42.9642" lon="2.38576">
        <ele>520</ele>
        <time>2021-12-05T19:09:58Z</time>
      </trkpt>
      <trkpt lat="42.96522" lon="2.38567">
        <ele>526</ele>
        <time>2021-12-05T19:10:16Z</time>
      </trkpt>
      <trkpt lat="42.9655" lon="2.3857">
        <ele>526</ele>
        <time>2021-12-05T19:10:21Z</time>
      </trkpt>
      <trkpt lat="42.96577" lon="2.38569">
        <ele>527</ele>
        <time>2021-12-05T19:10:26Z</time>
      </trkpt>
      <trkpt lat="42.96588" lon="2.38559">
        <ele>529</ele>
        <time>2021-12-05T19:10:28Z</time>
      </trkpt>
      <trkpt lat="42.96599" lon="2.38542">
        <ele>531</ele>
        <time>2021-12-05T19:10:31Z</time>
      </trkpt>
      <trkpt lat="42.96607" lon="2.38526">
        <ele>534</ele>
        <time>2021-12-05T19:10:33Z</time>
      </trkpt>
      <trkpt lat="42.96624" lon="2.38485">
        <ele>539</ele>
        <time>2021-12-05T19:10:39Z</time>
      </trkpt>
      <trkpt lat="42.96632" lon="2.38474">
        <ele>540</ele>
        <time>2021-12-05T19:10:41Z</time>
      </trkpt>
      <trkpt lat="42.96642" lon="2.38464">
        <ele>541</ele>
        <time>2021-12-05T19:10:44Z</time>
      </trkpt>
      <trkpt lat="42.96651" lon="2.38458">
        <ele>542</ele>
        <time>2021-12-05T19:10:45Z</time>
      </trkpt>
      <trkpt lat="42.96662" lon="2.38456">
        <ele>542</ele>
        <time>2021-12-05T19:10:47Z</time>
      </trkpt>
      <trkpt lat="42.96687" lon="2.38459">
        <ele>543</ele>
        <time>2021-12-05T19:10:52Z</time>
      </trkpt>
      <trkpt lat="42.96748" lon="2.38449">
        <ele>547</ele>
        <time>2021-12-05T19:11:03Z</time>
      </trkpt>
      <trkpt lat="42.96759" lon="2.38445">
        <ele>549</ele>
        <time>2021-12-05T19:11:05Z</time>
      </trkpt>
      <trkpt lat="42.96769" lon="2.38437">
        <ele>550</ele>
        <time>2021-12-05T19:11:07Z</time>
      </trkpt>
      <trkpt lat="42.96775" lon="2.38434">
        <ele>551</ele>
        <time>2021-12-05T19:11:08Z</time>
      </trkpt>
      <trkpt lat="42.96786" lon="2.38434">
        <ele>552</ele>
        <time>2021-12-05T19:11:10Z</time>
      </trkpt>
      <trkpt lat="42.96792" lon="2.38438">
        <ele>552</ele>
        <time>2021-12-05T19:11:11Z</time>
      </trkpt>
      <trkpt lat="42.96807" lon="2.38457">
        <ele>553</ele>
        <time>2021-12-05T19:11:15Z</time>
      </trkpt>
      <trkpt lat="42.96818" lon="2.38459">
        <ele>554</ele>
        <time>2021-12-05T19:11:17Z</time>
      </trkpt>
      <trkpt lat="42.9683" lon="2.38453">
        <ele>555</ele>
        <time>2021-12-05T19:11:19Z</time>
      </trkpt>
      <trkpt lat="42.96852" lon="2.38435">
        <ele>558</ele>
        <time>2021-12-05T19:11:24Z</time>
      </trkpt>
      <trkpt lat="42.96898" lon="2.38422">
        <ele>562</ele>
        <time>2021-12-05T19:11:32Z</time>
      </trkpt>
      <trkpt lat="42.9691" lon="2.38422">
        <ele>563</ele>
        <time>2021-12-05T19:11:34Z</time>
      </trkpt>
      <trkpt lat="42.96918" lon="2.38426">
        <ele>563</ele>
        <time>2021-12-05T19:11:36Z</time>
      </trkpt>
      <trkpt lat="42.96924" lon="2.38434">
        <ele>564</ele>
        <time>2021-12-05T19:11:37Z</time>
      </trkpt>
      <trkpt lat="42.96926" lon="2.38447">
        <ele>565</ele>
        <time>2021-12-05T19:11:39Z</time>
      </trkpt>
      <trkpt lat="42.96924" lon="2.38463">
        <ele>564</ele>
        <time>2021-12-05T19:11:41Z</time>
      </trkpt>
      <trkpt lat="42.96912" lon="2.38507">
        <ele>562</ele>
        <time>2021-12-05T19:11:47Z</time>
      </trkpt>
      <trkpt lat="42.96904" lon="2.38523">
        <ele>561</ele>
        <time>2021-12-05T19:11:50Z</time>
      </trkpt>
      <trkpt lat="42.969" lon="2.38538">
        <ele>561</ele>
        <time>2021-12-05T19:11:52Z</time>
      </trkpt>
      <trkpt lat="42.96898" lon="2.38565">
        <ele>562</ele>
        <time>2021-12-05T19:11:55Z</time>
      </trkpt>
      <trkpt lat="42.96893" lon="2.38585">
        <ele>561</ele>
        <time>2021-12-05T19:11:58Z</time>
      </trkpt>
      <trkpt lat="42.96891" lon="2.38598">
        <ele>561</ele>
        <time>2021-12-05T19:12:00Z</time>
      </trkpt>
      <trkpt lat="42.96894" lon="2.38612">
        <ele>562</ele>
        <time>2021-12-05T19:12:02Z</time>
      </trkpt>
      <trkpt lat="42.96898" lon="2.38625">
        <ele>563</ele>
        <time>2021-12-05T19:12:03Z</time>
      </trkpt>
      <trkpt lat="42.96905" lon="2.38637">
        <ele>564</ele>
        <time>2021-12-05T19:12:05Z</time>
      </trkpt>
      <trkpt lat="42.96924" lon="2.38654">
        <ele>569</ele>
        <time>2021-12-05T19:12:10Z</time>
      </trkpt>
      <trkpt lat="42.9693" lon="2.38662">
        <ele>570</ele>
        <time>2021-12-05T19:12:11Z</time>
      </trkpt>
      <trkpt lat="42.96936" lon="2.38674">
        <ele>572</ele>
        <time>2021-12-05T19:12:13Z</time>
      </trkpt>
      <trkpt lat="42.96941" lon="2.38703">
        <ele>572</ele>
        <time>2021-12-05T19:12:17Z</time>
      </trkpt>
      <trkpt lat="42.96944" lon="2.3871">
        <ele>573</ele>
        <time>2021-12-05T19:12:18Z</time>
      </trkpt>
      <trkpt lat="42.96949" lon="2.38716">
        <ele>574</ele>
        <time>2021-12-05T19:12:19Z</time>
      </trkpt>
      <trkpt lat="42.96969" lon="2.38722">
        <ele>578</ele>
        <time>2021-12-05T19:12:23Z</time>
      </trkpt>
      <trkpt lat="42.96978" lon="2.3873">
        <ele>580</ele>
        <time>2021-12-05T19:12:25Z</time>
      </trkpt>
      <trkpt lat="42.9699" lon="2.38746">
        <ele>583</ele>
        <time>2021-12-05T19:12:28Z</time>
      </trkpt>
      <trkpt lat="42.96999" lon="2.38761">
        <ele>586</ele>
        <time>2021-12-05T19:12:30Z</time>
      </trkpt>
      <trkpt lat="42.97002" lon="2.38774">
        <ele>588</ele>
        <time>2021-12-05T19:12:32Z</time>
      </trkpt>
      <trkpt lat="42.97001" lon="2.3878">
        <ele>588</ele>
        <time>2021-12-05T19:12:33Z</time>
      </trkpt>
      <trkpt lat="42.9699" lon="2.38813">
        <ele>588</ele>
        <time>2021-12-05T19:12:37Z</time>
      </trkpt>
      <trkpt lat="42.96982" lon="2.38845">
        <ele>587</ele>
        <time>2021-12-05T19:12:42Z</time>
      </trkpt>
      <trkpt lat="42.96981" lon="2.38873">
        <ele>588</ele>
        <time>2021-12-05T19:12:45Z</time>
      </trkpt>
      <trkpt lat="42.96982" lon="2.38903">
        <ele>588</ele>
        <time>2021-12-05T19:12:49Z</time>
      </trkpt>
      <trkpt lat="42.96987" lon="2.3894">
        <ele>590</ele>
        <time>2021-12-05T19:12:54Z</time>
      </trkpt>
      <trkpt lat="42.96993" lon="2.38969">
        <ele>591</ele>
        <time>2021-12-05T19:12:58Z</time>
      </trkpt>
      <trkpt lat="42.97015" lon="2.39022">
        <ele>596</ele>
        <time>2021-12-05T19:13:06Z</time>
      </trkpt>
      <trkpt lat="42.97024" lon="2.39039">
        <ele>599</ele>
        <time>2021-12-05T19:13:09Z</time>
      </trkpt>
      <trkpt lat="42.9703" lon="2.39059">
        <ele>600</ele>
        <time>2021-12-05T19:13:12Z</time>
      </trkpt>
      <trkpt lat="42.97033" lon="2.39083">
        <ele>601</ele>
        <time>2021-12-05T19:13:15Z</time>
      </trkpt>
      <trkpt lat="42.9704" lon="2.39107">
        <ele>603</ele>
        <time>2021-12-05T19:13:18Z</time>
      </trkpt>
      <trkpt lat="42.97062" lon="2.39161">
        <ele>605</ele>
        <time>2021-12-05T19:13:26Z</time>
      </trkpt>
      <trkpt lat="42.97074" lon="2.39176">
        <ele>607</ele>
        <time>2021-12-05T19:13:29Z</time>
      </trkpt>
      <trkpt lat="42.97098" lon="2.39191">
        <ele>611</ele>
        <time>2021-12-05T19:13:34Z</time>
      </trkpt>
      <trkpt lat="42.97135" lon="2.39223">
        <ele>620</ele>
        <time>2021-12-05T19:13:42Z</time>
      </trkpt>
      <trkpt lat="42.97148" lon="2.39209">
        <ele>623</ele>
        <time>2021-12-05T19:13:45Z</time>
      </trkpt>
      <trkpt lat="42.97152" lon="2.39196">
        <ele>624</ele>
        <time>2021-12-05T19:13:46Z</time>
      </trkpt>
      <trkpt lat="42.97151" lon="2.39182">
        <ele>624</ele>
        <time>2021-12-05T19:13:48Z</time>
      </trkpt>
      <trkpt lat="42.97148" lon="2.39172">
        <ele>623</ele>
        <time>2021-12-05T19:13:50Z</time>
      </trkpt>
      <trkpt lat="42.97144" lon="2.39168">
        <ele>622</ele>
        <time>2021-12-05T19:13:51Z</time>
      </trkpt>
      <trkpt lat="42.97123" lon="2.39162">
        <ele>618</ele>
        <time>2021-12-05T19:13:54Z</time>
      </trkpt>
      <trkpt lat="42.97119" lon="2.39156">
        <ele>618</ele>
        <time>2021-12-05T19:13:55Z</time>
      </trkpt>
      <trkpt lat="42.97116" lon="2.39146">
        <ele>618</ele>
        <time>2021-12-05T19:13:57Z</time>
      </trkpt>
      <trkpt lat="42.97115" lon="2.39131">
        <ele>619</ele>
        <time>2021-12-05T19:13:59Z</time>
      </trkpt>
      <trkpt lat="42.9712" lon="2.39016">
        <ele>628</ele>
        <time>2021-12-05T19:14:14Z</time>
      </trkpt>
      <trkpt lat="42.97127" lon="2.38981">
        <ele>632</ele>
        <time>2021-12-05T19:14:18Z</time>
      </trkpt>
      <trkpt lat="42.9713" lon="2.38912">
        <ele>635</ele>
        <time>2021-12-05T19:14:27Z</time>
      </trkpt>
      <trkpt lat="42.97135" lon="2.38873">
        <ele>636</ele>
        <time>2021-12-05T19:14:33Z</time>
      </trkpt>
      <trkpt lat="42.97146" lon="2.38815">
        <ele>638</ele>
        <time>2021-12-05T19:14:40Z</time>
      </trkpt>
      <trkpt lat="42.97154" lon="2.38787">
        <ele>639</ele>
        <time>2021-12-05T19:14:44Z</time>
      </trkpt>
      <trkpt lat="42.97163" lon="2.3877">
        <ele>642</ele>
        <time>2021-12-05T19:14:47Z</time>
      </trkpt>
      <trkpt lat="42.9719" lon="2.38729">
        <ele>651</ele>
        <time>2021-12-05T19:14:54Z</time>
      </trkpt>
      <trkpt lat="42.972" lon="2.38707">
        <ele>655</ele>
        <time>2021-12-05T19:14:58Z</time>
      </trkpt>
      <trkpt lat="42.97204" lon="2.38687">
        <ele>657</ele>
        <time>2021-12-05T19:15:00Z</time>
      </trkpt>
      <trkpt lat="42.97203" lon="2.38672">
        <ele>658</ele>
        <time>2021-12-05T19:15:02Z</time>
      </trkpt>
      <trkpt lat="42.97198" lon="2.3866">
        <ele>657</ele>
        <time>2021-12-05T19:15:04Z</time>
      </trkpt>
      <trkpt lat="42.97183" lon="2.38642">
        <ele>654</ele>
        <time>2021-12-05T19:15:08Z</time>
      </trkpt>
      <trkpt lat="42.97175" lon="2.38629">
        <ele>652</ele>
        <time>2021-12-05T19:15:10Z</time>
      </trkpt>
      <trkpt lat="42.97171" lon="2.3862">
        <ele>652</ele>
        <time>2021-12-05T19:15:11Z</time>
      </trkpt>
      <trkpt lat="42.97168" lon="2.386">
        <ele>653</ele>
        <time>2021-12-05T19:15:14Z</time>
      </trkpt>
      <trkpt lat="42.97173" lon="2.38588">
        <ele>656</ele>
        <time>2021-12-05T19:15:16Z</time>
      </trkpt>
      <trkpt lat="42.97194" lon="2.38579">
        <ele>663</ele>
        <time>2021-12-05T19:15:20Z</time>
      </trkpt>
      <trkpt lat="42.97211" lon="2.38563">
        <ele>667</ele>
        <time>2021-12-05T19:15:23Z</time>
      </trkpt>
      <trkpt lat="42.97222" lon="2.38543">
        <ele>669</ele>
        <time>2021-12-05T19:15:27Z</time>
      </trkpt>
      <trkpt lat="42.97228" lon="2.38523">
        <ele>670</ele>
        <time>2021-12-05T19:15:29Z</time>
      </trkpt>
      <trkpt lat="42.97234" lon="2.38494">
        <ele>670</ele>
        <time>2021-12-05T19:15:33Z</time>
      </trkpt>
      <trkpt lat="42.97234" lon="2.38472">
        <ele>669</ele>
        <time>2021-12-05T19:15:36Z</time>
      </trkpt>
      <trkpt lat="42.97233" lon="2.38454">
        <ele>668</ele>
        <time>2021-12-05T19:15:38Z</time>
      </trkpt>
      <trkpt lat="42.97221" lon="2.38419">
        <ele>662</ele>
        <time>2021-12-05T19:15:44Z</time>
      </trkpt>
      <trkpt lat="42.9722" lon="2.38394">
        <ele>661</ele>
        <time>2021-12-05T19:15:47Z</time>
      </trkpt>
      <trkpt lat="42.97247" lon="2.38331">
        <ele>671</ele>
        <time>2021-12-05T19:15:56Z</time>
      </trkpt>
      <trkpt lat="42.97355" lon="2.38104">
        <ele>683</ele>
        <time>2021-12-05T19:16:32Z</time>
      </trkpt>
      <trkpt lat="42.97374" lon="2.38076">
        <ele>684</ele>
        <time>2021-12-05T19:16:36Z</time>
      </trkpt>
      <trkpt lat="42.97391" lon="2.38058">
        <ele>686</ele>
        <time>2021-12-05T19:16:40Z</time>
      </trkpt>
      <trkpt lat="42.97407" lon="2.38045">
        <ele>689</ele>
        <time>2021-12-05T19:16:44Z</time>
      </trkpt>
      <trkpt lat="42.97421" lon="2.38038">
        <ele>691</ele>
        <time>2021-12-05T19:16:46Z</time>
      </trkpt>
      <trkpt lat="42.97468" lon="2.38025">
        <ele>695</ele>
        <time>2021-12-05T19:16:55Z</time>
      </trkpt>
      <trkpt lat="42.97482" lon="2.38018">
        <ele>696</ele>
        <time>2021-12-05T19:16:57Z</time>
      </trkpt>
      <trkpt lat="42.97525" lon="2.37971">
        <ele>697</ele>
        <time>2021-12-05T19:17:07Z</time>
      </trkpt>
      <trkpt lat="42.97537" lon="2.37961">
        <ele>698</ele>
        <time>2021-12-05T19:17:10Z</time>
      </trkpt>
      <trkpt lat="42.9755" lon="2.37959">
        <ele>700</ele>
        <time>2021-12-05T19:17:12Z</time>
      </trkpt>
      <trkpt lat="42.97634" lon="2.37964">
        <ele>702</ele>
        <time>2021-12-05T19:17:27Z</time>
      </trkpt>
      <trkpt lat="42.97673" lon="2.37962">
        <ele>702</ele>
        <time>2021-12-05T19:17:34Z</time>
      </trkpt>
      <trkpt lat="42.97699" lon="2.37957">
        <ele>701</ele>
        <time>2021-12-05T19:17:39Z</time>
      </trkpt>
      <trkpt lat="42.97711" lon="2.3796">
        <ele>700</ele>
        <time>2021-12-05T19:17:41Z</time>
      </trkpt>
      <trkpt lat="42.97721" lon="2.37966">
        <ele>699</ele>
        <time>2021-12-05T19:17:43Z</time>
      </trkpt>
      <trkpt lat="42.97729" lon="2.37976">
        <ele>698</ele>
        <time>2021-12-05T19:17:45Z</time>
      </trkpt>
      <trkpt lat="42.9774" lon="2.38004">
        <ele>697</ele>
        <time>2021-12-05T19:17:49Z</time>
      </trkpt>
      <trkpt lat="42.97745" lon="2.38011">
        <ele>697</ele>
        <time>2021-12-05T19:17:50Z</time>
      </trkpt>
      <trkpt lat="42.97752" lon="2.38016">
        <ele>697</ele>
        <time>2021-12-05T19:17:52Z</time>
      </trkpt>
      <trkpt lat="42.97762" lon="2.38019">
        <ele>696</ele>
        <time>2021-12-05T19:17:53Z</time>
      </trkpt>
      <trkpt lat="42.97779" lon="2.3802">
        <ele>695</ele>
        <time>2021-12-05T19:17:56Z</time>
      </trkpt>
      <trkpt lat="42.97839" lon="2.38019">
        <ele>690</ele>
        <time>2021-12-05T19:18:07Z</time>
      </trkpt>
      <trkpt lat="42.97849" lon="2.38016">
        <ele>689</ele>
        <time>2021-12-05T19:18:09Z</time>
      </trkpt>
      <trkpt lat="42.97878" lon="2.37992">
        <ele>688</ele>
        <time>2021-12-05T19:18:15Z</time>
      </trkpt>
      <trkpt lat="42.97944" lon="2.37942">
        <ele>683</ele>
        <time>2021-12-05T19:18:28Z</time>
      </trkpt>
      <trkpt lat="42.97955" lon="2.37926">
        <ele>681</ele>
        <time>2021-12-05T19:18:31Z</time>
      </trkpt>
      <trkpt lat="42.97961" lon="2.37911">
        <ele>680</ele>
        <time>2021-12-05T19:18:33Z</time>
      </trkpt>
      <trkpt lat="42.9798" lon="2.37842">
        <ele>678</ele>
        <time>2021-12-05T19:18:43Z</time>
      </trkpt>
      <trkpt lat="42.97992" lon="2.37821">
        <ele>676</ele>
        <time>2021-12-05T19:18:46Z</time>
      </trkpt>
      <trkpt lat="42.98005" lon="2.37807">
        <ele>676</ele>
        <time>2021-12-05T19:18:49Z</time>
      </trkpt>
      <trkpt lat="42.98022" lon="2.37785">
        <ele>676</ele>
        <time>2021-12-05T19:18:54Z</time>
      </trkpt>
      <trkpt lat="42.98034" lon="2.37765">
        <ele>675</ele>
        <time>2021-12-05T19:18:57Z</time>
      </trkpt>
      <trkpt lat="42.98059" lon="2.37709">
        <ele>671</ele>
        <time>2021-12-05T19:19:05Z</time>
      </trkpt>
      <trkpt lat="42.98074" lon="2.37683">
        <ele>669</ele>
        <time>2021-12-05T19:19:10Z</time>
      </trkpt>
      <trkpt lat="42.98111" lon="2.37642">
        <ele>669</ele>
        <time>2021-12-05T19:19:18Z</time>
      </trkpt>
      <trkpt lat="42.98117" lon="2.37641">
        <ele>668</ele>
        <time>2021-12-05T19:19:19Z</time>
      </trkpt>
      <trkpt lat="42.98129" lon="2.37642">
        <ele>668</ele>
        <time>2021-12-05T19:19:21Z</time>
      </trkpt>
      <trkpt lat="42.98148" lon="2.37659">
        <ele>665</ele>
        <time>2021-12-05T19:19:26Z</time>
      </trkpt>
      <trkpt lat="42.98157" lon="2.37664">
        <ele>664</ele>
        <time>2021-12-05T19:19:27Z</time>
      </trkpt>
      <trkpt lat="42.98233" lon="2.37675">
        <ele>663</ele>
        <time>2021-12-05T19:19:41Z</time>
      </trkpt>
      <trkpt lat="42.98418" lon="2.37695">
        <ele>654</ele>
        <time>2021-12-05T19:20:14Z</time>
      </trkpt>
      <trkpt lat="42.98458" lon="2.37695">
        <ele>654</ele>
        <time>2021-12-05T19:20:21Z</time>
      </trkpt>
      <trkpt lat="42.98474" lon="2.37691">
        <ele>653</ele>
        <time>2021-12-05T19:20:24Z</time>
      </trkpt>
      <trkpt lat="42.98486" lon="2.37683">
        <ele>652</ele>
        <time>2021-12-05T19:20:26Z</time>
      </trkpt>
      <trkpt lat="42.98494" lon="2.3767">
        <ele>650</ele>
        <time>2021-12-05T19:20:28Z</time>
      </trkpt>
      <trkpt lat="42.98503" lon="2.37645">
        <ele>650</ele>
        <time>2021-12-05T19:20:32Z</time>
      </trkpt>
      <trkpt lat="42.98513" lon="2.3763">
        <ele>650</ele>
        <time>2021-12-05T19:20:35Z</time>
      </trkpt>
      <trkpt lat="42.98529" lon="2.37616">
        <ele>650</ele>
        <time>2021-12-05T19:20:38Z</time>
      </trkpt>
      <trkpt lat="42.98603" lon="2.37582">
        <ele>645</ele>
        <time>2021-12-05T19:20:52Z</time>
      </trkpt>
      <trkpt lat="42.98665" lon="2.37557">
        <ele>645</ele>
        <time>2021-12-05T19:21:04Z</time>
      </trkpt>
      <trkpt lat="42.98684" lon="2.37547">
        <ele>648</ele>
        <time>2021-12-05T19:21:07Z</time>
      </trkpt>
      <trkpt lat="42.98692" lon="2.37537">
        <ele>648</ele>
        <time>2021-12-05T19:21:09Z</time>
      </trkpt>
      <trkpt lat="42.98696" lon="2.37525">
        <ele>647</ele>
        <time>2021-12-05T19:21:11Z</time>
      </trkpt>
      <trkpt lat="42.98699" lon="2.375">
        <ele>643</ele>
        <time>2021-12-05T19:21:14Z</time>
      </trkpt>
      <trkpt lat="42.98704" lon="2.37488">
        <ele>642</ele>
        <time>2021-12-05T19:21:16Z</time>
      </trkpt>
      <trkpt lat="42.98739" lon="2.37434">
        <ele>639</ele>
        <time>2021-12-05T19:21:25Z</time>
      </trkpt>
      <trkpt lat="42.98756" lon="2.3739">
        <ele>635</ele>
        <time>2021-12-05T19:21:32Z</time>
      </trkpt>
      <trkpt lat="42.98773" lon="2.37355">
        <ele>635</ele>
        <time>2021-12-05T19:21:37Z</time>
      </trkpt>
      <trkpt lat="42.98796" lon="2.37319">
        <ele>636</ele>
        <time>2021-12-05T19:21:43Z</time>
      </trkpt>
      <trkpt lat="42.9885" lon="2.3726">
        <ele>633</ele>
        <time>2021-12-05T19:21:56Z</time>
      </trkpt>
      <trkpt lat="42.98902" lon="2.37209">
        <ele>634</ele>
        <time>2021-12-05T19:22:07Z</time>
      </trkpt>
      <trkpt lat="42.98932" lon="2.3719">
        <ele>633</ele>
        <time>2021-12-05T19:22:13Z</time>
      </trkpt>
      <trkpt lat="42.98958" lon="2.37177">
        <ele>631</ele>
        <time>2021-12-05T19:22:18Z</time>
      </trkpt>
      <trkpt lat="42.98975" lon="2.37172">
        <ele>630</ele>
        <time>2021-12-05T19:22:21Z</time>
      </trkpt>
      <trkpt lat="42.99003" lon="2.37172">
        <ele>631</ele>
        <time>2021-12-05T19:22:26Z</time>
      </trkpt>
      <trkpt lat="42.99057" lon="2.37178">
        <ele>626</ele>
        <time>2021-12-05T19:22:36Z</time>
      </trkpt>
      <trkpt lat="42.99075" lon="2.37182">
        <ele>624</ele>
        <time>2021-12-05T19:22:39Z</time>
      </trkpt>
      <trkpt lat="42.99084" lon="2.37189">
        <ele>624</ele>
        <time>2021-12-05T19:22:41Z</time>
      </trkpt>
      <trkpt lat="42.99095" lon="2.37205">
        <ele>625</ele>
        <time>2021-12-05T19:22:44Z</time>
      </trkpt>
      <trkpt lat="42.9913" lon="2.37277">
        <ele>628</ele>
        <time>2021-12-05T19:22:55Z</time>
      </trkpt>
      <trkpt lat="42.99141" lon="2.37283">
        <ele>627</ele>
        <time>2021-12-05T19:22:57Z</time>
      </trkpt>
      <trkpt lat="42.99151" lon="2.37286">
        <ele>626</ele>
        <time>2021-12-05T19:22:59Z</time>
      </trkpt>
      <trkpt lat="42.9918" lon="2.37277">
        <ele>622</ele>
        <time>2021-12-05T19:23:04Z</time>
      </trkpt>
      <trkpt lat="42.99196" lon="2.37276">
        <ele>620</ele>
        <time>2021-12-05T19:23:07Z</time>
      </trkpt>
      <trkpt lat="42.99207" lon="2.37283">
        <ele>620</ele>
        <time>2021-12-05T19:23:09Z</time>
      </trkpt>
      <trkpt lat="42.99258" lon="2.37339">
        <ele>620</ele>
        <time>2021-12-05T19:23:21Z</time>
      </trkpt>
      <trkpt lat="42.99303" lon="2.37374">
        <ele>621</ele>
        <time>2021-12-05T19:23:30Z</time>
      </trkpt>
      <trkpt lat="42.99392" lon="2.37426">
        <ele>618</ele>
        <time>2021-12-05T19:23:47Z</time>
      </trkpt>
      <trkpt lat="42.99421" lon="2.37436">
        <ele>617</ele>
        <time>2021-12-05T19:23:52Z</time>
      </trkpt>
      <trkpt lat="42.99436" lon="2.37439">
        <ele>618</ele>
        <time>2021-12-05T19:23:55Z</time>
      </trkpt>
      <trkpt lat="42.99451" lon="2.37436">
        <ele>617</ele>
        <time>2021-12-05T19:23:58Z</time>
      </trkpt>
      <trkpt lat="42.99475" lon="2.37423">
        <ele>613</ele>
        <time>2021-12-05T19:24:02Z</time>
      </trkpt>
      <trkpt lat="42.99508" lon="2.37419">
        <ele>611</ele>
        <time>2021-12-05T19:24:08Z</time>
      </trkpt>
      <trkpt lat="42.99529" lon="2.37428">
        <ele>611</ele>
        <time>2021-12-05T19:24:12Z</time>
      </trkpt>
      <trkpt lat="42.99581" lon="2.37465">
        <ele>612</ele>
        <time>2021-12-05T19:24:23Z</time>
      </trkpt>
      <trkpt lat="42.99591" lon="2.37469">
        <ele>612</ele>
        <time>2021-12-05T19:24:25Z</time>
      </trkpt>
      <trkpt lat="42.99603" lon="2.37468">
        <ele>611</ele>
        <time>2021-12-05T19:24:27Z</time>
      </trkpt>
      <trkpt lat="42.99637" lon="2.37445">
        <ele>606</ele>
        <time>2021-12-05T19:24:33Z</time>
      </trkpt>
      <trkpt lat="42.99723" lon="2.3741">
        <ele>605</ele>
        <time>2021-12-05T19:24:49Z</time>
      </trkpt>
      <trkpt lat="42.99733" lon="2.37398">
        <ele>605</ele>
        <time>2021-12-05T19:24:52Z</time>
      </trkpt>
      <trkpt lat="42.99742" lon="2.37379">
        <ele>605</ele>
        <time>2021-12-05T19:24:55Z</time>
      </trkpt>
      <trkpt lat="42.9977" lon="2.37282">
        <ele>604</ele>
        <time>2021-12-05T19:25:08Z</time>
      </trkpt>
      <trkpt lat="42.99785" lon="2.37247">
        <ele>604</ele>
        <time>2021-12-05T19:25:14Z</time>
      </trkpt>
      <trkpt lat="42.99823" lon="2.37177">
        <ele>600</ele>
        <time>2021-12-05T19:25:25Z</time>
      </trkpt>
      <trkpt lat="42.99849" lon="2.37144">
        <ele>598</ele>
        <time>2021-12-05T19:25:31Z</time>
      </trkpt>
      <trkpt lat="42.9986" lon="2.37133">
        <ele>597</ele>
        <time>2021-12-05T19:25:34Z</time>
      </trkpt>
      <trkpt lat="42.99869" lon="2.37128">
        <ele>597</ele>
        <time>2021-12-05T19:25:35Z</time>
      </trkpt>
      <trkpt lat="42.99879" lon="2.37127">
        <ele>597</ele>
        <time>2021-12-05T19:25:37Z</time>
      </trkpt>
      <trkpt lat="42.99894" lon="2.37134">
        <ele>597</ele>
        <time>2021-12-05T19:25:40Z</time>
      </trkpt>
      <trkpt lat="42.99903" lon="2.37148">
        <ele>597</ele>
        <time>2021-12-05T19:25:42Z</time>
      </trkpt>
      <trkpt lat="42.99914" lon="2.37204">
        <ele>600</ele>
        <time>2021-12-05T19:25:50Z</time>
      </trkpt>
      <trkpt lat="42.99921" lon="2.37223">
        <ele>602</ele>
        <time>2021-12-05T19:25:53Z</time>
      </trkpt>
      <trkpt lat="42.99934" lon="2.3724">
        <ele>603</ele>
        <time>2021-12-05T19:25:56Z</time>
      </trkpt>
      <trkpt lat="42.9996" lon="2.37261">
        <ele>601</ele>
        <time>2021-12-05T19:26:01Z</time>
      </trkpt>
      <trkpt lat="42.99979" lon="2.37284">
        <ele>599</ele>
        <time>2021-12-05T19:26:06Z</time>
      </trkpt>
      <trkpt lat="42.99991" lon="2.37304">
        <ele>598</ele>
        <time>2021-12-05T19:26:09Z</time>
      </trkpt>
      <trkpt lat="43.00004" lon="2.3732">
        <ele>596</ele>
        <time>2021-12-05T19:26:12Z</time>
      </trkpt>
      <trkpt lat="43.00015" lon="2.37324">
        <ele>595</ele>
        <time>2021-12-05T19:26:14Z</time>
      </trkpt>
      <trkpt lat="43.00032" lon="2.3732">
        <ele>594</ele>
        <time>2021-12-05T19:26:17Z</time>
      </trkpt>
      <trkpt lat="43.0005" lon="2.37311">
        <ele>593</ele>
        <time>2021-12-05T19:26:21Z</time>
      </trkpt>
      <trkpt lat="43.00067" lon="2.37309">
        <ele>592</ele>
        <time>2021-12-05T19:26:24Z</time>
      </trkpt>
      <trkpt lat="43.00106" lon="2.37313">
        <ele>591</ele>
        <time>2021-12-05T19:26:31Z</time>
      </trkpt>
      <trkpt lat="43.00172" lon="2.37284">
        <ele>590</ele>
        <time>2021-12-05T19:26:43Z</time>
      </trkpt>
      <trkpt lat="43.00245" lon="2.37261">
        <ele>589</ele>
        <time>2021-12-05T19:26:56Z</time>
      </trkpt>
      <trkpt lat="43.00421" lon="2.37193">
        <ele>581</ele>
        <time>2021-12-05T19:27:29Z</time>
      </trkpt>
      <trkpt lat="43.0044" lon="2.37177">
        <ele>580</ele>
        <time>2021-12-05T19:27:33Z</time>
      </trkpt>
      <trkpt lat="43.00461" lon="2.37117">
        <ele>581</ele>
        <time>2021-12-05T19:27:42Z</time>
      </trkpt>
      <trkpt lat="43.00465" lon="2.37109">
        <ele>581</ele>
        <time>2021-12-05T19:27:43Z</time>
      </trkpt>
      <trkpt lat="43.00475" lon="2.371">
        <ele>580</ele>
        <time>2021-12-05T19:27:45Z</time>
      </trkpt>
      <trkpt lat="43.00563" lon="2.37046">
        <ele>579</ele>
        <time>2021-12-05T19:28:02Z</time>
      </trkpt>
      <trkpt lat="43.00607" lon="2.37014">
        <ele>581</ele>
        <time>2021-12-05T19:28:11Z</time>
      </trkpt>
      <trkpt lat="43.00619" lon="2.37008">
        <ele>582</ele>
        <time>2021-12-05T19:28:13Z</time>
      </trkpt>
      <trkpt lat="43.00681" lon="2.36999">
        <ele>582</ele>
        <time>2021-12-05T19:28:24Z</time>
      </trkpt>
      <trkpt lat="43.00732" lon="2.36988">
        <ele>581</ele>
        <time>2021-12-05T19:28:34Z</time>
      </trkpt>
      <trkpt lat="43.00752" lon="2.36988">
        <ele>580</ele>
        <time>2021-12-05T19:28:37Z</time>
      </trkpt>
      <trkpt lat="43.0077" lon="2.3699">
        <ele>581</ele>
        <time>2021-12-05T19:28:40Z</time>
      </trkpt>
      <trkpt lat="43.00782" lon="2.36994">
        <ele>582</ele>
        <time>2021-12-05T19:28:43Z</time>
      </trkpt>
      <trkpt lat="43.00867" lon="2.37054">
        <ele>586</ele>
        <time>2021-12-05T19:29:00Z</time>
      </trkpt>
      <trkpt lat="43.00881" lon="2.37072">
        <ele>587</ele>
        <time>2021-12-05T19:29:03Z</time>
      </trkpt>
      <trkpt lat="43.00905" lon="2.37138">
        <ele>585</ele>
        <time>2021-12-05T19:29:13Z</time>
      </trkpt>
      <trkpt lat="43.00913" lon="2.37178">
        <ele>583</ele>
        <time>2021-12-05T19:29:18Z</time>
      </trkpt>
      <trkpt lat="43.00919" lon="2.37194">
        <ele>583</ele>
        <time>2021-12-05T19:29:20Z</time>
      </trkpt>
      <trkpt lat="43.00955" lon="2.37262">
        <ele>583</ele>
        <time>2021-12-05T19:29:31Z</time>
      </trkpt>
      <trkpt lat="43.00964" lon="2.37272">
        <ele>583</ele>
        <time>2021-12-05T19:29:33Z</time>
      </trkpt>
      <trkpt lat="43.00994" lon="2.37288">
        <ele>580</ele>
        <time>2021-12-05T19:29:39Z</time>
      </trkpt>
      <trkpt lat="43.0103" lon="2.37318">
        <ele>579</ele>
        <time>2021-12-05T19:29:47Z</time>
      </trkpt>
      <trkpt lat="43.01041" lon="2.37332">
        <ele>579</ele>
        <time>2021-12-05T19:29:49Z</time>
      </trkpt>
      <trkpt lat="43.01052" lon="2.37349">
        <ele>581</ele>
        <time>2021-12-05T19:29:52Z</time>
      </trkpt>
      <trkpt lat="43.01064" lon="2.37375">
        <ele>583</ele>
        <time>2021-12-05T19:29:56Z</time>
      </trkpt>
      <trkpt lat="43.01074" lon="2.37407">
        <ele>585</ele>
        <time>2021-12-05T19:30:01Z</time>
      </trkpt>
      <trkpt lat="43.01092" lon="2.37483">
        <ele>589</ele>
        <time>2021-12-05T19:30:11Z</time>
      </trkpt>
      <trkpt lat="43.01101" lon="2.37513">
        <ele>591</ele>
        <time>2021-12-05T19:30:15Z</time>
      </trkpt>
      <trkpt lat="43.01112" lon="2.37533">
        <ele>591</ele>
        <time>2021-12-05T19:30:19Z</time>
      </trkpt>
      <trkpt lat="43.01125" lon="2.37547">
        <ele>590</ele>
        <time>2021-12-05T19:30:22Z</time>
      </trkpt>
      <trkpt lat="43.0114" lon="2.37559">
        <ele>587</ele>
        <time>2021-12-05T19:30:25Z</time>
      </trkpt>
      <trkpt lat="43.01154" lon="2.37567">
        <ele>585</ele>
        <time>2021-12-05T19:30:27Z</time>
      </trkpt>
      <trkpt lat="43.01212" lon="2.37577">
        <ele>584</ele>
        <time>2021-12-05T19:30:38Z</time>
      </trkpt>
      <trkpt lat="43.01224" lon="2.37583">
        <ele>583</ele>
        <time>2021-12-05T19:30:40Z</time>
      </trkpt>
      <trkpt lat="43.01234" lon="2.37595">
        <ele>583</ele>
        <time>2021-12-05T19:30:42Z</time>
      </trkpt>
      <trkpt lat="43.01243" lon="2.37611">
        <ele>582</ele>
        <time>2021-12-05T19:30:45Z</time>
      </trkpt>
      <trkpt lat="43.01248" lon="2.37628">
        <ele>580</ele>
        <time>2021-12-05T19:30:47Z</time>
      </trkpt>
      <trkpt lat="43.0125" lon="2.37676">
        <ele>576</ele>
        <time>2021-12-05T19:30:54Z</time>
      </trkpt>
      <trkpt lat="43.01246" lon="2.37748">
        <ele>569</ele>
        <time>2021-12-05T19:31:03Z</time>
      </trkpt>
      <trkpt lat="43.01247" lon="2.3776">
        <ele>568</ele>
        <time>2021-12-05T19:31:05Z</time>
      </trkpt>
      <trkpt lat="43.01251" lon="2.3777">
        <ele>568</ele>
        <time>2021-12-05T19:31:06Z</time>
      </trkpt>
      <trkpt lat="43.01257" lon="2.37776">
        <ele>568</ele>
        <time>2021-12-05T19:31:07Z</time>
      </trkpt>
      <trkpt lat="43.01269" lon="2.37782">
        <ele>568</ele>
        <time>2021-12-05T19:31:10Z</time>
      </trkpt>
      <trkpt lat="43.01289" lon="2.37786">
        <ele>569</ele>
        <time>2021-12-05T19:31:13Z</time>
      </trkpt>
      <trkpt lat="43.01342" lon="2.37774">
        <ele>571</ele>
        <time>2021-12-05T19:31:23Z</time>
      </trkpt>
      <trkpt lat="43.01354" lon="2.37776">
        <ele>570</ele>
        <time>2021-12-05T19:31:25Z</time>
      </trkpt>
      <trkpt lat="43.01384" lon="2.37787">
        <ele>567</ele>
        <time>2021-12-05T19:31:30Z</time>
      </trkpt>
      <trkpt lat="43.01595" lon="2.37779">
        <ele>555</ele>
        <time>2021-12-05T19:32:08Z</time>
      </trkpt>
      <trkpt lat="43.01622" lon="2.37785">
        <ele>555</ele>
        <time>2021-12-05T19:32:13Z</time>
      </trkpt>
      <trkpt lat="43.01644" lon="2.37809">
        <ele>551</ele>
        <time>2021-12-05T19:32:18Z</time>
      </trkpt>
      <trkpt lat="43.01651" lon="2.37827">
        <ele>548</ele>
        <time>2021-12-05T19:32:21Z</time>
      </trkpt>
      <trkpt lat="43.01656" lon="2.37851">
        <ele>545</ele>
        <time>2021-12-05T19:32:24Z</time>
      </trkpt>
      <trkpt lat="43.01662" lon="2.37898">
        <ele>541</ele>
        <time>2021-12-05T19:32:30Z</time>
      </trkpt>
      <trkpt lat="43.01669" lon="2.37917">
        <ele>538</ele>
        <time>2021-12-05T19:32:33Z</time>
      </trkpt>
      <trkpt lat="43.01677" lon="2.37929">
        <ele>539</ele>
        <time>2021-12-05T19:32:35Z</time>
      </trkpt>
      <trkpt lat="43.01699" lon="2.3794">
        <ele>541</ele>
        <time>2021-12-05T19:32:39Z</time>
      </trkpt>
      <trkpt lat="43.01746" lon="2.37941">
        <ele>543</ele>
        <time>2021-12-05T19:32:47Z</time>
      </trkpt>
      <trkpt lat="43.0178" lon="2.37946">
        <ele>542</ele>
        <time>2021-12-05T19:32:54Z</time>
      </trkpt>
      <trkpt lat="43.01827" lon="2.37965">
        <ele>539</ele>
        <time>2021-12-05T19:33:02Z</time>
      </trkpt>
      <trkpt lat="43.01874" lon="2.37994">
        <ele>534</ele>
        <time>2021-12-05T19:33:11Z</time>
      </trkpt>
      <trkpt lat="43.0189" lon="2.38007">
        <ele>533</ele>
        <time>2021-12-05T19:33:15Z</time>
      </trkpt>
      <trkpt lat="43.0191" lon="2.38029">
        <ele>533</ele>
        <time>2021-12-05T19:33:19Z</time>
      </trkpt>
      <trkpt lat="43.01918" lon="2.3803">
        <ele>532</ele>
        <time>2021-12-05T19:33:21Z</time>
      </trkpt>
      <trkpt lat="43.01927" lon="2.38028">
        <ele>533</ele>
        <time>2021-12-05T19:33:22Z</time>
      </trkpt>
      <trkpt lat="43.01955" lon="2.38">
        <ele>534</ele>
        <time>2021-12-05T19:33:29Z</time>
      </trkpt>
      <trkpt lat="43.01969" lon="2.37995">
        <ele>536</ele>
        <time>2021-12-05T19:33:31Z</time>
      </trkpt>
      <trkpt lat="43.01979" lon="2.37996">
        <ele>536</ele>
        <time>2021-12-05T19:33:33Z</time>
      </trkpt>
      <trkpt lat="43.01999" lon="2.38011">
        <ele>536</ele>
        <time>2021-12-05T19:33:37Z</time>
      </trkpt>
      <trkpt lat="43.02009" lon="2.38015">
        <ele>536</ele>
        <time>2021-12-05T19:33:39Z</time>
      </trkpt>
      <trkpt lat="43.02026" lon="2.38017">
        <ele>534</ele>
        <time>2021-12-05T19:33:42Z</time>
      </trkpt>
      <trkpt lat="43.02061" lon="2.38041">
        <ele>530</ele>
        <time>2021-12-05T19:33:49Z</time>
      </trkpt>
      <trkpt lat="43.02077" lon="2.38042">
        <ele>528</ele>
        <time>2021-12-05T19:33:52Z</time>
      </trkpt>
      <trkpt lat="43.02088" lon="2.38035">
        <ele>527</ele>
        <time>2021-12-05T19:33:54Z</time>
      </trkpt>
      <trkpt lat="43.0212" lon="2.38004">
        <ele>524</ele>
        <time>2021-12-05T19:34:01Z</time>
      </trkpt>
      <trkpt lat="43.02158" lon="2.37959">
        <ele>524</ele>
        <time>2021-12-05T19:34:10Z</time>
      </trkpt>
      <trkpt lat="43.02193" lon="2.3791">
        <ele>522</ele>
        <time>2021-12-05T19:34:19Z</time>
      </trkpt>
      <trkpt lat="43.02218" lon="2.37862">
        <ele>525</ele>
        <time>2021-12-05T19:34:26Z</time>
      </trkpt>
      <trkpt lat="43.02231" lon="2.37849">
        <ele>522</ele>
        <time>2021-12-05T19:34:29Z</time>
      </trkpt>
      <trkpt lat="43.0225" lon="2.37839">
        <ele>517</ele>
        <time>2021-12-05T19:34:33Z</time>
      </trkpt>
      <trkpt lat="43.02274" lon="2.37833">
        <ele>512</ele>
        <time>2021-12-05T19:34:37Z</time>
      </trkpt>
      <trkpt lat="43.02319" lon="2.37828">
        <ele>505</ele>
        <time>2021-12-05T19:34:45Z</time>
      </trkpt>
      <trkpt lat="43.0233" lon="2.37821">
        <ele>503</ele>
        <time>2021-12-05T19:34:47Z</time>
      </trkpt>
      <trkpt lat="43.02335" lon="2.37809">
        <ele>504</ele>
        <time>2021-12-05T19:34:49Z</time>
      </trkpt>
      <trkpt lat="43.02336" lon="2.37787">
        <ele>506</ele>
        <time>2021-12-05T19:34:52Z</time>
      </trkpt>
      <trkpt lat="43.02345" lon="2.3777">
        <ele>509</ele>
        <time>2021-12-05T19:34:55Z</time>
      </trkpt>
      <trkpt lat="43.02355" lon="2.37765">
        <ele>511</ele>
        <time>2021-12-05T19:34:57Z</time>
      </trkpt>
      <trkpt lat="43.02372" lon="2.37765">
        <ele>512</ele>
        <time>2021-12-05T19:35:00Z</time>
      </trkpt>
      <trkpt lat="43.0239" lon="2.37786">
        <ele>510</ele>
        <time>2021-12-05T19:35:04Z</time>
      </trkpt>
      <trkpt lat="43.02428" lon="2.37815">
        <ele>510</ele>
        <time>2021-12-05T19:35:12Z</time>
      </trkpt>
      <trkpt lat="43.02476" lon="2.37887">
        <ele>510</ele>
        <time>2021-12-05T19:35:24Z</time>
      </trkpt>
      <trkpt lat="43.02496" lon="2.37905">
        <ele>507</ele>
        <time>2021-12-05T19:35:29Z</time>
      </trkpt>
      <trkpt lat="43.02518" lon="2.3792">
        <ele>507</ele>
        <time>2021-12-05T19:35:33Z</time>
      </trkpt>
      <trkpt lat="43.02541" lon="2.37944">
        <ele>507</ele>
        <time>2021-12-05T19:35:38Z</time>
      </trkpt>
      <trkpt lat="43.0256" lon="2.3797">
        <ele>504</ele>
        <time>2021-12-05T19:35:43Z</time>
      </trkpt>
      <trkpt lat="43.02569" lon="2.37977">
        <ele>504</ele>
        <time>2021-12-05T19:35:45Z</time>
      </trkpt>
      <trkpt lat="43.02573" lon="2.37977">
        <ele>504</ele>
        <time>2021-12-05T19:35:45Z</time>
      </trkpt>
      <trkpt lat="43.02583" lon="2.37968">
        <ele>507</ele>
        <time>2021-12-05T19:35:48Z</time>
      </trkpt>
      <trkpt lat="43.02622" lon="2.37864">
        <ele>529</ele>
        <time>2021-12-05T19:36:03Z</time>
      </trkpt>
      <trkpt lat="43.02634" lon="2.37847">
        <ele>531</ele>
        <time>2021-12-05T19:36:06Z</time>
      </trkpt>
      <trkpt lat="43.0264" lon="2.37845">
        <ele>531</ele>
        <time>2021-12-05T19:36:07Z</time>
      </trkpt>
      <trkpt lat="43.02651" lon="2.37848">
        <ele>529</ele>
        <time>2021-12-05T19:36:09Z</time>
      </trkpt>
      <trkpt lat="43.02666" lon="2.37864">
        <ele>525</ele>
        <time>2021-12-05T19:36:12Z</time>
      </trkpt>
      <trkpt lat="43.02682" lon="2.37884">
        <ele>522</ele>
        <time>2021-12-05T19:36:16Z</time>
      </trkpt>
      <trkpt lat="43.02698" lon="2.37897">
        <ele>521</ele>
        <time>2021-12-05T19:36:19Z</time>
      </trkpt>
      <trkpt lat="43.0271" lon="2.37898">
        <ele>521</ele>
        <time>2021-12-05T19:36:22Z</time>
      </trkpt>
      <trkpt lat="43.02729" lon="2.37895">
        <ele>523</ele>
        <time>2021-12-05T19:36:25Z</time>
      </trkpt>
      <trkpt lat="43.02755" lon="2.37884">
        <ele>527</ele>
        <time>2021-12-05T19:36:30Z</time>
      </trkpt>
      <trkpt lat="43.02816" lon="2.37842">
        <ele>530</ele>
        <time>2021-12-05T19:36:42Z</time>
      </trkpt>
      <trkpt lat="43.02847" lon="2.37827">
        <ele>529</ele>
        <time>2021-12-05T19:36:48Z</time>
      </trkpt>
      <trkpt lat="43.02891" lon="2.37797">
        <ele>524</ele>
        <time>2021-12-05T19:36:57Z</time>
      </trkpt>
      <trkpt lat="43.02914" lon="2.37777">
        <ele>521</ele>
        <time>2021-12-05T19:37:01Z</time>
      </trkpt>
      <trkpt lat="43.02922" lon="2.37768">
        <ele>520</ele>
        <time>2021-12-05T19:37:03Z</time>
      </trkpt>
      <trkpt lat="43.02925" lon="2.37758">
        <ele>520</ele>
        <time>2021-12-05T19:37:05Z</time>
      </trkpt>
      <trkpt lat="43.02924" lon="2.37747">
        <ele>519</ele>
        <time>2021-12-05T19:37:06Z</time>
      </trkpt>
      <trkpt lat="43.02921" lon="2.3774">
        <ele>518</ele>
        <time>2021-12-05T19:37:07Z</time>
      </trkpt>
      <trkpt lat="43.0291" lon="2.37727">
        <ele>517</ele>
        <time>2021-12-05T19:37:10Z</time>
      </trkpt>
      <trkpt lat="43.02873" lon="2.37695">
        <ele>518</ele>
        <time>2021-12-05T19:37:18Z</time>
      </trkpt>
      <trkpt lat="43.02845" lon="2.37664">
        <ele>518</ele>
        <time>2021-12-05T19:37:24Z</time>
      </trkpt>
      <trkpt lat="43.0283" lon="2.37643">
        <ele>517</ele>
        <time>2021-12-05T19:37:28Z</time>
      </trkpt>
      <trkpt lat="43.02775" lon="2.3755">
        <ele>514</ele>
        <time>2021-12-05T19:37:43Z</time>
      </trkpt>
      <trkpt lat="43.02719" lon="2.37431">
        <ele>515</ele>
        <time>2021-12-05T19:38:02Z</time>
      </trkpt>
      <trkpt lat="43.02716" lon="2.37418">
        <ele>515</ele>
        <time>2021-12-05T19:38:03Z</time>
      </trkpt>
      <trkpt lat="43.02717" lon="2.37408">
        <ele>515</ele>
        <time>2021-12-05T19:38:05Z</time>
      </trkpt>
      <trkpt lat="43.02719" lon="2.37396">
        <ele>514</ele>
        <time>2021-12-05T19:38:06Z</time>
      </trkpt>
      <trkpt lat="43.0273" lon="2.37381">
        <ele>512</ele>
        <time>2021-12-05T19:38:09Z</time>
      </trkpt>
      <trkpt lat="43.02736" lon="2.37377">
        <ele>511</ele>
        <time>2021-12-05T19:38:10Z</time>
      </trkpt>
      <trkpt lat="43.02751" lon="2.37373">
        <ele>509</ele>
        <time>2021-12-05T19:38:13Z</time>
      </trkpt>
      <trkpt lat="43.02759" lon="2.37374">
        <ele>510</ele>
        <time>2021-12-05T19:38:15Z</time>
      </trkpt>
      <trkpt lat="43.02766" lon="2.37378">
        <ele>511</ele>
        <time>2021-12-05T19:38:16Z</time>
      </trkpt>
      <trkpt lat="43.02777" lon="2.3739">
        <ele>511</ele>
        <time>2021-12-05T19:38:18Z</time>
      </trkpt>
      <trkpt lat="43.02791" lon="2.3741">
        <ele>511</ele>
        <time>2021-12-05T19:38:22Z</time>
      </trkpt>
      <trkpt lat="43.02826" lon="2.37464">
        <ele>506</ele>
        <time>2021-12-05T19:38:31Z</time>
      </trkpt>
      <trkpt lat="43.02851" lon="2.37491">
        <ele>504</ele>
        <time>2021-12-05T19:38:37Z</time>
      </trkpt>
      <trkpt lat="43.02894" lon="2.37529">
        <ele>504</ele>
        <time>2021-12-05T19:38:46Z</time>
      </trkpt>
      <trkpt lat="43.02944" lon="2.3755">
        <ele>506</ele>
        <time>2021-12-05T19:38:55Z</time>
      </trkpt>
      <trkpt lat="43.03028" lon="2.37606">
        <ele>505</ele>
        <time>2021-12-05T19:39:12Z</time>
      </trkpt>
      <trkpt lat="43.03079" lon="2.37629">
        <ele>504</ele>
        <time>2021-12-05T19:39:22Z</time>
      </trkpt>
      <trkpt lat="43.031" lon="2.37642">
        <ele>501</ele>
        <time>2021-12-05T19:39:26Z</time>
      </trkpt>
      <trkpt lat="43.0312" lon="2.37652">
        <ele>499</ele>
        <time>2021-12-05T19:39:30Z</time>
      </trkpt>
      <trkpt lat="43.03201" lon="2.37677">
        <ele>497</ele>
        <time>2021-12-05T19:39:44Z</time>
      </trkpt>
      <trkpt lat="43.03258" lon="2.377">
        <ele>489</ele>
        <time>2021-12-05T19:39:55Z</time>
      </trkpt>
      <trkpt lat="43.03277" lon="2.37704">
        <ele>486</ele>
        <time>2021-12-05T19:39:58Z</time>
      </trkpt>
      <trkpt lat="43.03293" lon="2.37702">
        <ele>485</ele>
        <time>2021-12-05T19:40:01Z</time>
      </trkpt>
      <trkpt lat="43.03303" lon="2.37695">
        <ele>486</ele>
        <time>2021-12-05T19:40:03Z</time>
      </trkpt>
      <trkpt lat="43.03311" lon="2.37685">
        <ele>486</ele>
        <time>2021-12-05T19:40:05Z</time>
      </trkpt>
      <trkpt lat="43.03317" lon="2.37674">
        <ele>486</ele>
        <time>2021-12-05T19:40:07Z</time>
      </trkpt>
      <trkpt lat="43.03321" lon="2.3766">
        <ele>486</ele>
        <time>2021-12-05T19:40:09Z</time>
      </trkpt>
      <trkpt lat="43.03323" lon="2.37643">
        <ele>486</ele>
        <time>2021-12-05T19:40:11Z</time>
      </trkpt>
      <trkpt lat="43.03318" lon="2.37595">
        <ele>488</ele>
        <time>2021-12-05T19:40:17Z</time>
      </trkpt>
      <trkpt lat="43.03303" lon="2.37528">
        <ele>490</ele>
        <time>2021-12-05T19:40:26Z</time>
      </trkpt>
      <trkpt lat="43.03297" lon="2.37463">
        <ele>487</ele>
        <time>2021-12-05T19:40:35Z</time>
      </trkpt>
      <trkpt lat="43.03289" lon="2.37417">
        <ele>485</ele>
        <time>2021-12-05T19:40:41Z</time>
      </trkpt>
      <trkpt lat="43.03289" lon="2.37404">
        <ele>484</ele>
        <time>2021-12-05T19:40:43Z</time>
      </trkpt>
      <trkpt lat="43.03299" lon="2.3738">
        <ele>481</ele>
        <time>2021-12-05T19:40:46Z</time>
      </trkpt>
      <trkpt lat="43.03303" lon="2.37364">
        <ele>480</ele>
        <time>2021-12-05T19:40:49Z</time>
      </trkpt>
      <trkpt lat="43.03307" lon="2.37326">
        <ele>478</ele>
        <time>2021-12-05T19:40:54Z</time>
      </trkpt>
      <trkpt lat="43.03313" lon="2.37303">
        <ele>477</ele>
        <time>2021-12-05T19:40:57Z</time>
      </trkpt>
      <trkpt lat="43.03329" lon="2.37274">
        <ele>475</ele>
        <time>2021-12-05T19:41:02Z</time>
      </trkpt>
      <trkpt lat="43.03339" lon="2.37259">
        <ele>475</ele>
        <time>2021-12-05T19:41:04Z</time>
      </trkpt>
      <trkpt lat="43.03347" lon="2.37246">
        <ele>476</ele>
        <time>2021-12-05T19:41:06Z</time>
      </trkpt>
      <trkpt lat="43.03355" lon="2.37229">
        <ele>476</ele>
        <time>2021-12-05T19:41:09Z</time>
      </trkpt>
      <trkpt lat="43.03362" lon="2.37204">
        <ele>476</ele>
        <time>2021-12-05T19:41:12Z</time>
      </trkpt>
      <trkpt lat="43.03369" lon="2.37133">
        <ele>475</ele>
        <time>2021-12-05T19:41:22Z</time>
      </trkpt>
      <trkpt lat="43.03372" lon="2.37119">
        <ele>474</ele>
        <time>2021-12-05T19:41:24Z</time>
      </trkpt>
      <trkpt lat="43.03375" lon="2.37115">
        <ele>474</ele>
        <time>2021-12-05T19:41:24Z</time>
      </trkpt>
      <trkpt lat="43.03385" lon="2.37112">
        <ele>474</ele>
        <time>2021-12-05T19:41:26Z</time>
      </trkpt>
      <trkpt lat="43.03415" lon="2.3712">
        <ele>476</ele>
        <time>2021-12-05T19:41:32Z</time>
      </trkpt>
      <trkpt lat="43.03429" lon="2.37121">
        <ele>478</ele>
        <time>2021-12-05T19:41:34Z</time>
      </trkpt>
      <trkpt lat="43.03434" lon="2.37119">
        <ele>479</ele>
        <time>2021-12-05T19:41:35Z</time>
      </trkpt>
      <trkpt lat="43.03438" lon="2.37115">
        <ele>479</ele>
        <time>2021-12-05T19:41:36Z</time>
      </trkpt>
      <trkpt lat="43.03442" lon="2.3711">
        <ele>480</ele>
        <time>2021-12-05T19:41:37Z</time>
      </trkpt>
      <trkpt lat="43.03444" lon="2.37103">
        <ele>480</ele>
        <time>2021-12-05T19:41:38Z</time>
      </trkpt>
      <trkpt lat="43.03445" lon="2.37092">
        <ele>479</ele>
        <time>2021-12-05T19:41:39Z</time>
      </trkpt>
      <trkpt lat="43.03443" lon="2.37078">
        <ele>478</ele>
        <time>2021-12-05T19:41:41Z</time>
      </trkpt>
      <trkpt lat="43.0344" lon="2.37061">
        <ele>476</ele>
        <time>2021-12-05T19:41:44Z</time>
      </trkpt>
      <trkpt lat="43.03433" lon="2.37036">
        <ele>472</ele>
        <time>2021-12-05T19:41:47Z</time>
      </trkpt>
      <trkpt lat="43.03431" lon="2.37007">
        <ele>469</ele>
        <time>2021-12-05T19:41:51Z</time>
      </trkpt>
      <trkpt lat="43.03436" lon="2.36989">
        <ele>468</ele>
        <time>2021-12-05T19:41:53Z</time>
      </trkpt>
      <trkpt lat="43.03455" lon="2.36957">
        <ele>470</ele>
        <time>2021-12-05T19:41:59Z</time>
      </trkpt>
      <trkpt lat="43.03465" lon="2.36926">
        <ele>470</ele>
        <time>2021-12-05T19:42:03Z</time>
      </trkpt>
      <trkpt lat="43.0347" lon="2.36882">
        <ele>469</ele>
        <time>2021-12-05T19:42:09Z</time>
      </trkpt>
      <trkpt lat="43.0347" lon="2.36847">
        <ele>467</ele>
        <time>2021-12-05T19:42:13Z</time>
      </trkpt>
      <trkpt lat="43.03476" lon="2.36768">
        <ele>463</ele>
        <time>2021-12-05T19:42:24Z</time>
      </trkpt>
      <trkpt lat="43.03472" lon="2.36728">
        <ele>460</ele>
        <time>2021-12-05T19:42:29Z</time>
      </trkpt>
      <trkpt lat="43.03464" lon="2.36663">
        <ele>455</ele>
        <time>2021-12-05T19:42:38Z</time>
      </trkpt>
      <trkpt lat="43.03465" lon="2.36641">
        <ele>453</ele>
        <time>2021-12-05T19:42:40Z</time>
      </trkpt>
      <trkpt lat="43.03468" lon="2.36633">
        <ele>453</ele>
        <time>2021-12-05T19:42:42Z</time>
      </trkpt>
      <trkpt lat="43.03476" lon="2.36623">
        <ele>454</ele>
        <time>2021-12-05T19:42:44Z</time>
      </trkpt>
      <trkpt lat="43.03497" lon="2.36615">
        <ele>457</ele>
        <time>2021-12-05T19:42:47Z</time>
      </trkpt>
      <trkpt lat="43.03504" lon="2.36611">
        <ele>458</ele>
        <time>2021-12-05T19:42:49Z</time>
      </trkpt>
      <trkpt lat="43.0351" lon="2.36605">
        <ele>460</ele>
        <time>2021-12-05T19:42:50Z</time>
      </trkpt>
      <trkpt lat="43.03514" lon="2.36596">
        <ele>460</ele>
        <time>2021-12-05T19:42:51Z</time>
      </trkpt>
      <trkpt lat="43.03532" lon="2.36485">
        <ele>457</ele>
        <time>2021-12-05T19:43:06Z</time>
      </trkpt>
      <trkpt lat="43.03532" lon="2.36469">
        <ele>455</ele>
        <time>2021-12-05T19:43:08Z</time>
      </trkpt>
      <trkpt lat="43.03522" lon="2.36416">
        <ele>447</ele>
        <time>2021-12-05T19:43:15Z</time>
      </trkpt>
      <trkpt lat="43.0352" lon="2.36399">
        <ele>444</ele>
        <time>2021-12-05T19:43:18Z</time>
      </trkpt>
      <trkpt lat="43.03519" lon="2.36378">
        <ele>442</ele>
        <time>2021-12-05T19:43:20Z</time>
      </trkpt>
      <trkpt lat="43.03521" lon="2.36359">
        <ele>440</ele>
        <time>2021-12-05T19:43:23Z</time>
      </trkpt>
      <trkpt lat="43.03525" lon="2.36351">
        <ele>440</ele>
        <time>2021-12-05T19:43:24Z</time>
      </trkpt>
      <trkpt lat="43.0353" lon="2.36346">
        <ele>441</ele>
        <time>2021-12-05T19:43:25Z</time>
      </trkpt>
      <trkpt lat="43.03558" lon="2.36329">
        <ele>447</ele>
        <time>2021-12-05T19:43:31Z</time>
      </trkpt>
      <trkpt lat="43.03565" lon="2.36323">
        <ele>449</ele>
        <time>2021-12-05T19:43:32Z</time>
      </trkpt>
      <trkpt lat="43.03574" lon="2.36307">
        <ele>450</ele>
        <time>2021-12-05T19:43:35Z</time>
      </trkpt>
      <trkpt lat="43.03577" lon="2.36292">
        <ele>449</ele>
        <time>2021-12-05T19:43:37Z</time>
      </trkpt>
      <trkpt lat="43.03576" lon="2.36274">
        <ele>447</ele>
        <time>2021-12-05T19:43:39Z</time>
      </trkpt>
      <trkpt lat="43.03575" lon="2.36267">
        <ele>446</ele>
        <time>2021-12-05T19:43:40Z</time>
      </trkpt>
      <trkpt lat="43.03551" lon="2.36208">
        <ele>438</ele>
        <time>2021-12-05T19:43:49Z</time>
      </trkpt>
      <trkpt lat="43.03546" lon="2.36187">
        <ele>437</ele>
        <time>2021-12-05T19:43:52Z</time>
      </trkpt>
      <trkpt lat="43.03545" lon="2.36173">
        <ele>437</ele>
        <time>2021-12-05T19:43:54Z</time>
      </trkpt>
      <trkpt lat="43.03547" lon="2.36144">
        <ele>436</ele>
        <time>2021-12-05T19:43:57Z</time>
      </trkpt>
      <trkpt lat="43.03552" lon="2.36107">
        <ele>434</ele>
        <time>2021-12-05T19:44:02Z</time>
      </trkpt>
      <trkpt lat="43.03558" lon="2.36087">
        <ele>435</ele>
        <time>2021-12-05T19:44:05Z</time>
      </trkpt>
      <trkpt lat="43.03563" lon="2.36075">
        <ele>435</ele>
        <time>2021-12-05T19:44:07Z</time>
      </trkpt>
      <trkpt lat="43.03567" lon="2.36069">
        <ele>435</ele>
        <time>2021-12-05T19:44:08Z</time>
      </trkpt>
      <trkpt lat="43.03623" lon="2.36042">
        <ele>443</ele>
        <time>2021-12-05T19:44:18Z</time>
      </trkpt>
      <trkpt lat="43.03638" lon="2.36029">
        <ele>444</ele>
        <time>2021-12-05T19:44:22Z</time>
      </trkpt>
      <trkpt lat="43.03644" lon="2.36018">
        <ele>444</ele>
        <time>2021-12-05T19:44:23Z</time>
      </trkpt>
      <trkpt lat="43.03646" lon="2.36012">
        <ele>444</ele>
        <time>2021-12-05T19:44:24Z</time>
      </trkpt>
      <trkpt lat="43.03646" lon="2.35996">
        <ele>442</ele>
        <time>2021-12-05T19:44:26Z</time>
      </trkpt>
      <trkpt lat="43.03639" lon="2.35975">
        <ele>441</ele>
        <time>2021-12-05T19:44:29Z</time>
      </trkpt>
      <trkpt lat="43.03621" lon="2.35952">
        <ele>437</ele>
        <time>2021-12-05T19:44:34Z</time>
      </trkpt>
      <trkpt lat="43.03575" lon="2.35903">
        <ele>425</ele>
        <time>2021-12-05T19:44:44Z</time>
      </trkpt>
      <trkpt lat="43.03564" lon="2.35889">
        <ele>422</ele>
        <time>2021-12-05T19:44:47Z</time>
      </trkpt>
      <trkpt lat="43.0356" lon="2.35881">
        <ele>421</ele>
        <time>2021-12-05T19:44:48Z</time>
      </trkpt>
      <trkpt lat="43.03557" lon="2.35863">
        <ele>419</ele>
        <time>2021-12-05T19:44:50Z</time>
      </trkpt>
      <trkpt lat="43.03557" lon="2.35836">
        <ele>418</ele>
        <time>2021-12-05T19:44:54Z</time>
      </trkpt>
      <trkpt lat="43.03562" lon="2.35823">
        <ele>419</ele>
        <time>2021-12-05T19:44:56Z</time>
      </trkpt>
      <trkpt lat="43.03573" lon="2.35799">
        <ele>419</ele>
        <time>2021-12-05T19:45:00Z</time>
      </trkpt>
      <trkpt lat="43.03583" lon="2.3579">
        <ele>420</ele>
        <time>2021-12-05T19:45:02Z</time>
      </trkpt>
      <trkpt lat="43.03594" lon="2.35792">
        <ele>422</ele>
        <time>2021-12-05T19:45:04Z</time>
      </trkpt>
      <trkpt lat="43.03606" lon="2.3581">
        <ele>425</ele>
        <time>2021-12-05T19:45:07Z</time>
      </trkpt>
      <trkpt lat="43.03613" lon="2.35816">
        <ele>426</ele>
        <time>2021-12-05T19:45:08Z</time>
      </trkpt>
      <trkpt lat="43.03623" lon="2.35818">
        <ele>428</ele>
        <time>2021-12-05T19:45:10Z</time>
      </trkpt>
      <trkpt lat="43.0363" lon="2.35812">
        <ele>428</ele>
        <time>2021-12-05T19:45:12Z</time>
      </trkpt>
      <trkpt lat="43.03639" lon="2.35794">
        <ele>427</ele>
        <time>2021-12-05T19:45:14Z</time>
      </trkpt>
      <trkpt lat="43.03694" lon="2.35662">
        <ele>424</ele>
        <time>2021-12-05T19:45:34Z</time>
      </trkpt>
      <trkpt lat="43.03701" lon="2.3564">
        <ele>425</ele>
        <time>2021-12-05T19:45:37Z</time>
      </trkpt>
      <trkpt lat="43.03702" lon="2.35628">
        <ele>424</ele>
        <time>2021-12-05T19:45:39Z</time>
      </trkpt>
      <trkpt lat="43.03699" lon="2.35614">
        <ele>423</ele>
        <time>2021-12-05T19:45:41Z</time>
      </trkpt>
      <trkpt lat="43.03687" lon="2.3559">
        <ele>418</ele>
        <time>2021-12-05T19:45:45Z</time>
      </trkpt>
      <trkpt lat="43.03683" lon="2.35577">
        <ele>416</ele>
        <time>2021-12-05T19:45:46Z</time>
      </trkpt>
      <trkpt lat="43.03665" lon="2.35477">
        <ele>410</ele>
        <time>2021-12-05T19:46:00Z</time>
      </trkpt>
      <trkpt lat="43.03659" lon="2.35426">
        <ele>408</ele>
        <time>2021-12-05T19:46:06Z</time>
      </trkpt>
      <trkpt lat="43.03661" lon="2.354">
        <ele>408</ele>
        <time>2021-12-05T19:46:10Z</time>
      </trkpt>
      <trkpt lat="43.03665" lon="2.3539">
        <ele>408</ele>
        <time>2021-12-05T19:46:11Z</time>
      </trkpt>
      <trkpt lat="43.0367" lon="2.35384">
        <ele>408</ele>
        <time>2021-12-05T19:46:13Z</time>
      </trkpt>
      <trkpt lat="43.03682" lon="2.35378">
        <ele>409</ele>
        <time>2021-12-05T19:46:15Z</time>
      </trkpt>
      <trkpt lat="43.03707" lon="2.35372">
        <ele>412</ele>
        <time>2021-12-05T19:46:19Z</time>
      </trkpt>
      <trkpt lat="43.03742" lon="2.35358">
        <ele>414</ele>
        <time>2021-12-05T19:46:26Z</time>
      </trkpt>
      <trkpt lat="43.03748" lon="2.35351">
        <ele>414</ele>
        <time>2021-12-05T19:46:27Z</time>
      </trkpt>
      <trkpt lat="43.03754" lon="2.35337">
        <ele>414</ele>
        <time>2021-12-05T19:46:29Z</time>
      </trkpt>
      <trkpt lat="43.03757" lon="2.35325">
        <ele>414</ele>
        <time>2021-12-05T19:46:31Z</time>
      </trkpt>
      <trkpt lat="43.03759" lon="2.35287">
        <ele>411</ele>
        <time>2021-12-05T19:46:36Z</time>
      </trkpt>
      <trkpt lat="43.03758" lon="2.35262">
        <ele>409</ele>
        <time>2021-12-05T19:46:39Z</time>
      </trkpt>
      <trkpt lat="43.03756" lon="2.35253">
        <ele>407</ele>
        <time>2021-12-05T19:46:40Z</time>
      </trkpt>
      <trkpt lat="43.03739" lon="2.35207">
        <ele>403</ele>
        <time>2021-12-05T19:46:47Z</time>
      </trkpt>
      <trkpt lat="43.03737" lon="2.35193">
        <ele>403</ele>
        <time>2021-12-05T19:46:49Z</time>
      </trkpt>
      <trkpt lat="43.03737" lon="2.35182">
        <ele>403</ele>
        <time>2021-12-05T19:46:50Z</time>
      </trkpt>
      <trkpt lat="43.03745" lon="2.35145">
        <ele>403</ele>
        <time>2021-12-05T19:46:55Z</time>
      </trkpt>
      <trkpt lat="43.03763" lon="2.35095">
        <ele>405</ele>
        <time>2021-12-05T19:47:03Z</time>
      </trkpt>
      <trkpt lat="43.03766" lon="2.35075">
        <ele>405</ele>
        <time>2021-12-05T19:47:05Z</time>
      </trkpt>
      <trkpt lat="43.03763" lon="2.35054">
        <ele>405</ele>
        <time>2021-12-05T19:47:08Z</time>
      </trkpt>
      <trkpt lat="43.0376" lon="2.35043">
        <ele>405</ele>
        <time>2021-12-05T19:47:10Z</time>
      </trkpt>
      <trkpt lat="43.03756" lon="2.35038">
        <ele>404</ele>
        <time>2021-12-05T19:47:11Z</time>
      </trkpt>
      <trkpt lat="43.03673" lon="2.34993">
        <ele>391</ele>
        <time>2021-12-05T19:47:27Z</time>
      </trkpt>
      <trkpt lat="43.03652" lon="2.34976">
        <ele>388</ele>
        <time>2021-12-05T19:47:31Z</time>
      </trkpt>
      <trkpt lat="43.03642" lon="2.34961">
        <ele>386</ele>
        <time>2021-12-05T19:47:33Z</time>
      </trkpt>
      <trkpt lat="43.03638" lon="2.34951">
        <ele>385</ele>
        <time>2021-12-05T19:47:35Z</time>
      </trkpt>
      <trkpt lat="43.03633" lon="2.34926">
        <ele>385</ele>
        <time>2021-12-05T19:47:38Z</time>
      </trkpt>
      <trkpt lat="43.03634" lon="2.34908">
        <ele>385</ele>
        <time>2021-12-05T19:47:41Z</time>
      </trkpt>
      <trkpt lat="43.03639" lon="2.34881">
        <ele>385</ele>
        <time>2021-12-05T19:47:44Z</time>
      </trkpt>
      <trkpt lat="43.03643" lon="2.3487">
        <ele>385</ele>
        <time>2021-12-05T19:47:46Z</time>
      </trkpt>
      <trkpt lat="43.03649" lon="2.3486">
        <ele>386</ele>
        <time>2021-12-05T19:47:48Z</time>
      </trkpt>
      <trkpt lat="43.03667" lon="2.34846">
        <ele>388</ele>
        <time>2021-12-05T19:47:51Z</time>
      </trkpt>
      <trkpt lat="43.03675" lon="2.34843">
        <ele>388</ele>
        <time>2021-12-05T19:47:53Z</time>
      </trkpt>
      <trkpt lat="43.03711" lon="2.34843">
        <ele>391</ele>
        <time>2021-12-05T19:47:59Z</time>
      </trkpt>
      <trkpt lat="43.0372" lon="2.34839">
        <ele>391</ele>
        <time>2021-12-05T19:48:01Z</time>
      </trkpt>
      <trkpt lat="43.03727" lon="2.34835">
        <ele>391</ele>
        <time>2021-12-05T19:48:02Z</time>
      </trkpt>
      <trkpt lat="43.03737" lon="2.34823">
        <ele>391</ele>
        <time>2021-12-05T19:48:05Z</time>
      </trkpt>
      <trkpt lat="43.03745" lon="2.34802">
        <ele>391</ele>
        <time>2021-12-05T19:48:08Z</time>
      </trkpt>
      <trkpt lat="43.03747" lon="2.34776">
        <ele>390</ele>
        <time>2021-12-05T19:48:11Z</time>
      </trkpt>
      <trkpt lat="43.03743" lon="2.34735">
        <ele>388</ele>
        <time>2021-12-05T19:48:16Z</time>
      </trkpt>
      <trkpt lat="43.03737" lon="2.34692">
        <ele>386</ele>
        <time>2021-12-05T19:48:22Z</time>
      </trkpt>
      <trkpt lat="43.03728" lon="2.34656">
        <ele>384</ele>
        <time>2021-12-05T19:48:27Z</time>
      </trkpt>
      <trkpt lat="43.03722" lon="2.34646">
        <ele>383</ele>
        <time>2021-12-05T19:48:29Z</time>
      </trkpt>
      <trkpt lat="43.03716" lon="2.3464">
        <ele>382</ele>
        <time>2021-12-05T19:48:30Z</time>
      </trkpt>
      <trkpt lat="43.03678" lon="2.34619">
        <ele>377</ele>
        <time>2021-12-05T19:48:37Z</time>
      </trkpt>
      <trkpt lat="43.0367" lon="2.34612">
        <ele>376</ele>
        <time>2021-12-05T19:48:39Z</time>
      </trkpt>
      <trkpt lat="43.03663" lon="2.34599">
        <ele>376</ele>
        <time>2021-12-05T19:48:41Z</time>
      </trkpt>
      <trkpt lat="43.0366" lon="2.34586">
        <ele>376</ele>
        <time>2021-12-05T19:48:43Z</time>
      </trkpt>
      <trkpt lat="43.0366" lon="2.34572">
        <ele>375</ele>
        <time>2021-12-05T19:48:45Z</time>
      </trkpt>
      <trkpt lat="43.03665" lon="2.34538">
        <ele>374</ele>
        <time>2021-12-05T19:48:49Z</time>
      </trkpt>
      <trkpt lat="43.03676" lon="2.34501">
        <ele>372</ele>
        <time>2021-12-05T19:48:54Z</time>
      </trkpt>
      <trkpt lat="43.03685" lon="2.34477">
        <ele>371</ele>
        <time>2021-12-05T19:48:58Z</time>
      </trkpt>
      <trkpt lat="43.03712" lon="2.3443">
        <ele>370</ele>
        <time>2021-12-05T19:49:06Z</time>
      </trkpt>
      <trkpt lat="43.03728" lon="2.34388">
        <ele>369</ele>
        <time>2021-12-05T19:49:12Z</time>
      </trkpt>
      <trkpt lat="43.03736" lon="2.34376">
        <ele>369</ele>
        <time>2021-12-05T19:49:14Z</time>
      </trkpt>
      <trkpt lat="43.03744" lon="2.34368">
        <ele>369</ele>
        <time>2021-12-05T19:49:16Z</time>
      </trkpt>
      <trkpt lat="43.03777" lon="2.34352">
        <ele>372</ele>
        <time>2021-12-05T19:49:22Z</time>
      </trkpt>
      <trkpt lat="43.03788" lon="2.34344">
        <ele>373</ele>
        <time>2021-12-05T19:49:24Z</time>
      </trkpt>
      <trkpt lat="43.03794" lon="2.34334">
        <ele>374</ele>
        <time>2021-12-05T19:49:26Z</time>
      </trkpt>
      <trkpt lat="43.03795" lon="2.3432">
        <ele>374</ele>
        <time>2021-12-05T19:49:28Z</time>
      </trkpt>
      <trkpt lat="43.03793" lon="2.34308">
        <ele>374</ele>
        <time>2021-12-05T19:49:29Z</time>
      </trkpt>
      <trkpt lat="43.03787" lon="2.34298">
        <ele>373</ele>
        <time>2021-12-05T19:49:31Z</time>
      </trkpt>
      <trkpt lat="43.03756" lon="2.34274">
        <ele>367</ele>
        <time>2021-12-05T19:49:37Z</time>
      </trkpt>
      <trkpt lat="43.03746" lon="2.34261">
        <ele>365</ele>
        <time>2021-12-05T19:49:40Z</time>
      </trkpt>
      <trkpt lat="43.03738" lon="2.34242">
        <ele>363</ele>
        <time>2021-12-05T19:49:43Z</time>
      </trkpt>
      <trkpt lat="43.03742" lon="2.34239">
        <ele>363</ele>
        <time>2021-12-05T19:49:43Z</time>
      </trkpt>
      <trkpt lat="43.03757" lon="2.34224">
        <ele>366</ele>
        <time>2021-12-05T19:49:47Z</time>
      </trkpt>
      <trkpt lat="43.03758" lon="2.34212">
        <ele>366</ele>
        <time>2021-12-05T19:49:48Z</time>
      </trkpt>
      <trkpt lat="43.03751" lon="2.34188">
        <ele>364</ele>
        <time>2021-12-05T19:49:52Z</time>
      </trkpt>
      <trkpt lat="43.03753" lon="2.34154">
        <ele>365</ele>
        <time>2021-12-05T19:49:56Z</time>
      </trkpt>
      <trkpt lat="43.03754" lon="2.34149">
        <ele>365</ele>
        <time>2021-12-05T19:49:57Z</time>
      </trkpt>
      <trkpt lat="43.03765" lon="2.34102">
        <ele>366</ele>
        <time>2021-12-05T19:50:03Z</time>
      </trkpt>
      <trkpt lat="43.03772" lon="2.34062">
        <ele>367</ele>
        <time>2021-12-05T19:50:09Z</time>
      </trkpt>
      <trkpt lat="43.03776" lon="2.34053">
        <ele>367</ele>
        <time>2021-12-05T19:50:10Z</time>
      </trkpt>
      <trkpt lat="43.03787" lon="2.34048">
        <ele>367</ele>
        <time>2021-12-05T19:50:12Z</time>
      </trkpt>
      <trkpt lat="43.03866" lon="2.34058">
        <ele>369</ele>
        <time>2021-12-05T19:50:26Z</time>
      </trkpt>
      <trkpt lat="43.0388" lon="2.34065">
        <ele>369</ele>
        <time>2021-12-05T19:50:29Z</time>
      </trkpt>
      <trkpt lat="43.03882" lon="2.34068">
        <ele>369</ele>
        <time>2021-12-05T19:50:29Z</time>
      </trkpt>
      <trkpt lat="43.03886" lon="2.34077">
        <ele>370</ele>
        <time>2021-12-05T19:50:31Z</time>
      </trkpt>
      <trkpt lat="43.03889" lon="2.34087">
        <ele>371</ele>
        <time>2021-12-05T19:50:32Z</time>
      </trkpt>
      <trkpt lat="43.03894" lon="2.34113">
        <ele>373</ele>
        <time>2021-12-05T19:50:36Z</time>
      </trkpt>
      <trkpt lat="43.03898" lon="2.34126">
        <ele>375</ele>
        <time>2021-12-05T19:50:37Z</time>
      </trkpt>
      <trkpt lat="43.03903" lon="2.34136">
        <ele>376</ele>
        <time>2021-12-05T19:50:39Z</time>
      </trkpt>
      <trkpt lat="43.03906" lon="2.34142">
        <ele>376</ele>
        <time>2021-12-05T19:50:40Z</time>
      </trkpt>
      <trkpt lat="43.03917" lon="2.34161">
        <ele>378</ele>
        <time>2021-12-05T19:50:43Z</time>
      </trkpt>
      <trkpt lat="43.03921" lon="2.34195">
        <ele>382</ele>
        <time>2021-12-05T19:50:48Z</time>
      </trkpt>
      <trkpt lat="43.03927" lon="2.34208">
        <ele>383</ele>
        <time>2021-12-05T19:50:50Z</time>
      </trkpt>
      <trkpt lat="43.03933" lon="2.3422">
        <ele>384</ele>
        <time>2021-12-05T19:50:51Z</time>
      </trkpt>
      <trkpt lat="43.03952" lon="2.34238">
        <ele>385</ele>
        <time>2021-12-05T19:50:56Z</time>
      </trkpt>
      <trkpt lat="43.03963" lon="2.34253">
        <ele>386</ele>
        <time>2021-12-05T19:50:58Z</time>
      </trkpt>
      <trkpt lat="43.03978" lon="2.34283">
        <ele>389</ele>
        <time>2021-12-05T19:51:03Z</time>
      </trkpt>
      <trkpt lat="43.03994" lon="2.34307">
        <ele>391</ele>
        <time>2021-12-05T19:51:07Z</time>
      </trkpt>
      <trkpt lat="43.04003" lon="2.34315">
        <ele>392</ele>
        <time>2021-12-05T19:51:09Z</time>
      </trkpt>
      <trkpt lat="43.04012" lon="2.34317">
        <ele>393</ele>
        <time>2021-12-05T19:51:11Z</time>
      </trkpt>
      <trkpt lat="43.04022" lon="2.34313">
        <ele>393</ele>
        <time>2021-12-05T19:51:13Z</time>
      </trkpt>
      <trkpt lat="43.04032" lon="2.34304">
        <ele>393</ele>
        <time>2021-12-05T19:51:15Z</time>
      </trkpt>
      <trkpt lat="43.04046" lon="2.34287">
        <ele>392</ele>
        <time>2021-12-05T19:51:18Z</time>
      </trkpt>
      <trkpt lat="43.04074" lon="2.34239">
        <ele>389</ele>
        <time>2021-12-05T19:51:26Z</time>
      </trkpt>
      <trkpt lat="43.04083" lon="2.3423">
        <ele>389</ele>
        <time>2021-12-05T19:51:28Z</time>
      </trkpt>
      <trkpt lat="43.04092" lon="2.34226">
        <ele>390</ele>
        <time>2021-12-05T19:51:30Z</time>
      </trkpt>
      <trkpt lat="43.04125" lon="2.3422">
        <ele>397</ele>
        <time>2021-12-05T19:51:36Z</time>
      </trkpt>
      <trkpt lat="43.04147" lon="2.34204">
        <ele>400</ele>
        <time>2021-12-05T19:51:40Z</time>
      </trkpt>
      <trkpt lat="43.04161" lon="2.3418">
        <ele>400</ele>
        <time>2021-12-05T19:51:44Z</time>
      </trkpt>
      <trkpt lat="43.04167" lon="2.34158">
        <ele>400</ele>
        <time>2021-12-05T19:51:47Z</time>
      </trkpt>
      <trkpt lat="43.04162" lon="2.34121">
        <ele>398</ele>
        <time>2021-12-05T19:51:52Z</time>
      </trkpt>
      <trkpt lat="43.04161" lon="2.34089">
        <ele>398</ele>
        <time>2021-12-05T19:51:56Z</time>
      </trkpt>
      <trkpt lat="43.04167" lon="2.34079">
        <ele>399</ele>
        <time>2021-12-05T19:51:58Z</time>
      </trkpt>
      <trkpt lat="43.04191" lon="2.34062">
        <ele>406</ele>
        <time>2021-12-05T19:52:03Z</time>
      </trkpt>
      <trkpt lat="43.042" lon="2.34044">
        <ele>407</ele>
        <time>2021-12-05T19:52:06Z</time>
      </trkpt>
      <trkpt lat="43.04206" lon="2.34026">
        <ele>408</ele>
        <time>2021-12-05T19:52:08Z</time>
      </trkpt>
      <trkpt lat="43.04208" lon="2.34015">
        <ele>408</ele>
        <time>2021-12-05T19:52:10Z</time>
      </trkpt>
      <trkpt lat="43.04217" lon="2.33974">
        <ele>407</ele>
        <time>2021-12-05T19:52:15Z</time>
      </trkpt>
      <trkpt lat="43.04225" lon="2.3396">
        <ele>409</ele>
        <time>2021-12-05T19:52:17Z</time>
      </trkpt>
      <trkpt lat="43.04244" lon="2.3392">
        <ele>412</ele>
        <time>2021-12-05T19:52:24Z</time>
      </trkpt>
      <trkpt lat="43.04253" lon="2.33895">
        <ele>414</ele>
        <time>2021-12-05T19:52:27Z</time>
      </trkpt>
      <trkpt lat="43.04258" lon="2.33857">
        <ele>414</ele>
        <time>2021-12-05T19:52:32Z</time>
      </trkpt>
      <trkpt lat="43.04258" lon="2.33832">
        <ele>413</ele>
        <time>2021-12-05T19:52:36Z</time>
      </trkpt>
      <trkpt lat="43.04252" lon="2.33804">
        <ele>412</ele>
        <time>2021-12-05T19:52:39Z</time>
      </trkpt>
      <trkpt lat="43.04246" lon="2.33784">
        <ele>410</ele>
        <time>2021-12-05T19:52:42Z</time>
      </trkpt>
      <trkpt lat="43.04206" lon="2.33738">
        <ele>400</ele>
        <time>2021-12-05T19:52:51Z</time>
      </trkpt>
      <trkpt lat="43.04202" lon="2.3372">
        <ele>400</ele>
        <time>2021-12-05T19:52:54Z</time>
      </trkpt>
      <trkpt lat="43.042" lon="2.33696">
        <ele>401</ele>
        <time>2021-12-05T19:52:57Z</time>
      </trkpt>
      <trkpt lat="43.04206" lon="2.33644">
        <ele>406</ele>
        <time>2021-12-05T19:53:04Z</time>
      </trkpt>
      <trkpt lat="43.04204" lon="2.33604">
        <ele>408</ele>
        <time>2021-12-05T19:53:09Z</time>
      </trkpt>
      <trkpt lat="43.04204" lon="2.33554">
        <ele>411</ele>
        <time>2021-12-05T19:53:16Z</time>
      </trkpt>
      <trkpt lat="43.04208" lon="2.33485">
        <ele>413</ele>
        <time>2021-12-05T19:53:25Z</time>
      </trkpt>
      <trkpt lat="43.04214" lon="2.33411">
        <ele>411</ele>
        <time>2021-12-05T19:53:34Z</time>
      </trkpt>
      <trkpt lat="43.04213" lon="2.33384">
        <ele>409</ele>
        <time>2021-12-05T19:53:38Z</time>
      </trkpt>
      <trkpt lat="43.04202" lon="2.33299">
        <ele>402</ele>
        <time>2021-12-05T19:53:49Z</time>
      </trkpt>
      <trkpt lat="43.04204" lon="2.33244">
        <ele>399</ele>
        <time>2021-12-05T19:53:56Z</time>
      </trkpt>
      <trkpt lat="43.04202" lon="2.33179">
        <ele>397</ele>
        <time>2021-12-05T19:54:05Z</time>
      </trkpt>
      <trkpt lat="43.04196" lon="2.33111">
        <ele>397</ele>
        <time>2021-12-05T19:54:14Z</time>
      </trkpt>
      <trkpt lat="43.04199" lon="2.33091">
        <ele>397</ele>
        <time>2021-12-05T19:54:16Z</time>
      </trkpt>
      <trkpt lat="43.04206" lon="2.33082">
        <ele>396</ele>
        <time>2021-12-05T19:54:18Z</time>
      </trkpt>
      <trkpt lat="43.04214" lon="2.3308">
        <ele>396</ele>
        <time>2021-12-05T19:54:19Z</time>
      </trkpt>
      <trkpt lat="43.04258" lon="2.33086">
        <ele>391</ele>
        <time>2021-12-05T19:54:27Z</time>
      </trkpt>
      <trkpt lat="43.04284" lon="2.33083">
        <ele>389</ele>
        <time>2021-12-05T19:54:32Z</time>
      </trkpt>
      <trkpt lat="43.04326" lon="2.33075">
        <ele>386</ele>
        <time>2021-12-05T19:54:39Z</time>
      </trkpt>
      <trkpt lat="43.04364" lon="2.33068">
        <ele>385</ele>
        <time>2021-12-05T19:54:46Z</time>
      </trkpt>
      <trkpt lat="43.044" lon="2.33071">
        <ele>383</ele>
        <time>2021-12-05T19:54:53Z</time>
      </trkpt>
      <trkpt lat="43.04431" lon="2.33064">
        <ele>381</ele>
        <time>2021-12-05T19:54:58Z</time>
      </trkpt>
      <trkpt lat="43.04466" lon="2.33044">
        <ele>378</ele>
        <time>2021-12-05T19:55:05Z</time>
      </trkpt>
      <trkpt lat="43.04485" lon="2.33037">
        <ele>377</ele>
        <time>2021-12-05T19:55:09Z</time>
      </trkpt>
      <trkpt lat="43.04497" lon="2.33039">
        <ele>376</ele>
        <time>2021-12-05T19:55:11Z</time>
      </trkpt>
      <trkpt lat="43.04525" lon="2.33061">
        <ele>371</ele>
        <time>2021-12-05T19:55:16Z</time>
      </trkpt>
      <trkpt lat="43.04555" lon="2.33096">
        <ele>366</ele>
        <time>2021-12-05T19:55:23Z</time>
      </trkpt>
      <trkpt lat="43.04566" lon="2.33105">
        <ele>365</ele>
        <time>2021-12-05T19:55:26Z</time>
      </trkpt>
      <trkpt lat="43.04588" lon="2.33118">
        <ele>363</ele>
        <time>2021-12-05T19:55:30Z</time>
      </trkpt>
      <trkpt lat="43.04597" lon="2.33132">
        <ele>363</ele>
        <time>2021-12-05T19:55:32Z</time>
      </trkpt>
      <trkpt lat="43.04608" lon="2.33155">
        <ele>363</ele>
        <time>2021-12-05T19:55:36Z</time>
      </trkpt>
      <trkpt lat="43.04617" lon="2.33162">
        <ele>362</ele>
        <time>2021-12-05T19:55:38Z</time>
      </trkpt>
      <trkpt lat="43.04642" lon="2.33175">
        <ele>358</ele>
        <time>2021-12-05T19:55:43Z</time>
      </trkpt>
      <trkpt lat="43.04697" lon="2.33258">
        <ele>352</ele>
        <time>2021-12-05T19:55:57Z</time>
      </trkpt>
      <trkpt lat="43.0471" lon="2.33287">
        <ele>350</ele>
        <time>2021-12-05T19:56:02Z</time>
      </trkpt>
      <trkpt lat="43.04716" lon="2.33327">
        <ele>351</ele>
        <time>2021-12-05T19:56:07Z</time>
      </trkpt>
      <trkpt lat="43.04716" lon="2.33348">
        <ele>353</ele>
        <time>2021-12-05T19:56:10Z</time>
      </trkpt>
      <trkpt lat="43.04717" lon="2.33357">
        <ele>354</ele>
        <time>2021-12-05T19:56:11Z</time>
      </trkpt>
      <trkpt lat="43.04722" lon="2.33363">
        <ele>354</ele>
        <time>2021-12-05T19:56:12Z</time>
      </trkpt>
      <trkpt lat="43.04728" lon="2.33366">
        <ele>353</ele>
        <time>2021-12-05T19:56:13Z</time>
      </trkpt>
      <trkpt lat="43.04736" lon="2.33366">
        <ele>351</ele>
        <time>2021-12-05T19:56:15Z</time>
      </trkpt>
      <trkpt lat="43.04768" lon="2.33374">
        <ele>345</ele>
        <time>2021-12-05T19:56:20Z</time>
      </trkpt>
      <trkpt lat="43.04797" lon="2.33387">
        <ele>341</ele>
        <time>2021-12-05T19:56:26Z</time>
      </trkpt>
      <trkpt lat="43.04809" lon="2.33397">
        <ele>340</ele>
        <time>2021-12-05T19:56:28Z</time>
      </trkpt>
      <trkpt lat="43.04819" lon="2.33407">
        <ele>340</ele>
        <time>2021-12-05T19:56:30Z</time>
      </trkpt>
      <trkpt lat="43.04838" lon="2.33414">
        <ele>337</ele>
        <time>2021-12-05T19:56:34Z</time>
      </trkpt>
      <trkpt lat="43.04864" lon="2.33415">
        <ele>333</ele>
        <time>2021-12-05T19:56:39Z</time>
      </trkpt>
      <trkpt lat="43.04875" lon="2.33422">
        <ele>332</ele>
        <time>2021-12-05T19:56:41Z</time>
      </trkpt>
      <trkpt lat="43.04879" lon="2.33429">
        <ele>332</ele>
        <time>2021-12-05T19:56:42Z</time>
      </trkpt>
      <trkpt lat="43.0489" lon="2.33468">
        <ele>335</ele>
        <time>2021-12-05T19:56:47Z</time>
      </trkpt>
      <trkpt lat="43.04898" lon="2.33479">
        <ele>336</ele>
        <time>2021-12-05T19:56:49Z</time>
      </trkpt>
      <trkpt lat="43.04904" lon="2.33481">
        <ele>335</ele>
        <time>2021-12-05T19:56:50Z</time>
      </trkpt>
      <trkpt lat="43.0491" lon="2.3348">
        <ele>334</ele>
        <time>2021-12-05T19:56:52Z</time>
      </trkpt>
      <trkpt lat="43.04936" lon="2.33464">
        <ele>328</ele>
        <time>2021-12-05T19:56:57Z</time>
      </trkpt>
      <trkpt lat="43.0498" lon="2.33448">
        <ele>321</ele>
        <time>2021-12-05T19:57:05Z</time>
      </trkpt>
      <trkpt lat="43.04988" lon="2.33447">
        <ele>320</ele>
        <time>2021-12-05T19:57:06Z</time>
      </trkpt>
      <trkpt lat="43.04995" lon="2.3345">
        <ele>319</ele>
        <time>2021-12-05T19:57:07Z</time>
      </trkpt>
      <trkpt lat="43.05003" lon="2.33466">
        <ele>320</ele>
        <time>2021-12-05T19:57:10Z</time>
      </trkpt>
      <trkpt lat="43.05011" lon="2.33517">
        <ele>322</ele>
        <time>2021-12-05T19:57:17Z</time>
      </trkpt>
      <trkpt lat="43.05015" lon="2.33526">
        <ele>322</ele>
        <time>2021-12-05T19:57:18Z</time>
      </trkpt>
      <trkpt lat="43.05021" lon="2.3353">
        <ele>321</ele>
        <time>2021-12-05T19:57:19Z</time>
      </trkpt>
      <trkpt lat="43.05027" lon="2.33532">
        <ele>320</ele>
        <time>2021-12-05T19:57:20Z</time>
      </trkpt>
      <trkpt lat="43.05063" lon="2.33523">
        <ele>314</ele>
        <time>2021-12-05T19:57:27Z</time>
      </trkpt>
      <trkpt lat="43.05116" lon="2.33512">
        <ele>304</ele>
        <time>2021-12-05T19:57:36Z</time>
      </trkpt>
      <trkpt lat="43.05138" lon="2.33515">
        <ele>301</ele>
        <time>2021-12-05T19:57:40Z</time>
      </trkpt>
      <trkpt lat="43.05148" lon="2.33523">
        <ele>300</ele>
        <time>2021-12-05T19:57:42Z</time>
      </trkpt>
      <trkpt lat="43.05168" lon="2.33563">
        <ele>303</ele>
        <time>2021-12-05T19:57:49Z</time>
      </trkpt>
      <trkpt lat="43.05176" lon="2.33574">
        <ele>302</ele>
        <time>2021-12-05T19:57:51Z</time>
      </trkpt>
      <trkpt lat="43.05225" lon="2.33598">
        <ele>294</ele>
        <time>2021-12-05T19:58:00Z</time>
      </trkpt>
      <trkpt lat="43.05262" lon="2.33623">
        <ele>291</ele>
        <time>2021-12-05T19:58:07Z</time>
      </trkpt>
      <trkpt lat="43.05293" lon="2.33643">
        <ele>289</ele>
        <time>2021-12-05T19:58:13Z</time>
      </trkpt>
      <trkpt lat="43.05313" lon="2.33649">
        <ele>287</ele>
        <time>2021-12-05T19:58:17Z</time>
      </trkpt>
      <trkpt lat="43.05337" lon="2.33651">
        <ele>284</ele>
        <time>2021-12-05T19:58:21Z</time>
      </trkpt>
      <trkpt lat="43.05355" lon="2.33663">
        <ele>285</ele>
        <time>2021-12-05T19:58:25Z</time>
      </trkpt>
      <trkpt lat="43.05361" lon="2.33671">
        <ele>286</ele>
        <time>2021-12-05T19:58:26Z</time>
      </trkpt>
      <trkpt lat="43.05373" lon="2.33686">
        <ele>287</ele>
        <time>2021-12-05T19:58:29Z</time>
      </trkpt>
      <trkpt lat="43.0539" lon="2.33689">
        <ele>286</ele>
        <time>2021-12-05T19:58:32Z</time>
      </trkpt>
      <trkpt lat="43.05398" lon="2.33685">
        <ele>285</ele>
        <time>2021-12-05T19:58:34Z</time>
      </trkpt>
      <trkpt lat="43.05411" lon="2.33675">
        <ele>284</ele>
        <time>2021-12-05T19:58:37Z</time>
      </trkpt>
      <trkpt lat="43.05453" lon="2.3362">
        <ele>287</ele>
        <time>2021-12-05T19:58:47Z</time>
      </trkpt>
      <trkpt lat="43.05463" lon="2.33583">
        <ele>286</ele>
        <time>2021-12-05T19:58:52Z</time>
      </trkpt>
      <trkpt lat="43.05465" lon="2.33552">
        <ele>288</ele>
        <time>2021-12-05T19:58:56Z</time>
      </trkpt>
      <trkpt lat="43.05461" lon="2.33519">
        <ele>288</ele>
        <time>2021-12-05T19:59:00Z</time>
      </trkpt>
      <trkpt lat="43.05453" lon="2.33495">
        <ele>287</ele>
        <time>2021-12-05T19:59:04Z</time>
      </trkpt>
      <trkpt lat="43.05434" lon="2.3347">
        <ele>284</ele>
        <time>2021-12-05T19:59:09Z</time>
      </trkpt>
      <trkpt lat="43.05412" lon="2.33451">
        <ele>280</ele>
        <time>2021-12-05T19:59:13Z</time>
      </trkpt>
      <trkpt lat="43.05403" lon="2.33433">
        <ele>280</ele>
        <time>2021-12-05T19:59:16Z</time>
      </trkpt>
      <trkpt lat="43.05398" lon="2.33404">
        <ele>281</ele>
        <time>2021-12-05T19:59:20Z</time>
      </trkpt>
      <trkpt lat="43.05381" lon="2.33359">
        <ele>277</ele>
        <time>2021-12-05T19:59:26Z</time>
      </trkpt>
      <trkpt lat="43.05373" lon="2.33311">
        <ele>274</ele>
        <time>2021-12-05T19:59:33Z</time>
      </trkpt>
      <trkpt lat="43.05371" lon="2.3327">
        <ele>271</ele>
        <time>2021-12-05T19:59:38Z</time>
      </trkpt>
      <trkpt lat="43.05376" lon="2.33249">
        <ele>271</ele>
        <time>2021-12-05T19:59:41Z</time>
      </trkpt>
      <trkpt lat="43.05386" lon="2.33234">
        <ele>270</ele>
        <time>2021-12-05T19:59:44Z</time>
      </trkpt>
      <trkpt lat="43.054" lon="2.33224">
        <ele>271</ele>
        <time>2021-12-05T19:59:47Z</time>
      </trkpt>
      <trkpt lat="43.05454" lon="2.33201">
        <ele>273</ele>
        <time>2021-12-05T19:59:57Z</time>
      </trkpt>
      <trkpt lat="43.05525" lon="2.33146">
        <ele>267</ele>
        <time>2021-12-05T20:00:11Z</time>
      </trkpt>
      <trkpt lat="43.05609" lon="2.33106">
        <ele>265</ele>
        <time>2021-12-05T20:00:27Z</time>
      </trkpt>
      <trkpt lat="43.05625" lon="2.33108">
        <ele>266</ele>
        <time>2021-12-05T20:00:30Z</time>
      </trkpt>
      <trkpt lat="43.05644" lon="2.33116">
        <ele>268</ele>
        <time>2021-12-05T20:00:33Z</time>
      </trkpt>
      <trkpt lat="43.05666" lon="2.33134">
        <ele>273</ele>
        <time>2021-12-05T20:00:38Z</time>
      </trkpt>
      <trkpt lat="43.05682" lon="2.33135">
        <ele>275</ele>
        <time>2021-12-05T20:00:41Z</time>
      </trkpt>
      <trkpt lat="43.05697" lon="2.33132">
        <ele>276</ele>
        <time>2021-12-05T20:00:43Z</time>
      </trkpt>
      <trkpt lat="43.05712" lon="2.33117">
        <ele>274</ele>
        <time>2021-12-05T20:00:47Z</time>
      </trkpt>
      <trkpt lat="43.05728" lon="2.33085">
        <ele>270</ele>
        <time>2021-12-05T20:00:52Z</time>
      </trkpt>
      <trkpt lat="43.05738" lon="2.33072">
        <ele>268</ele>
        <time>2021-12-05T20:00:54Z</time>
      </trkpt>
      <trkpt lat="43.05757" lon="2.33066">
        <ele>269</ele>
        <time>2021-12-05T20:00:58Z</time>
      </trkpt>
      <trkpt lat="43.05792" lon="2.33057">
        <ele>268</ele>
        <time>2021-12-05T20:01:04Z</time>
      </trkpt>
      <trkpt lat="43.05862" lon="2.33057">
        <ele>271</ele>
        <time>2021-12-05T20:01:16Z</time>
      </trkpt>
      <trkpt lat="43.05881" lon="2.33047">
        <ele>269</ele>
        <time>2021-12-05T20:01:20Z</time>
      </trkpt>
      <trkpt lat="43.05901" lon="2.3303">
        <ele>267</ele>
        <time>2021-12-05T20:01:24Z</time>
      </trkpt>
      <trkpt lat="43.05918" lon="2.33027">
        <ele>267</ele>
        <time>2021-12-05T20:01:27Z</time>
      </trkpt>
      <trkpt lat="43.05929" lon="2.33031">
        <ele>268</ele>
        <time>2021-12-05T20:01:29Z</time>
      </trkpt>
      <trkpt lat="43.05951" lon="2.33045">
        <ele>270</ele>
        <time>2021-12-05T20:01:34Z</time>
      </trkpt>
      <trkpt lat="43.06066" lon="2.33075">
        <ele>267</ele>
        <time>2021-12-05T20:01:55Z</time>
      </trkpt>
      <trkpt lat="43.06075" lon="2.33085">
        <ele>266</ele>
        <time>2021-12-05T20:01:57Z</time>
      </trkpt>
      <trkpt lat="43.06098" lon="2.33143">
        <ele>271</ele>
        <time>2021-12-05T20:02:05Z</time>
      </trkpt>
      <trkpt lat="43.06107" lon="2.33158">
        <ele>273</ele>
        <time>2021-12-05T20:02:08Z</time>
      </trkpt>
      <trkpt lat="43.06129" lon="2.33169">
        <ele>275</ele>
        <time>2021-12-05T20:02:12Z</time>
      </trkpt>
      <trkpt lat="43.06142" lon="2.33169">
        <ele>276</ele>
        <time>2021-12-05T20:02:14Z</time>
      </trkpt>
      <trkpt lat="43.06151" lon="2.33157">
        <ele>276</ele>
        <time>2021-12-05T20:02:16Z</time>
      </trkpt>
      <trkpt lat="43.06156" lon="2.33137">
        <ele>275</ele>
        <time>2021-12-05T20:02:19Z</time>
      </trkpt>
      <trkpt lat="43.06157" lon="2.33088">
        <ele>272</ele>
        <time>2021-12-05T20:02:26Z</time>
      </trkpt>
      <trkpt lat="43.06153" lon="2.33069">
        <ele>273</ele>
        <time>2021-12-05T20:02:28Z</time>
      </trkpt>
      <trkpt lat="43.06138" lon="2.33035">
        <ele>274</ele>
        <time>2021-12-05T20:02:33Z</time>
      </trkpt>
      <trkpt lat="43.06106" lon="2.32982">
        <ele>269</ele>
        <time>2021-12-05T20:02:42Z</time>
      </trkpt>
      <trkpt lat="43.06075" lon="2.32918">
        <ele>263</ele>
        <time>2021-12-05T20:02:52Z</time>
      </trkpt>
      <trkpt lat="43.06075" lon="2.32871">
        <ele>261</ele>
        <time>2021-12-05T20:02:58Z</time>
      </trkpt>
      <trkpt lat="43.06079" lon="2.3284">
        <ele>261</ele>
        <time>2021-12-05T20:03:02Z</time>
      </trkpt>
      <trkpt lat="43.06085" lon="2.32817">
        <ele>261</ele>
        <time>2021-12-05T20:03:06Z</time>
      </trkpt>
      <trkpt lat="43.06166" lon="2.32635">
        <ele>263</ele>
        <time>2021-12-05T20:03:33Z</time>
      </trkpt>
      <trkpt lat="43.06205" lon="2.32551">
        <ele>256</ele>
        <time>2021-12-05T20:03:46Z</time>
      </trkpt>
      <trkpt lat="43.06235" lon="2.32516">
        <ele>257</ele>
        <time>2021-12-05T20:03:53Z</time>
      </trkpt>
      <trkpt lat="43.06315" lon="2.32431">
        <ele>254</ele>
        <time>2021-12-05T20:04:11Z</time>
      </trkpt>
      <trkpt lat="43.06348" lon="2.32393">
        <ele>253</ele>
        <time>2021-12-05T20:04:19Z</time>
      </trkpt>
      <trkpt lat="43.06361" lon="2.32371">
        <ele>251</ele>
        <time>2021-12-05T20:04:23Z</time>
      </trkpt>
      <trkpt lat="43.06373" lon="2.32329">
        <ele>248</ele>
        <time>2021-12-05T20:04:28Z</time>
      </trkpt>
      <trkpt lat="43.0638" lon="2.32288">
        <ele>245</ele>
        <time>2021-12-05T20:04:34Z</time>
      </trkpt>
      <trkpt lat="43.06386" lon="2.32278">
        <ele>245</ele>
        <time>2021-12-05T20:04:36Z</time>
      </trkpt>
      <trkpt lat="43.06392" lon="2.32273">
        <ele>246</ele>
        <time>2021-12-05T20:04:37Z</time>
      </trkpt>
      <trkpt lat="43.064" lon="2.32271">
        <ele>247</ele>
        <time>2021-12-05T20:04:38Z</time>
      </trkpt>
      <trkpt lat="43.06406" lon="2.32276">
        <ele>249</ele>
        <time>2021-12-05T20:04:40Z</time>
      </trkpt>
      <trkpt lat="43.06494" lon="2.32367">
        <ele>252</ele>
        <time>2021-12-05T20:04:59Z</time>
      </trkpt>
      <trkpt lat="43.06527" lon="2.32385">
        <ele>252</ele>
        <time>2021-12-05T20:05:06Z</time>
      </trkpt>
      <trkpt lat="43.06547" lon="2.32392">
        <ele>252</ele>
        <time>2021-12-05T20:05:09Z</time>
      </trkpt>
      <trkpt lat="43.06586" lon="2.32398">
        <ele>251</ele>
        <time>2021-12-05T20:05:16Z</time>
      </trkpt>
      <trkpt lat="43.06621" lon="2.32398">
        <ele>249</ele>
        <time>2021-12-05T20:05:22Z</time>
      </trkpt>
      <trkpt lat="43.06718" lon="2.32415">
        <ele>246</ele>
        <time>2021-12-05T20:05:40Z</time>
      </trkpt>
      <trkpt lat="43.06782" lon="2.32416">
        <ele>246</ele>
        <time>2021-12-05T20:05:51Z</time>
      </trkpt>
      <trkpt lat="43.06827" lon="2.32413">
        <ele>246</ele>
        <time>2021-12-05T20:05:59Z</time>
      </trkpt>
      <trkpt lat="43.06846" lon="2.32403">
        <ele>245</ele>
        <time>2021-12-05T20:06:03Z</time>
      </trkpt>
      <trkpt lat="43.06921" lon="2.32347">
        <ele>242</ele>
        <time>2021-12-05T20:06:18Z</time>
      </trkpt>
      <trkpt lat="43.06939" lon="2.32325">
        <ele>241</ele>
        <time>2021-12-05T20:06:22Z</time>
      </trkpt>
      <trkpt lat="43.06953" lon="2.32284">
        <ele>239</ele>
        <time>2021-12-05T20:06:28Z</time>
      </trkpt>
      <trkpt lat="43.06954" lon="2.32257">
        <ele>238</ele>
        <time>2021-12-05T20:06:32Z</time>
      </trkpt>
      <trkpt lat="43.06945" lon="2.32136">
        <ele>232</ele>
        <time>2021-12-05T20:06:48Z</time>
      </trkpt>
      <trkpt lat="43.06948" lon="2.32112">
        <ele>231</ele>
        <time>2021-12-05T20:06:51Z</time>
      </trkpt>
      <trkpt lat="43.06956" lon="2.32088">
        <ele>230</ele>
        <time>2021-12-05T20:06:54Z</time>
      </trkpt>
      <trkpt lat="43.06966" lon="2.32082">
        <ele>230</ele>
        <time>2021-12-05T20:06:56Z</time>
      </trkpt>
      <trkpt lat="43.06982" lon="2.32077">
        <ele>230</ele>
        <time>2021-12-05T20:06:59Z</time>
      </trkpt>
      <trkpt lat="43.07007" lon="2.32075">
        <ele>230</ele>
        <time>2021-12-05T20:07:03Z</time>
      </trkpt>
      <trkpt lat="43.07027" lon="2.32093">
        <ele>230</ele>
        <time>2021-12-05T20:07:08Z</time>
      </trkpt>
      <trkpt lat="43.07092" lon="2.32157">
        <ele>227</ele>
        <time>2021-12-05T20:07:22Z</time>
      </trkpt>
      <trkpt lat="43.0713" lon="2.32182">
        <ele>226</ele>
        <time>2021-12-05T20:07:29Z</time>
      </trkpt>
      <trkpt lat="43.07168" lon="2.32195">
        <ele>224</ele>
        <time>2021-12-05T20:07:36Z</time>
      </trkpt>
      <trkpt lat="43.07194" lon="2.32196">
        <ele>223</ele>
        <time>2021-12-05T20:07:41Z</time>
      </trkpt>
      <trkpt lat="43.07261" lon="2.3216">
        <ele>217</ele>
        <time>2021-12-05T20:07:54Z</time>
      </trkpt>
      <trkpt lat="43.07268" lon="2.32158">
        <ele>217</ele>
        <time>2021-12-05T20:07:55Z</time>
      </trkpt>
      <trkpt lat="43.07279" lon="2.32163">
        <ele>217</ele>
        <time>2021-12-05T20:07:57Z</time>
      </trkpt>
      <trkpt lat="43.07282" lon="2.32169">
        <ele>217</ele>
        <time>2021-12-05T20:07:58Z</time>
      </trkpt>
      <trkpt lat="43.07284" lon="2.32187">
        <ele>217</ele>
        <time>2021-12-05T20:08:00Z</time>
      </trkpt>
      <trkpt lat="43.07279" lon="2.32264">
        <ele>221</ele>
        <time>2021-12-05T20:08:11Z</time>
      </trkpt>
      <trkpt lat="43.07283" lon="2.32276">
        <ele>221</ele>
        <time>2021-12-05T20:08:12Z</time>
      </trkpt>
      <trkpt lat="43.07295" lon="2.32282">
        <ele>220</ele>
        <time>2021-12-05T20:08:15Z</time>
      </trkpt>
      <trkpt lat="43.07316" lon="2.32281">
        <ele>219</ele>
        <time>2021-12-05T20:08:18Z</time>
      </trkpt>
      <trkpt lat="43.07335" lon="2.32269">
        <ele>218</ele>
        <time>2021-12-05T20:08:22Z</time>
      </trkpt>
      <trkpt lat="43.07348" lon="2.32255">
        <ele>218</ele>
        <time>2021-12-05T20:08:25Z</time>
      </trkpt>
      <trkpt lat="43.07362" lon="2.32227">
        <ele>218</ele>
        <time>2021-12-05T20:08:29Z</time>
      </trkpt>
      <trkpt lat="43.07388" lon="2.32158">
        <ele>216</ele>
        <time>2021-12-05T20:08:39Z</time>
      </trkpt>
      <trkpt lat="43.07392" lon="2.32124">
        <ele>215</ele>
        <time>2021-12-05T20:08:44Z</time>
      </trkpt>
      <trkpt lat="43.07395" lon="2.32077">
        <ele>212</ele>
        <time>2021-12-05T20:08:50Z</time>
      </trkpt>
      <trkpt lat="43.07403" lon="2.32057">
        <ele>211</ele>
        <time>2021-12-05T20:08:53Z</time>
      </trkpt>
      <trkpt lat="43.07413" lon="2.32046">
        <ele>210</ele>
        <time>2021-12-05T20:08:55Z</time>
      </trkpt>
      <trkpt lat="43.07423" lon="2.32043">
        <ele>209</ele>
        <time>2021-12-05T20:08:57Z</time>
      </trkpt>
      <trkpt lat="43.07506" lon="2.32033">
        <ele>206</ele>
        <time>2021-12-05T20:09:12Z</time>
      </trkpt>
      <trkpt lat="43.07516" lon="2.32026">
        <ele>206</ele>
        <time>2021-12-05T20:09:14Z</time>
      </trkpt>
      <trkpt lat="43.07575" lon="2.31898">
        <ele>202</ele>
        <time>2021-12-05T20:09:34Z</time>
      </trkpt>
      <trkpt lat="43.07584" lon="2.31867">
        <ele>201</ele>
        <time>2021-12-05T20:09:38Z</time>
      </trkpt>
      <trkpt lat="43.07586" lon="2.31847">
        <ele>201</ele>
        <time>2021-12-05T20:09:41Z</time>
      </trkpt>
      <trkpt lat="43.07585" lon="2.31826">
        <ele>200</ele>
        <time>2021-12-05T20:09:43Z</time>
      </trkpt>
      <trkpt lat="43.07581" lon="2.31808">
        <ele>199</ele>
        <time>2021-12-05T20:09:46Z</time>
      </trkpt>
      <trkpt lat="43.07582" lon="2.31792">
        <ele>198</ele>
        <time>2021-12-05T20:09:48Z</time>
      </trkpt>
      <trkpt lat="43.07588" lon="2.31778">
        <ele>197</ele>
        <time>2021-12-05T20:09:50Z</time>
      </trkpt>
      <trkpt lat="43.076" lon="2.31763">
        <ele>197</ele>
        <time>2021-12-05T20:09:53Z</time>
      </trkpt>
      <trkpt lat="43.07683" lon="2.31695">
        <ele>192</ele>
        <time>2021-12-05T20:10:10Z</time>
      </trkpt>
      <trkpt lat="43.07693" lon="2.31694">
        <ele>191</ele>
        <time>2021-12-05T20:10:12Z</time>
      </trkpt>
      <trkpt lat="43.07707" lon="2.31703">
        <ele>191</ele>
        <time>2021-12-05T20:10:15Z</time>
      </trkpt>
      <trkpt lat="43.07727" lon="2.31737">
        <ele>192</ele>
        <time>2021-12-05T20:10:20Z</time>
      </trkpt>
      <trkpt lat="43.07739" lon="2.31754">
        <ele>192</ele>
        <time>2021-12-05T20:10:23Z</time>
      </trkpt>
      <trkpt lat="43.07767" lon="2.31772">
        <ele>192</ele>
        <time>2021-12-05T20:10:29Z</time>
      </trkpt>
      <trkpt lat="43.07791" lon="2.31778">
        <ele>191</ele>
        <time>2021-12-05T20:10:33Z</time>
      </trkpt>
      <trkpt lat="43.07812" lon="2.31776">
        <ele>189</ele>
        <time>2021-12-05T20:10:37Z</time>
      </trkpt>
      <trkpt lat="43.07849" lon="2.31761">
        <ele>187</ele>
        <time>2021-12-05T20:10:44Z</time>
      </trkpt>
      <trkpt lat="43.07863" lon="2.31764">
        <ele>186</ele>
        <time>2021-12-05T20:10:46Z</time>
      </trkpt>
      <trkpt lat="43.07877" lon="2.31778">
        <ele>186</ele>
        <time>2021-12-05T20:10:49Z</time>
      </trkpt>
      <trkpt lat="43.07904" lon="2.3182">
        <ele>185</ele>
        <time>2021-12-05T20:10:57Z</time>
      </trkpt>
      <trkpt lat="43.07913" lon="2.31824">
        <ele>184</ele>
        <time>2021-12-05T20:10:58Z</time>
      </trkpt>
      <trkpt lat="43.0793" lon="2.31819">
        <ele>183</ele>
        <time>2021-12-05T20:11:01Z</time>
      </trkpt>
      <trkpt lat="43.08001" lon="2.3179">
        <ele>180</ele>
        <time>2021-12-05T20:11:15Z</time>
      </trkpt>
      <trkpt lat="43.08025" lon="2.31809">
        <ele>179</ele>
        <time>2021-12-05T20:11:20Z</time>
      </trkpt>
      <trkpt lat="43.08075" lon="2.31837">
        <ele>177</ele>
        <time>2021-12-05T20:11:29Z</time>
      </trkpt>
      <trkpt lat="43.08154" lon="2.31871">
        <ele>178</ele>
        <time>2021-12-05T20:11:44Z</time>
      </trkpt>
      <trkpt lat="43.08217" lon="2.31901">
        <ele>179</ele>
        <time>2021-12-05T20:11:56Z</time>
      </trkpt>
      <trkpt lat="43.08242" lon="2.31911">
        <ele>180</ele>
        <time>2021-12-05T20:12:00Z</time>
      </trkpt>
      <trkpt lat="43.08263" lon="2.31916">
        <ele>180</ele>
        <time>2021-12-05T20:12:04Z</time>
      </trkpt>
      <trkpt lat="43.08285" lon="2.31918">
        <ele>179</ele>
        <time>2021-12-05T20:12:08Z</time>
      </trkpt>
      <trkpt lat="43.08308" lon="2.31914">
        <ele>178</ele>
        <time>2021-12-05T20:12:12Z</time>
      </trkpt>
      <trkpt lat="43.08423" lon="2.31864">
        <ele>178</ele>
        <time>2021-12-05T20:12:34Z</time>
      </trkpt>
      <trkpt lat="43.08454" lon="2.3185">
        <ele>177</ele>
        <time>2021-12-05T20:12:40Z</time>
      </trkpt>
      <trkpt lat="43.08469" lon="2.3184">
        <ele>177</ele>
        <time>2021-12-05T20:12:42Z</time>
      </trkpt>
      <trkpt lat="43.08481" lon="2.3183">
        <ele>176</ele>
        <time>2021-12-05T20:12:45Z</time>
      </trkpt>
      <trkpt lat="43.08492" lon="2.31816">
        <ele>176</ele>
        <time>2021-12-05T20:12:48Z</time>
      </trkpt>
      <trkpt lat="43.08501" lon="2.31802">
        <ele>176</ele>
        <time>2021-12-05T20:12:50Z</time>
      </trkpt>
      <trkpt lat="43.08508" lon="2.3178">
        <ele>176</ele>
        <time>2021-12-05T20:12:53Z</time>
      </trkpt>
      <trkpt lat="43.08519" lon="2.31678">
        <ele>175</ele>
        <time>2021-12-05T20:13:07Z</time>
      </trkpt>
      <trkpt lat="43.08525" lon="2.31644">
        <ele>175</ele>
        <time>2021-12-05T20:13:11Z</time>
      </trkpt>
      <trkpt lat="43.08536" lon="2.31611">
        <ele>177</ele>
        <time>2021-12-05T20:13:16Z</time>
      </trkpt>
      <trkpt lat="43.08551" lon="2.31586">
        <ele>177</ele>
        <time>2021-12-05T20:13:20Z</time>
      </trkpt>
      <trkpt lat="43.08576" lon="2.31558">
        <ele>176</ele>
        <time>2021-12-05T20:13:26Z</time>
      </trkpt>
      <trkpt lat="43.08637" lon="2.31516">
        <ele>173</ele>
        <time>2021-12-05T20:13:38Z</time>
      </trkpt>
      <trkpt lat="43.08764" lon="2.31426">
        <ele>169</ele>
        <time>2021-12-05T20:14:03Z</time>
      </trkpt>
      <trkpt lat="43.08785" lon="2.31406">
        <ele>169</ele>
        <time>2021-12-05T20:14:08Z</time>
      </trkpt>
      <trkpt lat="43.08798" lon="2.31387">
        <ele>169</ele>
        <time>2021-12-05T20:14:11Z</time>
      </trkpt>
      <trkpt lat="43.08814" lon="2.31363">
        <ele>170</ele>
        <time>2021-12-05T20:14:16Z</time>
      </trkpt>
      <trkpt lat="43.08838" lon="2.31337">
        <ele>170</ele>
        <time>2021-12-05T20:14:21Z</time>
      </trkpt>
      <trkpt lat="43.08853" lon="2.31328">
        <ele>170</ele>
        <time>2021-12-05T20:14:24Z</time>
      </trkpt>
      <trkpt lat="43.08858" lon="2.31325">
        <ele>171</ele>
        <time>2021-12-05T20:14:25Z</time>
      </trkpt>
      <trkpt lat="43.08945" lon="2.31286">
        <ele>171</ele>
        <time>2021-12-05T20:14:41Z</time>
      </trkpt>
      <trkpt lat="43.08976" lon="2.3127">
        <ele>170</ele>
        <time>2021-12-05T20:14:47Z</time>
      </trkpt>
      <trkpt lat="43.0902" lon="2.31248">
        <ele>169</ele>
        <time>2021-12-05T20:14:55Z</time>
      </trkpt>
      <trkpt lat="43.09044" lon="2.31232">
        <ele>168</ele>
        <time>2021-12-05T20:15:00Z</time>
      </trkpt>
      <trkpt lat="43.09055" lon="2.31224">
        <ele>168</ele>
        <time>2021-12-05T20:15:02Z</time>
      </trkpt>
      <trkpt lat="43.09097" lon="2.31202">
        <ele>167</ele>
        <time>2021-12-05T20:15:10Z</time>
      </trkpt>
      <trkpt lat="43.09125" lon="2.3118">
        <ele>166</ele>
        <time>2021-12-05T20:15:16Z</time>
      </trkpt>
      <trkpt lat="43.09162" lon="2.31169">
        <ele>166</ele>
        <time>2021-12-05T20:15:23Z</time>
      </trkpt>
      <trkpt lat="43.0918" lon="2.3116">
        <ele>166</ele>
        <time>2021-12-05T20:15:26Z</time>
      </trkpt>
      <trkpt lat="43.09193" lon="2.31153">
        <ele>166</ele>
        <time>2021-12-05T20:15:29Z</time>
      </trkpt>
      <trkpt lat="43.09203" lon="2.31148">
        <ele>166</ele>
        <time>2021-12-05T20:15:31Z</time>
      </trkpt>
      <trkpt lat="43.09217" lon="2.3114">
        <ele>166</ele>
        <time>2021-12-05T20:15:33Z</time>
      </trkpt>
      <trkpt lat="43.09229" lon="2.31134">
        <ele>166</ele>
        <time>2021-12-05T20:15:36Z</time>
      </trkpt>
      <trkpt lat="43.09257" lon="2.31106">
        <ele>166</ele>
        <time>2021-12-05T20:15:42Z</time>
      </trkpt>
      <trkpt lat="43.09261" lon="2.31101">
        <ele>166</ele>
        <time>2021-12-05T20:15:43Z</time>
      </trkpt>
      <trkpt lat="43.0928" lon="2.3108">
        <ele>167</ele>
        <time>2021-12-05T20:15:47Z</time>
      </trkpt>
      <trkpt lat="43.09286" lon="2.31078">
        <ele>167</ele>
        <time>2021-12-05T20:15:48Z</time>
      </trkpt>
      <trkpt lat="43.09294" lon="2.31075">
        <ele>167</ele>
        <time>2021-12-05T20:15:50Z</time>
      </trkpt>
      <trkpt lat="43.09297" lon="2.31074">
        <ele>167</ele>
        <time>2021-12-05T20:15:50Z</time>
      </trkpt>
      <trkpt lat="43.09323" lon="2.31069">
        <ele>167</ele>
        <time>2021-12-05T20:15:55Z</time>
      </trkpt>
      <trkpt lat="43.09327" lon="2.31068">
        <ele>167</ele>
        <time>2021-12-05T20:15:56Z</time>
      </trkpt>
      <trkpt lat="43.09368" lon="2.31058">
        <ele>167</ele>
        <time>2021-12-05T20:16:03Z</time>
      </trkpt>
      <trkpt lat="43.09376" lon="2.31051">
        <ele>167</ele>
        <time>2021-12-05T20:16:05Z</time>
      </trkpt>
      <trkpt lat="43.09388" lon="2.31041">
        <ele>167</ele>
        <time>2021-12-05T20:16:07Z</time>
      </trkpt>
      <trkpt lat="43.09406" lon="2.31001">
        <ele>168</ele>
        <time>2021-12-05T20:16:13Z</time>
      </trkpt>
      <trkpt lat="43.09408" lon="2.30989">
        <ele>168</ele>
        <time>2021-12-05T20:16:15Z</time>
      </trkpt>
      <trkpt lat="43.09414" lon="2.30962">
        <ele>168</ele>
        <time>2021-12-05T20:16:19Z</time>
      </trkpt>
      <trkpt lat="43.09418" lon="2.30952">
        <ele>168</ele>
        <time>2021-12-05T20:16:20Z</time>
      </trkpt>
      <trkpt lat="43.09422" lon="2.30939">
        <ele>168</ele>
        <time>2021-12-05T20:16:22Z</time>
      </trkpt>
      <trkpt lat="43.09441" lon="2.30916">
        <ele>166</ele>
        <time>2021-12-05T20:16:26Z</time>
      </trkpt>
      <trkpt lat="43.09448" lon="2.30917">
        <ele>166</ele>
        <time>2021-12-05T20:16:28Z</time>
      </trkpt>
      <trkpt lat="43.09518" lon="2.30933">
        <ele>164</ele>
        <time>2021-12-05T20:16:40Z</time>
      </trkpt>
      <trkpt lat="43.09577" lon="2.30947">
        <ele>167</ele>
        <time>2021-12-05T20:16:51Z</time>
      </trkpt>
      <trkpt lat="43.09645" lon="2.30955">
        <ele>171</ele>
        <time>2021-12-05T20:17:03Z</time>
      </trkpt>
      <trkpt lat="43.09693" lon="2.30955">
        <ele>170</ele>
        <time>2021-12-05T20:17:12Z</time>
      </trkpt>
      <trkpt lat="43.0974" lon="2.3097">
        <ele>170</ele>
        <time>2021-12-05T20:17:20Z</time>
      </trkpt>
      <trkpt lat="43.09838" lon="2.31021">
        <ele>171</ele>
        <time>2021-12-05T20:17:39Z</time>
      </trkpt>
      <trkpt lat="43.09891" lon="2.31032">
        <ele>169</ele>
        <time>2021-12-05T20:17:48Z</time>
      </trkpt>
      <trkpt lat="43.09913" lon="2.31034">
        <ele>167</ele>
        <time>2021-12-05T20:17:52Z</time>
      </trkpt>
      <trkpt lat="43.09985" lon="2.31035">
        <ele>164</ele>
        <time>2021-12-05T20:18:05Z</time>
      </trkpt>
      <trkpt lat="43.10002" lon="2.31038">
        <ele>163</ele>
        <time>2021-12-05T20:18:08Z</time>
      </trkpt>
      <trkpt lat="43.10019" lon="2.31047">
        <ele>162</ele>
        <time>2021-12-05T20:18:11Z</time>
      </trkpt>
      <trkpt lat="43.10032" lon="2.3106">
        <ele>162</ele>
        <time>2021-12-05T20:18:14Z</time>
      </trkpt>
      <trkpt lat="43.10045" lon="2.31085">
        <ele>161</ele>
        <time>2021-12-05T20:18:18Z</time>
      </trkpt>
      <trkpt lat="43.10169" lon="2.3135">
        <ele>161</ele>
        <time>2021-12-05T20:18:59Z</time>
      </trkpt>
      <trkpt lat="43.10231" lon="2.31458">
        <ele>163</ele>
        <time>2021-12-05T20:19:17Z</time>
      </trkpt>
      <trkpt lat="43.10283" lon="2.3154">
        <ele>162</ele>
        <time>2021-12-05T20:19:31Z</time>
      </trkpt>
      <trkpt lat="43.10385" lon="2.31692">
        <ele>161</ele>
        <time>2021-12-05T20:19:58Z</time>
      </trkpt>
      <trkpt lat="43.10406" lon="2.31714">
        <ele>161</ele>
        <time>2021-12-05T20:20:03Z</time>
      </trkpt>
      <trkpt lat="43.10465" lon="2.3176">
        <ele>160</ele>
        <time>2021-12-05T20:20:15Z</time>
      </trkpt>
      <trkpt lat="43.10493" lon="2.31774">
        <ele>159</ele>
        <time>2021-12-05T20:20:20Z</time>
      </trkpt>
      <trkpt lat="43.10512" lon="2.31778">
        <ele>158</ele>
        <time>2021-12-05T20:20:23Z</time>
      </trkpt>
      <trkpt lat="43.10537" lon="2.31777">
        <ele>158</ele>
        <time>2021-12-05T20:20:28Z</time>
      </trkpt>
      <trkpt lat="43.10721" lon="2.31736">
        <ele>154</ele>
        <time>2021-12-05T20:21:01Z</time>
      </trkpt>
      <trkpt lat="43.10986" lon="2.31617">
        <ele>153</ele>
        <time>2021-12-05T20:21:51Z</time>
      </trkpt>
      <trkpt lat="43.1101" lon="2.31611">
        <ele>152</ele>
        <time>2021-12-05T20:21:55Z</time>
      </trkpt>
      <trkpt lat="43.11179" lon="2.31586">
        <ele>150</ele>
        <time>2021-12-05T20:22:25Z</time>
      </trkpt>
      <trkpt lat="43.11203" lon="2.31589">
        <ele>151</ele>
        <time>2021-12-05T20:22:30Z</time>
      </trkpt>
      <trkpt lat="43.11269" lon="2.31617">
        <ele>152</ele>
        <time>2021-12-05T20:22:42Z</time>
      </trkpt>
      <trkpt lat="43.11369" lon="2.3164">
        <ele>151</ele>
        <time>2021-12-05T20:23:00Z</time>
      </trkpt>
      <trkpt lat="43.1148" lon="2.31654">
        <ele>150</ele>
        <time>2021-12-05T20:23:20Z</time>
      </trkpt>
      <trkpt lat="43.11543" lon="2.31665">
        <ele>149</ele>
        <time>2021-12-05T20:23:31Z</time>
      </trkpt>
      <trkpt lat="43.11647" lon="2.31698">
        <ele>148</ele>
        <time>2021-12-05T20:23:50Z</time>
      </trkpt>
      <trkpt lat="43.11696" lon="2.31721">
        <ele>148</ele>
        <time>2021-12-05T20:23:59Z</time>
      </trkpt>
      <trkpt lat="43.11774" lon="2.31738">
        <ele>148</ele>
        <time>2021-12-05T20:24:13Z</time>
      </trkpt>
      <trkpt lat="43.11798" lon="2.31738">
        <ele>148</ele>
        <time>2021-12-05T20:24:18Z</time>
      </trkpt>
      <trkpt lat="43.11818" lon="2.31733">
        <ele>149</ele>
        <time>2021-12-05T20:24:21Z</time>
      </trkpt>
      <trkpt lat="43.11838" lon="2.31723">
        <ele>149</ele>
        <time>2021-12-05T20:24:25Z</time>
      </trkpt>
      <trkpt lat="43.1192" lon="2.31644">
        <ele>151</ele>
        <time>2021-12-05T20:24:43Z</time>
      </trkpt>
      <trkpt lat="43.11941" lon="2.31629">
        <ele>152</ele>
        <time>2021-12-05T20:24:47Z</time>
      </trkpt>
      <trkpt lat="43.11993" lon="2.31601">
        <ele>155</ele>
        <time>2021-12-05T20:24:57Z</time>
      </trkpt>
      <trkpt lat="43.12019" lon="2.31594">
        <ele>154</ele>
        <time>2021-12-05T20:25:02Z</time>
      </trkpt>
      <trkpt lat="43.12046" lon="2.31593">
        <ele>152</ele>
        <time>2021-12-05T20:25:06Z</time>
      </trkpt>
      <trkpt lat="43.12076" lon="2.31603">
        <ele>150</ele>
        <time>2021-12-05T20:25:12Z</time>
      </trkpt>
      <trkpt lat="43.12097" lon="2.31615">
        <ele>149</ele>
        <time>2021-12-05T20:25:16Z</time>
      </trkpt>
      <trkpt lat="43.12107" lon="2.31623">
        <ele>148</ele>
        <time>2021-12-05T20:25:18Z</time>
      </trkpt>
      <trkpt lat="43.12127" lon="2.31646">
        <ele>147</ele>
        <time>2021-12-05T20:25:23Z</time>
      </trkpt>
      <trkpt lat="43.12159" lon="2.31696">
        <ele>145</ele>
        <time>2021-12-05T20:25:31Z</time>
      </trkpt>
      <trkpt lat="43.12185" lon="2.31745">
        <ele>143</ele>
        <time>2021-12-05T20:25:39Z</time>
      </trkpt>
      <trkpt lat="43.12199" lon="2.31777">
        <ele>143</ele>
        <time>2021-12-05T20:25:44Z</time>
      </trkpt>
      <trkpt lat="43.12209" lon="2.31825">
        <ele>144</ele>
        <time>2021-12-05T20:25:51Z</time>
      </trkpt>
      <trkpt lat="43.12224" lon="2.31929">
        <ele>144</ele>
        <time>2021-12-05T20:26:04Z</time>
      </trkpt>
      <trkpt lat="43.12233" lon="2.31961">
        <ele>145</ele>
        <time>2021-12-05T20:26:09Z</time>
      </trkpt>
      <trkpt lat="43.12246" lon="2.31993">
        <ele>145</ele>
        <time>2021-12-05T20:26:14Z</time>
      </trkpt>
      <trkpt lat="43.12262" lon="2.32019">
        <ele>145</ele>
        <time>2021-12-05T20:26:18Z</time>
      </trkpt>
      <trkpt lat="43.12281" lon="2.32039">
        <ele>144</ele>
        <time>2021-12-05T20:26:22Z</time>
      </trkpt>
      <trkpt lat="43.12306" lon="2.32064">
        <ele>144</ele>
        <time>2021-12-05T20:26:28Z</time>
      </trkpt>
      <trkpt lat="43.12342" lon="2.32093">
        <ele>144</ele>
        <time>2021-12-05T20:26:35Z</time>
      </trkpt>
      <trkpt lat="43.12361" lon="2.32108">
        <ele>143</ele>
        <time>2021-12-05T20:26:39Z</time>
      </trkpt>
      <trkpt lat="43.12534" lon="2.32248">
        <ele>146</ele>
        <time>2021-12-05T20:27:15Z</time>
      </trkpt>
      <trkpt lat="43.12623" lon="2.32306">
        <ele>144</ele>
        <time>2021-12-05T20:27:32Z</time>
      </trkpt>
      <trkpt lat="43.12644" lon="2.32325">
        <ele>144</ele>
        <time>2021-12-05T20:27:37Z</time>
      </trkpt>
      <trkpt lat="43.12759" lon="2.32448">
        <ele>142</ele>
        <time>2021-12-05T20:28:03Z</time>
      </trkpt>
      <trkpt lat="43.12776" lon="2.3246">
        <ele>142</ele>
        <time>2021-12-05T20:28:06Z</time>
      </trkpt>
      <trkpt lat="43.12803" lon="2.32481">
        <ele>143</ele>
        <time>2021-12-05T20:28:12Z</time>
      </trkpt>
      <trkpt lat="43.1283" lon="2.32495">
        <ele>144</ele>
        <time>2021-12-05T20:28:17Z</time>
      </trkpt>
      <trkpt lat="43.12873" lon="2.32511">
        <ele>144</ele>
        <time>2021-12-05T20:28:25Z</time>
      </trkpt>
      <trkpt lat="43.12897" lon="2.32515">
        <ele>144</ele>
        <time>2021-12-05T20:28:29Z</time>
      </trkpt>
      <trkpt lat="43.12918" lon="2.32514">
        <ele>143</ele>
        <time>2021-12-05T20:28:33Z</time>
      </trkpt>
      <trkpt lat="43.12935" lon="2.3251">
        <ele>142</ele>
        <time>2021-12-05T20:28:36Z</time>
      </trkpt>
      <trkpt lat="43.13156" lon="2.32431">
        <ele>144</ele>
        <time>2021-12-05T20:29:17Z</time>
      </trkpt>
      <trkpt lat="43.13219" lon="2.32388">
        <ele>144</ele>
        <time>2021-12-05T20:29:29Z</time>
      </trkpt>
      <trkpt lat="43.13291" lon="2.3232">
        <ele>139</ele>
        <time>2021-12-05T20:29:45Z</time>
      </trkpt>
      <trkpt lat="43.13326" lon="2.32291">
        <ele>138</ele>
        <time>2021-12-05T20:29:52Z</time>
      </trkpt>
      <trkpt lat="43.13351" lon="2.32276">
        <ele>138</ele>
        <time>2021-12-05T20:29:57Z</time>
      </trkpt>
      <trkpt lat="43.13381" lon="2.32264">
        <ele>138</ele>
        <time>2021-12-05T20:30:02Z</time>
      </trkpt>
      <trkpt lat="43.13503" lon="2.32242">
        <ele>137</ele>
        <time>2021-12-05T20:30:24Z</time>
      </trkpt>
      <trkpt lat="43.13533" lon="2.32238">
        <ele>136</ele>
        <time>2021-12-05T20:30:30Z</time>
      </trkpt>
      <trkpt lat="43.13571" lon="2.32237">
        <ele>136</ele>
        <time>2021-12-05T20:30:36Z</time>
      </trkpt>
      <trkpt lat="43.13608" lon="2.32244">
        <ele>136</ele>
        <time>2021-12-05T20:30:43Z</time>
      </trkpt>
      <trkpt lat="43.13652" lon="2.32259">
        <ele>136</ele>
        <time>2021-12-05T20:30:51Z</time>
      </trkpt>
      <trkpt lat="43.13689" lon="2.3228">
        <ele>136</ele>
        <time>2021-12-05T20:30:58Z</time>
      </trkpt>
      <trkpt lat="43.13752" lon="2.32328">
        <ele>135</ele>
        <time>2021-12-05T20:31:11Z</time>
      </trkpt>
      <trkpt lat="43.13789" lon="2.32343">
        <ele>135</ele>
        <time>2021-12-05T20:31:18Z</time>
      </trkpt>
      <trkpt lat="43.14007" lon="2.32424">
        <ele>133</ele>
        <time>2021-12-05T20:31:58Z</time>
      </trkpt>
      <trkpt lat="43.1404" lon="2.3243">
        <ele>133</ele>
        <time>2021-12-05T20:32:04Z</time>
      </trkpt>
      <trkpt lat="43.14057" lon="2.32429">
        <ele>133</ele>
        <time>2021-12-05T20:32:07Z</time>
      </trkpt>
      <trkpt lat="43.14136" lon="2.32419">
        <ele>134</ele>
        <time>2021-12-05T20:32:21Z</time>
      </trkpt>
      <trkpt lat="43.14174" lon="2.32408">
        <ele>135</ele>
        <time>2021-12-05T20:32:28Z</time>
      </trkpt>
      <trkpt lat="43.14206" lon="2.32396">
        <ele>135</ele>
        <time>2021-12-05T20:32:34Z</time>
      </trkpt>
      <trkpt lat="43.14227" lon="2.32394">
        <ele>134</ele>
        <time>2021-12-05T20:32:38Z</time>
      </trkpt>
      <trkpt lat="43.14274" lon="2.32406">
        <ele>134</ele>
        <time>2021-12-05T20:32:46Z</time>
      </trkpt>
      <trkpt lat="43.14353" lon="2.32439">
        <ele>134</ele>
        <time>2021-12-05T20:33:01Z</time>
      </trkpt>
      <trkpt lat="43.14409" lon="2.32438">
        <ele>136</ele>
        <time>2021-12-05T20:33:11Z</time>
      </trkpt>
      <trkpt lat="43.1446" lon="2.32421">
        <ele>136</ele>
        <time>2021-12-05T20:33:20Z</time>
      </trkpt>
      <trkpt lat="43.14471" lon="2.32417">
        <ele>136</ele>
        <time>2021-12-05T20:33:22Z</time>
      </trkpt>
      <trkpt lat="43.14518" lon="2.32401">
        <ele>137</ele>
        <time>2021-12-05T20:33:31Z</time>
      </trkpt>
      <trkpt lat="43.14555" lon="2.32376">
        <ele>138</ele>
        <time>2021-12-05T20:33:38Z</time>
      </trkpt>
      <trkpt lat="43.14613" lon="2.32312">
        <ele>136</ele>
        <time>2021-12-05T20:33:51Z</time>
      </trkpt>
      <trkpt lat="43.14682" lon="2.32241">
        <ele>135</ele>
        <time>2021-12-05T20:34:07Z</time>
      </trkpt>
      <trkpt lat="43.14704" lon="2.3224">
        <ele>136</ele>
        <time>2021-12-05T20:34:11Z</time>
      </trkpt>
      <trkpt lat="43.14732" lon="2.32247">
        <ele>137</ele>
        <time>2021-12-05T20:34:16Z</time>
      </trkpt>
      <trkpt lat="43.14749" lon="2.32248">
        <ele>138</ele>
        <time>2021-12-05T20:34:19Z</time>
      </trkpt>
      <trkpt lat="43.14783" lon="2.32234">
        <ele>137</ele>
        <time>2021-12-05T20:34:25Z</time>
      </trkpt>
      <trkpt lat="43.14794" lon="2.32229">
        <ele>137</ele>
        <time>2021-12-05T20:34:27Z</time>
      </trkpt>
      <trkpt lat="43.14818" lon="2.32219">
        <ele>137</ele>
        <time>2021-12-05T20:34:32Z</time>
      </trkpt>
      <trkpt lat="43.14833" lon="2.32217">
        <ele>136</ele>
        <time>2021-12-05T20:34:34Z</time>
      </trkpt>
      <trkpt lat="43.14844" lon="2.32197">
        <ele>136</ele>
        <time>2021-12-05T20:34:38Z</time>
      </trkpt>
      <trkpt lat="43.14845" lon="2.32195">
        <ele>136</ele>
        <time>2021-12-05T20:34:38Z</time>
      </trkpt>
      <trkpt lat="43.14866" lon="2.32158">
        <ele>135</ele>
        <time>2021-12-05T20:34:44Z</time>
      </trkpt>
      <trkpt lat="43.14867" lon="2.32156">
        <ele>135</ele>
        <time>2021-12-05T20:34:44Z</time>
      </trkpt>
      <trkpt lat="43.14874" lon="2.32139">
        <ele>135</ele>
        <time>2021-12-05T20:34:47Z</time>
      </trkpt>
      <trkpt lat="43.14887" lon="2.32104">
        <ele>133</ele>
        <time>2021-12-05T20:34:52Z</time>
      </trkpt>
      <trkpt lat="43.14907" lon="2.32053">
        <ele>132</ele>
        <time>2021-12-05T20:34:59Z</time>
      </trkpt>
      <trkpt lat="43.14913" lon="2.32043">
        <ele>132</ele>
        <time>2021-12-05T20:35:01Z</time>
      </trkpt>
      <trkpt lat="43.14923" lon="2.32033">
        <ele>132</ele>
        <time>2021-12-05T20:35:03Z</time>
      </trkpt>
      <trkpt lat="43.14936" lon="2.32025">
        <ele>132</ele>
        <time>2021-12-05T20:35:06Z</time>
      </trkpt>
      <trkpt lat="43.14969" lon="2.32013">
        <ele>131</ele>
        <time>2021-12-05T20:35:12Z</time>
      </trkpt>
      <trkpt lat="43.1498" lon="2.32013">
        <ele>131</ele>
        <time>2021-12-05T20:35:14Z</time>
      </trkpt>
      <trkpt lat="43.14989" lon="2.32014">
        <ele>131</ele>
        <time>2021-12-05T20:35:15Z</time>
      </trkpt>
      <trkpt lat="43.15014" lon="2.3202">
        <ele>132</ele>
        <time>2021-12-05T20:35:20Z</time>
      </trkpt>
      <trkpt lat="43.15033" lon="2.32025">
        <ele>132</ele>
        <time>2021-12-05T20:35:23Z</time>
      </trkpt>
      <trkpt lat="43.1506" lon="2.3203">
        <ele>132</ele>
        <time>2021-12-05T20:35:28Z</time>
      </trkpt>
      <trkpt lat="43.15092" lon="2.32036">
        <ele>132</ele>
        <time>2021-12-05T20:35:34Z</time>
      </trkpt>
      <trkpt lat="43.15146" lon="2.32038">
        <ele>132</ele>
        <time>2021-12-05T20:35:44Z</time>
      </trkpt>
      <trkpt lat="43.15171" lon="2.32037">
        <ele>131</ele>
        <time>2021-12-05T20:35:48Z</time>
      </trkpt>
      <trkpt lat="43.15227" lon="2.32025">
        <ele>131</ele>
        <time>2021-12-05T20:35:58Z</time>
      </trkpt>
      <trkpt lat="43.15272" lon="2.32009">
        <ele>131</ele>
        <time>2021-12-05T20:36:06Z</time>
      </trkpt>
      <trkpt lat="43.15321" lon="2.31983">
        <ele>132</ele>
        <time>2021-12-05T20:36:16Z</time>
      </trkpt>
      <trkpt lat="43.15341" lon="2.31971">
        <ele>132</ele>
        <time>2021-12-05T20:36:20Z</time>
      </trkpt>
      <trkpt lat="43.1538" lon="2.3194">
        <ele>132</ele>
        <time>2021-12-05T20:36:28Z</time>
      </trkpt>
      <trkpt lat="43.15412" lon="2.31908">
        <ele>132</ele>
        <time>2021-12-05T20:36:35Z</time>
      </trkpt>
      <trkpt lat="43.15435" lon="2.31884">
        <ele>131</ele>
        <time>2021-12-05T20:36:40Z</time>
      </trkpt>
      <trkpt lat="43.15458" lon="2.31868">
        <ele>132</ele>
        <time>2021-12-05T20:36:44Z</time>
      </trkpt>
      <trkpt lat="43.15473" lon="2.31863">
        <ele>132</ele>
        <time>2021-12-05T20:36:47Z</time>
      </trkpt>
      <trkpt lat="43.15492" lon="2.31856">
        <ele>133</ele>
        <time>2021-12-05T20:36:51Z</time>
      </trkpt>
      <trkpt lat="43.15495" lon="2.31855">
        <ele>133</ele>
        <time>2021-12-05T20:36:51Z</time>
      </trkpt>
      <trkpt lat="43.15492" lon="2.31826">
        <ele>131</ele>
        <time>2021-12-05T20:36:55Z</time>
      </trkpt>
      <trkpt lat="43.15493" lon="2.31815">
        <ele>131</ele>
        <time>2021-12-05T20:36:56Z</time>
      </trkpt>
      <trkpt lat="43.15496" lon="2.31807">
        <ele>131</ele>
        <time>2021-12-05T20:36:58Z</time>
      </trkpt>
      <trkpt lat="43.15502" lon="2.318">
        <ele>131</ele>
        <time>2021-12-05T20:36:59Z</time>
      </trkpt>
      <trkpt lat="43.15508" lon="2.31796">
        <ele>132</ele>
        <time>2021-12-05T20:37:00Z</time>
      </trkpt>
      <trkpt lat="43.15547" lon="2.31792">
        <ele>136</ele>
        <time>2021-12-05T20:37:07Z</time>
      </trkpt>
      <trkpt lat="43.15553" lon="2.31788">
        <ele>136</ele>
        <time>2021-12-05T20:37:08Z</time>
      </trkpt>
      <trkpt lat="43.15556" lon="2.31782">
        <ele>137</ele>
        <time>2021-12-05T20:37:09Z</time>
      </trkpt>
      <trkpt lat="43.15588" lon="2.31649">
        <ele>133</ele>
        <time>2021-12-05T20:37:28Z</time>
      </trkpt>
      <trkpt lat="43.15611" lon="2.31572">
        <ele>135</ele>
        <time>2021-12-05T20:37:38Z</time>
      </trkpt>
      <trkpt lat="43.15616" lon="2.31542">
        <ele>135</ele>
        <time>2021-12-05T20:37:42Z</time>
      </trkpt>
      <trkpt lat="43.15627" lon="2.31403">
        <ele>134</ele>
        <time>2021-12-05T20:38:00Z</time>
      </trkpt>
      <trkpt lat="43.15633" lon="2.3137">
        <ele>134</ele>
        <time>2021-12-05T20:38:05Z</time>
      </trkpt>
      <trkpt lat="43.15656" lon="2.31294">
        <ele>133</ele>
        <time>2021-12-05T20:38:16Z</time>
      </trkpt>
      <trkpt lat="43.15706" lon="2.31142">
        <ele>129</ele>
        <time>2021-12-05T20:38:37Z</time>
      </trkpt>
      <trkpt lat="43.15725" lon="2.31102">
        <ele>129</ele>
        <time>2021-12-05T20:38:43Z</time>
      </trkpt>
      <trkpt lat="43.1579" lon="2.31019">
        <ele>130</ele>
        <time>2021-12-05T20:38:59Z</time>
      </trkpt>
      <trkpt lat="43.15822" lon="2.30992">
        <ele>131</ele>
        <time>2021-12-05T20:39:06Z</time>
      </trkpt>
      <trkpt lat="43.15861" lon="2.30971">
        <ele>132</ele>
        <time>2021-12-05T20:39:13Z</time>
      </trkpt>
      <trkpt lat="43.15897" lon="2.30962">
        <ele>133</ele>
        <time>2021-12-05T20:39:20Z</time>
      </trkpt>
      <trkpt lat="43.15955" lon="2.30961">
        <ele>133</ele>
        <time>2021-12-05T20:39:30Z</time>
      </trkpt>
      <trkpt lat="43.16091" lon="2.30967">
        <ele>133</ele>
        <time>2021-12-05T20:39:54Z</time>
      </trkpt>
      <trkpt lat="43.16146" lon="2.30964">
        <ele>133</ele>
        <time>2021-12-05T20:40:04Z</time>
      </trkpt>
      <trkpt lat="43.16172" lon="2.30958">
        <ele>132</ele>
        <time>2021-12-05T20:40:09Z</time>
      </trkpt>
      <trkpt lat="43.16256" lon="2.30918">
        <ele>130</ele>
        <time>2021-12-05T20:40:25Z</time>
      </trkpt>
      <trkpt lat="43.16392" lon="2.30859">
        <ele>131</ele>
        <time>2021-12-05T20:40:50Z</time>
      </trkpt>
      <trkpt lat="43.16473" lon="2.30827">
        <ele>127</ele>
        <time>2021-12-05T20:41:05Z</time>
      </trkpt>
      <trkpt lat="43.16526" lon="2.30812">
        <ele>126</ele>
        <time>2021-12-05T20:41:15Z</time>
      </trkpt>
      <trkpt lat="43.16591" lon="2.30832">
        <ele>127</ele>
        <time>2021-12-05T20:41:27Z</time>
      </trkpt>
      <trkpt lat="43.16638" lon="2.30852">
        <ele>127</ele>
        <time>2021-12-05T20:41:35Z</time>
      </trkpt>
      <trkpt lat="43.16656" lon="2.30862">
        <ele>128</ele>
        <time>2021-12-05T20:41:39Z</time>
      </trkpt>
      <trkpt lat="43.16685" lon="2.30885">
        <ele>128</ele>
        <time>2021-12-05T20:41:45Z</time>
      </trkpt>
      <trkpt lat="43.1673" lon="2.30908">
        <ele>127</ele>
        <time>2021-12-05T20:41:53Z</time>
      </trkpt>
      <trkpt lat="43.16796" lon="2.30922">
        <ele>125</ele>
        <time>2021-12-05T20:42:05Z</time>
      </trkpt>
      <trkpt lat="43.16819" lon="2.30938">
        <ele>126</ele>
        <time>2021-12-05T20:42:10Z</time>
      </trkpt>
      <trkpt lat="43.16843" lon="2.30969">
        <ele>128</ele>
        <time>2021-12-05T20:42:16Z</time>
      </trkpt>
      <trkpt lat="43.16858" lon="2.30978">
        <ele>129</ele>
        <time>2021-12-05T20:42:19Z</time>
      </trkpt>
      <trkpt lat="43.1688" lon="2.30981">
        <ele>129</ele>
        <time>2021-12-05T20:42:22Z</time>
      </trkpt>
      <trkpt lat="43.16916" lon="2.30977">
        <ele>127</ele>
        <time>2021-12-05T20:42:29Z</time>
      </trkpt>
      <trkpt lat="43.16946" lon="2.30978">
        <ele>127</ele>
        <time>2021-12-05T20:42:34Z</time>
      </trkpt>
      <trkpt lat="43.17012" lon="2.30997">
        <ele>127</ele>
        <time>2021-12-05T20:42:46Z</time>
      </trkpt>
      <trkpt lat="43.17035" lon="2.30995">
        <ele>126</ele>
        <time>2021-12-05T20:42:50Z</time>
      </trkpt>
      <trkpt lat="43.1706" lon="2.30991">
        <ele>125</ele>
        <time>2021-12-05T20:42:55Z</time>
      </trkpt>
      <trkpt lat="43.17079" lon="2.30994">
        <ele>125</ele>
        <time>2021-12-05T20:42:58Z</time>
      </trkpt>
      <trkpt lat="43.17105" lon="2.31014">
        <ele>125</ele>
        <time>2021-12-05T20:43:04Z</time>
      </trkpt>
      <trkpt lat="43.17133" lon="2.31058">
        <ele>124</ele>
        <time>2021-12-05T20:43:11Z</time>
      </trkpt>
      <trkpt lat="43.17149" lon="2.31122">
        <ele>125</ele>
        <time>2021-12-05T20:43:20Z</time>
      </trkpt>
      <trkpt lat="43.17158" lon="2.31149">
        <ele>126</ele>
        <time>2021-12-05T20:43:24Z</time>
      </trkpt>
      <trkpt lat="43.17172" lon="2.31163">
        <ele>126</ele>
        <time>2021-12-05T20:43:27Z</time>
      </trkpt>
      <trkpt lat="43.17231" lon="2.31215">
        <ele>128</ele>
        <time>2021-12-05T20:43:39Z</time>
      </trkpt>
      <trkpt lat="43.17251" lon="2.31227">
        <ele>129</ele>
        <time>2021-12-05T20:43:43Z</time>
      </trkpt>
      <trkpt lat="43.17362" lon="2.31259">
        <ele>128</ele>
        <time>2021-12-05T20:44:03Z</time>
      </trkpt>
      <trkpt lat="43.17395" lon="2.31283">
        <ele>130</ele>
        <time>2021-12-05T20:44:10Z</time>
      </trkpt>
      <trkpt lat="43.17451" lon="2.3133">
        <ele>132</ele>
        <time>2021-12-05T20:44:22Z</time>
      </trkpt>
      <trkpt lat="43.17481" lon="2.31349">
        <ele>132</ele>
        <time>2021-12-05T20:44:28Z</time>
      </trkpt>
      <trkpt lat="43.17542" lon="2.31381">
        <ele>133</ele>
        <time>2021-12-05T20:44:39Z</time>
      </trkpt>
      <trkpt lat="43.17559" lon="2.31377">
        <ele>131</ele>
        <time>2021-12-05T20:44:42Z</time>
      </trkpt>
      <trkpt lat="43.17577" lon="2.31368">
        <ele>129</ele>
        <time>2021-12-05T20:44:46Z</time>
      </trkpt>
      <trkpt lat="43.17594" lon="2.31369">
        <ele>128</ele>
        <time>2021-12-05T20:44:49Z</time>
      </trkpt>
      <trkpt lat="43.17613" lon="2.31383">
        <ele>128</ele>
        <time>2021-12-05T20:44:53Z</time>
      </trkpt>
      <trkpt lat="43.17637" lon="2.3141">
        <ele>129</ele>
        <time>2021-12-05T20:44:58Z</time>
      </trkpt>
      <trkpt lat="43.17648" lon="2.31431">
        <ele>130</ele>
        <time>2021-12-05T20:45:01Z</time>
      </trkpt>
      <trkpt lat="43.17654" lon="2.31447">
        <ele>131</ele>
        <time>2021-12-05T20:45:04Z</time>
      </trkpt>
      <trkpt lat="43.17654" lon="2.31485">
        <ele>134</ele>
        <time>2021-12-05T20:45:09Z</time>
      </trkpt>
      <trkpt lat="43.17648" lon="2.31635">
        <ele>139</ele>
        <time>2021-12-05T20:45:28Z</time>
      </trkpt>
      <trkpt lat="43.1762" lon="2.31752">
        <ele>141</ele>
        <time>2021-12-05T20:45:44Z</time>
      </trkpt>
      <trkpt lat="43.17607" lon="2.31879">
        <ele>140</ele>
        <time>2021-12-05T20:46:01Z</time>
      </trkpt>
      <trkpt lat="43.17599" lon="2.31925">
        <ele>139</ele>
        <time>2021-12-05T20:46:07Z</time>
      </trkpt>
      <trkpt lat="43.17582" lon="2.31977">
        <ele>139</ele>
        <time>2021-12-05T20:46:14Z</time>
      </trkpt>
      <trkpt lat="43.17517" lon="2.32126">
        <ele>141</ele>
        <time>2021-12-05T20:46:37Z</time>
      </trkpt>
      <trkpt lat="43.17508" lon="2.32176">
        <ele>140</ele>
        <time>2021-12-05T20:46:44Z</time>
      </trkpt>
      <trkpt lat="43.17503" lon="2.32264">
        <ele>137</ele>
        <time>2021-12-05T20:46:55Z</time>
      </trkpt>
      <trkpt lat="43.17507" lon="2.32299">
        <ele>136</ele>
        <time>2021-12-05T20:47:00Z</time>
      </trkpt>
      <trkpt lat="43.17517" lon="2.32324">
        <ele>135</ele>
        <time>2021-12-05T20:47:03Z</time>
      </trkpt>
      <trkpt lat="43.17539" lon="2.32345">
        <ele>134</ele>
        <time>2021-12-05T20:47:08Z</time>
      </trkpt>
      <trkpt lat="43.17583" lon="2.3237">
        <ele>132</ele>
        <time>2021-12-05T20:47:17Z</time>
      </trkpt>
      <trkpt lat="43.17585" lon="2.32382">
        <ele>132</ele>
        <time>2021-12-05T20:47:18Z</time>
      </trkpt>
      <trkpt lat="43.17796" lon="2.32437">
        <ele>125</ele>
        <time>2021-12-05T20:47:56Z</time>
      </trkpt>
      <trkpt lat="43.17809" lon="2.32443">
        <ele>124</ele>
        <time>2021-12-05T20:47:59Z</time>
      </trkpt>
      <trkpt lat="43.17815" lon="2.32451">
        <ele>124</ele>
        <time>2021-12-05T20:48:00Z</time>
      </trkpt>
      <trkpt lat="43.17822" lon="2.32463">
        <ele>124</ele>
        <time>2021-12-05T20:48:02Z</time>
      </trkpt>
      <trkpt lat="43.1783" lon="2.32489">
        <ele>123</ele>
        <time>2021-12-05T20:48:06Z</time>
      </trkpt>
      <trkpt lat="43.1784" lon="2.32512">
        <ele>124</ele>
        <time>2021-12-05T20:48:09Z</time>
      </trkpt>
      <trkpt lat="43.17878" lon="2.32548">
        <ele>125</ele>
        <time>2021-12-05T20:48:18Z</time>
      </trkpt>
      <trkpt lat="43.18041" lon="2.32636">
        <ele>121</ele>
        <time>2021-12-05T20:48:49Z</time>
      </trkpt>
      <trkpt lat="43.18111" lon="2.32674">
        <ele>119</ele>
        <time>2021-12-05T20:49:02Z</time>
      </trkpt>
      <trkpt lat="43.18138" lon="2.32689">
        <ele>120</ele>
        <time>2021-12-05T20:49:07Z</time>
      </trkpt>
      <trkpt lat="43.18403" lon="2.32833">
        <ele>115</ele>
        <time>2021-12-05T20:49:58Z</time>
      </trkpt>
      <trkpt lat="43.18446" lon="2.32856">
        <ele>115</ele>
        <time>2021-12-05T20:50:06Z</time>
      </trkpt>
      <trkpt lat="43.18541" lon="2.32923">
        <ele>114</ele>
        <time>2021-12-05T20:50:25Z</time>
      </trkpt>
      <trkpt lat="43.18659" lon="2.33029">
        <ele>118</ele>
        <time>2021-12-05T20:50:50Z</time>
      </trkpt>
      <trkpt lat="43.18802" lon="2.33151">
        <ele>120</ele>
        <time>2021-12-05T20:51:20Z</time>
      </trkpt>
      <trkpt lat="43.18884" lon="2.33214">
        <ele>123</ele>
        <time>2021-12-05T20:51:37Z</time>
      </trkpt>
      <trkpt lat="43.18903" lon="2.33223">
        <ele>123</ele>
        <time>2021-12-05T20:51:41Z</time>
      </trkpt>
      <trkpt lat="43.18922" lon="2.33231">
        <ele>123</ele>
        <time>2021-12-05T20:51:44Z</time>
      </trkpt>
      <trkpt lat="43.18942" lon="2.33233">
        <ele>123</ele>
        <time>2021-12-05T20:51:48Z</time>
      </trkpt>
      <trkpt lat="43.18956" lon="2.33231">
        <ele>123</ele>
        <time>2021-12-05T20:51:50Z</time>
      </trkpt>
      <trkpt lat="43.19" lon="2.33212">
        <ele>120</ele>
        <time>2021-12-05T20:51:58Z</time>
      </trkpt>
      <trkpt lat="43.1904" lon="2.33186">
        <ele>117</ele>
        <time>2021-12-05T20:52:06Z</time>
      </trkpt>
      <trkpt lat="43.19071" lon="2.33176">
        <ele>116</ele>
        <time>2021-12-05T20:52:12Z</time>
      </trkpt>
      <trkpt lat="43.19085" lon="2.33176">
        <ele>115</ele>
        <time>2021-12-05T20:52:14Z</time>
      </trkpt>
      <trkpt lat="43.19098" lon="2.33179">
        <ele>115</ele>
        <time>2021-12-05T20:52:17Z</time>
      </trkpt>
      <trkpt lat="43.19115" lon="2.33186">
        <ele>116</ele>
        <time>2021-12-05T20:52:20Z</time>
      </trkpt>
      <trkpt lat="43.19127" lon="2.33194">
        <ele>116</ele>
        <time>2021-12-05T20:52:22Z</time>
      </trkpt>
      <trkpt lat="43.19142" lon="2.33209">
        <ele>117</ele>
        <time>2021-12-05T20:52:26Z</time>
      </trkpt>
      <trkpt lat="43.19152" lon="2.33224">
        <ele>118</ele>
        <time>2021-12-05T20:52:28Z</time>
      </trkpt>
      <trkpt lat="43.19161" lon="2.33245">
        <ele>119</ele>
        <time>2021-12-05T20:52:31Z</time>
      </trkpt>
      <trkpt lat="43.19167" lon="2.33265">
        <ele>120</ele>
        <time>2021-12-05T20:52:34Z</time>
      </trkpt>
      <trkpt lat="43.19171" lon="2.33305">
        <ele>121</ele>
        <time>2021-12-05T20:52:40Z</time>
      </trkpt>
      <trkpt lat="43.1917" lon="2.33383">
        <ele>119</ele>
        <time>2021-12-05T20:52:50Z</time>
      </trkpt>
      <trkpt lat="43.19173" lon="2.33403">
        <ele>118</ele>
        <time>2021-12-05T20:52:52Z</time>
      </trkpt>
      <trkpt lat="43.19177" lon="2.33426">
        <ele>117</ele>
        <time>2021-12-05T20:52:55Z</time>
      </trkpt>
      <trkpt lat="43.1918" lon="2.33435">
        <ele>117</ele>
        <time>2021-12-05T20:52:57Z</time>
      </trkpt>
      <trkpt lat="43.19185" lon="2.33449">
        <ele>117</ele>
        <time>2021-12-05T20:52:59Z</time>
      </trkpt>
      <trkpt lat="43.19197" lon="2.33476">
        <ele>117</ele>
        <time>2021-12-05T20:53:03Z</time>
      </trkpt>
      <trkpt lat="43.19199" lon="2.33491">
        <ele>117</ele>
        <time>2021-12-05T20:53:05Z</time>
      </trkpt>
      <trkpt lat="43.19207" lon="2.33569">
        <ele>121</ele>
        <time>2021-12-05T20:53:15Z</time>
      </trkpt>
      <trkpt lat="43.1921" lon="2.33589">
        <ele>122</ele>
        <time>2021-12-05T20:53:18Z</time>
      </trkpt>
      <trkpt lat="43.19216" lon="2.33605">
        <ele>123</ele>
        <time>2021-12-05T20:53:20Z</time>
      </trkpt>
      <trkpt lat="43.1923" lon="2.33634">
        <ele>125</ele>
        <time>2021-12-05T20:53:24Z</time>
      </trkpt>
      <trkpt lat="43.19232" lon="2.33638">
        <ele>125</ele>
        <time>2021-12-05T20:53:25Z</time>
      </trkpt>
      <trkpt lat="43.19247" lon="2.33626">
        <ele>124</ele>
        <time>2021-12-05T20:53:28Z</time>
      </trkpt>
      <trkpt lat="43.19261" lon="2.3362">
        <ele>123</ele>
        <time>2021-12-05T20:53:31Z</time>
      </trkpt>
      <trkpt lat="43.19283" lon="2.3362">
        <ele>123</ele>
        <time>2021-12-05T20:53:35Z</time>
      </trkpt>
      <trkpt lat="43.19302" lon="2.3362">
        <ele>123</ele>
        <time>2021-12-05T20:53:38Z</time>
      </trkpt>
      <trkpt lat="43.19328" lon="2.33621">
        <ele>123</ele>
        <time>2021-12-05T20:53:43Z</time>
      </trkpt>
      <trkpt lat="43.19363" lon="2.33623">
        <ele>124</ele>
        <time>2021-12-05T20:53:49Z</time>
      </trkpt>
      <trkpt lat="43.19406" lon="2.33625">
        <ele>126</ele>
        <time>2021-12-05T20:53:57Z</time>
      </trkpt>
      <trkpt lat="43.19448" lon="2.33629">
        <ele>127</ele>
        <time>2021-12-05T20:54:04Z</time>
      </trkpt>
      <trkpt lat="43.1949" lon="2.33635">
        <ele>127</ele>
        <time>2021-12-05T20:54:12Z</time>
      </trkpt>
      <trkpt lat="43.19616" lon="2.33655">
        <ele>124</ele>
        <time>2021-12-05T20:54:34Z</time>
      </trkpt>
      <trkpt lat="43.19661" lon="2.33673">
        <ele>123</ele>
        <time>2021-12-05T20:54:42Z</time>
      </trkpt>
      <trkpt lat="43.19729" lon="2.33711">
        <ele>122</ele>
        <time>2021-12-05T20:54:56Z</time>
      </trkpt>
      <trkpt lat="43.19742" lon="2.33717">
        <ele>122</ele>
        <time>2021-12-05T20:54:58Z</time>
      </trkpt>
      <trkpt lat="43.19771" lon="2.33724">
        <ele>121</ele>
        <time>2021-12-05T20:55:03Z</time>
      </trkpt>
      <trkpt lat="43.19836" lon="2.33732">
        <ele>121</ele>
        <time>2021-12-05T20:55:15Z</time>
      </trkpt>
      <trkpt lat="43.19955" lon="2.33724">
        <ele>115</ele>
        <time>2021-12-05T20:55:36Z</time>
      </trkpt>
      <trkpt lat="43.19966" lon="2.33726">
        <ele>115</ele>
        <time>2021-12-05T20:55:38Z</time>
      </trkpt>
      <trkpt lat="43.19976" lon="2.3373">
        <ele>115</ele>
        <time>2021-12-05T20:55:40Z</time>
      </trkpt>
      <trkpt lat="43.19986" lon="2.33742">
        <ele>115</ele>
        <time>2021-12-05T20:55:42Z</time>
      </trkpt>
      <trkpt lat="43.19996" lon="2.33742">
        <ele>114</ele>
        <time>2021-12-05T20:55:44Z</time>
      </trkpt>
      <trkpt lat="43.20001" lon="2.33735">
        <ele>113</ele>
        <time>2021-12-05T20:55:45Z</time>
      </trkpt>
      <trkpt lat="43.20003" lon="2.33727">
        <ele>113</ele>
        <time>2021-12-05T20:55:46Z</time>
      </trkpt>
      <trkpt lat="43.20013" lon="2.33718">
        <ele>112</ele>
        <time>2021-12-05T20:55:49Z</time>
      </trkpt>
      <trkpt lat="43.2003" lon="2.33709">
        <ele>111</ele>
        <time>2021-12-05T20:55:52Z</time>
      </trkpt>
      <trkpt lat="43.20072" lon="2.33693">
        <ele>110</ele>
        <time>2021-12-05T20:56:00Z</time>
      </trkpt>
      <trkpt lat="43.20103" lon="2.33675">
        <ele>109</ele>
        <time>2021-12-05T20:56:06Z</time>
      </trkpt>
      <trkpt lat="43.20138" lon="2.33652">
        <ele>110</ele>
        <time>2021-12-05T20:56:12Z</time>
      </trkpt>
      <trkpt lat="43.20188" lon="2.33608">
        <ele>110</ele>
        <time>2021-12-05T20:56:23Z</time>
      </trkpt>
      <trkpt lat="43.20341" lon="2.33437">
        <ele>109</ele>
        <time>2021-12-05T20:56:58Z</time>
      </trkpt>
      <trkpt lat="43.20377" lon="2.33394">
        <ele>108</ele>
        <time>2021-12-05T20:57:07Z</time>
      </trkpt>
      <trkpt lat="43.20406" lon="2.3336">
        <ele>108</ele>
        <time>2021-12-05T20:57:13Z</time>
      </trkpt>
      <trkpt lat="43.20416" lon="2.33349">
        <ele>108</ele>
        <time>2021-12-05T20:57:16Z</time>
      </trkpt>
      <trkpt lat="43.20424" lon="2.33345">
        <ele>108</ele>
        <time>2021-12-05T20:57:17Z</time>
      </trkpt>
      <trkpt lat="43.20438" lon="2.3333">
        <ele>109</ele>
        <time>2021-12-05T20:57:20Z</time>
      </trkpt>
      <trkpt lat="43.20454" lon="2.33319">
        <ele>110</ele>
        <time>2021-12-05T20:57:24Z</time>
      </trkpt>
      <trkpt lat="43.20463" lon="2.33322">
        <ele>110</ele>
        <time>2021-12-05T20:57:25Z</time>
      </trkpt>
      <trkpt lat="43.20473" lon="2.3332">
        <ele>110</ele>
        <time>2021-12-05T20:57:27Z</time>
      </trkpt>
      <trkpt lat="43.20486" lon="2.33327">
        <ele>110</ele>
        <time>2021-12-05T20:57:29Z</time>
      </trkpt>
      <trkpt lat="43.20521" lon="2.33354">
        <ele>110</ele>
        <time>2021-12-05T20:57:37Z</time>
      </trkpt>
      <trkpt lat="43.20532" lon="2.3336">
        <ele>111</ele>
        <time>2021-12-05T20:57:39Z</time>
      </trkpt>
      <trkpt lat="43.20663" lon="2.33498">
        <ele>111</ele>
        <time>2021-12-05T20:58:08Z</time>
      </trkpt>
      <trkpt lat="43.20709" lon="2.33569">
        <ele>110</ele>
        <time>2021-12-05T20:58:20Z</time>
      </trkpt>
      <trkpt lat="43.20742" lon="2.33626">
        <ele>110</ele>
        <time>2021-12-05T20:58:30Z</time>
      </trkpt>
      <trkpt lat="43.20751" lon="2.33638">
        <ele>110</ele>
        <time>2021-12-05T20:58:32Z</time>
      </trkpt>
      <trkpt lat="43.20771" lon="2.3368">
        <ele>110</ele>
        <time>2021-12-05T20:58:39Z</time>
      </trkpt>
      <trkpt lat="43.20775" lon="2.3371">
        <ele>110</ele>
        <time>2021-12-05T20:58:43Z</time>
      </trkpt>
      <trkpt lat="43.20768" lon="2.33751">
        <ele>110</ele>
        <time>2021-12-05T20:58:48Z</time>
      </trkpt>
      <trkpt lat="43.2076" lon="2.33782">
        <ele>110</ele>
        <time>2021-12-05T20:58:52Z</time>
      </trkpt>
      <trkpt lat="43.20756" lon="2.33804">
        <ele>110</ele>
        <time>2021-12-05T20:58:55Z</time>
      </trkpt>
      <trkpt lat="43.20759" lon="2.33843">
        <ele>110</ele>
        <time>2021-12-05T20:59:00Z</time>
      </trkpt>
      <trkpt lat="43.20768" lon="2.33886">
        <ele>110</ele>
        <time>2021-12-05T20:59:06Z</time>
      </trkpt>
      <trkpt lat="43.20779" lon="2.33953">
        <ele>110</ele>
        <time>2021-12-05T20:59:15Z</time>
      </trkpt>
      <trkpt lat="43.20782" lon="2.34032">
        <ele>109</ele>
        <time>2021-12-05T20:59:25Z</time>
      </trkpt>
      <trkpt lat="43.20779" lon="2.34087">
        <ele>109</ele>
        <time>2021-12-05T20:59:32Z</time>
      </trkpt>
      <trkpt lat="43.20773" lon="2.34127">
        <ele>109</ele>
        <time>2021-12-05T20:59:38Z</time>
      </trkpt>
      <trkpt lat="43.20747" lon="2.34249">
        <ele>110</ele>
        <time>2021-12-05T20:59:54Z</time>
      </trkpt>
      <trkpt lat="43.20743" lon="2.34299">
        <ele>110</ele>
        <time>2021-12-05T21:00:01Z</time>
      </trkpt>
      <trkpt lat="43.20743" lon="2.34331">
        <ele>111</ele>
        <time>2021-12-05T21:00:05Z</time>
      </trkpt>
      <trkpt lat="43.20748" lon="2.34373">
        <ele>112</ele>
        <time>2021-12-05T21:00:10Z</time>
      </trkpt>
      <trkpt lat="43.20738" lon="2.34379">
        <ele>112</ele>
        <time>2021-12-05T21:00:12Z</time>
      </trkpt>
      <trkpt lat="43.20733" lon="2.34384">
        <ele>112</ele>
        <time>2021-12-05T21:00:13Z</time>
      </trkpt>
      <trkpt lat="43.20721" lon="2.34437">
        <ele>111</ele>
        <time>2021-12-05T21:00:21Z</time>
      </trkpt>
      <trkpt lat="43.20697" lon="2.34517">
        <ele>108</ele>
        <time>2021-12-05T21:00:32Z</time>
      </trkpt>
    </trkseg>
  </trk>
</gpx>